<?xml version="1.0" encoding="UTF-8" standalone="no" ?>
<gpx xmlns="http://www.topografix.com/GPX/1/1" xmlns:xsi="http://www.w3.org/2001/XMLSchema-instance" xsi:schemaLocation="http://www.topografix.com/GPX/1/1 http://www.topografix.com/GPX/1/1/gpx.xsd" version="1.1" creator="VisuGPX - https://www.visugpx.com">
  <metadata>
    <name>Tour de l'Aiguille par la piste de L'Aiguille</name>
  </metadata>
  <trk>
    <name><![CDATA[Tour de l'Aiguille par la piste de L'Aiguille_1]]></name>
    <trkseg>
      <trkpt lat="44.90387" lon="5.42812">
        <ele>844</ele>
        <time>2020-05-21T16:08:54.511Z</time>
      </trkpt>
      <trkpt lat="44.90386" lon="5.4281">
        <ele>844</ele>
        <time>2020-05-21T16:08:55.511Z</time>
      </trkpt>
      <trkpt lat="44.90386" lon="5.42808">
        <ele>843</ele>
        <time>2020-05-21T16:08:56.511Z</time>
      </trkpt>
      <trkpt lat="44.90387" lon="5.42808">
        <ele>843</ele>
        <time>2020-05-21T16:08:57.511Z</time>
      </trkpt>
      <trkpt lat="44.90388" lon="5.42807">
        <ele>843</ele>
        <time>2020-05-21T16:08:58.511Z</time>
      </trkpt>
      <trkpt lat="44.90388" lon="5.42808">
        <ele>843</ele>
        <time>2020-05-21T16:08:59.511Z</time>
      </trkpt>
      <trkpt lat="44.90389" lon="5.42809">
        <ele>843</ele>
        <time>2020-05-21T16:09:00.511Z</time>
      </trkpt>
      <trkpt lat="44.90389" lon="5.4281">
        <ele>842</ele>
        <time>2020-05-21T16:09:01.511Z</time>
      </trkpt>
      <trkpt lat="44.90389" lon="5.42811">
        <ele>842</ele>
        <time>2020-05-21T16:09:02.511Z</time>
      </trkpt>
      <trkpt lat="44.90388" lon="5.42812">
        <ele>842</ele>
        <time>2020-05-21T16:09:03.511Z</time>
      </trkpt>
      <trkpt lat="44.90388" lon="5.42813">
        <ele>843</ele>
        <time>2020-05-21T16:09:04.511Z</time>
      </trkpt>
      <trkpt lat="44.90388" lon="5.42814">
        <ele>843</ele>
        <time>2020-05-21T16:09:05.511Z</time>
      </trkpt>
      <trkpt lat="44.90388" lon="5.42814">
        <ele>843</ele>
        <time>2020-05-21T16:09:06.511Z</time>
      </trkpt>
      <trkpt lat="44.90388" lon="5.42813">
        <ele>843</ele>
        <time>2020-05-21T16:09:07.511Z</time>
      </trkpt>
      <trkpt lat="44.90388" lon="5.42813">
        <ele>843</ele>
        <time>2020-05-21T16:09:08.511Z</time>
      </trkpt>
      <trkpt lat="44.90388" lon="5.42813">
        <ele>843</ele>
        <time>2020-05-21T16:09:09.511Z</time>
      </trkpt>
      <trkpt lat="44.90387" lon="5.42813">
        <ele>843</ele>
        <time>2020-05-21T16:09:10.511Z</time>
      </trkpt>
      <trkpt lat="44.90387" lon="5.42813">
        <ele>843</ele>
        <time>2020-05-21T16:09:11.511Z</time>
      </trkpt>
      <trkpt lat="44.90386" lon="5.42813">
        <ele>843</ele>
        <time>2020-05-21T16:09:12.511Z</time>
      </trkpt>
      <trkpt lat="44.90385" lon="5.42813">
        <ele>843</ele>
        <time>2020-05-21T16:09:13.511Z</time>
      </trkpt>
      <trkpt lat="44.90385" lon="5.42814">
        <ele>843</ele>
        <time>2020-05-21T16:09:14.511Z</time>
      </trkpt>
      <trkpt lat="44.90385" lon="5.42814">
        <ele>843</ele>
        <time>2020-05-21T16:09:15.511Z</time>
      </trkpt>
      <trkpt lat="44.90385" lon="5.42814">
        <ele>843</ele>
        <time>2020-05-21T16:09:16.511Z</time>
      </trkpt>
      <trkpt lat="44.90385" lon="5.42814">
        <ele>843</ele>
        <time>2020-05-21T16:09:17.511Z</time>
      </trkpt>
      <trkpt lat="44.90385" lon="5.42814">
        <ele>843</ele>
        <time>2020-05-21T16:09:18.511Z</time>
      </trkpt>
      <trkpt lat="44.90385" lon="5.42814">
        <ele>843</ele>
        <time>2020-05-21T16:09:19.511Z</time>
      </trkpt>
      <trkpt lat="44.90385" lon="5.42814">
        <ele>843</ele>
        <time>2020-05-21T16:09:20.511Z</time>
      </trkpt>
      <trkpt lat="44.90385" lon="5.42814">
        <ele>843</ele>
        <time>2020-05-21T16:09:21.511Z</time>
      </trkpt>
      <trkpt lat="44.90384" lon="5.42816">
        <ele>843</ele>
        <time>2020-05-21T16:09:22.512Z</time>
      </trkpt>
      <trkpt lat="44.90384" lon="5.42816">
        <ele>843</ele>
        <time>2020-05-21T16:09:23.512Z</time>
      </trkpt>
      <trkpt lat="44.90384" lon="5.42817">
        <ele>843</ele>
        <time>2020-05-21T16:09:24.512Z</time>
      </trkpt>
      <trkpt lat="44.90384" lon="5.42817">
        <ele>843</ele>
        <time>2020-05-21T16:09:25.512Z</time>
      </trkpt>
      <trkpt lat="44.90384" lon="5.42817">
        <ele>843</ele>
        <time>2020-05-21T16:09:26.512Z</time>
      </trkpt>
      <trkpt lat="44.90384" lon="5.42816">
        <ele>843</ele>
        <time>2020-05-21T16:09:27.512Z</time>
      </trkpt>
      <trkpt lat="44.90385" lon="5.42812">
        <ele>843</ele>
        <time>2020-05-21T16:09:28.512Z</time>
      </trkpt>
      <trkpt lat="44.90386" lon="5.42809">
        <ele>843</ele>
        <time>2020-05-21T16:09:29.512Z</time>
      </trkpt>
      <trkpt lat="44.90386" lon="5.42806">
        <ele>843</ele>
        <time>2020-05-21T16:09:30.512Z</time>
      </trkpt>
      <trkpt lat="44.90386" lon="5.42803">
        <ele>842</ele>
        <time>2020-05-21T16:09:31.512Z</time>
      </trkpt>
      <trkpt lat="44.90384" lon="5.42801">
        <ele>842</ele>
        <time>2020-05-21T16:09:32.512Z</time>
      </trkpt>
      <trkpt lat="44.90382" lon="5.428">
        <ele>842</ele>
        <time>2020-05-21T16:09:33.512Z</time>
      </trkpt>
      <trkpt lat="44.9038" lon="5.428">
        <ele>841</ele>
        <time>2020-05-21T16:09:34.512Z</time>
      </trkpt>
      <trkpt lat="44.90379" lon="5.42801">
        <ele>841</ele>
        <time>2020-05-21T16:09:35.513Z</time>
      </trkpt>
      <trkpt lat="44.90377" lon="5.42801">
        <ele>841</ele>
        <time>2020-05-21T16:09:36.513Z</time>
      </trkpt>
      <trkpt lat="44.90375" lon="5.42802">
        <ele>841</ele>
        <time>2020-05-21T16:09:37.513Z</time>
      </trkpt>
      <trkpt lat="44.90372" lon="5.42803">
        <ele>841</ele>
        <time>2020-05-21T16:09:38.513Z</time>
      </trkpt>
      <trkpt lat="44.9037" lon="5.42805">
        <ele>841</ele>
        <time>2020-05-21T16:09:39.512Z</time>
      </trkpt>
      <trkpt lat="44.90368" lon="5.42806">
        <ele>841</ele>
        <time>2020-05-21T16:09:40.512Z</time>
      </trkpt>
      <trkpt lat="44.90366" lon="5.42808">
        <ele>841</ele>
        <time>2020-05-21T16:09:41.512Z</time>
      </trkpt>
      <trkpt lat="44.90363" lon="5.4281">
        <ele>841</ele>
        <time>2020-05-21T16:09:42.513Z</time>
      </trkpt>
      <trkpt lat="44.90361" lon="5.42812">
        <ele>840</ele>
        <time>2020-05-21T16:09:43.512Z</time>
      </trkpt>
      <trkpt lat="44.90358" lon="5.42813">
        <ele>840</ele>
        <time>2020-05-21T16:09:44.512Z</time>
      </trkpt>
      <trkpt lat="44.90357" lon="5.42814">
        <ele>840</ele>
        <time>2020-05-21T16:09:45.513Z</time>
      </trkpt>
      <trkpt lat="44.90355" lon="5.42814">
        <ele>840</ele>
        <time>2020-05-21T16:09:46.513Z</time>
      </trkpt>
      <trkpt lat="44.90353" lon="5.42816">
        <ele>841</ele>
        <time>2020-05-21T16:09:47.512Z</time>
      </trkpt>
      <trkpt lat="44.9035" lon="5.42817">
        <ele>841</ele>
        <time>2020-05-21T16:09:48.513Z</time>
      </trkpt>
      <trkpt lat="44.90348" lon="5.42818">
        <ele>841</ele>
        <time>2020-05-21T16:09:49.512Z</time>
      </trkpt>
      <trkpt lat="44.90346" lon="5.42819">
        <ele>842</ele>
        <time>2020-05-21T16:09:50.512Z</time>
      </trkpt>
      <trkpt lat="44.90343" lon="5.42821">
        <ele>842</ele>
        <time>2020-05-21T16:09:51.513Z</time>
      </trkpt>
      <trkpt lat="44.9034" lon="5.42822">
        <ele>842</ele>
        <time>2020-05-21T16:09:52.512Z</time>
      </trkpt>
      <trkpt lat="44.90337" lon="5.42824">
        <ele>842</ele>
        <time>2020-05-21T16:09:53.513Z</time>
      </trkpt>
      <trkpt lat="44.90335" lon="5.42825">
        <ele>842</ele>
        <time>2020-05-21T16:09:54.513Z</time>
      </trkpt>
      <trkpt lat="44.90333" lon="5.42826">
        <ele>843</ele>
        <time>2020-05-21T16:09:55.512Z</time>
      </trkpt>
      <trkpt lat="44.90331" lon="5.42827">
        <ele>843</ele>
        <time>2020-05-21T16:09:56.513Z</time>
      </trkpt>
      <trkpt lat="44.90329" lon="5.42828">
        <ele>843</ele>
        <time>2020-05-21T16:09:57.512Z</time>
      </trkpt>
      <trkpt lat="44.90328" lon="5.42829">
        <ele>843</ele>
        <time>2020-05-21T16:09:58.512Z</time>
      </trkpt>
      <trkpt lat="44.90326" lon="5.4283">
        <ele>843</ele>
        <time>2020-05-21T16:09:59.512Z</time>
      </trkpt>
      <trkpt lat="44.90325" lon="5.4283">
        <ele>843</ele>
        <time>2020-05-21T16:10:00.513Z</time>
      </trkpt>
      <trkpt lat="44.90323" lon="5.42831">
        <ele>844</ele>
        <time>2020-05-21T16:10:01.513Z</time>
      </trkpt>
      <trkpt lat="44.9032" lon="5.42832">
        <ele>844</ele>
        <time>2020-05-21T16:10:02.512Z</time>
      </trkpt>
      <trkpt lat="44.90318" lon="5.42832">
        <ele>844</ele>
        <time>2020-05-21T16:10:03.512Z</time>
      </trkpt>
      <trkpt lat="44.90315" lon="5.42833">
        <ele>844</ele>
        <time>2020-05-21T16:10:04.512Z</time>
      </trkpt>
      <trkpt lat="44.90313" lon="5.42834">
        <ele>844</ele>
        <time>2020-05-21T16:10:05.513Z</time>
      </trkpt>
      <trkpt lat="44.90311" lon="5.42835">
        <ele>844</ele>
        <time>2020-05-21T16:10:06.513Z</time>
      </trkpt>
      <trkpt lat="44.90308" lon="5.42835">
        <ele>844</ele>
        <time>2020-05-21T16:10:07.513Z</time>
      </trkpt>
      <trkpt lat="44.90306" lon="5.42836">
        <ele>844</ele>
        <time>2020-05-21T16:10:08.512Z</time>
      </trkpt>
      <trkpt lat="44.90305" lon="5.42837">
        <ele>844</ele>
        <time>2020-05-21T16:10:09.513Z</time>
      </trkpt>
      <trkpt lat="44.90304" lon="5.42838">
        <ele>844</ele>
        <time>2020-05-21T16:10:10.513Z</time>
      </trkpt>
      <trkpt lat="44.90303" lon="5.42839">
        <ele>844</ele>
        <time>2020-05-21T16:10:11.513Z</time>
      </trkpt>
      <trkpt lat="44.90308" lon="5.42835">
        <ele>841</ele>
        <time>2020-05-21T16:10:12.513Z</time>
      </trkpt>
      <trkpt lat="44.90308" lon="5.42835">
        <ele>841</ele>
        <time>2020-05-21T16:10:13.514Z</time>
      </trkpt>
      <trkpt lat="44.90308" lon="5.42835">
        <ele>842</ele>
        <time>2020-05-21T16:10:14.513Z</time>
      </trkpt>
      <trkpt lat="44.90308" lon="5.42835">
        <ele>842</ele>
        <time>2020-05-21T16:10:15.514Z</time>
      </trkpt>
      <trkpt lat="44.90308" lon="5.42835">
        <ele>842</ele>
        <time>2020-05-21T16:10:16.514Z</time>
      </trkpt>
      <trkpt lat="44.90305" lon="5.42836">
        <ele>842</ele>
        <time>2020-05-21T16:10:17.513Z</time>
      </trkpt>
      <trkpt lat="44.90303" lon="5.42837">
        <ele>842</ele>
        <time>2020-05-21T16:10:18.514Z</time>
      </trkpt>
      <trkpt lat="44.903" lon="5.42839">
        <ele>842</ele>
        <time>2020-05-21T16:10:19.514Z</time>
      </trkpt>
      <trkpt lat="44.90297" lon="5.42841">
        <ele>843</ele>
        <time>2020-05-21T16:10:20.514Z</time>
      </trkpt>
      <trkpt lat="44.90294" lon="5.42842">
        <ele>843</ele>
        <time>2020-05-21T16:10:21.514Z</time>
      </trkpt>
      <trkpt lat="44.90292" lon="5.42844">
        <ele>843</ele>
        <time>2020-05-21T16:10:22.513Z</time>
      </trkpt>
      <trkpt lat="44.9029" lon="5.42845">
        <ele>843</ele>
        <time>2020-05-21T16:10:23.513Z</time>
      </trkpt>
      <trkpt lat="44.90288" lon="5.42847">
        <ele>843</ele>
        <time>2020-05-21T16:10:24.514Z</time>
      </trkpt>
      <trkpt lat="44.90286" lon="5.42848">
        <ele>842</ele>
        <time>2020-05-21T16:10:25.514Z</time>
      </trkpt>
      <trkpt lat="44.90284" lon="5.4285">
        <ele>842</ele>
        <time>2020-05-21T16:10:26.514Z</time>
      </trkpt>
      <trkpt lat="44.90283" lon="5.42852">
        <ele>842</ele>
        <time>2020-05-21T16:10:27.513Z</time>
      </trkpt>
      <trkpt lat="44.90282" lon="5.42853">
        <ele>843</ele>
        <time>2020-05-21T16:10:28.513Z</time>
      </trkpt>
      <trkpt lat="44.90281" lon="5.42855">
        <ele>843</ele>
        <time>2020-05-21T16:10:29.513Z</time>
      </trkpt>
      <trkpt lat="44.9028" lon="5.42858">
        <ele>843</ele>
        <time>2020-05-21T16:10:30.514Z</time>
      </trkpt>
      <trkpt lat="44.9028" lon="5.42861">
        <ele>844</ele>
        <time>2020-05-21T16:10:31.514Z</time>
      </trkpt>
      <trkpt lat="44.90279" lon="5.42864">
        <ele>844</ele>
        <time>2020-05-21T16:10:32.513Z</time>
      </trkpt>
      <trkpt lat="44.90278" lon="5.42866">
        <ele>844</ele>
        <time>2020-05-21T16:10:33.514Z</time>
      </trkpt>
      <trkpt lat="44.90277" lon="5.42869">
        <ele>843</ele>
        <time>2020-05-21T16:10:34.514Z</time>
      </trkpt>
      <trkpt lat="44.90276" lon="5.42872">
        <ele>843</ele>
        <time>2020-05-21T16:10:35.513Z</time>
      </trkpt>
      <trkpt lat="44.90276" lon="5.42874">
        <ele>843</ele>
        <time>2020-05-21T16:10:36.513Z</time>
      </trkpt>
      <trkpt lat="44.90276" lon="5.42876">
        <ele>842</ele>
        <time>2020-05-21T16:10:37.513Z</time>
      </trkpt>
      <trkpt lat="44.90275" lon="5.42878">
        <ele>842</ele>
        <time>2020-05-21T16:10:38.514Z</time>
      </trkpt>
      <trkpt lat="44.90275" lon="5.4288">
        <ele>843</ele>
        <time>2020-05-21T16:10:39.513Z</time>
      </trkpt>
      <trkpt lat="44.90274" lon="5.42882">
        <ele>843</ele>
        <time>2020-05-21T16:10:40.513Z</time>
      </trkpt>
      <trkpt lat="44.90274" lon="5.42884">
        <ele>843</ele>
        <time>2020-05-21T16:10:41.513Z</time>
      </trkpt>
      <trkpt lat="44.90274" lon="5.42887">
        <ele>843</ele>
        <time>2020-05-21T16:10:42.514Z</time>
      </trkpt>
      <trkpt lat="44.90274" lon="5.42889">
        <ele>844</ele>
        <time>2020-05-21T16:10:43.513Z</time>
      </trkpt>
      <trkpt lat="44.90274" lon="5.42892">
        <ele>844</ele>
        <time>2020-05-21T16:10:44.514Z</time>
      </trkpt>
      <trkpt lat="44.90273" lon="5.42894">
        <ele>844</ele>
        <time>2020-05-21T16:10:45.514Z</time>
      </trkpt>
      <trkpt lat="44.90273" lon="5.42896">
        <ele>843</ele>
        <time>2020-05-21T16:10:46.513Z</time>
      </trkpt>
      <trkpt lat="44.90273" lon="5.42898">
        <ele>843</ele>
        <time>2020-05-21T16:10:47.513Z</time>
      </trkpt>
      <trkpt lat="44.90272" lon="5.429">
        <ele>843</ele>
        <time>2020-05-21T16:10:48.514Z</time>
      </trkpt>
      <trkpt lat="44.90271" lon="5.42902">
        <ele>844</ele>
        <time>2020-05-21T16:10:49.514Z</time>
      </trkpt>
      <trkpt lat="44.9027" lon="5.42904">
        <ele>844</ele>
        <time>2020-05-21T16:10:50.514Z</time>
      </trkpt>
      <trkpt lat="44.90269" lon="5.42907">
        <ele>844</ele>
        <time>2020-05-21T16:10:51.513Z</time>
      </trkpt>
      <trkpt lat="44.90269" lon="5.4291">
        <ele>844</ele>
        <time>2020-05-21T16:10:52.513Z</time>
      </trkpt>
      <trkpt lat="44.90267" lon="5.42912">
        <ele>845</ele>
        <time>2020-05-21T16:10:53.513Z</time>
      </trkpt>
      <trkpt lat="44.90267" lon="5.42913">
        <ele>845</ele>
        <time>2020-05-21T16:10:54.513Z</time>
      </trkpt>
      <trkpt lat="44.90267" lon="5.42915">
        <ele>846</ele>
        <time>2020-05-21T16:10:55.514Z</time>
      </trkpt>
      <trkpt lat="44.90266" lon="5.42916">
        <ele>847</ele>
        <time>2020-05-21T16:10:56.514Z</time>
      </trkpt>
      <trkpt lat="44.90266" lon="5.42918">
        <ele>847</ele>
        <time>2020-05-21T16:10:57.513Z</time>
      </trkpt>
      <trkpt lat="44.90266" lon="5.42921">
        <ele>848</ele>
        <time>2020-05-21T16:10:58.514Z</time>
      </trkpt>
      <trkpt lat="44.90265" lon="5.42923">
        <ele>849</ele>
        <time>2020-05-21T16:10:59.513Z</time>
      </trkpt>
      <trkpt lat="44.90264" lon="5.42925">
        <ele>849</ele>
        <time>2020-05-21T16:11:00.513Z</time>
      </trkpt>
      <trkpt lat="44.90263" lon="5.42926">
        <ele>849</ele>
        <time>2020-05-21T16:11:01.514Z</time>
      </trkpt>
      <trkpt lat="44.90262" lon="5.42928">
        <ele>849</ele>
        <time>2020-05-21T16:11:02.514Z</time>
      </trkpt>
      <trkpt lat="44.90262" lon="5.4293">
        <ele>849</ele>
        <time>2020-05-21T16:11:03.513Z</time>
      </trkpt>
      <trkpt lat="44.90263" lon="5.42932">
        <ele>849</ele>
        <time>2020-05-21T16:11:04.514Z</time>
      </trkpt>
      <trkpt lat="44.90262" lon="5.42934">
        <ele>849</ele>
        <time>2020-05-21T16:11:05.514Z</time>
      </trkpt>
      <trkpt lat="44.90262" lon="5.42936">
        <ele>850</ele>
        <time>2020-05-21T16:11:06.513Z</time>
      </trkpt>
      <trkpt lat="44.90262" lon="5.42938">
        <ele>850</ele>
        <time>2020-05-21T16:11:07.513Z</time>
      </trkpt>
      <trkpt lat="44.90262" lon="5.4294">
        <ele>851</ele>
        <time>2020-05-21T16:11:08.514Z</time>
      </trkpt>
      <trkpt lat="44.90262" lon="5.42942">
        <ele>851</ele>
        <time>2020-05-21T16:11:09.514Z</time>
      </trkpt>
      <trkpt lat="44.90261" lon="5.42943">
        <ele>851</ele>
        <time>2020-05-21T16:11:10.514Z</time>
      </trkpt>
      <trkpt lat="44.90261" lon="5.42945">
        <ele>852</ele>
        <time>2020-05-21T16:11:11.514Z</time>
      </trkpt>
      <trkpt lat="44.90261" lon="5.42947">
        <ele>852</ele>
        <time>2020-05-21T16:11:12.513Z</time>
      </trkpt>
      <trkpt lat="44.9026" lon="5.42949">
        <ele>853</ele>
        <time>2020-05-21T16:11:13.514Z</time>
      </trkpt>
      <trkpt lat="44.9026" lon="5.42951">
        <ele>853</ele>
        <time>2020-05-21T16:11:14.514Z</time>
      </trkpt>
      <trkpt lat="44.9026" lon="5.42953">
        <ele>854</ele>
        <time>2020-05-21T16:11:15.514Z</time>
      </trkpt>
      <trkpt lat="44.9026" lon="5.42954">
        <ele>854</ele>
        <time>2020-05-21T16:11:16.514Z</time>
      </trkpt>
      <trkpt lat="44.9026" lon="5.42956">
        <ele>855</ele>
        <time>2020-05-21T16:11:17.513Z</time>
      </trkpt>
      <trkpt lat="44.90259" lon="5.42958">
        <ele>855</ele>
        <time>2020-05-21T16:11:18.513Z</time>
      </trkpt>
      <trkpt lat="44.90259" lon="5.42959">
        <ele>855</ele>
        <time>2020-05-21T16:11:19.513Z</time>
      </trkpt>
      <trkpt lat="44.90259" lon="5.42961">
        <ele>855</ele>
        <time>2020-05-21T16:11:20.514Z</time>
      </trkpt>
      <trkpt lat="44.90259" lon="5.42963">
        <ele>855</ele>
        <time>2020-05-21T16:11:21.514Z</time>
      </trkpt>
      <trkpt lat="44.90259" lon="5.42964">
        <ele>856</ele>
        <time>2020-05-21T16:11:22.513Z</time>
      </trkpt>
      <trkpt lat="44.90259" lon="5.42966">
        <ele>856</ele>
        <time>2020-05-21T16:11:23.514Z</time>
      </trkpt>
      <trkpt lat="44.90258" lon="5.42967">
        <ele>856</ele>
        <time>2020-05-21T16:11:24.514Z</time>
      </trkpt>
      <trkpt lat="44.90258" lon="5.42968">
        <ele>857</ele>
        <time>2020-05-21T16:11:25.514Z</time>
      </trkpt>
      <trkpt lat="44.90258" lon="5.4297">
        <ele>857</ele>
        <time>2020-05-21T16:11:26.513Z</time>
      </trkpt>
      <trkpt lat="44.90257" lon="5.42971">
        <ele>857</ele>
        <time>2020-05-21T16:11:27.513Z</time>
      </trkpt>
      <trkpt lat="44.90257" lon="5.42973">
        <ele>858</ele>
        <time>2020-05-21T16:11:28.514Z</time>
      </trkpt>
      <trkpt lat="44.90257" lon="5.42974">
        <ele>858</ele>
        <time>2020-05-21T16:11:29.514Z</time>
      </trkpt>
      <trkpt lat="44.90256" lon="5.42976">
        <ele>857</ele>
        <time>2020-05-21T16:11:30.514Z</time>
      </trkpt>
      <trkpt lat="44.90255" lon="5.42978">
        <ele>857</ele>
        <time>2020-05-21T16:11:31.514Z</time>
      </trkpt>
      <trkpt lat="44.90254" lon="5.42979">
        <ele>857</ele>
        <time>2020-05-21T16:11:32.514Z</time>
      </trkpt>
      <trkpt lat="44.90254" lon="5.42981">
        <ele>857</ele>
        <time>2020-05-21T16:11:33.513Z</time>
      </trkpt>
      <trkpt lat="44.90254" lon="5.42983">
        <ele>858</ele>
        <time>2020-05-21T16:11:34.514Z</time>
      </trkpt>
      <trkpt lat="44.90254" lon="5.42984">
        <ele>858</ele>
        <time>2020-05-21T16:11:35.513Z</time>
      </trkpt>
      <trkpt lat="44.90255" lon="5.42985">
        <ele>858</ele>
        <time>2020-05-21T16:11:36.514Z</time>
      </trkpt>
      <trkpt lat="44.90254" lon="5.42986">
        <ele>858</ele>
        <time>2020-05-21T16:11:37.514Z</time>
      </trkpt>
      <trkpt lat="44.90254" lon="5.42988">
        <ele>858</ele>
        <time>2020-05-21T16:11:38.514Z</time>
      </trkpt>
      <trkpt lat="44.90253" lon="5.42991">
        <ele>859</ele>
        <time>2020-05-21T16:11:39.514Z</time>
      </trkpt>
      <trkpt lat="44.90253" lon="5.42993">
        <ele>859</ele>
        <time>2020-05-21T16:11:40.514Z</time>
      </trkpt>
      <trkpt lat="44.90253" lon="5.42995">
        <ele>860</ele>
        <time>2020-05-21T16:11:41.514Z</time>
      </trkpt>
      <trkpt lat="44.90252" lon="5.42997">
        <ele>860</ele>
        <time>2020-05-21T16:11:42.513Z</time>
      </trkpt>
      <trkpt lat="44.90252" lon="5.42998">
        <ele>861</ele>
        <time>2020-05-21T16:11:43.514Z</time>
      </trkpt>
      <trkpt lat="44.90252" lon="5.42999">
        <ele>861</ele>
        <time>2020-05-21T16:11:44.513Z</time>
      </trkpt>
      <trkpt lat="44.90251" lon="5.43001">
        <ele>861</ele>
        <time>2020-05-21T16:11:45.514Z</time>
      </trkpt>
      <trkpt lat="44.90251" lon="5.43003">
        <ele>861</ele>
        <time>2020-05-21T16:11:46.514Z</time>
      </trkpt>
      <trkpt lat="44.90251" lon="5.43004">
        <ele>862</ele>
        <time>2020-05-21T16:11:47.514Z</time>
      </trkpt>
      <trkpt lat="44.9025" lon="5.43006">
        <ele>862</ele>
        <time>2020-05-21T16:11:48.514Z</time>
      </trkpt>
      <trkpt lat="44.9025" lon="5.43007">
        <ele>862</ele>
        <time>2020-05-21T16:11:49.514Z</time>
      </trkpt>
      <trkpt lat="44.9025" lon="5.43009">
        <ele>862</ele>
        <time>2020-05-21T16:11:50.514Z</time>
      </trkpt>
      <trkpt lat="44.90249" lon="5.4301">
        <ele>863</ele>
        <time>2020-05-21T16:11:51.514Z</time>
      </trkpt>
      <trkpt lat="44.90249" lon="5.43011">
        <ele>863</ele>
        <time>2020-05-21T16:11:52.514Z</time>
      </trkpt>
      <trkpt lat="44.90249" lon="5.43013">
        <ele>863</ele>
        <time>2020-05-21T16:11:53.513Z</time>
      </trkpt>
      <trkpt lat="44.90249" lon="5.43014">
        <ele>863</ele>
        <time>2020-05-21T16:11:54.514Z</time>
      </trkpt>
      <trkpt lat="44.90249" lon="5.43016">
        <ele>863</ele>
        <time>2020-05-21T16:11:55.513Z</time>
      </trkpt>
      <trkpt lat="44.90249" lon="5.43017">
        <ele>864</ele>
        <time>2020-05-21T16:11:56.513Z</time>
      </trkpt>
      <trkpt lat="44.90249" lon="5.43019">
        <ele>864</ele>
        <time>2020-05-21T16:11:57.513Z</time>
      </trkpt>
      <trkpt lat="44.90249" lon="5.4302">
        <ele>865</ele>
        <time>2020-05-21T16:11:58.513Z</time>
      </trkpt>
      <trkpt lat="44.90249" lon="5.43021">
        <ele>865</ele>
        <time>2020-05-21T16:11:59.514Z</time>
      </trkpt>
      <trkpt lat="44.90249" lon="5.43023">
        <ele>865</ele>
        <time>2020-05-21T16:12:00.514Z</time>
      </trkpt>
      <trkpt lat="44.90248" lon="5.43024">
        <ele>866</ele>
        <time>2020-05-21T16:12:01.513Z</time>
      </trkpt>
      <trkpt lat="44.90248" lon="5.43026">
        <ele>866</ele>
        <time>2020-05-21T16:12:02.514Z</time>
      </trkpt>
      <trkpt lat="44.90248" lon="5.43027">
        <ele>866</ele>
        <time>2020-05-21T16:12:03.513Z</time>
      </trkpt>
      <trkpt lat="44.90248" lon="5.43028">
        <ele>866</ele>
        <time>2020-05-21T16:12:04.513Z</time>
      </trkpt>
      <trkpt lat="44.90247" lon="5.43029">
        <ele>866</ele>
        <time>2020-05-21T16:12:05.514Z</time>
      </trkpt>
      <trkpt lat="44.90247" lon="5.43031">
        <ele>866</ele>
        <time>2020-05-21T16:12:06.514Z</time>
      </trkpt>
      <trkpt lat="44.90246" lon="5.43033">
        <ele>867</ele>
        <time>2020-05-21T16:12:07.514Z</time>
      </trkpt>
      <trkpt lat="44.90246" lon="5.43034">
        <ele>867</ele>
        <time>2020-05-21T16:12:08.513Z</time>
      </trkpt>
      <trkpt lat="44.90245" lon="5.43035">
        <ele>867</ele>
        <time>2020-05-21T16:12:09.514Z</time>
      </trkpt>
      <trkpt lat="44.90245" lon="5.43037">
        <ele>867</ele>
        <time>2020-05-21T16:12:10.514Z</time>
      </trkpt>
      <trkpt lat="44.90243" lon="5.4304">
        <ele>867</ele>
        <time>2020-05-21T16:12:11.513Z</time>
      </trkpt>
      <trkpt lat="44.90242" lon="5.43044">
        <ele>868</ele>
        <time>2020-05-21T16:12:12.513Z</time>
      </trkpt>
      <trkpt lat="44.90242" lon="5.43046">
        <ele>868</ele>
        <time>2020-05-21T16:12:13.514Z</time>
      </trkpt>
      <trkpt lat="44.90242" lon="5.43047">
        <ele>868</ele>
        <time>2020-05-21T16:12:14.514Z</time>
      </trkpt>
      <trkpt lat="44.90241" lon="5.43049">
        <ele>868</ele>
        <time>2020-05-21T16:12:15.514Z</time>
      </trkpt>
      <trkpt lat="44.90241" lon="5.4305">
        <ele>868</ele>
        <time>2020-05-21T16:12:16.514Z</time>
      </trkpt>
      <trkpt lat="44.90241" lon="5.43052">
        <ele>868</ele>
        <time>2020-05-21T16:12:17.514Z</time>
      </trkpt>
      <trkpt lat="44.90241" lon="5.43054">
        <ele>869</ele>
        <time>2020-05-21T16:12:18.514Z</time>
      </trkpt>
      <trkpt lat="44.90241" lon="5.43055">
        <ele>869</ele>
        <time>2020-05-21T16:12:19.514Z</time>
      </trkpt>
      <trkpt lat="44.9024" lon="5.43057">
        <ele>869</ele>
        <time>2020-05-21T16:12:20.513Z</time>
      </trkpt>
      <trkpt lat="44.9024" lon="5.43059">
        <ele>869</ele>
        <time>2020-05-21T16:12:21.514Z</time>
      </trkpt>
      <trkpt lat="44.90239" lon="5.4306">
        <ele>870</ele>
        <time>2020-05-21T16:12:22.514Z</time>
      </trkpt>
      <trkpt lat="44.90239" lon="5.43061">
        <ele>870</ele>
        <time>2020-05-21T16:12:23.514Z</time>
      </trkpt>
      <trkpt lat="44.90239" lon="5.43062">
        <ele>871</ele>
        <time>2020-05-21T16:12:24.513Z</time>
      </trkpt>
      <trkpt lat="44.90239" lon="5.43063">
        <ele>872</ele>
        <time>2020-05-21T16:12:25.513Z</time>
      </trkpt>
      <trkpt lat="44.90239" lon="5.43064">
        <ele>872</ele>
        <time>2020-05-21T16:12:26.513Z</time>
      </trkpt>
      <trkpt lat="44.90238" lon="5.43065">
        <ele>873</ele>
        <time>2020-05-21T16:12:27.514Z</time>
      </trkpt>
      <trkpt lat="44.90238" lon="5.43067">
        <ele>873</ele>
        <time>2020-05-21T16:12:28.514Z</time>
      </trkpt>
      <trkpt lat="44.90237" lon="5.43068">
        <ele>873</ele>
        <time>2020-05-21T16:12:29.514Z</time>
      </trkpt>
      <trkpt lat="44.90237" lon="5.4307">
        <ele>874</ele>
        <time>2020-05-21T16:12:30.514Z</time>
      </trkpt>
      <trkpt lat="44.90236" lon="5.43071">
        <ele>874</ele>
        <time>2020-05-21T16:12:31.514Z</time>
      </trkpt>
      <trkpt lat="44.90235" lon="5.43072">
        <ele>875</ele>
        <time>2020-05-21T16:12:32.513Z</time>
      </trkpt>
      <trkpt lat="44.90234" lon="5.43073">
        <ele>875</ele>
        <time>2020-05-21T16:12:33.514Z</time>
      </trkpt>
      <trkpt lat="44.90233" lon="5.43074">
        <ele>875</ele>
        <time>2020-05-21T16:12:34.514Z</time>
      </trkpt>
      <trkpt lat="44.90232" lon="5.43075">
        <ele>876</ele>
        <time>2020-05-21T16:12:35.514Z</time>
      </trkpt>
      <trkpt lat="44.9023" lon="5.43076">
        <ele>876</ele>
        <time>2020-05-21T16:12:36.514Z</time>
      </trkpt>
      <trkpt lat="44.90228" lon="5.43077">
        <ele>877</ele>
        <time>2020-05-21T16:12:37.514Z</time>
      </trkpt>
      <trkpt lat="44.90226" lon="5.43078">
        <ele>877</ele>
        <time>2020-05-21T16:12:38.514Z</time>
      </trkpt>
      <trkpt lat="44.90224" lon="5.43079">
        <ele>878</ele>
        <time>2020-05-21T16:12:39.514Z</time>
      </trkpt>
      <trkpt lat="44.90223" lon="5.43079">
        <ele>878</ele>
        <time>2020-05-21T16:12:40.514Z</time>
      </trkpt>
      <trkpt lat="44.90221" lon="5.43079">
        <ele>879</ele>
        <time>2020-05-21T16:12:41.514Z</time>
      </trkpt>
      <trkpt lat="44.9022" lon="5.4308">
        <ele>879</ele>
        <time>2020-05-21T16:12:42.514Z</time>
      </trkpt>
      <trkpt lat="44.90218" lon="5.4308">
        <ele>880</ele>
        <time>2020-05-21T16:12:43.514Z</time>
      </trkpt>
      <trkpt lat="44.90217" lon="5.43081">
        <ele>880</ele>
        <time>2020-05-21T16:12:44.514Z</time>
      </trkpt>
      <trkpt lat="44.90216" lon="5.43081">
        <ele>880</ele>
        <time>2020-05-21T16:12:45.514Z</time>
      </trkpt>
      <trkpt lat="44.90215" lon="5.4308">
        <ele>880</ele>
        <time>2020-05-21T16:12:46.513Z</time>
      </trkpt>
      <trkpt lat="44.90214" lon="5.4308">
        <ele>880</ele>
        <time>2020-05-21T16:12:47.514Z</time>
      </trkpt>
      <trkpt lat="44.90213" lon="5.4308">
        <ele>880</ele>
        <time>2020-05-21T16:12:48.514Z</time>
      </trkpt>
      <trkpt lat="44.90211" lon="5.4308">
        <ele>879</ele>
        <time>2020-05-21T16:12:49.514Z</time>
      </trkpt>
      <trkpt lat="44.9021" lon="5.43079">
        <ele>879</ele>
        <time>2020-05-21T16:12:50.514Z</time>
      </trkpt>
      <trkpt lat="44.90208" lon="5.43079">
        <ele>879</ele>
        <time>2020-05-21T16:12:51.514Z</time>
      </trkpt>
      <trkpt lat="44.90206" lon="5.43078">
        <ele>879</ele>
        <time>2020-05-21T16:12:52.514Z</time>
      </trkpt>
      <trkpt lat="44.90205" lon="5.43078">
        <ele>879</ele>
        <time>2020-05-21T16:12:53.513Z</time>
      </trkpt>
      <trkpt lat="44.90203" lon="5.43079">
        <ele>880</ele>
        <time>2020-05-21T16:12:54.514Z</time>
      </trkpt>
      <trkpt lat="44.90201" lon="5.43079">
        <ele>880</ele>
        <time>2020-05-21T16:12:55.514Z</time>
      </trkpt>
      <trkpt lat="44.90199" lon="5.43079">
        <ele>880</ele>
        <time>2020-05-21T16:12:56.514Z</time>
      </trkpt>
      <trkpt lat="44.90197" lon="5.43079">
        <ele>880</ele>
        <time>2020-05-21T16:12:57.513Z</time>
      </trkpt>
      <trkpt lat="44.90195" lon="5.43078">
        <ele>880</ele>
        <time>2020-05-21T16:12:58.513Z</time>
      </trkpt>
      <trkpt lat="44.90193" lon="5.43079">
        <ele>880</ele>
        <time>2020-05-21T16:12:59.514Z</time>
      </trkpt>
      <trkpt lat="44.90191" lon="5.4308">
        <ele>880</ele>
        <time>2020-05-21T16:13:00.514Z</time>
      </trkpt>
      <trkpt lat="44.90188" lon="5.4308">
        <ele>880</ele>
        <time>2020-05-21T16:13:01.514Z</time>
      </trkpt>
      <trkpt lat="44.90186" lon="5.43081">
        <ele>880</ele>
        <time>2020-05-21T16:13:02.514Z</time>
      </trkpt>
      <trkpt lat="44.90185" lon="5.4308">
        <ele>880</ele>
        <time>2020-05-21T16:13:03.513Z</time>
      </trkpt>
      <trkpt lat="44.90184" lon="5.4308">
        <ele>880</ele>
        <time>2020-05-21T16:13:04.514Z</time>
      </trkpt>
      <trkpt lat="44.90182" lon="5.43081">
        <ele>880</ele>
        <time>2020-05-21T16:13:05.514Z</time>
      </trkpt>
      <trkpt lat="44.90181" lon="5.43082">
        <ele>880</ele>
        <time>2020-05-21T16:13:06.514Z</time>
      </trkpt>
      <trkpt lat="44.9018" lon="5.43083">
        <ele>879</ele>
        <time>2020-05-21T16:13:07.514Z</time>
      </trkpt>
      <trkpt lat="44.90179" lon="5.43084">
        <ele>879</ele>
        <time>2020-05-21T16:13:08.513Z</time>
      </trkpt>
      <trkpt lat="44.90177" lon="5.43085">
        <ele>879</ele>
        <time>2020-05-21T16:13:09.513Z</time>
      </trkpt>
      <trkpt lat="44.90176" lon="5.43085">
        <ele>878</ele>
        <time>2020-05-21T16:13:10.514Z</time>
      </trkpt>
      <trkpt lat="44.90175" lon="5.43086">
        <ele>878</ele>
        <time>2020-05-21T16:13:11.513Z</time>
      </trkpt>
      <trkpt lat="44.90173" lon="5.43087">
        <ele>878</ele>
        <time>2020-05-21T16:13:12.513Z</time>
      </trkpt>
      <trkpt lat="44.90171" lon="5.43087">
        <ele>878</ele>
        <time>2020-05-21T16:13:13.514Z</time>
      </trkpt>
      <trkpt lat="44.90169" lon="5.43087">
        <ele>877</ele>
        <time>2020-05-21T16:13:14.513Z</time>
      </trkpt>
      <trkpt lat="44.90167" lon="5.43087">
        <ele>877</ele>
        <time>2020-05-21T16:13:15.514Z</time>
      </trkpt>
      <trkpt lat="44.90165" lon="5.43086">
        <ele>877</ele>
        <time>2020-05-21T16:13:16.514Z</time>
      </trkpt>
      <trkpt lat="44.90164" lon="5.43087">
        <ele>877</ele>
        <time>2020-05-21T16:13:17.514Z</time>
      </trkpt>
      <trkpt lat="44.90163" lon="5.43086">
        <ele>877</ele>
        <time>2020-05-21T16:13:18.514Z</time>
      </trkpt>
      <trkpt lat="44.90161" lon="5.43086">
        <ele>877</ele>
        <time>2020-05-21T16:13:19.514Z</time>
      </trkpt>
      <trkpt lat="44.90159" lon="5.43087">
        <ele>877</ele>
        <time>2020-05-21T16:13:20.514Z</time>
      </trkpt>
      <trkpt lat="44.90157" lon="5.43087">
        <ele>877</ele>
        <time>2020-05-21T16:13:21.514Z</time>
      </trkpt>
      <trkpt lat="44.90155" lon="5.43087">
        <ele>878</ele>
        <time>2020-05-21T16:13:22.514Z</time>
      </trkpt>
      <trkpt lat="44.90153" lon="5.43087">
        <ele>878</ele>
        <time>2020-05-21T16:13:23.514Z</time>
      </trkpt>
      <trkpt lat="44.90151" lon="5.43087">
        <ele>878</ele>
        <time>2020-05-21T16:13:24.513Z</time>
      </trkpt>
      <trkpt lat="44.90149" lon="5.43086">
        <ele>878</ele>
        <time>2020-05-21T16:13:25.514Z</time>
      </trkpt>
      <trkpt lat="44.90147" lon="5.43085">
        <ele>878</ele>
        <time>2020-05-21T16:13:26.513Z</time>
      </trkpt>
      <trkpt lat="44.90145" lon="5.43084">
        <ele>879</ele>
        <time>2020-05-21T16:13:27.513Z</time>
      </trkpt>
      <trkpt lat="44.90143" lon="5.43083">
        <ele>879</ele>
        <time>2020-05-21T16:13:28.514Z</time>
      </trkpt>
      <trkpt lat="44.90141" lon="5.43083">
        <ele>879</ele>
        <time>2020-05-21T16:13:29.513Z</time>
      </trkpt>
      <trkpt lat="44.90139" lon="5.43083">
        <ele>879</ele>
        <time>2020-05-21T16:13:30.514Z</time>
      </trkpt>
      <trkpt lat="44.90137" lon="5.43083">
        <ele>879</ele>
        <time>2020-05-21T16:13:31.514Z</time>
      </trkpt>
      <trkpt lat="44.90135" lon="5.43083">
        <ele>879</ele>
        <time>2020-05-21T16:13:32.514Z</time>
      </trkpt>
      <trkpt lat="44.90133" lon="5.43083">
        <ele>879</ele>
        <time>2020-05-21T16:13:33.514Z</time>
      </trkpt>
      <trkpt lat="44.90131" lon="5.43084">
        <ele>879</ele>
        <time>2020-05-21T16:13:34.514Z</time>
      </trkpt>
      <trkpt lat="44.90129" lon="5.43085">
        <ele>879</ele>
        <time>2020-05-21T16:13:35.514Z</time>
      </trkpt>
      <trkpt lat="44.90127" lon="5.43087">
        <ele>879</ele>
        <time>2020-05-21T16:13:36.513Z</time>
      </trkpt>
      <trkpt lat="44.90126" lon="5.43088">
        <ele>879</ele>
        <time>2020-05-21T16:13:37.514Z</time>
      </trkpt>
      <trkpt lat="44.90126" lon="5.43089">
        <ele>879</ele>
        <time>2020-05-21T16:13:38.514Z</time>
      </trkpt>
      <trkpt lat="44.90125" lon="5.4309">
        <ele>879</ele>
        <time>2020-05-21T16:13:39.514Z</time>
      </trkpt>
      <trkpt lat="44.90124" lon="5.43091">
        <ele>879</ele>
        <time>2020-05-21T16:13:40.513Z</time>
      </trkpt>
      <trkpt lat="44.90123" lon="5.43093">
        <ele>879</ele>
        <time>2020-05-21T16:13:41.514Z</time>
      </trkpt>
      <trkpt lat="44.90122" lon="5.43094">
        <ele>879</ele>
        <time>2020-05-21T16:13:42.513Z</time>
      </trkpt>
      <trkpt lat="44.90121" lon="5.43095">
        <ele>880</ele>
        <time>2020-05-21T16:13:43.513Z</time>
      </trkpt>
      <trkpt lat="44.9012" lon="5.43097">
        <ele>880</ele>
        <time>2020-05-21T16:13:44.514Z</time>
      </trkpt>
      <trkpt lat="44.90119" lon="5.43098">
        <ele>880</ele>
        <time>2020-05-21T16:13:45.513Z</time>
      </trkpt>
      <trkpt lat="44.90118" lon="5.43099">
        <ele>880</ele>
        <time>2020-05-21T16:13:46.514Z</time>
      </trkpt>
      <trkpt lat="44.90117" lon="5.431">
        <ele>880</ele>
        <time>2020-05-21T16:13:47.513Z</time>
      </trkpt>
      <trkpt lat="44.90115" lon="5.43101">
        <ele>880</ele>
        <time>2020-05-21T16:13:48.514Z</time>
      </trkpt>
      <trkpt lat="44.90114" lon="5.43102">
        <ele>880</ele>
        <time>2020-05-21T16:13:49.514Z</time>
      </trkpt>
      <trkpt lat="44.90114" lon="5.43103">
        <ele>880</ele>
        <time>2020-05-21T16:13:50.514Z</time>
      </trkpt>
      <trkpt lat="44.90113" lon="5.43104">
        <ele>881</ele>
        <time>2020-05-21T16:13:51.514Z</time>
      </trkpt>
      <trkpt lat="44.90112" lon="5.43106">
        <ele>881</ele>
        <time>2020-05-21T16:13:52.514Z</time>
      </trkpt>
      <trkpt lat="44.90112" lon="5.43107">
        <ele>882</ele>
        <time>2020-05-21T16:13:53.513Z</time>
      </trkpt>
      <trkpt lat="44.90111" lon="5.43107">
        <ele>882</ele>
        <time>2020-05-21T16:13:54.514Z</time>
      </trkpt>
      <trkpt lat="44.9011" lon="5.43108">
        <ele>882</ele>
        <time>2020-05-21T16:13:55.514Z</time>
      </trkpt>
      <trkpt lat="44.90109" lon="5.43109">
        <ele>882</ele>
        <time>2020-05-21T16:13:56.513Z</time>
      </trkpt>
      <trkpt lat="44.90108" lon="5.4311">
        <ele>883</ele>
        <time>2020-05-21T16:13:57.514Z</time>
      </trkpt>
      <trkpt lat="44.90107" lon="5.43111">
        <ele>883</ele>
        <time>2020-05-21T16:13:58.514Z</time>
      </trkpt>
      <trkpt lat="44.90107" lon="5.43112">
        <ele>883</ele>
        <time>2020-05-21T16:13:59.514Z</time>
      </trkpt>
      <trkpt lat="44.90106" lon="5.43113">
        <ele>883</ele>
        <time>2020-05-21T16:14:00.514Z</time>
      </trkpt>
      <trkpt lat="44.90105" lon="5.43114">
        <ele>883</ele>
        <time>2020-05-21T16:14:01.514Z</time>
      </trkpt>
      <trkpt lat="44.90104" lon="5.43116">
        <ele>883</ele>
        <time>2020-05-21T16:14:02.514Z</time>
      </trkpt>
      <trkpt lat="44.90103" lon="5.43118">
        <ele>883</ele>
        <time>2020-05-21T16:14:03.514Z</time>
      </trkpt>
      <trkpt lat="44.90102" lon="5.4312">
        <ele>883</ele>
        <time>2020-05-21T16:14:04.514Z</time>
      </trkpt>
      <trkpt lat="44.90101" lon="5.43121">
        <ele>883</ele>
        <time>2020-05-21T16:14:05.514Z</time>
      </trkpt>
      <trkpt lat="44.901" lon="5.43123">
        <ele>884</ele>
        <time>2020-05-21T16:14:06.513Z</time>
      </trkpt>
      <trkpt lat="44.90099" lon="5.43124">
        <ele>884</ele>
        <time>2020-05-21T16:14:07.514Z</time>
      </trkpt>
      <trkpt lat="44.90098" lon="5.43125">
        <ele>884</ele>
        <time>2020-05-21T16:14:08.514Z</time>
      </trkpt>
      <trkpt lat="44.90097" lon="5.43127">
        <ele>884</ele>
        <time>2020-05-21T16:14:09.514Z</time>
      </trkpt>
      <trkpt lat="44.90097" lon="5.43128">
        <ele>885</ele>
        <time>2020-05-21T16:14:10.514Z</time>
      </trkpt>
      <trkpt lat="44.90097" lon="5.43129">
        <ele>886</ele>
        <time>2020-05-21T16:14:11.514Z</time>
      </trkpt>
      <trkpt lat="44.90097" lon="5.43131">
        <ele>886</ele>
        <time>2020-05-21T16:14:12.513Z</time>
      </trkpt>
      <trkpt lat="44.90097" lon="5.43132">
        <ele>887</ele>
        <time>2020-05-21T16:14:13.514Z</time>
      </trkpt>
      <trkpt lat="44.90096" lon="5.43134">
        <ele>887</ele>
        <time>2020-05-21T16:14:14.513Z</time>
      </trkpt>
      <trkpt lat="44.90096" lon="5.43135">
        <ele>887</ele>
        <time>2020-05-21T16:14:15.514Z</time>
      </trkpt>
      <trkpt lat="44.90095" lon="5.43136">
        <ele>888</ele>
        <time>2020-05-21T16:14:16.514Z</time>
      </trkpt>
      <trkpt lat="44.90094" lon="5.43137">
        <ele>888</ele>
        <time>2020-05-21T16:14:17.514Z</time>
      </trkpt>
      <trkpt lat="44.90094" lon="5.43139">
        <ele>888</ele>
        <time>2020-05-21T16:14:18.514Z</time>
      </trkpt>
      <trkpt lat="44.90095" lon="5.4314">
        <ele>889</ele>
        <time>2020-05-21T16:14:19.514Z</time>
      </trkpt>
      <trkpt lat="44.90095" lon="5.43141">
        <ele>889</ele>
        <time>2020-05-21T16:14:20.513Z</time>
      </trkpt>
      <trkpt lat="44.90094" lon="5.43143">
        <ele>890</ele>
        <time>2020-05-21T16:14:21.514Z</time>
      </trkpt>
      <trkpt lat="44.90093" lon="5.43144">
        <ele>890</ele>
        <time>2020-05-21T16:14:22.513Z</time>
      </trkpt>
      <trkpt lat="44.90091" lon="5.43145">
        <ele>891</ele>
        <time>2020-05-21T16:14:23.513Z</time>
      </trkpt>
      <trkpt lat="44.90089" lon="5.43147">
        <ele>892</ele>
        <time>2020-05-21T16:14:24.513Z</time>
      </trkpt>
      <trkpt lat="44.90088" lon="5.43148">
        <ele>893</ele>
        <time>2020-05-21T16:14:25.513Z</time>
      </trkpt>
      <trkpt lat="44.90087" lon="5.4315">
        <ele>893</ele>
        <time>2020-05-21T16:14:26.513Z</time>
      </trkpt>
      <trkpt lat="44.90086" lon="5.43152">
        <ele>894</ele>
        <time>2020-05-21T16:14:27.514Z</time>
      </trkpt>
      <trkpt lat="44.90086" lon="5.43154">
        <ele>895</ele>
        <time>2020-05-21T16:14:28.514Z</time>
      </trkpt>
      <trkpt lat="44.90085" lon="5.43156">
        <ele>895</ele>
        <time>2020-05-21T16:14:29.514Z</time>
      </trkpt>
      <trkpt lat="44.90085" lon="5.43158">
        <ele>896</ele>
        <time>2020-05-21T16:14:30.513Z</time>
      </trkpt>
      <trkpt lat="44.90084" lon="5.43159">
        <ele>897</ele>
        <time>2020-05-21T16:14:31.514Z</time>
      </trkpt>
      <trkpt lat="44.90084" lon="5.43162">
        <ele>898</ele>
        <time>2020-05-21T16:14:32.513Z</time>
      </trkpt>
      <trkpt lat="44.90083" lon="5.43163">
        <ele>898</ele>
        <time>2020-05-21T16:14:33.513Z</time>
      </trkpt>
      <trkpt lat="44.90083" lon="5.43164">
        <ele>899</ele>
        <time>2020-05-21T16:14:34.514Z</time>
      </trkpt>
      <trkpt lat="44.90082" lon="5.43165">
        <ele>899</ele>
        <time>2020-05-21T16:14:35.514Z</time>
      </trkpt>
      <trkpt lat="44.90081" lon="5.43166">
        <ele>900</ele>
        <time>2020-05-21T16:14:36.514Z</time>
      </trkpt>
      <trkpt lat="44.9008" lon="5.43167">
        <ele>900</ele>
        <time>2020-05-21T16:14:37.514Z</time>
      </trkpt>
      <trkpt lat="44.90079" lon="5.43168">
        <ele>900</ele>
        <time>2020-05-21T16:14:38.513Z</time>
      </trkpt>
      <trkpt lat="44.90075" lon="5.43169">
        <ele>901</ele>
        <time>2020-05-21T16:14:39.514Z</time>
      </trkpt>
      <trkpt lat="44.90073" lon="5.43171">
        <ele>901</ele>
        <time>2020-05-21T16:14:40.514Z</time>
      </trkpt>
      <trkpt lat="44.90071" lon="5.43173">
        <ele>901</ele>
        <time>2020-05-21T16:14:41.514Z</time>
      </trkpt>
      <trkpt lat="44.90069" lon="5.43175">
        <ele>902</ele>
        <time>2020-05-21T16:14:42.514Z</time>
      </trkpt>
      <trkpt lat="44.90068" lon="5.43176">
        <ele>902</ele>
        <time>2020-05-21T16:14:43.514Z</time>
      </trkpt>
      <trkpt lat="44.90067" lon="5.43177">
        <ele>902</ele>
        <time>2020-05-21T16:14:44.514Z</time>
      </trkpt>
      <trkpt lat="44.90065" lon="5.43178">
        <ele>902</ele>
        <time>2020-05-21T16:14:45.514Z</time>
      </trkpt>
      <trkpt lat="44.90064" lon="5.43178">
        <ele>903</ele>
        <time>2020-05-21T16:14:46.514Z</time>
      </trkpt>
      <trkpt lat="44.90063" lon="5.4318">
        <ele>903</ele>
        <time>2020-05-21T16:14:47.514Z</time>
      </trkpt>
      <trkpt lat="44.90062" lon="5.43183">
        <ele>903</ele>
        <time>2020-05-21T16:14:48.513Z</time>
      </trkpt>
      <trkpt lat="44.90061" lon="5.43184">
        <ele>904</ele>
        <time>2020-05-21T16:14:49.514Z</time>
      </trkpt>
      <trkpt lat="44.90061" lon="5.43186">
        <ele>904</ele>
        <time>2020-05-21T16:14:50.514Z</time>
      </trkpt>
      <trkpt lat="44.9006" lon="5.43185">
        <ele>904</ele>
        <time>2020-05-21T16:14:51.514Z</time>
      </trkpt>
      <trkpt lat="44.90059" lon="5.4318">
        <ele>906</ele>
        <time>2020-05-21T16:14:52.515Z</time>
      </trkpt>
      <trkpt lat="44.90059" lon="5.4318">
        <ele>907</ele>
        <time>2020-05-21T16:14:53.515Z</time>
      </trkpt>
      <trkpt lat="44.90059" lon="5.4318">
        <ele>907</ele>
        <time>2020-05-21T16:14:54.515Z</time>
      </trkpt>
      <trkpt lat="44.90059" lon="5.4318">
        <ele>907</ele>
        <time>2020-05-21T16:14:55.515Z</time>
      </trkpt>
      <trkpt lat="44.90059" lon="5.4318">
        <ele>907</ele>
        <time>2020-05-21T16:14:56.515Z</time>
      </trkpt>
      <trkpt lat="44.90059" lon="5.4318">
        <ele>907</ele>
        <time>2020-05-21T16:14:57.515Z</time>
      </trkpt>
      <trkpt lat="44.90059" lon="5.4318">
        <ele>907</ele>
        <time>2020-05-21T16:14:58.515Z</time>
      </trkpt>
      <trkpt lat="44.90058" lon="5.43179">
        <ele>907</ele>
        <time>2020-05-21T16:14:59.515Z</time>
      </trkpt>
      <trkpt lat="44.90057" lon="5.43179">
        <ele>907</ele>
        <time>2020-05-21T16:15:00.515Z</time>
      </trkpt>
      <trkpt lat="44.90057" lon="5.43179">
        <ele>907</ele>
        <time>2020-05-21T16:15:01.515Z</time>
      </trkpt>
      <trkpt lat="44.90056" lon="5.43179">
        <ele>907</ele>
        <time>2020-05-21T16:15:02.515Z</time>
      </trkpt>
      <trkpt lat="44.90055" lon="5.43179">
        <ele>907</ele>
        <time>2020-05-21T16:15:03.514Z</time>
      </trkpt>
      <trkpt lat="44.90054" lon="5.4318">
        <ele>907</ele>
        <time>2020-05-21T16:15:04.515Z</time>
      </trkpt>
      <trkpt lat="44.90053" lon="5.4318">
        <ele>907</ele>
        <time>2020-05-21T16:15:05.515Z</time>
      </trkpt>
      <trkpt lat="44.90051" lon="5.43181">
        <ele>907</ele>
        <time>2020-05-21T16:15:06.515Z</time>
      </trkpt>
      <trkpt lat="44.9005" lon="5.43181">
        <ele>908</ele>
        <time>2020-05-21T16:15:07.515Z</time>
      </trkpt>
      <trkpt lat="44.90048" lon="5.4318">
        <ele>908</ele>
        <time>2020-05-21T16:15:08.515Z</time>
      </trkpt>
      <trkpt lat="44.90047" lon="5.4318">
        <ele>908</ele>
        <time>2020-05-21T16:15:09.515Z</time>
      </trkpt>
      <trkpt lat="44.90047" lon="5.4318">
        <ele>909</ele>
        <time>2020-05-21T16:15:10.515Z</time>
      </trkpt>
      <trkpt lat="44.90046" lon="5.4318">
        <ele>909</ele>
        <time>2020-05-21T16:15:11.515Z</time>
      </trkpt>
      <trkpt lat="44.90046" lon="5.4318">
        <ele>909</ele>
        <time>2020-05-21T16:15:12.515Z</time>
      </trkpt>
      <trkpt lat="44.90045" lon="5.4318">
        <ele>909</ele>
        <time>2020-05-21T16:15:13.515Z</time>
      </trkpt>
      <trkpt lat="44.90045" lon="5.4318">
        <ele>910</ele>
        <time>2020-05-21T16:15:14.515Z</time>
      </trkpt>
      <trkpt lat="44.90045" lon="5.43179">
        <ele>910</ele>
        <time>2020-05-21T16:15:15.515Z</time>
      </trkpt>
      <trkpt lat="44.90045" lon="5.43179">
        <ele>910</ele>
        <time>2020-05-21T16:15:16.515Z</time>
      </trkpt>
      <trkpt lat="44.90045" lon="5.43179">
        <ele>910</ele>
        <time>2020-05-21T16:15:17.515Z</time>
      </trkpt>
      <trkpt lat="44.90045" lon="5.43179">
        <ele>910</ele>
        <time>2020-05-21T16:15:18.514Z</time>
      </trkpt>
      <trkpt lat="44.90045" lon="5.4318">
        <ele>910</ele>
        <time>2020-05-21T16:15:19.515Z</time>
      </trkpt>
      <trkpt lat="44.90045" lon="5.4318">
        <ele>910</ele>
        <time>2020-05-21T16:15:20.515Z</time>
      </trkpt>
      <trkpt lat="44.90044" lon="5.4318">
        <ele>910</ele>
        <time>2020-05-21T16:15:21.515Z</time>
      </trkpt>
      <trkpt lat="44.90043" lon="5.43181">
        <ele>910</ele>
        <time>2020-05-21T16:15:22.515Z</time>
      </trkpt>
      <trkpt lat="44.90042" lon="5.43182">
        <ele>910</ele>
        <time>2020-05-21T16:15:23.515Z</time>
      </trkpt>
      <trkpt lat="44.9004" lon="5.43183">
        <ele>910</ele>
        <time>2020-05-21T16:15:24.514Z</time>
      </trkpt>
      <trkpt lat="44.90039" lon="5.43184">
        <ele>909</ele>
        <time>2020-05-21T16:15:25.515Z</time>
      </trkpt>
      <trkpt lat="44.90038" lon="5.43184">
        <ele>909</ele>
        <time>2020-05-21T16:15:26.515Z</time>
      </trkpt>
      <trkpt lat="44.90037" lon="5.43185">
        <ele>909</ele>
        <time>2020-05-21T16:15:27.515Z</time>
      </trkpt>
      <trkpt lat="44.90035" lon="5.43185">
        <ele>909</ele>
        <time>2020-05-21T16:15:28.515Z</time>
      </trkpt>
      <trkpt lat="44.90034" lon="5.43187">
        <ele>909</ele>
        <time>2020-05-21T16:15:29.515Z</time>
      </trkpt>
      <trkpt lat="44.90032" lon="5.43188">
        <ele>909</ele>
        <time>2020-05-21T16:15:30.514Z</time>
      </trkpt>
      <trkpt lat="44.90031" lon="5.43189">
        <ele>909</ele>
        <time>2020-05-21T16:15:31.514Z</time>
      </trkpt>
      <trkpt lat="44.90029" lon="5.43191">
        <ele>909</ele>
        <time>2020-05-21T16:15:32.515Z</time>
      </trkpt>
      <trkpt lat="44.90028" lon="5.43191">
        <ele>910</ele>
        <time>2020-05-21T16:15:33.515Z</time>
      </trkpt>
      <trkpt lat="44.90028" lon="5.43192">
        <ele>910</ele>
        <time>2020-05-21T16:15:34.515Z</time>
      </trkpt>
      <trkpt lat="44.90027" lon="5.43193">
        <ele>910</ele>
        <time>2020-05-21T16:15:35.515Z</time>
      </trkpt>
      <trkpt lat="44.90027" lon="5.43194">
        <ele>910</ele>
        <time>2020-05-21T16:15:36.515Z</time>
      </trkpt>
      <trkpt lat="44.90025" lon="5.43194">
        <ele>911</ele>
        <time>2020-05-21T16:15:37.515Z</time>
      </trkpt>
      <trkpt lat="44.90024" lon="5.43195">
        <ele>911</ele>
        <time>2020-05-21T16:15:38.514Z</time>
      </trkpt>
      <trkpt lat="44.90022" lon="5.43196">
        <ele>912</ele>
        <time>2020-05-21T16:15:39.515Z</time>
      </trkpt>
      <trkpt lat="44.90021" lon="5.43197">
        <ele>912</ele>
        <time>2020-05-21T16:15:40.515Z</time>
      </trkpt>
      <trkpt lat="44.9002" lon="5.43197">
        <ele>912</ele>
        <time>2020-05-21T16:15:41.515Z</time>
      </trkpt>
      <trkpt lat="44.90019" lon="5.43197">
        <ele>913</ele>
        <time>2020-05-21T16:15:42.515Z</time>
      </trkpt>
      <trkpt lat="44.90018" lon="5.43198">
        <ele>913</ele>
        <time>2020-05-21T16:15:43.515Z</time>
      </trkpt>
      <trkpt lat="44.90017" lon="5.43198">
        <ele>914</ele>
        <time>2020-05-21T16:15:44.515Z</time>
      </trkpt>
      <trkpt lat="44.90016" lon="5.43198">
        <ele>914</ele>
        <time>2020-05-21T16:15:45.515Z</time>
      </trkpt>
      <trkpt lat="44.90015" lon="5.43199">
        <ele>914</ele>
        <time>2020-05-21T16:15:46.515Z</time>
      </trkpt>
      <trkpt lat="44.90014" lon="5.43199">
        <ele>914</ele>
        <time>2020-05-21T16:15:47.515Z</time>
      </trkpt>
      <trkpt lat="44.90013" lon="5.432">
        <ele>914</ele>
        <time>2020-05-21T16:15:48.515Z</time>
      </trkpt>
      <trkpt lat="44.90012" lon="5.43201">
        <ele>914</ele>
        <time>2020-05-21T16:15:49.515Z</time>
      </trkpt>
      <trkpt lat="44.90011" lon="5.43203">
        <ele>915</ele>
        <time>2020-05-21T16:15:50.515Z</time>
      </trkpt>
      <trkpt lat="44.9001" lon="5.43204">
        <ele>915</ele>
        <time>2020-05-21T16:15:51.514Z</time>
      </trkpt>
      <trkpt lat="44.90009" lon="5.43205">
        <ele>916</ele>
        <time>2020-05-21T16:15:52.515Z</time>
      </trkpt>
      <trkpt lat="44.90008" lon="5.43207">
        <ele>916</ele>
        <time>2020-05-21T16:15:53.515Z</time>
      </trkpt>
      <trkpt lat="44.90008" lon="5.43208">
        <ele>916</ele>
        <time>2020-05-21T16:15:54.515Z</time>
      </trkpt>
      <trkpt lat="44.90006" lon="5.43209">
        <ele>917</ele>
        <time>2020-05-21T16:15:55.515Z</time>
      </trkpt>
      <trkpt lat="44.90005" lon="5.43209">
        <ele>917</ele>
        <time>2020-05-21T16:15:56.515Z</time>
      </trkpt>
      <trkpt lat="44.90003" lon="5.43209">
        <ele>918</ele>
        <time>2020-05-21T16:15:57.515Z</time>
      </trkpt>
      <trkpt lat="44.90002" lon="5.4321">
        <ele>918</ele>
        <time>2020-05-21T16:15:58.514Z</time>
      </trkpt>
      <trkpt lat="44.9" lon="5.43209">
        <ele>918</ele>
        <time>2020-05-21T16:15:59.515Z</time>
      </trkpt>
      <trkpt lat="44.89999" lon="5.43209">
        <ele>918</ele>
        <time>2020-05-21T16:16:00.515Z</time>
      </trkpt>
      <trkpt lat="44.89998" lon="5.4321">
        <ele>918</ele>
        <time>2020-05-21T16:16:01.514Z</time>
      </trkpt>
      <trkpt lat="44.89997" lon="5.43211">
        <ele>918</ele>
        <time>2020-05-21T16:16:02.514Z</time>
      </trkpt>
      <trkpt lat="44.89996" lon="5.43211">
        <ele>918</ele>
        <time>2020-05-21T16:16:03.515Z</time>
      </trkpt>
      <trkpt lat="44.89995" lon="5.43212">
        <ele>918</ele>
        <time>2020-05-21T16:16:04.515Z</time>
      </trkpt>
      <trkpt lat="44.89994" lon="5.43212">
        <ele>918</ele>
        <time>2020-05-21T16:16:05.514Z</time>
      </trkpt>
      <trkpt lat="44.89993" lon="5.43212">
        <ele>918</ele>
        <time>2020-05-21T16:16:06.514Z</time>
      </trkpt>
      <trkpt lat="44.89991" lon="5.43212">
        <ele>918</ele>
        <time>2020-05-21T16:16:07.514Z</time>
      </trkpt>
      <trkpt lat="44.8999" lon="5.43211">
        <ele>919</ele>
        <time>2020-05-21T16:16:08.515Z</time>
      </trkpt>
      <trkpt lat="44.89989" lon="5.43211">
        <ele>919</ele>
        <time>2020-05-21T16:16:09.514Z</time>
      </trkpt>
      <trkpt lat="44.89988" lon="5.43211">
        <ele>919</ele>
        <time>2020-05-21T16:16:10.515Z</time>
      </trkpt>
      <trkpt lat="44.89987" lon="5.43211">
        <ele>919</ele>
        <time>2020-05-21T16:16:11.514Z</time>
      </trkpt>
      <trkpt lat="44.89986" lon="5.43212">
        <ele>919</ele>
        <time>2020-05-21T16:16:12.514Z</time>
      </trkpt>
      <trkpt lat="44.89985" lon="5.43212">
        <ele>919</ele>
        <time>2020-05-21T16:16:13.515Z</time>
      </trkpt>
      <trkpt lat="44.89983" lon="5.43214">
        <ele>919</ele>
        <time>2020-05-21T16:16:14.515Z</time>
      </trkpt>
      <trkpt lat="44.89982" lon="5.43215">
        <ele>919</ele>
        <time>2020-05-21T16:16:15.515Z</time>
      </trkpt>
      <trkpt lat="44.8998" lon="5.43215">
        <ele>919</ele>
        <time>2020-05-21T16:16:16.515Z</time>
      </trkpt>
      <trkpt lat="44.89978" lon="5.43215">
        <ele>920</ele>
        <time>2020-05-21T16:16:17.514Z</time>
      </trkpt>
      <trkpt lat="44.89977" lon="5.43215">
        <ele>920</ele>
        <time>2020-05-21T16:16:18.515Z</time>
      </trkpt>
      <trkpt lat="44.89975" lon="5.43215">
        <ele>920</ele>
        <time>2020-05-21T16:16:19.514Z</time>
      </trkpt>
      <trkpt lat="44.89974" lon="5.43216">
        <ele>921</ele>
        <time>2020-05-21T16:16:20.515Z</time>
      </trkpt>
      <trkpt lat="44.89972" lon="5.43217">
        <ele>921</ele>
        <time>2020-05-21T16:16:21.514Z</time>
      </trkpt>
      <trkpt lat="44.89971" lon="5.43218">
        <ele>921</ele>
        <time>2020-05-21T16:16:22.515Z</time>
      </trkpt>
      <trkpt lat="44.8997" lon="5.43218">
        <ele>922</ele>
        <time>2020-05-21T16:16:23.514Z</time>
      </trkpt>
      <trkpt lat="44.89969" lon="5.43218">
        <ele>922</ele>
        <time>2020-05-21T16:16:24.514Z</time>
      </trkpt>
      <trkpt lat="44.89968" lon="5.43218">
        <ele>922</ele>
        <time>2020-05-21T16:16:25.514Z</time>
      </trkpt>
      <trkpt lat="44.89968" lon="5.43217">
        <ele>922</ele>
        <time>2020-05-21T16:16:26.514Z</time>
      </trkpt>
      <trkpt lat="44.89967" lon="5.43218">
        <ele>923</ele>
        <time>2020-05-21T16:16:27.515Z</time>
      </trkpt>
      <trkpt lat="44.89966" lon="5.43218">
        <ele>923</ele>
        <time>2020-05-21T16:16:28.514Z</time>
      </trkpt>
      <trkpt lat="44.89965" lon="5.43218">
        <ele>923</ele>
        <time>2020-05-21T16:16:29.514Z</time>
      </trkpt>
      <trkpt lat="44.89964" lon="5.43219">
        <ele>923</ele>
        <time>2020-05-21T16:16:30.514Z</time>
      </trkpt>
      <trkpt lat="44.89963" lon="5.4322">
        <ele>923</ele>
        <time>2020-05-21T16:16:31.515Z</time>
      </trkpt>
      <trkpt lat="44.89961" lon="5.43222">
        <ele>923</ele>
        <time>2020-05-21T16:16:32.515Z</time>
      </trkpt>
      <trkpt lat="44.8996" lon="5.43223">
        <ele>923</ele>
        <time>2020-05-21T16:16:33.515Z</time>
      </trkpt>
      <trkpt lat="44.89959" lon="5.43225">
        <ele>924</ele>
        <time>2020-05-21T16:16:34.515Z</time>
      </trkpt>
      <trkpt lat="44.89958" lon="5.43225">
        <ele>924</ele>
        <time>2020-05-21T16:16:35.515Z</time>
      </trkpt>
      <trkpt lat="44.89957" lon="5.43225">
        <ele>924</ele>
        <time>2020-05-21T16:16:36.515Z</time>
      </trkpt>
      <trkpt lat="44.89955" lon="5.43225">
        <ele>924</ele>
        <time>2020-05-21T16:16:37.515Z</time>
      </trkpt>
      <trkpt lat="44.89953" lon="5.43224">
        <ele>924</ele>
        <time>2020-05-21T16:16:38.515Z</time>
      </trkpt>
      <trkpt lat="44.89951" lon="5.43225">
        <ele>924</ele>
        <time>2020-05-21T16:16:39.515Z</time>
      </trkpt>
      <trkpt lat="44.8995" lon="5.43225">
        <ele>925</ele>
        <time>2020-05-21T16:16:40.514Z</time>
      </trkpt>
      <trkpt lat="44.89948" lon="5.43226">
        <ele>925</ele>
        <time>2020-05-21T16:16:41.514Z</time>
      </trkpt>
      <trkpt lat="44.89947" lon="5.43226">
        <ele>925</ele>
        <time>2020-05-21T16:16:42.515Z</time>
      </trkpt>
      <trkpt lat="44.89946" lon="5.43227">
        <ele>926</ele>
        <time>2020-05-21T16:16:43.514Z</time>
      </trkpt>
      <trkpt lat="44.89945" lon="5.43226">
        <ele>926</ele>
        <time>2020-05-21T16:16:44.515Z</time>
      </trkpt>
      <trkpt lat="44.89944" lon="5.43226">
        <ele>926</ele>
        <time>2020-05-21T16:16:45.514Z</time>
      </trkpt>
      <trkpt lat="44.89943" lon="5.43226">
        <ele>926</ele>
        <time>2020-05-21T16:16:46.515Z</time>
      </trkpt>
      <trkpt lat="44.89941" lon="5.43226">
        <ele>926</ele>
        <time>2020-05-21T16:16:47.514Z</time>
      </trkpt>
      <trkpt lat="44.8994" lon="5.43227">
        <ele>927</ele>
        <time>2020-05-21T16:16:48.515Z</time>
      </trkpt>
      <trkpt lat="44.89939" lon="5.43228">
        <ele>927</ele>
        <time>2020-05-21T16:16:49.515Z</time>
      </trkpt>
      <trkpt lat="44.89938" lon="5.43229">
        <ele>927</ele>
        <time>2020-05-21T16:16:50.515Z</time>
      </trkpt>
      <trkpt lat="44.89937" lon="5.4323">
        <ele>928</ele>
        <time>2020-05-21T16:16:51.515Z</time>
      </trkpt>
      <trkpt lat="44.89936" lon="5.43231">
        <ele>928</ele>
        <time>2020-05-21T16:16:52.515Z</time>
      </trkpt>
      <trkpt lat="44.89935" lon="5.43233">
        <ele>928</ele>
        <time>2020-05-21T16:16:53.514Z</time>
      </trkpt>
      <trkpt lat="44.89934" lon="5.43233">
        <ele>929</ele>
        <time>2020-05-21T16:16:54.515Z</time>
      </trkpt>
      <trkpt lat="44.89932" lon="5.43234">
        <ele>929</ele>
        <time>2020-05-21T16:16:55.514Z</time>
      </trkpt>
      <trkpt lat="44.8993" lon="5.43234">
        <ele>930</ele>
        <time>2020-05-21T16:16:56.514Z</time>
      </trkpt>
      <trkpt lat="44.8993" lon="5.43235">
        <ele>930</ele>
        <time>2020-05-21T16:16:57.514Z</time>
      </trkpt>
      <trkpt lat="44.89929" lon="5.43235">
        <ele>931</ele>
        <time>2020-05-21T16:16:58.514Z</time>
      </trkpt>
      <trkpt lat="44.89929" lon="5.43236">
        <ele>931</ele>
        <time>2020-05-21T16:16:59.515Z</time>
      </trkpt>
      <trkpt lat="44.89929" lon="5.43237">
        <ele>931</ele>
        <time>2020-05-21T16:17:00.515Z</time>
      </trkpt>
      <trkpt lat="44.89928" lon="5.43237">
        <ele>931</ele>
        <time>2020-05-21T16:17:01.514Z</time>
      </trkpt>
      <trkpt lat="44.89927" lon="5.43238">
        <ele>931</ele>
        <time>2020-05-21T16:17:02.514Z</time>
      </trkpt>
      <trkpt lat="44.89926" lon="5.43239">
        <ele>931</ele>
        <time>2020-05-21T16:17:03.515Z</time>
      </trkpt>
      <trkpt lat="44.89925" lon="5.43239">
        <ele>932</ele>
        <time>2020-05-21T16:17:04.515Z</time>
      </trkpt>
      <trkpt lat="44.89924" lon="5.4324">
        <ele>932</ele>
        <time>2020-05-21T16:17:05.515Z</time>
      </trkpt>
      <trkpt lat="44.89923" lon="5.43241">
        <ele>932</ele>
        <time>2020-05-21T16:17:06.515Z</time>
      </trkpt>
      <trkpt lat="44.89922" lon="5.43241">
        <ele>932</ele>
        <time>2020-05-21T16:17:07.515Z</time>
      </trkpt>
      <trkpt lat="44.89921" lon="5.43242">
        <ele>932</ele>
        <time>2020-05-21T16:17:08.515Z</time>
      </trkpt>
      <trkpt lat="44.8992" lon="5.43242">
        <ele>933</ele>
        <time>2020-05-21T16:17:09.515Z</time>
      </trkpt>
      <trkpt lat="44.89918" lon="5.43242">
        <ele>933</ele>
        <time>2020-05-21T16:17:10.515Z</time>
      </trkpt>
      <trkpt lat="44.89917" lon="5.43242">
        <ele>934</ele>
        <time>2020-05-21T16:17:11.515Z</time>
      </trkpt>
      <trkpt lat="44.89916" lon="5.43243">
        <ele>934</ele>
        <time>2020-05-21T16:17:12.515Z</time>
      </trkpt>
      <trkpt lat="44.89915" lon="5.43243">
        <ele>935</ele>
        <time>2020-05-21T16:17:13.515Z</time>
      </trkpt>
      <trkpt lat="44.8992" lon="5.4325">
        <ele>933</ele>
        <time>2020-05-21T16:17:14.514Z</time>
      </trkpt>
      <trkpt lat="44.8992" lon="5.4325">
        <ele>933</ele>
        <time>2020-05-21T16:17:15.514Z</time>
      </trkpt>
      <trkpt lat="44.8992" lon="5.4325">
        <ele>933</ele>
        <time>2020-05-21T16:17:16.514Z</time>
      </trkpt>
      <trkpt lat="44.8992" lon="5.4325">
        <ele>933</ele>
        <time>2020-05-21T16:17:17.514Z</time>
      </trkpt>
      <trkpt lat="44.8992" lon="5.4325">
        <ele>933</ele>
        <time>2020-05-21T16:17:18.514Z</time>
      </trkpt>
      <trkpt lat="44.8992" lon="5.4325">
        <ele>933</ele>
        <time>2020-05-21T16:17:19.514Z</time>
      </trkpt>
      <trkpt lat="44.89919" lon="5.4325">
        <ele>933</ele>
        <time>2020-05-21T16:17:20.514Z</time>
      </trkpt>
      <trkpt lat="44.89919" lon="5.43252">
        <ele>933</ele>
        <time>2020-05-21T16:17:21.514Z</time>
      </trkpt>
      <trkpt lat="44.89918" lon="5.43254">
        <ele>933</ele>
        <time>2020-05-21T16:17:22.514Z</time>
      </trkpt>
      <trkpt lat="44.89917" lon="5.43255">
        <ele>933</ele>
        <time>2020-05-21T16:17:23.514Z</time>
      </trkpt>
      <trkpt lat="44.89916" lon="5.43256">
        <ele>933</ele>
        <time>2020-05-21T16:17:24.514Z</time>
      </trkpt>
      <trkpt lat="44.89915" lon="5.43257">
        <ele>933</ele>
        <time>2020-05-21T16:17:25.514Z</time>
      </trkpt>
      <trkpt lat="44.89913" lon="5.43258">
        <ele>934</ele>
        <time>2020-05-21T16:17:26.514Z</time>
      </trkpt>
      <trkpt lat="44.89911" lon="5.43259">
        <ele>934</ele>
        <time>2020-05-21T16:17:27.514Z</time>
      </trkpt>
      <trkpt lat="44.89909" lon="5.43261">
        <ele>935</ele>
        <time>2020-05-21T16:17:28.514Z</time>
      </trkpt>
      <trkpt lat="44.89908" lon="5.43262">
        <ele>936</ele>
        <time>2020-05-21T16:17:29.514Z</time>
      </trkpt>
      <trkpt lat="44.89906" lon="5.43263">
        <ele>936</ele>
        <time>2020-05-21T16:17:30.514Z</time>
      </trkpt>
      <trkpt lat="44.89905" lon="5.43263">
        <ele>937</ele>
        <time>2020-05-21T16:17:31.514Z</time>
      </trkpt>
      <trkpt lat="44.89904" lon="5.43264">
        <ele>937</ele>
        <time>2020-05-21T16:17:32.514Z</time>
      </trkpt>
      <trkpt lat="44.89903" lon="5.43264">
        <ele>938</ele>
        <time>2020-05-21T16:17:33.514Z</time>
      </trkpt>
      <trkpt lat="44.89902" lon="5.43265">
        <ele>938</ele>
        <time>2020-05-21T16:17:34.514Z</time>
      </trkpt>
      <trkpt lat="44.89901" lon="5.43265">
        <ele>938</ele>
        <time>2020-05-21T16:17:35.514Z</time>
      </trkpt>
      <trkpt lat="44.89899" lon="5.43265">
        <ele>938</ele>
        <time>2020-05-21T16:17:36.514Z</time>
      </trkpt>
      <trkpt lat="44.89898" lon="5.43266">
        <ele>939</ele>
        <time>2020-05-21T16:17:37.514Z</time>
      </trkpt>
      <trkpt lat="44.89897" lon="5.43266">
        <ele>940</ele>
        <time>2020-05-21T16:17:38.514Z</time>
      </trkpt>
      <trkpt lat="44.89896" lon="5.43267">
        <ele>940</ele>
        <time>2020-05-21T16:17:39.514Z</time>
      </trkpt>
      <trkpt lat="44.89895" lon="5.43267">
        <ele>941</ele>
        <time>2020-05-21T16:17:40.514Z</time>
      </trkpt>
      <trkpt lat="44.89894" lon="5.43267">
        <ele>941</ele>
        <time>2020-05-21T16:17:41.514Z</time>
      </trkpt>
      <trkpt lat="44.89893" lon="5.43268">
        <ele>942</ele>
        <time>2020-05-21T16:17:42.514Z</time>
      </trkpt>
      <trkpt lat="44.89893" lon="5.43269">
        <ele>943</ele>
        <time>2020-05-21T16:17:43.514Z</time>
      </trkpt>
      <trkpt lat="44.89892" lon="5.43269">
        <ele>943</ele>
        <time>2020-05-21T16:17:44.514Z</time>
      </trkpt>
      <trkpt lat="44.8989" lon="5.4327">
        <ele>944</ele>
        <time>2020-05-21T16:17:45.514Z</time>
      </trkpt>
      <trkpt lat="44.89889" lon="5.43271">
        <ele>945</ele>
        <time>2020-05-21T16:17:46.514Z</time>
      </trkpt>
      <trkpt lat="44.89887" lon="5.43273">
        <ele>945</ele>
        <time>2020-05-21T16:17:47.514Z</time>
      </trkpt>
      <trkpt lat="44.89886" lon="5.43274">
        <ele>946</ele>
        <time>2020-05-21T16:17:48.514Z</time>
      </trkpt>
      <trkpt lat="44.89885" lon="5.43275">
        <ele>947</ele>
        <time>2020-05-21T16:17:49.514Z</time>
      </trkpt>
      <trkpt lat="44.89884" lon="5.43276">
        <ele>947</ele>
        <time>2020-05-21T16:17:50.514Z</time>
      </trkpt>
      <trkpt lat="44.89883" lon="5.43277">
        <ele>948</ele>
        <time>2020-05-21T16:17:51.514Z</time>
      </trkpt>
      <trkpt lat="44.89882" lon="5.43278">
        <ele>949</ele>
        <time>2020-05-21T16:17:52.514Z</time>
      </trkpt>
      <trkpt lat="44.8988" lon="5.43279">
        <ele>949</ele>
        <time>2020-05-21T16:17:53.514Z</time>
      </trkpt>
      <trkpt lat="44.89879" lon="5.4328">
        <ele>950</ele>
        <time>2020-05-21T16:17:54.514Z</time>
      </trkpt>
      <trkpt lat="44.89877" lon="5.43281">
        <ele>951</ele>
        <time>2020-05-21T16:17:55.514Z</time>
      </trkpt>
      <trkpt lat="44.89876" lon="5.43282">
        <ele>951</ele>
        <time>2020-05-21T16:17:56.514Z</time>
      </trkpt>
      <trkpt lat="44.89875" lon="5.43283">
        <ele>952</ele>
        <time>2020-05-21T16:17:57.514Z</time>
      </trkpt>
      <trkpt lat="44.89874" lon="5.43285">
        <ele>952</ele>
        <time>2020-05-21T16:17:58.514Z</time>
      </trkpt>
      <trkpt lat="44.89873" lon="5.43285">
        <ele>952</ele>
        <time>2020-05-21T16:17:59.514Z</time>
      </trkpt>
      <trkpt lat="44.89872" lon="5.43286">
        <ele>952</ele>
        <time>2020-05-21T16:18:00.514Z</time>
      </trkpt>
      <trkpt lat="44.89871" lon="5.43287">
        <ele>952</ele>
        <time>2020-05-21T16:18:01.514Z</time>
      </trkpt>
      <trkpt lat="44.8987" lon="5.43287">
        <ele>953</ele>
        <time>2020-05-21T16:18:02.514Z</time>
      </trkpt>
      <trkpt lat="44.89869" lon="5.43288">
        <ele>953</ele>
        <time>2020-05-21T16:18:03.514Z</time>
      </trkpt>
      <trkpt lat="44.89868" lon="5.43288">
        <ele>954</ele>
        <time>2020-05-21T16:18:04.514Z</time>
      </trkpt>
      <trkpt lat="44.89867" lon="5.43289">
        <ele>955</ele>
        <time>2020-05-21T16:18:05.514Z</time>
      </trkpt>
      <trkpt lat="44.89865" lon="5.4329">
        <ele>955</ele>
        <time>2020-05-21T16:18:06.514Z</time>
      </trkpt>
      <trkpt lat="44.89864" lon="5.4329">
        <ele>956</ele>
        <time>2020-05-21T16:18:07.514Z</time>
      </trkpt>
      <trkpt lat="44.89863" lon="5.43291">
        <ele>956</ele>
        <time>2020-05-21T16:18:08.514Z</time>
      </trkpt>
      <trkpt lat="44.89862" lon="5.43291">
        <ele>957</ele>
        <time>2020-05-21T16:18:09.514Z</time>
      </trkpt>
      <trkpt lat="44.89861" lon="5.43292">
        <ele>958</ele>
        <time>2020-05-21T16:18:10.514Z</time>
      </trkpt>
      <trkpt lat="44.8986" lon="5.43293">
        <ele>958</ele>
        <time>2020-05-21T16:18:11.514Z</time>
      </trkpt>
      <trkpt lat="44.89858" lon="5.43294">
        <ele>958</ele>
        <time>2020-05-21T16:18:12.514Z</time>
      </trkpt>
      <trkpt lat="44.89857" lon="5.43294">
        <ele>958</ele>
        <time>2020-05-21T16:18:13.514Z</time>
      </trkpt>
      <trkpt lat="44.89855" lon="5.43295">
        <ele>958</ele>
        <time>2020-05-21T16:18:14.514Z</time>
      </trkpt>
      <trkpt lat="44.89854" lon="5.43295">
        <ele>959</ele>
        <time>2020-05-21T16:18:15.514Z</time>
      </trkpt>
      <trkpt lat="44.89853" lon="5.43296">
        <ele>959</ele>
        <time>2020-05-21T16:18:16.514Z</time>
      </trkpt>
      <trkpt lat="44.89852" lon="5.43296">
        <ele>959</ele>
        <time>2020-05-21T16:18:17.514Z</time>
      </trkpt>
      <trkpt lat="44.89851" lon="5.43296">
        <ele>960</ele>
        <time>2020-05-21T16:18:18.514Z</time>
      </trkpt>
      <trkpt lat="44.8985" lon="5.43296">
        <ele>961</ele>
        <time>2020-05-21T16:18:19.514Z</time>
      </trkpt>
      <trkpt lat="44.89849" lon="5.43295">
        <ele>962</ele>
        <time>2020-05-21T16:18:20.514Z</time>
      </trkpt>
      <trkpt lat="44.89847" lon="5.43296">
        <ele>963</ele>
        <time>2020-05-21T16:18:21.514Z</time>
      </trkpt>
      <trkpt lat="44.89845" lon="5.43297">
        <ele>963</ele>
        <time>2020-05-21T16:18:22.514Z</time>
      </trkpt>
      <trkpt lat="44.89845" lon="5.43298">
        <ele>964</ele>
        <time>2020-05-21T16:18:23.514Z</time>
      </trkpt>
      <trkpt lat="44.89844" lon="5.43299">
        <ele>964</ele>
        <time>2020-05-21T16:18:24.514Z</time>
      </trkpt>
      <trkpt lat="44.89843" lon="5.433">
        <ele>965</ele>
        <time>2020-05-21T16:18:25.514Z</time>
      </trkpt>
      <trkpt lat="44.89842" lon="5.433">
        <ele>965</ele>
        <time>2020-05-21T16:18:26.514Z</time>
      </trkpt>
      <trkpt lat="44.8984" lon="5.433">
        <ele>965</ele>
        <time>2020-05-21T16:18:27.514Z</time>
      </trkpt>
      <trkpt lat="44.8984" lon="5.43301">
        <ele>965</ele>
        <time>2020-05-21T16:18:28.514Z</time>
      </trkpt>
      <trkpt lat="44.8984" lon="5.433">
        <ele>965</ele>
        <time>2020-05-21T16:18:29.514Z</time>
      </trkpt>
      <trkpt lat="44.8984" lon="5.43301">
        <ele>964</ele>
        <time>2020-05-21T16:18:30.514Z</time>
      </trkpt>
      <trkpt lat="44.89839" lon="5.43301">
        <ele>964</ele>
        <time>2020-05-21T16:18:31.514Z</time>
      </trkpt>
      <trkpt lat="44.89839" lon="5.43303">
        <ele>963</ele>
        <time>2020-05-21T16:18:32.514Z</time>
      </trkpt>
      <trkpt lat="44.89838" lon="5.43304">
        <ele>963</ele>
        <time>2020-05-21T16:18:33.514Z</time>
      </trkpt>
      <trkpt lat="44.89837" lon="5.43305">
        <ele>963</ele>
        <time>2020-05-21T16:18:34.514Z</time>
      </trkpt>
      <trkpt lat="44.89836" lon="5.43305">
        <ele>964</ele>
        <time>2020-05-21T16:18:35.514Z</time>
      </trkpt>
      <trkpt lat="44.89835" lon="5.43306">
        <ele>964</ele>
        <time>2020-05-21T16:18:36.514Z</time>
      </trkpt>
      <trkpt lat="44.89834" lon="5.43308">
        <ele>965</ele>
        <time>2020-05-21T16:18:37.514Z</time>
      </trkpt>
      <trkpt lat="44.89833" lon="5.43309">
        <ele>966</ele>
        <time>2020-05-21T16:18:38.514Z</time>
      </trkpt>
      <trkpt lat="44.89831" lon="5.4331">
        <ele>966</ele>
        <time>2020-05-21T16:18:39.514Z</time>
      </trkpt>
      <trkpt lat="44.8983" lon="5.43312">
        <ele>967</ele>
        <time>2020-05-21T16:18:40.514Z</time>
      </trkpt>
      <trkpt lat="44.89829" lon="5.43313">
        <ele>968</ele>
        <time>2020-05-21T16:18:41.514Z</time>
      </trkpt>
      <trkpt lat="44.89828" lon="5.43314">
        <ele>969</ele>
        <time>2020-05-21T16:18:42.514Z</time>
      </trkpt>
      <trkpt lat="44.89827" lon="5.43316">
        <ele>970</ele>
        <time>2020-05-21T16:18:43.514Z</time>
      </trkpt>
      <trkpt lat="44.89826" lon="5.43316">
        <ele>971</ele>
        <time>2020-05-21T16:18:44.514Z</time>
      </trkpt>
      <trkpt lat="44.89825" lon="5.43317">
        <ele>972</ele>
        <time>2020-05-21T16:18:45.514Z</time>
      </trkpt>
      <trkpt lat="44.89824" lon="5.43318">
        <ele>973</ele>
        <time>2020-05-21T16:18:46.514Z</time>
      </trkpt>
      <trkpt lat="44.89824" lon="5.43319">
        <ele>973</ele>
        <time>2020-05-21T16:18:47.514Z</time>
      </trkpt>
      <trkpt lat="44.89824" lon="5.43319">
        <ele>974</ele>
        <time>2020-05-21T16:18:48.514Z</time>
      </trkpt>
      <trkpt lat="44.89824" lon="5.4332">
        <ele>974</ele>
        <time>2020-05-21T16:18:49.514Z</time>
      </trkpt>
      <trkpt lat="44.89823" lon="5.43321">
        <ele>975</ele>
        <time>2020-05-21T16:18:50.514Z</time>
      </trkpt>
      <trkpt lat="44.89823" lon="5.43322">
        <ele>976</ele>
        <time>2020-05-21T16:18:51.514Z</time>
      </trkpt>
      <trkpt lat="44.89822" lon="5.43323">
        <ele>977</ele>
        <time>2020-05-21T16:18:52.514Z</time>
      </trkpt>
      <trkpt lat="44.89822" lon="5.43324">
        <ele>978</ele>
        <time>2020-05-21T16:18:53.514Z</time>
      </trkpt>
      <trkpt lat="44.89821" lon="5.43325">
        <ele>979</ele>
        <time>2020-05-21T16:18:54.514Z</time>
      </trkpt>
      <trkpt lat="44.89821" lon="5.43326">
        <ele>980</ele>
        <time>2020-05-21T16:18:55.514Z</time>
      </trkpt>
      <trkpt lat="44.89821" lon="5.43327">
        <ele>981</ele>
        <time>2020-05-21T16:18:56.514Z</time>
      </trkpt>
      <trkpt lat="44.8982" lon="5.43328">
        <ele>982</ele>
        <time>2020-05-21T16:18:57.514Z</time>
      </trkpt>
      <trkpt lat="44.8982" lon="5.43329">
        <ele>982</ele>
        <time>2020-05-21T16:18:58.514Z</time>
      </trkpt>
      <trkpt lat="44.89819" lon="5.4333">
        <ele>983</ele>
        <time>2020-05-21T16:18:59.514Z</time>
      </trkpt>
      <trkpt lat="44.89819" lon="5.43332">
        <ele>984</ele>
        <time>2020-05-21T16:19:00.514Z</time>
      </trkpt>
      <trkpt lat="44.89818" lon="5.43334">
        <ele>984</ele>
        <time>2020-05-21T16:19:01.514Z</time>
      </trkpt>
      <trkpt lat="44.89817" lon="5.43336">
        <ele>984</ele>
        <time>2020-05-21T16:19:02.514Z</time>
      </trkpt>
      <trkpt lat="44.89816" lon="5.43337">
        <ele>985</ele>
        <time>2020-05-21T16:19:03.514Z</time>
      </trkpt>
      <trkpt lat="44.89815" lon="5.43339">
        <ele>984</ele>
        <time>2020-05-21T16:19:04.514Z</time>
      </trkpt>
      <trkpt lat="44.89815" lon="5.4334">
        <ele>984</ele>
        <time>2020-05-21T16:19:05.514Z</time>
      </trkpt>
      <trkpt lat="44.89815" lon="5.4334">
        <ele>984</ele>
        <time>2020-05-21T16:19:06.514Z</time>
      </trkpt>
      <trkpt lat="44.89815" lon="5.43343">
        <ele>985</ele>
        <time>2020-05-21T16:19:07.514Z</time>
      </trkpt>
      <trkpt lat="44.89815" lon="5.43345">
        <ele>985</ele>
        <time>2020-05-21T16:19:08.514Z</time>
      </trkpt>
      <trkpt lat="44.89814" lon="5.43347">
        <ele>986</ele>
        <time>2020-05-21T16:19:09.514Z</time>
      </trkpt>
      <trkpt lat="44.89812" lon="5.43348">
        <ele>986</ele>
        <time>2020-05-21T16:19:10.514Z</time>
      </trkpt>
      <trkpt lat="44.8981" lon="5.43349">
        <ele>987</ele>
        <time>2020-05-21T16:19:11.514Z</time>
      </trkpt>
      <trkpt lat="44.89809" lon="5.4335">
        <ele>987</ele>
        <time>2020-05-21T16:19:12.514Z</time>
      </trkpt>
      <trkpt lat="44.89808" lon="5.4335">
        <ele>987</ele>
        <time>2020-05-21T16:19:13.514Z</time>
      </trkpt>
      <trkpt lat="44.89807" lon="5.4335">
        <ele>987</ele>
        <time>2020-05-21T16:19:14.514Z</time>
      </trkpt>
      <trkpt lat="44.89806" lon="5.43351">
        <ele>987</ele>
        <time>2020-05-21T16:19:15.514Z</time>
      </trkpt>
      <trkpt lat="44.89803" lon="5.43351">
        <ele>987</ele>
        <time>2020-05-21T16:19:16.514Z</time>
      </trkpt>
      <trkpt lat="44.89801" lon="5.43351">
        <ele>988</ele>
        <time>2020-05-21T16:19:17.514Z</time>
      </trkpt>
      <trkpt lat="44.898" lon="5.43352">
        <ele>988</ele>
        <time>2020-05-21T16:19:18.514Z</time>
      </trkpt>
      <trkpt lat="44.898" lon="5.4335">
        <ele>988</ele>
        <time>2020-05-21T16:19:19.514Z</time>
      </trkpt>
      <trkpt lat="44.89799" lon="5.43348">
        <ele>988</ele>
        <time>2020-05-21T16:19:20.514Z</time>
      </trkpt>
      <trkpt lat="44.898" lon="5.43347">
        <ele>989</ele>
        <time>2020-05-21T16:19:21.514Z</time>
      </trkpt>
      <trkpt lat="44.898" lon="5.43346">
        <ele>989</ele>
        <time>2020-05-21T16:19:22.514Z</time>
      </trkpt>
      <trkpt lat="44.89801" lon="5.43345">
        <ele>989</ele>
        <time>2020-05-21T16:19:23.514Z</time>
      </trkpt>
      <trkpt lat="44.89803" lon="5.43344">
        <ele>989</ele>
        <time>2020-05-21T16:19:24.514Z</time>
      </trkpt>
      <trkpt lat="44.89804" lon="5.43344">
        <ele>988</ele>
        <time>2020-05-21T16:19:25.514Z</time>
      </trkpt>
      <trkpt lat="44.89805" lon="5.43344">
        <ele>988</ele>
        <time>2020-05-21T16:19:26.514Z</time>
      </trkpt>
      <trkpt lat="44.89806" lon="5.43344">
        <ele>987</ele>
        <time>2020-05-21T16:19:27.514Z</time>
      </trkpt>
      <trkpt lat="44.89807" lon="5.43344">
        <ele>987</ele>
        <time>2020-05-21T16:19:28.514Z</time>
      </trkpt>
      <trkpt lat="44.89808" lon="5.43344">
        <ele>986</ele>
        <time>2020-05-21T16:19:29.514Z</time>
      </trkpt>
      <trkpt lat="44.89807" lon="5.43345">
        <ele>985</ele>
        <time>2020-05-21T16:19:30.514Z</time>
      </trkpt>
      <trkpt lat="44.89807" lon="5.43345">
        <ele>985</ele>
        <time>2020-05-21T16:19:31.514Z</time>
      </trkpt>
      <trkpt lat="44.89806" lon="5.43346">
        <ele>985</ele>
        <time>2020-05-21T16:19:32.514Z</time>
      </trkpt>
      <trkpt lat="44.89805" lon="5.43346">
        <ele>985</ele>
        <time>2020-05-21T16:19:33.514Z</time>
      </trkpt>
      <trkpt lat="44.89804" lon="5.43346">
        <ele>985</ele>
        <time>2020-05-21T16:19:34.514Z</time>
      </trkpt>
      <trkpt lat="44.89803" lon="5.43347">
        <ele>985</ele>
        <time>2020-05-21T16:19:35.514Z</time>
      </trkpt>
      <trkpt lat="44.89802" lon="5.43347">
        <ele>986</ele>
        <time>2020-05-21T16:19:36.514Z</time>
      </trkpt>
      <trkpt lat="44.89801" lon="5.43348">
        <ele>986</ele>
        <time>2020-05-21T16:19:37.514Z</time>
      </trkpt>
      <trkpt lat="44.898" lon="5.43348">
        <ele>987</ele>
        <time>2020-05-21T16:19:38.514Z</time>
      </trkpt>
      <trkpt lat="44.898" lon="5.4335">
        <ele>987</ele>
        <time>2020-05-21T16:19:39.514Z</time>
      </trkpt>
      <trkpt lat="44.89799" lon="5.4335">
        <ele>987</ele>
        <time>2020-05-21T16:19:40.514Z</time>
      </trkpt>
      <trkpt lat="44.89798" lon="5.43351">
        <ele>987</ele>
        <time>2020-05-21T16:19:41.514Z</time>
      </trkpt>
      <trkpt lat="44.89798" lon="5.43351">
        <ele>987</ele>
        <time>2020-05-21T16:19:42.514Z</time>
      </trkpt>
      <trkpt lat="44.89797" lon="5.43351">
        <ele>987</ele>
        <time>2020-05-21T16:19:43.514Z</time>
      </trkpt>
      <trkpt lat="44.89796" lon="5.43352">
        <ele>987</ele>
        <time>2020-05-21T16:19:44.514Z</time>
      </trkpt>
      <trkpt lat="44.89796" lon="5.43353">
        <ele>987</ele>
        <time>2020-05-21T16:19:45.514Z</time>
      </trkpt>
      <trkpt lat="44.89795" lon="5.43355">
        <ele>987</ele>
        <time>2020-05-21T16:19:46.514Z</time>
      </trkpt>
      <trkpt lat="44.89794" lon="5.43356">
        <ele>987</ele>
        <time>2020-05-21T16:19:47.514Z</time>
      </trkpt>
      <trkpt lat="44.89792" lon="5.43357">
        <ele>987</ele>
        <time>2020-05-21T16:19:48.514Z</time>
      </trkpt>
      <trkpt lat="44.89791" lon="5.43358">
        <ele>987</ele>
        <time>2020-05-21T16:19:49.514Z</time>
      </trkpt>
      <trkpt lat="44.8979" lon="5.43359">
        <ele>987</ele>
        <time>2020-05-21T16:19:50.514Z</time>
      </trkpt>
      <trkpt lat="44.89789" lon="5.4336">
        <ele>988</ele>
        <time>2020-05-21T16:19:51.514Z</time>
      </trkpt>
      <trkpt lat="44.89787" lon="5.43361">
        <ele>988</ele>
        <time>2020-05-21T16:19:52.514Z</time>
      </trkpt>
      <trkpt lat="44.89786" lon="5.43361">
        <ele>988</ele>
        <time>2020-05-21T16:19:53.514Z</time>
      </trkpt>
      <trkpt lat="44.89785" lon="5.43361">
        <ele>988</ele>
        <time>2020-05-21T16:19:54.514Z</time>
      </trkpt>
      <trkpt lat="44.89784" lon="5.43362">
        <ele>988</ele>
        <time>2020-05-21T16:19:55.514Z</time>
      </trkpt>
      <trkpt lat="44.89783" lon="5.43364">
        <ele>988</ele>
        <time>2020-05-21T16:19:56.514Z</time>
      </trkpt>
      <trkpt lat="44.89782" lon="5.43365">
        <ele>988</ele>
        <time>2020-05-21T16:19:57.514Z</time>
      </trkpt>
      <trkpt lat="44.89781" lon="5.43366">
        <ele>988</ele>
        <time>2020-05-21T16:19:58.514Z</time>
      </trkpt>
      <trkpt lat="44.8978" lon="5.43366">
        <ele>989</ele>
        <time>2020-05-21T16:19:59.514Z</time>
      </trkpt>
      <trkpt lat="44.89779" lon="5.43367">
        <ele>989</ele>
        <time>2020-05-21T16:20:00.514Z</time>
      </trkpt>
      <trkpt lat="44.89778" lon="5.43368">
        <ele>990</ele>
        <time>2020-05-21T16:20:01.514Z</time>
      </trkpt>
      <trkpt lat="44.89776" lon="5.43369">
        <ele>991</ele>
        <time>2020-05-21T16:20:02.514Z</time>
      </trkpt>
      <trkpt lat="44.89775" lon="5.4337">
        <ele>991</ele>
        <time>2020-05-21T16:20:03.514Z</time>
      </trkpt>
      <trkpt lat="44.89774" lon="5.43371">
        <ele>991</ele>
        <time>2020-05-21T16:20:04.514Z</time>
      </trkpt>
      <trkpt lat="44.89774" lon="5.43373">
        <ele>991</ele>
        <time>2020-05-21T16:20:05.514Z</time>
      </trkpt>
      <trkpt lat="44.89773" lon="5.43374">
        <ele>990</ele>
        <time>2020-05-21T16:20:06.514Z</time>
      </trkpt>
      <trkpt lat="44.89771" lon="5.43375">
        <ele>990</ele>
        <time>2020-05-21T16:20:07.514Z</time>
      </trkpt>
      <trkpt lat="44.8977" lon="5.43377">
        <ele>990</ele>
        <time>2020-05-21T16:20:08.514Z</time>
      </trkpt>
      <trkpt lat="44.89769" lon="5.43378">
        <ele>990</ele>
        <time>2020-05-21T16:20:09.514Z</time>
      </trkpt>
      <trkpt lat="44.89768" lon="5.43381">
        <ele>990</ele>
        <time>2020-05-21T16:20:10.514Z</time>
      </trkpt>
      <trkpt lat="44.89767" lon="5.43384">
        <ele>990</ele>
        <time>2020-05-21T16:20:11.514Z</time>
      </trkpt>
      <trkpt lat="44.89767" lon="5.43385">
        <ele>991</ele>
        <time>2020-05-21T16:20:12.514Z</time>
      </trkpt>
      <trkpt lat="44.89766" lon="5.43386">
        <ele>991</ele>
        <time>2020-05-21T16:20:13.514Z</time>
      </trkpt>
      <trkpt lat="44.89765" lon="5.43387">
        <ele>991</ele>
        <time>2020-05-21T16:20:14.514Z</time>
      </trkpt>
      <trkpt lat="44.89764" lon="5.43389">
        <ele>992</ele>
        <time>2020-05-21T16:20:15.514Z</time>
      </trkpt>
      <trkpt lat="44.89763" lon="5.43393">
        <ele>992</ele>
        <time>2020-05-21T16:20:16.514Z</time>
      </trkpt>
      <trkpt lat="44.89761" lon="5.43396">
        <ele>993</ele>
        <time>2020-05-21T16:20:17.514Z</time>
      </trkpt>
      <trkpt lat="44.8976" lon="5.43398">
        <ele>993</ele>
        <time>2020-05-21T16:20:18.514Z</time>
      </trkpt>
      <trkpt lat="44.89759" lon="5.434">
        <ele>994</ele>
        <time>2020-05-21T16:20:19.514Z</time>
      </trkpt>
      <trkpt lat="44.89757" lon="5.43402">
        <ele>995</ele>
        <time>2020-05-21T16:20:20.514Z</time>
      </trkpt>
      <trkpt lat="44.89756" lon="5.43404">
        <ele>996</ele>
        <time>2020-05-21T16:20:21.514Z</time>
      </trkpt>
      <trkpt lat="44.89755" lon="5.43404">
        <ele>997</ele>
        <time>2020-05-21T16:20:22.514Z</time>
      </trkpt>
      <trkpt lat="44.89754" lon="5.43405">
        <ele>998</ele>
        <time>2020-05-21T16:20:23.514Z</time>
      </trkpt>
      <trkpt lat="44.89752" lon="5.43406">
        <ele>998</ele>
        <time>2020-05-21T16:20:24.514Z</time>
      </trkpt>
      <trkpt lat="44.89751" lon="5.43407">
        <ele>998</ele>
        <time>2020-05-21T16:20:25.514Z</time>
      </trkpt>
      <trkpt lat="44.8975" lon="5.43407">
        <ele>998</ele>
        <time>2020-05-21T16:20:26.514Z</time>
      </trkpt>
      <trkpt lat="44.89748" lon="5.43408">
        <ele>998</ele>
        <time>2020-05-21T16:20:27.514Z</time>
      </trkpt>
      <trkpt lat="44.89747" lon="5.43409">
        <ele>998</ele>
        <time>2020-05-21T16:20:28.514Z</time>
      </trkpt>
      <trkpt lat="44.89745" lon="5.43409">
        <ele>998</ele>
        <time>2020-05-21T16:20:29.514Z</time>
      </trkpt>
      <trkpt lat="44.89742" lon="5.4341">
        <ele>998</ele>
        <time>2020-05-21T16:20:30.514Z</time>
      </trkpt>
      <trkpt lat="44.8974" lon="5.43411">
        <ele>998</ele>
        <time>2020-05-21T16:20:31.514Z</time>
      </trkpt>
      <trkpt lat="44.89738" lon="5.43412">
        <ele>998</ele>
        <time>2020-05-21T16:20:32.514Z</time>
      </trkpt>
      <trkpt lat="44.89737" lon="5.43413">
        <ele>998</ele>
        <time>2020-05-21T16:20:33.514Z</time>
      </trkpt>
      <trkpt lat="44.89736" lon="5.43414">
        <ele>998</ele>
        <time>2020-05-21T16:20:34.514Z</time>
      </trkpt>
      <trkpt lat="44.89734" lon="5.43415">
        <ele>999</ele>
        <time>2020-05-21T16:20:35.514Z</time>
      </trkpt>
      <trkpt lat="44.89732" lon="5.43416">
        <ele>999</ele>
        <time>2020-05-21T16:20:36.514Z</time>
      </trkpt>
      <trkpt lat="44.8973" lon="5.43417">
        <ele>999</ele>
        <time>2020-05-21T16:20:37.514Z</time>
      </trkpt>
      <trkpt lat="44.89728" lon="5.43418">
        <ele>1000</ele>
        <time>2020-05-21T16:20:38.514Z</time>
      </trkpt>
      <trkpt lat="44.89727" lon="5.43418">
        <ele>1001</ele>
        <time>2020-05-21T16:20:39.514Z</time>
      </trkpt>
      <trkpt lat="44.89727" lon="5.43419">
        <ele>1001</ele>
        <time>2020-05-21T16:20:40.514Z</time>
      </trkpt>
      <trkpt lat="44.89725" lon="5.4342">
        <ele>1002</ele>
        <time>2020-05-21T16:20:41.514Z</time>
      </trkpt>
      <trkpt lat="44.89724" lon="5.43421">
        <ele>1002</ele>
        <time>2020-05-21T16:20:42.514Z</time>
      </trkpt>
      <trkpt lat="44.89723" lon="5.43422">
        <ele>1001</ele>
        <time>2020-05-21T16:20:43.514Z</time>
      </trkpt>
      <trkpt lat="44.89722" lon="5.43423">
        <ele>1001</ele>
        <time>2020-05-21T16:20:44.514Z</time>
      </trkpt>
      <trkpt lat="44.89721" lon="5.43424">
        <ele>1001</ele>
        <time>2020-05-21T16:20:45.514Z</time>
      </trkpt>
      <trkpt lat="44.89719" lon="5.43424">
        <ele>1001</ele>
        <time>2020-05-21T16:20:46.514Z</time>
      </trkpt>
      <trkpt lat="44.89717" lon="5.43426">
        <ele>1002</ele>
        <time>2020-05-21T16:20:47.514Z</time>
      </trkpt>
      <trkpt lat="44.89716" lon="5.43426">
        <ele>1002</ele>
        <time>2020-05-21T16:20:48.514Z</time>
      </trkpt>
      <trkpt lat="44.89714" lon="5.43427">
        <ele>1002</ele>
        <time>2020-05-21T16:20:49.514Z</time>
      </trkpt>
      <trkpt lat="44.89713" lon="5.43428">
        <ele>1002</ele>
        <time>2020-05-21T16:20:50.514Z</time>
      </trkpt>
      <trkpt lat="44.89712" lon="5.43429">
        <ele>1002</ele>
        <time>2020-05-21T16:20:51.514Z</time>
      </trkpt>
      <trkpt lat="44.89711" lon="5.4343">
        <ele>1002</ele>
        <time>2020-05-21T16:20:52.514Z</time>
      </trkpt>
      <trkpt lat="44.8971" lon="5.4343">
        <ele>1002</ele>
        <time>2020-05-21T16:20:53.514Z</time>
      </trkpt>
      <trkpt lat="44.89709" lon="5.43431">
        <ele>1001</ele>
        <time>2020-05-21T16:20:54.514Z</time>
      </trkpt>
      <trkpt lat="44.89708" lon="5.43431">
        <ele>1001</ele>
        <time>2020-05-21T16:20:55.514Z</time>
      </trkpt>
      <trkpt lat="44.89707" lon="5.43431">
        <ele>1000</ele>
        <time>2020-05-21T16:20:56.514Z</time>
      </trkpt>
      <trkpt lat="44.89706" lon="5.43431">
        <ele>999</ele>
        <time>2020-05-21T16:20:57.514Z</time>
      </trkpt>
      <trkpt lat="44.89705" lon="5.43431">
        <ele>999</ele>
        <time>2020-05-21T16:20:58.514Z</time>
      </trkpt>
      <trkpt lat="44.89703" lon="5.43432">
        <ele>999</ele>
        <time>2020-05-21T16:20:59.514Z</time>
      </trkpt>
      <trkpt lat="44.89702" lon="5.43431">
        <ele>999</ele>
        <time>2020-05-21T16:21:00.514Z</time>
      </trkpt>
      <trkpt lat="44.897" lon="5.43431">
        <ele>999</ele>
        <time>2020-05-21T16:21:01.514Z</time>
      </trkpt>
      <trkpt lat="44.89699" lon="5.43431">
        <ele>999</ele>
        <time>2020-05-21T16:21:02.514Z</time>
      </trkpt>
      <trkpt lat="44.89697" lon="5.4343">
        <ele>999</ele>
        <time>2020-05-21T16:21:03.514Z</time>
      </trkpt>
      <trkpt lat="44.89696" lon="5.4343">
        <ele>1000</ele>
        <time>2020-05-21T16:21:04.514Z</time>
      </trkpt>
      <trkpt lat="44.89694" lon="5.4343">
        <ele>1000</ele>
        <time>2020-05-21T16:21:05.514Z</time>
      </trkpt>
      <trkpt lat="44.89693" lon="5.4343">
        <ele>999</ele>
        <time>2020-05-21T16:21:06.514Z</time>
      </trkpt>
      <trkpt lat="44.89691" lon="5.4343">
        <ele>999</ele>
        <time>2020-05-21T16:21:07.514Z</time>
      </trkpt>
      <trkpt lat="44.89689" lon="5.4343">
        <ele>998</ele>
        <time>2020-05-21T16:21:08.514Z</time>
      </trkpt>
      <trkpt lat="44.89688" lon="5.4343">
        <ele>998</ele>
        <time>2020-05-21T16:21:09.514Z</time>
      </trkpt>
      <trkpt lat="44.89686" lon="5.4343">
        <ele>997</ele>
        <time>2020-05-21T16:21:10.514Z</time>
      </trkpt>
      <trkpt lat="44.89684" lon="5.4343">
        <ele>997</ele>
        <time>2020-05-21T16:21:11.514Z</time>
      </trkpt>
      <trkpt lat="44.89682" lon="5.4343">
        <ele>996</ele>
        <time>2020-05-21T16:21:12.514Z</time>
      </trkpt>
      <trkpt lat="44.8968" lon="5.4343">
        <ele>996</ele>
        <time>2020-05-21T16:21:13.514Z</time>
      </trkpt>
      <trkpt lat="44.89679" lon="5.43429">
        <ele>996</ele>
        <time>2020-05-21T16:21:14.514Z</time>
      </trkpt>
      <trkpt lat="44.89678" lon="5.43429">
        <ele>996</ele>
        <time>2020-05-21T16:21:15.514Z</time>
      </trkpt>
      <trkpt lat="44.89676" lon="5.43428">
        <ele>996</ele>
        <time>2020-05-21T16:21:16.514Z</time>
      </trkpt>
      <trkpt lat="44.89674" lon="5.43428">
        <ele>997</ele>
        <time>2020-05-21T16:21:17.514Z</time>
      </trkpt>
      <trkpt lat="44.89673" lon="5.43428">
        <ele>997</ele>
        <time>2020-05-21T16:21:18.514Z</time>
      </trkpt>
      <trkpt lat="44.89671" lon="5.43428">
        <ele>997</ele>
        <time>2020-05-21T16:21:19.514Z</time>
      </trkpt>
      <trkpt lat="44.89669" lon="5.43427">
        <ele>997</ele>
        <time>2020-05-21T16:21:20.514Z</time>
      </trkpt>
      <trkpt lat="44.89667" lon="5.43427">
        <ele>997</ele>
        <time>2020-05-21T16:21:21.514Z</time>
      </trkpt>
      <trkpt lat="44.89666" lon="5.43426">
        <ele>996</ele>
        <time>2020-05-21T16:21:22.514Z</time>
      </trkpt>
      <trkpt lat="44.89664" lon="5.43426">
        <ele>996</ele>
        <time>2020-05-21T16:21:23.514Z</time>
      </trkpt>
      <trkpt lat="44.89662" lon="5.43425">
        <ele>996</ele>
        <time>2020-05-21T16:21:24.514Z</time>
      </trkpt>
      <trkpt lat="44.8966" lon="5.43425">
        <ele>996</ele>
        <time>2020-05-21T16:21:25.514Z</time>
      </trkpt>
      <trkpt lat="44.89658" lon="5.43424">
        <ele>996</ele>
        <time>2020-05-21T16:21:26.514Z</time>
      </trkpt>
      <trkpt lat="44.89657" lon="5.43424">
        <ele>996</ele>
        <time>2020-05-21T16:21:27.514Z</time>
      </trkpt>
      <trkpt lat="44.89655" lon="5.43424">
        <ele>996</ele>
        <time>2020-05-21T16:21:28.514Z</time>
      </trkpt>
      <trkpt lat="44.89654" lon="5.43424">
        <ele>996</ele>
        <time>2020-05-21T16:21:29.514Z</time>
      </trkpt>
      <trkpt lat="44.89652" lon="5.43424">
        <ele>996</ele>
        <time>2020-05-21T16:21:30.514Z</time>
      </trkpt>
      <trkpt lat="44.89651" lon="5.43425">
        <ele>996</ele>
        <time>2020-05-21T16:21:31.514Z</time>
      </trkpt>
      <trkpt lat="44.8965" lon="5.43425">
        <ele>995</ele>
        <time>2020-05-21T16:21:32.514Z</time>
      </trkpt>
      <trkpt lat="44.89648" lon="5.43425">
        <ele>996</ele>
        <time>2020-05-21T16:21:33.514Z</time>
      </trkpt>
      <trkpt lat="44.89647" lon="5.43426">
        <ele>996</ele>
        <time>2020-05-21T16:21:34.514Z</time>
      </trkpt>
      <trkpt lat="44.89645" lon="5.43426">
        <ele>996</ele>
        <time>2020-05-21T16:21:35.514Z</time>
      </trkpt>
      <trkpt lat="44.89643" lon="5.43426">
        <ele>996</ele>
        <time>2020-05-21T16:21:36.514Z</time>
      </trkpt>
      <trkpt lat="44.89641" lon="5.43427">
        <ele>996</ele>
        <time>2020-05-21T16:21:37.514Z</time>
      </trkpt>
      <trkpt lat="44.89639" lon="5.43427">
        <ele>997</ele>
        <time>2020-05-21T16:21:38.514Z</time>
      </trkpt>
      <trkpt lat="44.89637" lon="5.43427">
        <ele>997</ele>
        <time>2020-05-21T16:21:39.514Z</time>
      </trkpt>
      <trkpt lat="44.89636" lon="5.43428">
        <ele>998</ele>
        <time>2020-05-21T16:21:40.514Z</time>
      </trkpt>
      <trkpt lat="44.89634" lon="5.43428">
        <ele>998</ele>
        <time>2020-05-21T16:21:41.514Z</time>
      </trkpt>
      <trkpt lat="44.89632" lon="5.43428">
        <ele>998</ele>
        <time>2020-05-21T16:21:42.514Z</time>
      </trkpt>
      <trkpt lat="44.8963" lon="5.43428">
        <ele>998</ele>
        <time>2020-05-21T16:21:43.514Z</time>
      </trkpt>
      <trkpt lat="44.89628" lon="5.43429">
        <ele>998</ele>
        <time>2020-05-21T16:21:44.514Z</time>
      </trkpt>
      <trkpt lat="44.89627" lon="5.43429">
        <ele>998</ele>
        <time>2020-05-21T16:21:45.514Z</time>
      </trkpt>
      <trkpt lat="44.89625" lon="5.43429">
        <ele>998</ele>
        <time>2020-05-21T16:21:46.514Z</time>
      </trkpt>
      <trkpt lat="44.89623" lon="5.43429">
        <ele>999</ele>
        <time>2020-05-21T16:21:47.514Z</time>
      </trkpt>
      <trkpt lat="44.89621" lon="5.43429">
        <ele>999</ele>
        <time>2020-05-21T16:21:48.514Z</time>
      </trkpt>
      <trkpt lat="44.8962" lon="5.43429">
        <ele>999</ele>
        <time>2020-05-21T16:21:49.514Z</time>
      </trkpt>
      <trkpt lat="44.89618" lon="5.43429">
        <ele>999</ele>
        <time>2020-05-21T16:21:50.514Z</time>
      </trkpt>
      <trkpt lat="44.89616" lon="5.43429">
        <ele>999</ele>
        <time>2020-05-21T16:21:51.514Z</time>
      </trkpt>
      <trkpt lat="44.89614" lon="5.43428">
        <ele>1000</ele>
        <time>2020-05-21T16:21:52.514Z</time>
      </trkpt>
      <trkpt lat="44.89612" lon="5.43427">
        <ele>1000</ele>
        <time>2020-05-21T16:21:53.514Z</time>
      </trkpt>
      <trkpt lat="44.8961" lon="5.43427">
        <ele>1000</ele>
        <time>2020-05-21T16:21:54.514Z</time>
      </trkpt>
      <trkpt lat="44.89609" lon="5.43426">
        <ele>1001</ele>
        <time>2020-05-21T16:21:55.514Z</time>
      </trkpt>
      <trkpt lat="44.89607" lon="5.43426">
        <ele>1002</ele>
        <time>2020-05-21T16:21:56.514Z</time>
      </trkpt>
      <trkpt lat="44.89605" lon="5.43425">
        <ele>1003</ele>
        <time>2020-05-21T16:21:57.514Z</time>
      </trkpt>
      <trkpt lat="44.89604" lon="5.43424">
        <ele>1004</ele>
        <time>2020-05-21T16:21:58.514Z</time>
      </trkpt>
      <trkpt lat="44.89602" lon="5.43423">
        <ele>1004</ele>
        <time>2020-05-21T16:21:59.514Z</time>
      </trkpt>
      <trkpt lat="44.896" lon="5.43423">
        <ele>1005</ele>
        <time>2020-05-21T16:22:00.514Z</time>
      </trkpt>
      <trkpt lat="44.89597" lon="5.43422">
        <ele>1005</ele>
        <time>2020-05-21T16:22:01.514Z</time>
      </trkpt>
      <trkpt lat="44.89595" lon="5.43421">
        <ele>1005</ele>
        <time>2020-05-21T16:22:02.514Z</time>
      </trkpt>
      <trkpt lat="44.89593" lon="5.43421">
        <ele>1006</ele>
        <time>2020-05-21T16:22:03.514Z</time>
      </trkpt>
      <trkpt lat="44.89591" lon="5.43421">
        <ele>1006</ele>
        <time>2020-05-21T16:22:04.514Z</time>
      </trkpt>
      <trkpt lat="44.89589" lon="5.4342">
        <ele>1006</ele>
        <time>2020-05-21T16:22:05.514Z</time>
      </trkpt>
      <trkpt lat="44.89587" lon="5.43419">
        <ele>1007</ele>
        <time>2020-05-21T16:22:06.514Z</time>
      </trkpt>
      <trkpt lat="44.89585" lon="5.43418">
        <ele>1007</ele>
        <time>2020-05-21T16:22:07.514Z</time>
      </trkpt>
      <trkpt lat="44.89583" lon="5.43418">
        <ele>1007</ele>
        <time>2020-05-21T16:22:08.514Z</time>
      </trkpt>
      <trkpt lat="44.89581" lon="5.43417">
        <ele>1008</ele>
        <time>2020-05-21T16:22:09.514Z</time>
      </trkpt>
      <trkpt lat="44.89579" lon="5.43416">
        <ele>1008</ele>
        <time>2020-05-21T16:22:10.514Z</time>
      </trkpt>
      <trkpt lat="44.89577" lon="5.43415">
        <ele>1009</ele>
        <time>2020-05-21T16:22:11.514Z</time>
      </trkpt>
      <trkpt lat="44.89576" lon="5.43414">
        <ele>1010</ele>
        <time>2020-05-21T16:22:12.514Z</time>
      </trkpt>
      <trkpt lat="44.89574" lon="5.43413">
        <ele>1010</ele>
        <time>2020-05-21T16:22:13.514Z</time>
      </trkpt>
      <trkpt lat="44.89572" lon="5.43413">
        <ele>1010</ele>
        <time>2020-05-21T16:22:14.514Z</time>
      </trkpt>
      <trkpt lat="44.89574" lon="5.43411">
        <ele>1005</ele>
        <time>2020-05-21T16:22:15.514Z</time>
      </trkpt>
      <trkpt lat="44.89574" lon="5.43412">
        <ele>1005</ele>
        <time>2020-05-21T16:22:16.514Z</time>
      </trkpt>
      <trkpt lat="44.89574" lon="5.43413">
        <ele>1005</ele>
        <time>2020-05-21T16:22:17.515Z</time>
      </trkpt>
      <trkpt lat="44.89574" lon="5.43413">
        <ele>1005</ele>
        <time>2020-05-21T16:22:18.514Z</time>
      </trkpt>
      <trkpt lat="44.89574" lon="5.43413">
        <ele>1005</ele>
        <time>2020-05-21T16:22:19.514Z</time>
      </trkpt>
      <trkpt lat="44.89569" lon="5.43413">
        <ele>1005</ele>
        <time>2020-05-21T16:22:20.515Z</time>
      </trkpt>
      <trkpt lat="44.89567" lon="5.43413">
        <ele>1005</ele>
        <time>2020-05-21T16:22:21.514Z</time>
      </trkpt>
      <trkpt lat="44.89564" lon="5.43413">
        <ele>1005</ele>
        <time>2020-05-21T16:22:22.514Z</time>
      </trkpt>
      <trkpt lat="44.89562" lon="5.43414">
        <ele>1006</ele>
        <time>2020-05-21T16:22:23.515Z</time>
      </trkpt>
      <trkpt lat="44.89562" lon="5.43414">
        <ele>1006</ele>
        <time>2020-05-21T16:22:24.514Z</time>
      </trkpt>
      <trkpt lat="44.89558" lon="5.43416">
        <ele>1008</ele>
        <time>2020-05-21T16:22:25.515Z</time>
      </trkpt>
      <trkpt lat="44.89558" lon="5.43416">
        <ele>1008</ele>
        <time>2020-05-21T16:22:26.514Z</time>
      </trkpt>
      <trkpt lat="44.89554" lon="5.43417">
        <ele>1009</ele>
        <time>2020-05-21T16:22:27.514Z</time>
      </trkpt>
      <trkpt lat="44.89553" lon="5.43418">
        <ele>1010</ele>
        <time>2020-05-21T16:22:28.514Z</time>
      </trkpt>
      <trkpt lat="44.89552" lon="5.43419">
        <ele>1010</ele>
        <time>2020-05-21T16:22:29.514Z</time>
      </trkpt>
      <trkpt lat="44.89551" lon="5.43421">
        <ele>1011</ele>
        <time>2020-05-21T16:22:30.514Z</time>
      </trkpt>
      <trkpt lat="44.89551" lon="5.43421">
        <ele>1011</ele>
        <time>2020-05-21T16:22:31.514Z</time>
      </trkpt>
      <trkpt lat="44.89549" lon="5.43423">
        <ele>1011</ele>
        <time>2020-05-21T16:22:32.514Z</time>
      </trkpt>
      <trkpt lat="44.89547" lon="5.43423">
        <ele>1012</ele>
        <time>2020-05-21T16:22:33.515Z</time>
      </trkpt>
      <trkpt lat="44.89546" lon="5.43424">
        <ele>1013</ele>
        <time>2020-05-21T16:22:34.515Z</time>
      </trkpt>
      <trkpt lat="44.89546" lon="5.43424">
        <ele>1013</ele>
        <time>2020-05-21T16:22:35.514Z</time>
      </trkpt>
      <trkpt lat="44.89545" lon="5.43425">
        <ele>1013</ele>
        <time>2020-05-21T16:22:36.514Z</time>
      </trkpt>
      <trkpt lat="44.89542" lon="5.43427">
        <ele>1015</ele>
        <time>2020-05-21T16:22:37.514Z</time>
      </trkpt>
      <trkpt lat="44.89542" lon="5.43428">
        <ele>1016</ele>
        <time>2020-05-21T16:22:38.514Z</time>
      </trkpt>
      <trkpt lat="44.89541" lon="5.43431">
        <ele>1016</ele>
        <time>2020-05-21T16:22:39.514Z</time>
      </trkpt>
      <trkpt lat="44.8954" lon="5.43433">
        <ele>1017</ele>
        <time>2020-05-21T16:22:40.515Z</time>
      </trkpt>
      <trkpt lat="44.89539" lon="5.43434">
        <ele>1017</ele>
        <time>2020-05-21T16:22:41.514Z</time>
      </trkpt>
      <trkpt lat="44.89538" lon="5.43436">
        <ele>1018</ele>
        <time>2020-05-21T16:22:42.514Z</time>
      </trkpt>
      <trkpt lat="44.89536" lon="5.43437">
        <ele>1019</ele>
        <time>2020-05-21T16:22:43.515Z</time>
      </trkpt>
      <trkpt lat="44.89536" lon="5.43437">
        <ele>1019</ele>
        <time>2020-05-21T16:22:44.514Z</time>
      </trkpt>
      <trkpt lat="44.89535" lon="5.43439">
        <ele>1021</ele>
        <time>2020-05-21T16:22:45.514Z</time>
      </trkpt>
      <trkpt lat="44.89534" lon="5.43439">
        <ele>1021</ele>
        <time>2020-05-21T16:22:46.514Z</time>
      </trkpt>
      <trkpt lat="44.89532" lon="5.4344">
        <ele>1022</ele>
        <time>2020-05-21T16:22:47.514Z</time>
      </trkpt>
      <trkpt lat="44.8953" lon="5.43441">
        <ele>1023</ele>
        <time>2020-05-21T16:22:48.514Z</time>
      </trkpt>
      <trkpt lat="44.8953" lon="5.43441">
        <ele>1023</ele>
        <time>2020-05-21T16:22:49.514Z</time>
      </trkpt>
      <trkpt lat="44.89527" lon="5.43443">
        <ele>1024</ele>
        <time>2020-05-21T16:22:50.514Z</time>
      </trkpt>
      <trkpt lat="44.89527" lon="5.43443">
        <ele>1025</ele>
        <time>2020-05-21T16:22:51.514Z</time>
      </trkpt>
      <trkpt lat="44.89524" lon="5.43446">
        <ele>1025</ele>
        <time>2020-05-21T16:22:52.514Z</time>
      </trkpt>
      <trkpt lat="44.89523" lon="5.43446">
        <ele>1026</ele>
        <time>2020-05-21T16:22:53.514Z</time>
      </trkpt>
      <trkpt lat="44.89521" lon="5.43447">
        <ele>1027</ele>
        <time>2020-05-21T16:22:54.514Z</time>
      </trkpt>
      <trkpt lat="44.89519" lon="5.43447">
        <ele>1027</ele>
        <time>2020-05-21T16:22:55.514Z</time>
      </trkpt>
      <trkpt lat="44.89519" lon="5.43447">
        <ele>1027</ele>
        <time>2020-05-21T16:22:56.514Z</time>
      </trkpt>
      <trkpt lat="44.89517" lon="5.43447">
        <ele>1027</ele>
        <time>2020-05-21T16:22:57.514Z</time>
      </trkpt>
      <trkpt lat="44.89516" lon="5.43447">
        <ele>1027</ele>
        <time>2020-05-21T16:22:58.514Z</time>
      </trkpt>
      <trkpt lat="44.89514" lon="5.43447">
        <ele>1027</ele>
        <time>2020-05-21T16:22:59.514Z</time>
      </trkpt>
      <trkpt lat="44.89512" lon="5.43448">
        <ele>1027</ele>
        <time>2020-05-21T16:23:00.514Z</time>
      </trkpt>
      <trkpt lat="44.89511" lon="5.43449">
        <ele>1027</ele>
        <time>2020-05-21T16:23:01.515Z</time>
      </trkpt>
      <trkpt lat="44.89511" lon="5.43449">
        <ele>1027</ele>
        <time>2020-05-21T16:23:02.514Z</time>
      </trkpt>
      <trkpt lat="44.89508" lon="5.43449">
        <ele>1028</ele>
        <time>2020-05-21T16:23:03.514Z</time>
      </trkpt>
      <trkpt lat="44.89506" lon="5.43449">
        <ele>1028</ele>
        <time>2020-05-21T16:23:04.514Z</time>
      </trkpt>
      <trkpt lat="44.89506" lon="5.43449">
        <ele>1028</ele>
        <time>2020-05-21T16:23:05.514Z</time>
      </trkpt>
      <trkpt lat="44.89504" lon="5.4345">
        <ele>1029</ele>
        <time>2020-05-21T16:23:06.514Z</time>
      </trkpt>
      <trkpt lat="44.89503" lon="5.4345">
        <ele>1030</ele>
        <time>2020-05-21T16:23:07.514Z</time>
      </trkpt>
      <trkpt lat="44.89503" lon="5.43449">
        <ele>1030</ele>
        <time>2020-05-21T16:23:08.514Z</time>
      </trkpt>
      <trkpt lat="44.89502" lon="5.43449">
        <ele>1030</ele>
        <time>2020-05-21T16:23:09.514Z</time>
      </trkpt>
      <trkpt lat="44.89501" lon="5.43449">
        <ele>1030</ele>
        <time>2020-05-21T16:23:10.514Z</time>
      </trkpt>
      <trkpt lat="44.895" lon="5.43449">
        <ele>1029</ele>
        <time>2020-05-21T16:23:11.514Z</time>
      </trkpt>
      <trkpt lat="44.89499" lon="5.43448">
        <ele>1029</ele>
        <time>2020-05-21T16:23:12.514Z</time>
      </trkpt>
      <trkpt lat="44.89499" lon="5.43447">
        <ele>1029</ele>
        <time>2020-05-21T16:23:13.514Z</time>
      </trkpt>
      <trkpt lat="44.89498" lon="5.43446">
        <ele>1029</ele>
        <time>2020-05-21T16:23:14.514Z</time>
      </trkpt>
      <trkpt lat="44.89497" lon="5.43446">
        <ele>1029</ele>
        <time>2020-05-21T16:23:15.514Z</time>
      </trkpt>
      <trkpt lat="44.89497" lon="5.43446">
        <ele>1029</ele>
        <time>2020-05-21T16:23:16.514Z</time>
      </trkpt>
      <trkpt lat="44.89494" lon="5.43444">
        <ele>1029</ele>
        <time>2020-05-21T16:23:17.514Z</time>
      </trkpt>
      <trkpt lat="44.89493" lon="5.43444">
        <ele>1030</ele>
        <time>2020-05-21T16:23:18.514Z</time>
      </trkpt>
      <trkpt lat="44.89492" lon="5.43444">
        <ele>1030</ele>
        <time>2020-05-21T16:23:19.515Z</time>
      </trkpt>
      <trkpt lat="44.89492" lon="5.43444">
        <ele>1030</ele>
        <time>2020-05-21T16:23:20.514Z</time>
      </trkpt>
      <trkpt lat="44.89491" lon="5.43444">
        <ele>1030</ele>
        <time>2020-05-21T16:23:21.514Z</time>
      </trkpt>
      <trkpt lat="44.89487" lon="5.43443">
        <ele>1030</ele>
        <time>2020-05-21T16:23:22.515Z</time>
      </trkpt>
      <trkpt lat="44.89486" lon="5.43442">
        <ele>1030</ele>
        <time>2020-05-21T16:23:23.514Z</time>
      </trkpt>
      <trkpt lat="44.89484" lon="5.43442">
        <ele>1031</ele>
        <time>2020-05-21T16:23:24.515Z</time>
      </trkpt>
      <trkpt lat="44.89484" lon="5.43442">
        <ele>1031</ele>
        <time>2020-05-21T16:23:25.514Z</time>
      </trkpt>
      <trkpt lat="44.89482" lon="5.43441">
        <ele>1031</ele>
        <time>2020-05-21T16:23:26.514Z</time>
      </trkpt>
      <trkpt lat="44.89481" lon="5.4344">
        <ele>1031</ele>
        <time>2020-05-21T16:23:27.515Z</time>
      </trkpt>
      <trkpt lat="44.89479" lon="5.4344">
        <ele>1031</ele>
        <time>2020-05-21T16:23:28.514Z</time>
      </trkpt>
      <trkpt lat="44.89477" lon="5.43439">
        <ele>1031</ele>
        <time>2020-05-21T16:23:29.514Z</time>
      </trkpt>
      <trkpt lat="44.89476" lon="5.43439">
        <ele>1032</ele>
        <time>2020-05-21T16:23:30.514Z</time>
      </trkpt>
      <trkpt lat="44.89474" lon="5.43439">
        <ele>1032</ele>
        <time>2020-05-21T16:23:31.514Z</time>
      </trkpt>
      <trkpt lat="44.89473" lon="5.43439">
        <ele>1031</ele>
        <time>2020-05-21T16:23:32.514Z</time>
      </trkpt>
      <trkpt lat="44.89471" lon="5.43438">
        <ele>1032</ele>
        <time>2020-05-21T16:23:33.514Z</time>
      </trkpt>
      <trkpt lat="44.89469" lon="5.43438">
        <ele>1032</ele>
        <time>2020-05-21T16:23:34.515Z</time>
      </trkpt>
      <trkpt lat="44.89469" lon="5.43438">
        <ele>1032</ele>
        <time>2020-05-21T16:23:35.515Z</time>
      </trkpt>
      <trkpt lat="44.89467" lon="5.43439">
        <ele>1032</ele>
        <time>2020-05-21T16:23:36.514Z</time>
      </trkpt>
      <trkpt lat="44.89466" lon="5.4344">
        <ele>1031</ele>
        <time>2020-05-21T16:23:37.514Z</time>
      </trkpt>
      <trkpt lat="44.89463" lon="5.4344">
        <ele>1031</ele>
        <time>2020-05-21T16:23:38.514Z</time>
      </trkpt>
      <trkpt lat="44.89461" lon="5.43441">
        <ele>1031</ele>
        <time>2020-05-21T16:23:39.514Z</time>
      </trkpt>
      <trkpt lat="44.8946" lon="5.43443">
        <ele>1031</ele>
        <time>2020-05-21T16:23:40.514Z</time>
      </trkpt>
      <trkpt lat="44.8946" lon="5.43443">
        <ele>1031</ele>
        <time>2020-05-21T16:23:41.514Z</time>
      </trkpt>
      <trkpt lat="44.89456" lon="5.43446">
        <ele>1031</ele>
        <time>2020-05-21T16:23:42.515Z</time>
      </trkpt>
      <trkpt lat="44.89455" lon="5.43448">
        <ele>1031</ele>
        <time>2020-05-21T16:23:43.514Z</time>
      </trkpt>
      <trkpt lat="44.89453" lon="5.4345">
        <ele>1032</ele>
        <time>2020-05-21T16:23:44.514Z</time>
      </trkpt>
      <trkpt lat="44.89452" lon="5.43451">
        <ele>1033</ele>
        <time>2020-05-21T16:23:45.514Z</time>
      </trkpt>
      <trkpt lat="44.89452" lon="5.43451">
        <ele>1033</ele>
        <time>2020-05-21T16:23:46.514Z</time>
      </trkpt>
      <trkpt lat="44.8945" lon="5.43453">
        <ele>1035</ele>
        <time>2020-05-21T16:23:47.514Z</time>
      </trkpt>
      <trkpt lat="44.89449" lon="5.43455">
        <ele>1035</ele>
        <time>2020-05-21T16:23:48.514Z</time>
      </trkpt>
      <trkpt lat="44.89447" lon="5.43455">
        <ele>1036</ele>
        <time>2020-05-21T16:23:49.514Z</time>
      </trkpt>
      <trkpt lat="44.89447" lon="5.43455">
        <ele>1036</ele>
        <time>2020-05-21T16:23:50.514Z</time>
      </trkpt>
      <trkpt lat="44.89444" lon="5.43456">
        <ele>1036</ele>
        <time>2020-05-21T16:23:51.514Z</time>
      </trkpt>
      <trkpt lat="44.89442" lon="5.43457">
        <ele>1036</ele>
        <time>2020-05-21T16:23:52.514Z</time>
      </trkpt>
      <trkpt lat="44.8944" lon="5.43457">
        <ele>1036</ele>
        <time>2020-05-21T16:23:53.514Z</time>
      </trkpt>
      <trkpt lat="44.89439" lon="5.43457">
        <ele>1036</ele>
        <time>2020-05-21T16:23:54.514Z</time>
      </trkpt>
      <trkpt lat="44.89438" lon="5.43458">
        <ele>1037</ele>
        <time>2020-05-21T16:23:55.515Z</time>
      </trkpt>
      <trkpt lat="44.89437" lon="5.43459">
        <ele>1037</ele>
        <time>2020-05-21T16:23:56.514Z</time>
      </trkpt>
      <trkpt lat="44.89437" lon="5.43459">
        <ele>1037</ele>
        <time>2020-05-21T16:23:57.514Z</time>
      </trkpt>
      <trkpt lat="44.89436" lon="5.43459">
        <ele>1038</ele>
        <time>2020-05-21T16:23:58.514Z</time>
      </trkpt>
      <trkpt lat="44.89435" lon="5.4346">
        <ele>1038</ele>
        <time>2020-05-21T16:23:59.514Z</time>
      </trkpt>
      <trkpt lat="44.89434" lon="5.43461">
        <ele>1039</ele>
        <time>2020-05-21T16:24:00.514Z</time>
      </trkpt>
      <trkpt lat="44.89432" lon="5.43462">
        <ele>1039</ele>
        <time>2020-05-21T16:24:01.514Z</time>
      </trkpt>
      <trkpt lat="44.89431" lon="5.43462">
        <ele>1040</ele>
        <time>2020-05-21T16:24:02.514Z</time>
      </trkpt>
      <trkpt lat="44.8943" lon="5.43463">
        <ele>1040</ele>
        <time>2020-05-21T16:24:03.515Z</time>
      </trkpt>
      <trkpt lat="44.8943" lon="5.43463">
        <ele>1041</ele>
        <time>2020-05-21T16:24:04.514Z</time>
      </trkpt>
      <trkpt lat="44.89428" lon="5.43463">
        <ele>1041</ele>
        <time>2020-05-21T16:24:05.514Z</time>
      </trkpt>
      <trkpt lat="44.89428" lon="5.43463">
        <ele>1041</ele>
        <time>2020-05-21T16:24:06.514Z</time>
      </trkpt>
      <trkpt lat="44.89426" lon="5.43464">
        <ele>1043</ele>
        <time>2020-05-21T16:24:07.514Z</time>
      </trkpt>
      <trkpt lat="44.89424" lon="5.43464">
        <ele>1044</ele>
        <time>2020-05-21T16:24:08.514Z</time>
      </trkpt>
      <trkpt lat="44.89423" lon="5.43464">
        <ele>1044</ele>
        <time>2020-05-21T16:24:09.514Z</time>
      </trkpt>
      <trkpt lat="44.89421" lon="5.43465">
        <ele>1045</ele>
        <time>2020-05-21T16:24:10.514Z</time>
      </trkpt>
      <trkpt lat="44.89421" lon="5.43465">
        <ele>1045</ele>
        <time>2020-05-21T16:24:11.514Z</time>
      </trkpt>
      <trkpt lat="44.89417" lon="5.43466">
        <ele>1045</ele>
        <time>2020-05-21T16:24:12.514Z</time>
      </trkpt>
      <trkpt lat="44.89416" lon="5.43465">
        <ele>1046</ele>
        <time>2020-05-21T16:24:13.514Z</time>
      </trkpt>
      <trkpt lat="44.89416" lon="5.43464">
        <ele>1047</ele>
        <time>2020-05-21T16:24:14.514Z</time>
      </trkpt>
      <trkpt lat="44.89415" lon="5.43463">
        <ele>1047</ele>
        <time>2020-05-21T16:24:15.514Z</time>
      </trkpt>
      <trkpt lat="44.89409" lon="5.43461">
        <ele>1055</ele>
        <time>2020-05-21T16:24:16.517Z</time>
      </trkpt>
      <trkpt lat="44.89408" lon="5.43461">
        <ele>1055</ele>
        <time>2020-05-21T16:24:17.516Z</time>
      </trkpt>
      <trkpt lat="44.89408" lon="5.43461">
        <ele>1055</ele>
        <time>2020-05-21T16:24:18.516Z</time>
      </trkpt>
      <trkpt lat="44.89408" lon="5.43461">
        <ele>1055</ele>
        <time>2020-05-21T16:24:19.516Z</time>
      </trkpt>
      <trkpt lat="44.89408" lon="5.43461">
        <ele>1055</ele>
        <time>2020-05-21T16:24:20.516Z</time>
      </trkpt>
      <trkpt lat="44.89408" lon="5.43461">
        <ele>1055</ele>
        <time>2020-05-21T16:24:21.517Z</time>
      </trkpt>
      <trkpt lat="44.89408" lon="5.43461">
        <ele>1055</ele>
        <time>2020-05-21T16:24:22.517Z</time>
      </trkpt>
      <trkpt lat="44.89407" lon="5.43461">
        <ele>1055</ele>
        <time>2020-05-21T16:24:23.517Z</time>
      </trkpt>
      <trkpt lat="44.89407" lon="5.43461">
        <ele>1055</ele>
        <time>2020-05-21T16:24:24.517Z</time>
      </trkpt>
      <trkpt lat="44.89407" lon="5.43461">
        <ele>1055</ele>
        <time>2020-05-21T16:24:25.516Z</time>
      </trkpt>
      <trkpt lat="44.89407" lon="5.43461">
        <ele>1056</ele>
        <time>2020-05-21T16:24:26.516Z</time>
      </trkpt>
      <trkpt lat="44.89406" lon="5.43461">
        <ele>1056</ele>
        <time>2020-05-21T16:24:27.516Z</time>
      </trkpt>
      <trkpt lat="44.89406" lon="5.43461">
        <ele>1056</ele>
        <time>2020-05-21T16:24:28.516Z</time>
      </trkpt>
      <trkpt lat="44.89405" lon="5.43461">
        <ele>1056</ele>
        <time>2020-05-21T16:24:29.516Z</time>
      </trkpt>
      <trkpt lat="44.89404" lon="5.43461">
        <ele>1056</ele>
        <time>2020-05-21T16:24:30.516Z</time>
      </trkpt>
      <trkpt lat="44.89404" lon="5.43461">
        <ele>1056</ele>
        <time>2020-05-21T16:24:31.516Z</time>
      </trkpt>
      <trkpt lat="44.89404" lon="5.43461">
        <ele>1056</ele>
        <time>2020-05-21T16:24:32.517Z</time>
      </trkpt>
      <trkpt lat="44.89404" lon="5.43461">
        <ele>1056</ele>
        <time>2020-05-21T16:24:33.516Z</time>
      </trkpt>
      <trkpt lat="44.89404" lon="5.43461">
        <ele>1056</ele>
        <time>2020-05-21T16:24:34.516Z</time>
      </trkpt>
      <trkpt lat="44.89404" lon="5.43461">
        <ele>1056</ele>
        <time>2020-05-21T16:24:35.516Z</time>
      </trkpt>
      <trkpt lat="44.89404" lon="5.43461">
        <ele>1056</ele>
        <time>2020-05-21T16:24:36.516Z</time>
      </trkpt>
      <trkpt lat="44.89404" lon="5.43461">
        <ele>1056</ele>
        <time>2020-05-21T16:24:37.517Z</time>
      </trkpt>
      <trkpt lat="44.89404" lon="5.43461">
        <ele>1056</ele>
        <time>2020-05-21T16:24:38.517Z</time>
      </trkpt>
      <trkpt lat="44.89404" lon="5.43461">
        <ele>1056</ele>
        <time>2020-05-21T16:24:39.516Z</time>
      </trkpt>
      <trkpt lat="44.89404" lon="5.43461">
        <ele>1056</ele>
        <time>2020-05-21T16:24:40.516Z</time>
      </trkpt>
      <trkpt lat="44.89404" lon="5.43461">
        <ele>1056</ele>
        <time>2020-05-21T16:24:41.516Z</time>
      </trkpt>
      <trkpt lat="44.89403" lon="5.43462">
        <ele>1056</ele>
        <time>2020-05-21T16:24:42.516Z</time>
      </trkpt>
      <trkpt lat="44.89401" lon="5.43461">
        <ele>1056</ele>
        <time>2020-05-21T16:24:43.516Z</time>
      </trkpt>
      <trkpt lat="44.89399" lon="5.43461">
        <ele>1056</ele>
        <time>2020-05-21T16:24:44.516Z</time>
      </trkpt>
      <trkpt lat="44.89397" lon="5.43461">
        <ele>1056</ele>
        <time>2020-05-21T16:24:45.516Z</time>
      </trkpt>
      <trkpt lat="44.89395" lon="5.43461">
        <ele>1056</ele>
        <time>2020-05-21T16:24:46.516Z</time>
      </trkpt>
      <trkpt lat="44.89393" lon="5.4346">
        <ele>1056</ele>
        <time>2020-05-21T16:24:47.516Z</time>
      </trkpt>
      <trkpt lat="44.89391" lon="5.4346">
        <ele>1056</ele>
        <time>2020-05-21T16:24:48.516Z</time>
      </trkpt>
      <trkpt lat="44.8939" lon="5.43461">
        <ele>1056</ele>
        <time>2020-05-21T16:24:49.516Z</time>
      </trkpt>
      <trkpt lat="44.89388" lon="5.43461">
        <ele>1055</ele>
        <time>2020-05-21T16:24:50.516Z</time>
      </trkpt>
      <trkpt lat="44.89386" lon="5.43461">
        <ele>1055</ele>
        <time>2020-05-21T16:24:51.516Z</time>
      </trkpt>
      <trkpt lat="44.89386" lon="5.43462">
        <ele>1055</ele>
        <time>2020-05-21T16:24:52.517Z</time>
      </trkpt>
      <trkpt lat="44.89384" lon="5.43462">
        <ele>1054</ele>
        <time>2020-05-21T16:24:53.516Z</time>
      </trkpt>
      <trkpt lat="44.89383" lon="5.43462">
        <ele>1054</ele>
        <time>2020-05-21T16:24:54.517Z</time>
      </trkpt>
      <trkpt lat="44.89382" lon="5.43462">
        <ele>1054</ele>
        <time>2020-05-21T16:24:55.516Z</time>
      </trkpt>
      <trkpt lat="44.89381" lon="5.43462">
        <ele>1054</ele>
        <time>2020-05-21T16:24:56.516Z</time>
      </trkpt>
      <trkpt lat="44.8938" lon="5.43462">
        <ele>1054</ele>
        <time>2020-05-21T16:24:57.516Z</time>
      </trkpt>
      <trkpt lat="44.89379" lon="5.43462">
        <ele>1055</ele>
        <time>2020-05-21T16:24:58.516Z</time>
      </trkpt>
      <trkpt lat="44.89378" lon="5.43461">
        <ele>1055</ele>
        <time>2020-05-21T16:24:59.516Z</time>
      </trkpt>
      <trkpt lat="44.89376" lon="5.43461">
        <ele>1055</ele>
        <time>2020-05-21T16:25:00.516Z</time>
      </trkpt>
      <trkpt lat="44.89375" lon="5.43461">
        <ele>1055</ele>
        <time>2020-05-21T16:25:01.516Z</time>
      </trkpt>
      <trkpt lat="44.89374" lon="5.4346">
        <ele>1056</ele>
        <time>2020-05-21T16:25:02.516Z</time>
      </trkpt>
      <trkpt lat="44.89372" lon="5.4346">
        <ele>1056</ele>
        <time>2020-05-21T16:25:03.516Z</time>
      </trkpt>
      <trkpt lat="44.89371" lon="5.4346">
        <ele>1056</ele>
        <time>2020-05-21T16:25:04.517Z</time>
      </trkpt>
      <trkpt lat="44.8937" lon="5.4346">
        <ele>1056</ele>
        <time>2020-05-21T16:25:05.516Z</time>
      </trkpt>
      <trkpt lat="44.89369" lon="5.43459">
        <ele>1056</ele>
        <time>2020-05-21T16:25:06.517Z</time>
      </trkpt>
      <trkpt lat="44.89368" lon="5.43459">
        <ele>1057</ele>
        <time>2020-05-21T16:25:07.516Z</time>
      </trkpt>
      <trkpt lat="44.89367" lon="5.4346">
        <ele>1057</ele>
        <time>2020-05-21T16:25:08.516Z</time>
      </trkpt>
      <trkpt lat="44.89365" lon="5.43461">
        <ele>1057</ele>
        <time>2020-05-21T16:25:09.516Z</time>
      </trkpt>
      <trkpt lat="44.89363" lon="5.43461">
        <ele>1058</ele>
        <time>2020-05-21T16:25:10.517Z</time>
      </trkpt>
      <trkpt lat="44.89362" lon="5.43461">
        <ele>1058</ele>
        <time>2020-05-21T16:25:11.517Z</time>
      </trkpt>
      <trkpt lat="44.8936" lon="5.43461">
        <ele>1059</ele>
        <time>2020-05-21T16:25:12.516Z</time>
      </trkpt>
      <trkpt lat="44.89359" lon="5.43462">
        <ele>1059</ele>
        <time>2020-05-21T16:25:13.516Z</time>
      </trkpt>
      <trkpt lat="44.89359" lon="5.43462">
        <ele>1059</ele>
        <time>2020-05-21T16:25:14.517Z</time>
      </trkpt>
      <trkpt lat="44.89358" lon="5.43462">
        <ele>1060</ele>
        <time>2020-05-21T16:25:15.516Z</time>
      </trkpt>
      <trkpt lat="44.89357" lon="5.43462">
        <ele>1060</ele>
        <time>2020-05-21T16:25:16.516Z</time>
      </trkpt>
      <trkpt lat="44.89356" lon="5.43462">
        <ele>1060</ele>
        <time>2020-05-21T16:25:17.517Z</time>
      </trkpt>
      <trkpt lat="44.89354" lon="5.43462">
        <ele>1060</ele>
        <time>2020-05-21T16:25:18.516Z</time>
      </trkpt>
      <trkpt lat="44.89353" lon="5.43462">
        <ele>1060</ele>
        <time>2020-05-21T16:25:19.516Z</time>
      </trkpt>
      <trkpt lat="44.89352" lon="5.43462">
        <ele>1061</ele>
        <time>2020-05-21T16:25:20.517Z</time>
      </trkpt>
      <trkpt lat="44.8935" lon="5.43463">
        <ele>1061</ele>
        <time>2020-05-21T16:25:21.517Z</time>
      </trkpt>
      <trkpt lat="44.89349" lon="5.43464">
        <ele>1062</ele>
        <time>2020-05-21T16:25:22.516Z</time>
      </trkpt>
      <trkpt lat="44.89348" lon="5.43464">
        <ele>1062</ele>
        <time>2020-05-21T16:25:23.516Z</time>
      </trkpt>
      <trkpt lat="44.89347" lon="5.43464">
        <ele>1062</ele>
        <time>2020-05-21T16:25:24.516Z</time>
      </trkpt>
      <trkpt lat="44.89346" lon="5.43465">
        <ele>1062</ele>
        <time>2020-05-21T16:25:25.516Z</time>
      </trkpt>
      <trkpt lat="44.89345" lon="5.43465">
        <ele>1063</ele>
        <time>2020-05-21T16:25:26.516Z</time>
      </trkpt>
      <trkpt lat="44.89343" lon="5.43466">
        <ele>1063</ele>
        <time>2020-05-21T16:25:27.517Z</time>
      </trkpt>
      <trkpt lat="44.89342" lon="5.43466">
        <ele>1063</ele>
        <time>2020-05-21T16:25:28.517Z</time>
      </trkpt>
      <trkpt lat="44.89339" lon="5.43467">
        <ele>1064</ele>
        <time>2020-05-21T16:25:29.516Z</time>
      </trkpt>
      <trkpt lat="44.89338" lon="5.43467">
        <ele>1064</ele>
        <time>2020-05-21T16:25:30.516Z</time>
      </trkpt>
      <trkpt lat="44.89336" lon="5.43468">
        <ele>1064</ele>
        <time>2020-05-21T16:25:31.517Z</time>
      </trkpt>
      <trkpt lat="44.89335" lon="5.43468">
        <ele>1065</ele>
        <time>2020-05-21T16:25:32.516Z</time>
      </trkpt>
      <trkpt lat="44.89334" lon="5.43469">
        <ele>1065</ele>
        <time>2020-05-21T16:25:33.516Z</time>
      </trkpt>
      <trkpt lat="44.89333" lon="5.4347">
        <ele>1065</ele>
        <time>2020-05-21T16:25:34.516Z</time>
      </trkpt>
      <trkpt lat="44.89332" lon="5.4347">
        <ele>1065</ele>
        <time>2020-05-21T16:25:35.516Z</time>
      </trkpt>
      <trkpt lat="44.89331" lon="5.43471">
        <ele>1066</ele>
        <time>2020-05-21T16:25:36.516Z</time>
      </trkpt>
      <trkpt lat="44.8933" lon="5.43471">
        <ele>1066</ele>
        <time>2020-05-21T16:25:37.516Z</time>
      </trkpt>
      <trkpt lat="44.89329" lon="5.43471">
        <ele>1066</ele>
        <time>2020-05-21T16:25:38.517Z</time>
      </trkpt>
      <trkpt lat="44.89328" lon="5.4347">
        <ele>1067</ele>
        <time>2020-05-21T16:25:39.516Z</time>
      </trkpt>
      <trkpt lat="44.89327" lon="5.4347">
        <ele>1067</ele>
        <time>2020-05-21T16:25:40.516Z</time>
      </trkpt>
      <trkpt lat="44.89326" lon="5.4347">
        <ele>1067</ele>
        <time>2020-05-21T16:25:41.516Z</time>
      </trkpt>
      <trkpt lat="44.89325" lon="5.4347">
        <ele>1067</ele>
        <time>2020-05-21T16:25:42.517Z</time>
      </trkpt>
      <trkpt lat="44.89323" lon="5.43471">
        <ele>1067</ele>
        <time>2020-05-21T16:25:43.516Z</time>
      </trkpt>
      <trkpt lat="44.89322" lon="5.43471">
        <ele>1068</ele>
        <time>2020-05-21T16:25:44.517Z</time>
      </trkpt>
      <trkpt lat="44.8932" lon="5.43472">
        <ele>1068</ele>
        <time>2020-05-21T16:25:45.516Z</time>
      </trkpt>
      <trkpt lat="44.89318" lon="5.43472">
        <ele>1068</ele>
        <time>2020-05-21T16:25:46.516Z</time>
      </trkpt>
      <trkpt lat="44.89316" lon="5.43472">
        <ele>1069</ele>
        <time>2020-05-21T16:25:47.516Z</time>
      </trkpt>
      <trkpt lat="44.89315" lon="5.43472">
        <ele>1069</ele>
        <time>2020-05-21T16:25:48.516Z</time>
      </trkpt>
      <trkpt lat="44.89314" lon="5.43472">
        <ele>1070</ele>
        <time>2020-05-21T16:25:49.516Z</time>
      </trkpt>
      <trkpt lat="44.89312" lon="5.43472">
        <ele>1071</ele>
        <time>2020-05-21T16:25:50.516Z</time>
      </trkpt>
      <trkpt lat="44.89311" lon="5.43472">
        <ele>1072</ele>
        <time>2020-05-21T16:25:51.516Z</time>
      </trkpt>
      <trkpt lat="44.8931" lon="5.43473">
        <ele>1072</ele>
        <time>2020-05-21T16:25:52.516Z</time>
      </trkpt>
      <trkpt lat="44.89309" lon="5.43473">
        <ele>1073</ele>
        <time>2020-05-21T16:25:53.516Z</time>
      </trkpt>
      <trkpt lat="44.89308" lon="5.43473">
        <ele>1073</ele>
        <time>2020-05-21T16:25:54.516Z</time>
      </trkpt>
      <trkpt lat="44.89306" lon="5.43473">
        <ele>1074</ele>
        <time>2020-05-21T16:25:55.516Z</time>
      </trkpt>
      <trkpt lat="44.89305" lon="5.43473">
        <ele>1075</ele>
        <time>2020-05-21T16:25:56.517Z</time>
      </trkpt>
      <trkpt lat="44.89304" lon="5.43472">
        <ele>1075</ele>
        <time>2020-05-21T16:25:57.516Z</time>
      </trkpt>
      <trkpt lat="44.89302" lon="5.43473">
        <ele>1076</ele>
        <time>2020-05-21T16:25:58.516Z</time>
      </trkpt>
      <trkpt lat="44.893" lon="5.43473">
        <ele>1076</ele>
        <time>2020-05-21T16:25:59.516Z</time>
      </trkpt>
      <trkpt lat="44.89299" lon="5.43473">
        <ele>1076</ele>
        <time>2020-05-21T16:26:00.517Z</time>
      </trkpt>
      <trkpt lat="44.89298" lon="5.43472">
        <ele>1076</ele>
        <time>2020-05-21T16:26:01.516Z</time>
      </trkpt>
      <trkpt lat="44.89297" lon="5.43471">
        <ele>1076</ele>
        <time>2020-05-21T16:26:02.516Z</time>
      </trkpt>
      <trkpt lat="44.89296" lon="5.43469">
        <ele>1076</ele>
        <time>2020-05-21T16:26:03.516Z</time>
      </trkpt>
      <trkpt lat="44.89295" lon="5.43469">
        <ele>1076</ele>
        <time>2020-05-21T16:26:04.516Z</time>
      </trkpt>
      <trkpt lat="44.89294" lon="5.43469">
        <ele>1077</ele>
        <time>2020-05-21T16:26:05.516Z</time>
      </trkpt>
      <trkpt lat="44.89293" lon="5.4347">
        <ele>1077</ele>
        <time>2020-05-21T16:26:06.517Z</time>
      </trkpt>
      <trkpt lat="44.89291" lon="5.4347">
        <ele>1077</ele>
        <time>2020-05-21T16:26:07.516Z</time>
      </trkpt>
      <trkpt lat="44.8929" lon="5.4347">
        <ele>1078</ele>
        <time>2020-05-21T16:26:08.517Z</time>
      </trkpt>
      <trkpt lat="44.89288" lon="5.43469">
        <ele>1078</ele>
        <time>2020-05-21T16:26:09.517Z</time>
      </trkpt>
      <trkpt lat="44.89287" lon="5.43469">
        <ele>1078</ele>
        <time>2020-05-21T16:26:10.517Z</time>
      </trkpt>
      <trkpt lat="44.89285" lon="5.43468">
        <ele>1078</ele>
        <time>2020-05-21T16:26:11.516Z</time>
      </trkpt>
      <trkpt lat="44.89284" lon="5.43468">
        <ele>1079</ele>
        <time>2020-05-21T16:26:12.516Z</time>
      </trkpt>
      <trkpt lat="44.89283" lon="5.43468">
        <ele>1079</ele>
        <time>2020-05-21T16:26:13.517Z</time>
      </trkpt>
      <trkpt lat="44.89282" lon="5.43467">
        <ele>1079</ele>
        <time>2020-05-21T16:26:14.516Z</time>
      </trkpt>
      <trkpt lat="44.8928" lon="5.43466">
        <ele>1080</ele>
        <time>2020-05-21T16:26:15.516Z</time>
      </trkpt>
      <trkpt lat="44.89279" lon="5.43466">
        <ele>1080</ele>
        <time>2020-05-21T16:26:16.517Z</time>
      </trkpt>
      <trkpt lat="44.89277" lon="5.43465">
        <ele>1080</ele>
        <time>2020-05-21T16:26:17.516Z</time>
      </trkpt>
      <trkpt lat="44.89276" lon="5.43464">
        <ele>1081</ele>
        <time>2020-05-21T16:26:18.516Z</time>
      </trkpt>
      <trkpt lat="44.89275" lon="5.43463">
        <ele>1082</ele>
        <time>2020-05-21T16:26:19.517Z</time>
      </trkpt>
      <trkpt lat="44.89273" lon="5.43463">
        <ele>1082</ele>
        <time>2020-05-21T16:26:20.516Z</time>
      </trkpt>
      <trkpt lat="44.89272" lon="5.43463">
        <ele>1083</ele>
        <time>2020-05-21T16:26:21.516Z</time>
      </trkpt>
      <trkpt lat="44.89271" lon="5.43462">
        <ele>1082</ele>
        <time>2020-05-21T16:26:22.516Z</time>
      </trkpt>
      <trkpt lat="44.89271" lon="5.43462">
        <ele>1082</ele>
        <time>2020-05-21T16:26:23.516Z</time>
      </trkpt>
      <trkpt lat="44.89269" lon="5.43462">
        <ele>1082</ele>
        <time>2020-05-21T16:26:24.516Z</time>
      </trkpt>
      <trkpt lat="44.89268" lon="5.43462">
        <ele>1082</ele>
        <time>2020-05-21T16:26:25.517Z</time>
      </trkpt>
      <trkpt lat="44.89267" lon="5.43461">
        <ele>1082</ele>
        <time>2020-05-21T16:26:26.516Z</time>
      </trkpt>
      <trkpt lat="44.89266" lon="5.43461">
        <ele>1082</ele>
        <time>2020-05-21T16:26:27.516Z</time>
      </trkpt>
      <trkpt lat="44.89264" lon="5.4346">
        <ele>1082</ele>
        <time>2020-05-21T16:26:28.516Z</time>
      </trkpt>
      <trkpt lat="44.89262" lon="5.43459">
        <ele>1083</ele>
        <time>2020-05-21T16:26:29.517Z</time>
      </trkpt>
      <trkpt lat="44.89261" lon="5.43459">
        <ele>1083</ele>
        <time>2020-05-21T16:26:30.516Z</time>
      </trkpt>
      <trkpt lat="44.8926" lon="5.43459">
        <ele>1083</ele>
        <time>2020-05-21T16:26:31.517Z</time>
      </trkpt>
      <trkpt lat="44.89259" lon="5.43459">
        <ele>1084</ele>
        <time>2020-05-21T16:26:32.516Z</time>
      </trkpt>
      <trkpt lat="44.89258" lon="5.43458">
        <ele>1084</ele>
        <time>2020-05-21T16:26:33.517Z</time>
      </trkpt>
      <trkpt lat="44.89257" lon="5.43457">
        <ele>1084</ele>
        <time>2020-05-21T16:26:34.516Z</time>
      </trkpt>
      <trkpt lat="44.89255" lon="5.43456">
        <ele>1084</ele>
        <time>2020-05-21T16:26:35.516Z</time>
      </trkpt>
      <trkpt lat="44.89255" lon="5.43456">
        <ele>1084</ele>
        <time>2020-05-21T16:26:36.516Z</time>
      </trkpt>
      <trkpt lat="44.89254" lon="5.43456">
        <ele>1084</ele>
        <time>2020-05-21T16:26:37.517Z</time>
      </trkpt>
      <trkpt lat="44.89253" lon="5.43456">
        <ele>1084</ele>
        <time>2020-05-21T16:26:38.517Z</time>
      </trkpt>
      <trkpt lat="44.89252" lon="5.43456">
        <ele>1083</ele>
        <time>2020-05-21T16:26:39.516Z</time>
      </trkpt>
      <trkpt lat="44.89251" lon="5.43456">
        <ele>1083</ele>
        <time>2020-05-21T16:26:40.517Z</time>
      </trkpt>
      <trkpt lat="44.8925" lon="5.43456">
        <ele>1083</ele>
        <time>2020-05-21T16:26:41.516Z</time>
      </trkpt>
      <trkpt lat="44.89249" lon="5.43456">
        <ele>1083</ele>
        <time>2020-05-21T16:26:42.517Z</time>
      </trkpt>
      <trkpt lat="44.89249" lon="5.43456">
        <ele>1084</ele>
        <time>2020-05-21T16:26:43.517Z</time>
      </trkpt>
      <trkpt lat="44.89248" lon="5.43455">
        <ele>1084</ele>
        <time>2020-05-21T16:26:44.516Z</time>
      </trkpt>
      <trkpt lat="44.89247" lon="5.43456">
        <ele>1084</ele>
        <time>2020-05-21T16:26:45.516Z</time>
      </trkpt>
      <trkpt lat="44.89246" lon="5.43456">
        <ele>1084</ele>
        <time>2020-05-21T16:26:46.516Z</time>
      </trkpt>
      <trkpt lat="44.89245" lon="5.43457">
        <ele>1083</ele>
        <time>2020-05-21T16:26:47.516Z</time>
      </trkpt>
      <trkpt lat="44.89243" lon="5.43458">
        <ele>1083</ele>
        <time>2020-05-21T16:26:48.516Z</time>
      </trkpt>
      <trkpt lat="44.89241" lon="5.43458">
        <ele>1083</ele>
        <time>2020-05-21T16:26:49.516Z</time>
      </trkpt>
      <trkpt lat="44.89239" lon="5.43459">
        <ele>1083</ele>
        <time>2020-05-21T16:26:50.517Z</time>
      </trkpt>
      <trkpt lat="44.89238" lon="5.43459">
        <ele>1083</ele>
        <time>2020-05-21T16:26:51.516Z</time>
      </trkpt>
      <trkpt lat="44.89237" lon="5.43459">
        <ele>1083</ele>
        <time>2020-05-21T16:26:52.516Z</time>
      </trkpt>
      <trkpt lat="44.89236" lon="5.4346">
        <ele>1083</ele>
        <time>2020-05-21T16:26:53.516Z</time>
      </trkpt>
      <trkpt lat="44.89235" lon="5.43461">
        <ele>1083</ele>
        <time>2020-05-21T16:26:54.516Z</time>
      </trkpt>
      <trkpt lat="44.89233" lon="5.43461">
        <ele>1083</ele>
        <time>2020-05-21T16:26:55.517Z</time>
      </trkpt>
      <trkpt lat="44.89233" lon="5.43462">
        <ele>1082</ele>
        <time>2020-05-21T16:26:56.516Z</time>
      </trkpt>
      <trkpt lat="44.89232" lon="5.43462">
        <ele>1082</ele>
        <time>2020-05-21T16:26:57.516Z</time>
      </trkpt>
      <trkpt lat="44.89231" lon="5.43463">
        <ele>1083</ele>
        <time>2020-05-21T16:26:58.517Z</time>
      </trkpt>
      <trkpt lat="44.8923" lon="5.43464">
        <ele>1083</ele>
        <time>2020-05-21T16:26:59.516Z</time>
      </trkpt>
      <trkpt lat="44.89229" lon="5.43465">
        <ele>1083</ele>
        <time>2020-05-21T16:27:00.516Z</time>
      </trkpt>
      <trkpt lat="44.89227" lon="5.43466">
        <ele>1083</ele>
        <time>2020-05-21T16:27:01.517Z</time>
      </trkpt>
      <trkpt lat="44.89226" lon="5.43465">
        <ele>1083</ele>
        <time>2020-05-21T16:27:02.516Z</time>
      </trkpt>
      <trkpt lat="44.89224" lon="5.43465">
        <ele>1084</ele>
        <time>2020-05-21T16:27:03.517Z</time>
      </trkpt>
      <trkpt lat="44.89223" lon="5.43465">
        <ele>1084</ele>
        <time>2020-05-21T16:27:04.516Z</time>
      </trkpt>
      <trkpt lat="44.89221" lon="5.43465">
        <ele>1085</ele>
        <time>2020-05-21T16:27:05.516Z</time>
      </trkpt>
      <trkpt lat="44.8922" lon="5.43466">
        <ele>1085</ele>
        <time>2020-05-21T16:27:06.516Z</time>
      </trkpt>
      <trkpt lat="44.89218" lon="5.43468">
        <ele>1085</ele>
        <time>2020-05-21T16:27:07.516Z</time>
      </trkpt>
      <trkpt lat="44.89217" lon="5.4347">
        <ele>1086</ele>
        <time>2020-05-21T16:27:08.516Z</time>
      </trkpt>
      <trkpt lat="44.89216" lon="5.43471">
        <ele>1086</ele>
        <time>2020-05-21T16:27:09.516Z</time>
      </trkpt>
      <trkpt lat="44.89215" lon="5.43472">
        <ele>1087</ele>
        <time>2020-05-21T16:27:10.516Z</time>
      </trkpt>
      <trkpt lat="44.89214" lon="5.43473">
        <ele>1087</ele>
        <time>2020-05-21T16:27:11.517Z</time>
      </trkpt>
      <trkpt lat="44.89214" lon="5.43475">
        <ele>1088</ele>
        <time>2020-05-21T16:27:12.516Z</time>
      </trkpt>
      <trkpt lat="44.89212" lon="5.43476">
        <ele>1088</ele>
        <time>2020-05-21T16:27:13.516Z</time>
      </trkpt>
      <trkpt lat="44.89212" lon="5.43476">
        <ele>1089</ele>
        <time>2020-05-21T16:27:14.516Z</time>
      </trkpt>
      <trkpt lat="44.89211" lon="5.43478">
        <ele>1090</ele>
        <time>2020-05-21T16:27:15.516Z</time>
      </trkpt>
      <trkpt lat="44.8921" lon="5.43479">
        <ele>1091</ele>
        <time>2020-05-21T16:27:16.517Z</time>
      </trkpt>
      <trkpt lat="44.8921" lon="5.4348">
        <ele>1092</ele>
        <time>2020-05-21T16:27:17.516Z</time>
      </trkpt>
      <trkpt lat="44.89209" lon="5.43483">
        <ele>1093</ele>
        <time>2020-05-21T16:27:18.517Z</time>
      </trkpt>
      <trkpt lat="44.89208" lon="5.43484">
        <ele>1093</ele>
        <time>2020-05-21T16:27:19.516Z</time>
      </trkpt>
      <trkpt lat="44.89207" lon="5.43486">
        <ele>1094</ele>
        <time>2020-05-21T16:27:20.516Z</time>
      </trkpt>
      <trkpt lat="44.89207" lon="5.43488">
        <ele>1095</ele>
        <time>2020-05-21T16:27:21.516Z</time>
      </trkpt>
      <trkpt lat="44.89206" lon="5.4349">
        <ele>1096</ele>
        <time>2020-05-21T16:27:22.517Z</time>
      </trkpt>
      <trkpt lat="44.89205" lon="5.43491">
        <ele>1097</ele>
        <time>2020-05-21T16:27:23.516Z</time>
      </trkpt>
      <trkpt lat="44.89205" lon="5.43493">
        <ele>1097</ele>
        <time>2020-05-21T16:27:24.517Z</time>
      </trkpt>
      <trkpt lat="44.89204" lon="5.43494">
        <ele>1097</ele>
        <time>2020-05-21T16:27:25.516Z</time>
      </trkpt>
      <trkpt lat="44.89203" lon="5.43495">
        <ele>1098</ele>
        <time>2020-05-21T16:27:26.516Z</time>
      </trkpt>
      <trkpt lat="44.89202" lon="5.43497">
        <ele>1098</ele>
        <time>2020-05-21T16:27:27.516Z</time>
      </trkpt>
      <trkpt lat="44.89201" lon="5.43498">
        <ele>1099</ele>
        <time>2020-05-21T16:27:28.517Z</time>
      </trkpt>
      <trkpt lat="44.89201" lon="5.43501">
        <ele>1100</ele>
        <time>2020-05-21T16:27:29.516Z</time>
      </trkpt>
      <trkpt lat="44.89201" lon="5.43504">
        <ele>1100</ele>
        <time>2020-05-21T16:27:30.516Z</time>
      </trkpt>
      <trkpt lat="44.892" lon="5.43506">
        <ele>1101</ele>
        <time>2020-05-21T16:27:31.516Z</time>
      </trkpt>
      <trkpt lat="44.89199" lon="5.43509">
        <ele>1101</ele>
        <time>2020-05-21T16:27:32.516Z</time>
      </trkpt>
      <trkpt lat="44.89198" lon="5.4351">
        <ele>1101</ele>
        <time>2020-05-21T16:27:33.516Z</time>
      </trkpt>
      <trkpt lat="44.89191" lon="5.43509">
        <ele>1100</ele>
        <time>2020-05-21T16:27:34.518Z</time>
      </trkpt>
      <trkpt lat="44.89191" lon="5.43509">
        <ele>1100</ele>
        <time>2020-05-21T16:27:35.518Z</time>
      </trkpt>
      <trkpt lat="44.89191" lon="5.4351">
        <ele>1100</ele>
        <time>2020-05-21T16:27:36.518Z</time>
      </trkpt>
      <trkpt lat="44.89192" lon="5.4351">
        <ele>1100</ele>
        <time>2020-05-21T16:27:37.517Z</time>
      </trkpt>
      <trkpt lat="44.89192" lon="5.4351">
        <ele>1100</ele>
        <time>2020-05-21T16:27:38.518Z</time>
      </trkpt>
      <trkpt lat="44.89192" lon="5.4351">
        <ele>1100</ele>
        <time>2020-05-21T16:27:39.518Z</time>
      </trkpt>
      <trkpt lat="44.89192" lon="5.4351">
        <ele>1100</ele>
        <time>2020-05-21T16:27:40.518Z</time>
      </trkpt>
      <trkpt lat="44.89193" lon="5.4351">
        <ele>1100</ele>
        <time>2020-05-21T16:27:41.517Z</time>
      </trkpt>
      <trkpt lat="44.89193" lon="5.4351">
        <ele>1100</ele>
        <time>2020-05-21T16:27:42.517Z</time>
      </trkpt>
      <trkpt lat="44.89193" lon="5.43511">
        <ele>1100</ele>
        <time>2020-05-21T16:27:43.518Z</time>
      </trkpt>
      <trkpt lat="44.89191" lon="5.43512">
        <ele>1100</ele>
        <time>2020-05-21T16:27:44.518Z</time>
      </trkpt>
      <trkpt lat="44.8919" lon="5.43514">
        <ele>1100</ele>
        <time>2020-05-21T16:27:45.517Z</time>
      </trkpt>
      <trkpt lat="44.89188" lon="5.43516">
        <ele>1100</ele>
        <time>2020-05-21T16:27:46.518Z</time>
      </trkpt>
      <trkpt lat="44.89186" lon="5.43519">
        <ele>1100</ele>
        <time>2020-05-21T16:27:47.518Z</time>
      </trkpt>
      <trkpt lat="44.89184" lon="5.43521">
        <ele>1101</ele>
        <time>2020-05-21T16:27:48.518Z</time>
      </trkpt>
      <trkpt lat="44.89182" lon="5.43523">
        <ele>1101</ele>
        <time>2020-05-21T16:27:49.518Z</time>
      </trkpt>
      <trkpt lat="44.89181" lon="5.43525">
        <ele>1102</ele>
        <time>2020-05-21T16:27:50.517Z</time>
      </trkpt>
      <trkpt lat="44.89179" lon="5.43527">
        <ele>1103</ele>
        <time>2020-05-21T16:27:51.518Z</time>
      </trkpt>
      <trkpt lat="44.89177" lon="5.43529">
        <ele>1103</ele>
        <time>2020-05-21T16:27:52.517Z</time>
      </trkpt>
      <trkpt lat="44.89175" lon="5.43529">
        <ele>1104</ele>
        <time>2020-05-21T16:27:53.518Z</time>
      </trkpt>
      <trkpt lat="44.89174" lon="5.4353">
        <ele>1104</ele>
        <time>2020-05-21T16:27:54.518Z</time>
      </trkpt>
      <trkpt lat="44.89173" lon="5.43531">
        <ele>1104</ele>
        <time>2020-05-21T16:27:55.518Z</time>
      </trkpt>
      <trkpt lat="44.89172" lon="5.43532">
        <ele>1104</ele>
        <time>2020-05-21T16:27:56.518Z</time>
      </trkpt>
      <trkpt lat="44.8917" lon="5.43533">
        <ele>1104</ele>
        <time>2020-05-21T16:27:57.517Z</time>
      </trkpt>
      <trkpt lat="44.89169" lon="5.43533">
        <ele>1104</ele>
        <time>2020-05-21T16:27:58.518Z</time>
      </trkpt>
      <trkpt lat="44.89168" lon="5.43534">
        <ele>1104</ele>
        <time>2020-05-21T16:27:59.518Z</time>
      </trkpt>
      <trkpt lat="44.89167" lon="5.43534">
        <ele>1104</ele>
        <time>2020-05-21T16:28:00.518Z</time>
      </trkpt>
      <trkpt lat="44.89165" lon="5.43535">
        <ele>1104</ele>
        <time>2020-05-21T16:28:01.517Z</time>
      </trkpt>
      <trkpt lat="44.89164" lon="5.43536">
        <ele>1105</ele>
        <time>2020-05-21T16:28:02.517Z</time>
      </trkpt>
      <trkpt lat="44.89162" lon="5.43537">
        <ele>1105</ele>
        <time>2020-05-21T16:28:03.518Z</time>
      </trkpt>
      <trkpt lat="44.89161" lon="5.43538">
        <ele>1105</ele>
        <time>2020-05-21T16:28:04.518Z</time>
      </trkpt>
      <trkpt lat="44.89159" lon="5.43538">
        <ele>1105</ele>
        <time>2020-05-21T16:28:05.518Z</time>
      </trkpt>
      <trkpt lat="44.89157" lon="5.43539">
        <ele>1105</ele>
        <time>2020-05-21T16:28:06.517Z</time>
      </trkpt>
      <trkpt lat="44.89156" lon="5.43539">
        <ele>1105</ele>
        <time>2020-05-21T16:28:07.518Z</time>
      </trkpt>
      <trkpt lat="44.89154" lon="5.43539">
        <ele>1105</ele>
        <time>2020-05-21T16:28:08.518Z</time>
      </trkpt>
      <trkpt lat="44.89153" lon="5.43539">
        <ele>1105</ele>
        <time>2020-05-21T16:28:09.518Z</time>
      </trkpt>
      <trkpt lat="44.89152" lon="5.43539">
        <ele>1105</ele>
        <time>2020-05-21T16:28:10.518Z</time>
      </trkpt>
      <trkpt lat="44.8915" lon="5.43539">
        <ele>1105</ele>
        <time>2020-05-21T16:28:11.517Z</time>
      </trkpt>
      <trkpt lat="44.89148" lon="5.43538">
        <ele>1105</ele>
        <time>2020-05-21T16:28:12.518Z</time>
      </trkpt>
      <trkpt lat="44.89146" lon="5.43538">
        <ele>1105</ele>
        <time>2020-05-21T16:28:13.518Z</time>
      </trkpt>
      <trkpt lat="44.89145" lon="5.43538">
        <ele>1105</ele>
        <time>2020-05-21T16:28:14.517Z</time>
      </trkpt>
      <trkpt lat="44.89144" lon="5.43539">
        <ele>1106</ele>
        <time>2020-05-21T16:28:15.518Z</time>
      </trkpt>
      <trkpt lat="44.89143" lon="5.43539">
        <ele>1106</ele>
        <time>2020-05-21T16:28:16.517Z</time>
      </trkpt>
      <trkpt lat="44.89142" lon="5.43539">
        <ele>1107</ele>
        <time>2020-05-21T16:28:17.517Z</time>
      </trkpt>
      <trkpt lat="44.89141" lon="5.43539">
        <ele>1107</ele>
        <time>2020-05-21T16:28:18.518Z</time>
      </trkpt>
      <trkpt lat="44.8914" lon="5.43539">
        <ele>1108</ele>
        <time>2020-05-21T16:28:19.518Z</time>
      </trkpt>
      <trkpt lat="44.89139" lon="5.43539">
        <ele>1108</ele>
        <time>2020-05-21T16:28:20.518Z</time>
      </trkpt>
      <trkpt lat="44.89137" lon="5.4354">
        <ele>1108</ele>
        <time>2020-05-21T16:28:21.518Z</time>
      </trkpt>
      <trkpt lat="44.89136" lon="5.4354">
        <ele>1108</ele>
        <time>2020-05-21T16:28:22.518Z</time>
      </trkpt>
      <trkpt lat="44.89135" lon="5.4354">
        <ele>1109</ele>
        <time>2020-05-21T16:28:23.518Z</time>
      </trkpt>
      <trkpt lat="44.89134" lon="5.43541">
        <ele>1109</ele>
        <time>2020-05-21T16:28:24.518Z</time>
      </trkpt>
      <trkpt lat="44.89133" lon="5.43542">
        <ele>1110</ele>
        <time>2020-05-21T16:28:25.518Z</time>
      </trkpt>
      <trkpt lat="44.89132" lon="5.43543">
        <ele>1110</ele>
        <time>2020-05-21T16:28:26.518Z</time>
      </trkpt>
      <trkpt lat="44.89131" lon="5.43544">
        <ele>1110</ele>
        <time>2020-05-21T16:28:27.518Z</time>
      </trkpt>
      <trkpt lat="44.89129" lon="5.43545">
        <ele>1110</ele>
        <time>2020-05-21T16:28:28.518Z</time>
      </trkpt>
      <trkpt lat="44.89128" lon="5.43547">
        <ele>1110</ele>
        <time>2020-05-21T16:28:29.517Z</time>
      </trkpt>
      <trkpt lat="44.89127" lon="5.43548">
        <ele>1110</ele>
        <time>2020-05-21T16:28:30.518Z</time>
      </trkpt>
      <trkpt lat="44.89126" lon="5.4355">
        <ele>1111</ele>
        <time>2020-05-21T16:28:31.518Z</time>
      </trkpt>
      <trkpt lat="44.89125" lon="5.43551">
        <ele>1111</ele>
        <time>2020-05-21T16:28:32.518Z</time>
      </trkpt>
      <trkpt lat="44.89124" lon="5.43553">
        <ele>1111</ele>
        <time>2020-05-21T16:28:33.518Z</time>
      </trkpt>
      <trkpt lat="44.89123" lon="5.43555">
        <ele>1111</ele>
        <time>2020-05-21T16:28:34.518Z</time>
      </trkpt>
      <trkpt lat="44.89122" lon="5.43556">
        <ele>1112</ele>
        <time>2020-05-21T16:28:35.518Z</time>
      </trkpt>
      <trkpt lat="44.89122" lon="5.43558">
        <ele>1112</ele>
        <time>2020-05-21T16:28:36.518Z</time>
      </trkpt>
      <trkpt lat="44.89121" lon="5.43559">
        <ele>1112</ele>
        <time>2020-05-21T16:28:37.518Z</time>
      </trkpt>
      <trkpt lat="44.8912" lon="5.4356">
        <ele>1113</ele>
        <time>2020-05-21T16:28:38.518Z</time>
      </trkpt>
      <trkpt lat="44.8912" lon="5.43561">
        <ele>1113</ele>
        <time>2020-05-21T16:28:39.518Z</time>
      </trkpt>
      <trkpt lat="44.89117" lon="5.43562">
        <ele>1113</ele>
        <time>2020-05-21T16:28:40.518Z</time>
      </trkpt>
      <trkpt lat="44.89116" lon="5.43563">
        <ele>1113</ele>
        <time>2020-05-21T16:28:41.518Z</time>
      </trkpt>
      <trkpt lat="44.89116" lon="5.43564">
        <ele>1113</ele>
        <time>2020-05-21T16:28:42.518Z</time>
      </trkpt>
      <trkpt lat="44.89115" lon="5.43566">
        <ele>1113</ele>
        <time>2020-05-21T16:28:43.518Z</time>
      </trkpt>
      <trkpt lat="44.89114" lon="5.43567">
        <ele>1114</ele>
        <time>2020-05-21T16:28:44.518Z</time>
      </trkpt>
      <trkpt lat="44.89112" lon="5.43568">
        <ele>1114</ele>
        <time>2020-05-21T16:28:45.518Z</time>
      </trkpt>
      <trkpt lat="44.8911" lon="5.43569">
        <ele>1115</ele>
        <time>2020-05-21T16:28:46.518Z</time>
      </trkpt>
      <trkpt lat="44.89109" lon="5.43569">
        <ele>1115</ele>
        <time>2020-05-21T16:28:47.518Z</time>
      </trkpt>
      <trkpt lat="44.89107" lon="5.43571">
        <ele>1115</ele>
        <time>2020-05-21T16:28:48.518Z</time>
      </trkpt>
      <trkpt lat="44.89106" lon="5.43572">
        <ele>1115</ele>
        <time>2020-05-21T16:28:49.518Z</time>
      </trkpt>
      <trkpt lat="44.89105" lon="5.43572">
        <ele>1115</ele>
        <time>2020-05-21T16:28:50.518Z</time>
      </trkpt>
      <trkpt lat="44.89103" lon="5.43573">
        <ele>1115</ele>
        <time>2020-05-21T16:28:51.518Z</time>
      </trkpt>
      <trkpt lat="44.89102" lon="5.43574">
        <ele>1115</ele>
        <time>2020-05-21T16:28:52.518Z</time>
      </trkpt>
      <trkpt lat="44.89102" lon="5.43575">
        <ele>1115</ele>
        <time>2020-05-21T16:28:53.518Z</time>
      </trkpt>
      <trkpt lat="44.891" lon="5.43576">
        <ele>1115</ele>
        <time>2020-05-21T16:28:54.518Z</time>
      </trkpt>
      <trkpt lat="44.89098" lon="5.43578">
        <ele>1115</ele>
        <time>2020-05-21T16:28:55.517Z</time>
      </trkpt>
      <trkpt lat="44.89097" lon="5.43579">
        <ele>1115</ele>
        <time>2020-05-21T16:28:56.518Z</time>
      </trkpt>
      <trkpt lat="44.89096" lon="5.43579">
        <ele>1115</ele>
        <time>2020-05-21T16:28:57.518Z</time>
      </trkpt>
      <trkpt lat="44.89095" lon="5.4358">
        <ele>1116</ele>
        <time>2020-05-21T16:28:58.518Z</time>
      </trkpt>
      <trkpt lat="44.89094" lon="5.4358">
        <ele>1116</ele>
        <time>2020-05-21T16:28:59.518Z</time>
      </trkpt>
      <trkpt lat="44.89092" lon="5.43581">
        <ele>1116</ele>
        <time>2020-05-21T16:29:00.518Z</time>
      </trkpt>
      <trkpt lat="44.8909" lon="5.43582">
        <ele>1117</ele>
        <time>2020-05-21T16:29:01.518Z</time>
      </trkpt>
      <trkpt lat="44.89089" lon="5.43582">
        <ele>1118</ele>
        <time>2020-05-21T16:29:02.518Z</time>
      </trkpt>
      <trkpt lat="44.89087" lon="5.43583">
        <ele>1118</ele>
        <time>2020-05-21T16:29:03.518Z</time>
      </trkpt>
      <trkpt lat="44.89086" lon="5.43584">
        <ele>1119</ele>
        <time>2020-05-21T16:29:04.517Z</time>
      </trkpt>
      <trkpt lat="44.89085" lon="5.43585">
        <ele>1120</ele>
        <time>2020-05-21T16:29:05.518Z</time>
      </trkpt>
      <trkpt lat="44.89084" lon="5.43586">
        <ele>1121</ele>
        <time>2020-05-21T16:29:06.518Z</time>
      </trkpt>
      <trkpt lat="44.89083" lon="5.43587">
        <ele>1122</ele>
        <time>2020-05-21T16:29:07.518Z</time>
      </trkpt>
      <trkpt lat="44.89082" lon="5.43587">
        <ele>1123</ele>
        <time>2020-05-21T16:29:08.518Z</time>
      </trkpt>
      <trkpt lat="44.89082" lon="5.43587">
        <ele>1124</ele>
        <time>2020-05-21T16:29:09.518Z</time>
      </trkpt>
      <trkpt lat="44.8908" lon="5.43588">
        <ele>1124</ele>
        <time>2020-05-21T16:29:10.518Z</time>
      </trkpt>
      <trkpt lat="44.89079" lon="5.43589">
        <ele>1124</ele>
        <time>2020-05-21T16:29:11.518Z</time>
      </trkpt>
      <trkpt lat="44.89079" lon="5.43588">
        <ele>1124</ele>
        <time>2020-05-21T16:29:12.518Z</time>
      </trkpt>
      <trkpt lat="44.89078" lon="5.43589">
        <ele>1124</ele>
        <time>2020-05-21T16:29:13.517Z</time>
      </trkpt>
      <trkpt lat="44.89077" lon="5.43589">
        <ele>1124</ele>
        <time>2020-05-21T16:29:14.518Z</time>
      </trkpt>
      <trkpt lat="44.89076" lon="5.43589">
        <ele>1124</ele>
        <time>2020-05-21T16:29:15.518Z</time>
      </trkpt>
      <trkpt lat="44.89075" lon="5.43589">
        <ele>1124</ele>
        <time>2020-05-21T16:29:16.518Z</time>
      </trkpt>
      <trkpt lat="44.89074" lon="5.43589">
        <ele>1124</ele>
        <time>2020-05-21T16:29:17.518Z</time>
      </trkpt>
      <trkpt lat="44.89073" lon="5.43589">
        <ele>1124</ele>
        <time>2020-05-21T16:29:18.518Z</time>
      </trkpt>
      <trkpt lat="44.89072" lon="5.43589">
        <ele>1124</ele>
        <time>2020-05-21T16:29:19.518Z</time>
      </trkpt>
      <trkpt lat="44.89071" lon="5.43589">
        <ele>1124</ele>
        <time>2020-05-21T16:29:20.517Z</time>
      </trkpt>
      <trkpt lat="44.89071" lon="5.4359">
        <ele>1124</ele>
        <time>2020-05-21T16:29:21.518Z</time>
      </trkpt>
      <trkpt lat="44.89071" lon="5.43591">
        <ele>1124</ele>
        <time>2020-05-21T16:29:22.518Z</time>
      </trkpt>
      <trkpt lat="44.89071" lon="5.43592">
        <ele>1125</ele>
        <time>2020-05-21T16:29:23.517Z</time>
      </trkpt>
      <trkpt lat="44.89072" lon="5.43594">
        <ele>1125</ele>
        <time>2020-05-21T16:29:24.518Z</time>
      </trkpt>
      <trkpt lat="44.89072" lon="5.43595">
        <ele>1126</ele>
        <time>2020-05-21T16:29:25.518Z</time>
      </trkpt>
      <trkpt lat="44.89073" lon="5.43597">
        <ele>1127</ele>
        <time>2020-05-21T16:29:26.518Z</time>
      </trkpt>
      <trkpt lat="44.89073" lon="5.43599">
        <ele>1127</ele>
        <time>2020-05-21T16:29:27.518Z</time>
      </trkpt>
      <trkpt lat="44.89073" lon="5.436">
        <ele>1128</ele>
        <time>2020-05-21T16:29:28.518Z</time>
      </trkpt>
      <trkpt lat="44.89073" lon="5.43601">
        <ele>1128</ele>
        <time>2020-05-21T16:29:29.518Z</time>
      </trkpt>
      <trkpt lat="44.89073" lon="5.43602">
        <ele>1129</ele>
        <time>2020-05-21T16:29:30.518Z</time>
      </trkpt>
      <trkpt lat="44.89073" lon="5.43603">
        <ele>1130</ele>
        <time>2020-05-21T16:29:31.518Z</time>
      </trkpt>
      <trkpt lat="44.89073" lon="5.43604">
        <ele>1130</ele>
        <time>2020-05-21T16:29:32.518Z</time>
      </trkpt>
      <trkpt lat="44.89073" lon="5.43605">
        <ele>1131</ele>
        <time>2020-05-21T16:29:33.518Z</time>
      </trkpt>
      <trkpt lat="44.89073" lon="5.43606">
        <ele>1131</ele>
        <time>2020-05-21T16:29:34.517Z</time>
      </trkpt>
      <trkpt lat="44.89074" lon="5.43606">
        <ele>1132</ele>
        <time>2020-05-21T16:29:35.518Z</time>
      </trkpt>
      <trkpt lat="44.89075" lon="5.43607">
        <ele>1132</ele>
        <time>2020-05-21T16:29:36.518Z</time>
      </trkpt>
      <trkpt lat="44.89076" lon="5.43608">
        <ele>1132</ele>
        <time>2020-05-21T16:29:37.518Z</time>
      </trkpt>
      <trkpt lat="44.89077" lon="5.43609">
        <ele>1132</ele>
        <time>2020-05-21T16:29:38.518Z</time>
      </trkpt>
      <trkpt lat="44.89079" lon="5.4361">
        <ele>1132</ele>
        <time>2020-05-21T16:29:39.517Z</time>
      </trkpt>
      <trkpt lat="44.8908" lon="5.4361">
        <ele>1131</ele>
        <time>2020-05-21T16:29:40.518Z</time>
      </trkpt>
      <trkpt lat="44.89082" lon="5.4361">
        <ele>1131</ele>
        <time>2020-05-21T16:29:41.517Z</time>
      </trkpt>
      <trkpt lat="44.89083" lon="5.4361">
        <ele>1131</ele>
        <time>2020-05-21T16:29:42.517Z</time>
      </trkpt>
      <trkpt lat="44.89084" lon="5.4361">
        <ele>1131</ele>
        <time>2020-05-21T16:29:43.518Z</time>
      </trkpt>
      <trkpt lat="44.89086" lon="5.43609">
        <ele>1131</ele>
        <time>2020-05-21T16:29:44.518Z</time>
      </trkpt>
      <trkpt lat="44.89087" lon="5.43609">
        <ele>1132</ele>
        <time>2020-05-21T16:29:45.517Z</time>
      </trkpt>
      <trkpt lat="44.89089" lon="5.43609">
        <ele>1132</ele>
        <time>2020-05-21T16:29:46.518Z</time>
      </trkpt>
      <trkpt lat="44.8909" lon="5.43608">
        <ele>1133</ele>
        <time>2020-05-21T16:29:47.518Z</time>
      </trkpt>
      <trkpt lat="44.89091" lon="5.43608">
        <ele>1134</ele>
        <time>2020-05-21T16:29:48.518Z</time>
      </trkpt>
      <trkpt lat="44.89092" lon="5.43608">
        <ele>1134</ele>
        <time>2020-05-21T16:29:49.518Z</time>
      </trkpt>
      <trkpt lat="44.89094" lon="5.43609">
        <ele>1135</ele>
        <time>2020-05-21T16:29:50.518Z</time>
      </trkpt>
      <trkpt lat="44.89096" lon="5.43609">
        <ele>1136</ele>
        <time>2020-05-21T16:29:51.518Z</time>
      </trkpt>
      <trkpt lat="44.89097" lon="5.4361">
        <ele>1136</ele>
        <time>2020-05-21T16:29:52.517Z</time>
      </trkpt>
      <trkpt lat="44.89098" lon="5.43611">
        <ele>1136</ele>
        <time>2020-05-21T16:29:53.518Z</time>
      </trkpt>
      <trkpt lat="44.891" lon="5.43612">
        <ele>1137</ele>
        <time>2020-05-21T16:29:54.518Z</time>
      </trkpt>
      <trkpt lat="44.89101" lon="5.43612">
        <ele>1137</ele>
        <time>2020-05-21T16:29:55.517Z</time>
      </trkpt>
      <trkpt lat="44.89103" lon="5.43613">
        <ele>1138</ele>
        <time>2020-05-21T16:29:56.518Z</time>
      </trkpt>
      <trkpt lat="44.89104" lon="5.43614">
        <ele>1138</ele>
        <time>2020-05-21T16:29:57.518Z</time>
      </trkpt>
      <trkpt lat="44.89105" lon="5.43615">
        <ele>1138</ele>
        <time>2020-05-21T16:29:58.518Z</time>
      </trkpt>
      <trkpt lat="44.89106" lon="5.43616">
        <ele>1139</ele>
        <time>2020-05-21T16:29:59.518Z</time>
      </trkpt>
      <trkpt lat="44.89107" lon="5.43617">
        <ele>1139</ele>
        <time>2020-05-21T16:30:00.518Z</time>
      </trkpt>
      <trkpt lat="44.89106" lon="5.43619">
        <ele>1140</ele>
        <time>2020-05-21T16:30:01.518Z</time>
      </trkpt>
      <trkpt lat="44.89106" lon="5.43621">
        <ele>1141</ele>
        <time>2020-05-21T16:30:02.517Z</time>
      </trkpt>
      <trkpt lat="44.89105" lon="5.43623">
        <ele>1141</ele>
        <time>2020-05-21T16:30:03.517Z</time>
      </trkpt>
      <trkpt lat="44.89105" lon="5.43624">
        <ele>1142</ele>
        <time>2020-05-21T16:30:04.518Z</time>
      </trkpt>
      <trkpt lat="44.89105" lon="5.43626">
        <ele>1142</ele>
        <time>2020-05-21T16:30:05.517Z</time>
      </trkpt>
      <trkpt lat="44.89105" lon="5.43627">
        <ele>1143</ele>
        <time>2020-05-21T16:30:06.518Z</time>
      </trkpt>
      <trkpt lat="44.89104" lon="5.43628">
        <ele>1143</ele>
        <time>2020-05-21T16:30:07.518Z</time>
      </trkpt>
      <trkpt lat="44.89104" lon="5.43628">
        <ele>1143</ele>
        <time>2020-05-21T16:30:08.518Z</time>
      </trkpt>
      <trkpt lat="44.89103" lon="5.43629">
        <ele>1144</ele>
        <time>2020-05-21T16:30:09.518Z</time>
      </trkpt>
      <trkpt lat="44.89102" lon="5.43629">
        <ele>1144</ele>
        <time>2020-05-21T16:30:10.517Z</time>
      </trkpt>
      <trkpt lat="44.89102" lon="5.4363">
        <ele>1144</ele>
        <time>2020-05-21T16:30:11.518Z</time>
      </trkpt>
      <trkpt lat="44.89101" lon="5.4363">
        <ele>1144</ele>
        <time>2020-05-21T16:30:12.518Z</time>
      </trkpt>
      <trkpt lat="44.891" lon="5.4363">
        <ele>1145</ele>
        <time>2020-05-21T16:30:13.518Z</time>
      </trkpt>
      <trkpt lat="44.89098" lon="5.43631">
        <ele>1145</ele>
        <time>2020-05-21T16:30:14.518Z</time>
      </trkpt>
      <trkpt lat="44.89097" lon="5.43631">
        <ele>1145</ele>
        <time>2020-05-21T16:30:15.517Z</time>
      </trkpt>
      <trkpt lat="44.89097" lon="5.43633">
        <ele>1145</ele>
        <time>2020-05-21T16:30:16.518Z</time>
      </trkpt>
      <trkpt lat="44.89095" lon="5.43634">
        <ele>1145</ele>
        <time>2020-05-21T16:30:17.518Z</time>
      </trkpt>
      <trkpt lat="44.89094" lon="5.43635">
        <ele>1145</ele>
        <time>2020-05-21T16:30:18.518Z</time>
      </trkpt>
      <trkpt lat="44.89093" lon="5.43636">
        <ele>1145</ele>
        <time>2020-05-21T16:30:19.518Z</time>
      </trkpt>
      <trkpt lat="44.89092" lon="5.43637">
        <ele>1146</ele>
        <time>2020-05-21T16:30:20.518Z</time>
      </trkpt>
      <trkpt lat="44.89091" lon="5.43637">
        <ele>1146</ele>
        <time>2020-05-21T16:30:21.518Z</time>
      </trkpt>
      <trkpt lat="44.89089" lon="5.43637">
        <ele>1146</ele>
        <time>2020-05-21T16:30:22.518Z</time>
      </trkpt>
      <trkpt lat="44.89088" lon="5.43638">
        <ele>1146</ele>
        <time>2020-05-21T16:30:23.518Z</time>
      </trkpt>
      <trkpt lat="44.89088" lon="5.43639">
        <ele>1145</ele>
        <time>2020-05-21T16:30:24.518Z</time>
      </trkpt>
      <trkpt lat="44.89089" lon="5.4364">
        <ele>1145</ele>
        <time>2020-05-21T16:30:25.518Z</time>
      </trkpt>
      <trkpt lat="44.89089" lon="5.4364">
        <ele>1146</ele>
        <time>2020-05-21T16:30:26.518Z</time>
      </trkpt>
      <trkpt lat="44.8909" lon="5.43641">
        <ele>1146</ele>
        <time>2020-05-21T16:30:27.518Z</time>
      </trkpt>
      <trkpt lat="44.8909" lon="5.43643">
        <ele>1146</ele>
        <time>2020-05-21T16:30:28.518Z</time>
      </trkpt>
      <trkpt lat="44.8909" lon="5.43644">
        <ele>1147</ele>
        <time>2020-05-21T16:30:29.517Z</time>
      </trkpt>
      <trkpt lat="44.8909" lon="5.43645">
        <ele>1147</ele>
        <time>2020-05-21T16:30:30.518Z</time>
      </trkpt>
      <trkpt lat="44.89089" lon="5.43646">
        <ele>1147</ele>
        <time>2020-05-21T16:30:31.517Z</time>
      </trkpt>
      <trkpt lat="44.89088" lon="5.43648">
        <ele>1148</ele>
        <time>2020-05-21T16:30:32.517Z</time>
      </trkpt>
      <trkpt lat="44.89087" lon="5.43649">
        <ele>1149</ele>
        <time>2020-05-21T16:30:33.518Z</time>
      </trkpt>
      <trkpt lat="44.89086" lon="5.43649">
        <ele>1149</ele>
        <time>2020-05-21T16:30:34.518Z</time>
      </trkpt>
      <trkpt lat="44.89085" lon="5.4365">
        <ele>1150</ele>
        <time>2020-05-21T16:30:35.518Z</time>
      </trkpt>
      <trkpt lat="44.89085" lon="5.43651">
        <ele>1151</ele>
        <time>2020-05-21T16:30:36.518Z</time>
      </trkpt>
      <trkpt lat="44.89084" lon="5.43651">
        <ele>1151</ele>
        <time>2020-05-21T16:30:37.518Z</time>
      </trkpt>
      <trkpt lat="44.89084" lon="5.43653">
        <ele>1152</ele>
        <time>2020-05-21T16:30:38.518Z</time>
      </trkpt>
      <trkpt lat="44.89083" lon="5.43653">
        <ele>1152</ele>
        <time>2020-05-21T16:30:39.517Z</time>
      </trkpt>
      <trkpt lat="44.89082" lon="5.43654">
        <ele>1153</ele>
        <time>2020-05-21T16:30:40.518Z</time>
      </trkpt>
      <trkpt lat="44.89081" lon="5.43654">
        <ele>1153</ele>
        <time>2020-05-21T16:30:41.518Z</time>
      </trkpt>
      <trkpt lat="44.8908" lon="5.43654">
        <ele>1154</ele>
        <time>2020-05-21T16:30:42.518Z</time>
      </trkpt>
      <trkpt lat="44.89079" lon="5.43655">
        <ele>1155</ele>
        <time>2020-05-21T16:30:43.518Z</time>
      </trkpt>
      <trkpt lat="44.89078" lon="5.43656">
        <ele>1156</ele>
        <time>2020-05-21T16:30:44.518Z</time>
      </trkpt>
      <trkpt lat="44.89076" lon="5.43656">
        <ele>1157</ele>
        <time>2020-05-21T16:30:45.518Z</time>
      </trkpt>
      <trkpt lat="44.89075" lon="5.43657">
        <ele>1157</ele>
        <time>2020-05-21T16:30:46.517Z</time>
      </trkpt>
      <trkpt lat="44.89074" lon="5.43657">
        <ele>1158</ele>
        <time>2020-05-21T16:30:47.518Z</time>
      </trkpt>
      <trkpt lat="44.89073" lon="5.43657">
        <ele>1158</ele>
        <time>2020-05-21T16:30:48.518Z</time>
      </trkpt>
      <trkpt lat="44.89072" lon="5.43657">
        <ele>1159</ele>
        <time>2020-05-21T16:30:49.517Z</time>
      </trkpt>
      <trkpt lat="44.8907" lon="5.43657">
        <ele>1160</ele>
        <time>2020-05-21T16:30:50.518Z</time>
      </trkpt>
      <trkpt lat="44.89069" lon="5.43657">
        <ele>1161</ele>
        <time>2020-05-21T16:30:51.517Z</time>
      </trkpt>
      <trkpt lat="44.89069" lon="5.43657">
        <ele>1162</ele>
        <time>2020-05-21T16:30:52.518Z</time>
      </trkpt>
      <trkpt lat="44.89067" lon="5.43657">
        <ele>1163</ele>
        <time>2020-05-21T16:30:53.518Z</time>
      </trkpt>
      <trkpt lat="44.89066" lon="5.43657">
        <ele>1164</ele>
        <time>2020-05-21T16:30:54.518Z</time>
      </trkpt>
      <trkpt lat="44.89065" lon="5.43657">
        <ele>1165</ele>
        <time>2020-05-21T16:30:55.517Z</time>
      </trkpt>
      <trkpt lat="44.89064" lon="5.43656">
        <ele>1166</ele>
        <time>2020-05-21T16:30:56.517Z</time>
      </trkpt>
      <trkpt lat="44.89063" lon="5.43656">
        <ele>1167</ele>
        <time>2020-05-21T16:30:57.518Z</time>
      </trkpt>
      <trkpt lat="44.89062" lon="5.43655">
        <ele>1168</ele>
        <time>2020-05-21T16:30:58.518Z</time>
      </trkpt>
      <trkpt lat="44.8906" lon="5.43655">
        <ele>1168</ele>
        <time>2020-05-21T16:30:59.518Z</time>
      </trkpt>
      <trkpt lat="44.89059" lon="5.43655">
        <ele>1168</ele>
        <time>2020-05-21T16:31:00.518Z</time>
      </trkpt>
      <trkpt lat="44.89057" lon="5.43655">
        <ele>1168</ele>
        <time>2020-05-21T16:31:01.518Z</time>
      </trkpt>
      <trkpt lat="44.89056" lon="5.43654">
        <ele>1168</ele>
        <time>2020-05-21T16:31:02.518Z</time>
      </trkpt>
      <trkpt lat="44.89055" lon="5.43654">
        <ele>1168</ele>
        <time>2020-05-21T16:31:03.518Z</time>
      </trkpt>
      <trkpt lat="44.89054" lon="5.43654">
        <ele>1167</ele>
        <time>2020-05-21T16:31:04.517Z</time>
      </trkpt>
      <trkpt lat="44.89054" lon="5.43654">
        <ele>1167</ele>
        <time>2020-05-21T16:31:05.518Z</time>
      </trkpt>
      <trkpt lat="44.89053" lon="5.43654">
        <ele>1167</ele>
        <time>2020-05-21T16:31:06.517Z</time>
      </trkpt>
      <trkpt lat="44.89052" lon="5.43654">
        <ele>1167</ele>
        <time>2020-05-21T16:31:07.518Z</time>
      </trkpt>
      <trkpt lat="44.89051" lon="5.43654">
        <ele>1167</ele>
        <time>2020-05-21T16:31:08.518Z</time>
      </trkpt>
      <trkpt lat="44.8905" lon="5.43654">
        <ele>1167</ele>
        <time>2020-05-21T16:31:09.517Z</time>
      </trkpt>
      <trkpt lat="44.89048" lon="5.43654">
        <ele>1167</ele>
        <time>2020-05-21T16:31:10.517Z</time>
      </trkpt>
      <trkpt lat="44.89047" lon="5.43654">
        <ele>1167</ele>
        <time>2020-05-21T16:31:11.518Z</time>
      </trkpt>
      <trkpt lat="44.89046" lon="5.43654">
        <ele>1168</ele>
        <time>2020-05-21T16:31:12.518Z</time>
      </trkpt>
      <trkpt lat="44.89045" lon="5.43654">
        <ele>1168</ele>
        <time>2020-05-21T16:31:13.517Z</time>
      </trkpt>
      <trkpt lat="44.89043" lon="5.43653">
        <ele>1168</ele>
        <time>2020-05-21T16:31:14.518Z</time>
      </trkpt>
      <trkpt lat="44.89042" lon="5.43653">
        <ele>1168</ele>
        <time>2020-05-21T16:31:15.518Z</time>
      </trkpt>
      <trkpt lat="44.89041" lon="5.43654">
        <ele>1168</ele>
        <time>2020-05-21T16:31:16.517Z</time>
      </trkpt>
      <trkpt lat="44.8904" lon="5.43655">
        <ele>1168</ele>
        <time>2020-05-21T16:31:17.517Z</time>
      </trkpt>
      <trkpt lat="44.89039" lon="5.43656">
        <ele>1169</ele>
        <time>2020-05-21T16:31:18.518Z</time>
      </trkpt>
      <trkpt lat="44.89038" lon="5.43657">
        <ele>1169</ele>
        <time>2020-05-21T16:31:19.517Z</time>
      </trkpt>
      <trkpt lat="44.89036" lon="5.43658">
        <ele>1170</ele>
        <time>2020-05-21T16:31:20.517Z</time>
      </trkpt>
      <trkpt lat="44.89035" lon="5.43659">
        <ele>1170</ele>
        <time>2020-05-21T16:31:21.517Z</time>
      </trkpt>
      <trkpt lat="44.89033" lon="5.4366">
        <ele>1171</ele>
        <time>2020-05-21T16:31:22.517Z</time>
      </trkpt>
      <trkpt lat="44.89031" lon="5.43661">
        <ele>1171</ele>
        <time>2020-05-21T16:31:23.518Z</time>
      </trkpt>
      <trkpt lat="44.89029" lon="5.43662">
        <ele>1171</ele>
        <time>2020-05-21T16:31:24.518Z</time>
      </trkpt>
      <trkpt lat="44.89028" lon="5.43663">
        <ele>1171</ele>
        <time>2020-05-21T16:31:25.518Z</time>
      </trkpt>
      <trkpt lat="44.89027" lon="5.43663">
        <ele>1171</ele>
        <time>2020-05-21T16:31:26.518Z</time>
      </trkpt>
      <trkpt lat="44.89026" lon="5.43664">
        <ele>1172</ele>
        <time>2020-05-21T16:31:27.518Z</time>
      </trkpt>
      <trkpt lat="44.89025" lon="5.43665">
        <ele>1172</ele>
        <time>2020-05-21T16:31:28.518Z</time>
      </trkpt>
      <trkpt lat="44.89024" lon="5.43666">
        <ele>1173</ele>
        <time>2020-05-21T16:31:29.518Z</time>
      </trkpt>
      <trkpt lat="44.89022" lon="5.43667">
        <ele>1173</ele>
        <time>2020-05-21T16:31:30.518Z</time>
      </trkpt>
      <trkpt lat="44.89021" lon="5.43667">
        <ele>1173</ele>
        <time>2020-05-21T16:31:31.518Z</time>
      </trkpt>
      <trkpt lat="44.8902" lon="5.43668">
        <ele>1173</ele>
        <time>2020-05-21T16:31:32.518Z</time>
      </trkpt>
      <trkpt lat="44.89018" lon="5.4367">
        <ele>1172</ele>
        <time>2020-05-21T16:31:33.518Z</time>
      </trkpt>
      <trkpt lat="44.89017" lon="5.43671">
        <ele>1172</ele>
        <time>2020-05-21T16:31:34.518Z</time>
      </trkpt>
      <trkpt lat="44.89015" lon="5.43672">
        <ele>1172</ele>
        <time>2020-05-21T16:31:35.518Z</time>
      </trkpt>
      <trkpt lat="44.89015" lon="5.4367">
        <ele>1174</ele>
        <time>2020-05-21T16:31:36.519Z</time>
      </trkpt>
      <trkpt lat="44.89015" lon="5.4367">
        <ele>1174</ele>
        <time>2020-05-21T16:31:37.519Z</time>
      </trkpt>
      <trkpt lat="44.89015" lon="5.4367">
        <ele>1174</ele>
        <time>2020-05-21T16:31:38.518Z</time>
      </trkpt>
      <trkpt lat="44.89014" lon="5.4367">
        <ele>1174</ele>
        <time>2020-05-21T16:31:39.518Z</time>
      </trkpt>
      <trkpt lat="44.89014" lon="5.4367">
        <ele>1174</ele>
        <time>2020-05-21T16:31:40.518Z</time>
      </trkpt>
      <trkpt lat="44.89014" lon="5.4367">
        <ele>1174</ele>
        <time>2020-05-21T16:31:41.519Z</time>
      </trkpt>
      <trkpt lat="44.89014" lon="5.4367">
        <ele>1174</ele>
        <time>2020-05-21T16:31:42.518Z</time>
      </trkpt>
      <trkpt lat="44.89014" lon="5.4367">
        <ele>1174</ele>
        <time>2020-05-21T16:31:43.518Z</time>
      </trkpt>
      <trkpt lat="44.89015" lon="5.4367">
        <ele>1174</ele>
        <time>2020-05-21T16:31:44.518Z</time>
      </trkpt>
      <trkpt lat="44.89017" lon="5.43672">
        <ele>1174</ele>
        <time>2020-05-21T16:31:45.519Z</time>
      </trkpt>
      <trkpt lat="44.89017" lon="5.43673">
        <ele>1174</ele>
        <time>2020-05-21T16:31:46.518Z</time>
      </trkpt>
      <trkpt lat="44.89018" lon="5.43675">
        <ele>1174</ele>
        <time>2020-05-21T16:31:47.519Z</time>
      </trkpt>
      <trkpt lat="44.89019" lon="5.43677">
        <ele>1174</ele>
        <time>2020-05-21T16:31:48.519Z</time>
      </trkpt>
      <trkpt lat="44.8902" lon="5.43679">
        <ele>1174</ele>
        <time>2020-05-21T16:31:49.518Z</time>
      </trkpt>
      <trkpt lat="44.89021" lon="5.43681">
        <ele>1174</ele>
        <time>2020-05-21T16:31:50.519Z</time>
      </trkpt>
      <trkpt lat="44.89022" lon="5.43682">
        <ele>1174</ele>
        <time>2020-05-21T16:31:51.519Z</time>
      </trkpt>
      <trkpt lat="44.89023" lon="5.43682">
        <ele>1174</ele>
        <time>2020-05-21T16:31:52.518Z</time>
      </trkpt>
      <trkpt lat="44.89024" lon="5.43683">
        <ele>1175</ele>
        <time>2020-05-21T16:31:53.518Z</time>
      </trkpt>
      <trkpt lat="44.89025" lon="5.43684">
        <ele>1175</ele>
        <time>2020-05-21T16:31:54.519Z</time>
      </trkpt>
      <trkpt lat="44.89026" lon="5.43685">
        <ele>1176</ele>
        <time>2020-05-21T16:31:55.519Z</time>
      </trkpt>
      <trkpt lat="44.89027" lon="5.43687">
        <ele>1176</ele>
        <time>2020-05-21T16:31:56.519Z</time>
      </trkpt>
      <trkpt lat="44.89028" lon="5.43688">
        <ele>1177</ele>
        <time>2020-05-21T16:31:57.518Z</time>
      </trkpt>
      <trkpt lat="44.89029" lon="5.43689">
        <ele>1177</ele>
        <time>2020-05-21T16:31:58.518Z</time>
      </trkpt>
      <trkpt lat="44.8903" lon="5.43691">
        <ele>1178</ele>
        <time>2020-05-21T16:31:59.519Z</time>
      </trkpt>
      <trkpt lat="44.89031" lon="5.43692">
        <ele>1179</ele>
        <time>2020-05-21T16:32:00.518Z</time>
      </trkpt>
      <trkpt lat="44.89032" lon="5.43694">
        <ele>1179</ele>
        <time>2020-05-21T16:32:01.518Z</time>
      </trkpt>
      <trkpt lat="44.89032" lon="5.43696">
        <ele>1180</ele>
        <time>2020-05-21T16:32:02.518Z</time>
      </trkpt>
      <trkpt lat="44.89031" lon="5.43697">
        <ele>1181</ele>
        <time>2020-05-21T16:32:03.518Z</time>
      </trkpt>
      <trkpt lat="44.8903" lon="5.43699">
        <ele>1181</ele>
        <time>2020-05-21T16:32:04.519Z</time>
      </trkpt>
      <trkpt lat="44.89029" lon="5.437">
        <ele>1182</ele>
        <time>2020-05-21T16:32:05.519Z</time>
      </trkpt>
      <trkpt lat="44.89028" lon="5.43701">
        <ele>1182</ele>
        <time>2020-05-21T16:32:06.519Z</time>
      </trkpt>
      <trkpt lat="44.89027" lon="5.43701">
        <ele>1182</ele>
        <time>2020-05-21T16:32:07.519Z</time>
      </trkpt>
      <trkpt lat="44.89027" lon="5.43701">
        <ele>1182</ele>
        <time>2020-05-21T16:32:08.519Z</time>
      </trkpt>
      <trkpt lat="44.89026" lon="5.43702">
        <ele>1183</ele>
        <time>2020-05-21T16:32:09.518Z</time>
      </trkpt>
      <trkpt lat="44.89026" lon="5.43702">
        <ele>1183</ele>
        <time>2020-05-21T16:32:10.519Z</time>
      </trkpt>
      <trkpt lat="44.89025" lon="5.43701">
        <ele>1183</ele>
        <time>2020-05-21T16:32:11.519Z</time>
      </trkpt>
      <trkpt lat="44.89025" lon="5.43702">
        <ele>1183</ele>
        <time>2020-05-21T16:32:12.519Z</time>
      </trkpt>
      <trkpt lat="44.89024" lon="5.43702">
        <ele>1182</ele>
        <time>2020-05-21T16:32:13.519Z</time>
      </trkpt>
      <trkpt lat="44.89023" lon="5.43703">
        <ele>1182</ele>
        <time>2020-05-21T16:32:14.519Z</time>
      </trkpt>
      <trkpt lat="44.89022" lon="5.43704">
        <ele>1182</ele>
        <time>2020-05-21T16:32:15.519Z</time>
      </trkpt>
      <trkpt lat="44.89022" lon="5.43705">
        <ele>1182</ele>
        <time>2020-05-21T16:32:16.519Z</time>
      </trkpt>
      <trkpt lat="44.8902" lon="5.43707">
        <ele>1182</ele>
        <time>2020-05-21T16:32:17.519Z</time>
      </trkpt>
      <trkpt lat="44.89019" lon="5.43708">
        <ele>1182</ele>
        <time>2020-05-21T16:32:18.518Z</time>
      </trkpt>
      <trkpt lat="44.89018" lon="5.43708">
        <ele>1182</ele>
        <time>2020-05-21T16:32:19.519Z</time>
      </trkpt>
      <trkpt lat="44.89017" lon="5.43709">
        <ele>1183</ele>
        <time>2020-05-21T16:32:20.518Z</time>
      </trkpt>
      <trkpt lat="44.89016" lon="5.43709">
        <ele>1183</ele>
        <time>2020-05-21T16:32:21.519Z</time>
      </trkpt>
      <trkpt lat="44.89015" lon="5.4371">
        <ele>1183</ele>
        <time>2020-05-21T16:32:22.519Z</time>
      </trkpt>
      <trkpt lat="44.89015" lon="5.43711">
        <ele>1184</ele>
        <time>2020-05-21T16:32:23.519Z</time>
      </trkpt>
      <trkpt lat="44.89015" lon="5.43711">
        <ele>1184</ele>
        <time>2020-05-21T16:32:24.519Z</time>
      </trkpt>
      <trkpt lat="44.89015" lon="5.43713">
        <ele>1185</ele>
        <time>2020-05-21T16:32:25.519Z</time>
      </trkpt>
      <trkpt lat="44.89015" lon="5.43713">
        <ele>1186</ele>
        <time>2020-05-21T16:32:26.519Z</time>
      </trkpt>
      <trkpt lat="44.89015" lon="5.43714">
        <ele>1187</ele>
        <time>2020-05-21T16:32:27.519Z</time>
      </trkpt>
      <trkpt lat="44.89016" lon="5.43715">
        <ele>1188</ele>
        <time>2020-05-21T16:32:28.519Z</time>
      </trkpt>
      <trkpt lat="44.89016" lon="5.43715">
        <ele>1189</ele>
        <time>2020-05-21T16:32:29.519Z</time>
      </trkpt>
      <trkpt lat="44.89017" lon="5.43716">
        <ele>1190</ele>
        <time>2020-05-21T16:32:30.519Z</time>
      </trkpt>
      <trkpt lat="44.89017" lon="5.43717">
        <ele>1191</ele>
        <time>2020-05-21T16:32:31.518Z</time>
      </trkpt>
      <trkpt lat="44.89018" lon="5.43717">
        <ele>1192</ele>
        <time>2020-05-21T16:32:32.518Z</time>
      </trkpt>
      <trkpt lat="44.89019" lon="5.43718">
        <ele>1193</ele>
        <time>2020-05-21T16:32:33.519Z</time>
      </trkpt>
      <trkpt lat="44.89021" lon="5.43718">
        <ele>1193</ele>
        <time>2020-05-21T16:32:34.519Z</time>
      </trkpt>
      <trkpt lat="44.89022" lon="5.43718">
        <ele>1194</ele>
        <time>2020-05-21T16:32:35.519Z</time>
      </trkpt>
      <trkpt lat="44.89024" lon="5.43718">
        <ele>1194</ele>
        <time>2020-05-21T16:32:36.519Z</time>
      </trkpt>
      <trkpt lat="44.89025" lon="5.43718">
        <ele>1194</ele>
        <time>2020-05-21T16:32:37.519Z</time>
      </trkpt>
      <trkpt lat="44.89026" lon="5.43717">
        <ele>1194</ele>
        <time>2020-05-21T16:32:38.519Z</time>
      </trkpt>
      <trkpt lat="44.89028" lon="5.43717">
        <ele>1194</ele>
        <time>2020-05-21T16:32:39.518Z</time>
      </trkpt>
      <trkpt lat="44.89029" lon="5.43716">
        <ele>1194</ele>
        <time>2020-05-21T16:32:40.519Z</time>
      </trkpt>
      <trkpt lat="44.89031" lon="5.43717">
        <ele>1194</ele>
        <time>2020-05-21T16:32:41.518Z</time>
      </trkpt>
      <trkpt lat="44.89032" lon="5.43717">
        <ele>1194</ele>
        <time>2020-05-21T16:32:42.519Z</time>
      </trkpt>
      <trkpt lat="44.89034" lon="5.43718">
        <ele>1194</ele>
        <time>2020-05-21T16:32:43.518Z</time>
      </trkpt>
      <trkpt lat="44.89035" lon="5.43718">
        <ele>1194</ele>
        <time>2020-05-21T16:32:44.519Z</time>
      </trkpt>
      <trkpt lat="44.89037" lon="5.43718">
        <ele>1194</ele>
        <time>2020-05-21T16:32:45.519Z</time>
      </trkpt>
      <trkpt lat="44.89038" lon="5.43719">
        <ele>1194</ele>
        <time>2020-05-21T16:32:46.519Z</time>
      </trkpt>
      <trkpt lat="44.8904" lon="5.43719">
        <ele>1194</ele>
        <time>2020-05-21T16:32:47.519Z</time>
      </trkpt>
      <trkpt lat="44.89042" lon="5.43719">
        <ele>1194</ele>
        <time>2020-05-21T16:32:48.518Z</time>
      </trkpt>
      <trkpt lat="44.89044" lon="5.43719">
        <ele>1194</ele>
        <time>2020-05-21T16:32:49.518Z</time>
      </trkpt>
      <trkpt lat="44.89045" lon="5.4372">
        <ele>1194</ele>
        <time>2020-05-21T16:32:50.519Z</time>
      </trkpt>
      <trkpt lat="44.89047" lon="5.4372">
        <ele>1194</ele>
        <time>2020-05-21T16:32:51.518Z</time>
      </trkpt>
      <trkpt lat="44.89049" lon="5.43721">
        <ele>1194</ele>
        <time>2020-05-21T16:32:52.519Z</time>
      </trkpt>
      <trkpt lat="44.8905" lon="5.43722">
        <ele>1194</ele>
        <time>2020-05-21T16:32:53.519Z</time>
      </trkpt>
      <trkpt lat="44.89052" lon="5.43722">
        <ele>1194</ele>
        <time>2020-05-21T16:32:54.519Z</time>
      </trkpt>
      <trkpt lat="44.89053" lon="5.43723">
        <ele>1194</ele>
        <time>2020-05-21T16:32:55.519Z</time>
      </trkpt>
      <trkpt lat="44.89054" lon="5.43723">
        <ele>1194</ele>
        <time>2020-05-21T16:32:56.519Z</time>
      </trkpt>
      <trkpt lat="44.89056" lon="5.43724">
        <ele>1195</ele>
        <time>2020-05-21T16:32:57.519Z</time>
      </trkpt>
      <trkpt lat="44.89057" lon="5.43725">
        <ele>1195</ele>
        <time>2020-05-21T16:32:58.519Z</time>
      </trkpt>
      <trkpt lat="44.89058" lon="5.43726">
        <ele>1196</ele>
        <time>2020-05-21T16:32:59.519Z</time>
      </trkpt>
      <trkpt lat="44.8906" lon="5.43727">
        <ele>1196</ele>
        <time>2020-05-21T16:33:00.519Z</time>
      </trkpt>
      <trkpt lat="44.89062" lon="5.43729">
        <ele>1196</ele>
        <time>2020-05-21T16:33:01.519Z</time>
      </trkpt>
      <trkpt lat="44.89063" lon="5.4373">
        <ele>1197</ele>
        <time>2020-05-21T16:33:02.518Z</time>
      </trkpt>
      <trkpt lat="44.89064" lon="5.43731">
        <ele>1197</ele>
        <time>2020-05-21T16:33:03.519Z</time>
      </trkpt>
      <trkpt lat="44.89064" lon="5.43731">
        <ele>1198</ele>
        <time>2020-05-21T16:33:04.519Z</time>
      </trkpt>
      <trkpt lat="44.89066" lon="5.43732">
        <ele>1198</ele>
        <time>2020-05-21T16:33:05.519Z</time>
      </trkpt>
      <trkpt lat="44.89066" lon="5.43733">
        <ele>1198</ele>
        <time>2020-05-21T16:33:06.519Z</time>
      </trkpt>
      <trkpt lat="44.89067" lon="5.43734">
        <ele>1199</ele>
        <time>2020-05-21T16:33:07.518Z</time>
      </trkpt>
      <trkpt lat="44.89068" lon="5.43735">
        <ele>1200</ele>
        <time>2020-05-21T16:33:08.518Z</time>
      </trkpt>
      <trkpt lat="44.89069" lon="5.43736">
        <ele>1200</ele>
        <time>2020-05-21T16:33:09.519Z</time>
      </trkpt>
      <trkpt lat="44.8907" lon="5.43736">
        <ele>1201</ele>
        <time>2020-05-21T16:33:10.519Z</time>
      </trkpt>
      <trkpt lat="44.89071" lon="5.43737">
        <ele>1201</ele>
        <time>2020-05-21T16:33:11.519Z</time>
      </trkpt>
      <trkpt lat="44.89071" lon="5.43737">
        <ele>1202</ele>
        <time>2020-05-21T16:33:12.518Z</time>
      </trkpt>
      <trkpt lat="44.89072" lon="5.43737">
        <ele>1202</ele>
        <time>2020-05-21T16:33:13.519Z</time>
      </trkpt>
      <trkpt lat="44.89072" lon="5.43739">
        <ele>1203</ele>
        <time>2020-05-21T16:33:14.519Z</time>
      </trkpt>
      <trkpt lat="44.89073" lon="5.43741">
        <ele>1204</ele>
        <time>2020-05-21T16:33:15.519Z</time>
      </trkpt>
      <trkpt lat="44.89073" lon="5.43742">
        <ele>1204</ele>
        <time>2020-05-21T16:33:16.519Z</time>
      </trkpt>
      <trkpt lat="44.89073" lon="5.43743">
        <ele>1205</ele>
        <time>2020-05-21T16:33:17.519Z</time>
      </trkpt>
      <trkpt lat="44.89073" lon="5.43744">
        <ele>1205</ele>
        <time>2020-05-21T16:33:18.518Z</time>
      </trkpt>
      <trkpt lat="44.89072" lon="5.43745">
        <ele>1206</ele>
        <time>2020-05-21T16:33:19.519Z</time>
      </trkpt>
      <trkpt lat="44.89071" lon="5.43746">
        <ele>1206</ele>
        <time>2020-05-21T16:33:20.519Z</time>
      </trkpt>
      <trkpt lat="44.89071" lon="5.43746">
        <ele>1206</ele>
        <time>2020-05-21T16:33:21.519Z</time>
      </trkpt>
      <trkpt lat="44.8907" lon="5.43747">
        <ele>1206</ele>
        <time>2020-05-21T16:33:22.519Z</time>
      </trkpt>
      <trkpt lat="44.8907" lon="5.43747">
        <ele>1207</ele>
        <time>2020-05-21T16:33:23.518Z</time>
      </trkpt>
      <trkpt lat="44.89069" lon="5.43748">
        <ele>1207</ele>
        <time>2020-05-21T16:33:24.519Z</time>
      </trkpt>
      <trkpt lat="44.89069" lon="5.43749">
        <ele>1207</ele>
        <time>2020-05-21T16:33:25.518Z</time>
      </trkpt>
      <trkpt lat="44.89069" lon="5.4375">
        <ele>1207</ele>
        <time>2020-05-21T16:33:26.519Z</time>
      </trkpt>
      <trkpt lat="44.89068" lon="5.4375">
        <ele>1207</ele>
        <time>2020-05-21T16:33:27.519Z</time>
      </trkpt>
      <trkpt lat="44.89068" lon="5.43751">
        <ele>1208</ele>
        <time>2020-05-21T16:33:28.519Z</time>
      </trkpt>
      <trkpt lat="44.89067" lon="5.43752">
        <ele>1208</ele>
        <time>2020-05-21T16:33:29.519Z</time>
      </trkpt>
      <trkpt lat="44.89066" lon="5.43752">
        <ele>1208</ele>
        <time>2020-05-21T16:33:30.518Z</time>
      </trkpt>
      <trkpt lat="44.89065" lon="5.43752">
        <ele>1208</ele>
        <time>2020-05-21T16:33:31.519Z</time>
      </trkpt>
      <trkpt lat="44.89064" lon="5.43752">
        <ele>1209</ele>
        <time>2020-05-21T16:33:32.519Z</time>
      </trkpt>
      <trkpt lat="44.89063" lon="5.43752">
        <ele>1209</ele>
        <time>2020-05-21T16:33:33.519Z</time>
      </trkpt>
      <trkpt lat="44.89062" lon="5.43752">
        <ele>1209</ele>
        <time>2020-05-21T16:33:34.519Z</time>
      </trkpt>
      <trkpt lat="44.89061" lon="5.43753">
        <ele>1210</ele>
        <time>2020-05-21T16:33:35.519Z</time>
      </trkpt>
      <trkpt lat="44.8906" lon="5.43754">
        <ele>1210</ele>
        <time>2020-05-21T16:33:36.519Z</time>
      </trkpt>
      <trkpt lat="44.8906" lon="5.43754">
        <ele>1210</ele>
        <time>2020-05-21T16:33:37.518Z</time>
      </trkpt>
      <trkpt lat="44.89059" lon="5.43754">
        <ele>1210</ele>
        <time>2020-05-21T16:33:38.519Z</time>
      </trkpt>
      <trkpt lat="44.89057" lon="5.43755">
        <ele>1210</ele>
        <time>2020-05-21T16:33:39.519Z</time>
      </trkpt>
      <trkpt lat="44.89055" lon="5.43756">
        <ele>1211</ele>
        <time>2020-05-21T16:33:40.519Z</time>
      </trkpt>
      <trkpt lat="44.89054" lon="5.43757">
        <ele>1211</ele>
        <time>2020-05-21T16:33:41.519Z</time>
      </trkpt>
      <trkpt lat="44.89053" lon="5.43758">
        <ele>1211</ele>
        <time>2020-05-21T16:33:42.518Z</time>
      </trkpt>
      <trkpt lat="44.89052" lon="5.43759">
        <ele>1212</ele>
        <time>2020-05-21T16:33:43.519Z</time>
      </trkpt>
      <trkpt lat="44.89051" lon="5.4376">
        <ele>1212</ele>
        <time>2020-05-21T16:33:44.519Z</time>
      </trkpt>
      <trkpt lat="44.8905" lon="5.4376">
        <ele>1213</ele>
        <time>2020-05-21T16:33:45.518Z</time>
      </trkpt>
      <trkpt lat="44.89049" lon="5.4376">
        <ele>1213</ele>
        <time>2020-05-21T16:33:46.519Z</time>
      </trkpt>
      <trkpt lat="44.89047" lon="5.43761">
        <ele>1214</ele>
        <time>2020-05-21T16:33:47.519Z</time>
      </trkpt>
      <trkpt lat="44.89046" lon="5.43763">
        <ele>1214</ele>
        <time>2020-05-21T16:33:48.519Z</time>
      </trkpt>
      <trkpt lat="44.89045" lon="5.43764">
        <ele>1215</ele>
        <time>2020-05-21T16:33:49.518Z</time>
      </trkpt>
      <trkpt lat="44.89044" lon="5.43764">
        <ele>1215</ele>
        <time>2020-05-21T16:33:50.519Z</time>
      </trkpt>
      <trkpt lat="44.89043" lon="5.43765">
        <ele>1215</ele>
        <time>2020-05-21T16:33:51.518Z</time>
      </trkpt>
      <trkpt lat="44.89042" lon="5.43766">
        <ele>1215</ele>
        <time>2020-05-21T16:33:52.519Z</time>
      </trkpt>
      <trkpt lat="44.8904" lon="5.43766">
        <ele>1216</ele>
        <time>2020-05-21T16:33:53.519Z</time>
      </trkpt>
      <trkpt lat="44.89039" lon="5.43768">
        <ele>1216</ele>
        <time>2020-05-21T16:33:54.519Z</time>
      </trkpt>
      <trkpt lat="44.89038" lon="5.43768">
        <ele>1215</ele>
        <time>2020-05-21T16:33:55.519Z</time>
      </trkpt>
      <trkpt lat="44.89037" lon="5.43769">
        <ele>1215</ele>
        <time>2020-05-21T16:33:56.519Z</time>
      </trkpt>
      <trkpt lat="44.89037" lon="5.4377">
        <ele>1215</ele>
        <time>2020-05-21T16:33:57.519Z</time>
      </trkpt>
      <trkpt lat="44.89037" lon="5.43771">
        <ele>1215</ele>
        <time>2020-05-21T16:33:58.519Z</time>
      </trkpt>
      <trkpt lat="44.89036" lon="5.43772">
        <ele>1215</ele>
        <time>2020-05-21T16:33:59.519Z</time>
      </trkpt>
      <trkpt lat="44.89036" lon="5.43772">
        <ele>1216</ele>
        <time>2020-05-21T16:34:00.518Z</time>
      </trkpt>
      <trkpt lat="44.89037" lon="5.43773">
        <ele>1216</ele>
        <time>2020-05-21T16:34:01.519Z</time>
      </trkpt>
      <trkpt lat="44.89037" lon="5.43774">
        <ele>1216</ele>
        <time>2020-05-21T16:34:02.519Z</time>
      </trkpt>
      <trkpt lat="44.89038" lon="5.43775">
        <ele>1217</ele>
        <time>2020-05-21T16:34:03.519Z</time>
      </trkpt>
      <trkpt lat="44.89039" lon="5.43776">
        <ele>1217</ele>
        <time>2020-05-21T16:34:04.519Z</time>
      </trkpt>
      <trkpt lat="44.89039" lon="5.43777">
        <ele>1217</ele>
        <time>2020-05-21T16:34:05.518Z</time>
      </trkpt>
      <trkpt lat="44.8904" lon="5.43778">
        <ele>1218</ele>
        <time>2020-05-21T16:34:06.519Z</time>
      </trkpt>
      <trkpt lat="44.89041" lon="5.43778">
        <ele>1218</ele>
        <time>2020-05-21T16:34:07.519Z</time>
      </trkpt>
      <trkpt lat="44.89041" lon="5.43779">
        <ele>1219</ele>
        <time>2020-05-21T16:34:08.519Z</time>
      </trkpt>
      <trkpt lat="44.89042" lon="5.43779">
        <ele>1220</ele>
        <time>2020-05-21T16:34:09.519Z</time>
      </trkpt>
      <trkpt lat="44.89033" lon="5.43775">
        <ele>1226</ele>
        <time>2020-05-21T16:34:10.519Z</time>
      </trkpt>
      <trkpt lat="44.89033" lon="5.43775">
        <ele>1226</ele>
        <time>2020-05-21T16:34:11.518Z</time>
      </trkpt>
      <trkpt lat="44.89033" lon="5.43775">
        <ele>1226</ele>
        <time>2020-05-21T16:34:12.518Z</time>
      </trkpt>
      <trkpt lat="44.89033" lon="5.43775">
        <ele>1227</ele>
        <time>2020-05-21T16:34:13.519Z</time>
      </trkpt>
      <trkpt lat="44.89033" lon="5.43775">
        <ele>1227</ele>
        <time>2020-05-21T16:34:14.519Z</time>
      </trkpt>
      <trkpt lat="44.89033" lon="5.43775">
        <ele>1227</ele>
        <time>2020-05-21T16:34:15.519Z</time>
      </trkpt>
      <trkpt lat="44.89033" lon="5.43775">
        <ele>1227</ele>
        <time>2020-05-21T16:34:16.519Z</time>
      </trkpt>
      <trkpt lat="44.89033" lon="5.43775">
        <ele>1227</ele>
        <time>2020-05-21T16:34:17.519Z</time>
      </trkpt>
      <trkpt lat="44.89033" lon="5.43775">
        <ele>1227</ele>
        <time>2020-05-21T16:34:18.519Z</time>
      </trkpt>
      <trkpt lat="44.89033" lon="5.43775">
        <ele>1227</ele>
        <time>2020-05-21T16:34:19.519Z</time>
      </trkpt>
      <trkpt lat="44.89033" lon="5.43775">
        <ele>1227</ele>
        <time>2020-05-21T16:34:20.519Z</time>
      </trkpt>
      <trkpt lat="44.89033" lon="5.43775">
        <ele>1227</ele>
        <time>2020-05-21T16:34:21.519Z</time>
      </trkpt>
      <trkpt lat="44.89033" lon="5.43775">
        <ele>1227</ele>
        <time>2020-05-21T16:34:22.519Z</time>
      </trkpt>
      <trkpt lat="44.89033" lon="5.43775">
        <ele>1227</ele>
        <time>2020-05-21T16:34:23.519Z</time>
      </trkpt>
      <trkpt lat="44.89033" lon="5.43775">
        <ele>1227</ele>
        <time>2020-05-21T16:34:24.519Z</time>
      </trkpt>
      <trkpt lat="44.89033" lon="5.43775">
        <ele>1227</ele>
        <time>2020-05-21T16:34:25.518Z</time>
      </trkpt>
      <trkpt lat="44.89033" lon="5.43775">
        <ele>1227</ele>
        <time>2020-05-21T16:34:26.519Z</time>
      </trkpt>
      <trkpt lat="44.89033" lon="5.43775">
        <ele>1227</ele>
        <time>2020-05-21T16:34:27.519Z</time>
      </trkpt>
      <trkpt lat="44.89034" lon="5.43776">
        <ele>1227</ele>
        <time>2020-05-21T16:34:28.518Z</time>
      </trkpt>
      <trkpt lat="44.89035" lon="5.43778">
        <ele>1227</ele>
        <time>2020-05-21T16:34:29.519Z</time>
      </trkpt>
      <trkpt lat="44.89036" lon="5.4378">
        <ele>1227</ele>
        <time>2020-05-21T16:34:30.519Z</time>
      </trkpt>
      <trkpt lat="44.89038" lon="5.43782">
        <ele>1227</ele>
        <time>2020-05-21T16:34:31.519Z</time>
      </trkpt>
      <trkpt lat="44.8904" lon="5.43784">
        <ele>1227</ele>
        <time>2020-05-21T16:34:32.518Z</time>
      </trkpt>
      <trkpt lat="44.89041" lon="5.43785">
        <ele>1227</ele>
        <time>2020-05-21T16:34:33.519Z</time>
      </trkpt>
      <trkpt lat="44.89043" lon="5.43787">
        <ele>1227</ele>
        <time>2020-05-21T16:34:34.519Z</time>
      </trkpt>
      <trkpt lat="44.89045" lon="5.43788">
        <ele>1227</ele>
        <time>2020-05-21T16:34:35.519Z</time>
      </trkpt>
      <trkpt lat="44.89047" lon="5.43789">
        <ele>1227</ele>
        <time>2020-05-21T16:34:36.519Z</time>
      </trkpt>
      <trkpt lat="44.89048" lon="5.43791">
        <ele>1226</ele>
        <time>2020-05-21T16:34:37.518Z</time>
      </trkpt>
      <trkpt lat="44.89049" lon="5.43792">
        <ele>1226</ele>
        <time>2020-05-21T16:34:38.519Z</time>
      </trkpt>
      <trkpt lat="44.8905" lon="5.43792">
        <ele>1226</ele>
        <time>2020-05-21T16:34:39.519Z</time>
      </trkpt>
      <trkpt lat="44.89051" lon="5.43792">
        <ele>1226</ele>
        <time>2020-05-21T16:34:40.519Z</time>
      </trkpt>
      <trkpt lat="44.89052" lon="5.43791">
        <ele>1226</ele>
        <time>2020-05-21T16:34:41.519Z</time>
      </trkpt>
      <trkpt lat="44.89053" lon="5.43791">
        <ele>1226</ele>
        <time>2020-05-21T16:34:42.519Z</time>
      </trkpt>
      <trkpt lat="44.89053" lon="5.43791">
        <ele>1226</ele>
        <time>2020-05-21T16:34:43.518Z</time>
      </trkpt>
      <trkpt lat="44.89055" lon="5.43791">
        <ele>1226</ele>
        <time>2020-05-21T16:34:44.519Z</time>
      </trkpt>
      <trkpt lat="44.89056" lon="5.43791">
        <ele>1226</ele>
        <time>2020-05-21T16:34:45.519Z</time>
      </trkpt>
      <trkpt lat="44.89057" lon="5.43791">
        <ele>1226</ele>
        <time>2020-05-21T16:34:46.519Z</time>
      </trkpt>
      <trkpt lat="44.89058" lon="5.43792">
        <ele>1227</ele>
        <time>2020-05-21T16:34:47.518Z</time>
      </trkpt>
      <trkpt lat="44.89059" lon="5.43792">
        <ele>1227</ele>
        <time>2020-05-21T16:34:48.518Z</time>
      </trkpt>
      <trkpt lat="44.8906" lon="5.43793">
        <ele>1227</ele>
        <time>2020-05-21T16:34:49.519Z</time>
      </trkpt>
      <trkpt lat="44.89061" lon="5.43793">
        <ele>1227</ele>
        <time>2020-05-21T16:34:50.519Z</time>
      </trkpt>
      <trkpt lat="44.89062" lon="5.43794">
        <ele>1227</ele>
        <time>2020-05-21T16:34:51.519Z</time>
      </trkpt>
      <trkpt lat="44.89063" lon="5.43793">
        <ele>1228</ele>
        <time>2020-05-21T16:34:52.519Z</time>
      </trkpt>
      <trkpt lat="44.89063" lon="5.43793">
        <ele>1228</ele>
        <time>2020-05-21T16:34:53.518Z</time>
      </trkpt>
      <trkpt lat="44.89064" lon="5.43793">
        <ele>1228</ele>
        <time>2020-05-21T16:34:54.519Z</time>
      </trkpt>
      <trkpt lat="44.89064" lon="5.43793">
        <ele>1228</ele>
        <time>2020-05-21T16:34:55.519Z</time>
      </trkpt>
      <trkpt lat="44.89065" lon="5.43793">
        <ele>1228</ele>
        <time>2020-05-21T16:34:56.518Z</time>
      </trkpt>
      <trkpt lat="44.89065" lon="5.43793">
        <ele>1228</ele>
        <time>2020-05-21T16:34:57.519Z</time>
      </trkpt>
      <trkpt lat="44.89066" lon="5.43794">
        <ele>1228</ele>
        <time>2020-05-21T16:34:58.519Z</time>
      </trkpt>
      <trkpt lat="44.89067" lon="5.43795">
        <ele>1228</ele>
        <time>2020-05-21T16:34:59.519Z</time>
      </trkpt>
      <trkpt lat="44.89068" lon="5.43796">
        <ele>1228</ele>
        <time>2020-05-21T16:35:00.519Z</time>
      </trkpt>
      <trkpt lat="44.8907" lon="5.43797">
        <ele>1228</ele>
        <time>2020-05-21T16:35:01.518Z</time>
      </trkpt>
      <trkpt lat="44.89071" lon="5.43797">
        <ele>1228</ele>
        <time>2020-05-21T16:35:02.519Z</time>
      </trkpt>
      <trkpt lat="44.89072" lon="5.43797">
        <ele>1228</ele>
        <time>2020-05-21T16:35:03.518Z</time>
      </trkpt>
      <trkpt lat="44.89073" lon="5.43797">
        <ele>1228</ele>
        <time>2020-05-21T16:35:04.519Z</time>
      </trkpt>
      <trkpt lat="44.89073" lon="5.43798">
        <ele>1228</ele>
        <time>2020-05-21T16:35:05.518Z</time>
      </trkpt>
      <trkpt lat="44.89074" lon="5.43799">
        <ele>1228</ele>
        <time>2020-05-21T16:35:06.519Z</time>
      </trkpt>
      <trkpt lat="44.89075" lon="5.438">
        <ele>1228</ele>
        <time>2020-05-21T16:35:07.519Z</time>
      </trkpt>
      <trkpt lat="44.89075" lon="5.43801">
        <ele>1228</ele>
        <time>2020-05-21T16:35:08.519Z</time>
      </trkpt>
      <trkpt lat="44.89076" lon="5.43802">
        <ele>1228</ele>
        <time>2020-05-21T16:35:09.519Z</time>
      </trkpt>
      <trkpt lat="44.89076" lon="5.43802">
        <ele>1229</ele>
        <time>2020-05-21T16:35:10.519Z</time>
      </trkpt>
      <trkpt lat="44.89076" lon="5.43802">
        <ele>1229</ele>
        <time>2020-05-21T16:35:11.519Z</time>
      </trkpt>
      <trkpt lat="44.89076" lon="5.43803">
        <ele>1229</ele>
        <time>2020-05-21T16:35:12.519Z</time>
      </trkpt>
      <trkpt lat="44.89075" lon="5.43803">
        <ele>1230</ele>
        <time>2020-05-21T16:35:13.519Z</time>
      </trkpt>
      <trkpt lat="44.89075" lon="5.43803">
        <ele>1230</ele>
        <time>2020-05-21T16:35:14.519Z</time>
      </trkpt>
      <trkpt lat="44.89075" lon="5.43803">
        <ele>1231</ele>
        <time>2020-05-21T16:35:15.519Z</time>
      </trkpt>
      <trkpt lat="44.89075" lon="5.43804">
        <ele>1231</ele>
        <time>2020-05-21T16:35:16.519Z</time>
      </trkpt>
      <trkpt lat="44.89075" lon="5.43804">
        <ele>1232</ele>
        <time>2020-05-21T16:35:17.519Z</time>
      </trkpt>
      <trkpt lat="44.89075" lon="5.43805">
        <ele>1232</ele>
        <time>2020-05-21T16:35:18.519Z</time>
      </trkpt>
      <trkpt lat="44.89075" lon="5.43807">
        <ele>1232</ele>
        <time>2020-05-21T16:35:19.519Z</time>
      </trkpt>
      <trkpt lat="44.89075" lon="5.43808">
        <ele>1232</ele>
        <time>2020-05-21T16:35:20.519Z</time>
      </trkpt>
      <trkpt lat="44.89074" lon="5.43808">
        <ele>1233</ele>
        <time>2020-05-21T16:35:21.518Z</time>
      </trkpt>
      <trkpt lat="44.89073" lon="5.43809">
        <ele>1233</ele>
        <time>2020-05-21T16:35:22.518Z</time>
      </trkpt>
      <trkpt lat="44.89072" lon="5.43809">
        <ele>1234</ele>
        <time>2020-05-21T16:35:23.519Z</time>
      </trkpt>
      <trkpt lat="44.89071" lon="5.4381">
        <ele>1234</ele>
        <time>2020-05-21T16:35:24.519Z</time>
      </trkpt>
      <trkpt lat="44.89071" lon="5.43811">
        <ele>1235</ele>
        <time>2020-05-21T16:35:25.518Z</time>
      </trkpt>
      <trkpt lat="44.89069" lon="5.43812">
        <ele>1235</ele>
        <time>2020-05-21T16:35:26.519Z</time>
      </trkpt>
      <trkpt lat="44.89069" lon="5.43813">
        <ele>1235</ele>
        <time>2020-05-21T16:35:27.518Z</time>
      </trkpt>
      <trkpt lat="44.89068" lon="5.43813">
        <ele>1235</ele>
        <time>2020-05-21T16:35:28.519Z</time>
      </trkpt>
      <trkpt lat="44.89067" lon="5.43813">
        <ele>1235</ele>
        <time>2020-05-21T16:35:29.519Z</time>
      </trkpt>
      <trkpt lat="44.89066" lon="5.43814">
        <ele>1235</ele>
        <time>2020-05-21T16:35:30.519Z</time>
      </trkpt>
      <trkpt lat="44.89065" lon="5.43814">
        <ele>1236</ele>
        <time>2020-05-21T16:35:31.519Z</time>
      </trkpt>
      <trkpt lat="44.89064" lon="5.43815">
        <ele>1236</ele>
        <time>2020-05-21T16:35:32.519Z</time>
      </trkpt>
      <trkpt lat="44.89064" lon="5.43816">
        <ele>1236</ele>
        <time>2020-05-21T16:35:33.519Z</time>
      </trkpt>
      <trkpt lat="44.89063" lon="5.43817">
        <ele>1236</ele>
        <time>2020-05-21T16:35:34.519Z</time>
      </trkpt>
      <trkpt lat="44.89063" lon="5.43817">
        <ele>1237</ele>
        <time>2020-05-21T16:35:35.519Z</time>
      </trkpt>
      <trkpt lat="44.89062" lon="5.43818">
        <ele>1237</ele>
        <time>2020-05-21T16:35:36.518Z</time>
      </trkpt>
      <trkpt lat="44.8906" lon="5.43818">
        <ele>1237</ele>
        <time>2020-05-21T16:35:37.519Z</time>
      </trkpt>
      <trkpt lat="44.89059" lon="5.43818">
        <ele>1238</ele>
        <time>2020-05-21T16:35:38.519Z</time>
      </trkpt>
      <trkpt lat="44.89058" lon="5.43819">
        <ele>1238</ele>
        <time>2020-05-21T16:35:39.519Z</time>
      </trkpt>
      <trkpt lat="44.89058" lon="5.4382">
        <ele>1238</ele>
        <time>2020-05-21T16:35:40.519Z</time>
      </trkpt>
      <trkpt lat="44.89056" lon="5.4382">
        <ele>1238</ele>
        <time>2020-05-21T16:35:41.519Z</time>
      </trkpt>
      <trkpt lat="44.89055" lon="5.43821">
        <ele>1238</ele>
        <time>2020-05-21T16:35:42.519Z</time>
      </trkpt>
      <trkpt lat="44.89054" lon="5.43821">
        <ele>1238</ele>
        <time>2020-05-21T16:35:43.519Z</time>
      </trkpt>
      <trkpt lat="44.89054" lon="5.43822">
        <ele>1238</ele>
        <time>2020-05-21T16:35:44.519Z</time>
      </trkpt>
      <trkpt lat="44.89053" lon="5.43823">
        <ele>1238</ele>
        <time>2020-05-21T16:35:45.519Z</time>
      </trkpt>
      <trkpt lat="44.89052" lon="5.43823">
        <ele>1238</ele>
        <time>2020-05-21T16:35:46.518Z</time>
      </trkpt>
      <trkpt lat="44.89052" lon="5.43824">
        <ele>1238</ele>
        <time>2020-05-21T16:35:47.519Z</time>
      </trkpt>
      <trkpt lat="44.89051" lon="5.43824">
        <ele>1238</ele>
        <time>2020-05-21T16:35:48.519Z</time>
      </trkpt>
      <trkpt lat="44.89051" lon="5.43825">
        <ele>1238</ele>
        <time>2020-05-21T16:35:49.518Z</time>
      </trkpt>
      <trkpt lat="44.8905" lon="5.43825">
        <ele>1239</ele>
        <time>2020-05-21T16:35:50.519Z</time>
      </trkpt>
      <trkpt lat="44.89048" lon="5.43824">
        <ele>1239</ele>
        <time>2020-05-21T16:35:51.519Z</time>
      </trkpt>
      <trkpt lat="44.89046" lon="5.43823">
        <ele>1240</ele>
        <time>2020-05-21T16:35:52.519Z</time>
      </trkpt>
      <trkpt lat="44.89045" lon="5.43824">
        <ele>1240</ele>
        <time>2020-05-21T16:35:53.519Z</time>
      </trkpt>
      <trkpt lat="44.89044" lon="5.43824">
        <ele>1240</ele>
        <time>2020-05-21T16:35:54.519Z</time>
      </trkpt>
      <trkpt lat="44.89043" lon="5.43825">
        <ele>1241</ele>
        <time>2020-05-21T16:35:55.519Z</time>
      </trkpt>
      <trkpt lat="44.89042" lon="5.43826">
        <ele>1241</ele>
        <time>2020-05-21T16:35:56.518Z</time>
      </trkpt>
      <trkpt lat="44.89041" lon="5.43827">
        <ele>1242</ele>
        <time>2020-05-21T16:35:57.519Z</time>
      </trkpt>
      <trkpt lat="44.8904" lon="5.43828">
        <ele>1242</ele>
        <time>2020-05-21T16:35:58.519Z</time>
      </trkpt>
      <trkpt lat="44.8904" lon="5.43829">
        <ele>1242</ele>
        <time>2020-05-21T16:35:59.519Z</time>
      </trkpt>
      <trkpt lat="44.8904" lon="5.4383">
        <ele>1243</ele>
        <time>2020-05-21T16:36:00.519Z</time>
      </trkpt>
      <trkpt lat="44.8904" lon="5.43831">
        <ele>1243</ele>
        <time>2020-05-21T16:36:01.519Z</time>
      </trkpt>
      <trkpt lat="44.8904" lon="5.43831">
        <ele>1243</ele>
        <time>2020-05-21T16:36:02.519Z</time>
      </trkpt>
      <trkpt lat="44.89039" lon="5.43831">
        <ele>1243</ele>
        <time>2020-05-21T16:36:03.519Z</time>
      </trkpt>
      <trkpt lat="44.89038" lon="5.43831">
        <ele>1243</ele>
        <time>2020-05-21T16:36:04.519Z</time>
      </trkpt>
      <trkpt lat="44.89037" lon="5.4383">
        <ele>1243</ele>
        <time>2020-05-21T16:36:05.519Z</time>
      </trkpt>
      <trkpt lat="44.89036" lon="5.4383">
        <ele>1244</ele>
        <time>2020-05-21T16:36:06.519Z</time>
      </trkpt>
      <trkpt lat="44.89035" lon="5.4383">
        <ele>1244</ele>
        <time>2020-05-21T16:36:07.519Z</time>
      </trkpt>
      <trkpt lat="44.89035" lon="5.4383">
        <ele>1244</ele>
        <time>2020-05-21T16:36:08.519Z</time>
      </trkpt>
      <trkpt lat="44.89035" lon="5.43831">
        <ele>1244</ele>
        <time>2020-05-21T16:36:09.519Z</time>
      </trkpt>
      <trkpt lat="44.89034" lon="5.43831">
        <ele>1244</ele>
        <time>2020-05-21T16:36:10.518Z</time>
      </trkpt>
      <trkpt lat="44.89033" lon="5.43831">
        <ele>1244</ele>
        <time>2020-05-21T16:36:11.519Z</time>
      </trkpt>
      <trkpt lat="44.89033" lon="5.43831">
        <ele>1244</ele>
        <time>2020-05-21T16:36:12.519Z</time>
      </trkpt>
      <trkpt lat="44.89032" lon="5.4383">
        <ele>1243</ele>
        <time>2020-05-21T16:36:13.518Z</time>
      </trkpt>
      <trkpt lat="44.89032" lon="5.4383">
        <ele>1243</ele>
        <time>2020-05-21T16:36:14.519Z</time>
      </trkpt>
      <trkpt lat="44.89031" lon="5.43828">
        <ele>1242</ele>
        <time>2020-05-21T16:36:15.519Z</time>
      </trkpt>
      <trkpt lat="44.8903" lon="5.43827">
        <ele>1242</ele>
        <time>2020-05-21T16:36:16.519Z</time>
      </trkpt>
      <trkpt lat="44.89029" lon="5.43827">
        <ele>1242</ele>
        <time>2020-05-21T16:36:17.519Z</time>
      </trkpt>
      <trkpt lat="44.89027" lon="5.43827">
        <ele>1242</ele>
        <time>2020-05-21T16:36:18.519Z</time>
      </trkpt>
      <trkpt lat="44.89026" lon="5.43826">
        <ele>1242</ele>
        <time>2020-05-21T16:36:19.518Z</time>
      </trkpt>
      <trkpt lat="44.89025" lon="5.43826">
        <ele>1242</ele>
        <time>2020-05-21T16:36:20.519Z</time>
      </trkpt>
      <trkpt lat="44.89024" lon="5.43825">
        <ele>1242</ele>
        <time>2020-05-21T16:36:21.519Z</time>
      </trkpt>
      <trkpt lat="44.89024" lon="5.43825">
        <ele>1243</ele>
        <time>2020-05-21T16:36:22.519Z</time>
      </trkpt>
      <trkpt lat="44.89022" lon="5.43824">
        <ele>1244</ele>
        <time>2020-05-21T16:36:23.519Z</time>
      </trkpt>
      <trkpt lat="44.89021" lon="5.43824">
        <ele>1244</ele>
        <time>2020-05-21T16:36:24.519Z</time>
      </trkpt>
      <trkpt lat="44.8902" lon="5.43824">
        <ele>1245</ele>
        <time>2020-05-21T16:36:25.519Z</time>
      </trkpt>
      <trkpt lat="44.89018" lon="5.43824">
        <ele>1245</ele>
        <time>2020-05-21T16:36:26.518Z</time>
      </trkpt>
      <trkpt lat="44.89018" lon="5.43824">
        <ele>1245</ele>
        <time>2020-05-21T16:36:27.519Z</time>
      </trkpt>
      <trkpt lat="44.89017" lon="5.43824">
        <ele>1246</ele>
        <time>2020-05-21T16:36:28.519Z</time>
      </trkpt>
      <trkpt lat="44.89016" lon="5.43824">
        <ele>1245</ele>
        <time>2020-05-21T16:36:29.519Z</time>
      </trkpt>
      <trkpt lat="44.89015" lon="5.43824">
        <ele>1245</ele>
        <time>2020-05-21T16:36:30.519Z</time>
      </trkpt>
      <trkpt lat="44.89015" lon="5.43824">
        <ele>1245</ele>
        <time>2020-05-21T16:36:31.518Z</time>
      </trkpt>
      <trkpt lat="44.89014" lon="5.43826">
        <ele>1245</ele>
        <time>2020-05-21T16:36:32.519Z</time>
      </trkpt>
      <trkpt lat="44.89013" lon="5.43826">
        <ele>1245</ele>
        <time>2020-05-21T16:36:33.519Z</time>
      </trkpt>
      <trkpt lat="44.89011" lon="5.43826">
        <ele>1245</ele>
        <time>2020-05-21T16:36:34.519Z</time>
      </trkpt>
      <trkpt lat="44.89011" lon="5.43827">
        <ele>1245</ele>
        <time>2020-05-21T16:36:35.519Z</time>
      </trkpt>
      <trkpt lat="44.89007" lon="5.43826">
        <ele>1246</ele>
        <time>2020-05-21T16:36:36.520Z</time>
      </trkpt>
      <trkpt lat="44.89007" lon="5.43826">
        <ele>1246</ele>
        <time>2020-05-21T16:36:37.520Z</time>
      </trkpt>
      <trkpt lat="44.89007" lon="5.43826">
        <ele>1246</ele>
        <time>2020-05-21T16:36:38.519Z</time>
      </trkpt>
      <trkpt lat="44.89007" lon="5.43826">
        <ele>1246</ele>
        <time>2020-05-21T16:36:39.520Z</time>
      </trkpt>
      <trkpt lat="44.89007" lon="5.43826">
        <ele>1246</ele>
        <time>2020-05-21T16:36:40.519Z</time>
      </trkpt>
      <trkpt lat="44.89007" lon="5.43826">
        <ele>1246</ele>
        <time>2020-05-21T16:36:41.520Z</time>
      </trkpt>
      <trkpt lat="44.89006" lon="5.43826">
        <ele>1246</ele>
        <time>2020-05-21T16:36:42.520Z</time>
      </trkpt>
      <trkpt lat="44.89006" lon="5.43826">
        <ele>1246</ele>
        <time>2020-05-21T16:36:43.520Z</time>
      </trkpt>
      <trkpt lat="44.89006" lon="5.43826">
        <ele>1246</ele>
        <time>2020-05-21T16:36:44.519Z</time>
      </trkpt>
      <trkpt lat="44.89006" lon="5.43826">
        <ele>1246</ele>
        <time>2020-05-21T16:36:45.519Z</time>
      </trkpt>
      <trkpt lat="44.89006" lon="5.43826">
        <ele>1246</ele>
        <time>2020-05-21T16:36:46.520Z</time>
      </trkpt>
      <trkpt lat="44.89006" lon="5.43826">
        <ele>1246</ele>
        <time>2020-05-21T16:36:47.520Z</time>
      </trkpt>
      <trkpt lat="44.89006" lon="5.43826">
        <ele>1246</ele>
        <time>2020-05-21T16:36:48.520Z</time>
      </trkpt>
      <trkpt lat="44.89006" lon="5.43826">
        <ele>1246</ele>
        <time>2020-05-21T16:36:49.520Z</time>
      </trkpt>
      <trkpt lat="44.89006" lon="5.43826">
        <ele>1246</ele>
        <time>2020-05-21T16:36:50.520Z</time>
      </trkpt>
      <trkpt lat="44.89006" lon="5.43826">
        <ele>1246</ele>
        <time>2020-05-21T16:36:51.520Z</time>
      </trkpt>
      <trkpt lat="44.89006" lon="5.43826">
        <ele>1246</ele>
        <time>2020-05-21T16:36:52.520Z</time>
      </trkpt>
      <trkpt lat="44.89005" lon="5.43827">
        <ele>1246</ele>
        <time>2020-05-21T16:36:53.520Z</time>
      </trkpt>
      <trkpt lat="44.89004" lon="5.43828">
        <ele>1246</ele>
        <time>2020-05-21T16:36:54.519Z</time>
      </trkpt>
      <trkpt lat="44.89003" lon="5.43829">
        <ele>1246</ele>
        <time>2020-05-21T16:36:55.520Z</time>
      </trkpt>
      <trkpt lat="44.89002" lon="5.4383">
        <ele>1246</ele>
        <time>2020-05-21T16:36:56.520Z</time>
      </trkpt>
      <trkpt lat="44.89001" lon="5.43831">
        <ele>1246</ele>
        <time>2020-05-21T16:36:57.520Z</time>
      </trkpt>
      <trkpt lat="44.89" lon="5.43832">
        <ele>1247</ele>
        <time>2020-05-21T16:36:58.520Z</time>
      </trkpt>
      <trkpt lat="44.88999" lon="5.43834">
        <ele>1247</ele>
        <time>2020-05-21T16:36:59.520Z</time>
      </trkpt>
      <trkpt lat="44.88998" lon="5.43836">
        <ele>1247</ele>
        <time>2020-05-21T16:37:00.520Z</time>
      </trkpt>
      <trkpt lat="44.88997" lon="5.43838">
        <ele>1248</ele>
        <time>2020-05-21T16:37:01.520Z</time>
      </trkpt>
      <trkpt lat="44.88996" lon="5.43839">
        <ele>1247</ele>
        <time>2020-05-21T16:37:02.519Z</time>
      </trkpt>
      <trkpt lat="44.88996" lon="5.4384">
        <ele>1247</ele>
        <time>2020-05-21T16:37:03.520Z</time>
      </trkpt>
      <trkpt lat="44.88995" lon="5.43841">
        <ele>1248</ele>
        <time>2020-05-21T16:37:04.520Z</time>
      </trkpt>
      <trkpt lat="44.88995" lon="5.43841">
        <ele>1248</ele>
        <time>2020-05-21T16:37:05.520Z</time>
      </trkpt>
      <trkpt lat="44.88995" lon="5.43842">
        <ele>1248</ele>
        <time>2020-05-21T16:37:06.520Z</time>
      </trkpt>
      <trkpt lat="44.88994" lon="5.43844">
        <ele>1249</ele>
        <time>2020-05-21T16:37:07.520Z</time>
      </trkpt>
      <trkpt lat="44.88992" lon="5.43845">
        <ele>1249</ele>
        <time>2020-05-21T16:37:08.519Z</time>
      </trkpt>
      <trkpt lat="44.88992" lon="5.43846">
        <ele>1250</ele>
        <time>2020-05-21T16:37:09.520Z</time>
      </trkpt>
      <trkpt lat="44.8899" lon="5.43847">
        <ele>1251</ele>
        <time>2020-05-21T16:37:10.520Z</time>
      </trkpt>
      <trkpt lat="44.88989" lon="5.43848">
        <ele>1252</ele>
        <time>2020-05-21T16:37:11.520Z</time>
      </trkpt>
      <trkpt lat="44.88988" lon="5.4385">
        <ele>1253</ele>
        <time>2020-05-21T16:37:12.520Z</time>
      </trkpt>
      <trkpt lat="44.88988" lon="5.4385">
        <ele>1254</ele>
        <time>2020-05-21T16:37:13.519Z</time>
      </trkpt>
      <trkpt lat="44.88987" lon="5.43851">
        <ele>1254</ele>
        <time>2020-05-21T16:37:14.520Z</time>
      </trkpt>
      <trkpt lat="44.88987" lon="5.43852">
        <ele>1256</ele>
        <time>2020-05-21T16:37:15.520Z</time>
      </trkpt>
      <trkpt lat="44.88987" lon="5.43852">
        <ele>1257</ele>
        <time>2020-05-21T16:37:16.520Z</time>
      </trkpt>
      <trkpt lat="44.88986" lon="5.43853">
        <ele>1258</ele>
        <time>2020-05-21T16:37:17.520Z</time>
      </trkpt>
      <trkpt lat="44.88986" lon="5.43853">
        <ele>1258</ele>
        <time>2020-05-21T16:37:18.520Z</time>
      </trkpt>
      <trkpt lat="44.88986" lon="5.43854">
        <ele>1259</ele>
        <time>2020-05-21T16:37:19.520Z</time>
      </trkpt>
      <trkpt lat="44.88986" lon="5.43854">
        <ele>1260</ele>
        <time>2020-05-21T16:37:20.520Z</time>
      </trkpt>
      <trkpt lat="44.88986" lon="5.43855">
        <ele>1260</ele>
        <time>2020-05-21T16:37:21.519Z</time>
      </trkpt>
      <trkpt lat="44.88986" lon="5.43855">
        <ele>1261</ele>
        <time>2020-05-21T16:37:22.520Z</time>
      </trkpt>
      <trkpt lat="44.88986" lon="5.43855">
        <ele>1262</ele>
        <time>2020-05-21T16:37:23.520Z</time>
      </trkpt>
      <trkpt lat="44.88987" lon="5.43855">
        <ele>1263</ele>
        <time>2020-05-21T16:37:24.520Z</time>
      </trkpt>
      <trkpt lat="44.88988" lon="5.43856">
        <ele>1263</ele>
        <time>2020-05-21T16:37:25.519Z</time>
      </trkpt>
      <trkpt lat="44.88988" lon="5.43856">
        <ele>1264</ele>
        <time>2020-05-21T16:37:26.520Z</time>
      </trkpt>
      <trkpt lat="44.88987" lon="5.43857">
        <ele>1264</ele>
        <time>2020-05-21T16:37:27.520Z</time>
      </trkpt>
      <trkpt lat="44.88987" lon="5.43857">
        <ele>1264</ele>
        <time>2020-05-21T16:37:28.520Z</time>
      </trkpt>
      <trkpt lat="44.88986" lon="5.43857">
        <ele>1265</ele>
        <time>2020-05-21T16:37:29.519Z</time>
      </trkpt>
      <trkpt lat="44.88985" lon="5.43858">
        <ele>1265</ele>
        <time>2020-05-21T16:37:30.519Z</time>
      </trkpt>
      <trkpt lat="44.88984" lon="5.43858">
        <ele>1266</ele>
        <time>2020-05-21T16:37:31.519Z</time>
      </trkpt>
      <trkpt lat="44.88984" lon="5.43859">
        <ele>1267</ele>
        <time>2020-05-21T16:37:32.520Z</time>
      </trkpt>
      <trkpt lat="44.88983" lon="5.4386">
        <ele>1267</ele>
        <time>2020-05-21T16:37:33.520Z</time>
      </trkpt>
      <trkpt lat="44.88982" lon="5.4386">
        <ele>1268</ele>
        <time>2020-05-21T16:37:34.519Z</time>
      </trkpt>
      <trkpt lat="44.88982" lon="5.43861">
        <ele>1268</ele>
        <time>2020-05-21T16:37:35.520Z</time>
      </trkpt>
      <trkpt lat="44.88982" lon="5.43862">
        <ele>1269</ele>
        <time>2020-05-21T16:37:36.519Z</time>
      </trkpt>
      <trkpt lat="44.88982" lon="5.43862">
        <ele>1269</ele>
        <time>2020-05-21T16:37:37.520Z</time>
      </trkpt>
      <trkpt lat="44.88981" lon="5.43863">
        <ele>1269</ele>
        <time>2020-05-21T16:37:38.520Z</time>
      </trkpt>
      <trkpt lat="44.88981" lon="5.43863">
        <ele>1270</ele>
        <time>2020-05-21T16:37:39.520Z</time>
      </trkpt>
      <trkpt lat="44.88981" lon="5.43864">
        <ele>1270</ele>
        <time>2020-05-21T16:37:40.519Z</time>
      </trkpt>
      <trkpt lat="44.8898" lon="5.43865">
        <ele>1270</ele>
        <time>2020-05-21T16:37:41.520Z</time>
      </trkpt>
      <trkpt lat="44.8898" lon="5.43866">
        <ele>1271</ele>
        <time>2020-05-21T16:37:42.520Z</time>
      </trkpt>
      <trkpt lat="44.8898" lon="5.43866">
        <ele>1271</ele>
        <time>2020-05-21T16:37:43.520Z</time>
      </trkpt>
      <trkpt lat="44.88979" lon="5.43867">
        <ele>1272</ele>
        <time>2020-05-21T16:37:44.520Z</time>
      </trkpt>
      <trkpt lat="44.88979" lon="5.43868">
        <ele>1272</ele>
        <time>2020-05-21T16:37:45.520Z</time>
      </trkpt>
      <trkpt lat="44.88979" lon="5.43869">
        <ele>1272</ele>
        <time>2020-05-21T16:37:46.519Z</time>
      </trkpt>
      <trkpt lat="44.8898" lon="5.43871">
        <ele>1273</ele>
        <time>2020-05-21T16:37:47.520Z</time>
      </trkpt>
      <trkpt lat="44.8898" lon="5.43871">
        <ele>1273</ele>
        <time>2020-05-21T16:37:48.520Z</time>
      </trkpt>
      <trkpt lat="44.8898" lon="5.43872">
        <ele>1274</ele>
        <time>2020-05-21T16:37:49.520Z</time>
      </trkpt>
      <trkpt lat="44.8898" lon="5.43873">
        <ele>1275</ele>
        <time>2020-05-21T16:37:50.520Z</time>
      </trkpt>
      <trkpt lat="44.88979" lon="5.43875">
        <ele>1275</ele>
        <time>2020-05-21T16:37:51.520Z</time>
      </trkpt>
      <trkpt lat="44.88979" lon="5.43876">
        <ele>1276</ele>
        <time>2020-05-21T16:37:52.520Z</time>
      </trkpt>
      <trkpt lat="44.88978" lon="5.43878">
        <ele>1277</ele>
        <time>2020-05-21T16:37:53.519Z</time>
      </trkpt>
      <trkpt lat="44.88977" lon="5.4388">
        <ele>1277</ele>
        <time>2020-05-21T16:37:54.520Z</time>
      </trkpt>
      <trkpt lat="44.88976" lon="5.43881">
        <ele>1278</ele>
        <time>2020-05-21T16:37:55.520Z</time>
      </trkpt>
      <trkpt lat="44.88975" lon="5.43883">
        <ele>1278</ele>
        <time>2020-05-21T16:37:56.520Z</time>
      </trkpt>
      <trkpt lat="44.88975" lon="5.43884">
        <ele>1279</ele>
        <time>2020-05-21T16:37:57.520Z</time>
      </trkpt>
      <trkpt lat="44.88975" lon="5.43885">
        <ele>1280</ele>
        <time>2020-05-21T16:37:58.520Z</time>
      </trkpt>
      <trkpt lat="44.88974" lon="5.43886">
        <ele>1280</ele>
        <time>2020-05-21T16:37:59.520Z</time>
      </trkpt>
      <trkpt lat="44.88974" lon="5.43887">
        <ele>1281</ele>
        <time>2020-05-21T16:38:00.519Z</time>
      </trkpt>
      <trkpt lat="44.88974" lon="5.43888">
        <ele>1282</ele>
        <time>2020-05-21T16:38:01.520Z</time>
      </trkpt>
      <trkpt lat="44.88975" lon="5.4389">
        <ele>1282</ele>
        <time>2020-05-21T16:38:02.520Z</time>
      </trkpt>
      <trkpt lat="44.88975" lon="5.43891">
        <ele>1283</ele>
        <time>2020-05-21T16:38:03.520Z</time>
      </trkpt>
      <trkpt lat="44.88975" lon="5.43893">
        <ele>1283</ele>
        <time>2020-05-21T16:38:04.520Z</time>
      </trkpt>
      <trkpt lat="44.88974" lon="5.43893">
        <ele>1284</ele>
        <time>2020-05-21T16:38:05.520Z</time>
      </trkpt>
      <trkpt lat="44.88973" lon="5.43894">
        <ele>1284</ele>
        <time>2020-05-21T16:38:06.520Z</time>
      </trkpt>
      <trkpt lat="44.88972" lon="5.43895">
        <ele>1285</ele>
        <time>2020-05-21T16:38:07.520Z</time>
      </trkpt>
      <trkpt lat="44.88972" lon="5.43895">
        <ele>1285</ele>
        <time>2020-05-21T16:38:08.520Z</time>
      </trkpt>
      <trkpt lat="44.88972" lon="5.43896">
        <ele>1285</ele>
        <time>2020-05-21T16:38:09.520Z</time>
      </trkpt>
      <trkpt lat="44.88972" lon="5.43897">
        <ele>1285</ele>
        <time>2020-05-21T16:38:10.520Z</time>
      </trkpt>
      <trkpt lat="44.88971" lon="5.43898">
        <ele>1285</ele>
        <time>2020-05-21T16:38:11.520Z</time>
      </trkpt>
      <trkpt lat="44.8897" lon="5.43899">
        <ele>1285</ele>
        <time>2020-05-21T16:38:12.520Z</time>
      </trkpt>
      <trkpt lat="44.8897" lon="5.439">
        <ele>1286</ele>
        <time>2020-05-21T16:38:13.519Z</time>
      </trkpt>
      <trkpt lat="44.88969" lon="5.43899">
        <ele>1286</ele>
        <time>2020-05-21T16:38:14.520Z</time>
      </trkpt>
      <trkpt lat="44.88968" lon="5.43899">
        <ele>1286</ele>
        <time>2020-05-21T16:38:15.519Z</time>
      </trkpt>
      <trkpt lat="44.88967" lon="5.43898">
        <ele>1286</ele>
        <time>2020-05-21T16:38:16.520Z</time>
      </trkpt>
      <trkpt lat="44.88967" lon="5.43897">
        <ele>1286</ele>
        <time>2020-05-21T16:38:17.520Z</time>
      </trkpt>
      <trkpt lat="44.88965" lon="5.43896">
        <ele>1286</ele>
        <time>2020-05-21T16:38:18.520Z</time>
      </trkpt>
      <trkpt lat="44.88964" lon="5.43895">
        <ele>1286</ele>
        <time>2020-05-21T16:38:19.520Z</time>
      </trkpt>
      <trkpt lat="44.88963" lon="5.43894">
        <ele>1286</ele>
        <time>2020-05-21T16:38:20.520Z</time>
      </trkpt>
      <trkpt lat="44.88963" lon="5.43895">
        <ele>1286</ele>
        <time>2020-05-21T16:38:21.520Z</time>
      </trkpt>
      <trkpt lat="44.88962" lon="5.43895">
        <ele>1286</ele>
        <time>2020-05-21T16:38:22.520Z</time>
      </trkpt>
      <trkpt lat="44.8896" lon="5.43896">
        <ele>1287</ele>
        <time>2020-05-21T16:38:23.520Z</time>
      </trkpt>
      <trkpt lat="44.8896" lon="5.43898">
        <ele>1287</ele>
        <time>2020-05-21T16:38:24.519Z</time>
      </trkpt>
      <trkpt lat="44.8896" lon="5.439">
        <ele>1287</ele>
        <time>2020-05-21T16:38:25.520Z</time>
      </trkpt>
      <trkpt lat="44.8896" lon="5.43903">
        <ele>1287</ele>
        <time>2020-05-21T16:38:26.519Z</time>
      </trkpt>
      <trkpt lat="44.8896" lon="5.43905">
        <ele>1287</ele>
        <time>2020-05-21T16:38:27.519Z</time>
      </trkpt>
      <trkpt lat="44.88961" lon="5.43908">
        <ele>1287</ele>
        <time>2020-05-21T16:38:28.520Z</time>
      </trkpt>
      <trkpt lat="44.88961" lon="5.43911">
        <ele>1287</ele>
        <time>2020-05-21T16:38:29.519Z</time>
      </trkpt>
      <trkpt lat="44.88961" lon="5.43913">
        <ele>1286</ele>
        <time>2020-05-21T16:38:30.520Z</time>
      </trkpt>
      <trkpt lat="44.88965" lon="5.43912">
        <ele>1287</ele>
        <time>2020-05-21T16:38:31.521Z</time>
      </trkpt>
      <trkpt lat="44.88965" lon="5.43912">
        <ele>1287</ele>
        <time>2020-05-21T16:38:32.520Z</time>
      </trkpt>
      <trkpt lat="44.88965" lon="5.43912">
        <ele>1287</ele>
        <time>2020-05-21T16:38:33.520Z</time>
      </trkpt>
      <trkpt lat="44.88965" lon="5.43912">
        <ele>1287</ele>
        <time>2020-05-21T16:38:34.521Z</time>
      </trkpt>
      <trkpt lat="44.88965" lon="5.43912">
        <ele>1287</ele>
        <time>2020-05-21T16:38:35.521Z</time>
      </trkpt>
      <trkpt lat="44.88966" lon="5.43914">
        <ele>1287</ele>
        <time>2020-05-21T16:38:36.521Z</time>
      </trkpt>
      <trkpt lat="44.88968" lon="5.43915">
        <ele>1287</ele>
        <time>2020-05-21T16:38:37.521Z</time>
      </trkpt>
      <trkpt lat="44.8897" lon="5.43917">
        <ele>1287</ele>
        <time>2020-05-21T16:38:38.521Z</time>
      </trkpt>
      <trkpt lat="44.88971" lon="5.43918">
        <ele>1287</ele>
        <time>2020-05-21T16:38:39.521Z</time>
      </trkpt>
      <trkpt lat="44.88973" lon="5.4392">
        <ele>1287</ele>
        <time>2020-05-21T16:38:40.520Z</time>
      </trkpt>
      <trkpt lat="44.88975" lon="5.43923">
        <ele>1287</ele>
        <time>2020-05-21T16:38:41.521Z</time>
      </trkpt>
      <trkpt lat="44.88976" lon="5.43925">
        <ele>1288</ele>
        <time>2020-05-21T16:38:42.521Z</time>
      </trkpt>
      <trkpt lat="44.88977" lon="5.43928">
        <ele>1288</ele>
        <time>2020-05-21T16:38:43.521Z</time>
      </trkpt>
      <trkpt lat="44.88978" lon="5.43932">
        <ele>1288</ele>
        <time>2020-05-21T16:38:44.521Z</time>
      </trkpt>
      <trkpt lat="44.88978" lon="5.43934">
        <ele>1289</ele>
        <time>2020-05-21T16:38:45.521Z</time>
      </trkpt>
      <trkpt lat="44.88978" lon="5.43936">
        <ele>1290</ele>
        <time>2020-05-21T16:38:46.520Z</time>
      </trkpt>
      <trkpt lat="44.88977" lon="5.43939">
        <ele>1290</ele>
        <time>2020-05-21T16:38:47.521Z</time>
      </trkpt>
      <trkpt lat="44.88976" lon="5.43942">
        <ele>1291</ele>
        <time>2020-05-21T16:38:48.521Z</time>
      </trkpt>
      <trkpt lat="44.88975" lon="5.43944">
        <ele>1292</ele>
        <time>2020-05-21T16:38:49.521Z</time>
      </trkpt>
      <trkpt lat="44.88974" lon="5.43946">
        <ele>1292</ele>
        <time>2020-05-21T16:38:50.521Z</time>
      </trkpt>
      <trkpt lat="44.88973" lon="5.43947">
        <ele>1293</ele>
        <time>2020-05-21T16:38:51.520Z</time>
      </trkpt>
      <trkpt lat="44.88972" lon="5.43949">
        <ele>1293</ele>
        <time>2020-05-21T16:38:52.521Z</time>
      </trkpt>
      <trkpt lat="44.8897" lon="5.43951">
        <ele>1294</ele>
        <time>2020-05-21T16:38:53.521Z</time>
      </trkpt>
      <trkpt lat="44.88969" lon="5.43953">
        <ele>1295</ele>
        <time>2020-05-21T16:38:54.520Z</time>
      </trkpt>
      <trkpt lat="44.88968" lon="5.43954">
        <ele>1295</ele>
        <time>2020-05-21T16:38:55.521Z</time>
      </trkpt>
      <trkpt lat="44.88966" lon="5.43956">
        <ele>1296</ele>
        <time>2020-05-21T16:38:56.521Z</time>
      </trkpt>
      <trkpt lat="44.88965" lon="5.43958">
        <ele>1296</ele>
        <time>2020-05-21T16:38:57.521Z</time>
      </trkpt>
      <trkpt lat="44.88963" lon="5.43959">
        <ele>1296</ele>
        <time>2020-05-21T16:38:58.520Z</time>
      </trkpt>
      <trkpt lat="44.88962" lon="5.43959">
        <ele>1297</ele>
        <time>2020-05-21T16:38:59.521Z</time>
      </trkpt>
      <trkpt lat="44.88961" lon="5.4396">
        <ele>1297</ele>
        <time>2020-05-21T16:39:00.521Z</time>
      </trkpt>
      <trkpt lat="44.8896" lon="5.43961">
        <ele>1298</ele>
        <time>2020-05-21T16:39:01.520Z</time>
      </trkpt>
      <trkpt lat="44.88959" lon="5.43962">
        <ele>1298</ele>
        <time>2020-05-21T16:39:02.521Z</time>
      </trkpt>
      <trkpt lat="44.88958" lon="5.43963">
        <ele>1299</ele>
        <time>2020-05-21T16:39:03.520Z</time>
      </trkpt>
      <trkpt lat="44.88957" lon="5.43964">
        <ele>1300</ele>
        <time>2020-05-21T16:39:04.520Z</time>
      </trkpt>
      <trkpt lat="44.88955" lon="5.43965">
        <ele>1300</ele>
        <time>2020-05-21T16:39:05.521Z</time>
      </trkpt>
      <trkpt lat="44.88954" lon="5.43966">
        <ele>1300</ele>
        <time>2020-05-21T16:39:06.521Z</time>
      </trkpt>
      <trkpt lat="44.88953" lon="5.43967">
        <ele>1301</ele>
        <time>2020-05-21T16:39:07.520Z</time>
      </trkpt>
      <trkpt lat="44.88951" lon="5.43968">
        <ele>1301</ele>
        <time>2020-05-21T16:39:08.521Z</time>
      </trkpt>
      <trkpt lat="44.8895" lon="5.4397">
        <ele>1302</ele>
        <time>2020-05-21T16:39:09.521Z</time>
      </trkpt>
      <trkpt lat="44.88949" lon="5.43971">
        <ele>1302</ele>
        <time>2020-05-21T16:39:10.520Z</time>
      </trkpt>
      <trkpt lat="44.88948" lon="5.43972">
        <ele>1303</ele>
        <time>2020-05-21T16:39:11.521Z</time>
      </trkpt>
      <trkpt lat="44.88947" lon="5.43974">
        <ele>1304</ele>
        <time>2020-05-21T16:39:12.521Z</time>
      </trkpt>
      <trkpt lat="44.88946" lon="5.43976">
        <ele>1305</ele>
        <time>2020-05-21T16:39:13.521Z</time>
      </trkpt>
      <trkpt lat="44.88945" lon="5.43979">
        <ele>1306</ele>
        <time>2020-05-21T16:39:14.521Z</time>
      </trkpt>
      <trkpt lat="44.88945" lon="5.4398">
        <ele>1307</ele>
        <time>2020-05-21T16:39:15.521Z</time>
      </trkpt>
      <trkpt lat="44.88944" lon="5.43982">
        <ele>1308</ele>
        <time>2020-05-21T16:39:16.520Z</time>
      </trkpt>
      <trkpt lat="44.88944" lon="5.43983">
        <ele>1309</ele>
        <time>2020-05-21T16:39:17.521Z</time>
      </trkpt>
      <trkpt lat="44.88944" lon="5.43985">
        <ele>1310</ele>
        <time>2020-05-21T16:39:18.521Z</time>
      </trkpt>
      <trkpt lat="44.88945" lon="5.43986">
        <ele>1311</ele>
        <time>2020-05-21T16:39:19.521Z</time>
      </trkpt>
      <trkpt lat="44.88946" lon="5.43988">
        <ele>1312</ele>
        <time>2020-05-21T16:39:20.521Z</time>
      </trkpt>
      <trkpt lat="44.88947" lon="5.43989">
        <ele>1314</ele>
        <time>2020-05-21T16:39:21.521Z</time>
      </trkpt>
      <trkpt lat="44.88946" lon="5.43991">
        <ele>1314</ele>
        <time>2020-05-21T16:39:22.520Z</time>
      </trkpt>
      <trkpt lat="44.88945" lon="5.43993">
        <ele>1315</ele>
        <time>2020-05-21T16:39:23.520Z</time>
      </trkpt>
      <trkpt lat="44.88944" lon="5.43996">
        <ele>1316</ele>
        <time>2020-05-21T16:39:24.521Z</time>
      </trkpt>
      <trkpt lat="44.88943" lon="5.43998">
        <ele>1317</ele>
        <time>2020-05-21T16:39:25.520Z</time>
      </trkpt>
      <trkpt lat="44.88942" lon="5.44">
        <ele>1318</ele>
        <time>2020-05-21T16:39:26.521Z</time>
      </trkpt>
      <trkpt lat="44.88942" lon="5.44002">
        <ele>1319</ele>
        <time>2020-05-21T16:39:27.521Z</time>
      </trkpt>
      <trkpt lat="44.88941" lon="5.44004">
        <ele>1320</ele>
        <time>2020-05-21T16:39:28.520Z</time>
      </trkpt>
      <trkpt lat="44.88941" lon="5.44005">
        <ele>1322</ele>
        <time>2020-05-21T16:39:29.521Z</time>
      </trkpt>
      <trkpt lat="44.8894" lon="5.44007">
        <ele>1323</ele>
        <time>2020-05-21T16:39:30.521Z</time>
      </trkpt>
      <trkpt lat="44.8894" lon="5.44008">
        <ele>1323</ele>
        <time>2020-05-21T16:39:31.521Z</time>
      </trkpt>
      <trkpt lat="44.88939" lon="5.4401">
        <ele>1324</ele>
        <time>2020-05-21T16:39:32.521Z</time>
      </trkpt>
      <trkpt lat="44.88938" lon="5.44012">
        <ele>1325</ele>
        <time>2020-05-21T16:39:33.520Z</time>
      </trkpt>
      <trkpt lat="44.88938" lon="5.44013">
        <ele>1325</ele>
        <time>2020-05-21T16:39:34.521Z</time>
      </trkpt>
      <trkpt lat="44.88937" lon="5.44014">
        <ele>1325</ele>
        <time>2020-05-21T16:39:35.521Z</time>
      </trkpt>
      <trkpt lat="44.88937" lon="5.44016">
        <ele>1326</ele>
        <time>2020-05-21T16:39:36.521Z</time>
      </trkpt>
      <trkpt lat="44.88937" lon="5.44019">
        <ele>1326</ele>
        <time>2020-05-21T16:39:37.521Z</time>
      </trkpt>
      <trkpt lat="44.88936" lon="5.44022">
        <ele>1327</ele>
        <time>2020-05-21T16:39:38.520Z</time>
      </trkpt>
      <trkpt lat="44.88936" lon="5.44025">
        <ele>1327</ele>
        <time>2020-05-21T16:39:39.520Z</time>
      </trkpt>
      <trkpt lat="44.88935" lon="5.44028">
        <ele>1327</ele>
        <time>2020-05-21T16:39:40.520Z</time>
      </trkpt>
      <trkpt lat="44.88935" lon="5.44031">
        <ele>1328</ele>
        <time>2020-05-21T16:39:41.521Z</time>
      </trkpt>
      <trkpt lat="44.88935" lon="5.44034">
        <ele>1328</ele>
        <time>2020-05-21T16:39:42.521Z</time>
      </trkpt>
      <trkpt lat="44.88935" lon="5.44037">
        <ele>1328</ele>
        <time>2020-05-21T16:39:43.521Z</time>
      </trkpt>
      <trkpt lat="44.88935" lon="5.44039">
        <ele>1328</ele>
        <time>2020-05-21T16:39:44.521Z</time>
      </trkpt>
      <trkpt lat="44.88936" lon="5.4404">
        <ele>1328</ele>
        <time>2020-05-21T16:39:45.521Z</time>
      </trkpt>
      <trkpt lat="44.88936" lon="5.44042">
        <ele>1329</ele>
        <time>2020-05-21T16:39:46.520Z</time>
      </trkpt>
      <trkpt lat="44.88936" lon="5.44044">
        <ele>1329</ele>
        <time>2020-05-21T16:39:47.521Z</time>
      </trkpt>
      <trkpt lat="44.88936" lon="5.44045">
        <ele>1328</ele>
        <time>2020-05-21T16:39:48.520Z</time>
      </trkpt>
      <trkpt lat="44.88936" lon="5.44047">
        <ele>1327</ele>
        <time>2020-05-21T16:39:49.520Z</time>
      </trkpt>
      <trkpt lat="44.88937" lon="5.44049">
        <ele>1326</ele>
        <time>2020-05-21T16:39:50.521Z</time>
      </trkpt>
      <trkpt lat="44.88938" lon="5.44051">
        <ele>1325</ele>
        <time>2020-05-21T16:39:51.521Z</time>
      </trkpt>
      <trkpt lat="44.88938" lon="5.44052">
        <ele>1324</ele>
        <time>2020-05-21T16:39:52.521Z</time>
      </trkpt>
      <trkpt lat="44.88939" lon="5.44053">
        <ele>1324</ele>
        <time>2020-05-21T16:39:53.521Z</time>
      </trkpt>
      <trkpt lat="44.8894" lon="5.44055">
        <ele>1323</ele>
        <time>2020-05-21T16:39:54.521Z</time>
      </trkpt>
      <trkpt lat="44.88942" lon="5.44056">
        <ele>1323</ele>
        <time>2020-05-21T16:39:55.521Z</time>
      </trkpt>
      <trkpt lat="44.88944" lon="5.44057">
        <ele>1323</ele>
        <time>2020-05-21T16:39:56.520Z</time>
      </trkpt>
      <trkpt lat="44.88944" lon="5.44059">
        <ele>1323</ele>
        <time>2020-05-21T16:39:57.521Z</time>
      </trkpt>
      <trkpt lat="44.88945" lon="5.44061">
        <ele>1324</ele>
        <time>2020-05-21T16:39:58.520Z</time>
      </trkpt>
      <trkpt lat="44.88947" lon="5.44063">
        <ele>1324</ele>
        <time>2020-05-21T16:39:59.520Z</time>
      </trkpt>
      <trkpt lat="44.88948" lon="5.44065">
        <ele>1325</ele>
        <time>2020-05-21T16:40:00.521Z</time>
      </trkpt>
      <trkpt lat="44.8895" lon="5.44067">
        <ele>1326</ele>
        <time>2020-05-21T16:40:01.521Z</time>
      </trkpt>
      <trkpt lat="44.88951" lon="5.44068">
        <ele>1326</ele>
        <time>2020-05-21T16:40:02.520Z</time>
      </trkpt>
      <trkpt lat="44.88952" lon="5.44069">
        <ele>1327</ele>
        <time>2020-05-21T16:40:03.521Z</time>
      </trkpt>
      <trkpt lat="44.88953" lon="5.4407">
        <ele>1327</ele>
        <time>2020-05-21T16:40:04.521Z</time>
      </trkpt>
      <trkpt lat="44.88955" lon="5.4407">
        <ele>1327</ele>
        <time>2020-05-21T16:40:05.520Z</time>
      </trkpt>
      <trkpt lat="44.88956" lon="5.44071">
        <ele>1326</ele>
        <time>2020-05-21T16:40:06.521Z</time>
      </trkpt>
      <trkpt lat="44.88957" lon="5.4407">
        <ele>1326</ele>
        <time>2020-05-21T16:40:07.521Z</time>
      </trkpt>
      <trkpt lat="44.88959" lon="5.4407">
        <ele>1326</ele>
        <time>2020-05-21T16:40:08.520Z</time>
      </trkpt>
      <trkpt lat="44.8896" lon="5.44069">
        <ele>1325</ele>
        <time>2020-05-21T16:40:09.521Z</time>
      </trkpt>
      <trkpt lat="44.88961" lon="5.44069">
        <ele>1325</ele>
        <time>2020-05-21T16:40:10.521Z</time>
      </trkpt>
      <trkpt lat="44.88963" lon="5.44068">
        <ele>1324</ele>
        <time>2020-05-21T16:40:11.521Z</time>
      </trkpt>
      <trkpt lat="44.88964" lon="5.44068">
        <ele>1324</ele>
        <time>2020-05-21T16:40:12.521Z</time>
      </trkpt>
      <trkpt lat="44.88965" lon="5.44067">
        <ele>1323</ele>
        <time>2020-05-21T16:40:13.520Z</time>
      </trkpt>
      <trkpt lat="44.88967" lon="5.44066">
        <ele>1322</ele>
        <time>2020-05-21T16:40:14.521Z</time>
      </trkpt>
      <trkpt lat="44.88968" lon="5.44065">
        <ele>1321</ele>
        <time>2020-05-21T16:40:15.521Z</time>
      </trkpt>
      <trkpt lat="44.88968" lon="5.44063">
        <ele>1321</ele>
        <time>2020-05-21T16:40:16.521Z</time>
      </trkpt>
      <trkpt lat="44.88969" lon="5.44061">
        <ele>1320</ele>
        <time>2020-05-21T16:40:17.520Z</time>
      </trkpt>
      <trkpt lat="44.88969" lon="5.44059">
        <ele>1319</ele>
        <time>2020-05-21T16:40:18.521Z</time>
      </trkpt>
      <trkpt lat="44.8897" lon="5.44057">
        <ele>1318</ele>
        <time>2020-05-21T16:40:19.521Z</time>
      </trkpt>
      <trkpt lat="44.8897" lon="5.44055">
        <ele>1318</ele>
        <time>2020-05-21T16:40:20.520Z</time>
      </trkpt>
      <trkpt lat="44.88971" lon="5.44053">
        <ele>1317</ele>
        <time>2020-05-21T16:40:21.521Z</time>
      </trkpt>
      <trkpt lat="44.88973" lon="5.44051">
        <ele>1317</ele>
        <time>2020-05-21T16:40:22.521Z</time>
      </trkpt>
      <trkpt lat="44.88973" lon="5.44048">
        <ele>1316</ele>
        <time>2020-05-21T16:40:23.521Z</time>
      </trkpt>
      <trkpt lat="44.88975" lon="5.44047">
        <ele>1316</ele>
        <time>2020-05-21T16:40:24.521Z</time>
      </trkpt>
      <trkpt lat="44.88976" lon="5.44045">
        <ele>1315</ele>
        <time>2020-05-21T16:40:25.520Z</time>
      </trkpt>
      <trkpt lat="44.88977" lon="5.44043">
        <ele>1315</ele>
        <time>2020-05-21T16:40:26.520Z</time>
      </trkpt>
      <trkpt lat="44.88978" lon="5.44041">
        <ele>1315</ele>
        <time>2020-05-21T16:40:27.520Z</time>
      </trkpt>
      <trkpt lat="44.88979" lon="5.4404">
        <ele>1314</ele>
        <time>2020-05-21T16:40:28.520Z</time>
      </trkpt>
      <trkpt lat="44.88981" lon="5.44038">
        <ele>1314</ele>
        <time>2020-05-21T16:40:29.520Z</time>
      </trkpt>
      <trkpt lat="44.88982" lon="5.44037">
        <ele>1313</ele>
        <time>2020-05-21T16:40:30.521Z</time>
      </trkpt>
      <trkpt lat="44.88984" lon="5.44036">
        <ele>1313</ele>
        <time>2020-05-21T16:40:31.521Z</time>
      </trkpt>
      <trkpt lat="44.88985" lon="5.44035">
        <ele>1313</ele>
        <time>2020-05-21T16:40:32.520Z</time>
      </trkpt>
      <trkpt lat="44.88986" lon="5.44034">
        <ele>1312</ele>
        <time>2020-05-21T16:40:33.521Z</time>
      </trkpt>
      <trkpt lat="44.88988" lon="5.44033">
        <ele>1312</ele>
        <time>2020-05-21T16:40:34.521Z</time>
      </trkpt>
      <trkpt lat="44.88989" lon="5.44032">
        <ele>1312</ele>
        <time>2020-05-21T16:40:35.521Z</time>
      </trkpt>
      <trkpt lat="44.8899" lon="5.44031">
        <ele>1312</ele>
        <time>2020-05-21T16:40:36.521Z</time>
      </trkpt>
      <trkpt lat="44.88992" lon="5.44031">
        <ele>1311</ele>
        <time>2020-05-21T16:40:37.521Z</time>
      </trkpt>
      <trkpt lat="44.88993" lon="5.44029">
        <ele>1311</ele>
        <time>2020-05-21T16:40:38.521Z</time>
      </trkpt>
      <trkpt lat="44.88994" lon="5.44028">
        <ele>1311</ele>
        <time>2020-05-21T16:40:39.521Z</time>
      </trkpt>
      <trkpt lat="44.88996" lon="5.44027">
        <ele>1311</ele>
        <time>2020-05-21T16:40:40.521Z</time>
      </trkpt>
      <trkpt lat="44.88997" lon="5.44026">
        <ele>1311</ele>
        <time>2020-05-21T16:40:41.520Z</time>
      </trkpt>
      <trkpt lat="44.88998" lon="5.44025">
        <ele>1311</ele>
        <time>2020-05-21T16:40:42.521Z</time>
      </trkpt>
      <trkpt lat="44.89" lon="5.44024">
        <ele>1311</ele>
        <time>2020-05-21T16:40:43.521Z</time>
      </trkpt>
      <trkpt lat="44.89001" lon="5.44022">
        <ele>1310</ele>
        <time>2020-05-21T16:40:44.521Z</time>
      </trkpt>
      <trkpt lat="44.89002" lon="5.44021">
        <ele>1310</ele>
        <time>2020-05-21T16:40:45.521Z</time>
      </trkpt>
      <trkpt lat="44.89004" lon="5.4402">
        <ele>1309</ele>
        <time>2020-05-21T16:40:46.521Z</time>
      </trkpt>
      <trkpt lat="44.89006" lon="5.44019">
        <ele>1308</ele>
        <time>2020-05-21T16:40:47.520Z</time>
      </trkpt>
      <trkpt lat="44.89007" lon="5.44018">
        <ele>1308</ele>
        <time>2020-05-21T16:40:48.521Z</time>
      </trkpt>
      <trkpt lat="44.89008" lon="5.44016">
        <ele>1307</ele>
        <time>2020-05-21T16:40:49.521Z</time>
      </trkpt>
      <trkpt lat="44.89009" lon="5.44015">
        <ele>1307</ele>
        <time>2020-05-21T16:40:50.520Z</time>
      </trkpt>
      <trkpt lat="44.89011" lon="5.44014">
        <ele>1307</ele>
        <time>2020-05-21T16:40:51.520Z</time>
      </trkpt>
      <trkpt lat="44.89012" lon="5.44013">
        <ele>1307</ele>
        <time>2020-05-21T16:40:52.521Z</time>
      </trkpt>
      <trkpt lat="44.89014" lon="5.44011">
        <ele>1308</ele>
        <time>2020-05-21T16:40:53.521Z</time>
      </trkpt>
      <trkpt lat="44.89015" lon="5.4401">
        <ele>1307</ele>
        <time>2020-05-21T16:40:54.521Z</time>
      </trkpt>
      <trkpt lat="44.89016" lon="5.44008">
        <ele>1307</ele>
        <time>2020-05-21T16:40:55.521Z</time>
      </trkpt>
      <trkpt lat="44.89018" lon="5.44007">
        <ele>1307</ele>
        <time>2020-05-21T16:40:56.521Z</time>
      </trkpt>
      <trkpt lat="44.89018" lon="5.44006">
        <ele>1306</ele>
        <time>2020-05-21T16:40:57.521Z</time>
      </trkpt>
      <trkpt lat="44.89019" lon="5.44004">
        <ele>1306</ele>
        <time>2020-05-21T16:40:58.520Z</time>
      </trkpt>
      <trkpt lat="44.8902" lon="5.44003">
        <ele>1306</ele>
        <time>2020-05-21T16:40:59.520Z</time>
      </trkpt>
      <trkpt lat="44.89022" lon="5.44001">
        <ele>1306</ele>
        <time>2020-05-21T16:41:00.521Z</time>
      </trkpt>
      <trkpt lat="44.89023" lon="5.44">
        <ele>1306</ele>
        <time>2020-05-21T16:41:01.521Z</time>
      </trkpt>
      <trkpt lat="44.89024" lon="5.43999">
        <ele>1307</ele>
        <time>2020-05-21T16:41:02.521Z</time>
      </trkpt>
      <trkpt lat="44.89025" lon="5.43997">
        <ele>1307</ele>
        <time>2020-05-21T16:41:03.521Z</time>
      </trkpt>
      <trkpt lat="44.89026" lon="5.43995">
        <ele>1307</ele>
        <time>2020-05-21T16:41:04.521Z</time>
      </trkpt>
      <trkpt lat="44.89027" lon="5.43994">
        <ele>1308</ele>
        <time>2020-05-21T16:41:05.521Z</time>
      </trkpt>
      <trkpt lat="44.89029" lon="5.43993">
        <ele>1308</ele>
        <time>2020-05-21T16:41:06.521Z</time>
      </trkpt>
      <trkpt lat="44.8903" lon="5.43993">
        <ele>1308</ele>
        <time>2020-05-21T16:41:07.520Z</time>
      </trkpt>
      <trkpt lat="44.89032" lon="5.43993">
        <ele>1308</ele>
        <time>2020-05-21T16:41:08.521Z</time>
      </trkpt>
      <trkpt lat="44.89033" lon="5.43993">
        <ele>1307</ele>
        <time>2020-05-21T16:41:09.521Z</time>
      </trkpt>
      <trkpt lat="44.89035" lon="5.43993">
        <ele>1307</ele>
        <time>2020-05-21T16:41:10.521Z</time>
      </trkpt>
      <trkpt lat="44.89036" lon="5.43993">
        <ele>1307</ele>
        <time>2020-05-21T16:41:11.521Z</time>
      </trkpt>
      <trkpt lat="44.89038" lon="5.43993">
        <ele>1307</ele>
        <time>2020-05-21T16:41:12.520Z</time>
      </trkpt>
      <trkpt lat="44.89038" lon="5.43992">
        <ele>1307</ele>
        <time>2020-05-21T16:41:13.521Z</time>
      </trkpt>
      <trkpt lat="44.89039" lon="5.43992">
        <ele>1307</ele>
        <time>2020-05-21T16:41:14.521Z</time>
      </trkpt>
      <trkpt lat="44.8904" lon="5.43991">
        <ele>1308</ele>
        <time>2020-05-21T16:41:15.520Z</time>
      </trkpt>
      <trkpt lat="44.89041" lon="5.4399">
        <ele>1308</ele>
        <time>2020-05-21T16:41:16.521Z</time>
      </trkpt>
      <trkpt lat="44.89043" lon="5.4399">
        <ele>1308</ele>
        <time>2020-05-21T16:41:17.521Z</time>
      </trkpt>
      <trkpt lat="44.89044" lon="5.43989">
        <ele>1308</ele>
        <time>2020-05-21T16:41:18.521Z</time>
      </trkpt>
      <trkpt lat="44.89045" lon="5.43989">
        <ele>1308</ele>
        <time>2020-05-21T16:41:19.521Z</time>
      </trkpt>
      <trkpt lat="44.89046" lon="5.43989">
        <ele>1309</ele>
        <time>2020-05-21T16:41:20.520Z</time>
      </trkpt>
      <trkpt lat="44.89046" lon="5.43988">
        <ele>1309</ele>
        <time>2020-05-21T16:41:21.520Z</time>
      </trkpt>
      <trkpt lat="44.89046" lon="5.43988">
        <ele>1309</ele>
        <time>2020-05-21T16:41:22.520Z</time>
      </trkpt>
      <trkpt lat="44.89045" lon="5.43988">
        <ele>1309</ele>
        <time>2020-05-21T16:41:23.520Z</time>
      </trkpt>
      <trkpt lat="44.89045" lon="5.43988">
        <ele>1309</ele>
        <time>2020-05-21T16:41:24.520Z</time>
      </trkpt>
      <trkpt lat="44.89045" lon="5.43988">
        <ele>1309</ele>
        <time>2020-05-21T16:41:25.521Z</time>
      </trkpt>
      <trkpt lat="44.89046" lon="5.43987">
        <ele>1309</ele>
        <time>2020-05-21T16:41:26.521Z</time>
      </trkpt>
      <trkpt lat="44.89052" lon="5.43992">
        <ele>1306</ele>
        <time>2020-05-21T16:41:27.521Z</time>
      </trkpt>
      <trkpt lat="44.89052" lon="5.43992">
        <ele>1306</ele>
        <time>2020-05-21T16:41:28.521Z</time>
      </trkpt>
      <trkpt lat="44.89052" lon="5.43992">
        <ele>1306</ele>
        <time>2020-05-21T16:41:29.521Z</time>
      </trkpt>
      <trkpt lat="44.89052" lon="5.43992">
        <ele>1306</ele>
        <time>2020-05-21T16:41:30.522Z</time>
      </trkpt>
      <trkpt lat="44.89053" lon="5.43991">
        <ele>1306</ele>
        <time>2020-05-21T16:41:31.522Z</time>
      </trkpt>
      <trkpt lat="44.89054" lon="5.43991">
        <ele>1306</ele>
        <time>2020-05-21T16:41:32.522Z</time>
      </trkpt>
      <trkpt lat="44.89055" lon="5.4399">
        <ele>1306</ele>
        <time>2020-05-21T16:41:33.522Z</time>
      </trkpt>
      <trkpt lat="44.89056" lon="5.4399">
        <ele>1306</ele>
        <time>2020-05-21T16:41:34.521Z</time>
      </trkpt>
      <trkpt lat="44.89057" lon="5.4399">
        <ele>1306</ele>
        <time>2020-05-21T16:41:35.521Z</time>
      </trkpt>
      <trkpt lat="44.89058" lon="5.43989">
        <ele>1307</ele>
        <time>2020-05-21T16:41:36.521Z</time>
      </trkpt>
      <trkpt lat="44.8906" lon="5.43988">
        <ele>1307</ele>
        <time>2020-05-21T16:41:37.522Z</time>
      </trkpt>
      <trkpt lat="44.89061" lon="5.43988">
        <ele>1308</ele>
        <time>2020-05-21T16:41:38.522Z</time>
      </trkpt>
      <trkpt lat="44.89062" lon="5.43987">
        <ele>1308</ele>
        <time>2020-05-21T16:41:39.521Z</time>
      </trkpt>
      <trkpt lat="44.89063" lon="5.43986">
        <ele>1309</ele>
        <time>2020-05-21T16:41:40.522Z</time>
      </trkpt>
      <trkpt lat="44.89064" lon="5.43986">
        <ele>1309</ele>
        <time>2020-05-21T16:41:41.521Z</time>
      </trkpt>
      <trkpt lat="44.89064" lon="5.43985">
        <ele>1310</ele>
        <time>2020-05-21T16:41:42.522Z</time>
      </trkpt>
      <trkpt lat="44.89065" lon="5.43983">
        <ele>1311</ele>
        <time>2020-05-21T16:41:43.522Z</time>
      </trkpt>
      <trkpt lat="44.89065" lon="5.43981">
        <ele>1311</ele>
        <time>2020-05-21T16:41:44.522Z</time>
      </trkpt>
      <trkpt lat="44.89067" lon="5.43979">
        <ele>1311</ele>
        <time>2020-05-21T16:41:45.522Z</time>
      </trkpt>
      <trkpt lat="44.89068" lon="5.43978">
        <ele>1311</ele>
        <time>2020-05-21T16:41:46.522Z</time>
      </trkpt>
      <trkpt lat="44.89069" lon="5.43975">
        <ele>1311</ele>
        <time>2020-05-21T16:41:47.522Z</time>
      </trkpt>
      <trkpt lat="44.89071" lon="5.43974">
        <ele>1311</ele>
        <time>2020-05-21T16:41:48.522Z</time>
      </trkpt>
      <trkpt lat="44.89072" lon="5.43971">
        <ele>1311</ele>
        <time>2020-05-21T16:41:49.522Z</time>
      </trkpt>
      <trkpt lat="44.89073" lon="5.43969">
        <ele>1311</ele>
        <time>2020-05-21T16:41:50.521Z</time>
      </trkpt>
      <trkpt lat="44.89074" lon="5.43966">
        <ele>1311</ele>
        <time>2020-05-21T16:41:51.522Z</time>
      </trkpt>
      <trkpt lat="44.89075" lon="5.43964">
        <ele>1311</ele>
        <time>2020-05-21T16:41:52.522Z</time>
      </trkpt>
      <trkpt lat="44.89076" lon="5.43961">
        <ele>1311</ele>
        <time>2020-05-21T16:41:53.522Z</time>
      </trkpt>
      <trkpt lat="44.89077" lon="5.43959">
        <ele>1312</ele>
        <time>2020-05-21T16:41:54.522Z</time>
      </trkpt>
      <trkpt lat="44.89078" lon="5.43957">
        <ele>1312</ele>
        <time>2020-05-21T16:41:55.521Z</time>
      </trkpt>
      <trkpt lat="44.8908" lon="5.43956">
        <ele>1312</ele>
        <time>2020-05-21T16:41:56.522Z</time>
      </trkpt>
      <trkpt lat="44.89081" lon="5.43954">
        <ele>1311</ele>
        <time>2020-05-21T16:41:57.521Z</time>
      </trkpt>
      <trkpt lat="44.89082" lon="5.43952">
        <ele>1311</ele>
        <time>2020-05-21T16:41:58.522Z</time>
      </trkpt>
      <trkpt lat="44.89083" lon="5.4395">
        <ele>1311</ele>
        <time>2020-05-21T16:41:59.522Z</time>
      </trkpt>
      <trkpt lat="44.89084" lon="5.43949">
        <ele>1310</ele>
        <time>2020-05-21T16:42:00.522Z</time>
      </trkpt>
      <trkpt lat="44.89085" lon="5.43947">
        <ele>1310</ele>
        <time>2020-05-21T16:42:01.522Z</time>
      </trkpt>
      <trkpt lat="44.89086" lon="5.43946">
        <ele>1309</ele>
        <time>2020-05-21T16:42:02.522Z</time>
      </trkpt>
      <trkpt lat="44.89088" lon="5.43945">
        <ele>1309</ele>
        <time>2020-05-21T16:42:03.522Z</time>
      </trkpt>
      <trkpt lat="44.89089" lon="5.43943">
        <ele>1309</ele>
        <time>2020-05-21T16:42:04.522Z</time>
      </trkpt>
      <trkpt lat="44.89091" lon="5.43943">
        <ele>1309</ele>
        <time>2020-05-21T16:42:05.522Z</time>
      </trkpt>
      <trkpt lat="44.89092" lon="5.43942">
        <ele>1309</ele>
        <time>2020-05-21T16:42:06.522Z</time>
      </trkpt>
      <trkpt lat="44.89093" lon="5.43941">
        <ele>1309</ele>
        <time>2020-05-21T16:42:07.522Z</time>
      </trkpt>
      <trkpt lat="44.89095" lon="5.43941">
        <ele>1309</ele>
        <time>2020-05-21T16:42:08.522Z</time>
      </trkpt>
      <trkpt lat="44.89097" lon="5.4394">
        <ele>1310</ele>
        <time>2020-05-21T16:42:09.522Z</time>
      </trkpt>
      <trkpt lat="44.89098" lon="5.4394">
        <ele>1310</ele>
        <time>2020-05-21T16:42:10.521Z</time>
      </trkpt>
      <trkpt lat="44.89099" lon="5.43941">
        <ele>1311</ele>
        <time>2020-05-21T16:42:11.521Z</time>
      </trkpt>
      <trkpt lat="44.891" lon="5.43941">
        <ele>1312</ele>
        <time>2020-05-21T16:42:12.522Z</time>
      </trkpt>
      <trkpt lat="44.89102" lon="5.43942">
        <ele>1312</ele>
        <time>2020-05-21T16:42:13.522Z</time>
      </trkpt>
      <trkpt lat="44.89104" lon="5.43943">
        <ele>1313</ele>
        <time>2020-05-21T16:42:14.522Z</time>
      </trkpt>
      <trkpt lat="44.89105" lon="5.43944">
        <ele>1313</ele>
        <time>2020-05-21T16:42:15.521Z</time>
      </trkpt>
      <trkpt lat="44.89106" lon="5.43946">
        <ele>1314</ele>
        <time>2020-05-21T16:42:16.521Z</time>
      </trkpt>
      <trkpt lat="44.89108" lon="5.43948">
        <ele>1315</ele>
        <time>2020-05-21T16:42:17.521Z</time>
      </trkpt>
      <trkpt lat="44.89109" lon="5.43949">
        <ele>1315</ele>
        <time>2020-05-21T16:42:18.521Z</time>
      </trkpt>
      <trkpt lat="44.89109" lon="5.43951">
        <ele>1316</ele>
        <time>2020-05-21T16:42:19.522Z</time>
      </trkpt>
      <trkpt lat="44.8911" lon="5.43953">
        <ele>1316</ele>
        <time>2020-05-21T16:42:20.522Z</time>
      </trkpt>
      <trkpt lat="44.89111" lon="5.43955">
        <ele>1317</ele>
        <time>2020-05-21T16:42:21.522Z</time>
      </trkpt>
      <trkpt lat="44.89112" lon="5.43957">
        <ele>1317</ele>
        <time>2020-05-21T16:42:22.521Z</time>
      </trkpt>
      <trkpt lat="44.89113" lon="5.43959">
        <ele>1318</ele>
        <time>2020-05-21T16:42:23.522Z</time>
      </trkpt>
      <trkpt lat="44.89114" lon="5.43962">
        <ele>1318</ele>
        <time>2020-05-21T16:42:24.522Z</time>
      </trkpt>
      <trkpt lat="44.89114" lon="5.43964">
        <ele>1319</ele>
        <time>2020-05-21T16:42:25.522Z</time>
      </trkpt>
      <trkpt lat="44.89114" lon="5.43966">
        <ele>1320</ele>
        <time>2020-05-21T16:42:26.521Z</time>
      </trkpt>
      <trkpt lat="44.89115" lon="5.43968">
        <ele>1320</ele>
        <time>2020-05-21T16:42:27.521Z</time>
      </trkpt>
      <trkpt lat="44.89115" lon="5.4397">
        <ele>1322</ele>
        <time>2020-05-21T16:42:28.522Z</time>
      </trkpt>
      <trkpt lat="44.89115" lon="5.43972">
        <ele>1323</ele>
        <time>2020-05-21T16:42:29.522Z</time>
      </trkpt>
      <trkpt lat="44.89116" lon="5.43973">
        <ele>1324</ele>
        <time>2020-05-21T16:42:30.522Z</time>
      </trkpt>
      <trkpt lat="44.89117" lon="5.43975">
        <ele>1325</ele>
        <time>2020-05-21T16:42:31.522Z</time>
      </trkpt>
      <trkpt lat="44.89117" lon="5.43977">
        <ele>1326</ele>
        <time>2020-05-21T16:42:32.522Z</time>
      </trkpt>
      <trkpt lat="44.89119" lon="5.43979">
        <ele>1328</ele>
        <time>2020-05-21T16:42:33.522Z</time>
      </trkpt>
      <trkpt lat="44.8912" lon="5.43981">
        <ele>1328</ele>
        <time>2020-05-21T16:42:34.522Z</time>
      </trkpt>
      <trkpt lat="44.8912" lon="5.43983">
        <ele>1329</ele>
        <time>2020-05-21T16:42:35.522Z</time>
      </trkpt>
      <trkpt lat="44.8912" lon="5.43986">
        <ele>1330</ele>
        <time>2020-05-21T16:42:36.522Z</time>
      </trkpt>
      <trkpt lat="44.89121" lon="5.43988">
        <ele>1331</ele>
        <time>2020-05-21T16:42:37.521Z</time>
      </trkpt>
      <trkpt lat="44.89123" lon="5.4399">
        <ele>1332</ele>
        <time>2020-05-21T16:42:38.522Z</time>
      </trkpt>
      <trkpt lat="44.89124" lon="5.43993">
        <ele>1333</ele>
        <time>2020-05-21T16:42:39.522Z</time>
      </trkpt>
      <trkpt lat="44.89125" lon="5.43995">
        <ele>1334</ele>
        <time>2020-05-21T16:42:40.522Z</time>
      </trkpt>
      <trkpt lat="44.89126" lon="5.43997">
        <ele>1335</ele>
        <time>2020-05-21T16:42:41.522Z</time>
      </trkpt>
      <trkpt lat="44.89126" lon="5.44">
        <ele>1335</ele>
        <time>2020-05-21T16:42:42.522Z</time>
      </trkpt>
      <trkpt lat="44.89127" lon="5.44002">
        <ele>1336</ele>
        <time>2020-05-21T16:42:43.521Z</time>
      </trkpt>
      <trkpt lat="44.89127" lon="5.44005">
        <ele>1336</ele>
        <time>2020-05-21T16:42:44.522Z</time>
      </trkpt>
      <trkpt lat="44.89128" lon="5.44007">
        <ele>1336</ele>
        <time>2020-05-21T16:42:45.521Z</time>
      </trkpt>
      <trkpt lat="44.89128" lon="5.44009">
        <ele>1337</ele>
        <time>2020-05-21T16:42:46.522Z</time>
      </trkpt>
      <trkpt lat="44.89129" lon="5.44012">
        <ele>1338</ele>
        <time>2020-05-21T16:42:47.522Z</time>
      </trkpt>
      <trkpt lat="44.89129" lon="5.44014">
        <ele>1339</ele>
        <time>2020-05-21T16:42:48.522Z</time>
      </trkpt>
      <trkpt lat="44.89131" lon="5.44016">
        <ele>1339</ele>
        <time>2020-05-21T16:42:49.522Z</time>
      </trkpt>
      <trkpt lat="44.89133" lon="5.44018">
        <ele>1340</ele>
        <time>2020-05-21T16:42:50.522Z</time>
      </trkpt>
      <trkpt lat="44.89134" lon="5.44019">
        <ele>1340</ele>
        <time>2020-05-21T16:42:51.522Z</time>
      </trkpt>
      <trkpt lat="44.89135" lon="5.4402">
        <ele>1340</ele>
        <time>2020-05-21T16:42:52.522Z</time>
      </trkpt>
      <trkpt lat="44.89136" lon="5.44021">
        <ele>1340</ele>
        <time>2020-05-21T16:42:53.521Z</time>
      </trkpt>
      <trkpt lat="44.89138" lon="5.44022">
        <ele>1340</ele>
        <time>2020-05-21T16:42:54.522Z</time>
      </trkpt>
      <trkpt lat="44.89139" lon="5.44023">
        <ele>1340</ele>
        <time>2020-05-21T16:42:55.522Z</time>
      </trkpt>
      <trkpt lat="44.89141" lon="5.44024">
        <ele>1339</ele>
        <time>2020-05-21T16:42:56.521Z</time>
      </trkpt>
      <trkpt lat="44.89143" lon="5.44025">
        <ele>1339</ele>
        <time>2020-05-21T16:42:57.522Z</time>
      </trkpt>
      <trkpt lat="44.89145" lon="5.44026">
        <ele>1339</ele>
        <time>2020-05-21T16:42:58.521Z</time>
      </trkpt>
      <trkpt lat="44.89147" lon="5.44026">
        <ele>1339</ele>
        <time>2020-05-21T16:42:59.521Z</time>
      </trkpt>
      <trkpt lat="44.89149" lon="5.44026">
        <ele>1339</ele>
        <time>2020-05-21T16:43:00.522Z</time>
      </trkpt>
      <trkpt lat="44.89152" lon="5.44026">
        <ele>1339</ele>
        <time>2020-05-21T16:43:01.522Z</time>
      </trkpt>
      <trkpt lat="44.89153" lon="5.44025">
        <ele>1339</ele>
        <time>2020-05-21T16:43:02.522Z</time>
      </trkpt>
      <trkpt lat="44.89154" lon="5.44024">
        <ele>1339</ele>
        <time>2020-05-21T16:43:03.522Z</time>
      </trkpt>
      <trkpt lat="44.89156" lon="5.44023">
        <ele>1339</ele>
        <time>2020-05-21T16:43:04.522Z</time>
      </trkpt>
      <trkpt lat="44.89157" lon="5.44023">
        <ele>1340</ele>
        <time>2020-05-21T16:43:05.522Z</time>
      </trkpt>
      <trkpt lat="44.89159" lon="5.44022">
        <ele>1340</ele>
        <time>2020-05-21T16:43:06.521Z</time>
      </trkpt>
      <trkpt lat="44.89161" lon="5.44023">
        <ele>1340</ele>
        <time>2020-05-21T16:43:07.522Z</time>
      </trkpt>
      <trkpt lat="44.89163" lon="5.44024">
        <ele>1340</ele>
        <time>2020-05-21T16:43:08.522Z</time>
      </trkpt>
      <trkpt lat="44.89166" lon="5.44026">
        <ele>1341</ele>
        <time>2020-05-21T16:43:09.521Z</time>
      </trkpt>
      <trkpt lat="44.89167" lon="5.44027">
        <ele>1341</ele>
        <time>2020-05-21T16:43:10.522Z</time>
      </trkpt>
      <trkpt lat="44.89169" lon="5.44029">
        <ele>1341</ele>
        <time>2020-05-21T16:43:11.522Z</time>
      </trkpt>
      <trkpt lat="44.8917" lon="5.44031">
        <ele>1341</ele>
        <time>2020-05-21T16:43:12.522Z</time>
      </trkpt>
      <trkpt lat="44.89171" lon="5.44033">
        <ele>1341</ele>
        <time>2020-05-21T16:43:13.522Z</time>
      </trkpt>
      <trkpt lat="44.89172" lon="5.44034">
        <ele>1341</ele>
        <time>2020-05-21T16:43:14.521Z</time>
      </trkpt>
      <trkpt lat="44.89173" lon="5.44036">
        <ele>1341</ele>
        <time>2020-05-21T16:43:15.521Z</time>
      </trkpt>
      <trkpt lat="44.89174" lon="5.44038">
        <ele>1341</ele>
        <time>2020-05-21T16:43:16.521Z</time>
      </trkpt>
      <trkpt lat="44.89175" lon="5.4404">
        <ele>1341</ele>
        <time>2020-05-21T16:43:17.522Z</time>
      </trkpt>
      <trkpt lat="44.89175" lon="5.44043">
        <ele>1341</ele>
        <time>2020-05-21T16:43:18.522Z</time>
      </trkpt>
      <trkpt lat="44.89176" lon="5.44045">
        <ele>1341</ele>
        <time>2020-05-21T16:43:19.521Z</time>
      </trkpt>
      <trkpt lat="44.89177" lon="5.44047">
        <ele>1341</ele>
        <time>2020-05-21T16:43:20.521Z</time>
      </trkpt>
      <trkpt lat="44.89178" lon="5.4405">
        <ele>1341</ele>
        <time>2020-05-21T16:43:21.522Z</time>
      </trkpt>
      <trkpt lat="44.89179" lon="5.44052">
        <ele>1341</ele>
        <time>2020-05-21T16:43:22.522Z</time>
      </trkpt>
      <trkpt lat="44.89181" lon="5.44054">
        <ele>1341</ele>
        <time>2020-05-21T16:43:23.522Z</time>
      </trkpt>
      <trkpt lat="44.89183" lon="5.44056">
        <ele>1341</ele>
        <time>2020-05-21T16:43:24.522Z</time>
      </trkpt>
      <trkpt lat="44.89184" lon="5.44058">
        <ele>1341</ele>
        <time>2020-05-21T16:43:25.522Z</time>
      </trkpt>
      <trkpt lat="44.89186" lon="5.44061">
        <ele>1341</ele>
        <time>2020-05-21T16:43:26.522Z</time>
      </trkpt>
      <trkpt lat="44.89187" lon="5.44062">
        <ele>1341</ele>
        <time>2020-05-21T16:43:27.522Z</time>
      </trkpt>
      <trkpt lat="44.89189" lon="5.44064">
        <ele>1341</ele>
        <time>2020-05-21T16:43:28.522Z</time>
      </trkpt>
      <trkpt lat="44.8919" lon="5.44066">
        <ele>1341</ele>
        <time>2020-05-21T16:43:29.521Z</time>
      </trkpt>
      <trkpt lat="44.89191" lon="5.44067">
        <ele>1342</ele>
        <time>2020-05-21T16:43:30.522Z</time>
      </trkpt>
      <trkpt lat="44.89193" lon="5.44068">
        <ele>1341</ele>
        <time>2020-05-21T16:43:31.522Z</time>
      </trkpt>
      <trkpt lat="44.89194" lon="5.44068">
        <ele>1341</ele>
        <time>2020-05-21T16:43:32.521Z</time>
      </trkpt>
      <trkpt lat="44.89196" lon="5.44068">
        <ele>1341</ele>
        <time>2020-05-21T16:43:33.522Z</time>
      </trkpt>
      <trkpt lat="44.89197" lon="5.44067">
        <ele>1341</ele>
        <time>2020-05-21T16:43:34.521Z</time>
      </trkpt>
      <trkpt lat="44.89199" lon="5.44066">
        <ele>1340</ele>
        <time>2020-05-21T16:43:35.522Z</time>
      </trkpt>
      <trkpt lat="44.892" lon="5.44064">
        <ele>1340</ele>
        <time>2020-05-21T16:43:36.522Z</time>
      </trkpt>
      <trkpt lat="44.89201" lon="5.44062">
        <ele>1340</ele>
        <time>2020-05-21T16:43:37.522Z</time>
      </trkpt>
      <trkpt lat="44.89202" lon="5.4406">
        <ele>1340</ele>
        <time>2020-05-21T16:43:38.522Z</time>
      </trkpt>
      <trkpt lat="44.89204" lon="5.44058">
        <ele>1339</ele>
        <time>2020-05-21T16:43:39.522Z</time>
      </trkpt>
      <trkpt lat="44.89205" lon="5.44056">
        <ele>1339</ele>
        <time>2020-05-21T16:43:40.521Z</time>
      </trkpt>
      <trkpt lat="44.89206" lon="5.44054">
        <ele>1338</ele>
        <time>2020-05-21T16:43:41.522Z</time>
      </trkpt>
      <trkpt lat="44.89208" lon="5.44053">
        <ele>1338</ele>
        <time>2020-05-21T16:43:42.522Z</time>
      </trkpt>
      <trkpt lat="44.89209" lon="5.44051">
        <ele>1338</ele>
        <time>2020-05-21T16:43:43.522Z</time>
      </trkpt>
      <trkpt lat="44.89211" lon="5.44049">
        <ele>1337</ele>
        <time>2020-05-21T16:43:44.522Z</time>
      </trkpt>
      <trkpt lat="44.89213" lon="5.44048">
        <ele>1337</ele>
        <time>2020-05-21T16:43:45.521Z</time>
      </trkpt>
      <trkpt lat="44.89215" lon="5.44048">
        <ele>1336</ele>
        <time>2020-05-21T16:43:46.522Z</time>
      </trkpt>
      <trkpt lat="44.89216" lon="5.44046">
        <ele>1336</ele>
        <time>2020-05-21T16:43:47.521Z</time>
      </trkpt>
      <trkpt lat="44.89218" lon="5.44046">
        <ele>1336</ele>
        <time>2020-05-21T16:43:48.522Z</time>
      </trkpt>
      <trkpt lat="44.8922" lon="5.44045">
        <ele>1335</ele>
        <time>2020-05-21T16:43:49.522Z</time>
      </trkpt>
      <trkpt lat="44.89221" lon="5.44044">
        <ele>1335</ele>
        <time>2020-05-21T16:43:50.521Z</time>
      </trkpt>
      <trkpt lat="44.89223" lon="5.44043">
        <ele>1335</ele>
        <time>2020-05-21T16:43:51.522Z</time>
      </trkpt>
      <trkpt lat="44.89225" lon="5.44041">
        <ele>1335</ele>
        <time>2020-05-21T16:43:52.522Z</time>
      </trkpt>
      <trkpt lat="44.89227" lon="5.4404">
        <ele>1335</ele>
        <time>2020-05-21T16:43:53.522Z</time>
      </trkpt>
      <trkpt lat="44.89229" lon="5.44038">
        <ele>1335</ele>
        <time>2020-05-21T16:43:54.522Z</time>
      </trkpt>
      <trkpt lat="44.8923" lon="5.44037">
        <ele>1335</ele>
        <time>2020-05-21T16:43:55.522Z</time>
      </trkpt>
      <trkpt lat="44.89232" lon="5.44036">
        <ele>1335</ele>
        <time>2020-05-21T16:43:56.522Z</time>
      </trkpt>
      <trkpt lat="44.89234" lon="5.44035">
        <ele>1335</ele>
        <time>2020-05-21T16:43:57.522Z</time>
      </trkpt>
      <trkpt lat="44.89236" lon="5.44035">
        <ele>1335</ele>
        <time>2020-05-21T16:43:58.522Z</time>
      </trkpt>
      <trkpt lat="44.89238" lon="5.44034">
        <ele>1335</ele>
        <time>2020-05-21T16:43:59.522Z</time>
      </trkpt>
      <trkpt lat="44.89239" lon="5.44034">
        <ele>1335</ele>
        <time>2020-05-21T16:44:00.522Z</time>
      </trkpt>
      <trkpt lat="44.89241" lon="5.44033">
        <ele>1335</ele>
        <time>2020-05-21T16:44:01.522Z</time>
      </trkpt>
      <trkpt lat="44.89243" lon="5.44032">
        <ele>1335</ele>
        <time>2020-05-21T16:44:02.522Z</time>
      </trkpt>
      <trkpt lat="44.89245" lon="5.44031">
        <ele>1335</ele>
        <time>2020-05-21T16:44:03.522Z</time>
      </trkpt>
      <trkpt lat="44.89246" lon="5.4403">
        <ele>1335</ele>
        <time>2020-05-21T16:44:04.522Z</time>
      </trkpt>
      <trkpt lat="44.89248" lon="5.44029">
        <ele>1335</ele>
        <time>2020-05-21T16:44:05.522Z</time>
      </trkpt>
      <trkpt lat="44.8925" lon="5.44028">
        <ele>1336</ele>
        <time>2020-05-21T16:44:06.521Z</time>
      </trkpt>
      <trkpt lat="44.89251" lon="5.44026">
        <ele>1336</ele>
        <time>2020-05-21T16:44:07.522Z</time>
      </trkpt>
      <trkpt lat="44.89253" lon="5.44024">
        <ele>1336</ele>
        <time>2020-05-21T16:44:08.521Z</time>
      </trkpt>
      <trkpt lat="44.89254" lon="5.44023">
        <ele>1337</ele>
        <time>2020-05-21T16:44:09.522Z</time>
      </trkpt>
      <trkpt lat="44.89256" lon="5.44022">
        <ele>1337</ele>
        <time>2020-05-21T16:44:10.522Z</time>
      </trkpt>
      <trkpt lat="44.89258" lon="5.44022">
        <ele>1337</ele>
        <time>2020-05-21T16:44:11.521Z</time>
      </trkpt>
      <trkpt lat="44.8926" lon="5.44022">
        <ele>1337</ele>
        <time>2020-05-21T16:44:12.522Z</time>
      </trkpt>
      <trkpt lat="44.89262" lon="5.44023">
        <ele>1337</ele>
        <time>2020-05-21T16:44:13.522Z</time>
      </trkpt>
      <trkpt lat="44.89264" lon="5.44024">
        <ele>1337</ele>
        <time>2020-05-21T16:44:14.522Z</time>
      </trkpt>
      <trkpt lat="44.89267" lon="5.44025">
        <ele>1337</ele>
        <time>2020-05-21T16:44:15.521Z</time>
      </trkpt>
      <trkpt lat="44.89269" lon="5.44027">
        <ele>1337</ele>
        <time>2020-05-21T16:44:16.522Z</time>
      </trkpt>
      <trkpt lat="44.8927" lon="5.44028">
        <ele>1338</ele>
        <time>2020-05-21T16:44:17.521Z</time>
      </trkpt>
      <trkpt lat="44.89272" lon="5.4403">
        <ele>1338</ele>
        <time>2020-05-21T16:44:18.522Z</time>
      </trkpt>
      <trkpt lat="44.89273" lon="5.44032">
        <ele>1338</ele>
        <time>2020-05-21T16:44:19.522Z</time>
      </trkpt>
      <trkpt lat="44.89274" lon="5.44034">
        <ele>1339</ele>
        <time>2020-05-21T16:44:20.522Z</time>
      </trkpt>
      <trkpt lat="44.89275" lon="5.44037">
        <ele>1339</ele>
        <time>2020-05-21T16:44:21.522Z</time>
      </trkpt>
      <trkpt lat="44.89277" lon="5.44039">
        <ele>1340</ele>
        <time>2020-05-21T16:44:22.522Z</time>
      </trkpt>
      <trkpt lat="44.89279" lon="5.44041">
        <ele>1340</ele>
        <time>2020-05-21T16:44:23.522Z</time>
      </trkpt>
      <trkpt lat="44.8928" lon="5.44043">
        <ele>1340</ele>
        <time>2020-05-21T16:44:24.522Z</time>
      </trkpt>
      <trkpt lat="44.89281" lon="5.44046">
        <ele>1341</ele>
        <time>2020-05-21T16:44:25.522Z</time>
      </trkpt>
      <trkpt lat="44.89283" lon="5.44048">
        <ele>1341</ele>
        <time>2020-05-21T16:44:26.521Z</time>
      </trkpt>
      <trkpt lat="44.89285" lon="5.4405">
        <ele>1342</ele>
        <time>2020-05-21T16:44:27.522Z</time>
      </trkpt>
      <trkpt lat="44.89286" lon="5.44052">
        <ele>1342</ele>
        <time>2020-05-21T16:44:28.521Z</time>
      </trkpt>
      <trkpt lat="44.89288" lon="5.44054">
        <ele>1342</ele>
        <time>2020-05-21T16:44:29.522Z</time>
      </trkpt>
      <trkpt lat="44.89289" lon="5.44057">
        <ele>1342</ele>
        <time>2020-05-21T16:44:30.522Z</time>
      </trkpt>
      <trkpt lat="44.89291" lon="5.44059">
        <ele>1342</ele>
        <time>2020-05-21T16:44:31.522Z</time>
      </trkpt>
      <trkpt lat="44.89292" lon="5.44061">
        <ele>1342</ele>
        <time>2020-05-21T16:44:32.522Z</time>
      </trkpt>
      <trkpt lat="44.89293" lon="5.44063">
        <ele>1342</ele>
        <time>2020-05-21T16:44:33.521Z</time>
      </trkpt>
      <trkpt lat="44.89294" lon="5.44065">
        <ele>1342</ele>
        <time>2020-05-21T16:44:34.522Z</time>
      </trkpt>
      <trkpt lat="44.89297" lon="5.44067">
        <ele>1342</ele>
        <time>2020-05-21T16:44:35.522Z</time>
      </trkpt>
      <trkpt lat="44.89298" lon="5.44069">
        <ele>1342</ele>
        <time>2020-05-21T16:44:36.522Z</time>
      </trkpt>
      <trkpt lat="44.893" lon="5.44071">
        <ele>1342</ele>
        <time>2020-05-21T16:44:37.521Z</time>
      </trkpt>
      <trkpt lat="44.89301" lon="5.44072">
        <ele>1342</ele>
        <time>2020-05-21T16:44:38.522Z</time>
      </trkpt>
      <trkpt lat="44.89303" lon="5.44073">
        <ele>1341</ele>
        <time>2020-05-21T16:44:39.521Z</time>
      </trkpt>
      <trkpt lat="44.89305" lon="5.44074">
        <ele>1341</ele>
        <time>2020-05-21T16:44:40.522Z</time>
      </trkpt>
      <trkpt lat="44.89308" lon="5.44073">
        <ele>1341</ele>
        <time>2020-05-21T16:44:41.522Z</time>
      </trkpt>
      <trkpt lat="44.8931" lon="5.44071">
        <ele>1340</ele>
        <time>2020-05-21T16:44:42.522Z</time>
      </trkpt>
      <trkpt lat="44.89312" lon="5.4407">
        <ele>1340</ele>
        <time>2020-05-21T16:44:43.522Z</time>
      </trkpt>
      <trkpt lat="44.89314" lon="5.44068">
        <ele>1340</ele>
        <time>2020-05-21T16:44:44.521Z</time>
      </trkpt>
      <trkpt lat="44.89315" lon="5.44067">
        <ele>1340</ele>
        <time>2020-05-21T16:44:45.522Z</time>
      </trkpt>
      <trkpt lat="44.89316" lon="5.44066">
        <ele>1340</ele>
        <time>2020-05-21T16:44:46.522Z</time>
      </trkpt>
      <trkpt lat="44.89317" lon="5.44065">
        <ele>1340</ele>
        <time>2020-05-21T16:44:47.522Z</time>
      </trkpt>
      <trkpt lat="44.89318" lon="5.44063">
        <ele>1340</ele>
        <time>2020-05-21T16:44:48.522Z</time>
      </trkpt>
      <trkpt lat="44.89319" lon="5.44061">
        <ele>1340</ele>
        <time>2020-05-21T16:44:49.522Z</time>
      </trkpt>
      <trkpt lat="44.89321" lon="5.44059">
        <ele>1340</ele>
        <time>2020-05-21T16:44:50.522Z</time>
      </trkpt>
      <trkpt lat="44.89322" lon="5.44057">
        <ele>1340</ele>
        <time>2020-05-21T16:44:51.522Z</time>
      </trkpt>
      <trkpt lat="44.89324" lon="5.44056">
        <ele>1340</ele>
        <time>2020-05-21T16:44:52.522Z</time>
      </trkpt>
      <trkpt lat="44.89325" lon="5.44055">
        <ele>1340</ele>
        <time>2020-05-21T16:44:53.522Z</time>
      </trkpt>
      <trkpt lat="44.89326" lon="5.44054">
        <ele>1341</ele>
        <time>2020-05-21T16:44:54.521Z</time>
      </trkpt>
      <trkpt lat="44.89327" lon="5.44053">
        <ele>1341</ele>
        <time>2020-05-21T16:44:55.521Z</time>
      </trkpt>
      <trkpt lat="44.89328" lon="5.44052">
        <ele>1341</ele>
        <time>2020-05-21T16:44:56.522Z</time>
      </trkpt>
      <trkpt lat="44.8933" lon="5.44051">
        <ele>1341</ele>
        <time>2020-05-21T16:44:57.522Z</time>
      </trkpt>
      <trkpt lat="44.89331" lon="5.4405">
        <ele>1341</ele>
        <time>2020-05-21T16:44:58.521Z</time>
      </trkpt>
      <trkpt lat="44.89333" lon="5.44049">
        <ele>1342</ele>
        <time>2020-05-21T16:44:59.522Z</time>
      </trkpt>
      <trkpt lat="44.89334" lon="5.44049">
        <ele>1342</ele>
        <time>2020-05-21T16:45:00.522Z</time>
      </trkpt>
      <trkpt lat="44.89336" lon="5.44049">
        <ele>1342</ele>
        <time>2020-05-21T16:45:01.521Z</time>
      </trkpt>
      <trkpt lat="44.89339" lon="5.44048">
        <ele>1343</ele>
        <time>2020-05-21T16:45:02.522Z</time>
      </trkpt>
      <trkpt lat="44.89341" lon="5.44048">
        <ele>1343</ele>
        <time>2020-05-21T16:45:03.522Z</time>
      </trkpt>
      <trkpt lat="44.89343" lon="5.44048">
        <ele>1343</ele>
        <time>2020-05-21T16:45:04.522Z</time>
      </trkpt>
      <trkpt lat="44.89345" lon="5.44047">
        <ele>1343</ele>
        <time>2020-05-21T16:45:05.522Z</time>
      </trkpt>
      <trkpt lat="44.89348" lon="5.44047">
        <ele>1343</ele>
        <time>2020-05-21T16:45:06.521Z</time>
      </trkpt>
      <trkpt lat="44.89349" lon="5.44047">
        <ele>1343</ele>
        <time>2020-05-21T16:45:07.522Z</time>
      </trkpt>
      <trkpt lat="44.89352" lon="5.44047">
        <ele>1344</ele>
        <time>2020-05-21T16:45:08.522Z</time>
      </trkpt>
      <trkpt lat="44.89354" lon="5.44047">
        <ele>1344</ele>
        <time>2020-05-21T16:45:09.522Z</time>
      </trkpt>
      <trkpt lat="44.89356" lon="5.44048">
        <ele>1344</ele>
        <time>2020-05-21T16:45:10.522Z</time>
      </trkpt>
      <trkpt lat="44.89357" lon="5.44047">
        <ele>1344</ele>
        <time>2020-05-21T16:45:11.521Z</time>
      </trkpt>
      <trkpt lat="44.89359" lon="5.44048">
        <ele>1344</ele>
        <time>2020-05-21T16:45:12.522Z</time>
      </trkpt>
      <trkpt lat="44.8936" lon="5.4405">
        <ele>1344</ele>
        <time>2020-05-21T16:45:13.522Z</time>
      </trkpt>
      <trkpt lat="44.89361" lon="5.44051">
        <ele>1345</ele>
        <time>2020-05-21T16:45:14.522Z</time>
      </trkpt>
      <trkpt lat="44.89362" lon="5.44052">
        <ele>1344</ele>
        <time>2020-05-21T16:45:15.522Z</time>
      </trkpt>
      <trkpt lat="44.89364" lon="5.44053">
        <ele>1344</ele>
        <time>2020-05-21T16:45:16.522Z</time>
      </trkpt>
      <trkpt lat="44.89365" lon="5.44054">
        <ele>1344</ele>
        <time>2020-05-21T16:45:17.521Z</time>
      </trkpt>
      <trkpt lat="44.89367" lon="5.44054">
        <ele>1344</ele>
        <time>2020-05-21T16:45:18.522Z</time>
      </trkpt>
      <trkpt lat="44.89369" lon="5.44056">
        <ele>1344</ele>
        <time>2020-05-21T16:45:19.522Z</time>
      </trkpt>
      <trkpt lat="44.8937" lon="5.44057">
        <ele>1344</ele>
        <time>2020-05-21T16:45:20.522Z</time>
      </trkpt>
      <trkpt lat="44.89372" lon="5.44059">
        <ele>1344</ele>
        <time>2020-05-21T16:45:21.522Z</time>
      </trkpt>
      <trkpt lat="44.89374" lon="5.4406">
        <ele>1344</ele>
        <time>2020-05-21T16:45:22.522Z</time>
      </trkpt>
      <trkpt lat="44.89375" lon="5.44062">
        <ele>1344</ele>
        <time>2020-05-21T16:45:23.522Z</time>
      </trkpt>
      <trkpt lat="44.89376" lon="5.44063">
        <ele>1343</ele>
        <time>2020-05-21T16:45:24.521Z</time>
      </trkpt>
      <trkpt lat="44.89377" lon="5.44065">
        <ele>1343</ele>
        <time>2020-05-21T16:45:25.521Z</time>
      </trkpt>
      <trkpt lat="44.89379" lon="5.44066">
        <ele>1343</ele>
        <time>2020-05-21T16:45:26.522Z</time>
      </trkpt>
      <trkpt lat="44.8938" lon="5.44068">
        <ele>1343</ele>
        <time>2020-05-21T16:45:27.522Z</time>
      </trkpt>
      <trkpt lat="44.89382" lon="5.4407">
        <ele>1343</ele>
        <time>2020-05-21T16:45:28.522Z</time>
      </trkpt>
      <trkpt lat="44.89383" lon="5.44072">
        <ele>1343</ele>
        <time>2020-05-21T16:45:29.521Z</time>
      </trkpt>
      <trkpt lat="44.89384" lon="5.44074">
        <ele>1343</ele>
        <time>2020-05-21T16:45:30.522Z</time>
      </trkpt>
      <trkpt lat="44.89386" lon="5.44077">
        <ele>1343</ele>
        <time>2020-05-21T16:45:31.522Z</time>
      </trkpt>
      <trkpt lat="44.89386" lon="5.44079">
        <ele>1344</ele>
        <time>2020-05-21T16:45:32.521Z</time>
      </trkpt>
      <trkpt lat="44.89387" lon="5.44082">
        <ele>1344</ele>
        <time>2020-05-21T16:45:33.521Z</time>
      </trkpt>
      <trkpt lat="44.89388" lon="5.44084">
        <ele>1345</ele>
        <time>2020-05-21T16:45:34.522Z</time>
      </trkpt>
      <trkpt lat="44.89388" lon="5.44087">
        <ele>1346</ele>
        <time>2020-05-21T16:45:35.522Z</time>
      </trkpt>
      <trkpt lat="44.89389" lon="5.4409">
        <ele>1347</ele>
        <time>2020-05-21T16:45:36.521Z</time>
      </trkpt>
      <trkpt lat="44.89389" lon="5.44092">
        <ele>1347</ele>
        <time>2020-05-21T16:45:37.521Z</time>
      </trkpt>
      <trkpt lat="44.89389" lon="5.44095">
        <ele>1348</ele>
        <time>2020-05-21T16:45:38.522Z</time>
      </trkpt>
      <trkpt lat="44.89389" lon="5.44098">
        <ele>1348</ele>
        <time>2020-05-21T16:45:39.522Z</time>
      </trkpt>
      <trkpt lat="44.89389" lon="5.44101">
        <ele>1349</ele>
        <time>2020-05-21T16:45:40.522Z</time>
      </trkpt>
      <trkpt lat="44.89389" lon="5.44105">
        <ele>1350</ele>
        <time>2020-05-21T16:45:41.522Z</time>
      </trkpt>
      <trkpt lat="44.8939" lon="5.44107">
        <ele>1351</ele>
        <time>2020-05-21T16:45:42.521Z</time>
      </trkpt>
      <trkpt lat="44.8939" lon="5.4411">
        <ele>1351</ele>
        <time>2020-05-21T16:45:43.522Z</time>
      </trkpt>
      <trkpt lat="44.8939" lon="5.44113">
        <ele>1352</ele>
        <time>2020-05-21T16:45:44.522Z</time>
      </trkpt>
      <trkpt lat="44.89391" lon="5.44116">
        <ele>1352</ele>
        <time>2020-05-21T16:45:45.521Z</time>
      </trkpt>
      <trkpt lat="44.89391" lon="5.44119">
        <ele>1352</ele>
        <time>2020-05-21T16:45:46.522Z</time>
      </trkpt>
      <trkpt lat="44.89392" lon="5.44122">
        <ele>1352</ele>
        <time>2020-05-21T16:45:47.522Z</time>
      </trkpt>
      <trkpt lat="44.89392" lon="5.44124">
        <ele>1353</ele>
        <time>2020-05-21T16:45:48.522Z</time>
      </trkpt>
      <trkpt lat="44.89393" lon="5.44127">
        <ele>1354</ele>
        <time>2020-05-21T16:45:49.522Z</time>
      </trkpt>
      <trkpt lat="44.89395" lon="5.4413">
        <ele>1354</ele>
        <time>2020-05-21T16:45:50.521Z</time>
      </trkpt>
      <trkpt lat="44.89397" lon="5.44132">
        <ele>1355</ele>
        <time>2020-05-21T16:45:51.522Z</time>
      </trkpt>
      <trkpt lat="44.89398" lon="5.44134">
        <ele>1355</ele>
        <time>2020-05-21T16:45:52.522Z</time>
      </trkpt>
      <trkpt lat="44.894" lon="5.44136">
        <ele>1355</ele>
        <time>2020-05-21T16:45:53.522Z</time>
      </trkpt>
      <trkpt lat="44.89401" lon="5.44139">
        <ele>1356</ele>
        <time>2020-05-21T16:45:54.522Z</time>
      </trkpt>
      <trkpt lat="44.89403" lon="5.44141">
        <ele>1356</ele>
        <time>2020-05-21T16:45:55.521Z</time>
      </trkpt>
      <trkpt lat="44.89405" lon="5.44143">
        <ele>1357</ele>
        <time>2020-05-21T16:45:56.522Z</time>
      </trkpt>
      <trkpt lat="44.89406" lon="5.44145">
        <ele>1357</ele>
        <time>2020-05-21T16:45:57.522Z</time>
      </trkpt>
      <trkpt lat="44.89408" lon="5.44147">
        <ele>1358</ele>
        <time>2020-05-21T16:45:58.522Z</time>
      </trkpt>
      <trkpt lat="44.89409" lon="5.44149">
        <ele>1359</ele>
        <time>2020-05-21T16:45:59.521Z</time>
      </trkpt>
      <trkpt lat="44.8941" lon="5.44152">
        <ele>1360</ele>
        <time>2020-05-21T16:46:00.521Z</time>
      </trkpt>
      <trkpt lat="44.89412" lon="5.44154">
        <ele>1361</ele>
        <time>2020-05-21T16:46:01.522Z</time>
      </trkpt>
      <trkpt lat="44.89412" lon="5.44156">
        <ele>1362</ele>
        <time>2020-05-21T16:46:02.522Z</time>
      </trkpt>
      <trkpt lat="44.89413" lon="5.44158">
        <ele>1362</ele>
        <time>2020-05-21T16:46:03.522Z</time>
      </trkpt>
      <trkpt lat="44.89414" lon="5.44159">
        <ele>1361</ele>
        <time>2020-05-21T16:46:04.522Z</time>
      </trkpt>
      <trkpt lat="44.89416" lon="5.44161">
        <ele>1361</ele>
        <time>2020-05-21T16:46:05.522Z</time>
      </trkpt>
      <trkpt lat="44.89417" lon="5.44163">
        <ele>1361</ele>
        <time>2020-05-21T16:46:06.522Z</time>
      </trkpt>
      <trkpt lat="44.89418" lon="5.44165">
        <ele>1361</ele>
        <time>2020-05-21T16:46:07.521Z</time>
      </trkpt>
      <trkpt lat="44.89419" lon="5.44166">
        <ele>1361</ele>
        <time>2020-05-21T16:46:08.521Z</time>
      </trkpt>
      <trkpt lat="44.8942" lon="5.44168">
        <ele>1361</ele>
        <time>2020-05-21T16:46:09.522Z</time>
      </trkpt>
      <trkpt lat="44.8942" lon="5.44168">
        <ele>1361</ele>
        <time>2020-05-21T16:46:10.522Z</time>
      </trkpt>
      <trkpt lat="44.89421" lon="5.44168">
        <ele>1361</ele>
        <time>2020-05-21T16:46:11.522Z</time>
      </trkpt>
      <trkpt lat="44.89421" lon="5.44169">
        <ele>1361</ele>
        <time>2020-05-21T16:46:12.522Z</time>
      </trkpt>
      <trkpt lat="44.89422" lon="5.44169">
        <ele>1361</ele>
        <time>2020-05-21T16:46:13.522Z</time>
      </trkpt>
      <trkpt lat="44.89423" lon="5.4417">
        <ele>1360</ele>
        <time>2020-05-21T16:46:14.521Z</time>
      </trkpt>
      <trkpt lat="44.89426" lon="5.44171">
        <ele>1360</ele>
        <time>2020-05-21T16:46:15.522Z</time>
      </trkpt>
      <trkpt lat="44.89427" lon="5.44172">
        <ele>1360</ele>
        <time>2020-05-21T16:46:16.522Z</time>
      </trkpt>
      <trkpt lat="44.89429" lon="5.44174">
        <ele>1360</ele>
        <time>2020-05-21T16:46:17.521Z</time>
      </trkpt>
      <trkpt lat="44.8943" lon="5.44176">
        <ele>1360</ele>
        <time>2020-05-21T16:46:18.521Z</time>
      </trkpt>
      <trkpt lat="44.89432" lon="5.44177">
        <ele>1360</ele>
        <time>2020-05-21T16:46:19.522Z</time>
      </trkpt>
      <trkpt lat="44.89434" lon="5.44178">
        <ele>1359</ele>
        <time>2020-05-21T16:46:20.522Z</time>
      </trkpt>
      <trkpt lat="44.89435" lon="5.44178">
        <ele>1359</ele>
        <time>2020-05-21T16:46:21.521Z</time>
      </trkpt>
      <trkpt lat="44.89435" lon="5.44178">
        <ele>1359</ele>
        <time>2020-05-21T16:46:22.522Z</time>
      </trkpt>
      <trkpt lat="44.89437" lon="5.44179">
        <ele>1359</ele>
        <time>2020-05-21T16:46:23.521Z</time>
      </trkpt>
      <trkpt lat="44.89439" lon="5.44181">
        <ele>1359</ele>
        <time>2020-05-21T16:46:24.522Z</time>
      </trkpt>
      <trkpt lat="44.8944" lon="5.44183">
        <ele>1360</ele>
        <time>2020-05-21T16:46:25.522Z</time>
      </trkpt>
      <trkpt lat="44.89441" lon="5.44184">
        <ele>1361</ele>
        <time>2020-05-21T16:46:26.522Z</time>
      </trkpt>
      <trkpt lat="44.89443" lon="5.44186">
        <ele>1361</ele>
        <time>2020-05-21T16:46:27.522Z</time>
      </trkpt>
      <trkpt lat="44.89443" lon="5.44188">
        <ele>1361</ele>
        <time>2020-05-21T16:46:28.522Z</time>
      </trkpt>
      <trkpt lat="44.89444" lon="5.4419">
        <ele>1361</ele>
        <time>2020-05-21T16:46:29.522Z</time>
      </trkpt>
      <trkpt lat="44.89445" lon="5.44192">
        <ele>1361</ele>
        <time>2020-05-21T16:46:30.522Z</time>
      </trkpt>
      <trkpt lat="44.89446" lon="5.44194">
        <ele>1361</ele>
        <time>2020-05-21T16:46:31.522Z</time>
      </trkpt>
      <trkpt lat="44.89448" lon="5.44195">
        <ele>1362</ele>
        <time>2020-05-21T16:46:32.522Z</time>
      </trkpt>
      <trkpt lat="44.89449" lon="5.44196">
        <ele>1362</ele>
        <time>2020-05-21T16:46:33.522Z</time>
      </trkpt>
      <trkpt lat="44.89451" lon="5.44197">
        <ele>1362</ele>
        <time>2020-05-21T16:46:34.522Z</time>
      </trkpt>
      <trkpt lat="44.89452" lon="5.44198">
        <ele>1363</ele>
        <time>2020-05-21T16:46:35.522Z</time>
      </trkpt>
      <trkpt lat="44.89454" lon="5.44198">
        <ele>1362</ele>
        <time>2020-05-21T16:46:36.522Z</time>
      </trkpt>
      <trkpt lat="44.89455" lon="5.44199">
        <ele>1362</ele>
        <time>2020-05-21T16:46:37.521Z</time>
      </trkpt>
      <trkpt lat="44.89457" lon="5.44198">
        <ele>1361</ele>
        <time>2020-05-21T16:46:38.522Z</time>
      </trkpt>
      <trkpt lat="44.89459" lon="5.44198">
        <ele>1361</ele>
        <time>2020-05-21T16:46:39.521Z</time>
      </trkpt>
      <trkpt lat="44.8946" lon="5.44198">
        <ele>1360</ele>
        <time>2020-05-21T16:46:40.521Z</time>
      </trkpt>
      <trkpt lat="44.89461" lon="5.44197">
        <ele>1360</ele>
        <time>2020-05-21T16:46:41.521Z</time>
      </trkpt>
      <trkpt lat="44.89462" lon="5.44197">
        <ele>1361</ele>
        <time>2020-05-21T16:46:42.522Z</time>
      </trkpt>
      <trkpt lat="44.89463" lon="5.44196">
        <ele>1361</ele>
        <time>2020-05-21T16:46:43.522Z</time>
      </trkpt>
      <trkpt lat="44.89465" lon="5.44196">
        <ele>1362</ele>
        <time>2020-05-21T16:46:44.522Z</time>
      </trkpt>
      <trkpt lat="44.89467" lon="5.44196">
        <ele>1362</ele>
        <time>2020-05-21T16:46:45.522Z</time>
      </trkpt>
      <trkpt lat="44.89468" lon="5.44196">
        <ele>1362</ele>
        <time>2020-05-21T16:46:46.521Z</time>
      </trkpt>
      <trkpt lat="44.8947" lon="5.44196">
        <ele>1362</ele>
        <time>2020-05-21T16:46:47.522Z</time>
      </trkpt>
      <trkpt lat="44.89472" lon="5.44196">
        <ele>1362</ele>
        <time>2020-05-21T16:46:48.522Z</time>
      </trkpt>
      <trkpt lat="44.89474" lon="5.44196">
        <ele>1361</ele>
        <time>2020-05-21T16:46:49.522Z</time>
      </trkpt>
      <trkpt lat="44.89475" lon="5.44197">
        <ele>1361</ele>
        <time>2020-05-21T16:46:50.522Z</time>
      </trkpt>
      <trkpt lat="44.89477" lon="5.44197">
        <ele>1361</ele>
        <time>2020-05-21T16:46:51.521Z</time>
      </trkpt>
      <trkpt lat="44.89479" lon="5.44197">
        <ele>1360</ele>
        <time>2020-05-21T16:46:52.522Z</time>
      </trkpt>
      <trkpt lat="44.8948" lon="5.44197">
        <ele>1360</ele>
        <time>2020-05-21T16:46:53.521Z</time>
      </trkpt>
      <trkpt lat="44.89482" lon="5.44197">
        <ele>1360</ele>
        <time>2020-05-21T16:46:54.522Z</time>
      </trkpt>
      <trkpt lat="44.89483" lon="5.44198">
        <ele>1360</ele>
        <time>2020-05-21T16:46:55.521Z</time>
      </trkpt>
      <trkpt lat="44.89484" lon="5.44198">
        <ele>1360</ele>
        <time>2020-05-21T16:46:56.522Z</time>
      </trkpt>
      <trkpt lat="44.89485" lon="5.44199">
        <ele>1360</ele>
        <time>2020-05-21T16:46:57.522Z</time>
      </trkpt>
      <trkpt lat="44.89487" lon="5.44199">
        <ele>1360</ele>
        <time>2020-05-21T16:46:58.521Z</time>
      </trkpt>
      <trkpt lat="44.89487" lon="5.44199">
        <ele>1360</ele>
        <time>2020-05-21T16:46:59.521Z</time>
      </trkpt>
      <trkpt lat="44.89488" lon="5.44199">
        <ele>1360</ele>
        <time>2020-05-21T16:47:00.521Z</time>
      </trkpt>
      <trkpt lat="44.8949" lon="5.44199">
        <ele>1360</ele>
        <time>2020-05-21T16:47:01.521Z</time>
      </trkpt>
      <trkpt lat="44.89492" lon="5.44198">
        <ele>1359</ele>
        <time>2020-05-21T16:47:02.522Z</time>
      </trkpt>
      <trkpt lat="44.89493" lon="5.44198">
        <ele>1359</ele>
        <time>2020-05-21T16:47:03.522Z</time>
      </trkpt>
      <trkpt lat="44.89495" lon="5.44197">
        <ele>1359</ele>
        <time>2020-05-21T16:47:04.521Z</time>
      </trkpt>
      <trkpt lat="44.89496" lon="5.44197">
        <ele>1359</ele>
        <time>2020-05-21T16:47:05.522Z</time>
      </trkpt>
      <trkpt lat="44.89498" lon="5.44195">
        <ele>1360</ele>
        <time>2020-05-21T16:47:06.521Z</time>
      </trkpt>
      <trkpt lat="44.895" lon="5.44194">
        <ele>1360</ele>
        <time>2020-05-21T16:47:07.522Z</time>
      </trkpt>
      <trkpt lat="44.89501" lon="5.44194">
        <ele>1360</ele>
        <time>2020-05-21T16:47:08.522Z</time>
      </trkpt>
      <trkpt lat="44.89503" lon="5.44193">
        <ele>1360</ele>
        <time>2020-05-21T16:47:09.522Z</time>
      </trkpt>
      <trkpt lat="44.89506" lon="5.44193">
        <ele>1360</ele>
        <time>2020-05-21T16:47:10.522Z</time>
      </trkpt>
      <trkpt lat="44.89508" lon="5.44193">
        <ele>1361</ele>
        <time>2020-05-21T16:47:11.522Z</time>
      </trkpt>
      <trkpt lat="44.8951" lon="5.44194">
        <ele>1361</ele>
        <time>2020-05-21T16:47:12.522Z</time>
      </trkpt>
      <trkpt lat="44.89512" lon="5.44195">
        <ele>1361</ele>
        <time>2020-05-21T16:47:13.522Z</time>
      </trkpt>
      <trkpt lat="44.89514" lon="5.44196">
        <ele>1361</ele>
        <time>2020-05-21T16:47:14.522Z</time>
      </trkpt>
      <trkpt lat="44.89515" lon="5.44197">
        <ele>1362</ele>
        <time>2020-05-21T16:47:15.522Z</time>
      </trkpt>
      <trkpt lat="44.89517" lon="5.44198">
        <ele>1362</ele>
        <time>2020-05-21T16:47:16.522Z</time>
      </trkpt>
      <trkpt lat="44.89519" lon="5.44199">
        <ele>1361</ele>
        <time>2020-05-21T16:47:17.522Z</time>
      </trkpt>
      <trkpt lat="44.8952" lon="5.442">
        <ele>1361</ele>
        <time>2020-05-21T16:47:18.521Z</time>
      </trkpt>
      <trkpt lat="44.89521" lon="5.44202">
        <ele>1360</ele>
        <time>2020-05-21T16:47:19.522Z</time>
      </trkpt>
      <trkpt lat="44.89523" lon="5.44205">
        <ele>1360</ele>
        <time>2020-05-21T16:47:20.522Z</time>
      </trkpt>
      <trkpt lat="44.89524" lon="5.44208">
        <ele>1359</ele>
        <time>2020-05-21T16:47:21.522Z</time>
      </trkpt>
      <trkpt lat="44.89526" lon="5.4421">
        <ele>1359</ele>
        <time>2020-05-21T16:47:22.522Z</time>
      </trkpt>
      <trkpt lat="44.89527" lon="5.44211">
        <ele>1359</ele>
        <time>2020-05-21T16:47:23.522Z</time>
      </trkpt>
      <trkpt lat="44.89528" lon="5.44214">
        <ele>1359</ele>
        <time>2020-05-21T16:47:24.521Z</time>
      </trkpt>
      <trkpt lat="44.89529" lon="5.44216">
        <ele>1359</ele>
        <time>2020-05-21T16:47:25.522Z</time>
      </trkpt>
      <trkpt lat="44.8953" lon="5.44218">
        <ele>1359</ele>
        <time>2020-05-21T16:47:26.521Z</time>
      </trkpt>
      <trkpt lat="44.89531" lon="5.44219">
        <ele>1359</ele>
        <time>2020-05-21T16:47:27.522Z</time>
      </trkpt>
      <trkpt lat="44.89534" lon="5.4422">
        <ele>1360</ele>
        <time>2020-05-21T16:47:28.521Z</time>
      </trkpt>
      <trkpt lat="44.89535" lon="5.44221">
        <ele>1360</ele>
        <time>2020-05-21T16:47:29.522Z</time>
      </trkpt>
      <trkpt lat="44.89537" lon="5.44221">
        <ele>1361</ele>
        <time>2020-05-21T16:47:30.521Z</time>
      </trkpt>
      <trkpt lat="44.89539" lon="5.4422">
        <ele>1362</ele>
        <time>2020-05-21T16:47:31.522Z</time>
      </trkpt>
      <trkpt lat="44.89541" lon="5.44219">
        <ele>1362</ele>
        <time>2020-05-21T16:47:32.522Z</time>
      </trkpt>
      <trkpt lat="44.89544" lon="5.44218">
        <ele>1362</ele>
        <time>2020-05-21T16:47:33.522Z</time>
      </trkpt>
      <trkpt lat="44.89546" lon="5.44216">
        <ele>1363</ele>
        <time>2020-05-21T16:47:34.522Z</time>
      </trkpt>
      <trkpt lat="44.89547" lon="5.44213">
        <ele>1363</ele>
        <time>2020-05-21T16:47:35.522Z</time>
      </trkpt>
      <trkpt lat="44.89549" lon="5.4421">
        <ele>1363</ele>
        <time>2020-05-21T16:47:36.521Z</time>
      </trkpt>
      <trkpt lat="44.8955" lon="5.44208">
        <ele>1363</ele>
        <time>2020-05-21T16:47:37.522Z</time>
      </trkpt>
      <trkpt lat="44.89552" lon="5.44206">
        <ele>1364</ele>
        <time>2020-05-21T16:47:38.522Z</time>
      </trkpt>
      <trkpt lat="44.89554" lon="5.44205">
        <ele>1363</ele>
        <time>2020-05-21T16:47:39.521Z</time>
      </trkpt>
      <trkpt lat="44.89556" lon="5.44203">
        <ele>1364</ele>
        <time>2020-05-21T16:47:40.521Z</time>
      </trkpt>
      <trkpt lat="44.89557" lon="5.44201">
        <ele>1364</ele>
        <time>2020-05-21T16:47:41.522Z</time>
      </trkpt>
      <trkpt lat="44.89558" lon="5.44199">
        <ele>1364</ele>
        <time>2020-05-21T16:47:42.522Z</time>
      </trkpt>
      <trkpt lat="44.89559" lon="5.44198">
        <ele>1364</ele>
        <time>2020-05-21T16:47:43.522Z</time>
      </trkpt>
      <trkpt lat="44.89561" lon="5.44196">
        <ele>1365</ele>
        <time>2020-05-21T16:47:44.522Z</time>
      </trkpt>
      <trkpt lat="44.89562" lon="5.44195">
        <ele>1365</ele>
        <time>2020-05-21T16:47:45.522Z</time>
      </trkpt>
      <trkpt lat="44.89563" lon="5.44194">
        <ele>1365</ele>
        <time>2020-05-21T16:47:46.521Z</time>
      </trkpt>
      <trkpt lat="44.89565" lon="5.44191">
        <ele>1365</ele>
        <time>2020-05-21T16:47:47.522Z</time>
      </trkpt>
      <trkpt lat="44.89566" lon="5.44189">
        <ele>1365</ele>
        <time>2020-05-21T16:47:48.522Z</time>
      </trkpt>
      <trkpt lat="44.89568" lon="5.44186">
        <ele>1365</ele>
        <time>2020-05-21T16:47:49.522Z</time>
      </trkpt>
      <trkpt lat="44.89569" lon="5.44183">
        <ele>1365</ele>
        <time>2020-05-21T16:47:50.521Z</time>
      </trkpt>
      <trkpt lat="44.8957" lon="5.4418">
        <ele>1365</ele>
        <time>2020-05-21T16:47:51.521Z</time>
      </trkpt>
      <trkpt lat="44.89571" lon="5.44176">
        <ele>1365</ele>
        <time>2020-05-21T16:47:52.522Z</time>
      </trkpt>
      <trkpt lat="44.89572" lon="5.44174">
        <ele>1365</ele>
        <time>2020-05-21T16:47:53.521Z</time>
      </trkpt>
      <trkpt lat="44.89573" lon="5.44172">
        <ele>1365</ele>
        <time>2020-05-21T16:47:54.522Z</time>
      </trkpt>
      <trkpt lat="44.89575" lon="5.4417">
        <ele>1365</ele>
        <time>2020-05-21T16:47:55.522Z</time>
      </trkpt>
      <trkpt lat="44.89577" lon="5.44169">
        <ele>1365</ele>
        <time>2020-05-21T16:47:56.522Z</time>
      </trkpt>
      <trkpt lat="44.89579" lon="5.44166">
        <ele>1365</ele>
        <time>2020-05-21T16:47:57.522Z</time>
      </trkpt>
      <trkpt lat="44.89582" lon="5.44165">
        <ele>1365</ele>
        <time>2020-05-21T16:47:58.522Z</time>
      </trkpt>
      <trkpt lat="44.89584" lon="5.44164">
        <ele>1365</ele>
        <time>2020-05-21T16:47:59.522Z</time>
      </trkpt>
      <trkpt lat="44.89586" lon="5.44163">
        <ele>1364</ele>
        <time>2020-05-21T16:48:00.521Z</time>
      </trkpt>
      <trkpt lat="44.89589" lon="5.44163">
        <ele>1364</ele>
        <time>2020-05-21T16:48:01.521Z</time>
      </trkpt>
      <trkpt lat="44.89591" lon="5.44163">
        <ele>1364</ele>
        <time>2020-05-21T16:48:02.522Z</time>
      </trkpt>
      <trkpt lat="44.89593" lon="5.44164">
        <ele>1363</ele>
        <time>2020-05-21T16:48:03.522Z</time>
      </trkpt>
      <trkpt lat="44.89594" lon="5.44165">
        <ele>1363</ele>
        <time>2020-05-21T16:48:04.522Z</time>
      </trkpt>
      <trkpt lat="44.89594" lon="5.44167">
        <ele>1363</ele>
        <time>2020-05-21T16:48:05.521Z</time>
      </trkpt>
      <trkpt lat="44.89593" lon="5.44167">
        <ele>1363</ele>
        <time>2020-05-21T16:48:06.522Z</time>
      </trkpt>
      <trkpt lat="44.89591" lon="5.44168">
        <ele>1363</ele>
        <time>2020-05-21T16:48:07.522Z</time>
      </trkpt>
      <trkpt lat="44.89589" lon="5.44169">
        <ele>1363</ele>
        <time>2020-05-21T16:48:08.522Z</time>
      </trkpt>
      <trkpt lat="44.89588" lon="5.4417">
        <ele>1364</ele>
        <time>2020-05-21T16:48:09.521Z</time>
      </trkpt>
      <trkpt lat="44.89587" lon="5.4417">
        <ele>1364</ele>
        <time>2020-05-21T16:48:10.521Z</time>
      </trkpt>
      <trkpt lat="44.89587" lon="5.4417">
        <ele>1364</ele>
        <time>2020-05-21T16:48:11.521Z</time>
      </trkpt>
      <trkpt lat="44.89586" lon="5.44171">
        <ele>1364</ele>
        <time>2020-05-21T16:48:12.521Z</time>
      </trkpt>
      <trkpt lat="44.89587" lon="5.44171">
        <ele>1364</ele>
        <time>2020-05-21T16:48:13.522Z</time>
      </trkpt>
      <trkpt lat="44.89586" lon="5.44171">
        <ele>1364</ele>
        <time>2020-05-21T16:48:14.523Z</time>
      </trkpt>
      <trkpt lat="44.89586" lon="5.44171">
        <ele>1364</ele>
        <time>2020-05-21T16:48:15.523Z</time>
      </trkpt>
      <trkpt lat="44.89586" lon="5.44171">
        <ele>1364</ele>
        <time>2020-05-21T16:48:16.522Z</time>
      </trkpt>
      <trkpt lat="44.89586" lon="5.44171">
        <ele>1364</ele>
        <time>2020-05-21T16:48:17.523Z</time>
      </trkpt>
      <trkpt lat="44.89587" lon="5.44171">
        <ele>1364</ele>
        <time>2020-05-21T16:48:18.523Z</time>
      </trkpt>
      <trkpt lat="44.89587" lon="5.44171">
        <ele>1364</ele>
        <time>2020-05-21T16:48:19.523Z</time>
      </trkpt>
      <trkpt lat="44.8959" lon="5.4417">
        <ele>1364</ele>
        <time>2020-05-21T16:48:20.522Z</time>
      </trkpt>
      <trkpt lat="44.89592" lon="5.4417">
        <ele>1364</ele>
        <time>2020-05-21T16:48:21.523Z</time>
      </trkpt>
      <trkpt lat="44.89595" lon="5.4417">
        <ele>1364</ele>
        <time>2020-05-21T16:48:22.523Z</time>
      </trkpt>
      <trkpt lat="44.89597" lon="5.44171">
        <ele>1364</ele>
        <time>2020-05-21T16:48:23.522Z</time>
      </trkpt>
      <trkpt lat="44.896" lon="5.44173">
        <ele>1364</ele>
        <time>2020-05-21T16:48:24.523Z</time>
      </trkpt>
      <trkpt lat="44.89603" lon="5.44174">
        <ele>1364</ele>
        <time>2020-05-21T16:48:25.523Z</time>
      </trkpt>
      <trkpt lat="44.89605" lon="5.44175">
        <ele>1364</ele>
        <time>2020-05-21T16:48:26.523Z</time>
      </trkpt>
      <trkpt lat="44.89608" lon="5.44176">
        <ele>1364</ele>
        <time>2020-05-21T16:48:27.522Z</time>
      </trkpt>
      <trkpt lat="44.8961" lon="5.44178">
        <ele>1364</ele>
        <time>2020-05-21T16:48:28.523Z</time>
      </trkpt>
      <trkpt lat="44.89612" lon="5.4418">
        <ele>1365</ele>
        <time>2020-05-21T16:48:29.523Z</time>
      </trkpt>
      <trkpt lat="44.89614" lon="5.44182">
        <ele>1364</ele>
        <time>2020-05-21T16:48:30.522Z</time>
      </trkpt>
      <trkpt lat="44.89616" lon="5.44184">
        <ele>1364</ele>
        <time>2020-05-21T16:48:31.523Z</time>
      </trkpt>
      <trkpt lat="44.89618" lon="5.44186">
        <ele>1364</ele>
        <time>2020-05-21T16:48:32.523Z</time>
      </trkpt>
      <trkpt lat="44.8962" lon="5.44189">
        <ele>1364</ele>
        <time>2020-05-21T16:48:33.522Z</time>
      </trkpt>
      <trkpt lat="44.89621" lon="5.44191">
        <ele>1364</ele>
        <time>2020-05-21T16:48:34.523Z</time>
      </trkpt>
      <trkpt lat="44.89622" lon="5.44193">
        <ele>1364</ele>
        <time>2020-05-21T16:48:35.522Z</time>
      </trkpt>
      <trkpt lat="44.89623" lon="5.44196">
        <ele>1364</ele>
        <time>2020-05-21T16:48:36.522Z</time>
      </trkpt>
      <trkpt lat="44.89624" lon="5.44199">
        <ele>1364</ele>
        <time>2020-05-21T16:48:37.523Z</time>
      </trkpt>
      <trkpt lat="44.89624" lon="5.44202">
        <ele>1364</ele>
        <time>2020-05-21T16:48:38.523Z</time>
      </trkpt>
      <trkpt lat="44.89626" lon="5.44206">
        <ele>1364</ele>
        <time>2020-05-21T16:48:39.523Z</time>
      </trkpt>
      <trkpt lat="44.89627" lon="5.44209">
        <ele>1364</ele>
        <time>2020-05-21T16:48:40.523Z</time>
      </trkpt>
      <trkpt lat="44.89628" lon="5.44212">
        <ele>1363</ele>
        <time>2020-05-21T16:48:41.523Z</time>
      </trkpt>
      <trkpt lat="44.89629" lon="5.44216">
        <ele>1363</ele>
        <time>2020-05-21T16:48:42.522Z</time>
      </trkpt>
      <trkpt lat="44.8963" lon="5.4422">
        <ele>1363</ele>
        <time>2020-05-21T16:48:43.522Z</time>
      </trkpt>
      <trkpt lat="44.89631" lon="5.44225">
        <ele>1363</ele>
        <time>2020-05-21T16:48:44.522Z</time>
      </trkpt>
      <trkpt lat="44.89633" lon="5.44229">
        <ele>1363</ele>
        <time>2020-05-21T16:48:45.522Z</time>
      </trkpt>
      <trkpt lat="44.89635" lon="5.44232">
        <ele>1363</ele>
        <time>2020-05-21T16:48:46.522Z</time>
      </trkpt>
      <trkpt lat="44.89637" lon="5.44235">
        <ele>1364</ele>
        <time>2020-05-21T16:48:47.522Z</time>
      </trkpt>
      <trkpt lat="44.89639" lon="5.44239">
        <ele>1364</ele>
        <time>2020-05-21T16:48:48.522Z</time>
      </trkpt>
      <trkpt lat="44.8964" lon="5.44243">
        <ele>1365</ele>
        <time>2020-05-21T16:48:49.523Z</time>
      </trkpt>
      <trkpt lat="44.89641" lon="5.44247">
        <ele>1366</ele>
        <time>2020-05-21T16:48:50.522Z</time>
      </trkpt>
      <trkpt lat="44.89642" lon="5.4425">
        <ele>1366</ele>
        <time>2020-05-21T16:48:51.522Z</time>
      </trkpt>
      <trkpt lat="44.89642" lon="5.44253">
        <ele>1366</ele>
        <time>2020-05-21T16:48:52.523Z</time>
      </trkpt>
      <trkpt lat="44.89643" lon="5.44257">
        <ele>1366</ele>
        <time>2020-05-21T16:48:53.523Z</time>
      </trkpt>
      <trkpt lat="44.89644" lon="5.4426">
        <ele>1366</ele>
        <time>2020-05-21T16:48:54.523Z</time>
      </trkpt>
      <trkpt lat="44.89645" lon="5.44263">
        <ele>1366</ele>
        <time>2020-05-21T16:48:55.523Z</time>
      </trkpt>
      <trkpt lat="44.89647" lon="5.44265">
        <ele>1366</ele>
        <time>2020-05-21T16:48:56.523Z</time>
      </trkpt>
      <trkpt lat="44.89649" lon="5.44266">
        <ele>1366</ele>
        <time>2020-05-21T16:48:57.523Z</time>
      </trkpt>
      <trkpt lat="44.89651" lon="5.44268">
        <ele>1367</ele>
        <time>2020-05-21T16:48:58.523Z</time>
      </trkpt>
      <trkpt lat="44.89653" lon="5.44268">
        <ele>1367</ele>
        <time>2020-05-21T16:48:59.523Z</time>
      </trkpt>
      <trkpt lat="44.89655" lon="5.44268">
        <ele>1367</ele>
        <time>2020-05-21T16:49:00.523Z</time>
      </trkpt>
      <trkpt lat="44.89657" lon="5.44268">
        <ele>1367</ele>
        <time>2020-05-21T16:49:01.523Z</time>
      </trkpt>
      <trkpt lat="44.89659" lon="5.44267">
        <ele>1367</ele>
        <time>2020-05-21T16:49:02.523Z</time>
      </trkpt>
      <trkpt lat="44.89661" lon="5.44265">
        <ele>1367</ele>
        <time>2020-05-21T16:49:03.523Z</time>
      </trkpt>
      <trkpt lat="44.89663" lon="5.44264">
        <ele>1367</ele>
        <time>2020-05-21T16:49:04.523Z</time>
      </trkpt>
      <trkpt lat="44.89664" lon="5.44262">
        <ele>1367</ele>
        <time>2020-05-21T16:49:05.523Z</time>
      </trkpt>
      <trkpt lat="44.89666" lon="5.4426">
        <ele>1367</ele>
        <time>2020-05-21T16:49:06.523Z</time>
      </trkpt>
      <trkpt lat="44.89668" lon="5.44257">
        <ele>1367</ele>
        <time>2020-05-21T16:49:07.523Z</time>
      </trkpt>
      <trkpt lat="44.89669" lon="5.44254">
        <ele>1366</ele>
        <time>2020-05-21T16:49:08.522Z</time>
      </trkpt>
      <trkpt lat="44.89671" lon="5.44251">
        <ele>1366</ele>
        <time>2020-05-21T16:49:09.523Z</time>
      </trkpt>
      <trkpt lat="44.89671" lon="5.44248">
        <ele>1366</ele>
        <time>2020-05-21T16:49:10.523Z</time>
      </trkpt>
      <trkpt lat="44.89672" lon="5.44246">
        <ele>1366</ele>
        <time>2020-05-21T16:49:11.523Z</time>
      </trkpt>
      <trkpt lat="44.89674" lon="5.44243">
        <ele>1367</ele>
        <time>2020-05-21T16:49:12.523Z</time>
      </trkpt>
      <trkpt lat="44.89675" lon="5.44241">
        <ele>1367</ele>
        <time>2020-05-21T16:49:13.523Z</time>
      </trkpt>
      <trkpt lat="44.89677" lon="5.44238">
        <ele>1367</ele>
        <time>2020-05-21T16:49:14.523Z</time>
      </trkpt>
      <trkpt lat="44.89678" lon="5.44236">
        <ele>1368</ele>
        <time>2020-05-21T16:49:15.523Z</time>
      </trkpt>
      <trkpt lat="44.89679" lon="5.44234">
        <ele>1368</ele>
        <time>2020-05-21T16:49:16.523Z</time>
      </trkpt>
      <trkpt lat="44.89681" lon="5.44232">
        <ele>1368</ele>
        <time>2020-05-21T16:49:17.523Z</time>
      </trkpt>
      <trkpt lat="44.89682" lon="5.4423">
        <ele>1368</ele>
        <time>2020-05-21T16:49:18.523Z</time>
      </trkpt>
      <trkpt lat="44.89684" lon="5.44228">
        <ele>1368</ele>
        <time>2020-05-21T16:49:19.523Z</time>
      </trkpt>
      <trkpt lat="44.89686" lon="5.44225">
        <ele>1368</ele>
        <time>2020-05-21T16:49:20.523Z</time>
      </trkpt>
      <trkpt lat="44.89687" lon="5.44223">
        <ele>1368</ele>
        <time>2020-05-21T16:49:21.522Z</time>
      </trkpt>
      <trkpt lat="44.89689" lon="5.44221">
        <ele>1367</ele>
        <time>2020-05-21T16:49:22.523Z</time>
      </trkpt>
      <trkpt lat="44.89691" lon="5.44219">
        <ele>1367</ele>
        <time>2020-05-21T16:49:23.523Z</time>
      </trkpt>
      <trkpt lat="44.89692" lon="5.44217">
        <ele>1367</ele>
        <time>2020-05-21T16:49:24.523Z</time>
      </trkpt>
      <trkpt lat="44.89694" lon="5.44214">
        <ele>1367</ele>
        <time>2020-05-21T16:49:25.523Z</time>
      </trkpt>
      <trkpt lat="44.89696" lon="5.44212">
        <ele>1366</ele>
        <time>2020-05-21T16:49:26.523Z</time>
      </trkpt>
      <trkpt lat="44.89698" lon="5.4421">
        <ele>1366</ele>
        <time>2020-05-21T16:49:27.523Z</time>
      </trkpt>
      <trkpt lat="44.897" lon="5.44208">
        <ele>1366</ele>
        <time>2020-05-21T16:49:28.523Z</time>
      </trkpt>
      <trkpt lat="44.89703" lon="5.44205">
        <ele>1365</ele>
        <time>2020-05-21T16:49:29.523Z</time>
      </trkpt>
      <trkpt lat="44.89705" lon="5.44203">
        <ele>1365</ele>
        <time>2020-05-21T16:49:30.523Z</time>
      </trkpt>
      <trkpt lat="44.89707" lon="5.44201">
        <ele>1364</ele>
        <time>2020-05-21T16:49:31.523Z</time>
      </trkpt>
      <trkpt lat="44.89708" lon="5.44199">
        <ele>1363</ele>
        <time>2020-05-21T16:49:32.523Z</time>
      </trkpt>
      <trkpt lat="44.8971" lon="5.44197">
        <ele>1362</ele>
        <time>2020-05-21T16:49:33.522Z</time>
      </trkpt>
      <trkpt lat="44.89712" lon="5.44195">
        <ele>1362</ele>
        <time>2020-05-21T16:49:34.523Z</time>
      </trkpt>
      <trkpt lat="44.89713" lon="5.44192">
        <ele>1361</ele>
        <time>2020-05-21T16:49:35.523Z</time>
      </trkpt>
      <trkpt lat="44.89715" lon="5.4419">
        <ele>1361</ele>
        <time>2020-05-21T16:49:36.523Z</time>
      </trkpt>
      <trkpt lat="44.89717" lon="5.44188">
        <ele>1360</ele>
        <time>2020-05-21T16:49:37.523Z</time>
      </trkpt>
      <trkpt lat="44.89718" lon="5.44186">
        <ele>1359</ele>
        <time>2020-05-21T16:49:38.523Z</time>
      </trkpt>
      <trkpt lat="44.8972" lon="5.44184">
        <ele>1358</ele>
        <time>2020-05-21T16:49:39.523Z</time>
      </trkpt>
      <trkpt lat="44.89722" lon="5.44182">
        <ele>1358</ele>
        <time>2020-05-21T16:49:40.523Z</time>
      </trkpt>
      <trkpt lat="44.89724" lon="5.44181">
        <ele>1357</ele>
        <time>2020-05-21T16:49:41.523Z</time>
      </trkpt>
      <trkpt lat="44.89726" lon="5.4418">
        <ele>1357</ele>
        <time>2020-05-21T16:49:42.522Z</time>
      </trkpt>
      <trkpt lat="44.89728" lon="5.4418">
        <ele>1357</ele>
        <time>2020-05-21T16:49:43.523Z</time>
      </trkpt>
      <trkpt lat="44.8973" lon="5.4418">
        <ele>1357</ele>
        <time>2020-05-21T16:49:44.523Z</time>
      </trkpt>
      <trkpt lat="44.89732" lon="5.4418">
        <ele>1357</ele>
        <time>2020-05-21T16:49:45.523Z</time>
      </trkpt>
      <trkpt lat="44.89734" lon="5.44181">
        <ele>1358</ele>
        <time>2020-05-21T16:49:46.523Z</time>
      </trkpt>
      <trkpt lat="44.89735" lon="5.44182">
        <ele>1359</ele>
        <time>2020-05-21T16:49:47.523Z</time>
      </trkpt>
      <trkpt lat="44.89737" lon="5.44182">
        <ele>1360</ele>
        <time>2020-05-21T16:49:48.523Z</time>
      </trkpt>
      <trkpt lat="44.89738" lon="5.44182">
        <ele>1362</ele>
        <time>2020-05-21T16:49:49.522Z</time>
      </trkpt>
      <trkpt lat="44.89739" lon="5.44181">
        <ele>1363</ele>
        <time>2020-05-21T16:49:50.523Z</time>
      </trkpt>
      <trkpt lat="44.89741" lon="5.44181">
        <ele>1364</ele>
        <time>2020-05-21T16:49:51.523Z</time>
      </trkpt>
      <trkpt lat="44.89742" lon="5.4418">
        <ele>1365</ele>
        <time>2020-05-21T16:49:52.523Z</time>
      </trkpt>
      <trkpt lat="44.89743" lon="5.44177">
        <ele>1366</ele>
        <time>2020-05-21T16:49:53.523Z</time>
      </trkpt>
      <trkpt lat="44.89744" lon="5.44175">
        <ele>1366</ele>
        <time>2020-05-21T16:49:54.523Z</time>
      </trkpt>
      <trkpt lat="44.89746" lon="5.44173">
        <ele>1366</ele>
        <time>2020-05-21T16:49:55.523Z</time>
      </trkpt>
      <trkpt lat="44.89748" lon="5.44172">
        <ele>1366</ele>
        <time>2020-05-21T16:49:56.523Z</time>
      </trkpt>
      <trkpt lat="44.89749" lon="5.4417">
        <ele>1366</ele>
        <time>2020-05-21T16:49:57.523Z</time>
      </trkpt>
      <trkpt lat="44.89751" lon="5.44168">
        <ele>1366</ele>
        <time>2020-05-21T16:49:58.522Z</time>
      </trkpt>
      <trkpt lat="44.89752" lon="5.44165">
        <ele>1366</ele>
        <time>2020-05-21T16:49:59.523Z</time>
      </trkpt>
      <trkpt lat="44.89754" lon="5.44163">
        <ele>1365</ele>
        <time>2020-05-21T16:50:00.523Z</time>
      </trkpt>
      <trkpt lat="44.89757" lon="5.44161">
        <ele>1365</ele>
        <time>2020-05-21T16:50:01.522Z</time>
      </trkpt>
      <trkpt lat="44.89759" lon="5.4416">
        <ele>1364</ele>
        <time>2020-05-21T16:50:02.522Z</time>
      </trkpt>
      <trkpt lat="44.89761" lon="5.44159">
        <ele>1364</ele>
        <time>2020-05-21T16:50:03.523Z</time>
      </trkpt>
      <trkpt lat="44.89764" lon="5.44159">
        <ele>1364</ele>
        <time>2020-05-21T16:50:04.523Z</time>
      </trkpt>
      <trkpt lat="44.89766" lon="5.44159">
        <ele>1363</ele>
        <time>2020-05-21T16:50:05.523Z</time>
      </trkpt>
      <trkpt lat="44.89768" lon="5.44159">
        <ele>1363</ele>
        <time>2020-05-21T16:50:06.523Z</time>
      </trkpt>
      <trkpt lat="44.8977" lon="5.44159">
        <ele>1362</ele>
        <time>2020-05-21T16:50:07.523Z</time>
      </trkpt>
      <trkpt lat="44.89772" lon="5.44161">
        <ele>1361</ele>
        <time>2020-05-21T16:50:08.522Z</time>
      </trkpt>
      <trkpt lat="44.89774" lon="5.44162">
        <ele>1360</ele>
        <time>2020-05-21T16:50:09.522Z</time>
      </trkpt>
      <trkpt lat="44.89775" lon="5.44164">
        <ele>1359</ele>
        <time>2020-05-21T16:50:10.522Z</time>
      </trkpt>
      <trkpt lat="44.89777" lon="5.44167">
        <ele>1358</ele>
        <time>2020-05-21T16:50:11.523Z</time>
      </trkpt>
      <trkpt lat="44.89778" lon="5.44169">
        <ele>1358</ele>
        <time>2020-05-21T16:50:12.523Z</time>
      </trkpt>
      <trkpt lat="44.8978" lon="5.44172">
        <ele>1357</ele>
        <time>2020-05-21T16:50:13.523Z</time>
      </trkpt>
      <trkpt lat="44.89781" lon="5.44175">
        <ele>1357</ele>
        <time>2020-05-21T16:50:14.523Z</time>
      </trkpt>
      <trkpt lat="44.89782" lon="5.44178">
        <ele>1357</ele>
        <time>2020-05-21T16:50:15.523Z</time>
      </trkpt>
      <trkpt lat="44.89784" lon="5.44181">
        <ele>1356</ele>
        <time>2020-05-21T16:50:16.523Z</time>
      </trkpt>
      <trkpt lat="44.89786" lon="5.44183">
        <ele>1356</ele>
        <time>2020-05-21T16:50:17.523Z</time>
      </trkpt>
      <trkpt lat="44.89788" lon="5.44186">
        <ele>1356</ele>
        <time>2020-05-21T16:50:18.523Z</time>
      </trkpt>
      <trkpt lat="44.8979" lon="5.44189">
        <ele>1356</ele>
        <time>2020-05-21T16:50:19.523Z</time>
      </trkpt>
      <trkpt lat="44.89792" lon="5.44192">
        <ele>1356</ele>
        <time>2020-05-21T16:50:20.523Z</time>
      </trkpt>
      <trkpt lat="44.89793" lon="5.44195">
        <ele>1356</ele>
        <time>2020-05-21T16:50:21.523Z</time>
      </trkpt>
      <trkpt lat="44.89795" lon="5.44198">
        <ele>1356</ele>
        <time>2020-05-21T16:50:22.522Z</time>
      </trkpt>
      <trkpt lat="44.89796" lon="5.44201">
        <ele>1355</ele>
        <time>2020-05-21T16:50:23.523Z</time>
      </trkpt>
      <trkpt lat="44.89797" lon="5.44204">
        <ele>1355</ele>
        <time>2020-05-21T16:50:24.523Z</time>
      </trkpt>
      <trkpt lat="44.89798" lon="5.44207">
        <ele>1355</ele>
        <time>2020-05-21T16:50:25.523Z</time>
      </trkpt>
      <trkpt lat="44.89799" lon="5.4421">
        <ele>1355</ele>
        <time>2020-05-21T16:50:26.523Z</time>
      </trkpt>
      <trkpt lat="44.89799" lon="5.44212">
        <ele>1355</ele>
        <time>2020-05-21T16:50:27.523Z</time>
      </trkpt>
      <trkpt lat="44.898" lon="5.44215">
        <ele>1356</ele>
        <time>2020-05-21T16:50:28.523Z</time>
      </trkpt>
      <trkpt lat="44.89801" lon="5.44218">
        <ele>1356</ele>
        <time>2020-05-21T16:50:29.522Z</time>
      </trkpt>
      <trkpt lat="44.89802" lon="5.44221">
        <ele>1356</ele>
        <time>2020-05-21T16:50:30.523Z</time>
      </trkpt>
      <trkpt lat="44.89803" lon="5.44225">
        <ele>1357</ele>
        <time>2020-05-21T16:50:31.523Z</time>
      </trkpt>
      <trkpt lat="44.89805" lon="5.44229">
        <ele>1357</ele>
        <time>2020-05-21T16:50:32.522Z</time>
      </trkpt>
      <trkpt lat="44.89806" lon="5.44232">
        <ele>1357</ele>
        <time>2020-05-21T16:50:33.523Z</time>
      </trkpt>
      <trkpt lat="44.89807" lon="5.44236">
        <ele>1358</ele>
        <time>2020-05-21T16:50:34.523Z</time>
      </trkpt>
      <trkpt lat="44.89808" lon="5.44239">
        <ele>1358</ele>
        <time>2020-05-21T16:50:35.523Z</time>
      </trkpt>
      <trkpt lat="44.89809" lon="5.44243">
        <ele>1358</ele>
        <time>2020-05-21T16:50:36.523Z</time>
      </trkpt>
      <trkpt lat="44.89811" lon="5.44246">
        <ele>1359</ele>
        <time>2020-05-21T16:50:37.523Z</time>
      </trkpt>
      <trkpt lat="44.89812" lon="5.44249">
        <ele>1360</ele>
        <time>2020-05-21T16:50:38.523Z</time>
      </trkpt>
      <trkpt lat="44.89813" lon="5.44252">
        <ele>1360</ele>
        <time>2020-05-21T16:50:39.523Z</time>
      </trkpt>
      <trkpt lat="44.89815" lon="5.44255">
        <ele>1361</ele>
        <time>2020-05-21T16:50:40.523Z</time>
      </trkpt>
      <trkpt lat="44.89817" lon="5.44259">
        <ele>1362</ele>
        <time>2020-05-21T16:50:41.523Z</time>
      </trkpt>
      <trkpt lat="44.89819" lon="5.44262">
        <ele>1362</ele>
        <time>2020-05-21T16:50:42.523Z</time>
      </trkpt>
      <trkpt lat="44.89821" lon="5.44264">
        <ele>1363</ele>
        <time>2020-05-21T16:50:43.523Z</time>
      </trkpt>
      <trkpt lat="44.89822" lon="5.44267">
        <ele>1363</ele>
        <time>2020-05-21T16:50:44.523Z</time>
      </trkpt>
      <trkpt lat="44.89824" lon="5.44269">
        <ele>1363</ele>
        <time>2020-05-21T16:50:45.523Z</time>
      </trkpt>
      <trkpt lat="44.89824" lon="5.44272">
        <ele>1364</ele>
        <time>2020-05-21T16:50:46.523Z</time>
      </trkpt>
      <trkpt lat="44.89825" lon="5.44274">
        <ele>1364</ele>
        <time>2020-05-21T16:50:47.523Z</time>
      </trkpt>
      <trkpt lat="44.89827" lon="5.44277">
        <ele>1365</ele>
        <time>2020-05-21T16:50:48.523Z</time>
      </trkpt>
      <trkpt lat="44.89828" lon="5.4428">
        <ele>1365</ele>
        <time>2020-05-21T16:50:49.523Z</time>
      </trkpt>
      <trkpt lat="44.8983" lon="5.44282">
        <ele>1366</ele>
        <time>2020-05-21T16:50:50.523Z</time>
      </trkpt>
      <trkpt lat="44.89831" lon="5.44285">
        <ele>1366</ele>
        <time>2020-05-21T16:50:51.523Z</time>
      </trkpt>
      <trkpt lat="44.89833" lon="5.44288">
        <ele>1366</ele>
        <time>2020-05-21T16:50:52.523Z</time>
      </trkpt>
      <trkpt lat="44.89834" lon="5.44291">
        <ele>1366</ele>
        <time>2020-05-21T16:50:53.523Z</time>
      </trkpt>
      <trkpt lat="44.89836" lon="5.44294">
        <ele>1366</ele>
        <time>2020-05-21T16:50:54.523Z</time>
      </trkpt>
      <trkpt lat="44.89837" lon="5.44297">
        <ele>1366</ele>
        <time>2020-05-21T16:50:55.523Z</time>
      </trkpt>
      <trkpt lat="44.89838" lon="5.443">
        <ele>1366</ele>
        <time>2020-05-21T16:50:56.523Z</time>
      </trkpt>
      <trkpt lat="44.8984" lon="5.44302">
        <ele>1365</ele>
        <time>2020-05-21T16:50:57.523Z</time>
      </trkpt>
      <trkpt lat="44.89841" lon="5.44304">
        <ele>1365</ele>
        <time>2020-05-21T16:50:58.523Z</time>
      </trkpt>
      <trkpt lat="44.89842" lon="5.44307">
        <ele>1365</ele>
        <time>2020-05-21T16:50:59.523Z</time>
      </trkpt>
      <trkpt lat="44.89844" lon="5.4431">
        <ele>1365</ele>
        <time>2020-05-21T16:51:00.523Z</time>
      </trkpt>
      <trkpt lat="44.89845" lon="5.44312">
        <ele>1365</ele>
        <time>2020-05-21T16:51:01.523Z</time>
      </trkpt>
      <trkpt lat="44.89846" lon="5.44315">
        <ele>1365</ele>
        <time>2020-05-21T16:51:02.523Z</time>
      </trkpt>
      <trkpt lat="44.89847" lon="5.44317">
        <ele>1364</ele>
        <time>2020-05-21T16:51:03.523Z</time>
      </trkpt>
      <trkpt lat="44.89848" lon="5.4432">
        <ele>1363</ele>
        <time>2020-05-21T16:51:04.523Z</time>
      </trkpt>
      <trkpt lat="44.89849" lon="5.44322">
        <ele>1363</ele>
        <time>2020-05-21T16:51:05.523Z</time>
      </trkpt>
      <trkpt lat="44.8985" lon="5.44324">
        <ele>1362</ele>
        <time>2020-05-21T16:51:06.522Z</time>
      </trkpt>
      <trkpt lat="44.89852" lon="5.44326">
        <ele>1362</ele>
        <time>2020-05-21T16:51:07.522Z</time>
      </trkpt>
      <trkpt lat="44.89853" lon="5.44328">
        <ele>1362</ele>
        <time>2020-05-21T16:51:08.523Z</time>
      </trkpt>
      <trkpt lat="44.89855" lon="5.44329">
        <ele>1362</ele>
        <time>2020-05-21T16:51:09.523Z</time>
      </trkpt>
      <trkpt lat="44.89856" lon="5.44331">
        <ele>1361</ele>
        <time>2020-05-21T16:51:10.523Z</time>
      </trkpt>
      <trkpt lat="44.89858" lon="5.44332">
        <ele>1361</ele>
        <time>2020-05-21T16:51:11.523Z</time>
      </trkpt>
      <trkpt lat="44.89861" lon="5.44333">
        <ele>1361</ele>
        <time>2020-05-21T16:51:12.523Z</time>
      </trkpt>
      <trkpt lat="44.89863" lon="5.44334">
        <ele>1361</ele>
        <time>2020-05-21T16:51:13.523Z</time>
      </trkpt>
      <trkpt lat="44.89865" lon="5.44334">
        <ele>1361</ele>
        <time>2020-05-21T16:51:14.523Z</time>
      </trkpt>
      <trkpt lat="44.89868" lon="5.44335">
        <ele>1361</ele>
        <time>2020-05-21T16:51:15.523Z</time>
      </trkpt>
      <trkpt lat="44.8987" lon="5.44336">
        <ele>1361</ele>
        <time>2020-05-21T16:51:16.523Z</time>
      </trkpt>
      <trkpt lat="44.89873" lon="5.44337">
        <ele>1361</ele>
        <time>2020-05-21T16:51:17.523Z</time>
      </trkpt>
      <trkpt lat="44.89875" lon="5.44338">
        <ele>1361</ele>
        <time>2020-05-21T16:51:18.523Z</time>
      </trkpt>
      <trkpt lat="44.89878" lon="5.44339">
        <ele>1360</ele>
        <time>2020-05-21T16:51:19.523Z</time>
      </trkpt>
      <trkpt lat="44.89881" lon="5.44341">
        <ele>1360</ele>
        <time>2020-05-21T16:51:20.522Z</time>
      </trkpt>
      <trkpt lat="44.89884" lon="5.44344">
        <ele>1360</ele>
        <time>2020-05-21T16:51:21.523Z</time>
      </trkpt>
      <trkpt lat="44.89885" lon="5.44347">
        <ele>1360</ele>
        <time>2020-05-21T16:51:22.523Z</time>
      </trkpt>
      <trkpt lat="44.89886" lon="5.4435">
        <ele>1361</ele>
        <time>2020-05-21T16:51:23.523Z</time>
      </trkpt>
      <trkpt lat="44.89887" lon="5.44354">
        <ele>1361</ele>
        <time>2020-05-21T16:51:24.523Z</time>
      </trkpt>
      <trkpt lat="44.89887" lon="5.44357">
        <ele>1362</ele>
        <time>2020-05-21T16:51:25.523Z</time>
      </trkpt>
      <trkpt lat="44.89887" lon="5.44361">
        <ele>1363</ele>
        <time>2020-05-21T16:51:26.523Z</time>
      </trkpt>
      <trkpt lat="44.89887" lon="5.44365">
        <ele>1363</ele>
        <time>2020-05-21T16:51:27.523Z</time>
      </trkpt>
      <trkpt lat="44.89887" lon="5.44368">
        <ele>1364</ele>
        <time>2020-05-21T16:51:28.523Z</time>
      </trkpt>
      <trkpt lat="44.89886" lon="5.44372">
        <ele>1364</ele>
        <time>2020-05-21T16:51:29.523Z</time>
      </trkpt>
      <trkpt lat="44.89886" lon="5.44376">
        <ele>1364</ele>
        <time>2020-05-21T16:51:30.522Z</time>
      </trkpt>
      <trkpt lat="44.89885" lon="5.4438">
        <ele>1365</ele>
        <time>2020-05-21T16:51:31.523Z</time>
      </trkpt>
      <trkpt lat="44.89884" lon="5.44384">
        <ele>1364</ele>
        <time>2020-05-21T16:51:32.523Z</time>
      </trkpt>
      <trkpt lat="44.89883" lon="5.44387">
        <ele>1364</ele>
        <time>2020-05-21T16:51:33.522Z</time>
      </trkpt>
      <trkpt lat="44.89882" lon="5.44391">
        <ele>1364</ele>
        <time>2020-05-21T16:51:34.523Z</time>
      </trkpt>
      <trkpt lat="44.89881" lon="5.44395">
        <ele>1365</ele>
        <time>2020-05-21T16:51:35.522Z</time>
      </trkpt>
      <trkpt lat="44.89881" lon="5.44399">
        <ele>1365</ele>
        <time>2020-05-21T16:51:36.523Z</time>
      </trkpt>
      <trkpt lat="44.8988" lon="5.44402">
        <ele>1365</ele>
        <time>2020-05-21T16:51:37.523Z</time>
      </trkpt>
      <trkpt lat="44.89879" lon="5.44405">
        <ele>1365</ele>
        <time>2020-05-21T16:51:38.523Z</time>
      </trkpt>
      <trkpt lat="44.89878" lon="5.44409">
        <ele>1365</ele>
        <time>2020-05-21T16:51:39.523Z</time>
      </trkpt>
      <trkpt lat="44.89877" lon="5.44412">
        <ele>1365</ele>
        <time>2020-05-21T16:51:40.523Z</time>
      </trkpt>
      <trkpt lat="44.89877" lon="5.44415">
        <ele>1366</ele>
        <time>2020-05-21T16:51:41.523Z</time>
      </trkpt>
      <trkpt lat="44.89876" lon="5.44418">
        <ele>1366</ele>
        <time>2020-05-21T16:51:42.522Z</time>
      </trkpt>
      <trkpt lat="44.89875" lon="5.44421">
        <ele>1367</ele>
        <time>2020-05-21T16:51:43.523Z</time>
      </trkpt>
      <trkpt lat="44.89874" lon="5.44424">
        <ele>1367</ele>
        <time>2020-05-21T16:51:44.523Z</time>
      </trkpt>
      <trkpt lat="44.89874" lon="5.44426">
        <ele>1368</ele>
        <time>2020-05-21T16:51:45.523Z</time>
      </trkpt>
      <trkpt lat="44.89874" lon="5.44428">
        <ele>1368</ele>
        <time>2020-05-21T16:51:46.523Z</time>
      </trkpt>
      <trkpt lat="44.89874" lon="5.4443">
        <ele>1368</ele>
        <time>2020-05-21T16:51:47.523Z</time>
      </trkpt>
      <trkpt lat="44.89874" lon="5.44433">
        <ele>1368</ele>
        <time>2020-05-21T16:51:48.523Z</time>
      </trkpt>
      <trkpt lat="44.89874" lon="5.44435">
        <ele>1368</ele>
        <time>2020-05-21T16:51:49.522Z</time>
      </trkpt>
      <trkpt lat="44.89874" lon="5.44439">
        <ele>1369</ele>
        <time>2020-05-21T16:51:50.523Z</time>
      </trkpt>
      <trkpt lat="44.89875" lon="5.44442">
        <ele>1369</ele>
        <time>2020-05-21T16:51:51.523Z</time>
      </trkpt>
      <trkpt lat="44.89875" lon="5.44444">
        <ele>1369</ele>
        <time>2020-05-21T16:51:52.523Z</time>
      </trkpt>
      <trkpt lat="44.89875" lon="5.44445">
        <ele>1369</ele>
        <time>2020-05-21T16:51:53.523Z</time>
      </trkpt>
      <trkpt lat="44.89875" lon="5.44446">
        <ele>1369</ele>
        <time>2020-05-21T16:51:54.523Z</time>
      </trkpt>
      <trkpt lat="44.89876" lon="5.44448">
        <ele>1369</ele>
        <time>2020-05-21T16:51:55.523Z</time>
      </trkpt>
      <trkpt lat="44.89878" lon="5.4445">
        <ele>1369</ele>
        <time>2020-05-21T16:51:56.523Z</time>
      </trkpt>
      <trkpt lat="44.8988" lon="5.44451">
        <ele>1369</ele>
        <time>2020-05-21T16:51:57.523Z</time>
      </trkpt>
      <trkpt lat="44.89881" lon="5.44452">
        <ele>1369</ele>
        <time>2020-05-21T16:51:58.523Z</time>
      </trkpt>
      <trkpt lat="44.89883" lon="5.44453">
        <ele>1369</ele>
        <time>2020-05-21T16:51:59.523Z</time>
      </trkpt>
      <trkpt lat="44.89885" lon="5.44453">
        <ele>1369</ele>
        <time>2020-05-21T16:52:00.523Z</time>
      </trkpt>
      <trkpt lat="44.89887" lon="5.44452">
        <ele>1369</ele>
        <time>2020-05-21T16:52:01.523Z</time>
      </trkpt>
      <trkpt lat="44.89889" lon="5.44451">
        <ele>1369</ele>
        <time>2020-05-21T16:52:02.522Z</time>
      </trkpt>
      <trkpt lat="44.89891" lon="5.44449">
        <ele>1370</ele>
        <time>2020-05-21T16:52:03.522Z</time>
      </trkpt>
      <trkpt lat="44.89892" lon="5.44447">
        <ele>1370</ele>
        <time>2020-05-21T16:52:04.523Z</time>
      </trkpt>
      <trkpt lat="44.89894" lon="5.44445">
        <ele>1370</ele>
        <time>2020-05-21T16:52:05.522Z</time>
      </trkpt>
      <trkpt lat="44.89895" lon="5.44443">
        <ele>1370</ele>
        <time>2020-05-21T16:52:06.523Z</time>
      </trkpt>
      <trkpt lat="44.89896" lon="5.44441">
        <ele>1370</ele>
        <time>2020-05-21T16:52:07.523Z</time>
      </trkpt>
      <trkpt lat="44.89897" lon="5.44438">
        <ele>1369</ele>
        <time>2020-05-21T16:52:08.523Z</time>
      </trkpt>
      <trkpt lat="44.89898" lon="5.44436">
        <ele>1369</ele>
        <time>2020-05-21T16:52:09.522Z</time>
      </trkpt>
      <trkpt lat="44.89899" lon="5.44433">
        <ele>1369</ele>
        <time>2020-05-21T16:52:10.523Z</time>
      </trkpt>
      <trkpt lat="44.899" lon="5.4443">
        <ele>1368</ele>
        <time>2020-05-21T16:52:11.522Z</time>
      </trkpt>
      <trkpt lat="44.89901" lon="5.44427">
        <ele>1368</ele>
        <time>2020-05-21T16:52:12.522Z</time>
      </trkpt>
      <trkpt lat="44.89902" lon="5.44424">
        <ele>1367</ele>
        <time>2020-05-21T16:52:13.523Z</time>
      </trkpt>
      <trkpt lat="44.89903" lon="5.44421">
        <ele>1367</ele>
        <time>2020-05-21T16:52:14.523Z</time>
      </trkpt>
      <trkpt lat="44.89903" lon="5.44417">
        <ele>1366</ele>
        <time>2020-05-21T16:52:15.523Z</time>
      </trkpt>
      <trkpt lat="44.89904" lon="5.44414">
        <ele>1366</ele>
        <time>2020-05-21T16:52:16.523Z</time>
      </trkpt>
      <trkpt lat="44.89904" lon="5.4441">
        <ele>1366</ele>
        <time>2020-05-21T16:52:17.523Z</time>
      </trkpt>
      <trkpt lat="44.89904" lon="5.44408">
        <ele>1365</ele>
        <time>2020-05-21T16:52:18.522Z</time>
      </trkpt>
      <trkpt lat="44.89905" lon="5.44405">
        <ele>1365</ele>
        <time>2020-05-21T16:52:19.523Z</time>
      </trkpt>
      <trkpt lat="44.89906" lon="5.44403">
        <ele>1365</ele>
        <time>2020-05-21T16:52:20.523Z</time>
      </trkpt>
      <trkpt lat="44.89907" lon="5.44401">
        <ele>1364</ele>
        <time>2020-05-21T16:52:21.523Z</time>
      </trkpt>
      <trkpt lat="44.89908" lon="5.44398">
        <ele>1364</ele>
        <time>2020-05-21T16:52:22.523Z</time>
      </trkpt>
      <trkpt lat="44.89909" lon="5.44395">
        <ele>1364</ele>
        <time>2020-05-21T16:52:23.523Z</time>
      </trkpt>
      <trkpt lat="44.8991" lon="5.44393">
        <ele>1363</ele>
        <time>2020-05-21T16:52:24.522Z</time>
      </trkpt>
      <trkpt lat="44.89911" lon="5.4439">
        <ele>1363</ele>
        <time>2020-05-21T16:52:25.523Z</time>
      </trkpt>
      <trkpt lat="44.89912" lon="5.44387">
        <ele>1363</ele>
        <time>2020-05-21T16:52:26.523Z</time>
      </trkpt>
      <trkpt lat="44.89912" lon="5.44384">
        <ele>1362</ele>
        <time>2020-05-21T16:52:27.523Z</time>
      </trkpt>
      <trkpt lat="44.89913" lon="5.44381">
        <ele>1362</ele>
        <time>2020-05-21T16:52:28.523Z</time>
      </trkpt>
      <trkpt lat="44.89914" lon="5.44378">
        <ele>1361</ele>
        <time>2020-05-21T16:52:29.523Z</time>
      </trkpt>
      <trkpt lat="44.89915" lon="5.44376">
        <ele>1361</ele>
        <time>2020-05-21T16:52:30.523Z</time>
      </trkpt>
      <trkpt lat="44.89916" lon="5.44374">
        <ele>1360</ele>
        <time>2020-05-21T16:52:31.522Z</time>
      </trkpt>
      <trkpt lat="44.89917" lon="5.44371">
        <ele>1360</ele>
        <time>2020-05-21T16:52:32.523Z</time>
      </trkpt>
      <trkpt lat="44.89918" lon="5.44369">
        <ele>1359</ele>
        <time>2020-05-21T16:52:33.522Z</time>
      </trkpt>
      <trkpt lat="44.89918" lon="5.44366">
        <ele>1359</ele>
        <time>2020-05-21T16:52:34.522Z</time>
      </trkpt>
      <trkpt lat="44.89919" lon="5.44363">
        <ele>1359</ele>
        <time>2020-05-21T16:52:35.522Z</time>
      </trkpt>
      <trkpt lat="44.8992" lon="5.44359">
        <ele>1358</ele>
        <time>2020-05-21T16:52:36.522Z</time>
      </trkpt>
      <trkpt lat="44.8992" lon="5.44356">
        <ele>1358</ele>
        <time>2020-05-21T16:52:37.523Z</time>
      </trkpt>
      <trkpt lat="44.89921" lon="5.44353">
        <ele>1358</ele>
        <time>2020-05-21T16:52:38.523Z</time>
      </trkpt>
      <trkpt lat="44.89922" lon="5.4435">
        <ele>1357</ele>
        <time>2020-05-21T16:52:39.522Z</time>
      </trkpt>
      <trkpt lat="44.89922" lon="5.44347">
        <ele>1357</ele>
        <time>2020-05-21T16:52:40.522Z</time>
      </trkpt>
      <trkpt lat="44.89923" lon="5.44344">
        <ele>1357</ele>
        <time>2020-05-21T16:52:41.523Z</time>
      </trkpt>
      <trkpt lat="44.89923" lon="5.44341">
        <ele>1357</ele>
        <time>2020-05-21T16:52:42.523Z</time>
      </trkpt>
      <trkpt lat="44.89923" lon="5.44337">
        <ele>1357</ele>
        <time>2020-05-21T16:52:43.523Z</time>
      </trkpt>
      <trkpt lat="44.89922" lon="5.44333">
        <ele>1357</ele>
        <time>2020-05-21T16:52:44.523Z</time>
      </trkpt>
      <trkpt lat="44.89922" lon="5.4433">
        <ele>1357</ele>
        <time>2020-05-21T16:52:45.523Z</time>
      </trkpt>
      <trkpt lat="44.89922" lon="5.44327">
        <ele>1357</ele>
        <time>2020-05-21T16:52:46.523Z</time>
      </trkpt>
      <trkpt lat="44.89922" lon="5.44324">
        <ele>1357</ele>
        <time>2020-05-21T16:52:47.523Z</time>
      </trkpt>
      <trkpt lat="44.89922" lon="5.4432">
        <ele>1357</ele>
        <time>2020-05-21T16:52:48.523Z</time>
      </trkpt>
      <trkpt lat="44.89923" lon="5.44317">
        <ele>1357</ele>
        <time>2020-05-21T16:52:49.522Z</time>
      </trkpt>
      <trkpt lat="44.89924" lon="5.44314">
        <ele>1357</ele>
        <time>2020-05-21T16:52:50.522Z</time>
      </trkpt>
      <trkpt lat="44.89924" lon="5.44311">
        <ele>1358</ele>
        <time>2020-05-21T16:52:51.523Z</time>
      </trkpt>
      <trkpt lat="44.89925" lon="5.44308">
        <ele>1358</ele>
        <time>2020-05-21T16:52:52.523Z</time>
      </trkpt>
      <trkpt lat="44.89926" lon="5.44305">
        <ele>1357</ele>
        <time>2020-05-21T16:52:53.523Z</time>
      </trkpt>
      <trkpt lat="44.89926" lon="5.44303">
        <ele>1357</ele>
        <time>2020-05-21T16:52:54.523Z</time>
      </trkpt>
      <trkpt lat="44.89927" lon="5.443">
        <ele>1357</ele>
        <time>2020-05-21T16:52:55.523Z</time>
      </trkpt>
      <trkpt lat="44.89929" lon="5.44297">
        <ele>1357</ele>
        <time>2020-05-21T16:52:56.522Z</time>
      </trkpt>
      <trkpt lat="44.8993" lon="5.44295">
        <ele>1356</ele>
        <time>2020-05-21T16:52:57.523Z</time>
      </trkpt>
      <trkpt lat="44.89931" lon="5.44292">
        <ele>1356</ele>
        <time>2020-05-21T16:52:58.522Z</time>
      </trkpt>
      <trkpt lat="44.89933" lon="5.4429">
        <ele>1356</ele>
        <time>2020-05-21T16:52:59.522Z</time>
      </trkpt>
      <trkpt lat="44.89935" lon="5.44288">
        <ele>1355</ele>
        <time>2020-05-21T16:53:00.523Z</time>
      </trkpt>
      <trkpt lat="44.89937" lon="5.44285">
        <ele>1355</ele>
        <time>2020-05-21T16:53:01.522Z</time>
      </trkpt>
      <trkpt lat="44.89939" lon="5.44283">
        <ele>1355</ele>
        <time>2020-05-21T16:53:02.523Z</time>
      </trkpt>
      <trkpt lat="44.89941" lon="5.44281">
        <ele>1354</ele>
        <time>2020-05-21T16:53:03.523Z</time>
      </trkpt>
      <trkpt lat="44.89943" lon="5.4428">
        <ele>1354</ele>
        <time>2020-05-21T16:53:04.522Z</time>
      </trkpt>
      <trkpt lat="44.89945" lon="5.4428">
        <ele>1354</ele>
        <time>2020-05-21T16:53:05.523Z</time>
      </trkpt>
      <trkpt lat="44.89948" lon="5.44281">
        <ele>1354</ele>
        <time>2020-05-21T16:53:06.523Z</time>
      </trkpt>
      <trkpt lat="44.8995" lon="5.44283">
        <ele>1354</ele>
        <time>2020-05-21T16:53:07.523Z</time>
      </trkpt>
      <trkpt lat="44.89952" lon="5.44285">
        <ele>1354</ele>
        <time>2020-05-21T16:53:08.522Z</time>
      </trkpt>
      <trkpt lat="44.89954" lon="5.44288">
        <ele>1354</ele>
        <time>2020-05-21T16:53:09.523Z</time>
      </trkpt>
      <trkpt lat="44.89956" lon="5.44291">
        <ele>1354</ele>
        <time>2020-05-21T16:53:10.522Z</time>
      </trkpt>
      <trkpt lat="44.89956" lon="5.44294">
        <ele>1355</ele>
        <time>2020-05-21T16:53:11.523Z</time>
      </trkpt>
      <trkpt lat="44.89957" lon="5.44297">
        <ele>1355</ele>
        <time>2020-05-21T16:53:12.523Z</time>
      </trkpt>
      <trkpt lat="44.89957" lon="5.443">
        <ele>1355</ele>
        <time>2020-05-21T16:53:13.523Z</time>
      </trkpt>
      <trkpt lat="44.89958" lon="5.44303">
        <ele>1356</ele>
        <time>2020-05-21T16:53:14.523Z</time>
      </trkpt>
      <trkpt lat="44.89959" lon="5.44306">
        <ele>1356</ele>
        <time>2020-05-21T16:53:15.522Z</time>
      </trkpt>
      <trkpt lat="44.8996" lon="5.44309">
        <ele>1357</ele>
        <time>2020-05-21T16:53:16.523Z</time>
      </trkpt>
      <trkpt lat="44.89961" lon="5.44311">
        <ele>1358</ele>
        <time>2020-05-21T16:53:17.523Z</time>
      </trkpt>
      <trkpt lat="44.89962" lon="5.44314">
        <ele>1358</ele>
        <time>2020-05-21T16:53:18.523Z</time>
      </trkpt>
      <trkpt lat="44.89963" lon="5.44317">
        <ele>1359</ele>
        <time>2020-05-21T16:53:19.523Z</time>
      </trkpt>
      <trkpt lat="44.89963" lon="5.44319">
        <ele>1360</ele>
        <time>2020-05-21T16:53:20.523Z</time>
      </trkpt>
      <trkpt lat="44.89964" lon="5.44322">
        <ele>1361</ele>
        <time>2020-05-21T16:53:21.523Z</time>
      </trkpt>
      <trkpt lat="44.89965" lon="5.44324">
        <ele>1362</ele>
        <time>2020-05-21T16:53:22.523Z</time>
      </trkpt>
      <trkpt lat="44.89966" lon="5.44327">
        <ele>1363</ele>
        <time>2020-05-21T16:53:23.523Z</time>
      </trkpt>
      <trkpt lat="44.89967" lon="5.4433">
        <ele>1364</ele>
        <time>2020-05-21T16:53:24.523Z</time>
      </trkpt>
      <trkpt lat="44.89968" lon="5.44332">
        <ele>1365</ele>
        <time>2020-05-21T16:53:25.523Z</time>
      </trkpt>
      <trkpt lat="44.8997" lon="5.44334">
        <ele>1366</ele>
        <time>2020-05-21T16:53:26.523Z</time>
      </trkpt>
      <trkpt lat="44.89971" lon="5.44337">
        <ele>1366</ele>
        <time>2020-05-21T16:53:27.523Z</time>
      </trkpt>
      <trkpt lat="44.89972" lon="5.4434">
        <ele>1367</ele>
        <time>2020-05-21T16:53:28.523Z</time>
      </trkpt>
      <trkpt lat="44.89973" lon="5.44341">
        <ele>1367</ele>
        <time>2020-05-21T16:53:29.523Z</time>
      </trkpt>
      <trkpt lat="44.89974" lon="5.44343">
        <ele>1367</ele>
        <time>2020-05-21T16:53:30.523Z</time>
      </trkpt>
      <trkpt lat="44.89975" lon="5.44344">
        <ele>1367</ele>
        <time>2020-05-21T16:53:31.522Z</time>
      </trkpt>
      <trkpt lat="44.89976" lon="5.44346">
        <ele>1368</ele>
        <time>2020-05-21T16:53:32.523Z</time>
      </trkpt>
      <trkpt lat="44.89977" lon="5.44347">
        <ele>1368</ele>
        <time>2020-05-21T16:53:33.523Z</time>
      </trkpt>
      <trkpt lat="44.89978" lon="5.44348">
        <ele>1367</ele>
        <time>2020-05-21T16:53:34.523Z</time>
      </trkpt>
      <trkpt lat="44.8998" lon="5.44349">
        <ele>1367</ele>
        <time>2020-05-21T16:53:35.523Z</time>
      </trkpt>
      <trkpt lat="44.89982" lon="5.4435">
        <ele>1367</ele>
        <time>2020-05-21T16:53:36.523Z</time>
      </trkpt>
      <trkpt lat="44.89984" lon="5.4435">
        <ele>1367</ele>
        <time>2020-05-21T16:53:37.523Z</time>
      </trkpt>
      <trkpt lat="44.89986" lon="5.44351">
        <ele>1367</ele>
        <time>2020-05-21T16:53:38.523Z</time>
      </trkpt>
      <trkpt lat="44.89988" lon="5.44351">
        <ele>1367</ele>
        <time>2020-05-21T16:53:39.523Z</time>
      </trkpt>
      <trkpt lat="44.8999" lon="5.44351">
        <ele>1367</ele>
        <time>2020-05-21T16:53:40.523Z</time>
      </trkpt>
      <trkpt lat="44.89991" lon="5.44351">
        <ele>1367</ele>
        <time>2020-05-21T16:53:41.523Z</time>
      </trkpt>
      <trkpt lat="44.89993" lon="5.44351">
        <ele>1366</ele>
        <time>2020-05-21T16:53:42.523Z</time>
      </trkpt>
      <trkpt lat="44.89995" lon="5.44351">
        <ele>1366</ele>
        <time>2020-05-21T16:53:43.523Z</time>
      </trkpt>
      <trkpt lat="44.89998" lon="5.44351">
        <ele>1366</ele>
        <time>2020-05-21T16:53:44.523Z</time>
      </trkpt>
      <trkpt lat="44.9" lon="5.44352">
        <ele>1366</ele>
        <time>2020-05-21T16:53:45.523Z</time>
      </trkpt>
      <trkpt lat="44.90002" lon="5.44353">
        <ele>1366</ele>
        <time>2020-05-21T16:53:46.523Z</time>
      </trkpt>
      <trkpt lat="44.90004" lon="5.44355">
        <ele>1366</ele>
        <time>2020-05-21T16:53:47.523Z</time>
      </trkpt>
      <trkpt lat="44.90006" lon="5.44356">
        <ele>1365</ele>
        <time>2020-05-21T16:53:48.523Z</time>
      </trkpt>
      <trkpt lat="44.90008" lon="5.44358">
        <ele>1365</ele>
        <time>2020-05-21T16:53:49.523Z</time>
      </trkpt>
      <trkpt lat="44.9001" lon="5.4436">
        <ele>1365</ele>
        <time>2020-05-21T16:53:50.523Z</time>
      </trkpt>
      <trkpt lat="44.90013" lon="5.44361">
        <ele>1365</ele>
        <time>2020-05-21T16:53:51.523Z</time>
      </trkpt>
      <trkpt lat="44.90015" lon="5.44363">
        <ele>1365</ele>
        <time>2020-05-21T16:53:52.523Z</time>
      </trkpt>
      <trkpt lat="44.90016" lon="5.44365">
        <ele>1365</ele>
        <time>2020-05-21T16:53:53.523Z</time>
      </trkpt>
      <trkpt lat="44.90018" lon="5.44368">
        <ele>1365</ele>
        <time>2020-05-21T16:53:54.523Z</time>
      </trkpt>
      <trkpt lat="44.9002" lon="5.44371">
        <ele>1365</ele>
        <time>2020-05-21T16:53:55.523Z</time>
      </trkpt>
      <trkpt lat="44.90021" lon="5.44373">
        <ele>1365</ele>
        <time>2020-05-21T16:53:56.523Z</time>
      </trkpt>
      <trkpt lat="44.90021" lon="5.44375">
        <ele>1365</ele>
        <time>2020-05-21T16:53:57.523Z</time>
      </trkpt>
      <trkpt lat="44.90022" lon="5.44376">
        <ele>1365</ele>
        <time>2020-05-21T16:53:58.523Z</time>
      </trkpt>
      <trkpt lat="44.90022" lon="5.44377">
        <ele>1364</ele>
        <time>2020-05-21T16:53:59.523Z</time>
      </trkpt>
      <trkpt lat="44.90022" lon="5.44377">
        <ele>1364</ele>
        <time>2020-05-21T16:54:00.523Z</time>
      </trkpt>
      <trkpt lat="44.90022" lon="5.44379">
        <ele>1364</ele>
        <time>2020-05-21T16:54:01.522Z</time>
      </trkpt>
      <trkpt lat="44.90023" lon="5.44381">
        <ele>1364</ele>
        <time>2020-05-21T16:54:02.523Z</time>
      </trkpt>
      <trkpt lat="44.90024" lon="5.44383">
        <ele>1364</ele>
        <time>2020-05-21T16:54:03.523Z</time>
      </trkpt>
      <trkpt lat="44.90025" lon="5.44384">
        <ele>1364</ele>
        <time>2020-05-21T16:54:04.523Z</time>
      </trkpt>
      <trkpt lat="44.90026" lon="5.44386">
        <ele>1364</ele>
        <time>2020-05-21T16:54:05.523Z</time>
      </trkpt>
      <trkpt lat="44.90028" lon="5.44387">
        <ele>1364</ele>
        <time>2020-05-21T16:54:06.522Z</time>
      </trkpt>
      <trkpt lat="44.90029" lon="5.44389">
        <ele>1364</ele>
        <time>2020-05-21T16:54:07.522Z</time>
      </trkpt>
      <trkpt lat="44.9003" lon="5.44391">
        <ele>1365</ele>
        <time>2020-05-21T16:54:08.522Z</time>
      </trkpt>
      <trkpt lat="44.90031" lon="5.44393">
        <ele>1365</ele>
        <time>2020-05-21T16:54:09.522Z</time>
      </trkpt>
      <trkpt lat="44.90033" lon="5.44395">
        <ele>1365</ele>
        <time>2020-05-21T16:54:10.522Z</time>
      </trkpt>
      <trkpt lat="44.90035" lon="5.44396">
        <ele>1365</ele>
        <time>2020-05-21T16:54:11.522Z</time>
      </trkpt>
      <trkpt lat="44.90037" lon="5.44398">
        <ele>1365</ele>
        <time>2020-05-21T16:54:12.523Z</time>
      </trkpt>
      <trkpt lat="44.90038" lon="5.44399">
        <ele>1365</ele>
        <time>2020-05-21T16:54:13.522Z</time>
      </trkpt>
      <trkpt lat="44.9004" lon="5.44401">
        <ele>1366</ele>
        <time>2020-05-21T16:54:14.522Z</time>
      </trkpt>
      <trkpt lat="44.90042" lon="5.44402">
        <ele>1366</ele>
        <time>2020-05-21T16:54:15.523Z</time>
      </trkpt>
      <trkpt lat="44.90044" lon="5.44404">
        <ele>1366</ele>
        <time>2020-05-21T16:54:16.523Z</time>
      </trkpt>
      <trkpt lat="44.90046" lon="5.44406">
        <ele>1366</ele>
        <time>2020-05-21T16:54:17.522Z</time>
      </trkpt>
      <trkpt lat="44.90048" lon="5.44408">
        <ele>1366</ele>
        <time>2020-05-21T16:54:18.523Z</time>
      </trkpt>
      <trkpt lat="44.9005" lon="5.4441">
        <ele>1366</ele>
        <time>2020-05-21T16:54:19.523Z</time>
      </trkpt>
      <trkpt lat="44.90051" lon="5.44411">
        <ele>1366</ele>
        <time>2020-05-21T16:54:20.523Z</time>
      </trkpt>
      <trkpt lat="44.90053" lon="5.44412">
        <ele>1366</ele>
        <time>2020-05-21T16:54:21.523Z</time>
      </trkpt>
      <trkpt lat="44.90055" lon="5.44412">
        <ele>1366</ele>
        <time>2020-05-21T16:54:22.523Z</time>
      </trkpt>
      <trkpt lat="44.90057" lon="5.44413">
        <ele>1366</ele>
        <time>2020-05-21T16:54:23.522Z</time>
      </trkpt>
      <trkpt lat="44.9006" lon="5.44413">
        <ele>1366</ele>
        <time>2020-05-21T16:54:24.523Z</time>
      </trkpt>
      <trkpt lat="44.90063" lon="5.44413">
        <ele>1365</ele>
        <time>2020-05-21T16:54:25.523Z</time>
      </trkpt>
      <trkpt lat="44.90065" lon="5.44413">
        <ele>1365</ele>
        <time>2020-05-21T16:54:26.522Z</time>
      </trkpt>
      <trkpt lat="44.90066" lon="5.44413">
        <ele>1365</ele>
        <time>2020-05-21T16:54:27.523Z</time>
      </trkpt>
      <trkpt lat="44.90068" lon="5.44413">
        <ele>1365</ele>
        <time>2020-05-21T16:54:28.523Z</time>
      </trkpt>
      <trkpt lat="44.9007" lon="5.44412">
        <ele>1365</ele>
        <time>2020-05-21T16:54:29.523Z</time>
      </trkpt>
      <trkpt lat="44.90071" lon="5.44412">
        <ele>1366</ele>
        <time>2020-05-21T16:54:30.523Z</time>
      </trkpt>
      <trkpt lat="44.90072" lon="5.44412">
        <ele>1366</ele>
        <time>2020-05-21T16:54:31.523Z</time>
      </trkpt>
      <trkpt lat="44.90073" lon="5.44412">
        <ele>1366</ele>
        <time>2020-05-21T16:54:32.523Z</time>
      </trkpt>
      <trkpt lat="44.90074" lon="5.44411">
        <ele>1366</ele>
        <time>2020-05-21T16:54:33.523Z</time>
      </trkpt>
      <trkpt lat="44.90074" lon="5.44411">
        <ele>1366</ele>
        <time>2020-05-21T16:54:34.522Z</time>
      </trkpt>
      <trkpt lat="44.90074" lon="5.44411">
        <ele>1367</ele>
        <time>2020-05-21T16:54:35.523Z</time>
      </trkpt>
      <trkpt lat="44.90076" lon="5.44411">
        <ele>1367</ele>
        <time>2020-05-21T16:54:36.522Z</time>
      </trkpt>
      <trkpt lat="44.90077" lon="5.4441">
        <ele>1368</ele>
        <time>2020-05-21T16:54:37.523Z</time>
      </trkpt>
      <trkpt lat="44.90078" lon="5.4441">
        <ele>1368</ele>
        <time>2020-05-21T16:54:38.523Z</time>
      </trkpt>
      <trkpt lat="44.9008" lon="5.4441">
        <ele>1368</ele>
        <time>2020-05-21T16:54:39.523Z</time>
      </trkpt>
      <trkpt lat="44.90082" lon="5.4441">
        <ele>1368</ele>
        <time>2020-05-21T16:54:40.523Z</time>
      </trkpt>
      <trkpt lat="44.90084" lon="5.44411">
        <ele>1367</ele>
        <time>2020-05-21T16:54:41.522Z</time>
      </trkpt>
      <trkpt lat="44.90086" lon="5.44412">
        <ele>1367</ele>
        <time>2020-05-21T16:54:42.523Z</time>
      </trkpt>
      <trkpt lat="44.90088" lon="5.44413">
        <ele>1366</ele>
        <time>2020-05-21T16:54:43.523Z</time>
      </trkpt>
      <trkpt lat="44.9009" lon="5.44414">
        <ele>1366</ele>
        <time>2020-05-21T16:54:44.523Z</time>
      </trkpt>
      <trkpt lat="44.90091" lon="5.44415">
        <ele>1365</ele>
        <time>2020-05-21T16:54:45.523Z</time>
      </trkpt>
      <trkpt lat="44.90093" lon="5.44416">
        <ele>1365</ele>
        <time>2020-05-21T16:54:46.523Z</time>
      </trkpt>
      <trkpt lat="44.90095" lon="5.44417">
        <ele>1365</ele>
        <time>2020-05-21T16:54:47.523Z</time>
      </trkpt>
      <trkpt lat="44.90096" lon="5.44417">
        <ele>1365</ele>
        <time>2020-05-21T16:54:48.523Z</time>
      </trkpt>
      <trkpt lat="44.90097" lon="5.44418">
        <ele>1364</ele>
        <time>2020-05-21T16:54:49.523Z</time>
      </trkpt>
      <trkpt lat="44.90098" lon="5.44418">
        <ele>1364</ele>
        <time>2020-05-21T16:54:50.523Z</time>
      </trkpt>
      <trkpt lat="44.90098" lon="5.44419">
        <ele>1363</ele>
        <time>2020-05-21T16:54:51.523Z</time>
      </trkpt>
      <trkpt lat="44.90098" lon="5.44419">
        <ele>1363</ele>
        <time>2020-05-21T16:54:52.522Z</time>
      </trkpt>
      <trkpt lat="44.90099" lon="5.44421">
        <ele>1363</ele>
        <time>2020-05-21T16:54:53.523Z</time>
      </trkpt>
      <trkpt lat="44.90099" lon="5.44423">
        <ele>1363</ele>
        <time>2020-05-21T16:54:54.523Z</time>
      </trkpt>
      <trkpt lat="44.90099" lon="5.44425">
        <ele>1364</ele>
        <time>2020-05-21T16:54:55.523Z</time>
      </trkpt>
      <trkpt lat="44.90099" lon="5.44426">
        <ele>1364</ele>
        <time>2020-05-21T16:54:56.522Z</time>
      </trkpt>
      <trkpt lat="44.90099" lon="5.44428">
        <ele>1365</ele>
        <time>2020-05-21T16:54:57.523Z</time>
      </trkpt>
      <trkpt lat="44.90099" lon="5.4443">
        <ele>1365</ele>
        <time>2020-05-21T16:54:58.522Z</time>
      </trkpt>
      <trkpt lat="44.90098" lon="5.44432">
        <ele>1365</ele>
        <time>2020-05-21T16:54:59.522Z</time>
      </trkpt>
      <trkpt lat="44.90098" lon="5.44433">
        <ele>1365</ele>
        <time>2020-05-21T16:55:00.522Z</time>
      </trkpt>
      <trkpt lat="44.90098" lon="5.44433">
        <ele>1365</ele>
        <time>2020-05-21T16:55:01.522Z</time>
      </trkpt>
      <trkpt lat="44.90098" lon="5.44433">
        <ele>1365</ele>
        <time>2020-05-21T16:55:02.523Z</time>
      </trkpt>
      <trkpt lat="44.90098" lon="5.44432">
        <ele>1365</ele>
        <time>2020-05-21T16:55:03.523Z</time>
      </trkpt>
      <trkpt lat="44.90098" lon="5.44431">
        <ele>1365</ele>
        <time>2020-05-21T16:55:04.522Z</time>
      </trkpt>
      <trkpt lat="44.90097" lon="5.4443">
        <ele>1365</ele>
        <time>2020-05-21T16:55:05.523Z</time>
      </trkpt>
      <trkpt lat="44.90096" lon="5.44429">
        <ele>1365</ele>
        <time>2020-05-21T16:55:06.522Z</time>
      </trkpt>
      <trkpt lat="44.90095" lon="5.4443">
        <ele>1365</ele>
        <time>2020-05-21T16:55:07.522Z</time>
      </trkpt>
      <trkpt lat="44.90095" lon="5.44432">
        <ele>1365</ele>
        <time>2020-05-21T16:55:08.523Z</time>
      </trkpt>
      <trkpt lat="44.90095" lon="5.44435">
        <ele>1366</ele>
        <time>2020-05-21T16:55:09.523Z</time>
      </trkpt>
      <trkpt lat="44.90096" lon="5.44436">
        <ele>1366</ele>
        <time>2020-05-21T16:55:10.523Z</time>
      </trkpt>
      <trkpt lat="44.90096" lon="5.44438">
        <ele>1366</ele>
        <time>2020-05-21T16:55:11.522Z</time>
      </trkpt>
      <trkpt lat="44.90097" lon="5.44439">
        <ele>1367</ele>
        <time>2020-05-21T16:55:12.523Z</time>
      </trkpt>
      <trkpt lat="44.90097" lon="5.44441">
        <ele>1367</ele>
        <time>2020-05-21T16:55:13.522Z</time>
      </trkpt>
      <trkpt lat="44.90097" lon="5.44443">
        <ele>1368</ele>
        <time>2020-05-21T16:55:14.522Z</time>
      </trkpt>
      <trkpt lat="44.90097" lon="5.44444">
        <ele>1368</ele>
        <time>2020-05-21T16:55:15.523Z</time>
      </trkpt>
      <trkpt lat="44.90097" lon="5.44445">
        <ele>1369</ele>
        <time>2020-05-21T16:55:16.523Z</time>
      </trkpt>
      <trkpt lat="44.90096" lon="5.44447">
        <ele>1369</ele>
        <time>2020-05-21T16:55:17.522Z</time>
      </trkpt>
      <trkpt lat="44.90096" lon="5.44449">
        <ele>1370</ele>
        <time>2020-05-21T16:55:18.523Z</time>
      </trkpt>
      <trkpt lat="44.90096" lon="5.44451">
        <ele>1370</ele>
        <time>2020-05-21T16:55:19.523Z</time>
      </trkpt>
      <trkpt lat="44.90097" lon="5.44453">
        <ele>1371</ele>
        <time>2020-05-21T16:55:20.523Z</time>
      </trkpt>
      <trkpt lat="44.90097" lon="5.44454">
        <ele>1371</ele>
        <time>2020-05-21T16:55:21.523Z</time>
      </trkpt>
      <trkpt lat="44.90098" lon="5.44455">
        <ele>1371</ele>
        <time>2020-05-21T16:55:22.523Z</time>
      </trkpt>
      <trkpt lat="44.90099" lon="5.44457">
        <ele>1372</ele>
        <time>2020-05-21T16:55:23.523Z</time>
      </trkpt>
      <trkpt lat="44.901" lon="5.44459">
        <ele>1372</ele>
        <time>2020-05-21T16:55:24.522Z</time>
      </trkpt>
      <trkpt lat="44.901" lon="5.44461">
        <ele>1372</ele>
        <time>2020-05-21T16:55:25.522Z</time>
      </trkpt>
      <trkpt lat="44.90101" lon="5.44464">
        <ele>1373</ele>
        <time>2020-05-21T16:55:26.523Z</time>
      </trkpt>
      <trkpt lat="44.90101" lon="5.44466">
        <ele>1373</ele>
        <time>2020-05-21T16:55:27.523Z</time>
      </trkpt>
      <trkpt lat="44.90102" lon="5.44469">
        <ele>1374</ele>
        <time>2020-05-21T16:55:28.523Z</time>
      </trkpt>
      <trkpt lat="44.90103" lon="5.44472">
        <ele>1374</ele>
        <time>2020-05-21T16:55:29.522Z</time>
      </trkpt>
      <trkpt lat="44.90104" lon="5.44475">
        <ele>1374</ele>
        <time>2020-05-21T16:55:30.523Z</time>
      </trkpt>
      <trkpt lat="44.90105" lon="5.44478">
        <ele>1374</ele>
        <time>2020-05-21T16:55:31.523Z</time>
      </trkpt>
      <trkpt lat="44.90107" lon="5.44481">
        <ele>1374</ele>
        <time>2020-05-21T16:55:32.523Z</time>
      </trkpt>
      <trkpt lat="44.90109" lon="5.44483">
        <ele>1374</ele>
        <time>2020-05-21T16:55:33.523Z</time>
      </trkpt>
      <trkpt lat="44.9011" lon="5.44486">
        <ele>1374</ele>
        <time>2020-05-21T16:55:34.522Z</time>
      </trkpt>
      <trkpt lat="44.90111" lon="5.44488">
        <ele>1374</ele>
        <time>2020-05-21T16:55:35.522Z</time>
      </trkpt>
      <trkpt lat="44.90112" lon="5.4449">
        <ele>1374</ele>
        <time>2020-05-21T16:55:36.522Z</time>
      </trkpt>
      <trkpt lat="44.90114" lon="5.44491">
        <ele>1373</ele>
        <time>2020-05-21T16:55:37.523Z</time>
      </trkpt>
      <trkpt lat="44.90116" lon="5.44492">
        <ele>1373</ele>
        <time>2020-05-21T16:55:38.523Z</time>
      </trkpt>
      <trkpt lat="44.90118" lon="5.44493">
        <ele>1373</ele>
        <time>2020-05-21T16:55:39.522Z</time>
      </trkpt>
      <trkpt lat="44.9012" lon="5.44493">
        <ele>1373</ele>
        <time>2020-05-21T16:55:40.523Z</time>
      </trkpt>
      <trkpt lat="44.90122" lon="5.44493">
        <ele>1373</ele>
        <time>2020-05-21T16:55:41.523Z</time>
      </trkpt>
      <trkpt lat="44.90124" lon="5.44493">
        <ele>1373</ele>
        <time>2020-05-21T16:55:42.523Z</time>
      </trkpt>
      <trkpt lat="44.90125" lon="5.44493">
        <ele>1373</ele>
        <time>2020-05-21T16:55:43.522Z</time>
      </trkpt>
      <trkpt lat="44.90127" lon="5.44492">
        <ele>1374</ele>
        <time>2020-05-21T16:55:44.523Z</time>
      </trkpt>
      <trkpt lat="44.90129" lon="5.44491">
        <ele>1374</ele>
        <time>2020-05-21T16:55:45.523Z</time>
      </trkpt>
      <trkpt lat="44.90131" lon="5.4449">
        <ele>1374</ele>
        <time>2020-05-21T16:55:46.523Z</time>
      </trkpt>
      <trkpt lat="44.90133" lon="5.44488">
        <ele>1374</ele>
        <time>2020-05-21T16:55:47.523Z</time>
      </trkpt>
      <trkpt lat="44.90134" lon="5.44486">
        <ele>1374</ele>
        <time>2020-05-21T16:55:48.523Z</time>
      </trkpt>
      <trkpt lat="44.90136" lon="5.44484">
        <ele>1374</ele>
        <time>2020-05-21T16:55:49.523Z</time>
      </trkpt>
      <trkpt lat="44.90138" lon="5.44482">
        <ele>1374</ele>
        <time>2020-05-21T16:55:50.523Z</time>
      </trkpt>
      <trkpt lat="44.90139" lon="5.4448">
        <ele>1373</ele>
        <time>2020-05-21T16:55:51.522Z</time>
      </trkpt>
      <trkpt lat="44.90141" lon="5.44478">
        <ele>1373</ele>
        <time>2020-05-21T16:55:52.523Z</time>
      </trkpt>
      <trkpt lat="44.90143" lon="5.44475">
        <ele>1373</ele>
        <time>2020-05-21T16:55:53.522Z</time>
      </trkpt>
      <trkpt lat="44.90145" lon="5.44473">
        <ele>1373</ele>
        <time>2020-05-21T16:55:54.522Z</time>
      </trkpt>
      <trkpt lat="44.90147" lon="5.4447">
        <ele>1374</ele>
        <time>2020-05-21T16:55:55.523Z</time>
      </trkpt>
      <trkpt lat="44.90149" lon="5.44469">
        <ele>1374</ele>
        <time>2020-05-21T16:55:56.523Z</time>
      </trkpt>
      <trkpt lat="44.90151" lon="5.44468">
        <ele>1374</ele>
        <time>2020-05-21T16:55:57.522Z</time>
      </trkpt>
      <trkpt lat="44.90153" lon="5.44468">
        <ele>1374</ele>
        <time>2020-05-21T16:55:58.523Z</time>
      </trkpt>
      <trkpt lat="44.90155" lon="5.44468">
        <ele>1374</ele>
        <time>2020-05-21T16:55:59.523Z</time>
      </trkpt>
      <trkpt lat="44.90158" lon="5.44469">
        <ele>1374</ele>
        <time>2020-05-21T16:56:00.523Z</time>
      </trkpt>
      <trkpt lat="44.9016" lon="5.4447">
        <ele>1374</ele>
        <time>2020-05-21T16:56:01.522Z</time>
      </trkpt>
      <trkpt lat="44.90163" lon="5.44472">
        <ele>1373</ele>
        <time>2020-05-21T16:56:02.523Z</time>
      </trkpt>
      <trkpt lat="44.90166" lon="5.44473">
        <ele>1373</ele>
        <time>2020-05-21T16:56:03.523Z</time>
      </trkpt>
      <trkpt lat="44.90167" lon="5.44474">
        <ele>1373</ele>
        <time>2020-05-21T16:56:04.523Z</time>
      </trkpt>
      <trkpt lat="44.90169" lon="5.44475">
        <ele>1372</ele>
        <time>2020-05-21T16:56:05.523Z</time>
      </trkpt>
      <trkpt lat="44.90171" lon="5.44477">
        <ele>1372</ele>
        <time>2020-05-21T16:56:06.523Z</time>
      </trkpt>
      <trkpt lat="44.90174" lon="5.44479">
        <ele>1372</ele>
        <time>2020-05-21T16:56:07.523Z</time>
      </trkpt>
      <trkpt lat="44.90176" lon="5.4448">
        <ele>1372</ele>
        <time>2020-05-21T16:56:08.523Z</time>
      </trkpt>
      <trkpt lat="44.90178" lon="5.44482">
        <ele>1371</ele>
        <time>2020-05-21T16:56:09.523Z</time>
      </trkpt>
      <trkpt lat="44.90181" lon="5.44483">
        <ele>1371</ele>
        <time>2020-05-21T16:56:10.522Z</time>
      </trkpt>
      <trkpt lat="44.90183" lon="5.44485">
        <ele>1370</ele>
        <time>2020-05-21T16:56:11.523Z</time>
      </trkpt>
      <trkpt lat="44.90185" lon="5.44487">
        <ele>1370</ele>
        <time>2020-05-21T16:56:12.523Z</time>
      </trkpt>
      <trkpt lat="44.90187" lon="5.44489">
        <ele>1369</ele>
        <time>2020-05-21T16:56:13.522Z</time>
      </trkpt>
      <trkpt lat="44.90189" lon="5.44491">
        <ele>1369</ele>
        <time>2020-05-21T16:56:14.523Z</time>
      </trkpt>
      <trkpt lat="44.90191" lon="5.44492">
        <ele>1368</ele>
        <time>2020-05-21T16:56:15.523Z</time>
      </trkpt>
      <trkpt lat="44.90193" lon="5.44494">
        <ele>1368</ele>
        <time>2020-05-21T16:56:16.523Z</time>
      </trkpt>
      <trkpt lat="44.90196" lon="5.44496">
        <ele>1367</ele>
        <time>2020-05-21T16:56:17.523Z</time>
      </trkpt>
      <trkpt lat="44.90198" lon="5.44499">
        <ele>1367</ele>
        <time>2020-05-21T16:56:18.523Z</time>
      </trkpt>
      <trkpt lat="44.90199" lon="5.44501">
        <ele>1367</ele>
        <time>2020-05-21T16:56:19.523Z</time>
      </trkpt>
      <trkpt lat="44.90201" lon="5.44504">
        <ele>1366</ele>
        <time>2020-05-21T16:56:20.523Z</time>
      </trkpt>
      <trkpt lat="44.90202" lon="5.44506">
        <ele>1366</ele>
        <time>2020-05-21T16:56:21.523Z</time>
      </trkpt>
      <trkpt lat="44.90203" lon="5.44509">
        <ele>1366</ele>
        <time>2020-05-21T16:56:22.522Z</time>
      </trkpt>
      <trkpt lat="44.90204" lon="5.44511">
        <ele>1366</ele>
        <time>2020-05-21T16:56:23.523Z</time>
      </trkpt>
      <trkpt lat="44.90206" lon="5.44513">
        <ele>1366</ele>
        <time>2020-05-21T16:56:24.523Z</time>
      </trkpt>
      <trkpt lat="44.90208" lon="5.44516">
        <ele>1366</ele>
        <time>2020-05-21T16:56:25.523Z</time>
      </trkpt>
      <trkpt lat="44.90209" lon="5.44518">
        <ele>1366</ele>
        <time>2020-05-21T16:56:26.523Z</time>
      </trkpt>
      <trkpt lat="44.90211" lon="5.4452">
        <ele>1366</ele>
        <time>2020-05-21T16:56:27.523Z</time>
      </trkpt>
      <trkpt lat="44.90212" lon="5.44523">
        <ele>1366</ele>
        <time>2020-05-21T16:56:28.523Z</time>
      </trkpt>
      <trkpt lat="44.90214" lon="5.44525">
        <ele>1367</ele>
        <time>2020-05-21T16:56:29.523Z</time>
      </trkpt>
      <trkpt lat="44.90216" lon="5.44527">
        <ele>1367</ele>
        <time>2020-05-21T16:56:30.523Z</time>
      </trkpt>
      <trkpt lat="44.90218" lon="5.44528">
        <ele>1367</ele>
        <time>2020-05-21T16:56:31.522Z</time>
      </trkpt>
      <trkpt lat="44.9022" lon="5.44529">
        <ele>1367</ele>
        <time>2020-05-21T16:56:32.522Z</time>
      </trkpt>
      <trkpt lat="44.90221" lon="5.44531">
        <ele>1367</ele>
        <time>2020-05-21T16:56:33.523Z</time>
      </trkpt>
      <trkpt lat="44.90223" lon="5.44532">
        <ele>1367</ele>
        <time>2020-05-21T16:56:34.523Z</time>
      </trkpt>
      <trkpt lat="44.90225" lon="5.44533">
        <ele>1368</ele>
        <time>2020-05-21T16:56:35.523Z</time>
      </trkpt>
      <trkpt lat="44.90226" lon="5.44534">
        <ele>1368</ele>
        <time>2020-05-21T16:56:36.523Z</time>
      </trkpt>
      <trkpt lat="44.90228" lon="5.44534">
        <ele>1368</ele>
        <time>2020-05-21T16:56:37.522Z</time>
      </trkpt>
      <trkpt lat="44.9023" lon="5.44536">
        <ele>1368</ele>
        <time>2020-05-21T16:56:38.522Z</time>
      </trkpt>
      <trkpt lat="44.90232" lon="5.44537">
        <ele>1368</ele>
        <time>2020-05-21T16:56:39.523Z</time>
      </trkpt>
      <trkpt lat="44.90234" lon="5.44538">
        <ele>1368</ele>
        <time>2020-05-21T16:56:40.523Z</time>
      </trkpt>
      <trkpt lat="44.90236" lon="5.44539">
        <ele>1368</ele>
        <time>2020-05-21T16:56:41.523Z</time>
      </trkpt>
      <trkpt lat="44.90238" lon="5.4454">
        <ele>1368</ele>
        <time>2020-05-21T16:56:42.523Z</time>
      </trkpt>
      <trkpt lat="44.90241" lon="5.44541">
        <ele>1368</ele>
        <time>2020-05-21T16:56:43.522Z</time>
      </trkpt>
      <trkpt lat="44.90243" lon="5.44542">
        <ele>1368</ele>
        <time>2020-05-21T16:56:44.523Z</time>
      </trkpt>
      <trkpt lat="44.90246" lon="5.44543">
        <ele>1369</ele>
        <time>2020-05-21T16:56:45.523Z</time>
      </trkpt>
      <trkpt lat="44.90248" lon="5.44544">
        <ele>1369</ele>
        <time>2020-05-21T16:56:46.523Z</time>
      </trkpt>
      <trkpt lat="44.90251" lon="5.44545">
        <ele>1369</ele>
        <time>2020-05-21T16:56:47.523Z</time>
      </trkpt>
      <trkpt lat="44.90253" lon="5.44546">
        <ele>1370</ele>
        <time>2020-05-21T16:56:48.523Z</time>
      </trkpt>
      <trkpt lat="44.90256" lon="5.44545">
        <ele>1370</ele>
        <time>2020-05-21T16:56:49.522Z</time>
      </trkpt>
      <trkpt lat="44.90257" lon="5.44543">
        <ele>1370</ele>
        <time>2020-05-21T16:56:50.523Z</time>
      </trkpt>
      <trkpt lat="44.90258" lon="5.4454">
        <ele>1370</ele>
        <time>2020-05-21T16:56:51.523Z</time>
      </trkpt>
      <trkpt lat="44.9026" lon="5.44538">
        <ele>1370</ele>
        <time>2020-05-21T16:56:52.523Z</time>
      </trkpt>
      <trkpt lat="44.90261" lon="5.44536">
        <ele>1370</ele>
        <time>2020-05-21T16:56:53.523Z</time>
      </trkpt>
      <trkpt lat="44.90262" lon="5.44533">
        <ele>1370</ele>
        <time>2020-05-21T16:56:54.523Z</time>
      </trkpt>
      <trkpt lat="44.90263" lon="5.44531">
        <ele>1370</ele>
        <time>2020-05-21T16:56:55.523Z</time>
      </trkpt>
      <trkpt lat="44.90264" lon="5.44529">
        <ele>1370</ele>
        <time>2020-05-21T16:56:56.522Z</time>
      </trkpt>
      <trkpt lat="44.90265" lon="5.44526">
        <ele>1369</ele>
        <time>2020-05-21T16:56:57.523Z</time>
      </trkpt>
      <trkpt lat="44.90265" lon="5.44523">
        <ele>1369</ele>
        <time>2020-05-21T16:56:58.523Z</time>
      </trkpt>
      <trkpt lat="44.90266" lon="5.44519">
        <ele>1369</ele>
        <time>2020-05-21T16:56:59.523Z</time>
      </trkpt>
      <trkpt lat="44.90268" lon="5.44517">
        <ele>1368</ele>
        <time>2020-05-21T16:57:00.522Z</time>
      </trkpt>
      <trkpt lat="44.90268" lon="5.44515">
        <ele>1368</ele>
        <time>2020-05-21T16:57:01.523Z</time>
      </trkpt>
      <trkpt lat="44.9027" lon="5.44513">
        <ele>1368</ele>
        <time>2020-05-21T16:57:02.523Z</time>
      </trkpt>
      <trkpt lat="44.90272" lon="5.44511">
        <ele>1367</ele>
        <time>2020-05-21T16:57:03.523Z</time>
      </trkpt>
      <trkpt lat="44.90274" lon="5.44509">
        <ele>1367</ele>
        <time>2020-05-21T16:57:04.523Z</time>
      </trkpt>
      <trkpt lat="44.90276" lon="5.44506">
        <ele>1366</ele>
        <time>2020-05-21T16:57:05.523Z</time>
      </trkpt>
      <trkpt lat="44.90278" lon="5.44504">
        <ele>1366</ele>
        <time>2020-05-21T16:57:06.523Z</time>
      </trkpt>
      <trkpt lat="44.9028" lon="5.44501">
        <ele>1365</ele>
        <time>2020-05-21T16:57:07.523Z</time>
      </trkpt>
      <trkpt lat="44.90281" lon="5.44499">
        <ele>1365</ele>
        <time>2020-05-21T16:57:08.523Z</time>
      </trkpt>
      <trkpt lat="44.90283" lon="5.44496">
        <ele>1364</ele>
        <time>2020-05-21T16:57:09.522Z</time>
      </trkpt>
      <trkpt lat="44.90285" lon="5.44493">
        <ele>1364</ele>
        <time>2020-05-21T16:57:10.523Z</time>
      </trkpt>
      <trkpt lat="44.90287" lon="5.44489">
        <ele>1363</ele>
        <time>2020-05-21T16:57:11.523Z</time>
      </trkpt>
      <trkpt lat="44.90288" lon="5.44485">
        <ele>1363</ele>
        <time>2020-05-21T16:57:12.523Z</time>
      </trkpt>
      <trkpt lat="44.90291" lon="5.44483">
        <ele>1362</ele>
        <time>2020-05-21T16:57:13.523Z</time>
      </trkpt>
      <trkpt lat="44.90293" lon="5.4448">
        <ele>1361</ele>
        <time>2020-05-21T16:57:14.523Z</time>
      </trkpt>
      <trkpt lat="44.90295" lon="5.44478">
        <ele>1361</ele>
        <time>2020-05-21T16:57:15.522Z</time>
      </trkpt>
      <trkpt lat="44.90297" lon="5.44476">
        <ele>1360</ele>
        <time>2020-05-21T16:57:16.523Z</time>
      </trkpt>
      <trkpt lat="44.90298" lon="5.44475">
        <ele>1360</ele>
        <time>2020-05-21T16:57:17.523Z</time>
      </trkpt>
      <trkpt lat="44.903" lon="5.44474">
        <ele>1360</ele>
        <time>2020-05-21T16:57:18.523Z</time>
      </trkpt>
      <trkpt lat="44.90302" lon="5.44475">
        <ele>1359</ele>
        <time>2020-05-21T16:57:19.523Z</time>
      </trkpt>
      <trkpt lat="44.90303" lon="5.44475">
        <ele>1359</ele>
        <time>2020-05-21T16:57:20.522Z</time>
      </trkpt>
      <trkpt lat="44.90306" lon="5.44475">
        <ele>1359</ele>
        <time>2020-05-21T16:57:21.522Z</time>
      </trkpt>
      <trkpt lat="44.90308" lon="5.44475">
        <ele>1358</ele>
        <time>2020-05-21T16:57:22.523Z</time>
      </trkpt>
      <trkpt lat="44.90309" lon="5.44476">
        <ele>1358</ele>
        <time>2020-05-21T16:57:23.523Z</time>
      </trkpt>
      <trkpt lat="44.90311" lon="5.44477">
        <ele>1358</ele>
        <time>2020-05-21T16:57:24.523Z</time>
      </trkpt>
      <trkpt lat="44.90313" lon="5.44478">
        <ele>1358</ele>
        <time>2020-05-21T16:57:25.523Z</time>
      </trkpt>
      <trkpt lat="44.90315" lon="5.44479">
        <ele>1358</ele>
        <time>2020-05-21T16:57:26.523Z</time>
      </trkpt>
      <trkpt lat="44.90317" lon="5.44481">
        <ele>1358</ele>
        <time>2020-05-21T16:57:27.523Z</time>
      </trkpt>
      <trkpt lat="44.90319" lon="5.44482">
        <ele>1359</ele>
        <time>2020-05-21T16:57:28.523Z</time>
      </trkpt>
      <trkpt lat="44.90321" lon="5.44483">
        <ele>1359</ele>
        <time>2020-05-21T16:57:29.523Z</time>
      </trkpt>
      <trkpt lat="44.90323" lon="5.44485">
        <ele>1359</ele>
        <time>2020-05-21T16:57:30.522Z</time>
      </trkpt>
      <trkpt lat="44.90325" lon="5.44487">
        <ele>1359</ele>
        <time>2020-05-21T16:57:31.523Z</time>
      </trkpt>
      <trkpt lat="44.90327" lon="5.44488">
        <ele>1360</ele>
        <time>2020-05-21T16:57:32.523Z</time>
      </trkpt>
      <trkpt lat="44.90329" lon="5.44489">
        <ele>1360</ele>
        <time>2020-05-21T16:57:33.523Z</time>
      </trkpt>
      <trkpt lat="44.90331" lon="5.44491">
        <ele>1360</ele>
        <time>2020-05-21T16:57:34.523Z</time>
      </trkpt>
      <trkpt lat="44.90335" lon="5.44491">
        <ele>1361</ele>
        <time>2020-05-21T16:57:35.523Z</time>
      </trkpt>
      <trkpt lat="44.90337" lon="5.44491">
        <ele>1361</ele>
        <time>2020-05-21T16:57:36.523Z</time>
      </trkpt>
      <trkpt lat="44.90339" lon="5.4449">
        <ele>1361</ele>
        <time>2020-05-21T16:57:37.523Z</time>
      </trkpt>
      <trkpt lat="44.90341" lon="5.44489">
        <ele>1361</ele>
        <time>2020-05-21T16:57:38.523Z</time>
      </trkpt>
      <trkpt lat="44.90342" lon="5.44488">
        <ele>1361</ele>
        <time>2020-05-21T16:57:39.523Z</time>
      </trkpt>
      <trkpt lat="44.90344" lon="5.44486">
        <ele>1361</ele>
        <time>2020-05-21T16:57:40.522Z</time>
      </trkpt>
      <trkpt lat="44.90346" lon="5.44484">
        <ele>1361</ele>
        <time>2020-05-21T16:57:41.523Z</time>
      </trkpt>
      <trkpt lat="44.90347" lon="5.44482">
        <ele>1361</ele>
        <time>2020-05-21T16:57:42.522Z</time>
      </trkpt>
      <trkpt lat="44.90349" lon="5.4448">
        <ele>1361</ele>
        <time>2020-05-21T16:57:43.523Z</time>
      </trkpt>
      <trkpt lat="44.9035" lon="5.44478">
        <ele>1361</ele>
        <time>2020-05-21T16:57:44.522Z</time>
      </trkpt>
      <trkpt lat="44.90352" lon="5.44477">
        <ele>1361</ele>
        <time>2020-05-21T16:57:45.523Z</time>
      </trkpt>
      <trkpt lat="44.90354" lon="5.44475">
        <ele>1361</ele>
        <time>2020-05-21T16:57:46.522Z</time>
      </trkpt>
      <trkpt lat="44.90355" lon="5.44473">
        <ele>1361</ele>
        <time>2020-05-21T16:57:47.523Z</time>
      </trkpt>
      <trkpt lat="44.90356" lon="5.44471">
        <ele>1361</ele>
        <time>2020-05-21T16:57:48.523Z</time>
      </trkpt>
      <trkpt lat="44.90358" lon="5.44469">
        <ele>1361</ele>
        <time>2020-05-21T16:57:49.522Z</time>
      </trkpt>
      <trkpt lat="44.9036" lon="5.44468">
        <ele>1361</ele>
        <time>2020-05-21T16:57:50.523Z</time>
      </trkpt>
      <trkpt lat="44.90362" lon="5.44466">
        <ele>1361</ele>
        <time>2020-05-21T16:57:51.523Z</time>
      </trkpt>
      <trkpt lat="44.90363" lon="5.44464">
        <ele>1361</ele>
        <time>2020-05-21T16:57:52.523Z</time>
      </trkpt>
      <trkpt lat="44.90365" lon="5.44463">
        <ele>1361</ele>
        <time>2020-05-21T16:57:53.523Z</time>
      </trkpt>
      <trkpt lat="44.90366" lon="5.44462">
        <ele>1361</ele>
        <time>2020-05-21T16:57:54.523Z</time>
      </trkpt>
      <trkpt lat="44.90368" lon="5.4446">
        <ele>1361</ele>
        <time>2020-05-21T16:57:55.523Z</time>
      </trkpt>
      <trkpt lat="44.90369" lon="5.44458">
        <ele>1361</ele>
        <time>2020-05-21T16:57:56.523Z</time>
      </trkpt>
      <trkpt lat="44.90371" lon="5.44455">
        <ele>1361</ele>
        <time>2020-05-21T16:57:57.522Z</time>
      </trkpt>
      <trkpt lat="44.90373" lon="5.44453">
        <ele>1361</ele>
        <time>2020-05-21T16:57:58.523Z</time>
      </trkpt>
      <trkpt lat="44.90374" lon="5.44451">
        <ele>1361</ele>
        <time>2020-05-21T16:57:59.523Z</time>
      </trkpt>
      <trkpt lat="44.90376" lon="5.44448">
        <ele>1361</ele>
        <time>2020-05-21T16:58:00.523Z</time>
      </trkpt>
      <trkpt lat="44.90377" lon="5.44447">
        <ele>1361</ele>
        <time>2020-05-21T16:58:01.522Z</time>
      </trkpt>
      <trkpt lat="44.90378" lon="5.44445">
        <ele>1360</ele>
        <time>2020-05-21T16:58:02.523Z</time>
      </trkpt>
      <trkpt lat="44.90379" lon="5.44443">
        <ele>1360</ele>
        <time>2020-05-21T16:58:03.523Z</time>
      </trkpt>
      <trkpt lat="44.90381" lon="5.44441">
        <ele>1360</ele>
        <time>2020-05-21T16:58:04.523Z</time>
      </trkpt>
      <trkpt lat="44.90382" lon="5.44439">
        <ele>1359</ele>
        <time>2020-05-21T16:58:05.522Z</time>
      </trkpt>
      <trkpt lat="44.90383" lon="5.44437">
        <ele>1359</ele>
        <time>2020-05-21T16:58:06.523Z</time>
      </trkpt>
      <trkpt lat="44.90385" lon="5.44435">
        <ele>1359</ele>
        <time>2020-05-21T16:58:07.523Z</time>
      </trkpt>
      <trkpt lat="44.90386" lon="5.44434">
        <ele>1359</ele>
        <time>2020-05-21T16:58:08.523Z</time>
      </trkpt>
      <trkpt lat="44.90387" lon="5.44432">
        <ele>1359</ele>
        <time>2020-05-21T16:58:09.522Z</time>
      </trkpt>
      <trkpt lat="44.90388" lon="5.4443">
        <ele>1359</ele>
        <time>2020-05-21T16:58:10.523Z</time>
      </trkpt>
      <trkpt lat="44.9039" lon="5.44428">
        <ele>1358</ele>
        <time>2020-05-21T16:58:11.523Z</time>
      </trkpt>
      <trkpt lat="44.90391" lon="5.44425">
        <ele>1358</ele>
        <time>2020-05-21T16:58:12.523Z</time>
      </trkpt>
      <trkpt lat="44.90392" lon="5.44422">
        <ele>1358</ele>
        <time>2020-05-21T16:58:13.523Z</time>
      </trkpt>
      <trkpt lat="44.90393" lon="5.4442">
        <ele>1357</ele>
        <time>2020-05-21T16:58:14.523Z</time>
      </trkpt>
      <trkpt lat="44.90395" lon="5.44417">
        <ele>1357</ele>
        <time>2020-05-21T16:58:15.522Z</time>
      </trkpt>
      <trkpt lat="44.90396" lon="5.44415">
        <ele>1357</ele>
        <time>2020-05-21T16:58:16.523Z</time>
      </trkpt>
      <trkpt lat="44.90398" lon="5.44413">
        <ele>1357</ele>
        <time>2020-05-21T16:58:17.523Z</time>
      </trkpt>
      <trkpt lat="44.904" lon="5.44409">
        <ele>1356</ele>
        <time>2020-05-21T16:58:18.523Z</time>
      </trkpt>
      <trkpt lat="44.90401" lon="5.44408">
        <ele>1356</ele>
        <time>2020-05-21T16:58:19.522Z</time>
      </trkpt>
      <trkpt lat="44.90403" lon="5.44406">
        <ele>1356</ele>
        <time>2020-05-21T16:58:20.523Z</time>
      </trkpt>
      <trkpt lat="44.90404" lon="5.44404">
        <ele>1356</ele>
        <time>2020-05-21T16:58:21.522Z</time>
      </trkpt>
      <trkpt lat="44.90406" lon="5.44402">
        <ele>1356</ele>
        <time>2020-05-21T16:58:22.523Z</time>
      </trkpt>
      <trkpt lat="44.90407" lon="5.444">
        <ele>1356</ele>
        <time>2020-05-21T16:58:23.523Z</time>
      </trkpt>
      <trkpt lat="44.90409" lon="5.44398">
        <ele>1356</ele>
        <time>2020-05-21T16:58:24.523Z</time>
      </trkpt>
      <trkpt lat="44.9041" lon="5.44396">
        <ele>1356</ele>
        <time>2020-05-21T16:58:25.522Z</time>
      </trkpt>
      <trkpt lat="44.90411" lon="5.44394">
        <ele>1355</ele>
        <time>2020-05-21T16:58:26.523Z</time>
      </trkpt>
      <trkpt lat="44.90412" lon="5.44392">
        <ele>1355</ele>
        <time>2020-05-21T16:58:27.523Z</time>
      </trkpt>
      <trkpt lat="44.90413" lon="5.4439">
        <ele>1355</ele>
        <time>2020-05-21T16:58:28.523Z</time>
      </trkpt>
      <trkpt lat="44.90414" lon="5.44388">
        <ele>1355</ele>
        <time>2020-05-21T16:58:29.522Z</time>
      </trkpt>
      <trkpt lat="44.90415" lon="5.44386">
        <ele>1355</ele>
        <time>2020-05-21T16:58:30.523Z</time>
      </trkpt>
      <trkpt lat="44.90415" lon="5.44383">
        <ele>1355</ele>
        <time>2020-05-21T16:58:31.523Z</time>
      </trkpt>
      <trkpt lat="44.90415" lon="5.4438">
        <ele>1355</ele>
        <time>2020-05-21T16:58:32.523Z</time>
      </trkpt>
      <trkpt lat="44.90416" lon="5.44377">
        <ele>1355</ele>
        <time>2020-05-21T16:58:33.523Z</time>
      </trkpt>
      <trkpt lat="44.90416" lon="5.44375">
        <ele>1355</ele>
        <time>2020-05-21T16:58:34.523Z</time>
      </trkpt>
      <trkpt lat="44.90416" lon="5.44372">
        <ele>1355</ele>
        <time>2020-05-21T16:58:35.523Z</time>
      </trkpt>
      <trkpt lat="44.90416" lon="5.4437">
        <ele>1355</ele>
        <time>2020-05-21T16:58:36.522Z</time>
      </trkpt>
      <trkpt lat="44.90416" lon="5.44368">
        <ele>1356</ele>
        <time>2020-05-21T16:58:37.523Z</time>
      </trkpt>
      <trkpt lat="44.90416" lon="5.44365">
        <ele>1356</ele>
        <time>2020-05-21T16:58:38.523Z</time>
      </trkpt>
      <trkpt lat="44.90416" lon="5.44363">
        <ele>1356</ele>
        <time>2020-05-21T16:58:39.522Z</time>
      </trkpt>
      <trkpt lat="44.90416" lon="5.44361">
        <ele>1356</ele>
        <time>2020-05-21T16:58:40.523Z</time>
      </trkpt>
      <trkpt lat="44.90416" lon="5.44358">
        <ele>1356</ele>
        <time>2020-05-21T16:58:41.522Z</time>
      </trkpt>
      <trkpt lat="44.90416" lon="5.44356">
        <ele>1356</ele>
        <time>2020-05-21T16:58:42.523Z</time>
      </trkpt>
      <trkpt lat="44.90416" lon="5.44353">
        <ele>1356</ele>
        <time>2020-05-21T16:58:43.523Z</time>
      </trkpt>
      <trkpt lat="44.90416" lon="5.44351">
        <ele>1356</ele>
        <time>2020-05-21T16:58:44.522Z</time>
      </trkpt>
      <trkpt lat="44.90416" lon="5.44348">
        <ele>1356</ele>
        <time>2020-05-21T16:58:45.523Z</time>
      </trkpt>
      <trkpt lat="44.90416" lon="5.44346">
        <ele>1356</ele>
        <time>2020-05-21T16:58:46.523Z</time>
      </trkpt>
      <trkpt lat="44.90415" lon="5.44344">
        <ele>1356</ele>
        <time>2020-05-21T16:58:47.523Z</time>
      </trkpt>
      <trkpt lat="44.90414" lon="5.44342">
        <ele>1356</ele>
        <time>2020-05-21T16:58:48.523Z</time>
      </trkpt>
      <trkpt lat="44.90413" lon="5.4434">
        <ele>1356</ele>
        <time>2020-05-21T16:58:49.523Z</time>
      </trkpt>
      <trkpt lat="44.90413" lon="5.44337">
        <ele>1356</ele>
        <time>2020-05-21T16:58:50.523Z</time>
      </trkpt>
      <trkpt lat="44.90413" lon="5.44335">
        <ele>1356</ele>
        <time>2020-05-21T16:58:51.523Z</time>
      </trkpt>
      <trkpt lat="44.90412" lon="5.44332">
        <ele>1356</ele>
        <time>2020-05-21T16:58:52.523Z</time>
      </trkpt>
      <trkpt lat="44.9041" lon="5.44329">
        <ele>1357</ele>
        <time>2020-05-21T16:58:53.523Z</time>
      </trkpt>
      <trkpt lat="44.90409" lon="5.44326">
        <ele>1357</ele>
        <time>2020-05-21T16:58:54.522Z</time>
      </trkpt>
      <trkpt lat="44.90409" lon="5.44323">
        <ele>1357</ele>
        <time>2020-05-21T16:58:55.522Z</time>
      </trkpt>
      <trkpt lat="44.90408" lon="5.44317">
        <ele>1358</ele>
        <time>2020-05-21T16:58:56.523Z</time>
      </trkpt>
      <trkpt lat="44.90408" lon="5.44312">
        <ele>1358</ele>
        <time>2020-05-21T16:58:57.523Z</time>
      </trkpt>
      <trkpt lat="44.90407" lon="5.44308">
        <ele>1358</ele>
        <time>2020-05-21T16:58:58.523Z</time>
      </trkpt>
      <trkpt lat="44.90407" lon="5.44304">
        <ele>1359</ele>
        <time>2020-05-21T16:58:59.523Z</time>
      </trkpt>
      <trkpt lat="44.90408" lon="5.44301">
        <ele>1359</ele>
        <time>2020-05-21T16:59:00.523Z</time>
      </trkpt>
      <trkpt lat="44.90409" lon="5.44298">
        <ele>1359</ele>
        <time>2020-05-21T16:59:01.523Z</time>
      </trkpt>
      <trkpt lat="44.90409" lon="5.44295">
        <ele>1360</ele>
        <time>2020-05-21T16:59:02.523Z</time>
      </trkpt>
      <trkpt lat="44.9041" lon="5.44291">
        <ele>1360</ele>
        <time>2020-05-21T16:59:03.522Z</time>
      </trkpt>
      <trkpt lat="44.9041" lon="5.44287">
        <ele>1360</ele>
        <time>2020-05-21T16:59:04.523Z</time>
      </trkpt>
      <trkpt lat="44.90411" lon="5.44283">
        <ele>1360</ele>
        <time>2020-05-21T16:59:05.523Z</time>
      </trkpt>
      <trkpt lat="44.90412" lon="5.4428">
        <ele>1360</ele>
        <time>2020-05-21T16:59:06.522Z</time>
      </trkpt>
      <trkpt lat="44.90413" lon="5.44277">
        <ele>1360</ele>
        <time>2020-05-21T16:59:07.522Z</time>
      </trkpt>
      <trkpt lat="44.90413" lon="5.44274">
        <ele>1360</ele>
        <time>2020-05-21T16:59:08.522Z</time>
      </trkpt>
      <trkpt lat="44.90414" lon="5.44272">
        <ele>1360</ele>
        <time>2020-05-21T16:59:09.523Z</time>
      </trkpt>
      <trkpt lat="44.90415" lon="5.44271">
        <ele>1360</ele>
        <time>2020-05-21T16:59:10.523Z</time>
      </trkpt>
      <trkpt lat="44.90415" lon="5.44271">
        <ele>1360</ele>
        <time>2020-05-21T16:59:11.523Z</time>
      </trkpt>
      <trkpt lat="44.90415" lon="5.44272">
        <ele>1360</ele>
        <time>2020-05-21T16:59:12.523Z</time>
      </trkpt>
      <trkpt lat="44.90414" lon="5.44274">
        <ele>1361</ele>
        <time>2020-05-21T16:59:13.523Z</time>
      </trkpt>
      <trkpt lat="44.90412" lon="5.44274">
        <ele>1361</ele>
        <time>2020-05-21T16:59:14.523Z</time>
      </trkpt>
      <trkpt lat="44.90412" lon="5.44274">
        <ele>1361</ele>
        <time>2020-05-21T16:59:15.523Z</time>
      </trkpt>
      <trkpt lat="44.90411" lon="5.44274">
        <ele>1361</ele>
        <time>2020-05-21T16:59:16.523Z</time>
      </trkpt>
      <trkpt lat="44.90411" lon="5.44273">
        <ele>1362</ele>
        <time>2020-05-21T16:59:17.522Z</time>
      </trkpt>
      <trkpt lat="44.90412" lon="5.44272">
        <ele>1361</ele>
        <time>2020-05-21T16:59:18.523Z</time>
      </trkpt>
      <trkpt lat="44.90412" lon="5.44271">
        <ele>1361</ele>
        <time>2020-05-21T16:59:19.523Z</time>
      </trkpt>
      <trkpt lat="44.90412" lon="5.44271">
        <ele>1361</ele>
        <time>2020-05-21T16:59:20.522Z</time>
      </trkpt>
      <trkpt lat="44.90412" lon="5.44271">
        <ele>1360</ele>
        <time>2020-05-21T16:59:21.523Z</time>
      </trkpt>
      <trkpt lat="44.90412" lon="5.44271">
        <ele>1360</ele>
        <time>2020-05-21T16:59:22.523Z</time>
      </trkpt>
      <trkpt lat="44.90412" lon="5.44271">
        <ele>1359</ele>
        <time>2020-05-21T16:59:23.523Z</time>
      </trkpt>
      <trkpt lat="44.90412" lon="5.44271">
        <ele>1359</ele>
        <time>2020-05-21T16:59:24.523Z</time>
      </trkpt>
      <trkpt lat="44.90414" lon="5.44272">
        <ele>1361</ele>
        <time>2020-05-21T16:59:25.524Z</time>
      </trkpt>
      <trkpt lat="44.90414" lon="5.44272">
        <ele>1361</ele>
        <time>2020-05-21T16:59:26.525Z</time>
      </trkpt>
      <trkpt lat="44.90414" lon="5.44272">
        <ele>1361</ele>
        <time>2020-05-21T16:59:27.524Z</time>
      </trkpt>
      <trkpt lat="44.90414" lon="5.44272">
        <ele>1361</ele>
        <time>2020-05-21T16:59:28.525Z</time>
      </trkpt>
      <trkpt lat="44.90414" lon="5.44271">
        <ele>1361</ele>
        <time>2020-05-21T16:59:29.525Z</time>
      </trkpt>
      <trkpt lat="44.90416" lon="5.44269">
        <ele>1361</ele>
        <time>2020-05-21T16:59:30.524Z</time>
      </trkpt>
      <trkpt lat="44.90418" lon="5.44267">
        <ele>1361</ele>
        <time>2020-05-21T16:59:31.525Z</time>
      </trkpt>
      <trkpt lat="44.9042" lon="5.44265">
        <ele>1361</ele>
        <time>2020-05-21T16:59:32.525Z</time>
      </trkpt>
      <trkpt lat="44.90421" lon="5.44263">
        <ele>1361</ele>
        <time>2020-05-21T16:59:33.524Z</time>
      </trkpt>
      <trkpt lat="44.90423" lon="5.44261">
        <ele>1361</ele>
        <time>2020-05-21T16:59:34.525Z</time>
      </trkpt>
      <trkpt lat="44.90425" lon="5.4426">
        <ele>1361</ele>
        <time>2020-05-21T16:59:35.524Z</time>
      </trkpt>
      <trkpt lat="44.90428" lon="5.44259">
        <ele>1362</ele>
        <time>2020-05-21T16:59:36.525Z</time>
      </trkpt>
      <trkpt lat="44.9043" lon="5.44258">
        <ele>1362</ele>
        <time>2020-05-21T16:59:37.525Z</time>
      </trkpt>
      <trkpt lat="44.90433" lon="5.44257">
        <ele>1362</ele>
        <time>2020-05-21T16:59:38.525Z</time>
      </trkpt>
      <trkpt lat="44.90435" lon="5.44257">
        <ele>1362</ele>
        <time>2020-05-21T16:59:39.525Z</time>
      </trkpt>
      <trkpt lat="44.90437" lon="5.44258">
        <ele>1362</ele>
        <time>2020-05-21T16:59:40.525Z</time>
      </trkpt>
      <trkpt lat="44.90439" lon="5.44258">
        <ele>1362</ele>
        <time>2020-05-21T16:59:41.525Z</time>
      </trkpt>
      <trkpt lat="44.90441" lon="5.44259">
        <ele>1362</ele>
        <time>2020-05-21T16:59:42.525Z</time>
      </trkpt>
      <trkpt lat="44.90443" lon="5.4426">
        <ele>1362</ele>
        <time>2020-05-21T16:59:43.525Z</time>
      </trkpt>
      <trkpt lat="44.90444" lon="5.44261">
        <ele>1363</ele>
        <time>2020-05-21T16:59:44.524Z</time>
      </trkpt>
      <trkpt lat="44.90446" lon="5.44262">
        <ele>1363</ele>
        <time>2020-05-21T16:59:45.525Z</time>
      </trkpt>
      <trkpt lat="44.90448" lon="5.44262">
        <ele>1363</ele>
        <time>2020-05-21T16:59:46.524Z</time>
      </trkpt>
      <trkpt lat="44.9045" lon="5.44264">
        <ele>1363</ele>
        <time>2020-05-21T16:59:47.524Z</time>
      </trkpt>
      <trkpt lat="44.90451" lon="5.44264">
        <ele>1363</ele>
        <time>2020-05-21T16:59:48.525Z</time>
      </trkpt>
      <trkpt lat="44.90453" lon="5.44265">
        <ele>1364</ele>
        <time>2020-05-21T16:59:49.525Z</time>
      </trkpt>
      <trkpt lat="44.90455" lon="5.44267">
        <ele>1364</ele>
        <time>2020-05-21T16:59:50.525Z</time>
      </trkpt>
      <trkpt lat="44.90457" lon="5.44269">
        <ele>1365</ele>
        <time>2020-05-21T16:59:51.525Z</time>
      </trkpt>
      <trkpt lat="44.90458" lon="5.4427">
        <ele>1366</ele>
        <time>2020-05-21T16:59:52.525Z</time>
      </trkpt>
      <trkpt lat="44.90459" lon="5.44272">
        <ele>1367</ele>
        <time>2020-05-21T16:59:53.525Z</time>
      </trkpt>
      <trkpt lat="44.9046" lon="5.44275">
        <ele>1368</ele>
        <time>2020-05-21T16:59:54.525Z</time>
      </trkpt>
      <trkpt lat="44.9046" lon="5.44278">
        <ele>1369</ele>
        <time>2020-05-21T16:59:55.525Z</time>
      </trkpt>
      <trkpt lat="44.90461" lon="5.44281">
        <ele>1370</ele>
        <time>2020-05-21T16:59:56.525Z</time>
      </trkpt>
      <trkpt lat="44.90461" lon="5.44284">
        <ele>1370</ele>
        <time>2020-05-21T16:59:57.525Z</time>
      </trkpt>
      <trkpt lat="44.90461" lon="5.44288">
        <ele>1371</ele>
        <time>2020-05-21T16:59:58.525Z</time>
      </trkpt>
      <trkpt lat="44.90461" lon="5.44292">
        <ele>1372</ele>
        <time>2020-05-21T16:59:59.525Z</time>
      </trkpt>
      <trkpt lat="44.90461" lon="5.44295">
        <ele>1373</ele>
        <time>2020-05-21T17:00:00.525Z</time>
      </trkpt>
      <trkpt lat="44.9046" lon="5.44299">
        <ele>1373</ele>
        <time>2020-05-21T17:00:01.525Z</time>
      </trkpt>
      <trkpt lat="44.9046" lon="5.44303">
        <ele>1374</ele>
        <time>2020-05-21T17:00:02.525Z</time>
      </trkpt>
      <trkpt lat="44.90459" lon="5.44307">
        <ele>1375</ele>
        <time>2020-05-21T17:00:03.525Z</time>
      </trkpt>
      <trkpt lat="44.90459" lon="5.44311">
        <ele>1376</ele>
        <time>2020-05-21T17:00:04.525Z</time>
      </trkpt>
      <trkpt lat="44.90459" lon="5.44314">
        <ele>1377</ele>
        <time>2020-05-21T17:00:05.525Z</time>
      </trkpt>
      <trkpt lat="44.90459" lon="5.44317">
        <ele>1378</ele>
        <time>2020-05-21T17:00:06.525Z</time>
      </trkpt>
      <trkpt lat="44.90459" lon="5.4432">
        <ele>1378</ele>
        <time>2020-05-21T17:00:07.525Z</time>
      </trkpt>
      <trkpt lat="44.90458" lon="5.44322">
        <ele>1379</ele>
        <time>2020-05-21T17:00:08.525Z</time>
      </trkpt>
      <trkpt lat="44.90458" lon="5.44325">
        <ele>1380</ele>
        <time>2020-05-21T17:00:09.525Z</time>
      </trkpt>
      <trkpt lat="44.90457" lon="5.44328">
        <ele>1380</ele>
        <time>2020-05-21T17:00:10.525Z</time>
      </trkpt>
      <trkpt lat="44.90457" lon="5.44331">
        <ele>1380</ele>
        <time>2020-05-21T17:00:11.525Z</time>
      </trkpt>
      <trkpt lat="44.90457" lon="5.44334">
        <ele>1381</ele>
        <time>2020-05-21T17:00:12.525Z</time>
      </trkpt>
      <trkpt lat="44.90457" lon="5.44337">
        <ele>1381</ele>
        <time>2020-05-21T17:00:13.524Z</time>
      </trkpt>
      <trkpt lat="44.90457" lon="5.44339">
        <ele>1382</ele>
        <time>2020-05-21T17:00:14.524Z</time>
      </trkpt>
      <trkpt lat="44.90457" lon="5.44341">
        <ele>1382</ele>
        <time>2020-05-21T17:00:15.524Z</time>
      </trkpt>
      <trkpt lat="44.90457" lon="5.44343">
        <ele>1383</ele>
        <time>2020-05-21T17:00:16.525Z</time>
      </trkpt>
      <trkpt lat="44.90458" lon="5.44345">
        <ele>1384</ele>
        <time>2020-05-21T17:00:17.525Z</time>
      </trkpt>
      <trkpt lat="44.90458" lon="5.44347">
        <ele>1384</ele>
        <time>2020-05-21T17:00:18.524Z</time>
      </trkpt>
      <trkpt lat="44.90459" lon="5.44349">
        <ele>1385</ele>
        <time>2020-05-21T17:00:19.524Z</time>
      </trkpt>
      <trkpt lat="44.9046" lon="5.44351">
        <ele>1385</ele>
        <time>2020-05-21T17:00:20.525Z</time>
      </trkpt>
      <trkpt lat="44.90461" lon="5.44352">
        <ele>1385</ele>
        <time>2020-05-21T17:00:21.524Z</time>
      </trkpt>
      <trkpt lat="44.90462" lon="5.44354">
        <ele>1385</ele>
        <time>2020-05-21T17:00:22.525Z</time>
      </trkpt>
      <trkpt lat="44.9047" lon="5.44352">
        <ele>1373</ele>
        <time>2020-05-21T17:00:23.526Z</time>
      </trkpt>
      <trkpt lat="44.9047" lon="5.44352">
        <ele>1373</ele>
        <time>2020-05-21T17:00:24.526Z</time>
      </trkpt>
      <trkpt lat="44.9047" lon="5.44352">
        <ele>1373</ele>
        <time>2020-05-21T17:00:25.525Z</time>
      </trkpt>
      <trkpt lat="44.9047" lon="5.44352">
        <ele>1373</ele>
        <time>2020-05-21T17:00:26.526Z</time>
      </trkpt>
      <trkpt lat="44.90471" lon="5.44353">
        <ele>1373</ele>
        <time>2020-05-21T17:00:27.526Z</time>
      </trkpt>
      <trkpt lat="44.90473" lon="5.44352">
        <ele>1373</ele>
        <time>2020-05-21T17:00:28.526Z</time>
      </trkpt>
      <trkpt lat="44.90474" lon="5.44352">
        <ele>1373</ele>
        <time>2020-05-21T17:00:29.526Z</time>
      </trkpt>
      <trkpt lat="44.90475" lon="5.44351">
        <ele>1373</ele>
        <time>2020-05-21T17:00:30.526Z</time>
      </trkpt>
      <trkpt lat="44.90476" lon="5.4435">
        <ele>1373</ele>
        <time>2020-05-21T17:00:31.526Z</time>
      </trkpt>
      <trkpt lat="44.90477" lon="5.44349">
        <ele>1374</ele>
        <time>2020-05-21T17:00:32.526Z</time>
      </trkpt>
      <trkpt lat="44.90478" lon="5.44347">
        <ele>1374</ele>
        <time>2020-05-21T17:00:33.526Z</time>
      </trkpt>
      <trkpt lat="44.90478" lon="5.44345">
        <ele>1375</ele>
        <time>2020-05-21T17:00:34.526Z</time>
      </trkpt>
      <trkpt lat="44.90479" lon="5.44343">
        <ele>1375</ele>
        <time>2020-05-21T17:00:35.525Z</time>
      </trkpt>
      <trkpt lat="44.9048" lon="5.4434">
        <ele>1375</ele>
        <time>2020-05-21T17:00:36.526Z</time>
      </trkpt>
      <trkpt lat="44.90481" lon="5.44337">
        <ele>1375</ele>
        <time>2020-05-21T17:00:37.526Z</time>
      </trkpt>
      <trkpt lat="44.90482" lon="5.44334">
        <ele>1376</ele>
        <time>2020-05-21T17:00:38.526Z</time>
      </trkpt>
      <trkpt lat="44.90483" lon="5.44331">
        <ele>1376</ele>
        <time>2020-05-21T17:00:39.526Z</time>
      </trkpt>
      <trkpt lat="44.90484" lon="5.44329">
        <ele>1376</ele>
        <time>2020-05-21T17:00:40.526Z</time>
      </trkpt>
      <trkpt lat="44.90484" lon="5.44325">
        <ele>1376</ele>
        <time>2020-05-21T17:00:41.526Z</time>
      </trkpt>
      <trkpt lat="44.90485" lon="5.44322">
        <ele>1376</ele>
        <time>2020-05-21T17:00:42.526Z</time>
      </trkpt>
      <trkpt lat="44.90485" lon="5.44319">
        <ele>1376</ele>
        <time>2020-05-21T17:00:43.526Z</time>
      </trkpt>
      <trkpt lat="44.90487" lon="5.44317">
        <ele>1376</ele>
        <time>2020-05-21T17:00:44.525Z</time>
      </trkpt>
      <trkpt lat="44.90489" lon="5.44316">
        <ele>1376</ele>
        <time>2020-05-21T17:00:45.526Z</time>
      </trkpt>
      <trkpt lat="44.90491" lon="5.44315">
        <ele>1376</ele>
        <time>2020-05-21T17:00:46.526Z</time>
      </trkpt>
      <trkpt lat="44.90493" lon="5.44314">
        <ele>1376</ele>
        <time>2020-05-21T17:00:47.526Z</time>
      </trkpt>
      <trkpt lat="44.90496" lon="5.44314">
        <ele>1376</ele>
        <time>2020-05-21T17:00:48.526Z</time>
      </trkpt>
      <trkpt lat="44.90498" lon="5.44314">
        <ele>1377</ele>
        <time>2020-05-21T17:00:49.525Z</time>
      </trkpt>
      <trkpt lat="44.905" lon="5.44313">
        <ele>1377</ele>
        <time>2020-05-21T17:00:50.526Z</time>
      </trkpt>
      <trkpt lat="44.90503" lon="5.44312">
        <ele>1377</ele>
        <time>2020-05-21T17:00:51.526Z</time>
      </trkpt>
      <trkpt lat="44.90505" lon="5.44311">
        <ele>1377</ele>
        <time>2020-05-21T17:00:52.525Z</time>
      </trkpt>
      <trkpt lat="44.90508" lon="5.4431">
        <ele>1377</ele>
        <time>2020-05-21T17:00:53.526Z</time>
      </trkpt>
      <trkpt lat="44.9051" lon="5.4431">
        <ele>1378</ele>
        <time>2020-05-21T17:00:54.526Z</time>
      </trkpt>
      <trkpt lat="44.90512" lon="5.44309">
        <ele>1377</ele>
        <time>2020-05-21T17:00:55.526Z</time>
      </trkpt>
      <trkpt lat="44.90514" lon="5.44308">
        <ele>1377</ele>
        <time>2020-05-21T17:00:56.526Z</time>
      </trkpt>
      <trkpt lat="44.90516" lon="5.44307">
        <ele>1377</ele>
        <time>2020-05-21T17:00:57.525Z</time>
      </trkpt>
      <trkpt lat="44.90519" lon="5.44306">
        <ele>1377</ele>
        <time>2020-05-21T17:00:58.526Z</time>
      </trkpt>
      <trkpt lat="44.90522" lon="5.44306">
        <ele>1377</ele>
        <time>2020-05-21T17:00:59.526Z</time>
      </trkpt>
      <trkpt lat="44.90525" lon="5.44305">
        <ele>1377</ele>
        <time>2020-05-21T17:01:00.526Z</time>
      </trkpt>
      <trkpt lat="44.90527" lon="5.44305">
        <ele>1377</ele>
        <time>2020-05-21T17:01:01.526Z</time>
      </trkpt>
      <trkpt lat="44.90529" lon="5.44304">
        <ele>1377</ele>
        <time>2020-05-21T17:01:02.526Z</time>
      </trkpt>
      <trkpt lat="44.90532" lon="5.44304">
        <ele>1378</ele>
        <time>2020-05-21T17:01:03.526Z</time>
      </trkpt>
      <trkpt lat="44.90534" lon="5.44303">
        <ele>1378</ele>
        <time>2020-05-21T17:01:04.526Z</time>
      </trkpt>
      <trkpt lat="44.90535" lon="5.44303">
        <ele>1378</ele>
        <time>2020-05-21T17:01:05.525Z</time>
      </trkpt>
      <trkpt lat="44.90537" lon="5.44303">
        <ele>1378</ele>
        <time>2020-05-21T17:01:06.526Z</time>
      </trkpt>
      <trkpt lat="44.90539" lon="5.44303">
        <ele>1378</ele>
        <time>2020-05-21T17:01:07.526Z</time>
      </trkpt>
      <trkpt lat="44.9054" lon="5.44302">
        <ele>1378</ele>
        <time>2020-05-21T17:01:08.526Z</time>
      </trkpt>
      <trkpt lat="44.90542" lon="5.44301">
        <ele>1379</ele>
        <time>2020-05-21T17:01:09.526Z</time>
      </trkpt>
      <trkpt lat="44.90544" lon="5.443">
        <ele>1379</ele>
        <time>2020-05-21T17:01:10.525Z</time>
      </trkpt>
      <trkpt lat="44.90546" lon="5.44299">
        <ele>1379</ele>
        <time>2020-05-21T17:01:11.526Z</time>
      </trkpt>
      <trkpt lat="44.90548" lon="5.44297">
        <ele>1379</ele>
        <time>2020-05-21T17:01:12.526Z</time>
      </trkpt>
      <trkpt lat="44.9055" lon="5.44296">
        <ele>1378</ele>
        <time>2020-05-21T17:01:13.526Z</time>
      </trkpt>
      <trkpt lat="44.90551" lon="5.44294">
        <ele>1378</ele>
        <time>2020-05-21T17:01:14.526Z</time>
      </trkpt>
      <trkpt lat="44.90552" lon="5.44292">
        <ele>1378</ele>
        <time>2020-05-21T17:01:15.526Z</time>
      </trkpt>
      <trkpt lat="44.90554" lon="5.44289">
        <ele>1377</ele>
        <time>2020-05-21T17:01:16.526Z</time>
      </trkpt>
      <trkpt lat="44.90556" lon="5.44286">
        <ele>1377</ele>
        <time>2020-05-21T17:01:17.526Z</time>
      </trkpt>
      <trkpt lat="44.90558" lon="5.44284">
        <ele>1376</ele>
        <time>2020-05-21T17:01:18.525Z</time>
      </trkpt>
      <trkpt lat="44.9056" lon="5.44281">
        <ele>1376</ele>
        <time>2020-05-21T17:01:19.526Z</time>
      </trkpt>
      <trkpt lat="44.90562" lon="5.44279">
        <ele>1376</ele>
        <time>2020-05-21T17:01:20.526Z</time>
      </trkpt>
      <trkpt lat="44.90564" lon="5.44277">
        <ele>1375</ele>
        <time>2020-05-21T17:01:21.526Z</time>
      </trkpt>
      <trkpt lat="44.90566" lon="5.44273">
        <ele>1375</ele>
        <time>2020-05-21T17:01:22.525Z</time>
      </trkpt>
      <trkpt lat="44.90567" lon="5.4427">
        <ele>1375</ele>
        <time>2020-05-21T17:01:23.526Z</time>
      </trkpt>
      <trkpt lat="44.90569" lon="5.44266">
        <ele>1375</ele>
        <time>2020-05-21T17:01:24.526Z</time>
      </trkpt>
      <trkpt lat="44.9057" lon="5.44262">
        <ele>1375</ele>
        <time>2020-05-21T17:01:25.526Z</time>
      </trkpt>
      <trkpt lat="44.90571" lon="5.44259">
        <ele>1375</ele>
        <time>2020-05-21T17:01:26.525Z</time>
      </trkpt>
      <trkpt lat="44.90572" lon="5.44256">
        <ele>1374</ele>
        <time>2020-05-21T17:01:27.525Z</time>
      </trkpt>
      <trkpt lat="44.90574" lon="5.44253">
        <ele>1374</ele>
        <time>2020-05-21T17:01:28.526Z</time>
      </trkpt>
      <trkpt lat="44.90575" lon="5.44251">
        <ele>1373</ele>
        <time>2020-05-21T17:01:29.525Z</time>
      </trkpt>
      <trkpt lat="44.90576" lon="5.44248">
        <ele>1373</ele>
        <time>2020-05-21T17:01:30.526Z</time>
      </trkpt>
      <trkpt lat="44.90577" lon="5.44245">
        <ele>1373</ele>
        <time>2020-05-21T17:01:31.526Z</time>
      </trkpt>
      <trkpt lat="44.90579" lon="5.44243">
        <ele>1372</ele>
        <time>2020-05-21T17:01:32.526Z</time>
      </trkpt>
      <trkpt lat="44.90581" lon="5.4424">
        <ele>1372</ele>
        <time>2020-05-21T17:01:33.526Z</time>
      </trkpt>
      <trkpt lat="44.90583" lon="5.44238">
        <ele>1371</ele>
        <time>2020-05-21T17:01:34.526Z</time>
      </trkpt>
      <trkpt lat="44.90587" lon="5.44237">
        <ele>1371</ele>
        <time>2020-05-21T17:01:35.526Z</time>
      </trkpt>
      <trkpt lat="44.90589" lon="5.44236">
        <ele>1369</ele>
        <time>2020-05-21T17:01:36.525Z</time>
      </trkpt>
      <trkpt lat="44.90593" lon="5.44235">
        <ele>1368</ele>
        <time>2020-05-21T17:01:37.526Z</time>
      </trkpt>
      <trkpt lat="44.90596" lon="5.44235">
        <ele>1367</ele>
        <time>2020-05-21T17:01:38.526Z</time>
      </trkpt>
      <trkpt lat="44.90598" lon="5.44237">
        <ele>1366</ele>
        <time>2020-05-21T17:01:39.525Z</time>
      </trkpt>
      <trkpt lat="44.906" lon="5.4424">
        <ele>1365</ele>
        <time>2020-05-21T17:01:40.526Z</time>
      </trkpt>
      <trkpt lat="44.90601" lon="5.44242">
        <ele>1364</ele>
        <time>2020-05-21T17:01:41.526Z</time>
      </trkpt>
      <trkpt lat="44.90602" lon="5.44245">
        <ele>1363</ele>
        <time>2020-05-21T17:01:42.525Z</time>
      </trkpt>
      <trkpt lat="44.90603" lon="5.44249">
        <ele>1362</ele>
        <time>2020-05-21T17:01:43.526Z</time>
      </trkpt>
      <trkpt lat="44.90604" lon="5.44252">
        <ele>1361</ele>
        <time>2020-05-21T17:01:44.526Z</time>
      </trkpt>
      <trkpt lat="44.90605" lon="5.44255">
        <ele>1360</ele>
        <time>2020-05-21T17:01:45.525Z</time>
      </trkpt>
      <trkpt lat="44.90606" lon="5.44259">
        <ele>1360</ele>
        <time>2020-05-21T17:01:46.525Z</time>
      </trkpt>
      <trkpt lat="44.90606" lon="5.44263">
        <ele>1359</ele>
        <time>2020-05-21T17:01:47.525Z</time>
      </trkpt>
      <trkpt lat="44.90608" lon="5.44267">
        <ele>1359</ele>
        <time>2020-05-21T17:01:48.526Z</time>
      </trkpt>
      <trkpt lat="44.90609" lon="5.4427">
        <ele>1359</ele>
        <time>2020-05-21T17:01:49.525Z</time>
      </trkpt>
      <trkpt lat="44.90609" lon="5.44273">
        <ele>1358</ele>
        <time>2020-05-21T17:01:50.525Z</time>
      </trkpt>
      <trkpt lat="44.90609" lon="5.44275">
        <ele>1358</ele>
        <time>2020-05-21T17:01:51.526Z</time>
      </trkpt>
      <trkpt lat="44.90609" lon="5.44277">
        <ele>1358</ele>
        <time>2020-05-21T17:01:52.525Z</time>
      </trkpt>
      <trkpt lat="44.9061" lon="5.4428">
        <ele>1358</ele>
        <time>2020-05-21T17:01:53.525Z</time>
      </trkpt>
      <trkpt lat="44.9061" lon="5.44283">
        <ele>1358</ele>
        <time>2020-05-21T17:01:54.526Z</time>
      </trkpt>
      <trkpt lat="44.90611" lon="5.44285">
        <ele>1358</ele>
        <time>2020-05-21T17:01:55.525Z</time>
      </trkpt>
      <trkpt lat="44.90612" lon="5.44288">
        <ele>1358</ele>
        <time>2020-05-21T17:01:56.525Z</time>
      </trkpt>
      <trkpt lat="44.90614" lon="5.44291">
        <ele>1358</ele>
        <time>2020-05-21T17:01:57.526Z</time>
      </trkpt>
      <trkpt lat="44.90617" lon="5.44295">
        <ele>1359</ele>
        <time>2020-05-21T17:01:58.525Z</time>
      </trkpt>
      <trkpt lat="44.90619" lon="5.443">
        <ele>1359</ele>
        <time>2020-05-21T17:01:59.525Z</time>
      </trkpt>
      <trkpt lat="44.90621" lon="5.44304">
        <ele>1360</ele>
        <time>2020-05-21T17:02:00.525Z</time>
      </trkpt>
      <trkpt lat="44.90623" lon="5.44308">
        <ele>1360</ele>
        <time>2020-05-21T17:02:01.525Z</time>
      </trkpt>
      <trkpt lat="44.90625" lon="5.44311">
        <ele>1361</ele>
        <time>2020-05-21T17:02:02.525Z</time>
      </trkpt>
      <trkpt lat="44.90628" lon="5.44312">
        <ele>1361</ele>
        <time>2020-05-21T17:02:03.525Z</time>
      </trkpt>
      <trkpt lat="44.90629" lon="5.44312">
        <ele>1361</ele>
        <time>2020-05-21T17:02:04.526Z</time>
      </trkpt>
      <trkpt lat="44.90629" lon="5.44312">
        <ele>1362</ele>
        <time>2020-05-21T17:02:05.526Z</time>
      </trkpt>
      <trkpt lat="44.90629" lon="5.44311">
        <ele>1362</ele>
        <time>2020-05-21T17:02:06.525Z</time>
      </trkpt>
      <trkpt lat="44.90636" lon="5.44309">
        <ele>1354</ele>
        <time>2020-05-21T17:02:07.526Z</time>
      </trkpt>
      <trkpt lat="44.90636" lon="5.44309">
        <ele>1354</ele>
        <time>2020-05-21T17:02:08.526Z</time>
      </trkpt>
      <trkpt lat="44.90636" lon="5.44309">
        <ele>1354</ele>
        <time>2020-05-21T17:02:09.526Z</time>
      </trkpt>
      <trkpt lat="44.90637" lon="5.4431">
        <ele>1354</ele>
        <time>2020-05-21T17:02:10.526Z</time>
      </trkpt>
      <trkpt lat="44.90637" lon="5.4431">
        <ele>1354</ele>
        <time>2020-05-21T17:02:11.525Z</time>
      </trkpt>
      <trkpt lat="44.90637" lon="5.4431">
        <ele>1354</ele>
        <time>2020-05-21T17:02:12.526Z</time>
      </trkpt>
      <trkpt lat="44.90639" lon="5.44311">
        <ele>1354</ele>
        <time>2020-05-21T17:02:13.526Z</time>
      </trkpt>
      <trkpt lat="44.90639" lon="5.44312">
        <ele>1354</ele>
        <time>2020-05-21T17:02:14.526Z</time>
      </trkpt>
      <trkpt lat="44.90639" lon="5.44311">
        <ele>1354</ele>
        <time>2020-05-21T17:02:15.526Z</time>
      </trkpt>
      <trkpt lat="44.9064" lon="5.44311">
        <ele>1354</ele>
        <time>2020-05-21T17:02:16.526Z</time>
      </trkpt>
      <trkpt lat="44.9064" lon="5.44311">
        <ele>1355</ele>
        <time>2020-05-21T17:02:17.526Z</time>
      </trkpt>
      <trkpt lat="44.9064" lon="5.44311">
        <ele>1355</ele>
        <time>2020-05-21T17:02:18.526Z</time>
      </trkpt>
      <trkpt lat="44.90641" lon="5.4431">
        <ele>1355</ele>
        <time>2020-05-21T17:02:19.526Z</time>
      </trkpt>
      <trkpt lat="44.90642" lon="5.4431">
        <ele>1355</ele>
        <time>2020-05-21T17:02:20.526Z</time>
      </trkpt>
      <trkpt lat="44.90644" lon="5.4431">
        <ele>1355</ele>
        <time>2020-05-21T17:02:21.526Z</time>
      </trkpt>
      <trkpt lat="44.90646" lon="5.4431">
        <ele>1355</ele>
        <time>2020-05-21T17:02:22.526Z</time>
      </trkpt>
      <trkpt lat="44.90648" lon="5.44309">
        <ele>1355</ele>
        <time>2020-05-21T17:02:23.526Z</time>
      </trkpt>
      <trkpt lat="44.90649" lon="5.44309">
        <ele>1355</ele>
        <time>2020-05-21T17:02:24.526Z</time>
      </trkpt>
      <trkpt lat="44.90651" lon="5.44308">
        <ele>1355</ele>
        <time>2020-05-21T17:02:25.526Z</time>
      </trkpt>
      <trkpt lat="44.90652" lon="5.44308">
        <ele>1355</ele>
        <time>2020-05-21T17:02:26.526Z</time>
      </trkpt>
      <trkpt lat="44.90653" lon="5.44306">
        <ele>1355</ele>
        <time>2020-05-21T17:02:27.526Z</time>
      </trkpt>
      <trkpt lat="44.90654" lon="5.44304">
        <ele>1355</ele>
        <time>2020-05-21T17:02:28.526Z</time>
      </trkpt>
      <trkpt lat="44.90656" lon="5.44302">
        <ele>1355</ele>
        <time>2020-05-21T17:02:29.525Z</time>
      </trkpt>
      <trkpt lat="44.90657" lon="5.44301">
        <ele>1355</ele>
        <time>2020-05-21T17:02:30.526Z</time>
      </trkpt>
      <trkpt lat="44.90658" lon="5.44299">
        <ele>1355</ele>
        <time>2020-05-21T17:02:31.526Z</time>
      </trkpt>
      <trkpt lat="44.90659" lon="5.44298">
        <ele>1354</ele>
        <time>2020-05-21T17:02:32.525Z</time>
      </trkpt>
      <trkpt lat="44.9066" lon="5.44295">
        <ele>1354</ele>
        <time>2020-05-21T17:02:33.526Z</time>
      </trkpt>
      <trkpt lat="44.90661" lon="5.44293">
        <ele>1354</ele>
        <time>2020-05-21T17:02:34.526Z</time>
      </trkpt>
      <trkpt lat="44.90661" lon="5.44291">
        <ele>1353</ele>
        <time>2020-05-21T17:02:35.525Z</time>
      </trkpt>
      <trkpt lat="44.90661" lon="5.44288">
        <ele>1353</ele>
        <time>2020-05-21T17:02:36.526Z</time>
      </trkpt>
      <trkpt lat="44.90662" lon="5.44284">
        <ele>1352</ele>
        <time>2020-05-21T17:02:37.526Z</time>
      </trkpt>
      <trkpt lat="44.90662" lon="5.44281">
        <ele>1352</ele>
        <time>2020-05-21T17:02:38.525Z</time>
      </trkpt>
      <trkpt lat="44.90662" lon="5.44276">
        <ele>1351</ele>
        <time>2020-05-21T17:02:39.526Z</time>
      </trkpt>
      <trkpt lat="44.90662" lon="5.44273">
        <ele>1351</ele>
        <time>2020-05-21T17:02:40.526Z</time>
      </trkpt>
      <trkpt lat="44.90661" lon="5.44271">
        <ele>1350</ele>
        <time>2020-05-21T17:02:41.526Z</time>
      </trkpt>
      <trkpt lat="44.90661" lon="5.4427">
        <ele>1349</ele>
        <time>2020-05-21T17:02:42.526Z</time>
      </trkpt>
      <trkpt lat="44.90661" lon="5.44268">
        <ele>1349</ele>
        <time>2020-05-21T17:02:43.526Z</time>
      </trkpt>
      <trkpt lat="44.9066" lon="5.44266">
        <ele>1349</ele>
        <time>2020-05-21T17:02:44.525Z</time>
      </trkpt>
      <trkpt lat="44.9066" lon="5.44264">
        <ele>1348</ele>
        <time>2020-05-21T17:02:45.526Z</time>
      </trkpt>
      <trkpt lat="44.9066" lon="5.44261">
        <ele>1348</ele>
        <time>2020-05-21T17:02:46.526Z</time>
      </trkpt>
      <trkpt lat="44.9066" lon="5.44258">
        <ele>1347</ele>
        <time>2020-05-21T17:02:47.525Z</time>
      </trkpt>
      <trkpt lat="44.9066" lon="5.44255">
        <ele>1346</ele>
        <time>2020-05-21T17:02:48.526Z</time>
      </trkpt>
      <trkpt lat="44.90659" lon="5.44252">
        <ele>1346</ele>
        <time>2020-05-21T17:02:49.526Z</time>
      </trkpt>
      <trkpt lat="44.90658" lon="5.4425">
        <ele>1345</ele>
        <time>2020-05-21T17:02:50.526Z</time>
      </trkpt>
      <trkpt lat="44.90657" lon="5.44247">
        <ele>1345</ele>
        <time>2020-05-21T17:02:51.525Z</time>
      </trkpt>
      <trkpt lat="44.90657" lon="5.44245">
        <ele>1344</ele>
        <time>2020-05-21T17:02:52.526Z</time>
      </trkpt>
      <trkpt lat="44.90656" lon="5.44243">
        <ele>1344</ele>
        <time>2020-05-21T17:02:53.526Z</time>
      </trkpt>
      <trkpt lat="44.90655" lon="5.44241">
        <ele>1343</ele>
        <time>2020-05-21T17:02:54.526Z</time>
      </trkpt>
      <trkpt lat="44.90655" lon="5.44239">
        <ele>1343</ele>
        <time>2020-05-21T17:02:55.526Z</time>
      </trkpt>
      <trkpt lat="44.90655" lon="5.44237">
        <ele>1342</ele>
        <time>2020-05-21T17:02:56.526Z</time>
      </trkpt>
      <trkpt lat="44.90655" lon="5.44234">
        <ele>1342</ele>
        <time>2020-05-21T17:02:57.526Z</time>
      </trkpt>
      <trkpt lat="44.90655" lon="5.44231">
        <ele>1342</ele>
        <time>2020-05-21T17:02:58.525Z</time>
      </trkpt>
      <trkpt lat="44.90655" lon="5.44229">
        <ele>1341</ele>
        <time>2020-05-21T17:02:59.526Z</time>
      </trkpt>
      <trkpt lat="44.90656" lon="5.44226">
        <ele>1341</ele>
        <time>2020-05-21T17:03:00.526Z</time>
      </trkpt>
      <trkpt lat="44.90656" lon="5.44223">
        <ele>1340</ele>
        <time>2020-05-21T17:03:01.526Z</time>
      </trkpt>
      <trkpt lat="44.90656" lon="5.4422">
        <ele>1340</ele>
        <time>2020-05-21T17:03:02.526Z</time>
      </trkpt>
      <trkpt lat="44.90656" lon="5.44218">
        <ele>1339</ele>
        <time>2020-05-21T17:03:03.526Z</time>
      </trkpt>
      <trkpt lat="44.90656" lon="5.44215">
        <ele>1339</ele>
        <time>2020-05-21T17:03:04.526Z</time>
      </trkpt>
      <trkpt lat="44.90656" lon="5.44212">
        <ele>1338</ele>
        <time>2020-05-21T17:03:05.526Z</time>
      </trkpt>
      <trkpt lat="44.90655" lon="5.44207">
        <ele>1337</ele>
        <time>2020-05-21T17:03:06.525Z</time>
      </trkpt>
      <trkpt lat="44.90655" lon="5.44204">
        <ele>1337</ele>
        <time>2020-05-21T17:03:07.525Z</time>
      </trkpt>
      <trkpt lat="44.90653" lon="5.442">
        <ele>1336</ele>
        <time>2020-05-21T17:03:08.525Z</time>
      </trkpt>
      <trkpt lat="44.90652" lon="5.44197">
        <ele>1335</ele>
        <time>2020-05-21T17:03:09.526Z</time>
      </trkpt>
      <trkpt lat="44.90652" lon="5.44194">
        <ele>1334</ele>
        <time>2020-05-21T17:03:10.526Z</time>
      </trkpt>
      <trkpt lat="44.90651" lon="5.44192">
        <ele>1334</ele>
        <time>2020-05-21T17:03:11.526Z</time>
      </trkpt>
      <trkpt lat="44.90651" lon="5.44189">
        <ele>1333</ele>
        <time>2020-05-21T17:03:12.526Z</time>
      </trkpt>
      <trkpt lat="44.9065" lon="5.44187">
        <ele>1332</ele>
        <time>2020-05-21T17:03:13.526Z</time>
      </trkpt>
      <trkpt lat="44.9065" lon="5.44186">
        <ele>1332</ele>
        <time>2020-05-21T17:03:14.526Z</time>
      </trkpt>
      <trkpt lat="44.9065" lon="5.44185">
        <ele>1331</ele>
        <time>2020-05-21T17:03:15.526Z</time>
      </trkpt>
      <trkpt lat="44.9065" lon="5.44184">
        <ele>1331</ele>
        <time>2020-05-21T17:03:16.526Z</time>
      </trkpt>
      <trkpt lat="44.90648" lon="5.44182">
        <ele>1331</ele>
        <time>2020-05-21T17:03:17.526Z</time>
      </trkpt>
      <trkpt lat="44.90647" lon="5.44181">
        <ele>1330</ele>
        <time>2020-05-21T17:03:18.525Z</time>
      </trkpt>
      <trkpt lat="44.90647" lon="5.44181">
        <ele>1330</ele>
        <time>2020-05-21T17:03:19.526Z</time>
      </trkpt>
      <trkpt lat="44.90646" lon="5.4418">
        <ele>1330</ele>
        <time>2020-05-21T17:03:20.526Z</time>
      </trkpt>
      <trkpt lat="44.90646" lon="5.44178">
        <ele>1329</ele>
        <time>2020-05-21T17:03:21.525Z</time>
      </trkpt>
      <trkpt lat="44.90645" lon="5.44176">
        <ele>1329</ele>
        <time>2020-05-21T17:03:22.526Z</time>
      </trkpt>
      <trkpt lat="44.90643" lon="5.44173">
        <ele>1329</ele>
        <time>2020-05-21T17:03:23.526Z</time>
      </trkpt>
      <trkpt lat="44.90642" lon="5.44171">
        <ele>1329</ele>
        <time>2020-05-21T17:03:24.526Z</time>
      </trkpt>
      <trkpt lat="44.9064" lon="5.44169">
        <ele>1328</ele>
        <time>2020-05-21T17:03:25.525Z</time>
      </trkpt>
      <trkpt lat="44.90638" lon="5.44167">
        <ele>1328</ele>
        <time>2020-05-21T17:03:26.526Z</time>
      </trkpt>
      <trkpt lat="44.90636" lon="5.44166">
        <ele>1328</ele>
        <time>2020-05-21T17:03:27.526Z</time>
      </trkpt>
      <trkpt lat="44.90634" lon="5.44164">
        <ele>1329</ele>
        <time>2020-05-21T17:03:28.525Z</time>
      </trkpt>
      <trkpt lat="44.90633" lon="5.44163">
        <ele>1329</ele>
        <time>2020-05-21T17:03:29.526Z</time>
      </trkpt>
      <trkpt lat="44.90633" lon="5.44161">
        <ele>1329</ele>
        <time>2020-05-21T17:03:30.526Z</time>
      </trkpt>
      <trkpt lat="44.90635" lon="5.4416">
        <ele>1329</ele>
        <time>2020-05-21T17:03:31.526Z</time>
      </trkpt>
      <trkpt lat="44.90636" lon="5.44158">
        <ele>1329</ele>
        <time>2020-05-21T17:03:32.526Z</time>
      </trkpt>
      <trkpt lat="44.90638" lon="5.44156">
        <ele>1328</ele>
        <time>2020-05-21T17:03:33.526Z</time>
      </trkpt>
      <trkpt lat="44.90641" lon="5.44156">
        <ele>1328</ele>
        <time>2020-05-21T17:03:34.525Z</time>
      </trkpt>
      <trkpt lat="44.90642" lon="5.44155">
        <ele>1328</ele>
        <time>2020-05-21T17:03:35.526Z</time>
      </trkpt>
      <trkpt lat="44.90644" lon="5.44154">
        <ele>1328</ele>
        <time>2020-05-21T17:03:36.526Z</time>
      </trkpt>
      <trkpt lat="44.90646" lon="5.44154">
        <ele>1328</ele>
        <time>2020-05-21T17:03:37.526Z</time>
      </trkpt>
      <trkpt lat="44.90647" lon="5.44155">
        <ele>1328</ele>
        <time>2020-05-21T17:03:38.525Z</time>
      </trkpt>
      <trkpt lat="44.90648" lon="5.44157">
        <ele>1328</ele>
        <time>2020-05-21T17:03:39.526Z</time>
      </trkpt>
      <trkpt lat="44.90649" lon="5.44159">
        <ele>1329</ele>
        <time>2020-05-21T17:03:40.526Z</time>
      </trkpt>
      <trkpt lat="44.9065" lon="5.44162">
        <ele>1329</ele>
        <time>2020-05-21T17:03:41.526Z</time>
      </trkpt>
      <trkpt lat="44.9065" lon="5.44165">
        <ele>1330</ele>
        <time>2020-05-21T17:03:42.525Z</time>
      </trkpt>
      <trkpt lat="44.90651" lon="5.44167">
        <ele>1330</ele>
        <time>2020-05-21T17:03:43.526Z</time>
      </trkpt>
      <trkpt lat="44.90652" lon="5.44169">
        <ele>1330</ele>
        <time>2020-05-21T17:03:44.526Z</time>
      </trkpt>
      <trkpt lat="44.90653" lon="5.44172">
        <ele>1330</ele>
        <time>2020-05-21T17:03:45.526Z</time>
      </trkpt>
      <trkpt lat="44.90653" lon="5.44174">
        <ele>1330</ele>
        <time>2020-05-21T17:03:46.526Z</time>
      </trkpt>
      <trkpt lat="44.90653" lon="5.44176">
        <ele>1330</ele>
        <time>2020-05-21T17:03:47.525Z</time>
      </trkpt>
      <trkpt lat="44.90654" lon="5.44178">
        <ele>1330</ele>
        <time>2020-05-21T17:03:48.526Z</time>
      </trkpt>
      <trkpt lat="44.90654" lon="5.44178">
        <ele>1330</ele>
        <time>2020-05-21T17:03:49.526Z</time>
      </trkpt>
      <trkpt lat="44.90655" lon="5.44179">
        <ele>1330</ele>
        <time>2020-05-21T17:03:50.526Z</time>
      </trkpt>
      <trkpt lat="44.90657" lon="5.4418">
        <ele>1330</ele>
        <time>2020-05-21T17:03:51.526Z</time>
      </trkpt>
      <trkpt lat="44.90657" lon="5.44182">
        <ele>1330</ele>
        <time>2020-05-21T17:03:52.526Z</time>
      </trkpt>
      <trkpt lat="44.90658" lon="5.44184">
        <ele>1330</ele>
        <time>2020-05-21T17:03:53.526Z</time>
      </trkpt>
      <trkpt lat="44.90659" lon="5.44186">
        <ele>1330</ele>
        <time>2020-05-21T17:03:54.526Z</time>
      </trkpt>
      <trkpt lat="44.90659" lon="5.44188">
        <ele>1330</ele>
        <time>2020-05-21T17:03:55.526Z</time>
      </trkpt>
      <trkpt lat="44.9066" lon="5.4419">
        <ele>1330</ele>
        <time>2020-05-21T17:03:56.526Z</time>
      </trkpt>
      <trkpt lat="44.90661" lon="5.44192">
        <ele>1330</ele>
        <time>2020-05-21T17:03:57.526Z</time>
      </trkpt>
      <trkpt lat="44.90661" lon="5.44195">
        <ele>1330</ele>
        <time>2020-05-21T17:03:58.526Z</time>
      </trkpt>
      <trkpt lat="44.90661" lon="5.44198">
        <ele>1329</ele>
        <time>2020-05-21T17:03:59.526Z</time>
      </trkpt>
      <trkpt lat="44.90661" lon="5.442">
        <ele>1329</ele>
        <time>2020-05-21T17:04:00.525Z</time>
      </trkpt>
      <trkpt lat="44.90662" lon="5.44202">
        <ele>1328</ele>
        <time>2020-05-21T17:04:01.526Z</time>
      </trkpt>
      <trkpt lat="44.90664" lon="5.44204">
        <ele>1328</ele>
        <time>2020-05-21T17:04:02.526Z</time>
      </trkpt>
      <trkpt lat="44.90666" lon="5.44204">
        <ele>1327</ele>
        <time>2020-05-21T17:04:03.526Z</time>
      </trkpt>
      <trkpt lat="44.90669" lon="5.44204">
        <ele>1327</ele>
        <time>2020-05-21T17:04:04.526Z</time>
      </trkpt>
      <trkpt lat="44.90671" lon="5.44203">
        <ele>1327</ele>
        <time>2020-05-21T17:04:05.526Z</time>
      </trkpt>
      <trkpt lat="44.90673" lon="5.44202">
        <ele>1326</ele>
        <time>2020-05-21T17:04:06.526Z</time>
      </trkpt>
      <trkpt lat="44.90674" lon="5.44201">
        <ele>1326</ele>
        <time>2020-05-21T17:04:07.526Z</time>
      </trkpt>
      <trkpt lat="44.90676" lon="5.442">
        <ele>1325</ele>
        <time>2020-05-21T17:04:08.526Z</time>
      </trkpt>
      <trkpt lat="44.90677" lon="5.44199">
        <ele>1325</ele>
        <time>2020-05-21T17:04:09.525Z</time>
      </trkpt>
      <trkpt lat="44.90679" lon="5.44197">
        <ele>1325</ele>
        <time>2020-05-21T17:04:10.525Z</time>
      </trkpt>
      <trkpt lat="44.9068" lon="5.44196">
        <ele>1325</ele>
        <time>2020-05-21T17:04:11.526Z</time>
      </trkpt>
      <trkpt lat="44.90682" lon="5.44195">
        <ele>1325</ele>
        <time>2020-05-21T17:04:12.526Z</time>
      </trkpt>
      <trkpt lat="44.90684" lon="5.44194">
        <ele>1325</ele>
        <time>2020-05-21T17:04:13.525Z</time>
      </trkpt>
      <trkpt lat="44.90686" lon="5.44193">
        <ele>1325</ele>
        <time>2020-05-21T17:04:14.526Z</time>
      </trkpt>
      <trkpt lat="44.90687" lon="5.44192">
        <ele>1326</ele>
        <time>2020-05-21T17:04:15.525Z</time>
      </trkpt>
      <trkpt lat="44.90688" lon="5.44191">
        <ele>1326</ele>
        <time>2020-05-21T17:04:16.526Z</time>
      </trkpt>
      <trkpt lat="44.90688" lon="5.44191">
        <ele>1327</ele>
        <time>2020-05-21T17:04:17.526Z</time>
      </trkpt>
      <trkpt lat="44.90687" lon="5.44191">
        <ele>1327</ele>
        <time>2020-05-21T17:04:18.526Z</time>
      </trkpt>
      <trkpt lat="44.90686" lon="5.44191">
        <ele>1328</ele>
        <time>2020-05-21T17:04:19.526Z</time>
      </trkpt>
      <trkpt lat="44.90684" lon="5.44191">
        <ele>1328</ele>
        <time>2020-05-21T17:04:20.526Z</time>
      </trkpt>
      <trkpt lat="44.90683" lon="5.44191">
        <ele>1329</ele>
        <time>2020-05-21T17:04:21.526Z</time>
      </trkpt>
      <trkpt lat="44.90682" lon="5.44192">
        <ele>1329</ele>
        <time>2020-05-21T17:04:22.525Z</time>
      </trkpt>
      <trkpt lat="44.9068" lon="5.44192">
        <ele>1329</ele>
        <time>2020-05-21T17:04:23.525Z</time>
      </trkpt>
      <trkpt lat="44.90679" lon="5.44192">
        <ele>1329</ele>
        <time>2020-05-21T17:04:24.526Z</time>
      </trkpt>
      <trkpt lat="44.90677" lon="5.44192">
        <ele>1329</ele>
        <time>2020-05-21T17:04:25.525Z</time>
      </trkpt>
      <trkpt lat="44.90676" lon="5.44192">
        <ele>1329</ele>
        <time>2020-05-21T17:04:26.526Z</time>
      </trkpt>
      <trkpt lat="44.90675" lon="5.44192">
        <ele>1329</ele>
        <time>2020-05-21T17:04:27.526Z</time>
      </trkpt>
      <trkpt lat="44.90674" lon="5.4419">
        <ele>1329</ele>
        <time>2020-05-21T17:04:28.525Z</time>
      </trkpt>
      <trkpt lat="44.90674" lon="5.44189">
        <ele>1329</ele>
        <time>2020-05-21T17:04:29.526Z</time>
      </trkpt>
      <trkpt lat="44.90673" lon="5.44187">
        <ele>1328</ele>
        <time>2020-05-21T17:04:30.526Z</time>
      </trkpt>
      <trkpt lat="44.90673" lon="5.44186">
        <ele>1328</ele>
        <time>2020-05-21T17:04:31.525Z</time>
      </trkpt>
      <trkpt lat="44.90672" lon="5.44184">
        <ele>1328</ele>
        <time>2020-05-21T17:04:32.526Z</time>
      </trkpt>
      <trkpt lat="44.90672" lon="5.44183">
        <ele>1327</ele>
        <time>2020-05-21T17:04:33.526Z</time>
      </trkpt>
      <trkpt lat="44.90672" lon="5.44182">
        <ele>1327</ele>
        <time>2020-05-21T17:04:34.526Z</time>
      </trkpt>
      <trkpt lat="44.90672" lon="5.44181">
        <ele>1327</ele>
        <time>2020-05-21T17:04:35.526Z</time>
      </trkpt>
      <trkpt lat="44.90671" lon="5.44179">
        <ele>1327</ele>
        <time>2020-05-21T17:04:36.526Z</time>
      </trkpt>
      <trkpt lat="44.90671" lon="5.44178">
        <ele>1327</ele>
        <time>2020-05-21T17:04:37.526Z</time>
      </trkpt>
      <trkpt lat="44.90671" lon="5.44176">
        <ele>1327</ele>
        <time>2020-05-21T17:04:38.525Z</time>
      </trkpt>
      <trkpt lat="44.90671" lon="5.44174">
        <ele>1326</ele>
        <time>2020-05-21T17:04:39.526Z</time>
      </trkpt>
      <trkpt lat="44.9067" lon="5.44172">
        <ele>1326</ele>
        <time>2020-05-21T17:04:40.526Z</time>
      </trkpt>
      <trkpt lat="44.90669" lon="5.44171">
        <ele>1326</ele>
        <time>2020-05-21T17:04:41.525Z</time>
      </trkpt>
      <trkpt lat="44.90669" lon="5.44169">
        <ele>1325</ele>
        <time>2020-05-21T17:04:42.526Z</time>
      </trkpt>
      <trkpt lat="44.90669" lon="5.44166">
        <ele>1325</ele>
        <time>2020-05-21T17:04:43.525Z</time>
      </trkpt>
      <trkpt lat="44.90669" lon="5.44164">
        <ele>1324</ele>
        <time>2020-05-21T17:04:44.526Z</time>
      </trkpt>
      <trkpt lat="44.90669" lon="5.44163">
        <ele>1324</ele>
        <time>2020-05-21T17:04:45.526Z</time>
      </trkpt>
      <trkpt lat="44.90669" lon="5.4416">
        <ele>1323</ele>
        <time>2020-05-21T17:04:46.525Z</time>
      </trkpt>
      <trkpt lat="44.90669" lon="5.44157">
        <ele>1322</ele>
        <time>2020-05-21T17:04:47.525Z</time>
      </trkpt>
      <trkpt lat="44.9067" lon="5.44154">
        <ele>1321</ele>
        <time>2020-05-21T17:04:48.526Z</time>
      </trkpt>
      <trkpt lat="44.90671" lon="5.44151">
        <ele>1320</ele>
        <time>2020-05-21T17:04:49.526Z</time>
      </trkpt>
      <trkpt lat="44.90672" lon="5.44149">
        <ele>1319</ele>
        <time>2020-05-21T17:04:50.526Z</time>
      </trkpt>
      <trkpt lat="44.90673" lon="5.44146">
        <ele>1319</ele>
        <time>2020-05-21T17:04:51.526Z</time>
      </trkpt>
      <trkpt lat="44.90674" lon="5.44143">
        <ele>1318</ele>
        <time>2020-05-21T17:04:52.525Z</time>
      </trkpt>
      <trkpt lat="44.90674" lon="5.44141">
        <ele>1317</ele>
        <time>2020-05-21T17:04:53.526Z</time>
      </trkpt>
      <trkpt lat="44.90675" lon="5.44139">
        <ele>1316</ele>
        <time>2020-05-21T17:04:54.526Z</time>
      </trkpt>
      <trkpt lat="44.90675" lon="5.44138">
        <ele>1316</ele>
        <time>2020-05-21T17:04:55.526Z</time>
      </trkpt>
      <trkpt lat="44.90675" lon="5.44136">
        <ele>1315</ele>
        <time>2020-05-21T17:04:56.526Z</time>
      </trkpt>
      <trkpt lat="44.90676" lon="5.44134">
        <ele>1314</ele>
        <time>2020-05-21T17:04:57.526Z</time>
      </trkpt>
      <trkpt lat="44.90676" lon="5.44131">
        <ele>1314</ele>
        <time>2020-05-21T17:04:58.526Z</time>
      </trkpt>
      <trkpt lat="44.90676" lon="5.44127">
        <ele>1313</ele>
        <time>2020-05-21T17:04:59.526Z</time>
      </trkpt>
      <trkpt lat="44.90677" lon="5.44125">
        <ele>1312</ele>
        <time>2020-05-21T17:05:00.526Z</time>
      </trkpt>
      <trkpt lat="44.90677" lon="5.44125">
        <ele>1312</ele>
        <time>2020-05-21T17:05:01.525Z</time>
      </trkpt>
      <trkpt lat="44.90678" lon="5.44126">
        <ele>1311</ele>
        <time>2020-05-21T17:05:02.526Z</time>
      </trkpt>
      <trkpt lat="44.90678" lon="5.44128">
        <ele>1310</ele>
        <time>2020-05-21T17:05:03.525Z</time>
      </trkpt>
      <trkpt lat="44.90678" lon="5.44131">
        <ele>1310</ele>
        <time>2020-05-21T17:05:04.526Z</time>
      </trkpt>
      <trkpt lat="44.90678" lon="5.44133">
        <ele>1310</ele>
        <time>2020-05-21T17:05:05.526Z</time>
      </trkpt>
      <trkpt lat="44.90678" lon="5.44135">
        <ele>1309</ele>
        <time>2020-05-21T17:05:06.526Z</time>
      </trkpt>
      <trkpt lat="44.90678" lon="5.44137">
        <ele>1309</ele>
        <time>2020-05-21T17:05:07.526Z</time>
      </trkpt>
      <trkpt lat="44.90678" lon="5.44139">
        <ele>1309</ele>
        <time>2020-05-21T17:05:08.526Z</time>
      </trkpt>
      <trkpt lat="44.90677" lon="5.44141">
        <ele>1309</ele>
        <time>2020-05-21T17:05:09.526Z</time>
      </trkpt>
      <trkpt lat="44.90677" lon="5.44144">
        <ele>1309</ele>
        <time>2020-05-21T17:05:10.525Z</time>
      </trkpt>
      <trkpt lat="44.90676" lon="5.44146">
        <ele>1309</ele>
        <time>2020-05-21T17:05:11.525Z</time>
      </trkpt>
      <trkpt lat="44.90675" lon="5.44148">
        <ele>1309</ele>
        <time>2020-05-21T17:05:12.525Z</time>
      </trkpt>
      <trkpt lat="44.90675" lon="5.44149">
        <ele>1309</ele>
        <time>2020-05-21T17:05:13.525Z</time>
      </trkpt>
      <trkpt lat="44.90674" lon="5.4415">
        <ele>1309</ele>
        <time>2020-05-21T17:05:14.526Z</time>
      </trkpt>
      <trkpt lat="44.90674" lon="5.44152">
        <ele>1308</ele>
        <time>2020-05-21T17:05:15.526Z</time>
      </trkpt>
      <trkpt lat="44.90675" lon="5.44155">
        <ele>1308</ele>
        <time>2020-05-21T17:05:16.525Z</time>
      </trkpt>
      <trkpt lat="44.90676" lon="5.44156">
        <ele>1308</ele>
        <time>2020-05-21T17:05:17.526Z</time>
      </trkpt>
      <trkpt lat="44.90678" lon="5.44158">
        <ele>1308</ele>
        <time>2020-05-21T17:05:18.526Z</time>
      </trkpt>
      <trkpt lat="44.9068" lon="5.44159">
        <ele>1308</ele>
        <time>2020-05-21T17:05:19.525Z</time>
      </trkpt>
      <trkpt lat="44.90682" lon="5.44159">
        <ele>1308</ele>
        <time>2020-05-21T17:05:20.525Z</time>
      </trkpt>
      <trkpt lat="44.90685" lon="5.44158">
        <ele>1307</ele>
        <time>2020-05-21T17:05:21.526Z</time>
      </trkpt>
      <trkpt lat="44.90687" lon="5.44158">
        <ele>1307</ele>
        <time>2020-05-21T17:05:22.525Z</time>
      </trkpt>
      <trkpt lat="44.9069" lon="5.44156">
        <ele>1307</ele>
        <time>2020-05-21T17:05:23.526Z</time>
      </trkpt>
      <trkpt lat="44.90691" lon="5.44155">
        <ele>1307</ele>
        <time>2020-05-21T17:05:24.525Z</time>
      </trkpt>
      <trkpt lat="44.90694" lon="5.44155">
        <ele>1307</ele>
        <time>2020-05-21T17:05:25.526Z</time>
      </trkpt>
      <trkpt lat="44.90695" lon="5.44155">
        <ele>1306</ele>
        <time>2020-05-21T17:05:26.525Z</time>
      </trkpt>
      <trkpt lat="44.90698" lon="5.44155">
        <ele>1306</ele>
        <time>2020-05-21T17:05:27.525Z</time>
      </trkpt>
      <trkpt lat="44.907" lon="5.44154">
        <ele>1306</ele>
        <time>2020-05-21T17:05:28.526Z</time>
      </trkpt>
      <trkpt lat="44.90701" lon="5.44154">
        <ele>1305</ele>
        <time>2020-05-21T17:05:29.526Z</time>
      </trkpt>
      <trkpt lat="44.90701" lon="5.44153">
        <ele>1305</ele>
        <time>2020-05-21T17:05:30.525Z</time>
      </trkpt>
      <trkpt lat="44.907" lon="5.44153">
        <ele>1305</ele>
        <time>2020-05-21T17:05:31.525Z</time>
      </trkpt>
      <trkpt lat="44.90699" lon="5.44153">
        <ele>1305</ele>
        <time>2020-05-21T17:05:32.526Z</time>
      </trkpt>
      <trkpt lat="44.90698" lon="5.44153">
        <ele>1305</ele>
        <time>2020-05-21T17:05:33.526Z</time>
      </trkpt>
      <trkpt lat="44.90696" lon="5.44152">
        <ele>1305</ele>
        <time>2020-05-21T17:05:34.526Z</time>
      </trkpt>
      <trkpt lat="44.90695" lon="5.44152">
        <ele>1305</ele>
        <time>2020-05-21T17:05:35.526Z</time>
      </trkpt>
      <trkpt lat="44.90693" lon="5.44151">
        <ele>1305</ele>
        <time>2020-05-21T17:05:36.526Z</time>
      </trkpt>
      <trkpt lat="44.90691" lon="5.44149">
        <ele>1305</ele>
        <time>2020-05-21T17:05:37.526Z</time>
      </trkpt>
      <trkpt lat="44.90689" lon="5.44147">
        <ele>1305</ele>
        <time>2020-05-21T17:05:38.526Z</time>
      </trkpt>
      <trkpt lat="44.90688" lon="5.44144">
        <ele>1306</ele>
        <time>2020-05-21T17:05:39.525Z</time>
      </trkpt>
      <trkpt lat="44.90687" lon="5.4414">
        <ele>1306</ele>
        <time>2020-05-21T17:05:40.526Z</time>
      </trkpt>
      <trkpt lat="44.90687" lon="5.44137">
        <ele>1306</ele>
        <time>2020-05-21T17:05:41.526Z</time>
      </trkpt>
      <trkpt lat="44.90687" lon="5.44132">
        <ele>1305</ele>
        <time>2020-05-21T17:05:42.525Z</time>
      </trkpt>
      <trkpt lat="44.90688" lon="5.44128">
        <ele>1305</ele>
        <time>2020-05-21T17:05:43.526Z</time>
      </trkpt>
      <trkpt lat="44.90689" lon="5.44123">
        <ele>1305</ele>
        <time>2020-05-21T17:05:44.526Z</time>
      </trkpt>
      <trkpt lat="44.9069" lon="5.44119">
        <ele>1304</ele>
        <time>2020-05-21T17:05:45.526Z</time>
      </trkpt>
      <trkpt lat="44.90691" lon="5.44115">
        <ele>1303</ele>
        <time>2020-05-21T17:05:46.526Z</time>
      </trkpt>
      <trkpt lat="44.90692" lon="5.44112">
        <ele>1303</ele>
        <time>2020-05-21T17:05:47.526Z</time>
      </trkpt>
      <trkpt lat="44.90693" lon="5.44109">
        <ele>1302</ele>
        <time>2020-05-21T17:05:48.526Z</time>
      </trkpt>
      <trkpt lat="44.90694" lon="5.44107">
        <ele>1301</ele>
        <time>2020-05-21T17:05:49.526Z</time>
      </trkpt>
      <trkpt lat="44.90695" lon="5.44105">
        <ele>1301</ele>
        <time>2020-05-21T17:05:50.525Z</time>
      </trkpt>
      <trkpt lat="44.90695" lon="5.44102">
        <ele>1300</ele>
        <time>2020-05-21T17:05:51.526Z</time>
      </trkpt>
      <trkpt lat="44.90696" lon="5.441">
        <ele>1300</ele>
        <time>2020-05-21T17:05:52.525Z</time>
      </trkpt>
      <trkpt lat="44.90697" lon="5.44099">
        <ele>1299</ele>
        <time>2020-05-21T17:05:53.525Z</time>
      </trkpt>
      <trkpt lat="44.90699" lon="5.441">
        <ele>1298</ele>
        <time>2020-05-21T17:05:54.526Z</time>
      </trkpt>
      <trkpt lat="44.907" lon="5.44099">
        <ele>1298</ele>
        <time>2020-05-21T17:05:55.526Z</time>
      </trkpt>
      <trkpt lat="44.907" lon="5.44099">
        <ele>1297</ele>
        <time>2020-05-21T17:05:56.525Z</time>
      </trkpt>
      <trkpt lat="44.90701" lon="5.44098">
        <ele>1296</ele>
        <time>2020-05-21T17:05:57.526Z</time>
      </trkpt>
      <trkpt lat="44.90702" lon="5.44098">
        <ele>1296</ele>
        <time>2020-05-21T17:05:58.526Z</time>
      </trkpt>
      <trkpt lat="44.90702" lon="5.44098">
        <ele>1295</ele>
        <time>2020-05-21T17:05:59.525Z</time>
      </trkpt>
      <trkpt lat="44.90702" lon="5.44098">
        <ele>1295</ele>
        <time>2020-05-21T17:06:00.525Z</time>
      </trkpt>
      <trkpt lat="44.90703" lon="5.44099">
        <ele>1294</ele>
        <time>2020-05-21T17:06:01.525Z</time>
      </trkpt>
      <trkpt lat="44.90703" lon="5.44099">
        <ele>1294</ele>
        <time>2020-05-21T17:06:02.525Z</time>
      </trkpt>
      <trkpt lat="44.90703" lon="5.441">
        <ele>1294</ele>
        <time>2020-05-21T17:06:03.526Z</time>
      </trkpt>
      <trkpt lat="44.90703" lon="5.44102">
        <ele>1293</ele>
        <time>2020-05-21T17:06:04.526Z</time>
      </trkpt>
      <trkpt lat="44.90703" lon="5.44104">
        <ele>1293</ele>
        <time>2020-05-21T17:06:05.526Z</time>
      </trkpt>
      <trkpt lat="44.90703" lon="5.44105">
        <ele>1293</ele>
        <time>2020-05-21T17:06:06.526Z</time>
      </trkpt>
      <trkpt lat="44.90704" lon="5.44107">
        <ele>1293</ele>
        <time>2020-05-21T17:06:07.526Z</time>
      </trkpt>
      <trkpt lat="44.90704" lon="5.4411">
        <ele>1293</ele>
        <time>2020-05-21T17:06:08.525Z</time>
      </trkpt>
      <trkpt lat="44.90704" lon="5.44112">
        <ele>1293</ele>
        <time>2020-05-21T17:06:09.526Z</time>
      </trkpt>
      <trkpt lat="44.90705" lon="5.44116">
        <ele>1293</ele>
        <time>2020-05-21T17:06:10.525Z</time>
      </trkpt>
      <trkpt lat="44.90706" lon="5.44119">
        <ele>1293</ele>
        <time>2020-05-21T17:06:11.525Z</time>
      </trkpt>
      <trkpt lat="44.90707" lon="5.44122">
        <ele>1293</ele>
        <time>2020-05-21T17:06:12.525Z</time>
      </trkpt>
      <trkpt lat="44.90707" lon="5.44124">
        <ele>1294</ele>
        <time>2020-05-21T17:06:13.525Z</time>
      </trkpt>
      <trkpt lat="44.90707" lon="5.44127">
        <ele>1294</ele>
        <time>2020-05-21T17:06:14.526Z</time>
      </trkpt>
      <trkpt lat="44.90707" lon="5.44129">
        <ele>1294</ele>
        <time>2020-05-21T17:06:15.525Z</time>
      </trkpt>
      <trkpt lat="44.90707" lon="5.4413">
        <ele>1294</ele>
        <time>2020-05-21T17:06:16.526Z</time>
      </trkpt>
      <trkpt lat="44.90708" lon="5.44131">
        <ele>1295</ele>
        <time>2020-05-21T17:06:17.526Z</time>
      </trkpt>
      <trkpt lat="44.90709" lon="5.44132">
        <ele>1295</ele>
        <time>2020-05-21T17:06:18.526Z</time>
      </trkpt>
      <trkpt lat="44.90709" lon="5.44131">
        <ele>1295</ele>
        <time>2020-05-21T17:06:19.526Z</time>
      </trkpt>
      <trkpt lat="44.90711" lon="5.44131">
        <ele>1295</ele>
        <time>2020-05-21T17:06:20.525Z</time>
      </trkpt>
      <trkpt lat="44.90713" lon="5.44131">
        <ele>1296</ele>
        <time>2020-05-21T17:06:21.526Z</time>
      </trkpt>
      <trkpt lat="44.90715" lon="5.44132">
        <ele>1296</ele>
        <time>2020-05-21T17:06:22.526Z</time>
      </trkpt>
      <trkpt lat="44.90717" lon="5.44131">
        <ele>1296</ele>
        <time>2020-05-21T17:06:23.526Z</time>
      </trkpt>
      <trkpt lat="44.9072" lon="5.4413">
        <ele>1296</ele>
        <time>2020-05-21T17:06:24.526Z</time>
      </trkpt>
      <trkpt lat="44.90722" lon="5.4413">
        <ele>1296</ele>
        <time>2020-05-21T17:06:25.526Z</time>
      </trkpt>
      <trkpt lat="44.90723" lon="5.4413">
        <ele>1296</ele>
        <time>2020-05-21T17:06:26.525Z</time>
      </trkpt>
      <trkpt lat="44.90724" lon="5.4413">
        <ele>1296</ele>
        <time>2020-05-21T17:06:27.526Z</time>
      </trkpt>
      <trkpt lat="44.90725" lon="5.44129">
        <ele>1296</ele>
        <time>2020-05-21T17:06:28.525Z</time>
      </trkpt>
      <trkpt lat="44.90725" lon="5.44128">
        <ele>1295</ele>
        <time>2020-05-21T17:06:29.526Z</time>
      </trkpt>
      <trkpt lat="44.90726" lon="5.44127">
        <ele>1295</ele>
        <time>2020-05-21T17:06:30.526Z</time>
      </trkpt>
      <trkpt lat="44.90726" lon="5.44127">
        <ele>1295</ele>
        <time>2020-05-21T17:06:31.525Z</time>
      </trkpt>
      <trkpt lat="44.90725" lon="5.44126">
        <ele>1296</ele>
        <time>2020-05-21T17:06:32.525Z</time>
      </trkpt>
      <trkpt lat="44.90725" lon="5.44125">
        <ele>1296</ele>
        <time>2020-05-21T17:06:33.526Z</time>
      </trkpt>
      <trkpt lat="44.90724" lon="5.44125">
        <ele>1296</ele>
        <time>2020-05-21T17:06:34.526Z</time>
      </trkpt>
      <trkpt lat="44.90723" lon="5.44124">
        <ele>1296</ele>
        <time>2020-05-21T17:06:35.526Z</time>
      </trkpt>
      <trkpt lat="44.90723" lon="5.44124">
        <ele>1296</ele>
        <time>2020-05-21T17:06:36.526Z</time>
      </trkpt>
      <trkpt lat="44.90723" lon="5.44123">
        <ele>1296</ele>
        <time>2020-05-21T17:06:37.526Z</time>
      </trkpt>
      <trkpt lat="44.90723" lon="5.44123">
        <ele>1296</ele>
        <time>2020-05-21T17:06:38.525Z</time>
      </trkpt>
      <trkpt lat="44.90724" lon="5.44123">
        <ele>1297</ele>
        <time>2020-05-21T17:06:39.526Z</time>
      </trkpt>
      <trkpt lat="44.90724" lon="5.44123">
        <ele>1297</ele>
        <time>2020-05-21T17:06:40.525Z</time>
      </trkpt>
      <trkpt lat="44.90723" lon="5.44123">
        <ele>1297</ele>
        <time>2020-05-21T17:06:41.525Z</time>
      </trkpt>
      <trkpt lat="44.90722" lon="5.44123">
        <ele>1297</ele>
        <time>2020-05-21T17:06:42.526Z</time>
      </trkpt>
      <trkpt lat="44.9072" lon="5.44123">
        <ele>1296</ele>
        <time>2020-05-21T17:06:43.526Z</time>
      </trkpt>
      <trkpt lat="44.90719" lon="5.44123">
        <ele>1296</ele>
        <time>2020-05-21T17:06:44.526Z</time>
      </trkpt>
      <trkpt lat="44.90718" lon="5.44122">
        <ele>1296</ele>
        <time>2020-05-21T17:06:45.526Z</time>
      </trkpt>
      <trkpt lat="44.90717" lon="5.44121">
        <ele>1295</ele>
        <time>2020-05-21T17:06:46.526Z</time>
      </trkpt>
      <trkpt lat="44.90716" lon="5.4412">
        <ele>1295</ele>
        <time>2020-05-21T17:06:47.526Z</time>
      </trkpt>
      <trkpt lat="44.90714" lon="5.4412">
        <ele>1295</ele>
        <time>2020-05-21T17:06:48.526Z</time>
      </trkpt>
      <trkpt lat="44.90713" lon="5.44119">
        <ele>1295</ele>
        <time>2020-05-21T17:06:49.526Z</time>
      </trkpt>
      <trkpt lat="44.90712" lon="5.44117">
        <ele>1295</ele>
        <time>2020-05-21T17:06:50.526Z</time>
      </trkpt>
      <trkpt lat="44.90711" lon="5.44115">
        <ele>1294</ele>
        <time>2020-05-21T17:06:51.526Z</time>
      </trkpt>
      <trkpt lat="44.9071" lon="5.44112">
        <ele>1294</ele>
        <time>2020-05-21T17:06:52.525Z</time>
      </trkpt>
      <trkpt lat="44.9071" lon="5.4411">
        <ele>1293</ele>
        <time>2020-05-21T17:06:53.526Z</time>
      </trkpt>
      <trkpt lat="44.90709" lon="5.44107">
        <ele>1293</ele>
        <time>2020-05-21T17:06:54.526Z</time>
      </trkpt>
      <trkpt lat="44.90709" lon="5.44103">
        <ele>1292</ele>
        <time>2020-05-21T17:06:55.525Z</time>
      </trkpt>
      <trkpt lat="44.90709" lon="5.44098">
        <ele>1292</ele>
        <time>2020-05-21T17:06:56.526Z</time>
      </trkpt>
      <trkpt lat="44.90709" lon="5.44093">
        <ele>1291</ele>
        <time>2020-05-21T17:06:57.526Z</time>
      </trkpt>
      <trkpt lat="44.90709" lon="5.44089">
        <ele>1290</ele>
        <time>2020-05-21T17:06:58.526Z</time>
      </trkpt>
      <trkpt lat="44.9071" lon="5.44084">
        <ele>1290</ele>
        <time>2020-05-21T17:06:59.526Z</time>
      </trkpt>
      <trkpt lat="44.90711" lon="5.44081">
        <ele>1289</ele>
        <time>2020-05-21T17:07:00.526Z</time>
      </trkpt>
      <trkpt lat="44.90712" lon="5.44078">
        <ele>1288</ele>
        <time>2020-05-21T17:07:01.526Z</time>
      </trkpt>
      <trkpt lat="44.90712" lon="5.44076">
        <ele>1287</ele>
        <time>2020-05-21T17:07:02.526Z</time>
      </trkpt>
      <trkpt lat="44.90713" lon="5.44073">
        <ele>1287</ele>
        <time>2020-05-21T17:07:03.526Z</time>
      </trkpt>
      <trkpt lat="44.90713" lon="5.44071">
        <ele>1286</ele>
        <time>2020-05-21T17:07:04.525Z</time>
      </trkpt>
      <trkpt lat="44.90714" lon="5.44071">
        <ele>1285</ele>
        <time>2020-05-21T17:07:05.526Z</time>
      </trkpt>
      <trkpt lat="44.90714" lon="5.44071">
        <ele>1284</ele>
        <time>2020-05-21T17:07:06.526Z</time>
      </trkpt>
      <trkpt lat="44.90716" lon="5.44071">
        <ele>1283</ele>
        <time>2020-05-21T17:07:07.525Z</time>
      </trkpt>
      <trkpt lat="44.90716" lon="5.44072">
        <ele>1283</ele>
        <time>2020-05-21T17:07:08.526Z</time>
      </trkpt>
      <trkpt lat="44.90715" lon="5.44073">
        <ele>1282</ele>
        <time>2020-05-21T17:07:09.525Z</time>
      </trkpt>
      <trkpt lat="44.90715" lon="5.44075">
        <ele>1282</ele>
        <time>2020-05-21T17:07:10.525Z</time>
      </trkpt>
      <trkpt lat="44.90715" lon="5.44076">
        <ele>1282</ele>
        <time>2020-05-21T17:07:11.525Z</time>
      </trkpt>
      <trkpt lat="44.90715" lon="5.44078">
        <ele>1282</ele>
        <time>2020-05-21T17:07:12.526Z</time>
      </trkpt>
      <trkpt lat="44.90715" lon="5.4408">
        <ele>1282</ele>
        <time>2020-05-21T17:07:13.526Z</time>
      </trkpt>
      <trkpt lat="44.90715" lon="5.44082">
        <ele>1283</ele>
        <time>2020-05-21T17:07:14.525Z</time>
      </trkpt>
      <trkpt lat="44.90715" lon="5.44083">
        <ele>1283</ele>
        <time>2020-05-21T17:07:15.525Z</time>
      </trkpt>
      <trkpt lat="44.90715" lon="5.44084">
        <ele>1282</ele>
        <time>2020-05-21T17:07:16.526Z</time>
      </trkpt>
      <trkpt lat="44.90715" lon="5.44085">
        <ele>1282</ele>
        <time>2020-05-21T17:07:17.525Z</time>
      </trkpt>
      <trkpt lat="44.90715" lon="5.44086">
        <ele>1282</ele>
        <time>2020-05-21T17:07:18.526Z</time>
      </trkpt>
      <trkpt lat="44.90715" lon="5.44088">
        <ele>1281</ele>
        <time>2020-05-21T17:07:19.526Z</time>
      </trkpt>
      <trkpt lat="44.90716" lon="5.4409">
        <ele>1281</ele>
        <time>2020-05-21T17:07:20.525Z</time>
      </trkpt>
      <trkpt lat="44.90716" lon="5.44093">
        <ele>1281</ele>
        <time>2020-05-21T17:07:21.525Z</time>
      </trkpt>
      <trkpt lat="44.90716" lon="5.44095">
        <ele>1281</ele>
        <time>2020-05-21T17:07:22.526Z</time>
      </trkpt>
      <trkpt lat="44.90717" lon="5.44098">
        <ele>1281</ele>
        <time>2020-05-21T17:07:23.526Z</time>
      </trkpt>
      <trkpt lat="44.90717" lon="5.441">
        <ele>1281</ele>
        <time>2020-05-21T17:07:24.525Z</time>
      </trkpt>
      <trkpt lat="44.90718" lon="5.44101">
        <ele>1281</ele>
        <time>2020-05-21T17:07:25.525Z</time>
      </trkpt>
      <trkpt lat="44.90719" lon="5.44102">
        <ele>1281</ele>
        <time>2020-05-21T17:07:26.526Z</time>
      </trkpt>
      <trkpt lat="44.90721" lon="5.44103">
        <ele>1281</ele>
        <time>2020-05-21T17:07:27.526Z</time>
      </trkpt>
      <trkpt lat="44.90723" lon="5.44104">
        <ele>1282</ele>
        <time>2020-05-21T17:07:28.526Z</time>
      </trkpt>
      <trkpt lat="44.90725" lon="5.44104">
        <ele>1281</ele>
        <time>2020-05-21T17:07:29.526Z</time>
      </trkpt>
      <trkpt lat="44.90727" lon="5.44103">
        <ele>1281</ele>
        <time>2020-05-21T17:07:30.526Z</time>
      </trkpt>
      <trkpt lat="44.90728" lon="5.44102">
        <ele>1280</ele>
        <time>2020-05-21T17:07:31.526Z</time>
      </trkpt>
      <trkpt lat="44.9073" lon="5.44101">
        <ele>1280</ele>
        <time>2020-05-21T17:07:32.525Z</time>
      </trkpt>
      <trkpt lat="44.90732" lon="5.441">
        <ele>1279</ele>
        <time>2020-05-21T17:07:33.526Z</time>
      </trkpt>
      <trkpt lat="44.90734" lon="5.44098">
        <ele>1279</ele>
        <time>2020-05-21T17:07:34.526Z</time>
      </trkpt>
      <trkpt lat="44.90737" lon="5.44097">
        <ele>1278</ele>
        <time>2020-05-21T17:07:35.526Z</time>
      </trkpt>
      <trkpt lat="44.90739" lon="5.44096">
        <ele>1277</ele>
        <time>2020-05-21T17:07:36.526Z</time>
      </trkpt>
      <trkpt lat="44.90742" lon="5.44096">
        <ele>1277</ele>
        <time>2020-05-21T17:07:37.525Z</time>
      </trkpt>
      <trkpt lat="44.90743" lon="5.44096">
        <ele>1276</ele>
        <time>2020-05-21T17:07:38.526Z</time>
      </trkpt>
      <trkpt lat="44.90744" lon="5.44096">
        <ele>1276</ele>
        <time>2020-05-21T17:07:39.526Z</time>
      </trkpt>
      <trkpt lat="44.90746" lon="5.44096">
        <ele>1275</ele>
        <time>2020-05-21T17:07:40.526Z</time>
      </trkpt>
      <trkpt lat="44.90748" lon="5.44096">
        <ele>1275</ele>
        <time>2020-05-21T17:07:41.525Z</time>
      </trkpt>
      <trkpt lat="44.90748" lon="5.44097">
        <ele>1275</ele>
        <time>2020-05-21T17:07:42.525Z</time>
      </trkpt>
      <trkpt lat="44.90749" lon="5.44099">
        <ele>1274</ele>
        <time>2020-05-21T17:07:43.526Z</time>
      </trkpt>
      <trkpt lat="44.9075" lon="5.44101">
        <ele>1274</ele>
        <time>2020-05-21T17:07:44.525Z</time>
      </trkpt>
      <trkpt lat="44.9075" lon="5.44103">
        <ele>1274</ele>
        <time>2020-05-21T17:07:45.526Z</time>
      </trkpt>
      <trkpt lat="44.90751" lon="5.44106">
        <ele>1274</ele>
        <time>2020-05-21T17:07:46.526Z</time>
      </trkpt>
      <trkpt lat="44.90753" lon="5.44107">
        <ele>1274</ele>
        <time>2020-05-21T17:07:47.526Z</time>
      </trkpt>
      <trkpt lat="44.90756" lon="5.44108">
        <ele>1274</ele>
        <time>2020-05-21T17:07:48.525Z</time>
      </trkpt>
      <trkpt lat="44.90759" lon="5.4411">
        <ele>1273</ele>
        <time>2020-05-21T17:07:49.525Z</time>
      </trkpt>
      <trkpt lat="44.90761" lon="5.44112">
        <ele>1273</ele>
        <time>2020-05-21T17:07:50.525Z</time>
      </trkpt>
      <trkpt lat="44.90764" lon="5.44112">
        <ele>1273</ele>
        <time>2020-05-21T17:07:51.525Z</time>
      </trkpt>
      <trkpt lat="44.90766" lon="5.44115">
        <ele>1274</ele>
        <time>2020-05-21T17:07:52.526Z</time>
      </trkpt>
      <trkpt lat="44.90767" lon="5.44117">
        <ele>1274</ele>
        <time>2020-05-21T17:07:53.526Z</time>
      </trkpt>
      <trkpt lat="44.90769" lon="5.4412">
        <ele>1274</ele>
        <time>2020-05-21T17:07:54.525Z</time>
      </trkpt>
      <trkpt lat="44.9077" lon="5.44122">
        <ele>1274</ele>
        <time>2020-05-21T17:07:55.526Z</time>
      </trkpt>
      <trkpt lat="44.90773" lon="5.44123">
        <ele>1273</ele>
        <time>2020-05-21T17:07:56.525Z</time>
      </trkpt>
      <trkpt lat="44.90775" lon="5.44123">
        <ele>1273</ele>
        <time>2020-05-21T17:07:57.526Z</time>
      </trkpt>
      <trkpt lat="44.90777" lon="5.44123">
        <ele>1273</ele>
        <time>2020-05-21T17:07:58.526Z</time>
      </trkpt>
      <trkpt lat="44.90778" lon="5.44122">
        <ele>1273</ele>
        <time>2020-05-21T17:07:59.525Z</time>
      </trkpt>
      <trkpt lat="44.9078" lon="5.44121">
        <ele>1272</ele>
        <time>2020-05-21T17:08:00.526Z</time>
      </trkpt>
      <trkpt lat="44.90782" lon="5.4412">
        <ele>1272</ele>
        <time>2020-05-21T17:08:01.525Z</time>
      </trkpt>
      <trkpt lat="44.90783" lon="5.44119">
        <ele>1271</ele>
        <time>2020-05-21T17:08:02.526Z</time>
      </trkpt>
      <trkpt lat="44.90786" lon="5.44118">
        <ele>1271</ele>
        <time>2020-05-21T17:08:03.526Z</time>
      </trkpt>
      <trkpt lat="44.90787" lon="5.44118">
        <ele>1271</ele>
        <time>2020-05-21T17:08:04.525Z</time>
      </trkpt>
      <trkpt lat="44.90788" lon="5.44119">
        <ele>1271</ele>
        <time>2020-05-21T17:08:05.525Z</time>
      </trkpt>
      <trkpt lat="44.90788" lon="5.44119">
        <ele>1270</ele>
        <time>2020-05-21T17:08:06.525Z</time>
      </trkpt>
      <trkpt lat="44.90787" lon="5.4412">
        <ele>1270</ele>
        <time>2020-05-21T17:08:07.526Z</time>
      </trkpt>
      <trkpt lat="44.90786" lon="5.44119">
        <ele>1269</ele>
        <time>2020-05-21T17:08:08.526Z</time>
      </trkpt>
      <trkpt lat="44.90784" lon="5.44118">
        <ele>1269</ele>
        <time>2020-05-21T17:08:09.525Z</time>
      </trkpt>
      <trkpt lat="44.90783" lon="5.44117">
        <ele>1268</ele>
        <time>2020-05-21T17:08:10.525Z</time>
      </trkpt>
      <trkpt lat="44.90782" lon="5.44115">
        <ele>1267</ele>
        <time>2020-05-21T17:08:11.526Z</time>
      </trkpt>
      <trkpt lat="44.90781" lon="5.44113">
        <ele>1267</ele>
        <time>2020-05-21T17:08:12.525Z</time>
      </trkpt>
      <trkpt lat="44.90781" lon="5.4411">
        <ele>1266</ele>
        <time>2020-05-21T17:08:13.526Z</time>
      </trkpt>
      <trkpt lat="44.9078" lon="5.44107">
        <ele>1265</ele>
        <time>2020-05-21T17:08:14.526Z</time>
      </trkpt>
      <trkpt lat="44.9078" lon="5.44105">
        <ele>1264</ele>
        <time>2020-05-21T17:08:15.525Z</time>
      </trkpt>
      <trkpt lat="44.9078" lon="5.44103">
        <ele>1263</ele>
        <time>2020-05-21T17:08:16.525Z</time>
      </trkpt>
      <trkpt lat="44.90779" lon="5.44101">
        <ele>1263</ele>
        <time>2020-05-21T17:08:17.525Z</time>
      </trkpt>
      <trkpt lat="44.90778" lon="5.44099">
        <ele>1262</ele>
        <time>2020-05-21T17:08:18.526Z</time>
      </trkpt>
      <trkpt lat="44.90777" lon="5.44098">
        <ele>1261</ele>
        <time>2020-05-21T17:08:19.526Z</time>
      </trkpt>
      <trkpt lat="44.90775" lon="5.44095">
        <ele>1261</ele>
        <time>2020-05-21T17:08:20.526Z</time>
      </trkpt>
      <trkpt lat="44.90773" lon="5.44092">
        <ele>1260</ele>
        <time>2020-05-21T17:08:21.526Z</time>
      </trkpt>
      <trkpt lat="44.9077" lon="5.44089">
        <ele>1260</ele>
        <time>2020-05-21T17:08:22.526Z</time>
      </trkpt>
      <trkpt lat="44.90769" lon="5.44087">
        <ele>1259</ele>
        <time>2020-05-21T17:08:23.525Z</time>
      </trkpt>
      <trkpt lat="44.90767" lon="5.44084">
        <ele>1258</ele>
        <time>2020-05-21T17:08:24.526Z</time>
      </trkpt>
      <trkpt lat="44.90765" lon="5.44082">
        <ele>1258</ele>
        <time>2020-05-21T17:08:25.526Z</time>
      </trkpt>
      <trkpt lat="44.90765" lon="5.4408">
        <ele>1257</ele>
        <time>2020-05-21T17:08:26.526Z</time>
      </trkpt>
      <trkpt lat="44.90766" lon="5.44079">
        <ele>1256</ele>
        <time>2020-05-21T17:08:27.526Z</time>
      </trkpt>
      <trkpt lat="44.90767" lon="5.4408">
        <ele>1255</ele>
        <time>2020-05-21T17:08:28.525Z</time>
      </trkpt>
      <trkpt lat="44.90769" lon="5.44081">
        <ele>1255</ele>
        <time>2020-05-21T17:08:29.526Z</time>
      </trkpt>
      <trkpt lat="44.90771" lon="5.44082">
        <ele>1254</ele>
        <time>2020-05-21T17:08:30.526Z</time>
      </trkpt>
      <trkpt lat="44.90774" lon="5.44083">
        <ele>1253</ele>
        <time>2020-05-21T17:08:31.526Z</time>
      </trkpt>
      <trkpt lat="44.90777" lon="5.44085">
        <ele>1253</ele>
        <time>2020-05-21T17:08:32.525Z</time>
      </trkpt>
      <trkpt lat="44.9078" lon="5.44086">
        <ele>1252</ele>
        <time>2020-05-21T17:08:33.526Z</time>
      </trkpt>
      <trkpt lat="44.90783" lon="5.44087">
        <ele>1251</ele>
        <time>2020-05-21T17:08:34.526Z</time>
      </trkpt>
      <trkpt lat="44.90786" lon="5.44088">
        <ele>1251</ele>
        <time>2020-05-21T17:08:35.526Z</time>
      </trkpt>
      <trkpt lat="44.90789" lon="5.44088">
        <ele>1250</ele>
        <time>2020-05-21T17:08:36.526Z</time>
      </trkpt>
      <trkpt lat="44.90791" lon="5.44088">
        <ele>1250</ele>
        <time>2020-05-21T17:08:37.526Z</time>
      </trkpt>
      <trkpt lat="44.90794" lon="5.44089">
        <ele>1249</ele>
        <time>2020-05-21T17:08:38.526Z</time>
      </trkpt>
      <trkpt lat="44.90797" lon="5.4409">
        <ele>1249</ele>
        <time>2020-05-21T17:08:39.525Z</time>
      </trkpt>
      <trkpt lat="44.90801" lon="5.4409">
        <ele>1249</ele>
        <time>2020-05-21T17:08:40.526Z</time>
      </trkpt>
      <trkpt lat="44.90804" lon="5.4409">
        <ele>1249</ele>
        <time>2020-05-21T17:08:41.526Z</time>
      </trkpt>
      <trkpt lat="44.90806" lon="5.4409">
        <ele>1248</ele>
        <time>2020-05-21T17:08:42.526Z</time>
      </trkpt>
      <trkpt lat="44.90808" lon="5.44083">
        <ele>1245</ele>
        <time>2020-05-21T17:08:43.527Z</time>
      </trkpt>
      <trkpt lat="44.90808" lon="5.44083">
        <ele>1246</ele>
        <time>2020-05-21T17:08:44.526Z</time>
      </trkpt>
      <trkpt lat="44.90808" lon="5.44084">
        <ele>1246</ele>
        <time>2020-05-21T17:08:45.527Z</time>
      </trkpt>
      <trkpt lat="44.90807" lon="5.44084">
        <ele>1245</ele>
        <time>2020-05-21T17:08:46.527Z</time>
      </trkpt>
      <trkpt lat="44.90807" lon="5.44084">
        <ele>1245</ele>
        <time>2020-05-21T17:08:47.527Z</time>
      </trkpt>
      <trkpt lat="44.90806" lon="5.44085">
        <ele>1245</ele>
        <time>2020-05-21T17:08:48.526Z</time>
      </trkpt>
      <trkpt lat="44.90805" lon="5.44085">
        <ele>1245</ele>
        <time>2020-05-21T17:08:49.527Z</time>
      </trkpt>
      <trkpt lat="44.90803" lon="5.44085">
        <ele>1245</ele>
        <time>2020-05-21T17:08:50.527Z</time>
      </trkpt>
      <trkpt lat="44.90802" lon="5.44084">
        <ele>1245</ele>
        <time>2020-05-21T17:08:51.527Z</time>
      </trkpt>
      <trkpt lat="44.90801" lon="5.44084">
        <ele>1245</ele>
        <time>2020-05-21T17:08:52.527Z</time>
      </trkpt>
      <trkpt lat="44.90799" lon="5.44084">
        <ele>1245</ele>
        <time>2020-05-21T17:08:53.527Z</time>
      </trkpt>
      <trkpt lat="44.90798" lon="5.44084">
        <ele>1246</ele>
        <time>2020-05-21T17:08:54.527Z</time>
      </trkpt>
      <trkpt lat="44.90797" lon="5.44084">
        <ele>1246</ele>
        <time>2020-05-21T17:08:55.527Z</time>
      </trkpt>
      <trkpt lat="44.90796" lon="5.44085">
        <ele>1246</ele>
        <time>2020-05-21T17:08:56.527Z</time>
      </trkpt>
      <trkpt lat="44.90795" lon="5.44084">
        <ele>1246</ele>
        <time>2020-05-21T17:08:57.527Z</time>
      </trkpt>
      <trkpt lat="44.90795" lon="5.44084">
        <ele>1245</ele>
        <time>2020-05-21T17:08:58.526Z</time>
      </trkpt>
      <trkpt lat="44.90795" lon="5.44084">
        <ele>1245</ele>
        <time>2020-05-21T17:08:59.526Z</time>
      </trkpt>
      <trkpt lat="44.90795" lon="5.44084">
        <ele>1245</ele>
        <time>2020-05-21T17:09:00.526Z</time>
      </trkpt>
      <trkpt lat="44.90795" lon="5.44084">
        <ele>1244</ele>
        <time>2020-05-21T17:09:01.526Z</time>
      </trkpt>
      <trkpt lat="44.90795" lon="5.44084">
        <ele>1244</ele>
        <time>2020-05-21T17:09:02.527Z</time>
      </trkpt>
      <trkpt lat="44.90795" lon="5.44084">
        <ele>1243</ele>
        <time>2020-05-21T17:09:03.527Z</time>
      </trkpt>
      <trkpt lat="44.90795" lon="5.44084">
        <ele>1243</ele>
        <time>2020-05-21T17:09:04.526Z</time>
      </trkpt>
      <trkpt lat="44.90795" lon="5.44084">
        <ele>1243</ele>
        <time>2020-05-21T17:09:05.526Z</time>
      </trkpt>
      <trkpt lat="44.90795" lon="5.44084">
        <ele>1242</ele>
        <time>2020-05-21T17:09:06.527Z</time>
      </trkpt>
      <trkpt lat="44.90795" lon="5.44084">
        <ele>1242</ele>
        <time>2020-05-21T17:09:07.527Z</time>
      </trkpt>
      <trkpt lat="44.90795" lon="5.44083">
        <ele>1241</ele>
        <time>2020-05-21T17:09:08.527Z</time>
      </trkpt>
      <trkpt lat="44.90796" lon="5.44083">
        <ele>1241</ele>
        <time>2020-05-21T17:09:09.526Z</time>
      </trkpt>
      <trkpt lat="44.90796" lon="5.44082">
        <ele>1242</ele>
        <time>2020-05-21T17:09:10.527Z</time>
      </trkpt>
      <trkpt lat="44.90797" lon="5.44082">
        <ele>1242</ele>
        <time>2020-05-21T17:09:11.527Z</time>
      </trkpt>
      <trkpt lat="44.90798" lon="5.44082">
        <ele>1242</ele>
        <time>2020-05-21T17:09:12.526Z</time>
      </trkpt>
      <trkpt lat="44.908" lon="5.44082">
        <ele>1243</ele>
        <time>2020-05-21T17:09:13.527Z</time>
      </trkpt>
      <trkpt lat="44.90802" lon="5.44082">
        <ele>1243</ele>
        <time>2020-05-21T17:09:14.526Z</time>
      </trkpt>
      <trkpt lat="44.90804" lon="5.44082">
        <ele>1244</ele>
        <time>2020-05-21T17:09:15.526Z</time>
      </trkpt>
      <trkpt lat="44.90806" lon="5.44081">
        <ele>1244</ele>
        <time>2020-05-21T17:09:16.527Z</time>
      </trkpt>
      <trkpt lat="44.90808" lon="5.44081">
        <ele>1245</ele>
        <time>2020-05-21T17:09:17.527Z</time>
      </trkpt>
      <trkpt lat="44.9081" lon="5.4408">
        <ele>1245</ele>
        <time>2020-05-21T17:09:18.527Z</time>
      </trkpt>
      <trkpt lat="44.90812" lon="5.44079">
        <ele>1245</ele>
        <time>2020-05-21T17:09:19.527Z</time>
      </trkpt>
      <trkpt lat="44.90812" lon="5.44079">
        <ele>1245</ele>
        <time>2020-05-21T17:09:20.527Z</time>
      </trkpt>
      <trkpt lat="44.90812" lon="5.44079">
        <ele>1246</ele>
        <time>2020-05-21T17:09:21.526Z</time>
      </trkpt>
      <trkpt lat="44.9081" lon="5.44078">
        <ele>1246</ele>
        <time>2020-05-21T17:09:22.527Z</time>
      </trkpt>
      <trkpt lat="44.90809" lon="5.44076">
        <ele>1246</ele>
        <time>2020-05-21T17:09:23.527Z</time>
      </trkpt>
      <trkpt lat="44.90807" lon="5.44074">
        <ele>1246</ele>
        <time>2020-05-21T17:09:24.527Z</time>
      </trkpt>
      <trkpt lat="44.90805" lon="5.44071">
        <ele>1246</ele>
        <time>2020-05-21T17:09:25.527Z</time>
      </trkpt>
      <trkpt lat="44.90804" lon="5.44068">
        <ele>1246</ele>
        <time>2020-05-21T17:09:26.526Z</time>
      </trkpt>
      <trkpt lat="44.90804" lon="5.44065">
        <ele>1246</ele>
        <time>2020-05-21T17:09:27.527Z</time>
      </trkpt>
      <trkpt lat="44.90803" lon="5.44062">
        <ele>1246</ele>
        <time>2020-05-21T17:09:28.527Z</time>
      </trkpt>
      <trkpt lat="44.90803" lon="5.44059">
        <ele>1245</ele>
        <time>2020-05-21T17:09:29.527Z</time>
      </trkpt>
      <trkpt lat="44.90802" lon="5.44056">
        <ele>1244</ele>
        <time>2020-05-21T17:09:30.527Z</time>
      </trkpt>
      <trkpt lat="44.90802" lon="5.44052">
        <ele>1244</ele>
        <time>2020-05-21T17:09:31.527Z</time>
      </trkpt>
      <trkpt lat="44.90802" lon="5.44048">
        <ele>1243</ele>
        <time>2020-05-21T17:09:32.526Z</time>
      </trkpt>
      <trkpt lat="44.90801" lon="5.44045">
        <ele>1243</ele>
        <time>2020-05-21T17:09:33.527Z</time>
      </trkpt>
      <trkpt lat="44.90801" lon="5.44042">
        <ele>1243</ele>
        <time>2020-05-21T17:09:34.527Z</time>
      </trkpt>
      <trkpt lat="44.908" lon="5.44039">
        <ele>1243</ele>
        <time>2020-05-21T17:09:35.527Z</time>
      </trkpt>
      <trkpt lat="44.90799" lon="5.44037">
        <ele>1242</ele>
        <time>2020-05-21T17:09:36.526Z</time>
      </trkpt>
      <trkpt lat="44.90799" lon="5.44035">
        <ele>1242</ele>
        <time>2020-05-21T17:09:37.526Z</time>
      </trkpt>
      <trkpt lat="44.90798" lon="5.44033">
        <ele>1242</ele>
        <time>2020-05-21T17:09:38.527Z</time>
      </trkpt>
      <trkpt lat="44.90798" lon="5.44031">
        <ele>1241</ele>
        <time>2020-05-21T17:09:39.527Z</time>
      </trkpt>
      <trkpt lat="44.90799" lon="5.44029">
        <ele>1240</ele>
        <time>2020-05-21T17:09:40.526Z</time>
      </trkpt>
      <trkpt lat="44.90801" lon="5.44027">
        <ele>1239</ele>
        <time>2020-05-21T17:09:41.526Z</time>
      </trkpt>
      <trkpt lat="44.90803" lon="5.44024">
        <ele>1238</ele>
        <time>2020-05-21T17:09:42.526Z</time>
      </trkpt>
      <trkpt lat="44.90804" lon="5.44022">
        <ele>1238</ele>
        <time>2020-05-21T17:09:43.526Z</time>
      </trkpt>
      <trkpt lat="44.90807" lon="5.44019">
        <ele>1237</ele>
        <time>2020-05-21T17:09:44.526Z</time>
      </trkpt>
      <trkpt lat="44.90809" lon="5.44016">
        <ele>1236</ele>
        <time>2020-05-21T17:09:45.526Z</time>
      </trkpt>
      <trkpt lat="44.90812" lon="5.44016">
        <ele>1235</ele>
        <time>2020-05-21T17:09:46.526Z</time>
      </trkpt>
      <trkpt lat="44.90815" lon="5.44016">
        <ele>1234</ele>
        <time>2020-05-21T17:09:47.526Z</time>
      </trkpt>
      <trkpt lat="44.90817" lon="5.44017">
        <ele>1233</ele>
        <time>2020-05-21T17:09:48.527Z</time>
      </trkpt>
      <trkpt lat="44.90818" lon="5.4402">
        <ele>1232</ele>
        <time>2020-05-21T17:09:49.527Z</time>
      </trkpt>
      <trkpt lat="44.9082" lon="5.44022">
        <ele>1232</ele>
        <time>2020-05-21T17:09:50.526Z</time>
      </trkpt>
      <trkpt lat="44.90821" lon="5.44024">
        <ele>1231</ele>
        <time>2020-05-21T17:09:51.527Z</time>
      </trkpt>
      <trkpt lat="44.90821" lon="5.44027">
        <ele>1230</ele>
        <time>2020-05-21T17:09:52.527Z</time>
      </trkpt>
      <trkpt lat="44.90822" lon="5.44029">
        <ele>1230</ele>
        <time>2020-05-21T17:09:53.527Z</time>
      </trkpt>
      <trkpt lat="44.90823" lon="5.44032">
        <ele>1229</ele>
        <time>2020-05-21T17:09:54.527Z</time>
      </trkpt>
      <trkpt lat="44.90824" lon="5.44035">
        <ele>1229</ele>
        <time>2020-05-21T17:09:55.527Z</time>
      </trkpt>
      <trkpt lat="44.90824" lon="5.44039">
        <ele>1228</ele>
        <time>2020-05-21T17:09:56.526Z</time>
      </trkpt>
      <trkpt lat="44.90824" lon="5.44042">
        <ele>1228</ele>
        <time>2020-05-21T17:09:57.527Z</time>
      </trkpt>
      <trkpt lat="44.90824" lon="5.44044">
        <ele>1228</ele>
        <time>2020-05-21T17:09:58.526Z</time>
      </trkpt>
      <trkpt lat="44.90824" lon="5.44046">
        <ele>1228</ele>
        <time>2020-05-21T17:09:59.526Z</time>
      </trkpt>
      <trkpt lat="44.90824" lon="5.44045">
        <ele>1228</ele>
        <time>2020-05-21T17:10:00.526Z</time>
      </trkpt>
      <trkpt lat="44.90824" lon="5.44043">
        <ele>1228</ele>
        <time>2020-05-21T17:10:01.526Z</time>
      </trkpt>
      <trkpt lat="44.90825" lon="5.44041">
        <ele>1227</ele>
        <time>2020-05-21T17:10:02.526Z</time>
      </trkpt>
      <trkpt lat="44.90826" lon="5.44038">
        <ele>1227</ele>
        <time>2020-05-21T17:10:03.526Z</time>
      </trkpt>
      <trkpt lat="44.90826" lon="5.44036">
        <ele>1227</ele>
        <time>2020-05-21T17:10:04.527Z</time>
      </trkpt>
      <trkpt lat="44.90826" lon="5.44034">
        <ele>1226</ele>
        <time>2020-05-21T17:10:05.526Z</time>
      </trkpt>
      <trkpt lat="44.90827" lon="5.44033">
        <ele>1226</ele>
        <time>2020-05-21T17:10:06.526Z</time>
      </trkpt>
      <trkpt lat="44.90828" lon="5.44032">
        <ele>1226</ele>
        <time>2020-05-21T17:10:07.526Z</time>
      </trkpt>
      <trkpt lat="44.90828" lon="5.44033">
        <ele>1225</ele>
        <time>2020-05-21T17:10:08.526Z</time>
      </trkpt>
      <trkpt lat="44.90829" lon="5.44035">
        <ele>1225</ele>
        <time>2020-05-21T17:10:09.526Z</time>
      </trkpt>
      <trkpt lat="44.90829" lon="5.44037">
        <ele>1225</ele>
        <time>2020-05-21T17:10:10.526Z</time>
      </trkpt>
      <trkpt lat="44.90839" lon="5.4405">
        <ele>1213</ele>
        <time>2020-05-21T17:10:11.527Z</time>
      </trkpt>
      <trkpt lat="44.90839" lon="5.4405">
        <ele>1213</ele>
        <time>2020-05-21T17:10:12.528Z</time>
      </trkpt>
      <trkpt lat="44.90839" lon="5.4405">
        <ele>1213</ele>
        <time>2020-05-21T17:10:13.528Z</time>
      </trkpt>
      <trkpt lat="44.90839" lon="5.4405">
        <ele>1213</ele>
        <time>2020-05-21T17:10:14.528Z</time>
      </trkpt>
      <trkpt lat="44.90839" lon="5.4405">
        <ele>1213</ele>
        <time>2020-05-21T17:10:15.528Z</time>
      </trkpt>
      <trkpt lat="44.90839" lon="5.4405">
        <ele>1213</ele>
        <time>2020-05-21T17:10:16.528Z</time>
      </trkpt>
      <trkpt lat="44.90839" lon="5.44051">
        <ele>1213</ele>
        <time>2020-05-21T17:10:17.528Z</time>
      </trkpt>
      <trkpt lat="44.90838" lon="5.44051">
        <ele>1213</ele>
        <time>2020-05-21T17:10:18.528Z</time>
      </trkpt>
      <trkpt lat="44.90838" lon="5.44055">
        <ele>1213</ele>
        <time>2020-05-21T17:10:19.527Z</time>
      </trkpt>
      <trkpt lat="44.90838" lon="5.44059">
        <ele>1213</ele>
        <time>2020-05-21T17:10:20.528Z</time>
      </trkpt>
      <trkpt lat="44.90839" lon="5.44062">
        <ele>1213</ele>
        <time>2020-05-21T17:10:21.528Z</time>
      </trkpt>
      <trkpt lat="44.9084" lon="5.44064">
        <ele>1213</ele>
        <time>2020-05-21T17:10:22.527Z</time>
      </trkpt>
      <trkpt lat="44.90841" lon="5.44068">
        <ele>1213</ele>
        <time>2020-05-21T17:10:23.528Z</time>
      </trkpt>
      <trkpt lat="44.90842" lon="5.4407">
        <ele>1212</ele>
        <time>2020-05-21T17:10:24.528Z</time>
      </trkpt>
      <trkpt lat="44.90843" lon="5.44073">
        <ele>1212</ele>
        <time>2020-05-21T17:10:25.528Z</time>
      </trkpt>
      <trkpt lat="44.90844" lon="5.44076">
        <ele>1212</ele>
        <time>2020-05-21T17:10:26.527Z</time>
      </trkpt>
      <trkpt lat="44.90843" lon="5.44077">
        <ele>1213</ele>
        <time>2020-05-21T17:10:27.528Z</time>
      </trkpt>
      <trkpt lat="44.90844" lon="5.44077">
        <ele>1213</ele>
        <time>2020-05-21T17:10:28.528Z</time>
      </trkpt>
      <trkpt lat="44.90844" lon="5.44076">
        <ele>1214</ele>
        <time>2020-05-21T17:10:29.528Z</time>
      </trkpt>
      <trkpt lat="44.90844" lon="5.44076">
        <ele>1214</ele>
        <time>2020-05-21T17:10:30.527Z</time>
      </trkpt>
      <trkpt lat="44.90845" lon="5.44077">
        <ele>1215</ele>
        <time>2020-05-21T17:10:31.528Z</time>
      </trkpt>
      <trkpt lat="44.90845" lon="5.44077">
        <ele>1215</ele>
        <time>2020-05-21T17:10:32.527Z</time>
      </trkpt>
      <trkpt lat="44.90846" lon="5.44078">
        <ele>1216</ele>
        <time>2020-05-21T17:10:33.528Z</time>
      </trkpt>
      <trkpt lat="44.90847" lon="5.44079">
        <ele>1216</ele>
        <time>2020-05-21T17:10:34.528Z</time>
      </trkpt>
      <trkpt lat="44.90847" lon="5.4408">
        <ele>1216</ele>
        <time>2020-05-21T17:10:35.527Z</time>
      </trkpt>
      <trkpt lat="44.90848" lon="5.44081">
        <ele>1216</ele>
        <time>2020-05-21T17:10:36.528Z</time>
      </trkpt>
      <trkpt lat="44.90849" lon="5.44083">
        <ele>1216</ele>
        <time>2020-05-21T17:10:37.528Z</time>
      </trkpt>
      <trkpt lat="44.9085" lon="5.44084">
        <ele>1216</ele>
        <time>2020-05-21T17:10:38.528Z</time>
      </trkpt>
      <trkpt lat="44.90852" lon="5.44086">
        <ele>1217</ele>
        <time>2020-05-21T17:10:39.528Z</time>
      </trkpt>
      <trkpt lat="44.90853" lon="5.44087">
        <ele>1217</ele>
        <time>2020-05-21T17:10:40.528Z</time>
      </trkpt>
      <trkpt lat="44.90855" lon="5.44085">
        <ele>1212</ele>
        <time>2020-05-21T17:10:41.529Z</time>
      </trkpt>
      <trkpt lat="44.90855" lon="5.44085">
        <ele>1212</ele>
        <time>2020-05-21T17:10:42.529Z</time>
      </trkpt>
      <trkpt lat="44.90856" lon="5.44086">
        <ele>1212</ele>
        <time>2020-05-21T17:10:43.528Z</time>
      </trkpt>
      <trkpt lat="44.90857" lon="5.44087">
        <ele>1211</ele>
        <time>2020-05-21T17:10:44.529Z</time>
      </trkpt>
      <trkpt lat="44.90858" lon="5.44088">
        <ele>1211</ele>
        <time>2020-05-21T17:10:45.529Z</time>
      </trkpt>
      <trkpt lat="44.90859" lon="5.44089">
        <ele>1211</ele>
        <time>2020-05-21T17:10:46.529Z</time>
      </trkpt>
      <trkpt lat="44.9086" lon="5.44089">
        <ele>1211</ele>
        <time>2020-05-21T17:10:47.529Z</time>
      </trkpt>
      <trkpt lat="44.90861" lon="5.4409">
        <ele>1211</ele>
        <time>2020-05-21T17:10:48.529Z</time>
      </trkpt>
      <trkpt lat="44.90861" lon="5.44091">
        <ele>1211</ele>
        <time>2020-05-21T17:10:49.528Z</time>
      </trkpt>
      <trkpt lat="44.90861" lon="5.4409">
        <ele>1211</ele>
        <time>2020-05-21T17:10:50.529Z</time>
      </trkpt>
      <trkpt lat="44.90861" lon="5.44088">
        <ele>1211</ele>
        <time>2020-05-21T17:10:51.528Z</time>
      </trkpt>
      <trkpt lat="44.9086" lon="5.44085">
        <ele>1211</ele>
        <time>2020-05-21T17:10:52.529Z</time>
      </trkpt>
      <trkpt lat="44.90859" lon="5.44083">
        <ele>1211</ele>
        <time>2020-05-21T17:10:53.529Z</time>
      </trkpt>
      <trkpt lat="44.90859" lon="5.44081">
        <ele>1211</ele>
        <time>2020-05-21T17:10:54.529Z</time>
      </trkpt>
      <trkpt lat="44.90858" lon="5.4408">
        <ele>1210</ele>
        <time>2020-05-21T17:10:55.528Z</time>
      </trkpt>
      <trkpt lat="44.90857" lon="5.44078">
        <ele>1210</ele>
        <time>2020-05-21T17:10:56.528Z</time>
      </trkpt>
      <trkpt lat="44.90857" lon="5.44078">
        <ele>1210</ele>
        <time>2020-05-21T17:10:57.528Z</time>
      </trkpt>
      <trkpt lat="44.90857" lon="5.44077">
        <ele>1210</ele>
        <time>2020-05-21T17:10:58.529Z</time>
      </trkpt>
      <trkpt lat="44.90856" lon="5.44076">
        <ele>1209</ele>
        <time>2020-05-21T17:10:59.529Z</time>
      </trkpt>
      <trkpt lat="44.90856" lon="5.44075">
        <ele>1209</ele>
        <time>2020-05-21T17:11:00.529Z</time>
      </trkpt>
      <trkpt lat="44.90856" lon="5.44075">
        <ele>1208</ele>
        <time>2020-05-21T17:11:01.529Z</time>
      </trkpt>
      <trkpt lat="44.90856" lon="5.44074">
        <ele>1208</ele>
        <time>2020-05-21T17:11:02.529Z</time>
      </trkpt>
      <trkpt lat="44.90856" lon="5.44073">
        <ele>1207</ele>
        <time>2020-05-21T17:11:03.529Z</time>
      </trkpt>
      <trkpt lat="44.90855" lon="5.44072">
        <ele>1206</ele>
        <time>2020-05-21T17:11:04.529Z</time>
      </trkpt>
      <trkpt lat="44.90855" lon="5.44072">
        <ele>1206</ele>
        <time>2020-05-21T17:11:05.529Z</time>
      </trkpt>
      <trkpt lat="44.90855" lon="5.44073">
        <ele>1206</ele>
        <time>2020-05-21T17:11:06.529Z</time>
      </trkpt>
      <trkpt lat="44.90856" lon="5.44073">
        <ele>1206</ele>
        <time>2020-05-21T17:11:07.529Z</time>
      </trkpt>
      <trkpt lat="44.90856" lon="5.44072">
        <ele>1206</ele>
        <time>2020-05-21T17:11:08.529Z</time>
      </trkpt>
      <trkpt lat="44.90855" lon="5.44072">
        <ele>1206</ele>
        <time>2020-05-21T17:11:09.529Z</time>
      </trkpt>
      <trkpt lat="44.90855" lon="5.44071">
        <ele>1206</ele>
        <time>2020-05-21T17:11:10.528Z</time>
      </trkpt>
      <trkpt lat="44.90855" lon="5.44071">
        <ele>1206</ele>
        <time>2020-05-21T17:11:11.528Z</time>
      </trkpt>
      <trkpt lat="44.90854" lon="5.4407">
        <ele>1206</ele>
        <time>2020-05-21T17:11:12.529Z</time>
      </trkpt>
      <trkpt lat="44.90853" lon="5.44068">
        <ele>1206</ele>
        <time>2020-05-21T17:11:13.528Z</time>
      </trkpt>
      <trkpt lat="44.90853" lon="5.44067">
        <ele>1207</ele>
        <time>2020-05-21T17:11:14.529Z</time>
      </trkpt>
      <trkpt lat="44.90852" lon="5.44065">
        <ele>1207</ele>
        <time>2020-05-21T17:11:15.528Z</time>
      </trkpt>
      <trkpt lat="44.90851" lon="5.44064">
        <ele>1207</ele>
        <time>2020-05-21T17:11:16.528Z</time>
      </trkpt>
      <trkpt lat="44.9085" lon="5.44063">
        <ele>1207</ele>
        <time>2020-05-21T17:11:17.529Z</time>
      </trkpt>
      <trkpt lat="44.90849" lon="5.44061">
        <ele>1207</ele>
        <time>2020-05-21T17:11:18.529Z</time>
      </trkpt>
      <trkpt lat="44.90848" lon="5.44058">
        <ele>1207</ele>
        <time>2020-05-21T17:11:19.529Z</time>
      </trkpt>
      <trkpt lat="44.90848" lon="5.44055">
        <ele>1207</ele>
        <time>2020-05-21T17:11:20.528Z</time>
      </trkpt>
      <trkpt lat="44.90847" lon="5.44052">
        <ele>1207</ele>
        <time>2020-05-21T17:11:21.529Z</time>
      </trkpt>
      <trkpt lat="44.90847" lon="5.4405">
        <ele>1207</ele>
        <time>2020-05-21T17:11:22.529Z</time>
      </trkpt>
      <trkpt lat="44.90847" lon="5.44047">
        <ele>1207</ele>
        <time>2020-05-21T17:11:23.529Z</time>
      </trkpt>
      <trkpt lat="44.90847" lon="5.44043">
        <ele>1207</ele>
        <time>2020-05-21T17:11:24.529Z</time>
      </trkpt>
      <trkpt lat="44.90847" lon="5.44039">
        <ele>1207</ele>
        <time>2020-05-21T17:11:25.528Z</time>
      </trkpt>
      <trkpt lat="44.90847" lon="5.44035">
        <ele>1207</ele>
        <time>2020-05-21T17:11:26.529Z</time>
      </trkpt>
      <trkpt lat="44.90847" lon="5.44032">
        <ele>1207</ele>
        <time>2020-05-21T17:11:27.529Z</time>
      </trkpt>
      <trkpt lat="44.90847" lon="5.44029">
        <ele>1207</ele>
        <time>2020-05-21T17:11:28.529Z</time>
      </trkpt>
      <trkpt lat="44.90847" lon="5.44026">
        <ele>1206</ele>
        <time>2020-05-21T17:11:29.529Z</time>
      </trkpt>
      <trkpt lat="44.90846" lon="5.44023">
        <ele>1206</ele>
        <time>2020-05-21T17:11:30.528Z</time>
      </trkpt>
      <trkpt lat="44.90845" lon="5.44021">
        <ele>1205</ele>
        <time>2020-05-21T17:11:31.529Z</time>
      </trkpt>
      <trkpt lat="44.90843" lon="5.44019">
        <ele>1205</ele>
        <time>2020-05-21T17:11:32.529Z</time>
      </trkpt>
      <trkpt lat="44.90841" lon="5.44017">
        <ele>1204</ele>
        <time>2020-05-21T17:11:33.529Z</time>
      </trkpt>
      <trkpt lat="44.9084" lon="5.44015">
        <ele>1204</ele>
        <time>2020-05-21T17:11:34.528Z</time>
      </trkpt>
      <trkpt lat="44.90838" lon="5.44011">
        <ele>1203</ele>
        <time>2020-05-21T17:11:35.528Z</time>
      </trkpt>
      <trkpt lat="44.90836" lon="5.44007">
        <ele>1203</ele>
        <time>2020-05-21T17:11:36.528Z</time>
      </trkpt>
      <trkpt lat="44.90834" lon="5.44003">
        <ele>1202</ele>
        <time>2020-05-21T17:11:37.528Z</time>
      </trkpt>
      <trkpt lat="44.90832" lon="5.43998">
        <ele>1202</ele>
        <time>2020-05-21T17:11:38.529Z</time>
      </trkpt>
      <trkpt lat="44.90829" lon="5.43994">
        <ele>1201</ele>
        <time>2020-05-21T17:11:39.528Z</time>
      </trkpt>
      <trkpt lat="44.90827" lon="5.4399">
        <ele>1201</ele>
        <time>2020-05-21T17:11:40.528Z</time>
      </trkpt>
      <trkpt lat="44.90826" lon="5.43987">
        <ele>1200</ele>
        <time>2020-05-21T17:11:41.529Z</time>
      </trkpt>
      <trkpt lat="44.90825" lon="5.43985">
        <ele>1199</ele>
        <time>2020-05-21T17:11:42.529Z</time>
      </trkpt>
      <trkpt lat="44.90824" lon="5.43983">
        <ele>1198</ele>
        <time>2020-05-21T17:11:43.529Z</time>
      </trkpt>
      <trkpt lat="44.90822" lon="5.43982">
        <ele>1198</ele>
        <time>2020-05-21T17:11:44.528Z</time>
      </trkpt>
      <trkpt lat="44.9082" lon="5.43981">
        <ele>1197</ele>
        <time>2020-05-21T17:11:45.529Z</time>
      </trkpt>
      <trkpt lat="44.90818" lon="5.4398">
        <ele>1197</ele>
        <time>2020-05-21T17:11:46.528Z</time>
      </trkpt>
      <trkpt lat="44.90816" lon="5.4398">
        <ele>1196</ele>
        <time>2020-05-21T17:11:47.529Z</time>
      </trkpt>
      <trkpt lat="44.90808" lon="5.43978">
        <ele>1194</ele>
        <time>2020-05-21T17:11:48.529Z</time>
      </trkpt>
      <trkpt lat="44.90807" lon="5.43978">
        <ele>1194</ele>
        <time>2020-05-21T17:11:49.529Z</time>
      </trkpt>
      <trkpt lat="44.90807" lon="5.43978">
        <ele>1194</ele>
        <time>2020-05-21T17:11:50.528Z</time>
      </trkpt>
      <trkpt lat="44.90807" lon="5.43978">
        <ele>1194</ele>
        <time>2020-05-21T17:11:51.529Z</time>
      </trkpt>
      <trkpt lat="44.90807" lon="5.43978">
        <ele>1194</ele>
        <time>2020-05-21T17:11:52.529Z</time>
      </trkpt>
      <trkpt lat="44.90807" lon="5.43978">
        <ele>1194</ele>
        <time>2020-05-21T17:11:53.528Z</time>
      </trkpt>
      <trkpt lat="44.90807" lon="5.43977">
        <ele>1194</ele>
        <time>2020-05-21T17:11:54.529Z</time>
      </trkpt>
      <trkpt lat="44.9081" lon="5.43977">
        <ele>1194</ele>
        <time>2020-05-21T17:11:55.529Z</time>
      </trkpt>
      <trkpt lat="44.90813" lon="5.43975">
        <ele>1194</ele>
        <time>2020-05-21T17:11:56.528Z</time>
      </trkpt>
      <trkpt lat="44.90813" lon="5.43975">
        <ele>1194</ele>
        <time>2020-05-21T17:11:57.528Z</time>
      </trkpt>
      <trkpt lat="44.90819" lon="5.43975">
        <ele>1193</ele>
        <time>2020-05-21T17:11:58.528Z</time>
      </trkpt>
      <trkpt lat="44.90821" lon="5.43976">
        <ele>1193</ele>
        <time>2020-05-21T17:11:59.529Z</time>
      </trkpt>
      <trkpt lat="44.90824" lon="5.43977">
        <ele>1192</ele>
        <time>2020-05-21T17:12:00.529Z</time>
      </trkpt>
      <trkpt lat="44.90826" lon="5.43979">
        <ele>1192</ele>
        <time>2020-05-21T17:12:01.529Z</time>
      </trkpt>
      <trkpt lat="44.90829" lon="5.43981">
        <ele>1191</ele>
        <time>2020-05-21T17:12:02.528Z</time>
      </trkpt>
      <trkpt lat="44.90831" lon="5.43983">
        <ele>1191</ele>
        <time>2020-05-21T17:12:03.529Z</time>
      </trkpt>
      <trkpt lat="44.90833" lon="5.43986">
        <ele>1190</ele>
        <time>2020-05-21T17:12:04.528Z</time>
      </trkpt>
      <trkpt lat="44.90834" lon="5.43987">
        <ele>1189</ele>
        <time>2020-05-21T17:12:05.528Z</time>
      </trkpt>
      <trkpt lat="44.90835" lon="5.43989">
        <ele>1189</ele>
        <time>2020-05-21T17:12:06.528Z</time>
      </trkpt>
      <trkpt lat="44.90837" lon="5.43991">
        <ele>1188</ele>
        <time>2020-05-21T17:12:07.529Z</time>
      </trkpt>
      <trkpt lat="44.90839" lon="5.43992">
        <ele>1187</ele>
        <time>2020-05-21T17:12:08.528Z</time>
      </trkpt>
      <trkpt lat="44.9084" lon="5.43993">
        <ele>1186</ele>
        <time>2020-05-21T17:12:09.528Z</time>
      </trkpt>
      <trkpt lat="44.90842" lon="5.43994">
        <ele>1186</ele>
        <time>2020-05-21T17:12:10.529Z</time>
      </trkpt>
      <trkpt lat="44.90843" lon="5.43995">
        <ele>1185</ele>
        <time>2020-05-21T17:12:11.528Z</time>
      </trkpt>
      <trkpt lat="44.90844" lon="5.43996">
        <ele>1184</ele>
        <time>2020-05-21T17:12:12.528Z</time>
      </trkpt>
      <trkpt lat="44.90846" lon="5.43997">
        <ele>1183</ele>
        <time>2020-05-21T17:12:13.528Z</time>
      </trkpt>
      <trkpt lat="44.90848" lon="5.43998">
        <ele>1183</ele>
        <time>2020-05-21T17:12:14.528Z</time>
      </trkpt>
      <trkpt lat="44.9085" lon="5.43999">
        <ele>1182</ele>
        <time>2020-05-21T17:12:15.529Z</time>
      </trkpt>
      <trkpt lat="44.90853" lon="5.44">
        <ele>1182</ele>
        <time>2020-05-21T17:12:16.529Z</time>
      </trkpt>
      <trkpt lat="44.90854" lon="5.44002">
        <ele>1181</ele>
        <time>2020-05-21T17:12:17.528Z</time>
      </trkpt>
      <trkpt lat="44.90855" lon="5.44004">
        <ele>1180</ele>
        <time>2020-05-21T17:12:18.528Z</time>
      </trkpt>
      <trkpt lat="44.90855" lon="5.44004">
        <ele>1180</ele>
        <time>2020-05-21T17:12:19.528Z</time>
      </trkpt>
      <trkpt lat="44.90858" lon="5.4401">
        <ele>1179</ele>
        <time>2020-05-21T17:12:20.528Z</time>
      </trkpt>
      <trkpt lat="44.90859" lon="5.44012">
        <ele>1178</ele>
        <time>2020-05-21T17:12:21.528Z</time>
      </trkpt>
      <trkpt lat="44.90859" lon="5.44015">
        <ele>1178</ele>
        <time>2020-05-21T17:12:22.529Z</time>
      </trkpt>
      <trkpt lat="44.9086" lon="5.44017">
        <ele>1177</ele>
        <time>2020-05-21T17:12:23.528Z</time>
      </trkpt>
      <trkpt lat="44.90861" lon="5.4402">
        <ele>1176</ele>
        <time>2020-05-21T17:12:24.528Z</time>
      </trkpt>
      <trkpt lat="44.90861" lon="5.44022">
        <ele>1176</ele>
        <time>2020-05-21T17:12:25.528Z</time>
      </trkpt>
      <trkpt lat="44.90861" lon="5.44022">
        <ele>1176</ele>
        <time>2020-05-21T17:12:26.528Z</time>
      </trkpt>
      <trkpt lat="44.90864" lon="5.44028">
        <ele>1175</ele>
        <time>2020-05-21T17:12:27.528Z</time>
      </trkpt>
      <trkpt lat="44.90865" lon="5.44031">
        <ele>1175</ele>
        <time>2020-05-21T17:12:28.528Z</time>
      </trkpt>
      <trkpt lat="44.90865" lon="5.44034">
        <ele>1174</ele>
        <time>2020-05-21T17:12:29.528Z</time>
      </trkpt>
      <trkpt lat="44.90865" lon="5.44037">
        <ele>1174</ele>
        <time>2020-05-21T17:12:30.528Z</time>
      </trkpt>
      <trkpt lat="44.90866" lon="5.44038">
        <ele>1174</ele>
        <time>2020-05-21T17:12:31.528Z</time>
      </trkpt>
      <trkpt lat="44.90866" lon="5.44039">
        <ele>1174</ele>
        <time>2020-05-21T17:12:32.528Z</time>
      </trkpt>
      <trkpt lat="44.90866" lon="5.44039">
        <ele>1174</ele>
        <time>2020-05-21T17:12:33.529Z</time>
      </trkpt>
      <trkpt lat="44.90866" lon="5.44039">
        <ele>1174</ele>
        <time>2020-05-21T17:12:34.529Z</time>
      </trkpt>
      <trkpt lat="44.90866" lon="5.44039">
        <ele>1174</ele>
        <time>2020-05-21T17:12:35.528Z</time>
      </trkpt>
      <trkpt lat="44.90867" lon="5.44039">
        <ele>1174</ele>
        <time>2020-05-21T17:12:36.528Z</time>
      </trkpt>
      <trkpt lat="44.90867" lon="5.44039">
        <ele>1174</ele>
        <time>2020-05-21T17:12:37.529Z</time>
      </trkpt>
      <trkpt lat="44.90867" lon="5.44039">
        <ele>1174</ele>
        <time>2020-05-21T17:12:38.528Z</time>
      </trkpt>
      <trkpt lat="44.90867" lon="5.4404">
        <ele>1174</ele>
        <time>2020-05-21T17:12:39.529Z</time>
      </trkpt>
      <trkpt lat="44.90868" lon="5.44042">
        <ele>1174</ele>
        <time>2020-05-21T17:12:40.528Z</time>
      </trkpt>
      <trkpt lat="44.90869" lon="5.44044">
        <ele>1174</ele>
        <time>2020-05-21T17:12:41.528Z</time>
      </trkpt>
      <trkpt lat="44.90871" lon="5.44047">
        <ele>1174</ele>
        <time>2020-05-21T17:12:42.528Z</time>
      </trkpt>
      <trkpt lat="44.90873" lon="5.44049">
        <ele>1173</ele>
        <time>2020-05-21T17:12:43.528Z</time>
      </trkpt>
      <trkpt lat="44.90875" lon="5.4405">
        <ele>1173</ele>
        <time>2020-05-21T17:12:44.528Z</time>
      </trkpt>
      <trkpt lat="44.90876" lon="5.44052">
        <ele>1173</ele>
        <time>2020-05-21T17:12:45.529Z</time>
      </trkpt>
      <trkpt lat="44.90877" lon="5.44053">
        <ele>1172</ele>
        <time>2020-05-21T17:12:46.528Z</time>
      </trkpt>
      <trkpt lat="44.90879" lon="5.44055">
        <ele>1172</ele>
        <time>2020-05-21T17:12:47.528Z</time>
      </trkpt>
      <trkpt lat="44.9088" lon="5.44057">
        <ele>1172</ele>
        <time>2020-05-21T17:12:48.529Z</time>
      </trkpt>
      <trkpt lat="44.90882" lon="5.44058">
        <ele>1172</ele>
        <time>2020-05-21T17:12:49.528Z</time>
      </trkpt>
      <trkpt lat="44.90882" lon="5.44058">
        <ele>1172</ele>
        <time>2020-05-21T17:12:50.528Z</time>
      </trkpt>
      <trkpt lat="44.90886" lon="5.4406">
        <ele>1171</ele>
        <time>2020-05-21T17:12:51.529Z</time>
      </trkpt>
      <trkpt lat="44.90888" lon="5.44061">
        <ele>1171</ele>
        <time>2020-05-21T17:12:52.528Z</time>
      </trkpt>
      <trkpt lat="44.9089" lon="5.44061">
        <ele>1170</ele>
        <time>2020-05-21T17:12:53.528Z</time>
      </trkpt>
      <trkpt lat="44.90893" lon="5.44062">
        <ele>1170</ele>
        <time>2020-05-21T17:12:54.528Z</time>
      </trkpt>
      <trkpt lat="44.90895" lon="5.44062">
        <ele>1170</ele>
        <time>2020-05-21T17:12:55.528Z</time>
      </trkpt>
      <trkpt lat="44.90898" lon="5.44062">
        <ele>1169</ele>
        <time>2020-05-21T17:12:56.528Z</time>
      </trkpt>
      <trkpt lat="44.909" lon="5.44062">
        <ele>1169</ele>
        <time>2020-05-21T17:12:57.528Z</time>
      </trkpt>
      <trkpt lat="44.90901" lon="5.44063">
        <ele>1169</ele>
        <time>2020-05-21T17:12:58.528Z</time>
      </trkpt>
      <trkpt lat="44.90902" lon="5.44064">
        <ele>1168</ele>
        <time>2020-05-21T17:12:59.528Z</time>
      </trkpt>
      <trkpt lat="44.90903" lon="5.44065">
        <ele>1168</ele>
        <time>2020-05-21T17:13:00.528Z</time>
      </trkpt>
      <trkpt lat="44.90903" lon="5.44065">
        <ele>1168</ele>
        <time>2020-05-21T17:13:01.529Z</time>
      </trkpt>
      <trkpt lat="44.90904" lon="5.44066">
        <ele>1168</ele>
        <time>2020-05-21T17:13:02.528Z</time>
      </trkpt>
      <trkpt lat="44.90904" lon="5.44066">
        <ele>1168</ele>
        <time>2020-05-21T17:13:03.528Z</time>
      </trkpt>
      <trkpt lat="44.90906" lon="5.44069">
        <ele>1168</ele>
        <time>2020-05-21T17:13:04.528Z</time>
      </trkpt>
      <trkpt lat="44.9091" lon="5.44071">
        <ele>1167</ele>
        <time>2020-05-21T17:13:05.528Z</time>
      </trkpt>
      <trkpt lat="44.90912" lon="5.44072">
        <ele>1167</ele>
        <time>2020-05-21T17:13:06.529Z</time>
      </trkpt>
      <trkpt lat="44.90912" lon="5.44072">
        <ele>1167</ele>
        <time>2020-05-21T17:13:07.529Z</time>
      </trkpt>
      <trkpt lat="44.90914" lon="5.44073">
        <ele>1166</ele>
        <time>2020-05-21T17:13:08.528Z</time>
      </trkpt>
      <trkpt lat="44.90914" lon="5.44072">
        <ele>1165</ele>
        <time>2020-05-21T17:13:09.528Z</time>
      </trkpt>
      <trkpt lat="44.90914" lon="5.44073">
        <ele>1165</ele>
        <time>2020-05-21T17:13:10.528Z</time>
      </trkpt>
      <trkpt lat="44.90915" lon="5.44075">
        <ele>1165</ele>
        <time>2020-05-21T17:13:11.528Z</time>
      </trkpt>
      <trkpt lat="44.90916" lon="5.44077">
        <ele>1164</ele>
        <time>2020-05-21T17:13:12.528Z</time>
      </trkpt>
      <trkpt lat="44.90917" lon="5.44079">
        <ele>1164</ele>
        <time>2020-05-21T17:13:13.528Z</time>
      </trkpt>
      <trkpt lat="44.90918" lon="5.44079">
        <ele>1164</ele>
        <time>2020-05-21T17:13:14.528Z</time>
      </trkpt>
      <trkpt lat="44.90919" lon="5.44079">
        <ele>1164</ele>
        <time>2020-05-21T17:13:15.529Z</time>
      </trkpt>
      <trkpt lat="44.90919" lon="5.44078">
        <ele>1164</ele>
        <time>2020-05-21T17:13:16.528Z</time>
      </trkpt>
      <trkpt lat="44.9092" lon="5.44078">
        <ele>1164</ele>
        <time>2020-05-21T17:13:17.528Z</time>
      </trkpt>
      <trkpt lat="44.90922" lon="5.44077">
        <ele>1165</ele>
        <time>2020-05-21T17:13:18.528Z</time>
      </trkpt>
      <trkpt lat="44.90924" lon="5.44077">
        <ele>1165</ele>
        <time>2020-05-21T17:13:19.529Z</time>
      </trkpt>
      <trkpt lat="44.90925" lon="5.44076">
        <ele>1166</ele>
        <time>2020-05-21T17:13:20.529Z</time>
      </trkpt>
      <trkpt lat="44.90927" lon="5.44075">
        <ele>1166</ele>
        <time>2020-05-21T17:13:21.529Z</time>
      </trkpt>
      <trkpt lat="44.90928" lon="5.44075">
        <ele>1166</ele>
        <time>2020-05-21T17:13:22.528Z</time>
      </trkpt>
      <trkpt lat="44.90929" lon="5.44075">
        <ele>1167</ele>
        <time>2020-05-21T17:13:23.528Z</time>
      </trkpt>
      <trkpt lat="44.90931" lon="5.44075">
        <ele>1167</ele>
        <time>2020-05-21T17:13:24.529Z</time>
      </trkpt>
      <trkpt lat="44.90933" lon="5.44075">
        <ele>1168</ele>
        <time>2020-05-21T17:13:25.528Z</time>
      </trkpt>
      <trkpt lat="44.90934" lon="5.44075">
        <ele>1168</ele>
        <time>2020-05-21T17:13:26.528Z</time>
      </trkpt>
      <trkpt lat="44.90935" lon="5.44075">
        <ele>1168</ele>
        <time>2020-05-21T17:13:27.528Z</time>
      </trkpt>
      <trkpt lat="44.90935" lon="5.44075">
        <ele>1168</ele>
        <time>2020-05-21T17:13:28.529Z</time>
      </trkpt>
      <trkpt lat="44.90939" lon="5.44073">
        <ele>1169</ele>
        <time>2020-05-21T17:13:29.528Z</time>
      </trkpt>
      <trkpt lat="44.90941" lon="5.44071">
        <ele>1169</ele>
        <time>2020-05-21T17:13:30.529Z</time>
      </trkpt>
      <trkpt lat="44.90944" lon="5.44071">
        <ele>1169</ele>
        <time>2020-05-21T17:13:31.528Z</time>
      </trkpt>
      <trkpt lat="44.90944" lon="5.44071">
        <ele>1169</ele>
        <time>2020-05-21T17:13:32.528Z</time>
      </trkpt>
      <trkpt lat="44.90949" lon="5.4407">
        <ele>1169</ele>
        <time>2020-05-21T17:13:33.528Z</time>
      </trkpt>
      <trkpt lat="44.90951" lon="5.44069">
        <ele>1169</ele>
        <time>2020-05-21T17:13:34.529Z</time>
      </trkpt>
      <trkpt lat="44.90953" lon="5.44067">
        <ele>1169</ele>
        <time>2020-05-21T17:13:35.528Z</time>
      </trkpt>
      <trkpt lat="44.90956" lon="5.44066">
        <ele>1168</ele>
        <time>2020-05-21T17:13:36.528Z</time>
      </trkpt>
      <trkpt lat="44.90958" lon="5.44064">
        <ele>1168</ele>
        <time>2020-05-21T17:13:37.528Z</time>
      </trkpt>
      <trkpt lat="44.9096" lon="5.44062">
        <ele>1168</ele>
        <time>2020-05-21T17:13:38.528Z</time>
      </trkpt>
      <trkpt lat="44.90962" lon="5.44061">
        <ele>1168</ele>
        <time>2020-05-21T17:13:39.529Z</time>
      </trkpt>
      <trkpt lat="44.90964" lon="5.44058">
        <ele>1167</ele>
        <time>2020-05-21T17:13:40.528Z</time>
      </trkpt>
      <trkpt lat="44.90966" lon="5.44055">
        <ele>1167</ele>
        <time>2020-05-21T17:13:41.528Z</time>
      </trkpt>
      <trkpt lat="44.90968" lon="5.44052">
        <ele>1167</ele>
        <time>2020-05-21T17:13:42.528Z</time>
      </trkpt>
      <trkpt lat="44.90968" lon="5.44052">
        <ele>1167</ele>
        <time>2020-05-21T17:13:43.529Z</time>
      </trkpt>
      <trkpt lat="44.90971" lon="5.44045">
        <ele>1167</ele>
        <time>2020-05-21T17:13:44.529Z</time>
      </trkpt>
      <trkpt lat="44.90973" lon="5.44043">
        <ele>1167</ele>
        <time>2020-05-21T17:13:45.528Z</time>
      </trkpt>
      <trkpt lat="44.90973" lon="5.44043">
        <ele>1167</ele>
        <time>2020-05-21T17:13:46.528Z</time>
      </trkpt>
      <trkpt lat="44.90978" lon="5.44032">
        <ele>1168</ele>
        <time>2020-05-21T17:13:47.530Z</time>
      </trkpt>
      <trkpt lat="44.90978" lon="5.44032">
        <ele>1169</ele>
        <time>2020-05-21T17:13:48.531Z</time>
      </trkpt>
      <trkpt lat="44.90978" lon="5.44032">
        <ele>1169</ele>
        <time>2020-05-21T17:13:49.530Z</time>
      </trkpt>
      <trkpt lat="44.90978" lon="5.44032">
        <ele>1169</ele>
        <time>2020-05-21T17:13:50.531Z</time>
      </trkpt>
      <trkpt lat="44.90978" lon="5.44032">
        <ele>1169</ele>
        <time>2020-05-21T17:13:51.531Z</time>
      </trkpt>
      <trkpt lat="44.90978" lon="5.44032">
        <ele>1169</ele>
        <time>2020-05-21T17:13:52.530Z</time>
      </trkpt>
      <trkpt lat="44.9098" lon="5.44032">
        <ele>1169</ele>
        <time>2020-05-21T17:13:53.531Z</time>
      </trkpt>
      <trkpt lat="44.90982" lon="5.44032">
        <ele>1169</ele>
        <time>2020-05-21T17:13:54.531Z</time>
      </trkpt>
      <trkpt lat="44.90983" lon="5.44031">
        <ele>1169</ele>
        <time>2020-05-21T17:13:55.530Z</time>
      </trkpt>
      <trkpt lat="44.90985" lon="5.4403">
        <ele>1169</ele>
        <time>2020-05-21T17:13:56.530Z</time>
      </trkpt>
      <trkpt lat="44.90988" lon="5.44028">
        <ele>1169</ele>
        <time>2020-05-21T17:13:57.531Z</time>
      </trkpt>
      <trkpt lat="44.9099" lon="5.44027">
        <ele>1169</ele>
        <time>2020-05-21T17:13:58.531Z</time>
      </trkpt>
      <trkpt lat="44.90992" lon="5.44025">
        <ele>1169</ele>
        <time>2020-05-21T17:13:59.530Z</time>
      </trkpt>
      <trkpt lat="44.90995" lon="5.44024">
        <ele>1169</ele>
        <time>2020-05-21T17:14:00.531Z</time>
      </trkpt>
      <trkpt lat="44.90998" lon="5.44023">
        <ele>1169</ele>
        <time>2020-05-21T17:14:01.531Z</time>
      </trkpt>
      <trkpt lat="44.91" lon="5.44023">
        <ele>1169</ele>
        <time>2020-05-21T17:14:02.530Z</time>
      </trkpt>
      <trkpt lat="44.91002" lon="5.44022">
        <ele>1169</ele>
        <time>2020-05-21T17:14:03.531Z</time>
      </trkpt>
      <trkpt lat="44.91005" lon="5.44021">
        <ele>1169</ele>
        <time>2020-05-21T17:14:04.531Z</time>
      </trkpt>
      <trkpt lat="44.91008" lon="5.4402">
        <ele>1168</ele>
        <time>2020-05-21T17:14:05.531Z</time>
      </trkpt>
      <trkpt lat="44.91011" lon="5.44019">
        <ele>1168</ele>
        <time>2020-05-21T17:14:06.531Z</time>
      </trkpt>
      <trkpt lat="44.91014" lon="5.44018">
        <ele>1168</ele>
        <time>2020-05-21T17:14:07.530Z</time>
      </trkpt>
      <trkpt lat="44.91017" lon="5.44017">
        <ele>1167</ele>
        <time>2020-05-21T17:14:08.531Z</time>
      </trkpt>
      <trkpt lat="44.9102" lon="5.44017">
        <ele>1167</ele>
        <time>2020-05-21T17:14:09.531Z</time>
      </trkpt>
      <trkpt lat="44.91022" lon="5.44016">
        <ele>1167</ele>
        <time>2020-05-21T17:14:10.531Z</time>
      </trkpt>
      <trkpt lat="44.91025" lon="5.44015">
        <ele>1167</ele>
        <time>2020-05-21T17:14:11.530Z</time>
      </trkpt>
      <trkpt lat="44.91028" lon="5.44014">
        <ele>1166</ele>
        <time>2020-05-21T17:14:12.531Z</time>
      </trkpt>
      <trkpt lat="44.9103" lon="5.44013">
        <ele>1166</ele>
        <time>2020-05-21T17:14:13.531Z</time>
      </trkpt>
      <trkpt lat="44.91033" lon="5.44011">
        <ele>1166</ele>
        <time>2020-05-21T17:14:14.531Z</time>
      </trkpt>
      <trkpt lat="44.91035" lon="5.4401">
        <ele>1165</ele>
        <time>2020-05-21T17:14:15.530Z</time>
      </trkpt>
      <trkpt lat="44.91038" lon="5.44009">
        <ele>1165</ele>
        <time>2020-05-21T17:14:16.530Z</time>
      </trkpt>
      <trkpt lat="44.9104" lon="5.44009">
        <ele>1165</ele>
        <time>2020-05-21T17:14:17.530Z</time>
      </trkpt>
      <trkpt lat="44.91042" lon="5.44009">
        <ele>1165</ele>
        <time>2020-05-21T17:14:18.531Z</time>
      </trkpt>
      <trkpt lat="44.91044" lon="5.4401">
        <ele>1165</ele>
        <time>2020-05-21T17:14:19.531Z</time>
      </trkpt>
      <trkpt lat="44.91045" lon="5.4401">
        <ele>1165</ele>
        <time>2020-05-21T17:14:20.530Z</time>
      </trkpt>
      <trkpt lat="44.91046" lon="5.44011">
        <ele>1165</ele>
        <time>2020-05-21T17:14:21.530Z</time>
      </trkpt>
      <trkpt lat="44.91047" lon="5.44012">
        <ele>1164</ele>
        <time>2020-05-21T17:14:22.531Z</time>
      </trkpt>
      <trkpt lat="44.91049" lon="5.44012">
        <ele>1164</ele>
        <time>2020-05-21T17:14:23.531Z</time>
      </trkpt>
      <trkpt lat="44.9105" lon="5.44012">
        <ele>1165</ele>
        <time>2020-05-21T17:14:24.531Z</time>
      </trkpt>
      <trkpt lat="44.91051" lon="5.44013">
        <ele>1165</ele>
        <time>2020-05-21T17:14:25.530Z</time>
      </trkpt>
      <trkpt lat="44.91053" lon="5.44013">
        <ele>1165</ele>
        <time>2020-05-21T17:14:26.531Z</time>
      </trkpt>
      <trkpt lat="44.91054" lon="5.44015">
        <ele>1165</ele>
        <time>2020-05-21T17:14:27.531Z</time>
      </trkpt>
      <trkpt lat="44.91056" lon="5.44016">
        <ele>1166</ele>
        <time>2020-05-21T17:14:28.531Z</time>
      </trkpt>
      <trkpt lat="44.91058" lon="5.44017">
        <ele>1166</ele>
        <time>2020-05-21T17:14:29.530Z</time>
      </trkpt>
      <trkpt lat="44.9106" lon="5.44018">
        <ele>1166</ele>
        <time>2020-05-21T17:14:30.530Z</time>
      </trkpt>
      <trkpt lat="44.91063" lon="5.44019">
        <ele>1166</ele>
        <time>2020-05-21T17:14:31.531Z</time>
      </trkpt>
      <trkpt lat="44.91066" lon="5.4402">
        <ele>1165</ele>
        <time>2020-05-21T17:14:32.530Z</time>
      </trkpt>
      <trkpt lat="44.91069" lon="5.4402">
        <ele>1165</ele>
        <time>2020-05-21T17:14:33.531Z</time>
      </trkpt>
      <trkpt lat="44.91071" lon="5.4402">
        <ele>1165</ele>
        <time>2020-05-21T17:14:34.531Z</time>
      </trkpt>
      <trkpt lat="44.91075" lon="5.4402">
        <ele>1164</ele>
        <time>2020-05-21T17:14:35.531Z</time>
      </trkpt>
      <trkpt lat="44.91078" lon="5.4402">
        <ele>1164</ele>
        <time>2020-05-21T17:14:36.530Z</time>
      </trkpt>
      <trkpt lat="44.91082" lon="5.4402">
        <ele>1163</ele>
        <time>2020-05-21T17:14:37.530Z</time>
      </trkpt>
      <trkpt lat="44.91085" lon="5.4402">
        <ele>1163</ele>
        <time>2020-05-21T17:14:38.531Z</time>
      </trkpt>
      <trkpt lat="44.91089" lon="5.44021">
        <ele>1163</ele>
        <time>2020-05-21T17:14:39.530Z</time>
      </trkpt>
      <trkpt lat="44.91092" lon="5.44021">
        <ele>1162</ele>
        <time>2020-05-21T17:14:40.531Z</time>
      </trkpt>
      <trkpt lat="44.91095" lon="5.44022">
        <ele>1161</ele>
        <time>2020-05-21T17:14:41.531Z</time>
      </trkpt>
      <trkpt lat="44.91099" lon="5.4402">
        <ele>1161</ele>
        <time>2020-05-21T17:14:42.531Z</time>
      </trkpt>
      <trkpt lat="44.91102" lon="5.44019">
        <ele>1160</ele>
        <time>2020-05-21T17:14:43.531Z</time>
      </trkpt>
      <trkpt lat="44.91106" lon="5.44018">
        <ele>1160</ele>
        <time>2020-05-21T17:14:44.531Z</time>
      </trkpt>
      <trkpt lat="44.91109" lon="5.44017">
        <ele>1159</ele>
        <time>2020-05-21T17:14:45.531Z</time>
      </trkpt>
      <trkpt lat="44.91113" lon="5.44017">
        <ele>1159</ele>
        <time>2020-05-21T17:14:46.530Z</time>
      </trkpt>
      <trkpt lat="44.91116" lon="5.44017">
        <ele>1159</ele>
        <time>2020-05-21T17:14:47.531Z</time>
      </trkpt>
      <trkpt lat="44.9112" lon="5.44017">
        <ele>1158</ele>
        <time>2020-05-21T17:14:48.531Z</time>
      </trkpt>
      <trkpt lat="44.91124" lon="5.44016">
        <ele>1158</ele>
        <time>2020-05-21T17:14:49.531Z</time>
      </trkpt>
      <trkpt lat="44.91127" lon="5.44015">
        <ele>1158</ele>
        <time>2020-05-21T17:14:50.531Z</time>
      </trkpt>
      <trkpt lat="44.9113" lon="5.44015">
        <ele>1157</ele>
        <time>2020-05-21T17:14:51.531Z</time>
      </trkpt>
      <trkpt lat="44.91134" lon="5.44015">
        <ele>1157</ele>
        <time>2020-05-21T17:14:52.531Z</time>
      </trkpt>
      <trkpt lat="44.91137" lon="5.44015">
        <ele>1156</ele>
        <time>2020-05-21T17:14:53.531Z</time>
      </trkpt>
      <trkpt lat="44.91141" lon="5.44014">
        <ele>1156</ele>
        <time>2020-05-21T17:14:54.531Z</time>
      </trkpt>
      <trkpt lat="44.91144" lon="5.44012">
        <ele>1156</ele>
        <time>2020-05-21T17:14:55.530Z</time>
      </trkpt>
      <trkpt lat="44.91148" lon="5.44011">
        <ele>1155</ele>
        <time>2020-05-21T17:14:56.531Z</time>
      </trkpt>
      <trkpt lat="44.91151" lon="5.44009">
        <ele>1155</ele>
        <time>2020-05-21T17:14:57.531Z</time>
      </trkpt>
      <trkpt lat="44.91155" lon="5.44008">
        <ele>1154</ele>
        <time>2020-05-21T17:14:58.531Z</time>
      </trkpt>
      <trkpt lat="44.91159" lon="5.44008">
        <ele>1154</ele>
        <time>2020-05-21T17:14:59.531Z</time>
      </trkpt>
      <trkpt lat="44.91163" lon="5.44007">
        <ele>1153</ele>
        <time>2020-05-21T17:15:00.531Z</time>
      </trkpt>
      <trkpt lat="44.91167" lon="5.44007">
        <ele>1153</ele>
        <time>2020-05-21T17:15:01.531Z</time>
      </trkpt>
      <trkpt lat="44.9117" lon="5.44007">
        <ele>1152</ele>
        <time>2020-05-21T17:15:02.531Z</time>
      </trkpt>
      <trkpt lat="44.91174" lon="5.44007">
        <ele>1152</ele>
        <time>2020-05-21T17:15:03.531Z</time>
      </trkpt>
      <trkpt lat="44.91177" lon="5.44006">
        <ele>1151</ele>
        <time>2020-05-21T17:15:04.531Z</time>
      </trkpt>
      <trkpt lat="44.91181" lon="5.44006">
        <ele>1151</ele>
        <time>2020-05-21T17:15:05.531Z</time>
      </trkpt>
      <trkpt lat="44.91184" lon="5.44006">
        <ele>1150</ele>
        <time>2020-05-21T17:15:06.531Z</time>
      </trkpt>
      <trkpt lat="44.91188" lon="5.44006">
        <ele>1150</ele>
        <time>2020-05-21T17:15:07.531Z</time>
      </trkpt>
      <trkpt lat="44.91192" lon="5.44006">
        <ele>1149</ele>
        <time>2020-05-21T17:15:08.531Z</time>
      </trkpt>
      <trkpt lat="44.91196" lon="5.44006">
        <ele>1149</ele>
        <time>2020-05-21T17:15:09.531Z</time>
      </trkpt>
      <trkpt lat="44.91198" lon="5.44004">
        <ele>1148</ele>
        <time>2020-05-21T17:15:10.531Z</time>
      </trkpt>
      <trkpt lat="44.91201" lon="5.44003">
        <ele>1148</ele>
        <time>2020-05-21T17:15:11.531Z</time>
      </trkpt>
      <trkpt lat="44.91204" lon="5.44002">
        <ele>1147</ele>
        <time>2020-05-21T17:15:12.531Z</time>
      </trkpt>
      <trkpt lat="44.91208" lon="5.44002">
        <ele>1147</ele>
        <time>2020-05-21T17:15:13.530Z</time>
      </trkpt>
      <trkpt lat="44.91211" lon="5.44001">
        <ele>1147</ele>
        <time>2020-05-21T17:15:14.530Z</time>
      </trkpt>
      <trkpt lat="44.91214" lon="5.44001">
        <ele>1146</ele>
        <time>2020-05-21T17:15:15.530Z</time>
      </trkpt>
      <trkpt lat="44.91217" lon="5.44">
        <ele>1146</ele>
        <time>2020-05-21T17:15:16.530Z</time>
      </trkpt>
      <trkpt lat="44.9122" lon="5.44">
        <ele>1146</ele>
        <time>2020-05-21T17:15:17.530Z</time>
      </trkpt>
      <trkpt lat="44.91223" lon="5.44">
        <ele>1145</ele>
        <time>2020-05-21T17:15:18.530Z</time>
      </trkpt>
      <trkpt lat="44.91226" lon="5.44">
        <ele>1145</ele>
        <time>2020-05-21T17:15:19.531Z</time>
      </trkpt>
      <trkpt lat="44.91229" lon="5.44">
        <ele>1145</ele>
        <time>2020-05-21T17:15:20.531Z</time>
      </trkpt>
      <trkpt lat="44.91232" lon="5.44">
        <ele>1144</ele>
        <time>2020-05-21T17:15:21.531Z</time>
      </trkpt>
      <trkpt lat="44.91235" lon="5.44">
        <ele>1144</ele>
        <time>2020-05-21T17:15:22.531Z</time>
      </trkpt>
      <trkpt lat="44.91238" lon="5.44">
        <ele>1144</ele>
        <time>2020-05-21T17:15:23.530Z</time>
      </trkpt>
      <trkpt lat="44.91241" lon="5.44">
        <ele>1143</ele>
        <time>2020-05-21T17:15:24.531Z</time>
      </trkpt>
      <trkpt lat="44.91245" lon="5.44001">
        <ele>1142</ele>
        <time>2020-05-21T17:15:25.531Z</time>
      </trkpt>
      <trkpt lat="44.91248" lon="5.44001">
        <ele>1142</ele>
        <time>2020-05-21T17:15:26.530Z</time>
      </trkpt>
      <trkpt lat="44.91251" lon="5.44">
        <ele>1141</ele>
        <time>2020-05-21T17:15:27.531Z</time>
      </trkpt>
      <trkpt lat="44.91254" lon="5.43999">
        <ele>1140</ele>
        <time>2020-05-21T17:15:28.531Z</time>
      </trkpt>
      <trkpt lat="44.91257" lon="5.44">
        <ele>1139</ele>
        <time>2020-05-21T17:15:29.531Z</time>
      </trkpt>
      <trkpt lat="44.91261" lon="5.43999">
        <ele>1139</ele>
        <time>2020-05-21T17:15:30.531Z</time>
      </trkpt>
      <trkpt lat="44.91263" lon="5.43999">
        <ele>1138</ele>
        <time>2020-05-21T17:15:31.530Z</time>
      </trkpt>
      <trkpt lat="44.91266" lon="5.43999">
        <ele>1138</ele>
        <time>2020-05-21T17:15:32.531Z</time>
      </trkpt>
      <trkpt lat="44.91268" lon="5.43999">
        <ele>1138</ele>
        <time>2020-05-21T17:15:33.531Z</time>
      </trkpt>
      <trkpt lat="44.9127" lon="5.44">
        <ele>1137</ele>
        <time>2020-05-21T17:15:34.531Z</time>
      </trkpt>
      <trkpt lat="44.91275" lon="5.44001">
        <ele>1137</ele>
        <time>2020-05-21T17:15:35.530Z</time>
      </trkpt>
      <trkpt lat="44.91275" lon="5.44001">
        <ele>1137</ele>
        <time>2020-05-21T17:15:36.531Z</time>
      </trkpt>
      <trkpt lat="44.91275" lon="5.44001">
        <ele>1138</ele>
        <time>2020-05-21T17:15:37.530Z</time>
      </trkpt>
      <trkpt lat="44.91275" lon="5.44001">
        <ele>1138</ele>
        <time>2020-05-21T17:15:38.531Z</time>
      </trkpt>
      <trkpt lat="44.91275" lon="5.44001">
        <ele>1138</ele>
        <time>2020-05-21T17:15:39.531Z</time>
      </trkpt>
      <trkpt lat="44.91275" lon="5.44001">
        <ele>1138</ele>
        <time>2020-05-21T17:15:40.531Z</time>
      </trkpt>
      <trkpt lat="44.91275" lon="5.44001">
        <ele>1138</ele>
        <time>2020-05-21T17:15:41.530Z</time>
      </trkpt>
      <trkpt lat="44.91277" lon="5.44003">
        <ele>1138</ele>
        <time>2020-05-21T17:15:42.530Z</time>
      </trkpt>
      <trkpt lat="44.9128" lon="5.44004">
        <ele>1138</ele>
        <time>2020-05-21T17:15:43.531Z</time>
      </trkpt>
      <trkpt lat="44.91282" lon="5.44005">
        <ele>1138</ele>
        <time>2020-05-21T17:15:44.530Z</time>
      </trkpt>
      <trkpt lat="44.91284" lon="5.44006">
        <ele>1138</ele>
        <time>2020-05-21T17:15:45.531Z</time>
      </trkpt>
      <trkpt lat="44.91287" lon="5.44007">
        <ele>1139</ele>
        <time>2020-05-21T17:15:46.530Z</time>
      </trkpt>
      <trkpt lat="44.91289" lon="5.44007">
        <ele>1138</ele>
        <time>2020-05-21T17:15:47.530Z</time>
      </trkpt>
      <trkpt lat="44.91292" lon="5.44007">
        <ele>1138</ele>
        <time>2020-05-21T17:15:48.530Z</time>
      </trkpt>
      <trkpt lat="44.91295" lon="5.44007">
        <ele>1138</ele>
        <time>2020-05-21T17:15:49.530Z</time>
      </trkpt>
      <trkpt lat="44.91298" lon="5.44007">
        <ele>1138</ele>
        <time>2020-05-21T17:15:50.530Z</time>
      </trkpt>
      <trkpt lat="44.91301" lon="5.44006">
        <ele>1137</ele>
        <time>2020-05-21T17:15:51.530Z</time>
      </trkpt>
      <trkpt lat="44.91304" lon="5.44005">
        <ele>1137</ele>
        <time>2020-05-21T17:15:52.530Z</time>
      </trkpt>
      <trkpt lat="44.91307" lon="5.44005">
        <ele>1137</ele>
        <time>2020-05-21T17:15:53.531Z</time>
      </trkpt>
      <trkpt lat="44.9131" lon="5.44004">
        <ele>1137</ele>
        <time>2020-05-21T17:15:54.530Z</time>
      </trkpt>
      <trkpt lat="44.91313" lon="5.44004">
        <ele>1136</ele>
        <time>2020-05-21T17:15:55.531Z</time>
      </trkpt>
      <trkpt lat="44.91316" lon="5.44003">
        <ele>1136</ele>
        <time>2020-05-21T17:15:56.530Z</time>
      </trkpt>
      <trkpt lat="44.91318" lon="5.44003">
        <ele>1135</ele>
        <time>2020-05-21T17:15:57.530Z</time>
      </trkpt>
      <trkpt lat="44.91321" lon="5.44003">
        <ele>1135</ele>
        <time>2020-05-21T17:15:58.530Z</time>
      </trkpt>
      <trkpt lat="44.91324" lon="5.44003">
        <ele>1134</ele>
        <time>2020-05-21T17:15:59.530Z</time>
      </trkpt>
      <trkpt lat="44.91327" lon="5.44003">
        <ele>1134</ele>
        <time>2020-05-21T17:16:00.531Z</time>
      </trkpt>
      <trkpt lat="44.91331" lon="5.44002">
        <ele>1134</ele>
        <time>2020-05-21T17:16:01.531Z</time>
      </trkpt>
      <trkpt lat="44.91334" lon="5.44001">
        <ele>1133</ele>
        <time>2020-05-21T17:16:02.530Z</time>
      </trkpt>
      <trkpt lat="44.91337" lon="5.44001">
        <ele>1133</ele>
        <time>2020-05-21T17:16:03.530Z</time>
      </trkpt>
      <trkpt lat="44.9134" lon="5.44002">
        <ele>1132</ele>
        <time>2020-05-21T17:16:04.531Z</time>
      </trkpt>
      <trkpt lat="44.91343" lon="5.44002">
        <ele>1132</ele>
        <time>2020-05-21T17:16:05.531Z</time>
      </trkpt>
      <trkpt lat="44.91345" lon="5.44002">
        <ele>1131</ele>
        <time>2020-05-21T17:16:06.530Z</time>
      </trkpt>
      <trkpt lat="44.91348" lon="5.44003">
        <ele>1131</ele>
        <time>2020-05-21T17:16:07.530Z</time>
      </trkpt>
      <trkpt lat="44.9135" lon="5.44004">
        <ele>1131</ele>
        <time>2020-05-21T17:16:08.531Z</time>
      </trkpt>
      <trkpt lat="44.91352" lon="5.44004">
        <ele>1130</ele>
        <time>2020-05-21T17:16:09.531Z</time>
      </trkpt>
      <trkpt lat="44.91354" lon="5.44005">
        <ele>1130</ele>
        <time>2020-05-21T17:16:10.531Z</time>
      </trkpt>
      <trkpt lat="44.91357" lon="5.44005">
        <ele>1130</ele>
        <time>2020-05-21T17:16:11.530Z</time>
      </trkpt>
      <trkpt lat="44.91359" lon="5.44005">
        <ele>1129</ele>
        <time>2020-05-21T17:16:12.530Z</time>
      </trkpt>
      <trkpt lat="44.91361" lon="5.44005">
        <ele>1129</ele>
        <time>2020-05-21T17:16:13.530Z</time>
      </trkpt>
      <trkpt lat="44.91363" lon="5.44005">
        <ele>1129</ele>
        <time>2020-05-21T17:16:14.531Z</time>
      </trkpt>
      <trkpt lat="44.91366" lon="5.44005">
        <ele>1128</ele>
        <time>2020-05-21T17:16:15.531Z</time>
      </trkpt>
      <trkpt lat="44.91368" lon="5.44005">
        <ele>1128</ele>
        <time>2020-05-21T17:16:16.530Z</time>
      </trkpt>
      <trkpt lat="44.91371" lon="5.44005">
        <ele>1128</ele>
        <time>2020-05-21T17:16:17.531Z</time>
      </trkpt>
      <trkpt lat="44.91374" lon="5.44006">
        <ele>1127</ele>
        <time>2020-05-21T17:16:18.530Z</time>
      </trkpt>
      <trkpt lat="44.91376" lon="5.44007">
        <ele>1127</ele>
        <time>2020-05-21T17:16:19.530Z</time>
      </trkpt>
      <trkpt lat="44.91377" lon="5.44007">
        <ele>1126</ele>
        <time>2020-05-21T17:16:20.530Z</time>
      </trkpt>
      <trkpt lat="44.91379" lon="5.44008">
        <ele>1126</ele>
        <time>2020-05-21T17:16:21.530Z</time>
      </trkpt>
      <trkpt lat="44.9138" lon="5.44008">
        <ele>1125</ele>
        <time>2020-05-21T17:16:22.530Z</time>
      </trkpt>
      <trkpt lat="44.91382" lon="5.44007">
        <ele>1125</ele>
        <time>2020-05-21T17:16:23.530Z</time>
      </trkpt>
      <trkpt lat="44.91383" lon="5.44007">
        <ele>1125</ele>
        <time>2020-05-21T17:16:24.531Z</time>
      </trkpt>
      <trkpt lat="44.91385" lon="5.44008">
        <ele>1124</ele>
        <time>2020-05-21T17:16:25.531Z</time>
      </trkpt>
      <trkpt lat="44.91387" lon="5.44008">
        <ele>1124</ele>
        <time>2020-05-21T17:16:26.530Z</time>
      </trkpt>
      <trkpt lat="44.91389" lon="5.44008">
        <ele>1123</ele>
        <time>2020-05-21T17:16:27.531Z</time>
      </trkpt>
      <trkpt lat="44.9139" lon="5.44009">
        <ele>1123</ele>
        <time>2020-05-21T17:16:28.531Z</time>
      </trkpt>
      <trkpt lat="44.91393" lon="5.44009">
        <ele>1122</ele>
        <time>2020-05-21T17:16:29.530Z</time>
      </trkpt>
      <trkpt lat="44.91397" lon="5.44009">
        <ele>1122</ele>
        <time>2020-05-21T17:16:30.530Z</time>
      </trkpt>
      <trkpt lat="44.914" lon="5.4401">
        <ele>1121</ele>
        <time>2020-05-21T17:16:31.531Z</time>
      </trkpt>
      <trkpt lat="44.91402" lon="5.44009">
        <ele>1120</ele>
        <time>2020-05-21T17:16:32.530Z</time>
      </trkpt>
      <trkpt lat="44.91404" lon="5.44008">
        <ele>1120</ele>
        <time>2020-05-21T17:16:33.531Z</time>
      </trkpt>
      <trkpt lat="44.91406" lon="5.44008">
        <ele>1120</ele>
        <time>2020-05-21T17:16:34.531Z</time>
      </trkpt>
      <trkpt lat="44.91409" lon="5.44008">
        <ele>1119</ele>
        <time>2020-05-21T17:16:35.531Z</time>
      </trkpt>
      <trkpt lat="44.91411" lon="5.44007">
        <ele>1119</ele>
        <time>2020-05-21T17:16:36.531Z</time>
      </trkpt>
      <trkpt lat="44.91413" lon="5.44007">
        <ele>1118</ele>
        <time>2020-05-21T17:16:37.531Z</time>
      </trkpt>
      <trkpt lat="44.91416" lon="5.44007">
        <ele>1118</ele>
        <time>2020-05-21T17:16:38.530Z</time>
      </trkpt>
      <trkpt lat="44.91418" lon="5.44007">
        <ele>1117</ele>
        <time>2020-05-21T17:16:39.531Z</time>
      </trkpt>
      <trkpt lat="44.91421" lon="5.44007">
        <ele>1116</ele>
        <time>2020-05-21T17:16:40.530Z</time>
      </trkpt>
      <trkpt lat="44.91424" lon="5.44008">
        <ele>1116</ele>
        <time>2020-05-21T17:16:41.531Z</time>
      </trkpt>
      <trkpt lat="44.91426" lon="5.44008">
        <ele>1115</ele>
        <time>2020-05-21T17:16:42.531Z</time>
      </trkpt>
      <trkpt lat="44.91429" lon="5.44008">
        <ele>1115</ele>
        <time>2020-05-21T17:16:43.531Z</time>
      </trkpt>
      <trkpt lat="44.91432" lon="5.44007">
        <ele>1114</ele>
        <time>2020-05-21T17:16:44.530Z</time>
      </trkpt>
      <trkpt lat="44.91434" lon="5.44007">
        <ele>1114</ele>
        <time>2020-05-21T17:16:45.531Z</time>
      </trkpt>
      <trkpt lat="44.91436" lon="5.44006">
        <ele>1113</ele>
        <time>2020-05-21T17:16:46.531Z</time>
      </trkpt>
      <trkpt lat="44.91438" lon="5.44008">
        <ele>1113</ele>
        <time>2020-05-21T17:16:47.531Z</time>
      </trkpt>
      <trkpt lat="44.9144" lon="5.44009">
        <ele>1113</ele>
        <time>2020-05-21T17:16:48.531Z</time>
      </trkpt>
      <trkpt lat="44.91443" lon="5.4401">
        <ele>1112</ele>
        <time>2020-05-21T17:16:49.530Z</time>
      </trkpt>
      <trkpt lat="44.91445" lon="5.44011">
        <ele>1112</ele>
        <time>2020-05-21T17:16:50.530Z</time>
      </trkpt>
      <trkpt lat="44.91447" lon="5.44011">
        <ele>1112</ele>
        <time>2020-05-21T17:16:51.530Z</time>
      </trkpt>
      <trkpt lat="44.9145" lon="5.44011">
        <ele>1111</ele>
        <time>2020-05-21T17:16:52.530Z</time>
      </trkpt>
      <trkpt lat="44.91452" lon="5.44011">
        <ele>1111</ele>
        <time>2020-05-21T17:16:53.530Z</time>
      </trkpt>
      <trkpt lat="44.91455" lon="5.44011">
        <ele>1111</ele>
        <time>2020-05-21T17:16:54.531Z</time>
      </trkpt>
      <trkpt lat="44.91457" lon="5.4401">
        <ele>1110</ele>
        <time>2020-05-21T17:16:55.530Z</time>
      </trkpt>
      <trkpt lat="44.9146" lon="5.4401">
        <ele>1110</ele>
        <time>2020-05-21T17:16:56.531Z</time>
      </trkpt>
      <trkpt lat="44.91462" lon="5.4401">
        <ele>1110</ele>
        <time>2020-05-21T17:16:57.531Z</time>
      </trkpt>
      <trkpt lat="44.91464" lon="5.44009">
        <ele>1110</ele>
        <time>2020-05-21T17:16:58.531Z</time>
      </trkpt>
      <trkpt lat="44.91466" lon="5.44009">
        <ele>1109</ele>
        <time>2020-05-21T17:16:59.530Z</time>
      </trkpt>
      <trkpt lat="44.91467" lon="5.44009">
        <ele>1109</ele>
        <time>2020-05-21T17:17:00.531Z</time>
      </trkpt>
      <trkpt lat="44.91469" lon="5.44009">
        <ele>1109</ele>
        <time>2020-05-21T17:17:01.531Z</time>
      </trkpt>
      <trkpt lat="44.91471" lon="5.44008">
        <ele>1108</ele>
        <time>2020-05-21T17:17:02.531Z</time>
      </trkpt>
      <trkpt lat="44.91473" lon="5.44009">
        <ele>1108</ele>
        <time>2020-05-21T17:17:03.530Z</time>
      </trkpt>
      <trkpt lat="44.91475" lon="5.44008">
        <ele>1108</ele>
        <time>2020-05-21T17:17:04.531Z</time>
      </trkpt>
      <trkpt lat="44.91477" lon="5.44008">
        <ele>1108</ele>
        <time>2020-05-21T17:17:05.530Z</time>
      </trkpt>
      <trkpt lat="44.9148" lon="5.44009">
        <ele>1107</ele>
        <time>2020-05-21T17:17:06.530Z</time>
      </trkpt>
      <trkpt lat="44.91483" lon="5.44009">
        <ele>1107</ele>
        <time>2020-05-21T17:17:07.531Z</time>
      </trkpt>
      <trkpt lat="44.91486" lon="5.44009">
        <ele>1106</ele>
        <time>2020-05-21T17:17:08.530Z</time>
      </trkpt>
      <trkpt lat="44.9149" lon="5.4401">
        <ele>1106</ele>
        <time>2020-05-21T17:17:09.530Z</time>
      </trkpt>
      <trkpt lat="44.91493" lon="5.4401">
        <ele>1105</ele>
        <time>2020-05-21T17:17:10.531Z</time>
      </trkpt>
      <trkpt lat="44.91497" lon="5.44011">
        <ele>1105</ele>
        <time>2020-05-21T17:17:11.531Z</time>
      </trkpt>
      <trkpt lat="44.915" lon="5.44012">
        <ele>1104</ele>
        <time>2020-05-21T17:17:12.530Z</time>
      </trkpt>
      <trkpt lat="44.91503" lon="5.44013">
        <ele>1103</ele>
        <time>2020-05-21T17:17:13.530Z</time>
      </trkpt>
      <trkpt lat="44.91506" lon="5.44015">
        <ele>1102</ele>
        <time>2020-05-21T17:17:14.531Z</time>
      </trkpt>
      <trkpt lat="44.91508" lon="5.44016">
        <ele>1101</ele>
        <time>2020-05-21T17:17:15.531Z</time>
      </trkpt>
      <trkpt lat="44.91511" lon="5.44017">
        <ele>1101</ele>
        <time>2020-05-21T17:17:16.531Z</time>
      </trkpt>
      <trkpt lat="44.91513" lon="5.44019">
        <ele>1100</ele>
        <time>2020-05-21T17:17:17.530Z</time>
      </trkpt>
      <trkpt lat="44.91515" lon="5.4402">
        <ele>1100</ele>
        <time>2020-05-21T17:17:18.530Z</time>
      </trkpt>
      <trkpt lat="44.91519" lon="5.44019">
        <ele>1099</ele>
        <time>2020-05-21T17:17:19.531Z</time>
      </trkpt>
      <trkpt lat="44.91522" lon="5.44019">
        <ele>1099</ele>
        <time>2020-05-21T17:17:20.531Z</time>
      </trkpt>
      <trkpt lat="44.91525" lon="5.44019">
        <ele>1098</ele>
        <time>2020-05-21T17:17:21.530Z</time>
      </trkpt>
      <trkpt lat="44.91529" lon="5.44018">
        <ele>1098</ele>
        <time>2020-05-21T17:17:22.531Z</time>
      </trkpt>
      <trkpt lat="44.9153" lon="5.44017">
        <ele>1098</ele>
        <time>2020-05-21T17:17:23.531Z</time>
      </trkpt>
      <trkpt lat="44.91531" lon="5.44017">
        <ele>1098</ele>
        <time>2020-05-21T17:17:24.531Z</time>
      </trkpt>
      <trkpt lat="44.91532" lon="5.44016">
        <ele>1098</ele>
        <time>2020-05-21T17:17:25.530Z</time>
      </trkpt>
      <trkpt lat="44.91532" lon="5.44015">
        <ele>1098</ele>
        <time>2020-05-21T17:17:26.531Z</time>
      </trkpt>
      <trkpt lat="44.91532" lon="5.44016">
        <ele>1098</ele>
        <time>2020-05-21T17:17:27.531Z</time>
      </trkpt>
      <trkpt lat="44.91532" lon="5.44016">
        <ele>1098</ele>
        <time>2020-05-21T17:17:28.531Z</time>
      </trkpt>
      <trkpt lat="44.91532" lon="5.44016">
        <ele>1097</ele>
        <time>2020-05-21T17:17:29.530Z</time>
      </trkpt>
      <trkpt lat="44.91531" lon="5.44017">
        <ele>1097</ele>
        <time>2020-05-21T17:17:30.530Z</time>
      </trkpt>
      <trkpt lat="44.91531" lon="5.44016">
        <ele>1097</ele>
        <time>2020-05-21T17:17:31.530Z</time>
      </trkpt>
      <trkpt lat="44.91533" lon="5.4401">
        <ele>1096</ele>
        <time>2020-05-21T17:17:32.532Z</time>
      </trkpt>
      <trkpt lat="44.91533" lon="5.4401">
        <ele>1096</ele>
        <time>2020-05-21T17:17:33.532Z</time>
      </trkpt>
      <trkpt lat="44.91533" lon="5.4401">
        <ele>1095</ele>
        <time>2020-05-21T17:17:34.531Z</time>
      </trkpt>
      <trkpt lat="44.91533" lon="5.4401">
        <ele>1095</ele>
        <time>2020-05-21T17:17:35.532Z</time>
      </trkpt>
      <trkpt lat="44.91535" lon="5.4401">
        <ele>1095</ele>
        <time>2020-05-21T17:17:36.531Z</time>
      </trkpt>
      <trkpt lat="44.91537" lon="5.44009">
        <ele>1095</ele>
        <time>2020-05-21T17:17:37.532Z</time>
      </trkpt>
      <trkpt lat="44.9154" lon="5.4401">
        <ele>1095</ele>
        <time>2020-05-21T17:17:38.532Z</time>
      </trkpt>
      <trkpt lat="44.91542" lon="5.4401">
        <ele>1095</ele>
        <time>2020-05-21T17:17:39.531Z</time>
      </trkpt>
      <trkpt lat="44.91545" lon="5.4401">
        <ele>1095</ele>
        <time>2020-05-21T17:17:40.531Z</time>
      </trkpt>
      <trkpt lat="44.91548" lon="5.44009">
        <ele>1095</ele>
        <time>2020-05-21T17:17:41.532Z</time>
      </trkpt>
      <trkpt lat="44.91552" lon="5.44009">
        <ele>1095</ele>
        <time>2020-05-21T17:17:42.531Z</time>
      </trkpt>
      <trkpt lat="44.91555" lon="5.44008">
        <ele>1094</ele>
        <time>2020-05-21T17:17:43.531Z</time>
      </trkpt>
      <trkpt lat="44.91558" lon="5.44008">
        <ele>1094</ele>
        <time>2020-05-21T17:17:44.532Z</time>
      </trkpt>
      <trkpt lat="44.91561" lon="5.44008">
        <ele>1094</ele>
        <time>2020-05-21T17:17:45.531Z</time>
      </trkpt>
      <trkpt lat="44.91563" lon="5.4401">
        <ele>1094</ele>
        <time>2020-05-21T17:17:46.531Z</time>
      </trkpt>
      <trkpt lat="44.91565" lon="5.4401">
        <ele>1093</ele>
        <time>2020-05-21T17:17:47.532Z</time>
      </trkpt>
      <trkpt lat="44.91567" lon="5.4401">
        <ele>1093</ele>
        <time>2020-05-21T17:17:48.532Z</time>
      </trkpt>
      <trkpt lat="44.91569" lon="5.44009">
        <ele>1093</ele>
        <time>2020-05-21T17:17:49.532Z</time>
      </trkpt>
      <trkpt lat="44.9157" lon="5.44009">
        <ele>1092</ele>
        <time>2020-05-21T17:17:50.532Z</time>
      </trkpt>
      <trkpt lat="44.91572" lon="5.4401">
        <ele>1092</ele>
        <time>2020-05-21T17:17:51.532Z</time>
      </trkpt>
      <trkpt lat="44.91573" lon="5.4401">
        <ele>1092</ele>
        <time>2020-05-21T17:17:52.531Z</time>
      </trkpt>
      <trkpt lat="44.91576" lon="5.44009">
        <ele>1092</ele>
        <time>2020-05-21T17:17:53.531Z</time>
      </trkpt>
      <trkpt lat="44.91579" lon="5.4401">
        <ele>1091</ele>
        <time>2020-05-21T17:17:54.532Z</time>
      </trkpt>
      <trkpt lat="44.91581" lon="5.44011">
        <ele>1091</ele>
        <time>2020-05-21T17:17:55.532Z</time>
      </trkpt>
      <trkpt lat="44.91583" lon="5.44011">
        <ele>1091</ele>
        <time>2020-05-21T17:17:56.532Z</time>
      </trkpt>
      <trkpt lat="44.91586" lon="5.44012">
        <ele>1090</ele>
        <time>2020-05-21T17:17:57.532Z</time>
      </trkpt>
      <trkpt lat="44.91589" lon="5.44012">
        <ele>1090</ele>
        <time>2020-05-21T17:17:58.531Z</time>
      </trkpt>
      <trkpt lat="44.91592" lon="5.44013">
        <ele>1090</ele>
        <time>2020-05-21T17:17:59.532Z</time>
      </trkpt>
      <trkpt lat="44.91595" lon="5.44013">
        <ele>1090</ele>
        <time>2020-05-21T17:18:00.532Z</time>
      </trkpt>
      <trkpt lat="44.91598" lon="5.44014">
        <ele>1090</ele>
        <time>2020-05-21T17:18:01.532Z</time>
      </trkpt>
      <trkpt lat="44.91602" lon="5.44014">
        <ele>1089</ele>
        <time>2020-05-21T17:18:02.532Z</time>
      </trkpt>
      <trkpt lat="44.91605" lon="5.44015">
        <ele>1089</ele>
        <time>2020-05-21T17:18:03.532Z</time>
      </trkpt>
      <trkpt lat="44.91607" lon="5.44016">
        <ele>1089</ele>
        <time>2020-05-21T17:18:04.532Z</time>
      </trkpt>
      <trkpt lat="44.9161" lon="5.44017">
        <ele>1089</ele>
        <time>2020-05-21T17:18:05.532Z</time>
      </trkpt>
      <trkpt lat="44.91612" lon="5.44019">
        <ele>1088</ele>
        <time>2020-05-21T17:18:06.532Z</time>
      </trkpt>
      <trkpt lat="44.91614" lon="5.44019">
        <ele>1088</ele>
        <time>2020-05-21T17:18:07.532Z</time>
      </trkpt>
      <trkpt lat="44.91617" lon="5.44019">
        <ele>1088</ele>
        <time>2020-05-21T17:18:08.532Z</time>
      </trkpt>
      <trkpt lat="44.91621" lon="5.44019">
        <ele>1088</ele>
        <time>2020-05-21T17:18:09.532Z</time>
      </trkpt>
      <trkpt lat="44.91623" lon="5.4402">
        <ele>1087</ele>
        <time>2020-05-21T17:18:10.532Z</time>
      </trkpt>
      <trkpt lat="44.91626" lon="5.44019">
        <ele>1087</ele>
        <time>2020-05-21T17:18:11.531Z</time>
      </trkpt>
      <trkpt lat="44.91628" lon="5.44018">
        <ele>1087</ele>
        <time>2020-05-21T17:18:12.531Z</time>
      </trkpt>
      <trkpt lat="44.9163" lon="5.44018">
        <ele>1087</ele>
        <time>2020-05-21T17:18:13.532Z</time>
      </trkpt>
      <trkpt lat="44.91633" lon="5.44017">
        <ele>1086</ele>
        <time>2020-05-21T17:18:14.532Z</time>
      </trkpt>
      <trkpt lat="44.91636" lon="5.44016">
        <ele>1086</ele>
        <time>2020-05-21T17:18:15.532Z</time>
      </trkpt>
      <trkpt lat="44.91638" lon="5.44015">
        <ele>1086</ele>
        <time>2020-05-21T17:18:16.531Z</time>
      </trkpt>
      <trkpt lat="44.91642" lon="5.44014">
        <ele>1086</ele>
        <time>2020-05-21T17:18:17.531Z</time>
      </trkpt>
      <trkpt lat="44.91645" lon="5.44014">
        <ele>1085</ele>
        <time>2020-05-21T17:18:18.532Z</time>
      </trkpt>
      <trkpt lat="44.91647" lon="5.44014">
        <ele>1085</ele>
        <time>2020-05-21T17:18:19.532Z</time>
      </trkpt>
      <trkpt lat="44.91651" lon="5.44013">
        <ele>1085</ele>
        <time>2020-05-21T17:18:20.531Z</time>
      </trkpt>
      <trkpt lat="44.91654" lon="5.44013">
        <ele>1084</ele>
        <time>2020-05-21T17:18:21.532Z</time>
      </trkpt>
      <trkpt lat="44.91657" lon="5.44013">
        <ele>1084</ele>
        <time>2020-05-21T17:18:22.532Z</time>
      </trkpt>
      <trkpt lat="44.9166" lon="5.44012">
        <ele>1084</ele>
        <time>2020-05-21T17:18:23.531Z</time>
      </trkpt>
      <trkpt lat="44.91662" lon="5.44013">
        <ele>1084</ele>
        <time>2020-05-21T17:18:24.532Z</time>
      </trkpt>
      <trkpt lat="44.91665" lon="5.44014">
        <ele>1083</ele>
        <time>2020-05-21T17:18:25.532Z</time>
      </trkpt>
      <trkpt lat="44.91668" lon="5.44015">
        <ele>1083</ele>
        <time>2020-05-21T17:18:26.531Z</time>
      </trkpt>
      <trkpt lat="44.9167" lon="5.44016">
        <ele>1083</ele>
        <time>2020-05-21T17:18:27.532Z</time>
      </trkpt>
      <trkpt lat="44.91672" lon="5.44017">
        <ele>1083</ele>
        <time>2020-05-21T17:18:28.531Z</time>
      </trkpt>
      <trkpt lat="44.91675" lon="5.44019">
        <ele>1083</ele>
        <time>2020-05-21T17:18:29.532Z</time>
      </trkpt>
      <trkpt lat="44.91677" lon="5.4402">
        <ele>1083</ele>
        <time>2020-05-21T17:18:30.532Z</time>
      </trkpt>
      <trkpt lat="44.91679" lon="5.44021">
        <ele>1083</ele>
        <time>2020-05-21T17:18:31.531Z</time>
      </trkpt>
      <trkpt lat="44.91682" lon="5.44023">
        <ele>1083</ele>
        <time>2020-05-21T17:18:32.532Z</time>
      </trkpt>
      <trkpt lat="44.91684" lon="5.44024">
        <ele>1083</ele>
        <time>2020-05-21T17:18:33.532Z</time>
      </trkpt>
      <trkpt lat="44.91686" lon="5.44024">
        <ele>1083</ele>
        <time>2020-05-21T17:18:34.532Z</time>
      </trkpt>
      <trkpt lat="44.91689" lon="5.44023">
        <ele>1083</ele>
        <time>2020-05-21T17:18:35.532Z</time>
      </trkpt>
      <trkpt lat="44.91691" lon="5.44022">
        <ele>1083</ele>
        <time>2020-05-21T17:18:36.532Z</time>
      </trkpt>
      <trkpt lat="44.91693" lon="5.44021">
        <ele>1083</ele>
        <time>2020-05-21T17:18:37.531Z</time>
      </trkpt>
      <trkpt lat="44.91695" lon="5.44019">
        <ele>1083</ele>
        <time>2020-05-21T17:18:38.532Z</time>
      </trkpt>
      <trkpt lat="44.91697" lon="5.44017">
        <ele>1083</ele>
        <time>2020-05-21T17:18:39.532Z</time>
      </trkpt>
      <trkpt lat="44.917" lon="5.44015">
        <ele>1083</ele>
        <time>2020-05-21T17:18:40.531Z</time>
      </trkpt>
      <trkpt lat="44.91702" lon="5.44013">
        <ele>1083</ele>
        <time>2020-05-21T17:18:41.532Z</time>
      </trkpt>
      <trkpt lat="44.91704" lon="5.44009">
        <ele>1083</ele>
        <time>2020-05-21T17:18:42.532Z</time>
      </trkpt>
      <trkpt lat="44.91706" lon="5.44007">
        <ele>1083</ele>
        <time>2020-05-21T17:18:43.531Z</time>
      </trkpt>
      <trkpt lat="44.91708" lon="5.44005">
        <ele>1083</ele>
        <time>2020-05-21T17:18:44.531Z</time>
      </trkpt>
      <trkpt lat="44.9171" lon="5.44003">
        <ele>1083</ele>
        <time>2020-05-21T17:18:45.532Z</time>
      </trkpt>
      <trkpt lat="44.91713" lon="5.44001">
        <ele>1082</ele>
        <time>2020-05-21T17:18:46.532Z</time>
      </trkpt>
      <trkpt lat="44.91716" lon="5.43998">
        <ele>1082</ele>
        <time>2020-05-21T17:18:47.532Z</time>
      </trkpt>
      <trkpt lat="44.91718" lon="5.43996">
        <ele>1082</ele>
        <time>2020-05-21T17:18:48.532Z</time>
      </trkpt>
      <trkpt lat="44.9172" lon="5.43994">
        <ele>1081</ele>
        <time>2020-05-21T17:18:49.532Z</time>
      </trkpt>
      <trkpt lat="44.91722" lon="5.43992">
        <ele>1081</ele>
        <time>2020-05-21T17:18:50.532Z</time>
      </trkpt>
      <trkpt lat="44.91725" lon="5.4399">
        <ele>1080</ele>
        <time>2020-05-21T17:18:51.532Z</time>
      </trkpt>
      <trkpt lat="44.91727" lon="5.43988">
        <ele>1080</ele>
        <time>2020-05-21T17:18:52.532Z</time>
      </trkpt>
      <trkpt lat="44.91729" lon="5.43987">
        <ele>1080</ele>
        <time>2020-05-21T17:18:53.532Z</time>
      </trkpt>
      <trkpt lat="44.91732" lon="5.43986">
        <ele>1079</ele>
        <time>2020-05-21T17:18:54.532Z</time>
      </trkpt>
      <trkpt lat="44.91734" lon="5.43986">
        <ele>1079</ele>
        <time>2020-05-21T17:18:55.531Z</time>
      </trkpt>
      <trkpt lat="44.91737" lon="5.43986">
        <ele>1079</ele>
        <time>2020-05-21T17:18:56.532Z</time>
      </trkpt>
      <trkpt lat="44.91739" lon="5.43987">
        <ele>1079</ele>
        <time>2020-05-21T17:18:57.532Z</time>
      </trkpt>
      <trkpt lat="44.91741" lon="5.43987">
        <ele>1079</ele>
        <time>2020-05-21T17:18:58.532Z</time>
      </trkpt>
      <trkpt lat="44.91744" lon="5.43988">
        <ele>1079</ele>
        <time>2020-05-21T17:18:59.532Z</time>
      </trkpt>
      <trkpt lat="44.91747" lon="5.43988">
        <ele>1079</ele>
        <time>2020-05-21T17:19:00.532Z</time>
      </trkpt>
      <trkpt lat="44.9175" lon="5.4399">
        <ele>1080</ele>
        <time>2020-05-21T17:19:01.532Z</time>
      </trkpt>
      <trkpt lat="44.91752" lon="5.43991">
        <ele>1080</ele>
        <time>2020-05-21T17:19:02.532Z</time>
      </trkpt>
      <trkpt lat="44.91755" lon="5.43992">
        <ele>1080</ele>
        <time>2020-05-21T17:19:03.532Z</time>
      </trkpt>
      <trkpt lat="44.91757" lon="5.43993">
        <ele>1081</ele>
        <time>2020-05-21T17:19:04.532Z</time>
      </trkpt>
      <trkpt lat="44.91758" lon="5.43995">
        <ele>1081</ele>
        <time>2020-05-21T17:19:05.532Z</time>
      </trkpt>
      <trkpt lat="44.9176" lon="5.43997">
        <ele>1082</ele>
        <time>2020-05-21T17:19:06.532Z</time>
      </trkpt>
      <trkpt lat="44.91762" lon="5.43999">
        <ele>1082</ele>
        <time>2020-05-21T17:19:07.531Z</time>
      </trkpt>
      <trkpt lat="44.91763" lon="5.44">
        <ele>1083</ele>
        <time>2020-05-21T17:19:08.532Z</time>
      </trkpt>
      <trkpt lat="44.91765" lon="5.44004">
        <ele>1084</ele>
        <time>2020-05-21T17:19:09.532Z</time>
      </trkpt>
      <trkpt lat="44.91766" lon="5.44006">
        <ele>1084</ele>
        <time>2020-05-21T17:19:10.531Z</time>
      </trkpt>
      <trkpt lat="44.91768" lon="5.44008">
        <ele>1084</ele>
        <time>2020-05-21T17:19:11.532Z</time>
      </trkpt>
      <trkpt lat="44.91771" lon="5.4401">
        <ele>1085</ele>
        <time>2020-05-21T17:19:12.531Z</time>
      </trkpt>
      <trkpt lat="44.91774" lon="5.44012">
        <ele>1085</ele>
        <time>2020-05-21T17:19:13.532Z</time>
      </trkpt>
      <trkpt lat="44.91776" lon="5.44013">
        <ele>1085</ele>
        <time>2020-05-21T17:19:14.531Z</time>
      </trkpt>
      <trkpt lat="44.91779" lon="5.44011">
        <ele>1085</ele>
        <time>2020-05-21T17:19:15.532Z</time>
      </trkpt>
      <trkpt lat="44.91782" lon="5.44012">
        <ele>1085</ele>
        <time>2020-05-21T17:19:16.532Z</time>
      </trkpt>
      <trkpt lat="44.91788" lon="5.44017">
        <ele>1083</ele>
        <time>2020-05-21T17:19:17.532Z</time>
      </trkpt>
      <trkpt lat="44.91788" lon="5.44017">
        <ele>1083</ele>
        <time>2020-05-21T17:19:18.532Z</time>
      </trkpt>
      <trkpt lat="44.9179" lon="5.44017">
        <ele>1082</ele>
        <time>2020-05-21T17:19:19.531Z</time>
      </trkpt>
      <trkpt lat="44.91792" lon="5.44017">
        <ele>1082</ele>
        <time>2020-05-21T17:19:20.531Z</time>
      </trkpt>
      <trkpt lat="44.91795" lon="5.44016">
        <ele>1082</ele>
        <time>2020-05-21T17:19:21.532Z</time>
      </trkpt>
      <trkpt lat="44.91797" lon="5.44016">
        <ele>1081</ele>
        <time>2020-05-21T17:19:22.532Z</time>
      </trkpt>
      <trkpt lat="44.91799" lon="5.44016">
        <ele>1081</ele>
        <time>2020-05-21T17:19:23.532Z</time>
      </trkpt>
      <trkpt lat="44.91801" lon="5.44016">
        <ele>1081</ele>
        <time>2020-05-21T17:19:24.532Z</time>
      </trkpt>
      <trkpt lat="44.91803" lon="5.44016">
        <ele>1081</ele>
        <time>2020-05-21T17:19:25.532Z</time>
      </trkpt>
      <trkpt lat="44.91805" lon="5.44016">
        <ele>1081</ele>
        <time>2020-05-21T17:19:26.532Z</time>
      </trkpt>
      <trkpt lat="44.91807" lon="5.44015">
        <ele>1081</ele>
        <time>2020-05-21T17:19:27.531Z</time>
      </trkpt>
      <trkpt lat="44.91809" lon="5.44014">
        <ele>1081</ele>
        <time>2020-05-21T17:19:28.532Z</time>
      </trkpt>
      <trkpt lat="44.91811" lon="5.44014">
        <ele>1080</ele>
        <time>2020-05-21T17:19:29.532Z</time>
      </trkpt>
      <trkpt lat="44.91814" lon="5.44014">
        <ele>1080</ele>
        <time>2020-05-21T17:19:30.531Z</time>
      </trkpt>
      <trkpt lat="44.91816" lon="5.44014">
        <ele>1079</ele>
        <time>2020-05-21T17:19:31.532Z</time>
      </trkpt>
      <trkpt lat="44.91818" lon="5.44014">
        <ele>1079</ele>
        <time>2020-05-21T17:19:32.532Z</time>
      </trkpt>
      <trkpt lat="44.9182" lon="5.44015">
        <ele>1078</ele>
        <time>2020-05-21T17:19:33.532Z</time>
      </trkpt>
      <trkpt lat="44.91822" lon="5.44016">
        <ele>1078</ele>
        <time>2020-05-21T17:19:34.532Z</time>
      </trkpt>
      <trkpt lat="44.91824" lon="5.44015">
        <ele>1077</ele>
        <time>2020-05-21T17:19:35.531Z</time>
      </trkpt>
      <trkpt lat="44.91827" lon="5.44015">
        <ele>1077</ele>
        <time>2020-05-21T17:19:36.532Z</time>
      </trkpt>
      <trkpt lat="44.91829" lon="5.44015">
        <ele>1076</ele>
        <time>2020-05-21T17:19:37.531Z</time>
      </trkpt>
      <trkpt lat="44.91832" lon="5.44014">
        <ele>1076</ele>
        <time>2020-05-21T17:19:38.531Z</time>
      </trkpt>
      <trkpt lat="44.91835" lon="5.44013">
        <ele>1075</ele>
        <time>2020-05-21T17:19:39.531Z</time>
      </trkpt>
      <trkpt lat="44.91837" lon="5.4401">
        <ele>1075</ele>
        <time>2020-05-21T17:19:40.531Z</time>
      </trkpt>
      <trkpt lat="44.9184" lon="5.44009">
        <ele>1074</ele>
        <time>2020-05-21T17:19:41.532Z</time>
      </trkpt>
      <trkpt lat="44.91842" lon="5.44007">
        <ele>1074</ele>
        <time>2020-05-21T17:19:42.531Z</time>
      </trkpt>
      <trkpt lat="44.91845" lon="5.44005">
        <ele>1073</ele>
        <time>2020-05-21T17:19:43.531Z</time>
      </trkpt>
      <trkpt lat="44.91847" lon="5.44004">
        <ele>1073</ele>
        <time>2020-05-21T17:19:44.532Z</time>
      </trkpt>
      <trkpt lat="44.91849" lon="5.44002">
        <ele>1072</ele>
        <time>2020-05-21T17:19:45.532Z</time>
      </trkpt>
      <trkpt lat="44.91851" lon="5.44">
        <ele>1072</ele>
        <time>2020-05-21T17:19:46.531Z</time>
      </trkpt>
      <trkpt lat="44.91854" lon="5.43998">
        <ele>1071</ele>
        <time>2020-05-21T17:19:47.531Z</time>
      </trkpt>
      <trkpt lat="44.91856" lon="5.43995">
        <ele>1071</ele>
        <time>2020-05-21T17:19:48.532Z</time>
      </trkpt>
      <trkpt lat="44.91858" lon="5.43993">
        <ele>1070</ele>
        <time>2020-05-21T17:19:49.532Z</time>
      </trkpt>
      <trkpt lat="44.91861" lon="5.43992">
        <ele>1070</ele>
        <time>2020-05-21T17:19:50.531Z</time>
      </trkpt>
      <trkpt lat="44.91863" lon="5.4399">
        <ele>1070</ele>
        <time>2020-05-21T17:19:51.531Z</time>
      </trkpt>
      <trkpt lat="44.91866" lon="5.43988">
        <ele>1069</ele>
        <time>2020-05-21T17:19:52.531Z</time>
      </trkpt>
      <trkpt lat="44.91869" lon="5.43986">
        <ele>1069</ele>
        <time>2020-05-21T17:19:53.531Z</time>
      </trkpt>
      <trkpt lat="44.91871" lon="5.43985">
        <ele>1069</ele>
        <time>2020-05-21T17:19:54.531Z</time>
      </trkpt>
      <trkpt lat="44.91874" lon="5.43985">
        <ele>1068</ele>
        <time>2020-05-21T17:19:55.531Z</time>
      </trkpt>
      <trkpt lat="44.91876" lon="5.43985">
        <ele>1068</ele>
        <time>2020-05-21T17:19:56.532Z</time>
      </trkpt>
      <trkpt lat="44.91878" lon="5.43985">
        <ele>1068</ele>
        <time>2020-05-21T17:19:57.531Z</time>
      </trkpt>
      <trkpt lat="44.9188" lon="5.43985">
        <ele>1068</ele>
        <time>2020-05-21T17:19:58.531Z</time>
      </trkpt>
      <trkpt lat="44.91882" lon="5.43986">
        <ele>1067</ele>
        <time>2020-05-21T17:19:59.532Z</time>
      </trkpt>
      <trkpt lat="44.91884" lon="5.43987">
        <ele>1067</ele>
        <time>2020-05-21T17:20:00.531Z</time>
      </trkpt>
      <trkpt lat="44.91886" lon="5.43988">
        <ele>1067</ele>
        <time>2020-05-21T17:20:01.532Z</time>
      </trkpt>
      <trkpt lat="44.91889" lon="5.43988">
        <ele>1066</ele>
        <time>2020-05-21T17:20:02.532Z</time>
      </trkpt>
      <trkpt lat="44.91892" lon="5.43989">
        <ele>1066</ele>
        <time>2020-05-21T17:20:03.532Z</time>
      </trkpt>
      <trkpt lat="44.91895" lon="5.43989">
        <ele>1065</ele>
        <time>2020-05-21T17:20:04.532Z</time>
      </trkpt>
      <trkpt lat="44.91897" lon="5.4399">
        <ele>1065</ele>
        <time>2020-05-21T17:20:05.532Z</time>
      </trkpt>
      <trkpt lat="44.919" lon="5.4399">
        <ele>1065</ele>
        <time>2020-05-21T17:20:06.532Z</time>
      </trkpt>
      <trkpt lat="44.91903" lon="5.43992">
        <ele>1065</ele>
        <time>2020-05-21T17:20:07.531Z</time>
      </trkpt>
      <trkpt lat="44.91905" lon="5.43992">
        <ele>1064</ele>
        <time>2020-05-21T17:20:08.532Z</time>
      </trkpt>
      <trkpt lat="44.91908" lon="5.43992">
        <ele>1064</ele>
        <time>2020-05-21T17:20:09.531Z</time>
      </trkpt>
      <trkpt lat="44.91911" lon="5.43993">
        <ele>1064</ele>
        <time>2020-05-21T17:20:10.531Z</time>
      </trkpt>
      <trkpt lat="44.91913" lon="5.43994">
        <ele>1064</ele>
        <time>2020-05-21T17:20:11.532Z</time>
      </trkpt>
      <trkpt lat="44.91915" lon="5.43995">
        <ele>1064</ele>
        <time>2020-05-21T17:20:12.531Z</time>
      </trkpt>
      <trkpt lat="44.91917" lon="5.43996">
        <ele>1065</ele>
        <time>2020-05-21T17:20:13.531Z</time>
      </trkpt>
      <trkpt lat="44.91919" lon="5.43997">
        <ele>1065</ele>
        <time>2020-05-21T17:20:14.532Z</time>
      </trkpt>
      <trkpt lat="44.9192" lon="5.43998">
        <ele>1066</ele>
        <time>2020-05-21T17:20:15.532Z</time>
      </trkpt>
      <trkpt lat="44.91922" lon="5.43997">
        <ele>1067</ele>
        <time>2020-05-21T17:20:16.531Z</time>
      </trkpt>
      <trkpt lat="44.91924" lon="5.43998">
        <ele>1068</ele>
        <time>2020-05-21T17:20:17.532Z</time>
      </trkpt>
      <trkpt lat="44.91926" lon="5.44">
        <ele>1069</ele>
        <time>2020-05-21T17:20:18.532Z</time>
      </trkpt>
      <trkpt lat="44.91927" lon="5.44001">
        <ele>1069</ele>
        <time>2020-05-21T17:20:19.531Z</time>
      </trkpt>
      <trkpt lat="44.91929" lon="5.44002">
        <ele>1070</ele>
        <time>2020-05-21T17:20:20.531Z</time>
      </trkpt>
      <trkpt lat="44.91931" lon="5.44004">
        <ele>1071</ele>
        <time>2020-05-21T17:20:21.531Z</time>
      </trkpt>
      <trkpt lat="44.91932" lon="5.44006">
        <ele>1072</ele>
        <time>2020-05-21T17:20:22.532Z</time>
      </trkpt>
      <trkpt lat="44.91934" lon="5.44007">
        <ele>1073</ele>
        <time>2020-05-21T17:20:23.531Z</time>
      </trkpt>
      <trkpt lat="44.91935" lon="5.44008">
        <ele>1074</ele>
        <time>2020-05-21T17:20:24.531Z</time>
      </trkpt>
      <trkpt lat="44.91937" lon="5.4401">
        <ele>1075</ele>
        <time>2020-05-21T17:20:25.531Z</time>
      </trkpt>
      <trkpt lat="44.91938" lon="5.44012">
        <ele>1076</ele>
        <time>2020-05-21T17:20:26.531Z</time>
      </trkpt>
      <trkpt lat="44.9194" lon="5.44014">
        <ele>1077</ele>
        <time>2020-05-21T17:20:27.532Z</time>
      </trkpt>
      <trkpt lat="44.91941" lon="5.44017">
        <ele>1078</ele>
        <time>2020-05-21T17:20:28.532Z</time>
      </trkpt>
      <trkpt lat="44.91943" lon="5.4402">
        <ele>1078</ele>
        <time>2020-05-21T17:20:29.532Z</time>
      </trkpt>
      <trkpt lat="44.91944" lon="5.44022">
        <ele>1079</ele>
        <time>2020-05-21T17:20:30.531Z</time>
      </trkpt>
      <trkpt lat="44.91946" lon="5.44024">
        <ele>1080</ele>
        <time>2020-05-21T17:20:31.532Z</time>
      </trkpt>
      <trkpt lat="44.91947" lon="5.44026">
        <ele>1081</ele>
        <time>2020-05-21T17:20:32.532Z</time>
      </trkpt>
      <trkpt lat="44.91949" lon="5.44028">
        <ele>1082</ele>
        <time>2020-05-21T17:20:33.532Z</time>
      </trkpt>
      <trkpt lat="44.9195" lon="5.4403">
        <ele>1083</ele>
        <time>2020-05-21T17:20:34.532Z</time>
      </trkpt>
      <trkpt lat="44.91952" lon="5.44032">
        <ele>1084</ele>
        <time>2020-05-21T17:20:35.532Z</time>
      </trkpt>
      <trkpt lat="44.91953" lon="5.44034">
        <ele>1084</ele>
        <time>2020-05-21T17:20:36.532Z</time>
      </trkpt>
      <trkpt lat="44.91955" lon="5.44035">
        <ele>1085</ele>
        <time>2020-05-21T17:20:37.532Z</time>
      </trkpt>
      <trkpt lat="44.91957" lon="5.44038">
        <ele>1085</ele>
        <time>2020-05-21T17:20:38.532Z</time>
      </trkpt>
      <trkpt lat="44.91959" lon="5.4404">
        <ele>1085</ele>
        <time>2020-05-21T17:20:39.531Z</time>
      </trkpt>
      <trkpt lat="44.9196" lon="5.44043">
        <ele>1086</ele>
        <time>2020-05-21T17:20:40.532Z</time>
      </trkpt>
      <trkpt lat="44.91963" lon="5.44045">
        <ele>1086</ele>
        <time>2020-05-21T17:20:41.531Z</time>
      </trkpt>
      <trkpt lat="44.91964" lon="5.44048">
        <ele>1086</ele>
        <time>2020-05-21T17:20:42.532Z</time>
      </trkpt>
      <trkpt lat="44.91966" lon="5.44051">
        <ele>1086</ele>
        <time>2020-05-21T17:20:43.532Z</time>
      </trkpt>
      <trkpt lat="44.91968" lon="5.44053">
        <ele>1086</ele>
        <time>2020-05-21T17:20:44.531Z</time>
      </trkpt>
      <trkpt lat="44.91969" lon="5.44056">
        <ele>1086</ele>
        <time>2020-05-21T17:20:45.531Z</time>
      </trkpt>
      <trkpt lat="44.91972" lon="5.44059">
        <ele>1086</ele>
        <time>2020-05-21T17:20:46.532Z</time>
      </trkpt>
      <trkpt lat="44.91975" lon="5.44063">
        <ele>1086</ele>
        <time>2020-05-21T17:20:47.532Z</time>
      </trkpt>
      <trkpt lat="44.91977" lon="5.44066">
        <ele>1086</ele>
        <time>2020-05-21T17:20:48.532Z</time>
      </trkpt>
      <trkpt lat="44.91979" lon="5.44069">
        <ele>1086</ele>
        <time>2020-05-21T17:20:49.531Z</time>
      </trkpt>
      <trkpt lat="44.9198" lon="5.44071">
        <ele>1086</ele>
        <time>2020-05-21T17:20:50.532Z</time>
      </trkpt>
      <trkpt lat="44.91981" lon="5.44073">
        <ele>1085</ele>
        <time>2020-05-21T17:20:51.532Z</time>
      </trkpt>
      <trkpt lat="44.91982" lon="5.44076">
        <ele>1085</ele>
        <time>2020-05-21T17:20:52.532Z</time>
      </trkpt>
      <trkpt lat="44.91983" lon="5.44079">
        <ele>1084</ele>
        <time>2020-05-21T17:20:53.531Z</time>
      </trkpt>
      <trkpt lat="44.91985" lon="5.44082">
        <ele>1083</ele>
        <time>2020-05-21T17:20:54.532Z</time>
      </trkpt>
      <trkpt lat="44.91986" lon="5.44084">
        <ele>1083</ele>
        <time>2020-05-21T17:20:55.531Z</time>
      </trkpt>
      <trkpt lat="44.91987" lon="5.44086">
        <ele>1082</ele>
        <time>2020-05-21T17:20:56.532Z</time>
      </trkpt>
      <trkpt lat="44.91988" lon="5.44087">
        <ele>1082</ele>
        <time>2020-05-21T17:20:57.532Z</time>
      </trkpt>
      <trkpt lat="44.9199" lon="5.44087">
        <ele>1081</ele>
        <time>2020-05-21T17:20:58.531Z</time>
      </trkpt>
      <trkpt lat="44.91991" lon="5.44088">
        <ele>1080</ele>
        <time>2020-05-21T17:20:59.532Z</time>
      </trkpt>
      <trkpt lat="44.91993" lon="5.44088">
        <ele>1080</ele>
        <time>2020-05-21T17:21:00.532Z</time>
      </trkpt>
      <trkpt lat="44.91995" lon="5.44088">
        <ele>1079</ele>
        <time>2020-05-21T17:21:01.532Z</time>
      </trkpt>
      <trkpt lat="44.91997" lon="5.44086">
        <ele>1079</ele>
        <time>2020-05-21T17:21:02.532Z</time>
      </trkpt>
      <trkpt lat="44.91998" lon="5.44086">
        <ele>1079</ele>
        <time>2020-05-21T17:21:03.532Z</time>
      </trkpt>
      <trkpt lat="44.92" lon="5.44084">
        <ele>1078</ele>
        <time>2020-05-21T17:21:04.532Z</time>
      </trkpt>
      <trkpt lat="44.92002" lon="5.44085">
        <ele>1078</ele>
        <time>2020-05-21T17:21:05.532Z</time>
      </trkpt>
      <trkpt lat="44.92004" lon="5.44083">
        <ele>1078</ele>
        <time>2020-05-21T17:21:06.532Z</time>
      </trkpt>
      <trkpt lat="44.92007" lon="5.44081">
        <ele>1078</ele>
        <time>2020-05-21T17:21:07.532Z</time>
      </trkpt>
      <trkpt lat="44.92009" lon="5.44081">
        <ele>1077</ele>
        <time>2020-05-21T17:21:08.532Z</time>
      </trkpt>
      <trkpt lat="44.92012" lon="5.44081">
        <ele>1077</ele>
        <time>2020-05-21T17:21:09.532Z</time>
      </trkpt>
      <trkpt lat="44.92015" lon="5.4408">
        <ele>1077</ele>
        <time>2020-05-21T17:21:10.532Z</time>
      </trkpt>
      <trkpt lat="44.92017" lon="5.44081">
        <ele>1076</ele>
        <time>2020-05-21T17:21:11.531Z</time>
      </trkpt>
      <trkpt lat="44.92019" lon="5.44081">
        <ele>1076</ele>
        <time>2020-05-21T17:21:12.531Z</time>
      </trkpt>
      <trkpt lat="44.92021" lon="5.44082">
        <ele>1076</ele>
        <time>2020-05-21T17:21:13.531Z</time>
      </trkpt>
      <trkpt lat="44.92023" lon="5.44082">
        <ele>1075</ele>
        <time>2020-05-21T17:21:14.531Z</time>
      </trkpt>
      <trkpt lat="44.92026" lon="5.44082">
        <ele>1075</ele>
        <time>2020-05-21T17:21:15.532Z</time>
      </trkpt>
      <trkpt lat="44.92028" lon="5.44083">
        <ele>1075</ele>
        <time>2020-05-21T17:21:16.531Z</time>
      </trkpt>
      <trkpt lat="44.92031" lon="5.44084">
        <ele>1074</ele>
        <time>2020-05-21T17:21:17.532Z</time>
      </trkpt>
      <trkpt lat="44.92033" lon="5.44085">
        <ele>1074</ele>
        <time>2020-05-21T17:21:18.531Z</time>
      </trkpt>
      <trkpt lat="44.92035" lon="5.44086">
        <ele>1073</ele>
        <time>2020-05-21T17:21:19.532Z</time>
      </trkpt>
      <trkpt lat="44.92038" lon="5.44086">
        <ele>1073</ele>
        <time>2020-05-21T17:21:20.532Z</time>
      </trkpt>
      <trkpt lat="44.9204" lon="5.44086">
        <ele>1073</ele>
        <time>2020-05-21T17:21:21.532Z</time>
      </trkpt>
      <trkpt lat="44.92042" lon="5.44086">
        <ele>1073</ele>
        <time>2020-05-21T17:21:22.532Z</time>
      </trkpt>
      <trkpt lat="44.92045" lon="5.44087">
        <ele>1073</ele>
        <time>2020-05-21T17:21:23.532Z</time>
      </trkpt>
      <trkpt lat="44.92047" lon="5.44087">
        <ele>1072</ele>
        <time>2020-05-21T17:21:24.532Z</time>
      </trkpt>
      <trkpt lat="44.92049" lon="5.44088">
        <ele>1072</ele>
        <time>2020-05-21T17:21:25.531Z</time>
      </trkpt>
      <trkpt lat="44.92052" lon="5.4409">
        <ele>1072</ele>
        <time>2020-05-21T17:21:26.531Z</time>
      </trkpt>
      <trkpt lat="44.92055" lon="5.44091">
        <ele>1071</ele>
        <time>2020-05-21T17:21:27.532Z</time>
      </trkpt>
      <trkpt lat="44.92057" lon="5.44091">
        <ele>1071</ele>
        <time>2020-05-21T17:21:28.532Z</time>
      </trkpt>
      <trkpt lat="44.92059" lon="5.4409">
        <ele>1071</ele>
        <time>2020-05-21T17:21:29.532Z</time>
      </trkpt>
      <trkpt lat="44.92061" lon="5.44092">
        <ele>1070</ele>
        <time>2020-05-21T17:21:30.531Z</time>
      </trkpt>
      <trkpt lat="44.92063" lon="5.44093">
        <ele>1070</ele>
        <time>2020-05-21T17:21:31.532Z</time>
      </trkpt>
      <trkpt lat="44.92066" lon="5.44094">
        <ele>1069</ele>
        <time>2020-05-21T17:21:32.531Z</time>
      </trkpt>
      <trkpt lat="44.92068" lon="5.44096">
        <ele>1069</ele>
        <time>2020-05-21T17:21:33.532Z</time>
      </trkpt>
      <trkpt lat="44.92071" lon="5.44097">
        <ele>1068</ele>
        <time>2020-05-21T17:21:34.531Z</time>
      </trkpt>
      <trkpt lat="44.92074" lon="5.44098">
        <ele>1068</ele>
        <time>2020-05-21T17:21:35.532Z</time>
      </trkpt>
      <trkpt lat="44.92076" lon="5.44099">
        <ele>1067</ele>
        <time>2020-05-21T17:21:36.532Z</time>
      </trkpt>
      <trkpt lat="44.92078" lon="5.441">
        <ele>1067</ele>
        <time>2020-05-21T17:21:37.532Z</time>
      </trkpt>
      <trkpt lat="44.92081" lon="5.44101">
        <ele>1067</ele>
        <time>2020-05-21T17:21:38.532Z</time>
      </trkpt>
      <trkpt lat="44.92083" lon="5.44103">
        <ele>1066</ele>
        <time>2020-05-21T17:21:39.532Z</time>
      </trkpt>
      <trkpt lat="44.92085" lon="5.44104">
        <ele>1066</ele>
        <time>2020-05-21T17:21:40.531Z</time>
      </trkpt>
      <trkpt lat="44.92088" lon="5.44106">
        <ele>1065</ele>
        <time>2020-05-21T17:21:41.532Z</time>
      </trkpt>
      <trkpt lat="44.9209" lon="5.44107">
        <ele>1065</ele>
        <time>2020-05-21T17:21:42.532Z</time>
      </trkpt>
      <trkpt lat="44.92093" lon="5.44108">
        <ele>1064</ele>
        <time>2020-05-21T17:21:43.531Z</time>
      </trkpt>
      <trkpt lat="44.92095" lon="5.44109">
        <ele>1064</ele>
        <time>2020-05-21T17:21:44.531Z</time>
      </trkpt>
      <trkpt lat="44.92098" lon="5.4411">
        <ele>1063</ele>
        <time>2020-05-21T17:21:45.531Z</time>
      </trkpt>
      <trkpt lat="44.921" lon="5.44111">
        <ele>1062</ele>
        <time>2020-05-21T17:21:46.532Z</time>
      </trkpt>
      <trkpt lat="44.92102" lon="5.44113">
        <ele>1062</ele>
        <time>2020-05-21T17:21:47.531Z</time>
      </trkpt>
      <trkpt lat="44.92104" lon="5.44114">
        <ele>1061</ele>
        <time>2020-05-21T17:21:48.532Z</time>
      </trkpt>
      <trkpt lat="44.92107" lon="5.44116">
        <ele>1061</ele>
        <time>2020-05-21T17:21:49.531Z</time>
      </trkpt>
      <trkpt lat="44.92109" lon="5.44117">
        <ele>1061</ele>
        <time>2020-05-21T17:21:50.531Z</time>
      </trkpt>
      <trkpt lat="44.92111" lon="5.44119">
        <ele>1060</ele>
        <time>2020-05-21T17:21:51.531Z</time>
      </trkpt>
      <trkpt lat="44.92113" lon="5.4412">
        <ele>1060</ele>
        <time>2020-05-21T17:21:52.532Z</time>
      </trkpt>
      <trkpt lat="44.92116" lon="5.44121">
        <ele>1060</ele>
        <time>2020-05-21T17:21:53.531Z</time>
      </trkpt>
      <trkpt lat="44.92119" lon="5.44122">
        <ele>1060</ele>
        <time>2020-05-21T17:21:54.532Z</time>
      </trkpt>
      <trkpt lat="44.92123" lon="5.44124">
        <ele>1059</ele>
        <time>2020-05-21T17:21:55.531Z</time>
      </trkpt>
      <trkpt lat="44.92126" lon="5.44125">
        <ele>1059</ele>
        <time>2020-05-21T17:21:56.532Z</time>
      </trkpt>
      <trkpt lat="44.92128" lon="5.44127">
        <ele>1059</ele>
        <time>2020-05-21T17:21:57.532Z</time>
      </trkpt>
      <trkpt lat="44.9213" lon="5.44127">
        <ele>1058</ele>
        <time>2020-05-21T17:21:58.532Z</time>
      </trkpt>
      <trkpt lat="44.92133" lon="5.44128">
        <ele>1058</ele>
        <time>2020-05-21T17:21:59.532Z</time>
      </trkpt>
      <trkpt lat="44.92135" lon="5.44129">
        <ele>1058</ele>
        <time>2020-05-21T17:22:00.532Z</time>
      </trkpt>
      <trkpt lat="44.92138" lon="5.44131">
        <ele>1057</ele>
        <time>2020-05-21T17:22:01.532Z</time>
      </trkpt>
      <trkpt lat="44.9214" lon="5.44133">
        <ele>1057</ele>
        <time>2020-05-21T17:22:02.532Z</time>
      </trkpt>
      <trkpt lat="44.92142" lon="5.44134">
        <ele>1057</ele>
        <time>2020-05-21T17:22:03.532Z</time>
      </trkpt>
      <trkpt lat="44.92144" lon="5.44136">
        <ele>1056</ele>
        <time>2020-05-21T17:22:04.531Z</time>
      </trkpt>
      <trkpt lat="44.92147" lon="5.44137">
        <ele>1056</ele>
        <time>2020-05-21T17:22:05.531Z</time>
      </trkpt>
      <trkpt lat="44.92149" lon="5.44138">
        <ele>1056</ele>
        <time>2020-05-21T17:22:06.532Z</time>
      </trkpt>
      <trkpt lat="44.92151" lon="5.4414">
        <ele>1056</ele>
        <time>2020-05-21T17:22:07.531Z</time>
      </trkpt>
      <trkpt lat="44.92153" lon="5.44141">
        <ele>1056</ele>
        <time>2020-05-21T17:22:08.531Z</time>
      </trkpt>
      <trkpt lat="44.92155" lon="5.44142">
        <ele>1056</ele>
        <time>2020-05-21T17:22:09.532Z</time>
      </trkpt>
      <trkpt lat="44.92157" lon="5.44144">
        <ele>1055</ele>
        <time>2020-05-21T17:22:10.532Z</time>
      </trkpt>
      <trkpt lat="44.92158" lon="5.44146">
        <ele>1055</ele>
        <time>2020-05-21T17:22:11.532Z</time>
      </trkpt>
      <trkpt lat="44.9216" lon="5.44148">
        <ele>1055</ele>
        <time>2020-05-21T17:22:12.532Z</time>
      </trkpt>
      <trkpt lat="44.92162" lon="5.4415">
        <ele>1054</ele>
        <time>2020-05-21T17:22:13.531Z</time>
      </trkpt>
      <trkpt lat="44.92163" lon="5.44152">
        <ele>1054</ele>
        <time>2020-05-21T17:22:14.532Z</time>
      </trkpt>
      <trkpt lat="44.92165" lon="5.44154">
        <ele>1053</ele>
        <time>2020-05-21T17:22:15.531Z</time>
      </trkpt>
      <trkpt lat="44.92166" lon="5.44156">
        <ele>1053</ele>
        <time>2020-05-21T17:22:16.531Z</time>
      </trkpt>
      <trkpt lat="44.92168" lon="5.44157">
        <ele>1052</ele>
        <time>2020-05-21T17:22:17.531Z</time>
      </trkpt>
      <trkpt lat="44.92169" lon="5.44159">
        <ele>1052</ele>
        <time>2020-05-21T17:22:18.532Z</time>
      </trkpt>
      <trkpt lat="44.9217" lon="5.44161">
        <ele>1052</ele>
        <time>2020-05-21T17:22:19.532Z</time>
      </trkpt>
      <trkpt lat="44.92172" lon="5.44164">
        <ele>1052</ele>
        <time>2020-05-21T17:22:20.531Z</time>
      </trkpt>
      <trkpt lat="44.92173" lon="5.44166">
        <ele>1052</ele>
        <time>2020-05-21T17:22:21.531Z</time>
      </trkpt>
      <trkpt lat="44.92175" lon="5.44168">
        <ele>1052</ele>
        <time>2020-05-21T17:22:22.532Z</time>
      </trkpt>
      <trkpt lat="44.92176" lon="5.44171">
        <ele>1052</ele>
        <time>2020-05-21T17:22:23.532Z</time>
      </trkpt>
      <trkpt lat="44.92178" lon="5.44173">
        <ele>1052</ele>
        <time>2020-05-21T17:22:24.532Z</time>
      </trkpt>
      <trkpt lat="44.92181" lon="5.44175">
        <ele>1052</ele>
        <time>2020-05-21T17:22:25.532Z</time>
      </trkpt>
      <trkpt lat="44.92182" lon="5.44178">
        <ele>1052</ele>
        <time>2020-05-21T17:22:26.532Z</time>
      </trkpt>
      <trkpt lat="44.92184" lon="5.44181">
        <ele>1052</ele>
        <time>2020-05-21T17:22:27.531Z</time>
      </trkpt>
      <trkpt lat="44.92185" lon="5.44184">
        <ele>1052</ele>
        <time>2020-05-21T17:22:28.532Z</time>
      </trkpt>
      <trkpt lat="44.92185" lon="5.44186">
        <ele>1052</ele>
        <time>2020-05-21T17:22:29.532Z</time>
      </trkpt>
      <trkpt lat="44.92186" lon="5.44189">
        <ele>1052</ele>
        <time>2020-05-21T17:22:30.532Z</time>
      </trkpt>
      <trkpt lat="44.92187" lon="5.44191">
        <ele>1052</ele>
        <time>2020-05-21T17:22:31.531Z</time>
      </trkpt>
      <trkpt lat="44.92188" lon="5.44192">
        <ele>1052</ele>
        <time>2020-05-21T17:22:32.531Z</time>
      </trkpt>
      <trkpt lat="44.9219" lon="5.44194">
        <ele>1052</ele>
        <time>2020-05-21T17:22:33.531Z</time>
      </trkpt>
      <trkpt lat="44.92191" lon="5.44194">
        <ele>1053</ele>
        <time>2020-05-21T17:22:34.532Z</time>
      </trkpt>
      <trkpt lat="44.92194" lon="5.44195">
        <ele>1053</ele>
        <time>2020-05-21T17:22:35.532Z</time>
      </trkpt>
      <trkpt lat="44.92196" lon="5.44197">
        <ele>1053</ele>
        <time>2020-05-21T17:22:36.532Z</time>
      </trkpt>
      <trkpt lat="44.92198" lon="5.44198">
        <ele>1052</ele>
        <time>2020-05-21T17:22:37.532Z</time>
      </trkpt>
      <trkpt lat="44.922" lon="5.44198">
        <ele>1052</ele>
        <time>2020-05-21T17:22:38.532Z</time>
      </trkpt>
      <trkpt lat="44.92202" lon="5.44199">
        <ele>1052</ele>
        <time>2020-05-21T17:22:39.532Z</time>
      </trkpt>
      <trkpt lat="44.92204" lon="5.44199">
        <ele>1052</ele>
        <time>2020-05-21T17:22:40.531Z</time>
      </trkpt>
      <trkpt lat="44.92207" lon="5.44198">
        <ele>1051</ele>
        <time>2020-05-21T17:22:41.532Z</time>
      </trkpt>
      <trkpt lat="44.92209" lon="5.44199">
        <ele>1051</ele>
        <time>2020-05-21T17:22:42.532Z</time>
      </trkpt>
      <trkpt lat="44.92211" lon="5.44199">
        <ele>1050</ele>
        <time>2020-05-21T17:22:43.532Z</time>
      </trkpt>
      <trkpt lat="44.92213" lon="5.44198">
        <ele>1050</ele>
        <time>2020-05-21T17:22:44.532Z</time>
      </trkpt>
      <trkpt lat="44.92216" lon="5.44197">
        <ele>1049</ele>
        <time>2020-05-21T17:22:45.531Z</time>
      </trkpt>
      <trkpt lat="44.92218" lon="5.44196">
        <ele>1049</ele>
        <time>2020-05-21T17:22:46.532Z</time>
      </trkpt>
      <trkpt lat="44.9222" lon="5.44195">
        <ele>1048</ele>
        <time>2020-05-21T17:22:47.532Z</time>
      </trkpt>
      <trkpt lat="44.92222" lon="5.44194">
        <ele>1048</ele>
        <time>2020-05-21T17:22:48.531Z</time>
      </trkpt>
      <trkpt lat="44.92224" lon="5.44192">
        <ele>1047</ele>
        <time>2020-05-21T17:22:49.531Z</time>
      </trkpt>
      <trkpt lat="44.92226" lon="5.44191">
        <ele>1047</ele>
        <time>2020-05-21T17:22:50.531Z</time>
      </trkpt>
      <trkpt lat="44.92228" lon="5.4419">
        <ele>1046</ele>
        <time>2020-05-21T17:22:51.531Z</time>
      </trkpt>
      <trkpt lat="44.9223" lon="5.44188">
        <ele>1046</ele>
        <time>2020-05-21T17:22:52.532Z</time>
      </trkpt>
      <trkpt lat="44.92232" lon="5.44186">
        <ele>1046</ele>
        <time>2020-05-21T17:22:53.531Z</time>
      </trkpt>
      <trkpt lat="44.92233" lon="5.44183">
        <ele>1045</ele>
        <time>2020-05-21T17:22:54.532Z</time>
      </trkpt>
      <trkpt lat="44.92234" lon="5.4418">
        <ele>1045</ele>
        <time>2020-05-21T17:22:55.531Z</time>
      </trkpt>
      <trkpt lat="44.92235" lon="5.44178">
        <ele>1045</ele>
        <time>2020-05-21T17:22:56.532Z</time>
      </trkpt>
      <trkpt lat="44.92236" lon="5.44175">
        <ele>1045</ele>
        <time>2020-05-21T17:22:57.532Z</time>
      </trkpt>
      <trkpt lat="44.92237" lon="5.44173">
        <ele>1044</ele>
        <time>2020-05-21T17:22:58.532Z</time>
      </trkpt>
      <trkpt lat="44.92238" lon="5.4417">
        <ele>1044</ele>
        <time>2020-05-21T17:22:59.531Z</time>
      </trkpt>
      <trkpt lat="44.92238" lon="5.44167">
        <ele>1045</ele>
        <time>2020-05-21T17:23:00.531Z</time>
      </trkpt>
      <trkpt lat="44.92239" lon="5.44165">
        <ele>1045</ele>
        <time>2020-05-21T17:23:01.532Z</time>
      </trkpt>
      <trkpt lat="44.9224" lon="5.44163">
        <ele>1045</ele>
        <time>2020-05-21T17:23:02.532Z</time>
      </trkpt>
      <trkpt lat="44.92241" lon="5.44161">
        <ele>1045</ele>
        <time>2020-05-21T17:23:03.531Z</time>
      </trkpt>
      <trkpt lat="44.92243" lon="5.44159">
        <ele>1045</ele>
        <time>2020-05-21T17:23:04.532Z</time>
      </trkpt>
      <trkpt lat="44.92245" lon="5.44158">
        <ele>1046</ele>
        <time>2020-05-21T17:23:05.532Z</time>
      </trkpt>
      <trkpt lat="44.92248" lon="5.44157">
        <ele>1046</ele>
        <time>2020-05-21T17:23:06.531Z</time>
      </trkpt>
      <trkpt lat="44.9225" lon="5.44156">
        <ele>1047</ele>
        <time>2020-05-21T17:23:07.532Z</time>
      </trkpt>
      <trkpt lat="44.92252" lon="5.44156">
        <ele>1047</ele>
        <time>2020-05-21T17:23:08.532Z</time>
      </trkpt>
      <trkpt lat="44.92254" lon="5.44155">
        <ele>1048</ele>
        <time>2020-05-21T17:23:09.531Z</time>
      </trkpt>
      <trkpt lat="44.92256" lon="5.44154">
        <ele>1049</ele>
        <time>2020-05-21T17:23:10.532Z</time>
      </trkpt>
      <trkpt lat="44.92258" lon="5.44154">
        <ele>1049</ele>
        <time>2020-05-21T17:23:11.531Z</time>
      </trkpt>
      <trkpt lat="44.9226" lon="5.44154">
        <ele>1050</ele>
        <time>2020-05-21T17:23:12.532Z</time>
      </trkpt>
      <trkpt lat="44.92262" lon="5.44154">
        <ele>1050</ele>
        <time>2020-05-21T17:23:13.531Z</time>
      </trkpt>
      <trkpt lat="44.92264" lon="5.44155">
        <ele>1051</ele>
        <time>2020-05-21T17:23:14.531Z</time>
      </trkpt>
      <trkpt lat="44.92266" lon="5.44155">
        <ele>1051</ele>
        <time>2020-05-21T17:23:15.531Z</time>
      </trkpt>
      <trkpt lat="44.92268" lon="5.44155">
        <ele>1051</ele>
        <time>2020-05-21T17:23:16.531Z</time>
      </trkpt>
      <trkpt lat="44.9227" lon="5.44154">
        <ele>1052</ele>
        <time>2020-05-21T17:23:17.532Z</time>
      </trkpt>
      <trkpt lat="44.92271" lon="5.44154">
        <ele>1052</ele>
        <time>2020-05-21T17:23:18.531Z</time>
      </trkpt>
      <trkpt lat="44.92273" lon="5.44151">
        <ele>1055</ele>
        <time>2020-05-21T17:23:19.533Z</time>
      </trkpt>
      <trkpt lat="44.92273" lon="5.44151">
        <ele>1055</ele>
        <time>2020-05-21T17:23:20.532Z</time>
      </trkpt>
      <trkpt lat="44.92273" lon="5.44151">
        <ele>1055</ele>
        <time>2020-05-21T17:23:21.532Z</time>
      </trkpt>
      <trkpt lat="44.92273" lon="5.44151">
        <ele>1055</ele>
        <time>2020-05-21T17:23:22.532Z</time>
      </trkpt>
      <trkpt lat="44.92273" lon="5.44151">
        <ele>1055</ele>
        <time>2020-05-21T17:23:23.533Z</time>
      </trkpt>
      <trkpt lat="44.92274" lon="5.44151">
        <ele>1055</ele>
        <time>2020-05-21T17:23:24.533Z</time>
      </trkpt>
      <trkpt lat="44.92276" lon="5.44152">
        <ele>1055</ele>
        <time>2020-05-21T17:23:25.533Z</time>
      </trkpt>
      <trkpt lat="44.92277" lon="5.44152">
        <ele>1055</ele>
        <time>2020-05-21T17:23:26.533Z</time>
      </trkpt>
      <trkpt lat="44.92279" lon="5.44152">
        <ele>1055</ele>
        <time>2020-05-21T17:23:27.533Z</time>
      </trkpt>
      <trkpt lat="44.92279" lon="5.44153">
        <ele>1054</ele>
        <time>2020-05-21T17:23:28.532Z</time>
      </trkpt>
      <trkpt lat="44.9228" lon="5.44152">
        <ele>1054</ele>
        <time>2020-05-21T17:23:29.532Z</time>
      </trkpt>
      <trkpt lat="44.92281" lon="5.44153">
        <ele>1053</ele>
        <time>2020-05-21T17:23:30.533Z</time>
      </trkpt>
      <trkpt lat="44.92283" lon="5.44154">
        <ele>1053</ele>
        <time>2020-05-21T17:23:31.532Z</time>
      </trkpt>
      <trkpt lat="44.92286" lon="5.44156">
        <ele>1052</ele>
        <time>2020-05-21T17:23:32.533Z</time>
      </trkpt>
      <trkpt lat="44.92287" lon="5.44157">
        <ele>1052</ele>
        <time>2020-05-21T17:23:33.533Z</time>
      </trkpt>
      <trkpt lat="44.92289" lon="5.44157">
        <ele>1052</ele>
        <time>2020-05-21T17:23:34.533Z</time>
      </trkpt>
      <trkpt lat="44.92291" lon="5.44158">
        <ele>1052</ele>
        <time>2020-05-21T17:23:35.532Z</time>
      </trkpt>
      <trkpt lat="44.92293" lon="5.44158">
        <ele>1052</ele>
        <time>2020-05-21T17:23:36.532Z</time>
      </trkpt>
      <trkpt lat="44.92295" lon="5.44159">
        <ele>1052</ele>
        <time>2020-05-21T17:23:37.532Z</time>
      </trkpt>
      <trkpt lat="44.92297" lon="5.4416">
        <ele>1052</ele>
        <time>2020-05-21T17:23:38.533Z</time>
      </trkpt>
      <trkpt lat="44.92299" lon="5.4416">
        <ele>1052</ele>
        <time>2020-05-21T17:23:39.533Z</time>
      </trkpt>
      <trkpt lat="44.92301" lon="5.44161">
        <ele>1051</ele>
        <time>2020-05-21T17:23:40.533Z</time>
      </trkpt>
      <trkpt lat="44.92303" lon="5.44162">
        <ele>1050</ele>
        <time>2020-05-21T17:23:41.533Z</time>
      </trkpt>
      <trkpt lat="44.92305" lon="5.44164">
        <ele>1050</ele>
        <time>2020-05-21T17:23:42.532Z</time>
      </trkpt>
      <trkpt lat="44.92307" lon="5.44165">
        <ele>1049</ele>
        <time>2020-05-21T17:23:43.533Z</time>
      </trkpt>
      <trkpt lat="44.92309" lon="5.44166">
        <ele>1049</ele>
        <time>2020-05-21T17:23:44.533Z</time>
      </trkpt>
      <trkpt lat="44.92311" lon="5.44167">
        <ele>1049</ele>
        <time>2020-05-21T17:23:45.533Z</time>
      </trkpt>
      <trkpt lat="44.92312" lon="5.44168">
        <ele>1049</ele>
        <time>2020-05-21T17:23:46.533Z</time>
      </trkpt>
      <trkpt lat="44.92313" lon="5.44169">
        <ele>1049</ele>
        <time>2020-05-21T17:23:47.533Z</time>
      </trkpt>
      <trkpt lat="44.92315" lon="5.44171">
        <ele>1049</ele>
        <time>2020-05-21T17:23:48.533Z</time>
      </trkpt>
      <trkpt lat="44.92316" lon="5.44173">
        <ele>1049</ele>
        <time>2020-05-21T17:23:49.532Z</time>
      </trkpt>
      <trkpt lat="44.92317" lon="5.44175">
        <ele>1049</ele>
        <time>2020-05-21T17:23:50.533Z</time>
      </trkpt>
      <trkpt lat="44.92319" lon="5.44177">
        <ele>1049</ele>
        <time>2020-05-21T17:23:51.533Z</time>
      </trkpt>
      <trkpt lat="44.92321" lon="5.44177">
        <ele>1048</ele>
        <time>2020-05-21T17:23:52.532Z</time>
      </trkpt>
      <trkpt lat="44.92324" lon="5.44177">
        <ele>1048</ele>
        <time>2020-05-21T17:23:53.533Z</time>
      </trkpt>
      <trkpt lat="44.92326" lon="5.44176">
        <ele>1047</ele>
        <time>2020-05-21T17:23:54.532Z</time>
      </trkpt>
      <trkpt lat="44.92328" lon="5.44175">
        <ele>1046</ele>
        <time>2020-05-21T17:23:55.532Z</time>
      </trkpt>
      <trkpt lat="44.9233" lon="5.44175">
        <ele>1046</ele>
        <time>2020-05-21T17:23:56.533Z</time>
      </trkpt>
      <trkpt lat="44.92332" lon="5.44175">
        <ele>1045</ele>
        <time>2020-05-21T17:23:57.533Z</time>
      </trkpt>
      <trkpt lat="44.92333" lon="5.44174">
        <ele>1045</ele>
        <time>2020-05-21T17:23:58.533Z</time>
      </trkpt>
      <trkpt lat="44.92335" lon="5.44174">
        <ele>1045</ele>
        <time>2020-05-21T17:23:59.533Z</time>
      </trkpt>
      <trkpt lat="44.92337" lon="5.44175">
        <ele>1045</ele>
        <time>2020-05-21T17:24:00.533Z</time>
      </trkpt>
      <trkpt lat="44.92339" lon="5.44176">
        <ele>1045</ele>
        <time>2020-05-21T17:24:01.533Z</time>
      </trkpt>
      <trkpt lat="44.92341" lon="5.44177">
        <ele>1045</ele>
        <time>2020-05-21T17:24:02.532Z</time>
      </trkpt>
      <trkpt lat="44.92343" lon="5.44178">
        <ele>1044</ele>
        <time>2020-05-21T17:24:03.532Z</time>
      </trkpt>
      <trkpt lat="44.92345" lon="5.44178">
        <ele>1044</ele>
        <time>2020-05-21T17:24:04.533Z</time>
      </trkpt>
      <trkpt lat="44.92348" lon="5.44179">
        <ele>1044</ele>
        <time>2020-05-21T17:24:05.533Z</time>
      </trkpt>
      <trkpt lat="44.9235" lon="5.4418">
        <ele>1045</ele>
        <time>2020-05-21T17:24:06.533Z</time>
      </trkpt>
      <trkpt lat="44.92352" lon="5.44181">
        <ele>1045</ele>
        <time>2020-05-21T17:24:07.533Z</time>
      </trkpt>
      <trkpt lat="44.92354" lon="5.44182">
        <ele>1045</ele>
        <time>2020-05-21T17:24:08.533Z</time>
      </trkpt>
      <trkpt lat="44.92356" lon="5.44183">
        <ele>1045</ele>
        <time>2020-05-21T17:24:09.533Z</time>
      </trkpt>
      <trkpt lat="44.92358" lon="5.44184">
        <ele>1044</ele>
        <time>2020-05-21T17:24:10.533Z</time>
      </trkpt>
      <trkpt lat="44.92359" lon="5.44184">
        <ele>1044</ele>
        <time>2020-05-21T17:24:11.533Z</time>
      </trkpt>
      <trkpt lat="44.92359" lon="5.44184">
        <ele>1044</ele>
        <time>2020-05-21T17:24:12.533Z</time>
      </trkpt>
      <trkpt lat="44.92358" lon="5.44182">
        <ele>1044</ele>
        <time>2020-05-21T17:24:13.533Z</time>
      </trkpt>
      <trkpt lat="44.92357" lon="5.44181">
        <ele>1044</ele>
        <time>2020-05-21T17:24:14.533Z</time>
      </trkpt>
      <trkpt lat="44.92355" lon="5.4418">
        <ele>1044</ele>
        <time>2020-05-21T17:24:15.533Z</time>
      </trkpt>
      <trkpt lat="44.92353" lon="5.44178">
        <ele>1044</ele>
        <time>2020-05-21T17:24:16.533Z</time>
      </trkpt>
      <trkpt lat="44.92351" lon="5.44177">
        <ele>1044</ele>
        <time>2020-05-21T17:24:17.533Z</time>
      </trkpt>
      <trkpt lat="44.9235" lon="5.44175">
        <ele>1044</ele>
        <time>2020-05-21T17:24:18.532Z</time>
      </trkpt>
      <trkpt lat="44.92348" lon="5.44173">
        <ele>1044</ele>
        <time>2020-05-21T17:24:19.532Z</time>
      </trkpt>
      <trkpt lat="44.92346" lon="5.44171">
        <ele>1044</ele>
        <time>2020-05-21T17:24:20.533Z</time>
      </trkpt>
      <trkpt lat="44.92345" lon="5.44169">
        <ele>1044</ele>
        <time>2020-05-21T17:24:21.533Z</time>
      </trkpt>
      <trkpt lat="44.92343" lon="5.44167">
        <ele>1044</ele>
        <time>2020-05-21T17:24:22.533Z</time>
      </trkpt>
      <trkpt lat="44.92342" lon="5.44165">
        <ele>1044</ele>
        <time>2020-05-21T17:24:23.533Z</time>
      </trkpt>
      <trkpt lat="44.92341" lon="5.44163">
        <ele>1044</ele>
        <time>2020-05-21T17:24:24.533Z</time>
      </trkpt>
      <trkpt lat="44.9234" lon="5.4416">
        <ele>1043</ele>
        <time>2020-05-21T17:24:25.533Z</time>
      </trkpt>
      <trkpt lat="44.9234" lon="5.44159">
        <ele>1043</ele>
        <time>2020-05-21T17:24:26.533Z</time>
      </trkpt>
      <trkpt lat="44.92341" lon="5.4416">
        <ele>1042</ele>
        <time>2020-05-21T17:24:27.532Z</time>
      </trkpt>
      <trkpt lat="44.92342" lon="5.44161">
        <ele>1042</ele>
        <time>2020-05-21T17:24:28.533Z</time>
      </trkpt>
      <trkpt lat="44.92344" lon="5.44162">
        <ele>1041</ele>
        <time>2020-05-21T17:24:29.533Z</time>
      </trkpt>
      <trkpt lat="44.92346" lon="5.44163">
        <ele>1041</ele>
        <time>2020-05-21T17:24:30.532Z</time>
      </trkpt>
      <trkpt lat="44.92348" lon="5.44164">
        <ele>1041</ele>
        <time>2020-05-21T17:24:31.533Z</time>
      </trkpt>
      <trkpt lat="44.9235" lon="5.44165">
        <ele>1041</ele>
        <time>2020-05-21T17:24:32.533Z</time>
      </trkpt>
      <trkpt lat="44.92352" lon="5.44166">
        <ele>1041</ele>
        <time>2020-05-21T17:24:33.533Z</time>
      </trkpt>
      <trkpt lat="44.92354" lon="5.44167">
        <ele>1041</ele>
        <time>2020-05-21T17:24:34.533Z</time>
      </trkpt>
      <trkpt lat="44.92356" lon="5.44167">
        <ele>1041</ele>
        <time>2020-05-21T17:24:35.533Z</time>
      </trkpt>
      <trkpt lat="44.92358" lon="5.44168">
        <ele>1041</ele>
        <time>2020-05-21T17:24:36.533Z</time>
      </trkpt>
      <trkpt lat="44.9236" lon="5.44169">
        <ele>1040</ele>
        <time>2020-05-21T17:24:37.533Z</time>
      </trkpt>
      <trkpt lat="44.92362" lon="5.4417">
        <ele>1039</ele>
        <time>2020-05-21T17:24:38.533Z</time>
      </trkpt>
      <trkpt lat="44.92364" lon="5.44171">
        <ele>1039</ele>
        <time>2020-05-21T17:24:39.532Z</time>
      </trkpt>
      <trkpt lat="44.92366" lon="5.44173">
        <ele>1038</ele>
        <time>2020-05-21T17:24:40.533Z</time>
      </trkpt>
      <trkpt lat="44.92367" lon="5.44174">
        <ele>1037</ele>
        <time>2020-05-21T17:24:41.533Z</time>
      </trkpt>
      <trkpt lat="44.92368" lon="5.44176">
        <ele>1036</ele>
        <time>2020-05-21T17:24:42.532Z</time>
      </trkpt>
      <trkpt lat="44.9237" lon="5.44178">
        <ele>1036</ele>
        <time>2020-05-21T17:24:43.533Z</time>
      </trkpt>
      <trkpt lat="44.92371" lon="5.4418">
        <ele>1035</ele>
        <time>2020-05-21T17:24:44.533Z</time>
      </trkpt>
      <trkpt lat="44.92372" lon="5.44182">
        <ele>1035</ele>
        <time>2020-05-21T17:24:45.532Z</time>
      </trkpt>
      <trkpt lat="44.92373" lon="5.44184">
        <ele>1035</ele>
        <time>2020-05-21T17:24:46.533Z</time>
      </trkpt>
      <trkpt lat="44.92374" lon="5.44187">
        <ele>1034</ele>
        <time>2020-05-21T17:24:47.533Z</time>
      </trkpt>
      <trkpt lat="44.92375" lon="5.44189">
        <ele>1034</ele>
        <time>2020-05-21T17:24:48.532Z</time>
      </trkpt>
      <trkpt lat="44.92377" lon="5.44192">
        <ele>1034</ele>
        <time>2020-05-21T17:24:49.533Z</time>
      </trkpt>
      <trkpt lat="44.92378" lon="5.44195">
        <ele>1034</ele>
        <time>2020-05-21T17:24:50.533Z</time>
      </trkpt>
      <trkpt lat="44.92379" lon="5.44198">
        <ele>1034</ele>
        <time>2020-05-21T17:24:51.532Z</time>
      </trkpt>
      <trkpt lat="44.92381" lon="5.44201">
        <ele>1034</ele>
        <time>2020-05-21T17:24:52.533Z</time>
      </trkpt>
      <trkpt lat="44.92382" lon="5.44203">
        <ele>1034</ele>
        <time>2020-05-21T17:24:53.532Z</time>
      </trkpt>
      <trkpt lat="44.92384" lon="5.44207">
        <ele>1034</ele>
        <time>2020-05-21T17:24:54.532Z</time>
      </trkpt>
      <trkpt lat="44.92385" lon="5.44209">
        <ele>1034</ele>
        <time>2020-05-21T17:24:55.533Z</time>
      </trkpt>
      <trkpt lat="44.92387" lon="5.44211">
        <ele>1034</ele>
        <time>2020-05-21T17:24:56.533Z</time>
      </trkpt>
      <trkpt lat="44.92388" lon="5.44212">
        <ele>1034</ele>
        <time>2020-05-21T17:24:57.533Z</time>
      </trkpt>
      <trkpt lat="44.9239" lon="5.44214">
        <ele>1034</ele>
        <time>2020-05-21T17:24:58.533Z</time>
      </trkpt>
      <trkpt lat="44.92392" lon="5.44217">
        <ele>1034</ele>
        <time>2020-05-21T17:24:59.533Z</time>
      </trkpt>
      <trkpt lat="44.92393" lon="5.44219">
        <ele>1034</ele>
        <time>2020-05-21T17:25:00.532Z</time>
      </trkpt>
      <trkpt lat="44.92393" lon="5.44222">
        <ele>1034</ele>
        <time>2020-05-21T17:25:01.532Z</time>
      </trkpt>
      <trkpt lat="44.92394" lon="5.44224">
        <ele>1034</ele>
        <time>2020-05-21T17:25:02.533Z</time>
      </trkpt>
      <trkpt lat="44.92396" lon="5.44227">
        <ele>1034</ele>
        <time>2020-05-21T17:25:03.533Z</time>
      </trkpt>
      <trkpt lat="44.92397" lon="5.44229">
        <ele>1034</ele>
        <time>2020-05-21T17:25:04.533Z</time>
      </trkpt>
      <trkpt lat="44.92399" lon="5.4423">
        <ele>1034</ele>
        <time>2020-05-21T17:25:05.533Z</time>
      </trkpt>
      <trkpt lat="44.92401" lon="5.44231">
        <ele>1034</ele>
        <time>2020-05-21T17:25:06.532Z</time>
      </trkpt>
      <trkpt lat="44.92403" lon="5.44232">
        <ele>1034</ele>
        <time>2020-05-21T17:25:07.533Z</time>
      </trkpt>
      <trkpt lat="44.92405" lon="5.44233">
        <ele>1035</ele>
        <time>2020-05-21T17:25:08.533Z</time>
      </trkpt>
      <trkpt lat="44.92406" lon="5.44233">
        <ele>1035</ele>
        <time>2020-05-21T17:25:09.532Z</time>
      </trkpt>
      <trkpt lat="44.92408" lon="5.44233">
        <ele>1035</ele>
        <time>2020-05-21T17:25:10.532Z</time>
      </trkpt>
      <trkpt lat="44.92411" lon="5.44232">
        <ele>1035</ele>
        <time>2020-05-21T17:25:11.533Z</time>
      </trkpt>
      <trkpt lat="44.92413" lon="5.44232">
        <ele>1035</ele>
        <time>2020-05-21T17:25:12.532Z</time>
      </trkpt>
      <trkpt lat="44.92414" lon="5.44233">
        <ele>1036</ele>
        <time>2020-05-21T17:25:13.533Z</time>
      </trkpt>
      <trkpt lat="44.92416" lon="5.44235">
        <ele>1036</ele>
        <time>2020-05-21T17:25:14.533Z</time>
      </trkpt>
      <trkpt lat="44.92418" lon="5.44238">
        <ele>1036</ele>
        <time>2020-05-21T17:25:15.532Z</time>
      </trkpt>
      <trkpt lat="44.92419" lon="5.4424">
        <ele>1036</ele>
        <time>2020-05-21T17:25:16.533Z</time>
      </trkpt>
      <trkpt lat="44.92421" lon="5.44244">
        <ele>1037</ele>
        <time>2020-05-21T17:25:17.533Z</time>
      </trkpt>
      <trkpt lat="44.92423" lon="5.44247">
        <ele>1037</ele>
        <time>2020-05-21T17:25:18.532Z</time>
      </trkpt>
      <trkpt lat="44.92425" lon="5.4425">
        <ele>1037</ele>
        <time>2020-05-21T17:25:19.533Z</time>
      </trkpt>
      <trkpt lat="44.92427" lon="5.44253">
        <ele>1037</ele>
        <time>2020-05-21T17:25:20.533Z</time>
      </trkpt>
      <trkpt lat="44.92429" lon="5.44256">
        <ele>1037</ele>
        <time>2020-05-21T17:25:21.533Z</time>
      </trkpt>
      <trkpt lat="44.9243" lon="5.44258">
        <ele>1037</ele>
        <time>2020-05-21T17:25:22.533Z</time>
      </trkpt>
      <trkpt lat="44.9243" lon="5.44259">
        <ele>1036</ele>
        <time>2020-05-21T17:25:23.532Z</time>
      </trkpt>
      <trkpt lat="44.92431" lon="5.44261">
        <ele>1035</ele>
        <time>2020-05-21T17:25:24.533Z</time>
      </trkpt>
      <trkpt lat="44.92432" lon="5.44264">
        <ele>1035</ele>
        <time>2020-05-21T17:25:25.533Z</time>
      </trkpt>
      <trkpt lat="44.92432" lon="5.44266">
        <ele>1034</ele>
        <time>2020-05-21T17:25:26.533Z</time>
      </trkpt>
      <trkpt lat="44.92433" lon="5.44269">
        <ele>1034</ele>
        <time>2020-05-21T17:25:27.533Z</time>
      </trkpt>
      <trkpt lat="44.92433" lon="5.44272">
        <ele>1034</ele>
        <time>2020-05-21T17:25:28.533Z</time>
      </trkpt>
      <trkpt lat="44.92433" lon="5.44274">
        <ele>1033</ele>
        <time>2020-05-21T17:25:29.533Z</time>
      </trkpt>
      <trkpt lat="44.92433" lon="5.44275">
        <ele>1033</ele>
        <time>2020-05-21T17:25:30.533Z</time>
      </trkpt>
      <trkpt lat="44.92433" lon="5.44276">
        <ele>1033</ele>
        <time>2020-05-21T17:25:31.532Z</time>
      </trkpt>
      <trkpt lat="44.92433" lon="5.44277">
        <ele>1033</ele>
        <time>2020-05-21T17:25:32.533Z</time>
      </trkpt>
      <trkpt lat="44.92434" lon="5.44277">
        <ele>1033</ele>
        <time>2020-05-21T17:25:33.533Z</time>
      </trkpt>
      <trkpt lat="44.92435" lon="5.44277">
        <ele>1032</ele>
        <time>2020-05-21T17:25:34.533Z</time>
      </trkpt>
      <trkpt lat="44.92437" lon="5.44275">
        <ele>1032</ele>
        <time>2020-05-21T17:25:35.533Z</time>
      </trkpt>
      <trkpt lat="44.92438" lon="5.44273">
        <ele>1032</ele>
        <time>2020-05-21T17:25:36.532Z</time>
      </trkpt>
      <trkpt lat="44.9244" lon="5.44271">
        <ele>1032</ele>
        <time>2020-05-21T17:25:37.533Z</time>
      </trkpt>
      <trkpt lat="44.9244" lon="5.44269">
        <ele>1032</ele>
        <time>2020-05-21T17:25:38.532Z</time>
      </trkpt>
      <trkpt lat="44.92441" lon="5.44266">
        <ele>1032</ele>
        <time>2020-05-21T17:25:39.532Z</time>
      </trkpt>
      <trkpt lat="44.92442" lon="5.44263">
        <ele>1032</ele>
        <time>2020-05-21T17:25:40.533Z</time>
      </trkpt>
      <trkpt lat="44.92442" lon="5.4426">
        <ele>1033</ele>
        <time>2020-05-21T17:25:41.533Z</time>
      </trkpt>
      <trkpt lat="44.92443" lon="5.44258">
        <ele>1033</ele>
        <time>2020-05-21T17:25:42.532Z</time>
      </trkpt>
      <trkpt lat="44.92443" lon="5.44255">
        <ele>1032</ele>
        <time>2020-05-21T17:25:43.533Z</time>
      </trkpt>
      <trkpt lat="44.92444" lon="5.44253">
        <ele>1032</ele>
        <time>2020-05-21T17:25:44.533Z</time>
      </trkpt>
      <trkpt lat="44.92445" lon="5.44251">
        <ele>1032</ele>
        <time>2020-05-21T17:25:45.532Z</time>
      </trkpt>
      <trkpt lat="44.92447" lon="5.4425">
        <ele>1032</ele>
        <time>2020-05-21T17:25:46.533Z</time>
      </trkpt>
      <trkpt lat="44.92449" lon="5.44248">
        <ele>1031</ele>
        <time>2020-05-21T17:25:47.533Z</time>
      </trkpt>
      <trkpt lat="44.9245" lon="5.44248">
        <ele>1031</ele>
        <time>2020-05-21T17:25:48.532Z</time>
      </trkpt>
      <trkpt lat="44.92452" lon="5.44247">
        <ele>1031</ele>
        <time>2020-05-21T17:25:49.532Z</time>
      </trkpt>
      <trkpt lat="44.92453" lon="5.44247">
        <ele>1031</ele>
        <time>2020-05-21T17:25:50.533Z</time>
      </trkpt>
      <trkpt lat="44.92455" lon="5.44246">
        <ele>1031</ele>
        <time>2020-05-21T17:25:51.533Z</time>
      </trkpt>
      <trkpt lat="44.92457" lon="5.44246">
        <ele>1031</ele>
        <time>2020-05-21T17:25:52.533Z</time>
      </trkpt>
      <trkpt lat="44.9246" lon="5.44246">
        <ele>1031</ele>
        <time>2020-05-21T17:25:53.533Z</time>
      </trkpt>
      <trkpt lat="44.92462" lon="5.44246">
        <ele>1031</ele>
        <time>2020-05-21T17:25:54.533Z</time>
      </trkpt>
      <trkpt lat="44.92464" lon="5.44245">
        <ele>1031</ele>
        <time>2020-05-21T17:25:55.533Z</time>
      </trkpt>
      <trkpt lat="44.92466" lon="5.44245">
        <ele>1031</ele>
        <time>2020-05-21T17:25:56.532Z</time>
      </trkpt>
      <trkpt lat="44.92468" lon="5.44245">
        <ele>1030</ele>
        <time>2020-05-21T17:25:57.533Z</time>
      </trkpt>
      <trkpt lat="44.9247" lon="5.44244">
        <ele>1030</ele>
        <time>2020-05-21T17:25:58.532Z</time>
      </trkpt>
      <trkpt lat="44.92472" lon="5.44244">
        <ele>1029</ele>
        <time>2020-05-21T17:25:59.532Z</time>
      </trkpt>
      <trkpt lat="44.92474" lon="5.44245">
        <ele>1029</ele>
        <time>2020-05-21T17:26:00.532Z</time>
      </trkpt>
      <trkpt lat="44.92476" lon="5.44246">
        <ele>1028</ele>
        <time>2020-05-21T17:26:01.532Z</time>
      </trkpt>
      <trkpt lat="44.92478" lon="5.44247">
        <ele>1028</ele>
        <time>2020-05-21T17:26:02.532Z</time>
      </trkpt>
      <trkpt lat="44.9248" lon="5.44248">
        <ele>1028</ele>
        <time>2020-05-21T17:26:03.533Z</time>
      </trkpt>
      <trkpt lat="44.92482" lon="5.44249">
        <ele>1027</ele>
        <time>2020-05-21T17:26:04.532Z</time>
      </trkpt>
      <trkpt lat="44.92483" lon="5.4425">
        <ele>1027</ele>
        <time>2020-05-21T17:26:05.533Z</time>
      </trkpt>
      <trkpt lat="44.92485" lon="5.4425">
        <ele>1028</ele>
        <time>2020-05-21T17:26:06.533Z</time>
      </trkpt>
      <trkpt lat="44.92486" lon="5.44251">
        <ele>1027</ele>
        <time>2020-05-21T17:26:07.532Z</time>
      </trkpt>
      <trkpt lat="44.92488" lon="5.44251">
        <ele>1027</ele>
        <time>2020-05-21T17:26:08.533Z</time>
      </trkpt>
      <trkpt lat="44.9249" lon="5.44251">
        <ele>1027</ele>
        <time>2020-05-21T17:26:09.532Z</time>
      </trkpt>
      <trkpt lat="44.92495" lon="5.44254">
        <ele>1019</ele>
        <time>2020-05-21T17:26:10.533Z</time>
      </trkpt>
      <trkpt lat="44.92495" lon="5.44254">
        <ele>1019</ele>
        <time>2020-05-21T17:26:11.532Z</time>
      </trkpt>
      <trkpt lat="44.92495" lon="5.44254">
        <ele>1019</ele>
        <time>2020-05-21T17:26:12.532Z</time>
      </trkpt>
      <trkpt lat="44.92496" lon="5.44254">
        <ele>1019</ele>
        <time>2020-05-21T17:26:13.532Z</time>
      </trkpt>
      <trkpt lat="44.92497" lon="5.44253">
        <ele>1019</ele>
        <time>2020-05-21T17:26:14.533Z</time>
      </trkpt>
      <trkpt lat="44.92499" lon="5.44252">
        <ele>1019</ele>
        <time>2020-05-21T17:26:15.533Z</time>
      </trkpt>
      <trkpt lat="44.92502" lon="5.44251">
        <ele>1019</ele>
        <time>2020-05-21T17:26:16.533Z</time>
      </trkpt>
      <trkpt lat="44.92504" lon="5.4425">
        <ele>1019</ele>
        <time>2020-05-21T17:26:17.533Z</time>
      </trkpt>
      <trkpt lat="44.92505" lon="5.44249">
        <ele>1019</ele>
        <time>2020-05-21T17:26:18.533Z</time>
      </trkpt>
      <trkpt lat="44.92507" lon="5.44249">
        <ele>1019</ele>
        <time>2020-05-21T17:26:19.533Z</time>
      </trkpt>
      <trkpt lat="44.92509" lon="5.44249">
        <ele>1019</ele>
        <time>2020-05-21T17:26:20.533Z</time>
      </trkpt>
      <trkpt lat="44.92512" lon="5.44249">
        <ele>1019</ele>
        <time>2020-05-21T17:26:21.532Z</time>
      </trkpt>
      <trkpt lat="44.92514" lon="5.44248">
        <ele>1019</ele>
        <time>2020-05-21T17:26:22.532Z</time>
      </trkpt>
      <trkpt lat="44.92516" lon="5.44248">
        <ele>1020</ele>
        <time>2020-05-21T17:26:23.532Z</time>
      </trkpt>
      <trkpt lat="44.92518" lon="5.44247">
        <ele>1020</ele>
        <time>2020-05-21T17:26:24.533Z</time>
      </trkpt>
      <trkpt lat="44.9252" lon="5.44246">
        <ele>1020</ele>
        <time>2020-05-21T17:26:25.533Z</time>
      </trkpt>
      <trkpt lat="44.92522" lon="5.44246">
        <ele>1020</ele>
        <time>2020-05-21T17:26:26.533Z</time>
      </trkpt>
      <trkpt lat="44.92524" lon="5.44246">
        <ele>1020</ele>
        <time>2020-05-21T17:26:27.533Z</time>
      </trkpt>
      <trkpt lat="44.92526" lon="5.44246">
        <ele>1020</ele>
        <time>2020-05-21T17:26:28.533Z</time>
      </trkpt>
      <trkpt lat="44.92528" lon="5.44246">
        <ele>1020</ele>
        <time>2020-05-21T17:26:29.533Z</time>
      </trkpt>
      <trkpt lat="44.92529" lon="5.44245">
        <ele>1020</ele>
        <time>2020-05-21T17:26:30.533Z</time>
      </trkpt>
      <trkpt lat="44.92531" lon="5.44244">
        <ele>1020</ele>
        <time>2020-05-21T17:26:31.533Z</time>
      </trkpt>
      <trkpt lat="44.92532" lon="5.44243">
        <ele>1020</ele>
        <time>2020-05-21T17:26:32.533Z</time>
      </trkpt>
      <trkpt lat="44.92532" lon="5.44242">
        <ele>1020</ele>
        <time>2020-05-21T17:26:33.532Z</time>
      </trkpt>
      <trkpt lat="44.92532" lon="5.44242">
        <ele>1020</ele>
        <time>2020-05-21T17:26:34.533Z</time>
      </trkpt>
      <trkpt lat="44.92532" lon="5.44242">
        <ele>1019</ele>
        <time>2020-05-21T17:26:35.532Z</time>
      </trkpt>
      <trkpt lat="44.9253" lon="5.44243">
        <ele>1019</ele>
        <time>2020-05-21T17:26:36.533Z</time>
      </trkpt>
      <trkpt lat="44.92529" lon="5.44243">
        <ele>1018</ele>
        <time>2020-05-21T17:26:37.532Z</time>
      </trkpt>
      <trkpt lat="44.92527" lon="5.44244">
        <ele>1017</ele>
        <time>2020-05-21T17:26:38.533Z</time>
      </trkpt>
      <trkpt lat="44.92525" lon="5.44244">
        <ele>1016</ele>
        <time>2020-05-21T17:26:39.533Z</time>
      </trkpt>
      <trkpt lat="44.92524" lon="5.44244">
        <ele>1015</ele>
        <time>2020-05-21T17:26:40.533Z</time>
      </trkpt>
      <trkpt lat="44.92522" lon="5.44243">
        <ele>1013</ele>
        <time>2020-05-21T17:26:41.533Z</time>
      </trkpt>
      <trkpt lat="44.9252" lon="5.44241">
        <ele>1012</ele>
        <time>2020-05-21T17:26:42.532Z</time>
      </trkpt>
      <trkpt lat="44.92517" lon="5.44238">
        <ele>1012</ele>
        <time>2020-05-21T17:26:43.533Z</time>
      </trkpt>
      <trkpt lat="44.92515" lon="5.44236">
        <ele>1011</ele>
        <time>2020-05-21T17:26:44.532Z</time>
      </trkpt>
      <trkpt lat="44.92513" lon="5.44235">
        <ele>1010</ele>
        <time>2020-05-21T17:26:45.532Z</time>
      </trkpt>
      <trkpt lat="44.9251" lon="5.44233">
        <ele>1010</ele>
        <time>2020-05-21T17:26:46.533Z</time>
      </trkpt>
      <trkpt lat="44.92509" lon="5.44232">
        <ele>1009</ele>
        <time>2020-05-21T17:26:47.533Z</time>
      </trkpt>
      <trkpt lat="44.92506" lon="5.44232">
        <ele>1009</ele>
        <time>2020-05-21T17:26:48.533Z</time>
      </trkpt>
      <trkpt lat="44.92504" lon="5.44233">
        <ele>1008</ele>
        <time>2020-05-21T17:26:49.533Z</time>
      </trkpt>
      <trkpt lat="44.92502" lon="5.44233">
        <ele>1007</ele>
        <time>2020-05-21T17:26:50.533Z</time>
      </trkpt>
      <trkpt lat="44.925" lon="5.44233">
        <ele>1006</ele>
        <time>2020-05-21T17:26:51.533Z</time>
      </trkpt>
      <trkpt lat="44.92499" lon="5.44234">
        <ele>1005</ele>
        <time>2020-05-21T17:26:52.532Z</time>
      </trkpt>
      <trkpt lat="44.92497" lon="5.44234">
        <ele>1004</ele>
        <time>2020-05-21T17:26:53.533Z</time>
      </trkpt>
      <trkpt lat="44.92495" lon="5.44232">
        <ele>1004</ele>
        <time>2020-05-21T17:26:54.533Z</time>
      </trkpt>
      <trkpt lat="44.92492" lon="5.44231">
        <ele>1003</ele>
        <time>2020-05-21T17:26:55.533Z</time>
      </trkpt>
      <trkpt lat="44.92491" lon="5.44231">
        <ele>1002</ele>
        <time>2020-05-21T17:26:56.533Z</time>
      </trkpt>
      <trkpt lat="44.92489" lon="5.44229">
        <ele>1001</ele>
        <time>2020-05-21T17:26:57.533Z</time>
      </trkpt>
      <trkpt lat="44.92487" lon="5.44228">
        <ele>1000</ele>
        <time>2020-05-21T17:26:58.533Z</time>
      </trkpt>
      <trkpt lat="44.92485" lon="5.44227">
        <ele>1000</ele>
        <time>2020-05-21T17:26:59.533Z</time>
      </trkpt>
      <trkpt lat="44.92483" lon="5.44225">
        <ele>1000</ele>
        <time>2020-05-21T17:27:00.533Z</time>
      </trkpt>
      <trkpt lat="44.92482" lon="5.44223">
        <ele>999</ele>
        <time>2020-05-21T17:27:01.533Z</time>
      </trkpt>
      <trkpt lat="44.92481" lon="5.44221">
        <ele>999</ele>
        <time>2020-05-21T17:27:02.533Z</time>
      </trkpt>
      <trkpt lat="44.9248" lon="5.44218">
        <ele>998</ele>
        <time>2020-05-21T17:27:03.533Z</time>
      </trkpt>
      <trkpt lat="44.92478" lon="5.44216">
        <ele>997</ele>
        <time>2020-05-21T17:27:04.532Z</time>
      </trkpt>
      <trkpt lat="44.92477" lon="5.44214">
        <ele>997</ele>
        <time>2020-05-21T17:27:05.533Z</time>
      </trkpt>
      <trkpt lat="44.92475" lon="5.44212">
        <ele>996</ele>
        <time>2020-05-21T17:27:06.533Z</time>
      </trkpt>
      <trkpt lat="44.92473" lon="5.44212">
        <ele>996</ele>
        <time>2020-05-21T17:27:07.533Z</time>
      </trkpt>
      <trkpt lat="44.92471" lon="5.44212">
        <ele>995</ele>
        <time>2020-05-21T17:27:08.532Z</time>
      </trkpt>
      <trkpt lat="44.9247" lon="5.44213">
        <ele>995</ele>
        <time>2020-05-21T17:27:09.533Z</time>
      </trkpt>
      <trkpt lat="44.92469" lon="5.44214">
        <ele>994</ele>
        <time>2020-05-21T17:27:10.533Z</time>
      </trkpt>
      <trkpt lat="44.92468" lon="5.44215">
        <ele>993</ele>
        <time>2020-05-21T17:27:11.532Z</time>
      </trkpt>
      <trkpt lat="44.92467" lon="5.44216">
        <ele>993</ele>
        <time>2020-05-21T17:27:12.533Z</time>
      </trkpt>
      <trkpt lat="44.92467" lon="5.44216">
        <ele>992</ele>
        <time>2020-05-21T17:27:13.532Z</time>
      </trkpt>
      <trkpt lat="44.92466" lon="5.44214">
        <ele>991</ele>
        <time>2020-05-21T17:27:14.532Z</time>
      </trkpt>
      <trkpt lat="44.92467" lon="5.44213">
        <ele>991</ele>
        <time>2020-05-21T17:27:15.533Z</time>
      </trkpt>
      <trkpt lat="44.92468" lon="5.44211">
        <ele>990</ele>
        <time>2020-05-21T17:27:16.533Z</time>
      </trkpt>
      <trkpt lat="44.92469" lon="5.4421">
        <ele>990</ele>
        <time>2020-05-21T17:27:17.533Z</time>
      </trkpt>
      <trkpt lat="44.92471" lon="5.44208">
        <ele>990</ele>
        <time>2020-05-21T17:27:18.533Z</time>
      </trkpt>
      <trkpt lat="44.92473" lon="5.44207">
        <ele>989</ele>
        <time>2020-05-21T17:27:19.533Z</time>
      </trkpt>
      <trkpt lat="44.92475" lon="5.44206">
        <ele>989</ele>
        <time>2020-05-21T17:27:20.533Z</time>
      </trkpt>
      <trkpt lat="44.92477" lon="5.44205">
        <ele>989</ele>
        <time>2020-05-21T17:27:21.533Z</time>
      </trkpt>
      <trkpt lat="44.92479" lon="5.44206">
        <ele>989</ele>
        <time>2020-05-21T17:27:22.532Z</time>
      </trkpt>
      <trkpt lat="44.92481" lon="5.44207">
        <ele>989</ele>
        <time>2020-05-21T17:27:23.532Z</time>
      </trkpt>
      <trkpt lat="44.92483" lon="5.44208">
        <ele>988</ele>
        <time>2020-05-21T17:27:24.533Z</time>
      </trkpt>
      <trkpt lat="44.92484" lon="5.4421">
        <ele>988</ele>
        <time>2020-05-21T17:27:25.533Z</time>
      </trkpt>
      <trkpt lat="44.92486" lon="5.44212">
        <ele>988</ele>
        <time>2020-05-21T17:27:26.533Z</time>
      </trkpt>
      <trkpt lat="44.92487" lon="5.44215">
        <ele>987</ele>
        <time>2020-05-21T17:27:27.533Z</time>
      </trkpt>
      <trkpt lat="44.92489" lon="5.44216">
        <ele>987</ele>
        <time>2020-05-21T17:27:28.533Z</time>
      </trkpt>
      <trkpt lat="44.92491" lon="5.44218">
        <ele>987</ele>
        <time>2020-05-21T17:27:29.533Z</time>
      </trkpt>
      <trkpt lat="44.92493" lon="5.44219">
        <ele>987</ele>
        <time>2020-05-21T17:27:30.532Z</time>
      </trkpt>
      <trkpt lat="44.92495" lon="5.44219">
        <ele>986</ele>
        <time>2020-05-21T17:27:31.533Z</time>
      </trkpt>
      <trkpt lat="44.92497" lon="5.44219">
        <ele>986</ele>
        <time>2020-05-21T17:27:32.533Z</time>
      </trkpt>
      <trkpt lat="44.92499" lon="5.44218">
        <ele>986</ele>
        <time>2020-05-21T17:27:33.533Z</time>
      </trkpt>
      <trkpt lat="44.925" lon="5.44216">
        <ele>986</ele>
        <time>2020-05-21T17:27:34.532Z</time>
      </trkpt>
      <trkpt lat="44.92502" lon="5.44215">
        <ele>987</ele>
        <time>2020-05-21T17:27:35.532Z</time>
      </trkpt>
      <trkpt lat="44.92504" lon="5.44215">
        <ele>987</ele>
        <time>2020-05-21T17:27:36.532Z</time>
      </trkpt>
      <trkpt lat="44.92506" lon="5.44215">
        <ele>987</ele>
        <time>2020-05-21T17:27:37.532Z</time>
      </trkpt>
      <trkpt lat="44.92508" lon="5.44215">
        <ele>987</ele>
        <time>2020-05-21T17:27:38.533Z</time>
      </trkpt>
      <trkpt lat="44.9251" lon="5.44216">
        <ele>986</ele>
        <time>2020-05-21T17:27:39.533Z</time>
      </trkpt>
      <trkpt lat="44.92513" lon="5.44215">
        <ele>986</ele>
        <time>2020-05-21T17:27:40.533Z</time>
      </trkpt>
      <trkpt lat="44.92515" lon="5.44215">
        <ele>986</ele>
        <time>2020-05-21T17:27:41.532Z</time>
      </trkpt>
      <trkpt lat="44.92517" lon="5.44215">
        <ele>986</ele>
        <time>2020-05-21T17:27:42.533Z</time>
      </trkpt>
      <trkpt lat="44.92519" lon="5.44216">
        <ele>986</ele>
        <time>2020-05-21T17:27:43.532Z</time>
      </trkpt>
      <trkpt lat="44.92522" lon="5.44216">
        <ele>986</ele>
        <time>2020-05-21T17:27:44.533Z</time>
      </trkpt>
      <trkpt lat="44.92523" lon="5.44216">
        <ele>986</ele>
        <time>2020-05-21T17:27:45.533Z</time>
      </trkpt>
      <trkpt lat="44.92526" lon="5.44216">
        <ele>986</ele>
        <time>2020-05-21T17:27:46.533Z</time>
      </trkpt>
      <trkpt lat="44.92527" lon="5.44215">
        <ele>986</ele>
        <time>2020-05-21T17:27:47.532Z</time>
      </trkpt>
      <trkpt lat="44.92529" lon="5.44214">
        <ele>986</ele>
        <time>2020-05-21T17:27:48.533Z</time>
      </trkpt>
      <trkpt lat="44.9253" lon="5.44212">
        <ele>986</ele>
        <time>2020-05-21T17:27:49.533Z</time>
      </trkpt>
      <trkpt lat="44.92532" lon="5.44209">
        <ele>986</ele>
        <time>2020-05-21T17:27:50.533Z</time>
      </trkpt>
      <trkpt lat="44.92533" lon="5.44206">
        <ele>985</ele>
        <time>2020-05-21T17:27:51.533Z</time>
      </trkpt>
      <trkpt lat="44.92534" lon="5.44202">
        <ele>985</ele>
        <time>2020-05-21T17:27:52.533Z</time>
      </trkpt>
      <trkpt lat="44.92535" lon="5.44199">
        <ele>984</ele>
        <time>2020-05-21T17:27:53.533Z</time>
      </trkpt>
      <trkpt lat="44.92537" lon="5.44195">
        <ele>984</ele>
        <time>2020-05-21T17:27:54.533Z</time>
      </trkpt>
      <trkpt lat="44.92538" lon="5.44193">
        <ele>983</ele>
        <time>2020-05-21T17:27:55.533Z</time>
      </trkpt>
      <trkpt lat="44.9254" lon="5.4419">
        <ele>983</ele>
        <time>2020-05-21T17:27:56.533Z</time>
      </trkpt>
      <trkpt lat="44.92542" lon="5.44188">
        <ele>982</ele>
        <time>2020-05-21T17:27:57.533Z</time>
      </trkpt>
      <trkpt lat="44.92544" lon="5.44187">
        <ele>982</ele>
        <time>2020-05-21T17:27:58.533Z</time>
      </trkpt>
      <trkpt lat="44.92547" lon="5.44185">
        <ele>982</ele>
        <time>2020-05-21T17:27:59.532Z</time>
      </trkpt>
      <trkpt lat="44.92547" lon="5.44184">
        <ele>982</ele>
        <time>2020-05-21T17:28:00.533Z</time>
      </trkpt>
      <trkpt lat="44.92548" lon="5.44183">
        <ele>982</ele>
        <time>2020-05-21T17:28:01.533Z</time>
      </trkpt>
      <trkpt lat="44.92547" lon="5.44183">
        <ele>981</ele>
        <time>2020-05-21T17:28:02.532Z</time>
      </trkpt>
      <trkpt lat="44.92546" lon="5.44183">
        <ele>981</ele>
        <time>2020-05-21T17:28:03.532Z</time>
      </trkpt>
      <trkpt lat="44.92544" lon="5.44183">
        <ele>981</ele>
        <time>2020-05-21T17:28:04.532Z</time>
      </trkpt>
      <trkpt lat="44.92543" lon="5.44183">
        <ele>980</ele>
        <time>2020-05-21T17:28:05.533Z</time>
      </trkpt>
      <trkpt lat="44.92541" lon="5.44183">
        <ele>980</ele>
        <time>2020-05-21T17:28:06.533Z</time>
      </trkpt>
      <trkpt lat="44.92539" lon="5.44184">
        <ele>979</ele>
        <time>2020-05-21T17:28:07.533Z</time>
      </trkpt>
      <trkpt lat="44.92537" lon="5.44185">
        <ele>979</ele>
        <time>2020-05-21T17:28:08.532Z</time>
      </trkpt>
      <trkpt lat="44.92536" lon="5.44186">
        <ele>978</ele>
        <time>2020-05-21T17:28:09.533Z</time>
      </trkpt>
      <trkpt lat="44.92535" lon="5.44188">
        <ele>977</ele>
        <time>2020-05-21T17:28:10.533Z</time>
      </trkpt>
      <trkpt lat="44.92534" lon="5.44191">
        <ele>977</ele>
        <time>2020-05-21T17:28:11.532Z</time>
      </trkpt>
      <trkpt lat="44.92532" lon="5.44194">
        <ele>976</ele>
        <time>2020-05-21T17:28:12.532Z</time>
      </trkpt>
      <trkpt lat="44.9253" lon="5.44196">
        <ele>976</ele>
        <time>2020-05-21T17:28:13.532Z</time>
      </trkpt>
      <trkpt lat="44.92528" lon="5.44196">
        <ele>976</ele>
        <time>2020-05-21T17:28:14.533Z</time>
      </trkpt>
      <trkpt lat="44.92526" lon="5.44197">
        <ele>976</ele>
        <time>2020-05-21T17:28:15.532Z</time>
      </trkpt>
      <trkpt lat="44.92524" lon="5.44199">
        <ele>976</ele>
        <time>2020-05-21T17:28:16.533Z</time>
      </trkpt>
      <trkpt lat="44.92523" lon="5.44199">
        <ele>976</ele>
        <time>2020-05-21T17:28:17.533Z</time>
      </trkpt>
      <trkpt lat="44.92521" lon="5.442">
        <ele>976</ele>
        <time>2020-05-21T17:28:18.533Z</time>
      </trkpt>
      <trkpt lat="44.9252" lon="5.442">
        <ele>976</ele>
        <time>2020-05-21T17:28:19.533Z</time>
      </trkpt>
      <trkpt lat="44.9252" lon="5.44198">
        <ele>976</ele>
        <time>2020-05-21T17:28:20.533Z</time>
      </trkpt>
      <trkpt lat="44.92521" lon="5.44196">
        <ele>977</ele>
        <time>2020-05-21T17:28:21.533Z</time>
      </trkpt>
      <trkpt lat="44.92522" lon="5.44194">
        <ele>977</ele>
        <time>2020-05-21T17:28:22.533Z</time>
      </trkpt>
      <trkpt lat="44.92523" lon="5.44192">
        <ele>977</ele>
        <time>2020-05-21T17:28:23.533Z</time>
      </trkpt>
      <trkpt lat="44.92524" lon="5.44191">
        <ele>976</ele>
        <time>2020-05-21T17:28:24.532Z</time>
      </trkpt>
      <trkpt lat="44.92525" lon="5.44189">
        <ele>976</ele>
        <time>2020-05-21T17:28:25.533Z</time>
      </trkpt>
      <trkpt lat="44.92526" lon="5.44187">
        <ele>975</ele>
        <time>2020-05-21T17:28:26.533Z</time>
      </trkpt>
      <trkpt lat="44.92526" lon="5.44184">
        <ele>975</ele>
        <time>2020-05-21T17:28:27.533Z</time>
      </trkpt>
      <trkpt lat="44.92527" lon="5.44183">
        <ele>975</ele>
        <time>2020-05-21T17:28:28.532Z</time>
      </trkpt>
      <trkpt lat="44.92529" lon="5.4418">
        <ele>974</ele>
        <time>2020-05-21T17:28:29.532Z</time>
      </trkpt>
      <trkpt lat="44.92531" lon="5.44178">
        <ele>974</ele>
        <time>2020-05-21T17:28:30.533Z</time>
      </trkpt>
      <trkpt lat="44.92533" lon="5.44175">
        <ele>974</ele>
        <time>2020-05-21T17:28:31.533Z</time>
      </trkpt>
      <trkpt lat="44.92534" lon="5.44173">
        <ele>974</ele>
        <time>2020-05-21T17:28:32.533Z</time>
      </trkpt>
      <trkpt lat="44.92535" lon="5.44172">
        <ele>973</ele>
        <time>2020-05-21T17:28:33.532Z</time>
      </trkpt>
      <trkpt lat="44.92537" lon="5.4417">
        <ele>973</ele>
        <time>2020-05-21T17:28:34.533Z</time>
      </trkpt>
      <trkpt lat="44.92539" lon="5.44169">
        <ele>972</ele>
        <time>2020-05-21T17:28:35.533Z</time>
      </trkpt>
      <trkpt lat="44.92541" lon="5.44168">
        <ele>971</ele>
        <time>2020-05-21T17:28:36.532Z</time>
      </trkpt>
      <trkpt lat="44.92543" lon="5.44168">
        <ele>971</ele>
        <time>2020-05-21T17:28:37.533Z</time>
      </trkpt>
      <trkpt lat="44.92546" lon="5.44168">
        <ele>970</ele>
        <time>2020-05-21T17:28:38.533Z</time>
      </trkpt>
      <trkpt lat="44.92548" lon="5.44169">
        <ele>970</ele>
        <time>2020-05-21T17:28:39.533Z</time>
      </trkpt>
      <trkpt lat="44.92549" lon="5.4417">
        <ele>969</ele>
        <time>2020-05-21T17:28:40.533Z</time>
      </trkpt>
      <trkpt lat="44.92552" lon="5.4417">
        <ele>969</ele>
        <time>2020-05-21T17:28:41.533Z</time>
      </trkpt>
      <trkpt lat="44.92554" lon="5.4417">
        <ele>968</ele>
        <time>2020-05-21T17:28:42.533Z</time>
      </trkpt>
      <trkpt lat="44.92557" lon="5.44171">
        <ele>968</ele>
        <time>2020-05-21T17:28:43.533Z</time>
      </trkpt>
      <trkpt lat="44.92559" lon="5.44172">
        <ele>968</ele>
        <time>2020-05-21T17:28:44.533Z</time>
      </trkpt>
      <trkpt lat="44.92562" lon="5.44173">
        <ele>968</ele>
        <time>2020-05-21T17:28:45.533Z</time>
      </trkpt>
      <trkpt lat="44.92565" lon="5.44173">
        <ele>968</ele>
        <time>2020-05-21T17:28:46.533Z</time>
      </trkpt>
      <trkpt lat="44.92567" lon="5.44173">
        <ele>967</ele>
        <time>2020-05-21T17:28:47.533Z</time>
      </trkpt>
      <trkpt lat="44.92569" lon="5.44173">
        <ele>967</ele>
        <time>2020-05-21T17:28:48.533Z</time>
      </trkpt>
      <trkpt lat="44.92571" lon="5.44172">
        <ele>967</ele>
        <time>2020-05-21T17:28:49.533Z</time>
      </trkpt>
      <trkpt lat="44.92574" lon="5.44173">
        <ele>967</ele>
        <time>2020-05-21T17:28:50.533Z</time>
      </trkpt>
      <trkpt lat="44.92576" lon="5.44173">
        <ele>966</ele>
        <time>2020-05-21T17:28:51.533Z</time>
      </trkpt>
      <trkpt lat="44.92578" lon="5.44173">
        <ele>966</ele>
        <time>2020-05-21T17:28:52.533Z</time>
      </trkpt>
      <trkpt lat="44.92581" lon="5.44173">
        <ele>966</ele>
        <time>2020-05-21T17:28:53.533Z</time>
      </trkpt>
      <trkpt lat="44.92582" lon="5.44173">
        <ele>966</ele>
        <time>2020-05-21T17:28:54.533Z</time>
      </trkpt>
      <trkpt lat="44.92585" lon="5.44173">
        <ele>965</ele>
        <time>2020-05-21T17:28:55.533Z</time>
      </trkpt>
      <trkpt lat="44.92587" lon="5.44173">
        <ele>965</ele>
        <time>2020-05-21T17:28:56.533Z</time>
      </trkpt>
      <trkpt lat="44.92589" lon="5.44173">
        <ele>965</ele>
        <time>2020-05-21T17:28:57.532Z</time>
      </trkpt>
      <trkpt lat="44.92591" lon="5.44173">
        <ele>965</ele>
        <time>2020-05-21T17:28:58.533Z</time>
      </trkpt>
      <trkpt lat="44.92593" lon="5.44173">
        <ele>965</ele>
        <time>2020-05-21T17:28:59.533Z</time>
      </trkpt>
      <trkpt lat="44.92595" lon="5.44173">
        <ele>964</ele>
        <time>2020-05-21T17:29:00.533Z</time>
      </trkpt>
      <trkpt lat="44.92597" lon="5.44173">
        <ele>964</ele>
        <time>2020-05-21T17:29:01.533Z</time>
      </trkpt>
      <trkpt lat="44.926" lon="5.44173">
        <ele>964</ele>
        <time>2020-05-21T17:29:02.533Z</time>
      </trkpt>
      <trkpt lat="44.92602" lon="5.44173">
        <ele>964</ele>
        <time>2020-05-21T17:29:03.533Z</time>
      </trkpt>
      <trkpt lat="44.92603" lon="5.44172">
        <ele>963</ele>
        <time>2020-05-21T17:29:04.533Z</time>
      </trkpt>
      <trkpt lat="44.92605" lon="5.44172">
        <ele>963</ele>
        <time>2020-05-21T17:29:05.533Z</time>
      </trkpt>
      <trkpt lat="44.92607" lon="5.44171">
        <ele>963</ele>
        <time>2020-05-21T17:29:06.533Z</time>
      </trkpt>
      <trkpt lat="44.92609" lon="5.4417">
        <ele>962</ele>
        <time>2020-05-21T17:29:07.533Z</time>
      </trkpt>
      <trkpt lat="44.92611" lon="5.44168">
        <ele>962</ele>
        <time>2020-05-21T17:29:08.532Z</time>
      </trkpt>
      <trkpt lat="44.92612" lon="5.44167">
        <ele>962</ele>
        <time>2020-05-21T17:29:09.533Z</time>
      </trkpt>
      <trkpt lat="44.92614" lon="5.44166">
        <ele>962</ele>
        <time>2020-05-21T17:29:10.533Z</time>
      </trkpt>
      <trkpt lat="44.92617" lon="5.44166">
        <ele>962</ele>
        <time>2020-05-21T17:29:11.533Z</time>
      </trkpt>
      <trkpt lat="44.92619" lon="5.44165">
        <ele>962</ele>
        <time>2020-05-21T17:29:12.532Z</time>
      </trkpt>
      <trkpt lat="44.92622" lon="5.44165">
        <ele>962</ele>
        <time>2020-05-21T17:29:13.532Z</time>
      </trkpt>
      <trkpt lat="44.92624" lon="5.44165">
        <ele>962</ele>
        <time>2020-05-21T17:29:14.533Z</time>
      </trkpt>
      <trkpt lat="44.92627" lon="5.44165">
        <ele>962</ele>
        <time>2020-05-21T17:29:15.533Z</time>
      </trkpt>
      <trkpt lat="44.92629" lon="5.44164">
        <ele>962</ele>
        <time>2020-05-21T17:29:16.533Z</time>
      </trkpt>
      <trkpt lat="44.92632" lon="5.44164">
        <ele>961</ele>
        <time>2020-05-21T17:29:17.532Z</time>
      </trkpt>
      <trkpt lat="44.92634" lon="5.44163">
        <ele>961</ele>
        <time>2020-05-21T17:29:18.532Z</time>
      </trkpt>
      <trkpt lat="44.92636" lon="5.44163">
        <ele>961</ele>
        <time>2020-05-21T17:29:19.533Z</time>
      </trkpt>
      <trkpt lat="44.92637" lon="5.44162">
        <ele>961</ele>
        <time>2020-05-21T17:29:20.533Z</time>
      </trkpt>
      <trkpt lat="44.92639" lon="5.44161">
        <ele>961</ele>
        <time>2020-05-21T17:29:21.532Z</time>
      </trkpt>
      <trkpt lat="44.92641" lon="5.4416">
        <ele>961</ele>
        <time>2020-05-21T17:29:22.532Z</time>
      </trkpt>
      <trkpt lat="44.92643" lon="5.44158">
        <ele>961</ele>
        <time>2020-05-21T17:29:23.533Z</time>
      </trkpt>
      <trkpt lat="44.92644" lon="5.44156">
        <ele>961</ele>
        <time>2020-05-21T17:29:24.532Z</time>
      </trkpt>
      <trkpt lat="44.92646" lon="5.44156">
        <ele>961</ele>
        <time>2020-05-21T17:29:25.533Z</time>
      </trkpt>
      <trkpt lat="44.92648" lon="5.44155">
        <ele>961</ele>
        <time>2020-05-21T17:29:26.532Z</time>
      </trkpt>
      <trkpt lat="44.92649" lon="5.44154">
        <ele>961</ele>
        <time>2020-05-21T17:29:27.532Z</time>
      </trkpt>
      <trkpt lat="44.92651" lon="5.44153">
        <ele>961</ele>
        <time>2020-05-21T17:29:28.532Z</time>
      </trkpt>
      <trkpt lat="44.92651" lon="5.44149">
        <ele>962</ele>
        <time>2020-05-21T17:29:29.533Z</time>
      </trkpt>
      <trkpt lat="44.92651" lon="5.44148">
        <ele>962</ele>
        <time>2020-05-21T17:29:30.533Z</time>
      </trkpt>
      <trkpt lat="44.9265" lon="5.44146">
        <ele>962</ele>
        <time>2020-05-21T17:29:31.534Z</time>
      </trkpt>
      <trkpt lat="44.92649" lon="5.44145">
        <ele>962</ele>
        <time>2020-05-21T17:29:32.534Z</time>
      </trkpt>
      <trkpt lat="44.92647" lon="5.44144">
        <ele>962</ele>
        <time>2020-05-21T17:29:33.533Z</time>
      </trkpt>
      <trkpt lat="44.92647" lon="5.44144">
        <ele>962</ele>
        <time>2020-05-21T17:29:34.533Z</time>
      </trkpt>
      <trkpt lat="44.92645" lon="5.44145">
        <ele>962</ele>
        <time>2020-05-21T17:29:35.533Z</time>
      </trkpt>
      <trkpt lat="44.92643" lon="5.44147">
        <ele>962</ele>
        <time>2020-05-21T17:29:36.534Z</time>
      </trkpt>
      <trkpt lat="44.92641" lon="5.44147">
        <ele>962</ele>
        <time>2020-05-21T17:29:37.533Z</time>
      </trkpt>
      <trkpt lat="44.92639" lon="5.44148">
        <ele>962</ele>
        <time>2020-05-21T17:29:38.533Z</time>
      </trkpt>
      <trkpt lat="44.92637" lon="5.44148">
        <ele>963</ele>
        <time>2020-05-21T17:29:39.533Z</time>
      </trkpt>
      <trkpt lat="44.92635" lon="5.44148">
        <ele>963</ele>
        <time>2020-05-21T17:29:40.533Z</time>
      </trkpt>
      <trkpt lat="44.92632" lon="5.44148">
        <ele>963</ele>
        <time>2020-05-21T17:29:41.533Z</time>
      </trkpt>
      <trkpt lat="44.9263" lon="5.44148">
        <ele>963</ele>
        <time>2020-05-21T17:29:42.533Z</time>
      </trkpt>
      <trkpt lat="44.92627" lon="5.44148">
        <ele>964</ele>
        <time>2020-05-21T17:29:43.533Z</time>
      </trkpt>
      <trkpt lat="44.92624" lon="5.44148">
        <ele>964</ele>
        <time>2020-05-21T17:29:44.533Z</time>
      </trkpt>
      <trkpt lat="44.92622" lon="5.44148">
        <ele>964</ele>
        <time>2020-05-21T17:29:45.533Z</time>
      </trkpt>
      <trkpt lat="44.92619" lon="5.44147">
        <ele>963</ele>
        <time>2020-05-21T17:29:46.533Z</time>
      </trkpt>
      <trkpt lat="44.92616" lon="5.44147">
        <ele>963</ele>
        <time>2020-05-21T17:29:47.533Z</time>
      </trkpt>
      <trkpt lat="44.92614" lon="5.44147">
        <ele>962</ele>
        <time>2020-05-21T17:29:48.533Z</time>
      </trkpt>
      <trkpt lat="44.92611" lon="5.44146">
        <ele>962</ele>
        <time>2020-05-21T17:29:49.533Z</time>
      </trkpt>
      <trkpt lat="44.92608" lon="5.44146">
        <ele>962</ele>
        <time>2020-05-21T17:29:50.533Z</time>
      </trkpt>
      <trkpt lat="44.92605" lon="5.44145">
        <ele>961</ele>
        <time>2020-05-21T17:29:51.533Z</time>
      </trkpt>
      <trkpt lat="44.92603" lon="5.44145">
        <ele>960</ele>
        <time>2020-05-21T17:29:52.533Z</time>
      </trkpt>
      <trkpt lat="44.926" lon="5.44145">
        <ele>959</ele>
        <time>2020-05-21T17:29:53.533Z</time>
      </trkpt>
      <trkpt lat="44.92597" lon="5.44144">
        <ele>958</ele>
        <time>2020-05-21T17:29:54.534Z</time>
      </trkpt>
      <trkpt lat="44.92595" lon="5.44144">
        <ele>957</ele>
        <time>2020-05-21T17:29:55.534Z</time>
      </trkpt>
      <trkpt lat="44.92592" lon="5.44143">
        <ele>957</ele>
        <time>2020-05-21T17:29:56.534Z</time>
      </trkpt>
      <trkpt lat="44.92589" lon="5.44142">
        <ele>956</ele>
        <time>2020-05-21T17:29:57.533Z</time>
      </trkpt>
      <trkpt lat="44.92587" lon="5.44141">
        <ele>955</ele>
        <time>2020-05-21T17:29:58.533Z</time>
      </trkpt>
      <trkpt lat="44.92584" lon="5.4414">
        <ele>954</ele>
        <time>2020-05-21T17:29:59.533Z</time>
      </trkpt>
      <trkpt lat="44.92582" lon="5.4414">
        <ele>953</ele>
        <time>2020-05-21T17:30:00.534Z</time>
      </trkpt>
      <trkpt lat="44.9258" lon="5.44139">
        <ele>952</ele>
        <time>2020-05-21T17:30:01.533Z</time>
      </trkpt>
      <trkpt lat="44.9258" lon="5.44139">
        <ele>952</ele>
        <time>2020-05-21T17:30:02.533Z</time>
      </trkpt>
      <trkpt lat="44.92575" lon="5.44139">
        <ele>950</ele>
        <time>2020-05-21T17:30:03.533Z</time>
      </trkpt>
      <trkpt lat="44.92572" lon="5.4414">
        <ele>949</ele>
        <time>2020-05-21T17:30:04.533Z</time>
      </trkpt>
      <trkpt lat="44.92569" lon="5.44139">
        <ele>948</ele>
        <time>2020-05-21T17:30:05.533Z</time>
      </trkpt>
      <trkpt lat="44.92567" lon="5.44139">
        <ele>948</ele>
        <time>2020-05-21T17:30:06.534Z</time>
      </trkpt>
      <trkpt lat="44.92564" lon="5.44138">
        <ele>948</ele>
        <time>2020-05-21T17:30:07.534Z</time>
      </trkpt>
      <trkpt lat="44.92562" lon="5.44137">
        <ele>948</ele>
        <time>2020-05-21T17:30:08.533Z</time>
      </trkpt>
      <trkpt lat="44.92562" lon="5.44137">
        <ele>948</ele>
        <time>2020-05-21T17:30:09.534Z</time>
      </trkpt>
      <trkpt lat="44.92556" lon="5.44134">
        <ele>948</ele>
        <time>2020-05-21T17:30:10.533Z</time>
      </trkpt>
      <trkpt lat="44.92554" lon="5.44132">
        <ele>948</ele>
        <time>2020-05-21T17:30:11.533Z</time>
      </trkpt>
      <trkpt lat="44.92552" lon="5.4413">
        <ele>948</ele>
        <time>2020-05-21T17:30:12.533Z</time>
      </trkpt>
      <trkpt lat="44.92549" lon="5.44128">
        <ele>947</ele>
        <time>2020-05-21T17:30:13.533Z</time>
      </trkpt>
      <trkpt lat="44.92547" lon="5.44125">
        <ele>946</ele>
        <time>2020-05-21T17:30:14.534Z</time>
      </trkpt>
      <trkpt lat="44.92545" lon="5.44123">
        <ele>946</ele>
        <time>2020-05-21T17:30:15.533Z</time>
      </trkpt>
      <trkpt lat="44.92543" lon="5.44121">
        <ele>945</ele>
        <time>2020-05-21T17:30:16.533Z</time>
      </trkpt>
      <trkpt lat="44.92541" lon="5.44119">
        <ele>944</ele>
        <time>2020-05-21T17:30:17.533Z</time>
      </trkpt>
      <trkpt lat="44.92538" lon="5.44118">
        <ele>944</ele>
        <time>2020-05-21T17:30:18.533Z</time>
      </trkpt>
      <trkpt lat="44.92535" lon="5.44117">
        <ele>943</ele>
        <time>2020-05-21T17:30:19.533Z</time>
      </trkpt>
      <trkpt lat="44.92533" lon="5.44116">
        <ele>942</ele>
        <time>2020-05-21T17:30:20.533Z</time>
      </trkpt>
      <trkpt lat="44.9253" lon="5.44115">
        <ele>941</ele>
        <time>2020-05-21T17:30:21.533Z</time>
      </trkpt>
      <trkpt lat="44.92527" lon="5.44114">
        <ele>941</ele>
        <time>2020-05-21T17:30:22.533Z</time>
      </trkpt>
      <trkpt lat="44.92524" lon="5.44113">
        <ele>941</ele>
        <time>2020-05-21T17:30:23.533Z</time>
      </trkpt>
      <trkpt lat="44.92521" lon="5.44113">
        <ele>940</ele>
        <time>2020-05-21T17:30:24.533Z</time>
      </trkpt>
      <trkpt lat="44.92518" lon="5.44113">
        <ele>940</ele>
        <time>2020-05-21T17:30:25.533Z</time>
      </trkpt>
      <trkpt lat="44.92515" lon="5.44113">
        <ele>940</ele>
        <time>2020-05-21T17:30:26.533Z</time>
      </trkpt>
      <trkpt lat="44.92513" lon="5.44113">
        <ele>939</ele>
        <time>2020-05-21T17:30:27.533Z</time>
      </trkpt>
      <trkpt lat="44.9251" lon="5.44114">
        <ele>939</ele>
        <time>2020-05-21T17:30:28.533Z</time>
      </trkpt>
      <trkpt lat="44.92508" lon="5.44115">
        <ele>938</ele>
        <time>2020-05-21T17:30:29.533Z</time>
      </trkpt>
      <trkpt lat="44.92505" lon="5.44116">
        <ele>937</ele>
        <time>2020-05-21T17:30:30.533Z</time>
      </trkpt>
      <trkpt lat="44.92502" lon="5.44117">
        <ele>937</ele>
        <time>2020-05-21T17:30:31.533Z</time>
      </trkpt>
      <trkpt lat="44.92499" lon="5.44118">
        <ele>937</ele>
        <time>2020-05-21T17:30:32.533Z</time>
      </trkpt>
      <trkpt lat="44.92496" lon="5.44118">
        <ele>937</ele>
        <time>2020-05-21T17:30:33.533Z</time>
      </trkpt>
      <trkpt lat="44.92493" lon="5.44119">
        <ele>937</ele>
        <time>2020-05-21T17:30:34.534Z</time>
      </trkpt>
      <trkpt lat="44.9249" lon="5.44119">
        <ele>936</ele>
        <time>2020-05-21T17:30:35.533Z</time>
      </trkpt>
      <trkpt lat="44.92487" lon="5.44117">
        <ele>936</ele>
        <time>2020-05-21T17:30:36.534Z</time>
      </trkpt>
      <trkpt lat="44.92485" lon="5.44117">
        <ele>936</ele>
        <time>2020-05-21T17:30:37.533Z</time>
      </trkpt>
      <trkpt lat="44.92482" lon="5.44116">
        <ele>936</ele>
        <time>2020-05-21T17:30:38.533Z</time>
      </trkpt>
      <trkpt lat="44.92479" lon="5.44115">
        <ele>936</ele>
        <time>2020-05-21T17:30:39.533Z</time>
      </trkpt>
      <trkpt lat="44.92475" lon="5.44113">
        <ele>936</ele>
        <time>2020-05-21T17:30:40.533Z</time>
      </trkpt>
      <trkpt lat="44.92472" lon="5.44112">
        <ele>936</ele>
        <time>2020-05-21T17:30:41.533Z</time>
      </trkpt>
      <trkpt lat="44.9247" lon="5.44111">
        <ele>935</ele>
        <time>2020-05-21T17:30:42.534Z</time>
      </trkpt>
      <trkpt lat="44.92468" lon="5.4411">
        <ele>935</ele>
        <time>2020-05-21T17:30:43.533Z</time>
      </trkpt>
      <trkpt lat="44.92465" lon="5.44109">
        <ele>934</ele>
        <time>2020-05-21T17:30:44.533Z</time>
      </trkpt>
      <trkpt lat="44.92461" lon="5.44108">
        <ele>934</ele>
        <time>2020-05-21T17:30:45.533Z</time>
      </trkpt>
      <trkpt lat="44.92459" lon="5.44108">
        <ele>933</ele>
        <time>2020-05-21T17:30:46.533Z</time>
      </trkpt>
      <trkpt lat="44.92456" lon="5.44106">
        <ele>933</ele>
        <time>2020-05-21T17:30:47.533Z</time>
      </trkpt>
      <trkpt lat="44.92456" lon="5.44106">
        <ele>933</ele>
        <time>2020-05-21T17:30:48.533Z</time>
      </trkpt>
      <trkpt lat="44.92451" lon="5.44104">
        <ele>932</ele>
        <time>2020-05-21T17:30:49.533Z</time>
      </trkpt>
      <trkpt lat="44.92448" lon="5.44103">
        <ele>932</ele>
        <time>2020-05-21T17:30:50.533Z</time>
      </trkpt>
      <trkpt lat="44.92446" lon="5.44102">
        <ele>931</ele>
        <time>2020-05-21T17:30:51.534Z</time>
      </trkpt>
      <trkpt lat="44.92443" lon="5.44101">
        <ele>931</ele>
        <time>2020-05-21T17:30:52.533Z</time>
      </trkpt>
      <trkpt lat="44.92441" lon="5.44101">
        <ele>931</ele>
        <time>2020-05-21T17:30:53.534Z</time>
      </trkpt>
      <trkpt lat="44.92438" lon="5.44099">
        <ele>931</ele>
        <time>2020-05-21T17:30:54.534Z</time>
      </trkpt>
      <trkpt lat="44.92436" lon="5.44098">
        <ele>931</ele>
        <time>2020-05-21T17:30:55.533Z</time>
      </trkpt>
      <trkpt lat="44.92433" lon="5.44096">
        <ele>930</ele>
        <time>2020-05-21T17:30:56.533Z</time>
      </trkpt>
      <trkpt lat="44.92431" lon="5.44095">
        <ele>930</ele>
        <time>2020-05-21T17:30:57.534Z</time>
      </trkpt>
      <trkpt lat="44.92428" lon="5.44094">
        <ele>930</ele>
        <time>2020-05-21T17:30:58.533Z</time>
      </trkpt>
      <trkpt lat="44.92426" lon="5.44093">
        <ele>929</ele>
        <time>2020-05-21T17:30:59.534Z</time>
      </trkpt>
      <trkpt lat="44.92423" lon="5.44091">
        <ele>929</ele>
        <time>2020-05-21T17:31:00.533Z</time>
      </trkpt>
      <trkpt lat="44.92421" lon="5.44089">
        <ele>928</ele>
        <time>2020-05-21T17:31:01.534Z</time>
      </trkpt>
      <trkpt lat="44.92419" lon="5.44088">
        <ele>928</ele>
        <time>2020-05-21T17:31:02.533Z</time>
      </trkpt>
      <trkpt lat="44.92416" lon="5.44084">
        <ele>928</ele>
        <time>2020-05-21T17:31:03.534Z</time>
      </trkpt>
      <trkpt lat="44.92413" lon="5.4408">
        <ele>927</ele>
        <time>2020-05-21T17:31:04.533Z</time>
      </trkpt>
      <trkpt lat="44.92411" lon="5.44076">
        <ele>928</ele>
        <time>2020-05-21T17:31:05.534Z</time>
      </trkpt>
      <trkpt lat="44.92409" lon="5.44073">
        <ele>928</ele>
        <time>2020-05-21T17:31:06.533Z</time>
      </trkpt>
      <trkpt lat="44.92408" lon="5.44069">
        <ele>928</ele>
        <time>2020-05-21T17:31:07.533Z</time>
      </trkpt>
      <trkpt lat="44.92405" lon="5.44065">
        <ele>928</ele>
        <time>2020-05-21T17:31:08.533Z</time>
      </trkpt>
      <trkpt lat="44.92404" lon="5.44062">
        <ele>928</ele>
        <time>2020-05-21T17:31:09.533Z</time>
      </trkpt>
      <trkpt lat="44.92403" lon="5.44059">
        <ele>928</ele>
        <time>2020-05-21T17:31:10.533Z</time>
      </trkpt>
      <trkpt lat="44.92402" lon="5.44055">
        <ele>928</ele>
        <time>2020-05-21T17:31:11.533Z</time>
      </trkpt>
      <trkpt lat="44.92401" lon="5.44052">
        <ele>928</ele>
        <time>2020-05-21T17:31:12.533Z</time>
      </trkpt>
      <trkpt lat="44.92399" lon="5.44048">
        <ele>929</ele>
        <time>2020-05-21T17:31:13.533Z</time>
      </trkpt>
      <trkpt lat="44.92398" lon="5.44044">
        <ele>930</ele>
        <time>2020-05-21T17:31:14.533Z</time>
      </trkpt>
      <trkpt lat="44.92396" lon="5.44041">
        <ele>931</ele>
        <time>2020-05-21T17:31:15.533Z</time>
      </trkpt>
      <trkpt lat="44.92393" lon="5.44038">
        <ele>932</ele>
        <time>2020-05-21T17:31:16.534Z</time>
      </trkpt>
      <trkpt lat="44.9239" lon="5.44036">
        <ele>932</ele>
        <time>2020-05-21T17:31:17.534Z</time>
      </trkpt>
      <trkpt lat="44.92388" lon="5.44034">
        <ele>933</ele>
        <time>2020-05-21T17:31:18.533Z</time>
      </trkpt>
      <trkpt lat="44.92386" lon="5.44032">
        <ele>934</ele>
        <time>2020-05-21T17:31:19.533Z</time>
      </trkpt>
      <trkpt lat="44.92383" lon="5.44031">
        <ele>935</ele>
        <time>2020-05-21T17:31:20.533Z</time>
      </trkpt>
      <trkpt lat="44.92381" lon="5.4403">
        <ele>935</ele>
        <time>2020-05-21T17:31:21.533Z</time>
      </trkpt>
      <trkpt lat="44.92378" lon="5.44029">
        <ele>935</ele>
        <time>2020-05-21T17:31:22.533Z</time>
      </trkpt>
      <trkpt lat="44.92376" lon="5.44029">
        <ele>936</ele>
        <time>2020-05-21T17:31:23.533Z</time>
      </trkpt>
      <trkpt lat="44.92376" lon="5.44029">
        <ele>936</ele>
        <time>2020-05-21T17:31:24.534Z</time>
      </trkpt>
      <trkpt lat="44.92371" lon="5.44029">
        <ele>936</ele>
        <time>2020-05-21T17:31:25.533Z</time>
      </trkpt>
      <trkpt lat="44.92369" lon="5.4403">
        <ele>937</ele>
        <time>2020-05-21T17:31:26.534Z</time>
      </trkpt>
      <trkpt lat="44.92366" lon="5.4403">
        <ele>937</ele>
        <time>2020-05-21T17:31:27.533Z</time>
      </trkpt>
      <trkpt lat="44.92363" lon="5.44031">
        <ele>937</ele>
        <time>2020-05-21T17:31:28.533Z</time>
      </trkpt>
      <trkpt lat="44.9236" lon="5.44031">
        <ele>937</ele>
        <time>2020-05-21T17:31:29.533Z</time>
      </trkpt>
      <trkpt lat="44.92357" lon="5.44032">
        <ele>937</ele>
        <time>2020-05-21T17:31:30.533Z</time>
      </trkpt>
      <trkpt lat="44.92354" lon="5.44033">
        <ele>938</ele>
        <time>2020-05-21T17:31:31.533Z</time>
      </trkpt>
      <trkpt lat="44.92352" lon="5.44034">
        <ele>938</ele>
        <time>2020-05-21T17:31:32.533Z</time>
      </trkpt>
      <trkpt lat="44.92349" lon="5.44035">
        <ele>938</ele>
        <time>2020-05-21T17:31:33.533Z</time>
      </trkpt>
      <trkpt lat="44.92346" lon="5.44035">
        <ele>938</ele>
        <time>2020-05-21T17:31:34.533Z</time>
      </trkpt>
      <trkpt lat="44.92342" lon="5.44034">
        <ele>938</ele>
        <time>2020-05-21T17:31:35.534Z</time>
      </trkpt>
      <trkpt lat="44.9234" lon="5.44033">
        <ele>938</ele>
        <time>2020-05-21T17:31:36.534Z</time>
      </trkpt>
      <trkpt lat="44.92337" lon="5.44032">
        <ele>938</ele>
        <time>2020-05-21T17:31:37.533Z</time>
      </trkpt>
      <trkpt lat="44.92334" lon="5.4403">
        <ele>937</ele>
        <time>2020-05-21T17:31:38.533Z</time>
      </trkpt>
      <trkpt lat="44.92332" lon="5.4403">
        <ele>937</ele>
        <time>2020-05-21T17:31:39.533Z</time>
      </trkpt>
      <trkpt lat="44.92329" lon="5.44029">
        <ele>936</ele>
        <time>2020-05-21T17:31:40.533Z</time>
      </trkpt>
      <trkpt lat="44.92327" lon="5.44029">
        <ele>935</ele>
        <time>2020-05-21T17:31:41.534Z</time>
      </trkpt>
      <trkpt lat="44.92324" lon="5.44028">
        <ele>934</ele>
        <time>2020-05-21T17:31:42.534Z</time>
      </trkpt>
      <trkpt lat="44.92322" lon="5.44027">
        <ele>933</ele>
        <time>2020-05-21T17:31:43.533Z</time>
      </trkpt>
      <trkpt lat="44.92319" lon="5.44026">
        <ele>932</ele>
        <time>2020-05-21T17:31:44.533Z</time>
      </trkpt>
      <trkpt lat="44.92317" lon="5.44026">
        <ele>931</ele>
        <time>2020-05-21T17:31:45.534Z</time>
      </trkpt>
      <trkpt lat="44.92314" lon="5.44025">
        <ele>930</ele>
        <time>2020-05-21T17:31:46.534Z</time>
      </trkpt>
      <trkpt lat="44.92312" lon="5.44024">
        <ele>929</ele>
        <time>2020-05-21T17:31:47.533Z</time>
      </trkpt>
      <trkpt lat="44.92309" lon="5.44023">
        <ele>928</ele>
        <time>2020-05-21T17:31:48.533Z</time>
      </trkpt>
      <trkpt lat="44.92306" lon="5.44022">
        <ele>927</ele>
        <time>2020-05-21T17:31:49.533Z</time>
      </trkpt>
      <trkpt lat="44.92304" lon="5.44021">
        <ele>927</ele>
        <time>2020-05-21T17:31:50.533Z</time>
      </trkpt>
      <trkpt lat="44.92301" lon="5.44019">
        <ele>926</ele>
        <time>2020-05-21T17:31:51.534Z</time>
      </trkpt>
      <trkpt lat="44.92299" lon="5.44018">
        <ele>925</ele>
        <time>2020-05-21T17:31:52.534Z</time>
      </trkpt>
      <trkpt lat="44.92296" lon="5.44016">
        <ele>924</ele>
        <time>2020-05-21T17:31:53.533Z</time>
      </trkpt>
      <trkpt lat="44.92294" lon="5.44014">
        <ele>924</ele>
        <time>2020-05-21T17:31:54.533Z</time>
      </trkpt>
      <trkpt lat="44.92292" lon="5.44012">
        <ele>923</ele>
        <time>2020-05-21T17:31:55.533Z</time>
      </trkpt>
      <trkpt lat="44.9229" lon="5.4401">
        <ele>922</ele>
        <time>2020-05-21T17:31:56.533Z</time>
      </trkpt>
      <trkpt lat="44.92288" lon="5.44007">
        <ele>921</ele>
        <time>2020-05-21T17:31:57.533Z</time>
      </trkpt>
      <trkpt lat="44.92286" lon="5.44005">
        <ele>920</ele>
        <time>2020-05-21T17:31:58.533Z</time>
      </trkpt>
      <trkpt lat="44.92284" lon="5.44003">
        <ele>920</ele>
        <time>2020-05-21T17:31:59.533Z</time>
      </trkpt>
      <trkpt lat="44.92282" lon="5.44">
        <ele>919</ele>
        <time>2020-05-21T17:32:00.533Z</time>
      </trkpt>
      <trkpt lat="44.9228" lon="5.43997">
        <ele>918</ele>
        <time>2020-05-21T17:32:01.533Z</time>
      </trkpt>
      <trkpt lat="44.92278" lon="5.43995">
        <ele>917</ele>
        <time>2020-05-21T17:32:02.533Z</time>
      </trkpt>
      <trkpt lat="44.92276" lon="5.43993">
        <ele>917</ele>
        <time>2020-05-21T17:32:03.533Z</time>
      </trkpt>
      <trkpt lat="44.92273" lon="5.43991">
        <ele>916</ele>
        <time>2020-05-21T17:32:04.534Z</time>
      </trkpt>
      <trkpt lat="44.92271" lon="5.43988">
        <ele>916</ele>
        <time>2020-05-21T17:32:05.533Z</time>
      </trkpt>
      <trkpt lat="44.92269" lon="5.43985">
        <ele>916</ele>
        <time>2020-05-21T17:32:06.534Z</time>
      </trkpt>
      <trkpt lat="44.92266" lon="5.43983">
        <ele>915</ele>
        <time>2020-05-21T17:32:07.533Z</time>
      </trkpt>
      <trkpt lat="44.92264" lon="5.43981">
        <ele>915</ele>
        <time>2020-05-21T17:32:08.533Z</time>
      </trkpt>
      <trkpt lat="44.92261" lon="5.43978">
        <ele>915</ele>
        <time>2020-05-21T17:32:09.533Z</time>
      </trkpt>
      <trkpt lat="44.92258" lon="5.43976">
        <ele>915</ele>
        <time>2020-05-21T17:32:10.533Z</time>
      </trkpt>
      <trkpt lat="44.92256" lon="5.43974">
        <ele>914</ele>
        <time>2020-05-21T17:32:11.533Z</time>
      </trkpt>
      <trkpt lat="44.92254" lon="5.43972">
        <ele>914</ele>
        <time>2020-05-21T17:32:12.533Z</time>
      </trkpt>
      <trkpt lat="44.92251" lon="5.4397">
        <ele>914</ele>
        <time>2020-05-21T17:32:13.533Z</time>
      </trkpt>
      <trkpt lat="44.92249" lon="5.43967">
        <ele>914</ele>
        <time>2020-05-21T17:32:14.533Z</time>
      </trkpt>
      <trkpt lat="44.92247" lon="5.43964">
        <ele>914</ele>
        <time>2020-05-21T17:32:15.533Z</time>
      </trkpt>
      <trkpt lat="44.92245" lon="5.43961">
        <ele>914</ele>
        <time>2020-05-21T17:32:16.533Z</time>
      </trkpt>
      <trkpt lat="44.92244" lon="5.43958">
        <ele>914</ele>
        <time>2020-05-21T17:32:17.533Z</time>
      </trkpt>
      <trkpt lat="44.92243" lon="5.43954">
        <ele>913</ele>
        <time>2020-05-21T17:32:18.533Z</time>
      </trkpt>
      <trkpt lat="44.92242" lon="5.43951">
        <ele>913</ele>
        <time>2020-05-21T17:32:19.533Z</time>
      </trkpt>
      <trkpt lat="44.92241" lon="5.43948">
        <ele>913</ele>
        <time>2020-05-21T17:32:20.534Z</time>
      </trkpt>
      <trkpt lat="44.92241" lon="5.43944">
        <ele>914</ele>
        <time>2020-05-21T17:32:21.533Z</time>
      </trkpt>
      <trkpt lat="44.92241" lon="5.43941">
        <ele>914</ele>
        <time>2020-05-21T17:32:22.533Z</time>
      </trkpt>
      <trkpt lat="44.9224" lon="5.43937">
        <ele>914</ele>
        <time>2020-05-21T17:32:23.534Z</time>
      </trkpt>
      <trkpt lat="44.9224" lon="5.43932">
        <ele>913</ele>
        <time>2020-05-21T17:32:24.534Z</time>
      </trkpt>
      <trkpt lat="44.9224" lon="5.43927">
        <ele>913</ele>
        <time>2020-05-21T17:32:25.533Z</time>
      </trkpt>
      <trkpt lat="44.9224" lon="5.43922">
        <ele>913</ele>
        <time>2020-05-21T17:32:26.533Z</time>
      </trkpt>
      <trkpt lat="44.9224" lon="5.4392">
        <ele>912</ele>
        <time>2020-05-21T17:32:27.534Z</time>
      </trkpt>
      <trkpt lat="44.9224" lon="5.43916">
        <ele>912</ele>
        <time>2020-05-21T17:32:28.533Z</time>
      </trkpt>
      <trkpt lat="44.92241" lon="5.43914">
        <ele>911</ele>
        <time>2020-05-21T17:32:29.534Z</time>
      </trkpt>
      <trkpt lat="44.92241" lon="5.43911">
        <ele>911</ele>
        <time>2020-05-21T17:32:30.533Z</time>
      </trkpt>
      <trkpt lat="44.92241" lon="5.43908">
        <ele>911</ele>
        <time>2020-05-21T17:32:31.533Z</time>
      </trkpt>
      <trkpt lat="44.92241" lon="5.43904">
        <ele>911</ele>
        <time>2020-05-21T17:32:32.533Z</time>
      </trkpt>
      <trkpt lat="44.92241" lon="5.43898">
        <ele>911</ele>
        <time>2020-05-21T17:32:33.533Z</time>
      </trkpt>
      <trkpt lat="44.92241" lon="5.43893">
        <ele>912</ele>
        <time>2020-05-21T17:32:34.533Z</time>
      </trkpt>
      <trkpt lat="44.9224" lon="5.43889">
        <ele>912</ele>
        <time>2020-05-21T17:32:35.533Z</time>
      </trkpt>
      <trkpt lat="44.9224" lon="5.43884">
        <ele>913</ele>
        <time>2020-05-21T17:32:36.534Z</time>
      </trkpt>
      <trkpt lat="44.92241" lon="5.4388">
        <ele>913</ele>
        <time>2020-05-21T17:32:37.533Z</time>
      </trkpt>
      <trkpt lat="44.92241" lon="5.4388">
        <ele>913</ele>
        <time>2020-05-21T17:32:38.534Z</time>
      </trkpt>
      <trkpt lat="44.92242" lon="5.43871">
        <ele>912</ele>
        <time>2020-05-21T17:32:39.533Z</time>
      </trkpt>
      <trkpt lat="44.92243" lon="5.43867">
        <ele>912</ele>
        <time>2020-05-21T17:32:40.533Z</time>
      </trkpt>
      <trkpt lat="44.92243" lon="5.43862">
        <ele>912</ele>
        <time>2020-05-21T17:32:41.533Z</time>
      </trkpt>
      <trkpt lat="44.92243" lon="5.43858">
        <ele>912</ele>
        <time>2020-05-21T17:32:42.533Z</time>
      </trkpt>
      <trkpt lat="44.92242" lon="5.43854">
        <ele>912</ele>
        <time>2020-05-21T17:32:43.533Z</time>
      </trkpt>
      <trkpt lat="44.92242" lon="5.43851">
        <ele>912</ele>
        <time>2020-05-21T17:32:44.533Z</time>
      </trkpt>
      <trkpt lat="44.92242" lon="5.43847">
        <ele>912</ele>
        <time>2020-05-21T17:32:45.533Z</time>
      </trkpt>
      <trkpt lat="44.92241" lon="5.43844">
        <ele>912</ele>
        <time>2020-05-21T17:32:46.533Z</time>
      </trkpt>
      <trkpt lat="44.9224" lon="5.4384">
        <ele>912</ele>
        <time>2020-05-21T17:32:47.533Z</time>
      </trkpt>
      <trkpt lat="44.9224" lon="5.43836">
        <ele>912</ele>
        <time>2020-05-21T17:32:48.533Z</time>
      </trkpt>
      <trkpt lat="44.92239" lon="5.43832">
        <ele>912</ele>
        <time>2020-05-21T17:32:49.533Z</time>
      </trkpt>
      <trkpt lat="44.92239" lon="5.43828">
        <ele>912</ele>
        <time>2020-05-21T17:32:50.533Z</time>
      </trkpt>
      <trkpt lat="44.92238" lon="5.43824">
        <ele>911</ele>
        <time>2020-05-21T17:32:51.533Z</time>
      </trkpt>
      <trkpt lat="44.92237" lon="5.43821">
        <ele>911</ele>
        <time>2020-05-21T17:32:52.533Z</time>
      </trkpt>
      <trkpt lat="44.92236" lon="5.43817">
        <ele>912</ele>
        <time>2020-05-21T17:32:53.533Z</time>
      </trkpt>
      <trkpt lat="44.92235" lon="5.43813">
        <ele>911</ele>
        <time>2020-05-21T17:32:54.533Z</time>
      </trkpt>
      <trkpt lat="44.92235" lon="5.43809">
        <ele>911</ele>
        <time>2020-05-21T17:32:55.533Z</time>
      </trkpt>
      <trkpt lat="44.92234" lon="5.43806">
        <ele>911</ele>
        <time>2020-05-21T17:32:56.533Z</time>
      </trkpt>
      <trkpt lat="44.92234" lon="5.43802">
        <ele>911</ele>
        <time>2020-05-21T17:32:57.533Z</time>
      </trkpt>
      <trkpt lat="44.92234" lon="5.43799">
        <ele>911</ele>
        <time>2020-05-21T17:32:58.533Z</time>
      </trkpt>
      <trkpt lat="44.92234" lon="5.43795">
        <ele>912</ele>
        <time>2020-05-21T17:32:59.534Z</time>
      </trkpt>
      <trkpt lat="44.92234" lon="5.43792">
        <ele>912</ele>
        <time>2020-05-21T17:33:00.534Z</time>
      </trkpt>
      <trkpt lat="44.92234" lon="5.43788">
        <ele>912</ele>
        <time>2020-05-21T17:33:01.533Z</time>
      </trkpt>
      <trkpt lat="44.92235" lon="5.43785">
        <ele>912</ele>
        <time>2020-05-21T17:33:02.534Z</time>
      </trkpt>
      <trkpt lat="44.92235" lon="5.43781">
        <ele>911</ele>
        <time>2020-05-21T17:33:03.534Z</time>
      </trkpt>
      <trkpt lat="44.92235" lon="5.43777">
        <ele>911</ele>
        <time>2020-05-21T17:33:04.533Z</time>
      </trkpt>
      <trkpt lat="44.92235" lon="5.43773">
        <ele>911</ele>
        <time>2020-05-21T17:33:05.533Z</time>
      </trkpt>
      <trkpt lat="44.92235" lon="5.43769">
        <ele>910</ele>
        <time>2020-05-21T17:33:06.533Z</time>
      </trkpt>
      <trkpt lat="44.92235" lon="5.43766">
        <ele>910</ele>
        <time>2020-05-21T17:33:07.533Z</time>
      </trkpt>
      <trkpt lat="44.92234" lon="5.43761">
        <ele>909</ele>
        <time>2020-05-21T17:33:08.533Z</time>
      </trkpt>
      <trkpt lat="44.92234" lon="5.43761">
        <ele>909</ele>
        <time>2020-05-21T17:33:09.533Z</time>
      </trkpt>
      <trkpt lat="44.92233" lon="5.43752">
        <ele>908</ele>
        <time>2020-05-21T17:33:10.533Z</time>
      </trkpt>
      <trkpt lat="44.92233" lon="5.43748">
        <ele>908</ele>
        <time>2020-05-21T17:33:11.533Z</time>
      </trkpt>
      <trkpt lat="44.92233" lon="5.43745">
        <ele>908</ele>
        <time>2020-05-21T17:33:12.533Z</time>
      </trkpt>
      <trkpt lat="44.92232" lon="5.4374">
        <ele>907</ele>
        <time>2020-05-21T17:33:13.534Z</time>
      </trkpt>
      <trkpt lat="44.92231" lon="5.43735">
        <ele>907</ele>
        <time>2020-05-21T17:33:14.533Z</time>
      </trkpt>
      <trkpt lat="44.9223" lon="5.4373">
        <ele>906</ele>
        <time>2020-05-21T17:33:15.533Z</time>
      </trkpt>
      <trkpt lat="44.92229" lon="5.43725">
        <ele>905</ele>
        <time>2020-05-21T17:33:16.533Z</time>
      </trkpt>
      <trkpt lat="44.92229" lon="5.43721">
        <ele>904</ele>
        <time>2020-05-21T17:33:17.533Z</time>
      </trkpt>
      <trkpt lat="44.92228" lon="5.43717">
        <ele>903</ele>
        <time>2020-05-21T17:33:18.533Z</time>
      </trkpt>
      <trkpt lat="44.92228" lon="5.43714">
        <ele>902</ele>
        <time>2020-05-21T17:33:19.533Z</time>
      </trkpt>
      <trkpt lat="44.92228" lon="5.43711">
        <ele>901</ele>
        <time>2020-05-21T17:33:20.533Z</time>
      </trkpt>
      <trkpt lat="44.92228" lon="5.43708">
        <ele>900</ele>
        <time>2020-05-21T17:33:21.533Z</time>
      </trkpt>
      <trkpt lat="44.92228" lon="5.43704">
        <ele>900</ele>
        <time>2020-05-21T17:33:22.534Z</time>
      </trkpt>
      <trkpt lat="44.92228" lon="5.437">
        <ele>900</ele>
        <time>2020-05-21T17:33:23.533Z</time>
      </trkpt>
      <trkpt lat="44.92228" lon="5.43696">
        <ele>899</ele>
        <time>2020-05-21T17:33:24.533Z</time>
      </trkpt>
      <trkpt lat="44.92228" lon="5.43692">
        <ele>899</ele>
        <time>2020-05-21T17:33:25.533Z</time>
      </trkpt>
      <trkpt lat="44.92228" lon="5.43688">
        <ele>899</ele>
        <time>2020-05-21T17:33:26.534Z</time>
      </trkpt>
      <trkpt lat="44.92228" lon="5.43684">
        <ele>899</ele>
        <time>2020-05-21T17:33:27.534Z</time>
      </trkpt>
      <trkpt lat="44.92229" lon="5.4368">
        <ele>899</ele>
        <time>2020-05-21T17:33:28.533Z</time>
      </trkpt>
      <trkpt lat="44.9223" lon="5.43677">
        <ele>898</ele>
        <time>2020-05-21T17:33:29.533Z</time>
      </trkpt>
      <trkpt lat="44.92231" lon="5.43673">
        <ele>898</ele>
        <time>2020-05-21T17:33:30.533Z</time>
      </trkpt>
      <trkpt lat="44.92232" lon="5.43669">
        <ele>897</ele>
        <time>2020-05-21T17:33:31.534Z</time>
      </trkpt>
      <trkpt lat="44.92233" lon="5.43667">
        <ele>897</ele>
        <time>2020-05-21T17:33:32.534Z</time>
      </trkpt>
      <trkpt lat="44.92233" lon="5.43664">
        <ele>896</ele>
        <time>2020-05-21T17:33:33.533Z</time>
      </trkpt>
      <trkpt lat="44.92233" lon="5.43661">
        <ele>895</ele>
        <time>2020-05-21T17:33:34.534Z</time>
      </trkpt>
      <trkpt lat="44.92234" lon="5.43658">
        <ele>895</ele>
        <time>2020-05-21T17:33:35.533Z</time>
      </trkpt>
      <trkpt lat="44.92234" lon="5.43655">
        <ele>895</ele>
        <time>2020-05-21T17:33:36.533Z</time>
      </trkpt>
      <trkpt lat="44.92234" lon="5.43653">
        <ele>894</ele>
        <time>2020-05-21T17:33:37.533Z</time>
      </trkpt>
      <trkpt lat="44.92234" lon="5.43651">
        <ele>894</ele>
        <time>2020-05-21T17:33:38.534Z</time>
      </trkpt>
      <trkpt lat="44.92234" lon="5.43649">
        <ele>893</ele>
        <time>2020-05-21T17:33:39.534Z</time>
      </trkpt>
      <trkpt lat="44.92234" lon="5.43647">
        <ele>893</ele>
        <time>2020-05-21T17:33:40.534Z</time>
      </trkpt>
      <trkpt lat="44.92234" lon="5.43644">
        <ele>892</ele>
        <time>2020-05-21T17:33:41.533Z</time>
      </trkpt>
      <trkpt lat="44.92233" lon="5.43641">
        <ele>891</ele>
        <time>2020-05-21T17:33:42.533Z</time>
      </trkpt>
      <trkpt lat="44.92233" lon="5.43641">
        <ele>891</ele>
        <time>2020-05-21T17:33:43.534Z</time>
      </trkpt>
      <trkpt lat="44.9223" lon="5.43634">
        <ele>891</ele>
        <time>2020-05-21T17:33:44.533Z</time>
      </trkpt>
      <trkpt lat="44.92227" lon="5.4363">
        <ele>890</ele>
        <time>2020-05-21T17:33:45.533Z</time>
      </trkpt>
      <trkpt lat="44.92226" lon="5.43626">
        <ele>890</ele>
        <time>2020-05-21T17:33:46.534Z</time>
      </trkpt>
      <trkpt lat="44.92225" lon="5.43621">
        <ele>889</ele>
        <time>2020-05-21T17:33:47.533Z</time>
      </trkpt>
      <trkpt lat="44.92223" lon="5.43617">
        <ele>888</ele>
        <time>2020-05-21T17:33:48.533Z</time>
      </trkpt>
      <trkpt lat="44.92221" lon="5.43614">
        <ele>888</ele>
        <time>2020-05-21T17:33:49.533Z</time>
      </trkpt>
      <trkpt lat="44.92218" lon="5.4361">
        <ele>887</ele>
        <time>2020-05-21T17:33:50.533Z</time>
      </trkpt>
      <trkpt lat="44.92216" lon="5.43605">
        <ele>887</ele>
        <time>2020-05-21T17:33:51.534Z</time>
      </trkpt>
      <trkpt lat="44.92214" lon="5.43601">
        <ele>887</ele>
        <time>2020-05-21T17:33:52.533Z</time>
      </trkpt>
      <trkpt lat="44.92212" lon="5.43599">
        <ele>886</ele>
        <time>2020-05-21T17:33:53.533Z</time>
      </trkpt>
      <trkpt lat="44.92209" lon="5.43593">
        <ele>886</ele>
        <time>2020-05-21T17:33:54.533Z</time>
      </trkpt>
      <trkpt lat="44.92206" lon="5.43589">
        <ele>887</ele>
        <time>2020-05-21T17:33:55.533Z</time>
      </trkpt>
      <trkpt lat="44.92203" lon="5.43585">
        <ele>888</ele>
        <time>2020-05-21T17:33:56.533Z</time>
      </trkpt>
      <trkpt lat="44.92202" lon="5.43584">
        <ele>888</ele>
        <time>2020-05-21T17:33:57.533Z</time>
      </trkpt>
      <trkpt lat="44.92199" lon="5.43581">
        <ele>889</ele>
        <time>2020-05-21T17:33:58.533Z</time>
      </trkpt>
      <trkpt lat="44.92197" lon="5.4358">
        <ele>889</ele>
        <time>2020-05-21T17:33:59.534Z</time>
      </trkpt>
      <trkpt lat="44.92196" lon="5.43579">
        <ele>889</ele>
        <time>2020-05-21T17:34:00.533Z</time>
      </trkpt>
      <trkpt lat="44.92195" lon="5.43577">
        <ele>889</ele>
        <time>2020-05-21T17:34:01.533Z</time>
      </trkpt>
      <trkpt lat="44.92193" lon="5.43575">
        <ele>889</ele>
        <time>2020-05-21T17:34:02.533Z</time>
      </trkpt>
      <trkpt lat="44.92191" lon="5.43574">
        <ele>888</ele>
        <time>2020-05-21T17:34:03.534Z</time>
      </trkpt>
      <trkpt lat="44.92191" lon="5.43574">
        <ele>888</ele>
        <time>2020-05-21T17:34:04.533Z</time>
      </trkpt>
      <trkpt lat="44.92186" lon="5.4357">
        <ele>888</ele>
        <time>2020-05-21T17:34:05.533Z</time>
      </trkpt>
      <trkpt lat="44.92184" lon="5.43568">
        <ele>888</ele>
        <time>2020-05-21T17:34:06.533Z</time>
      </trkpt>
      <trkpt lat="44.92181" lon="5.43565">
        <ele>887</ele>
        <time>2020-05-21T17:34:07.533Z</time>
      </trkpt>
      <trkpt lat="44.92179" lon="5.43564">
        <ele>887</ele>
        <time>2020-05-21T17:34:08.533Z</time>
      </trkpt>
      <trkpt lat="44.92177" lon="5.43562">
        <ele>888</ele>
        <time>2020-05-21T17:34:09.533Z</time>
      </trkpt>
      <trkpt lat="44.92174" lon="5.43561">
        <ele>888</ele>
        <time>2020-05-21T17:34:10.534Z</time>
      </trkpt>
      <trkpt lat="44.92172" lon="5.4356">
        <ele>888</ele>
        <time>2020-05-21T17:34:11.533Z</time>
      </trkpt>
      <trkpt lat="44.92169" lon="5.43558">
        <ele>888</ele>
        <time>2020-05-21T17:34:12.534Z</time>
      </trkpt>
      <trkpt lat="44.92167" lon="5.43556">
        <ele>888</ele>
        <time>2020-05-21T17:34:13.533Z</time>
      </trkpt>
      <trkpt lat="44.92162" lon="5.43553">
        <ele>888</ele>
        <time>2020-05-21T17:34:14.534Z</time>
      </trkpt>
      <trkpt lat="44.92159" lon="5.4355">
        <ele>887</ele>
        <time>2020-05-21T17:34:15.533Z</time>
      </trkpt>
      <trkpt lat="44.92155" lon="5.43547">
        <ele>887</ele>
        <time>2020-05-21T17:34:16.533Z</time>
      </trkpt>
      <trkpt lat="44.92153" lon="5.43546">
        <ele>886</ele>
        <time>2020-05-21T17:34:17.533Z</time>
      </trkpt>
      <trkpt lat="44.9215" lon="5.43544">
        <ele>885</ele>
        <time>2020-05-21T17:34:18.533Z</time>
      </trkpt>
      <trkpt lat="44.92147" lon="5.43542">
        <ele>885</ele>
        <time>2020-05-21T17:34:19.533Z</time>
      </trkpt>
      <trkpt lat="44.92145" lon="5.4354">
        <ele>884</ele>
        <time>2020-05-21T17:34:20.533Z</time>
      </trkpt>
      <trkpt lat="44.92143" lon="5.43538">
        <ele>883</ele>
        <time>2020-05-21T17:34:21.533Z</time>
      </trkpt>
      <trkpt lat="44.92141" lon="5.43536">
        <ele>882</ele>
        <time>2020-05-21T17:34:22.534Z</time>
      </trkpt>
      <trkpt lat="44.92138" lon="5.43533">
        <ele>881</ele>
        <time>2020-05-21T17:34:23.533Z</time>
      </trkpt>
      <trkpt lat="44.92137" lon="5.4353">
        <ele>880</ele>
        <time>2020-05-21T17:34:24.534Z</time>
      </trkpt>
      <trkpt lat="44.92136" lon="5.43526">
        <ele>879</ele>
        <time>2020-05-21T17:34:25.533Z</time>
      </trkpt>
      <trkpt lat="44.92136" lon="5.43522">
        <ele>879</ele>
        <time>2020-05-21T17:34:26.533Z</time>
      </trkpt>
      <trkpt lat="44.92137" lon="5.43519">
        <ele>878</ele>
        <time>2020-05-21T17:34:27.533Z</time>
      </trkpt>
      <trkpt lat="44.92139" lon="5.43517">
        <ele>877</ele>
        <time>2020-05-21T17:34:28.533Z</time>
      </trkpt>
      <trkpt lat="44.92142" lon="5.43516">
        <ele>877</ele>
        <time>2020-05-21T17:34:29.533Z</time>
      </trkpt>
      <trkpt lat="44.92145" lon="5.43515">
        <ele>877</ele>
        <time>2020-05-21T17:34:30.533Z</time>
      </trkpt>
      <trkpt lat="44.92148" lon="5.43516">
        <ele>876</ele>
        <time>2020-05-21T17:34:31.534Z</time>
      </trkpt>
      <trkpt lat="44.92148" lon="5.43516">
        <ele>876</ele>
        <time>2020-05-21T17:34:32.533Z</time>
      </trkpt>
      <trkpt lat="44.92154" lon="5.43519">
        <ele>876</ele>
        <time>2020-05-21T17:34:33.533Z</time>
      </trkpt>
      <trkpt lat="44.92157" lon="5.43521">
        <ele>875</ele>
        <time>2020-05-21T17:34:34.534Z</time>
      </trkpt>
      <trkpt lat="44.9216" lon="5.43523">
        <ele>875</ele>
        <time>2020-05-21T17:34:35.533Z</time>
      </trkpt>
      <trkpt lat="44.92162" lon="5.43524">
        <ele>875</ele>
        <time>2020-05-21T17:34:36.534Z</time>
      </trkpt>
      <trkpt lat="44.92165" lon="5.43526">
        <ele>875</ele>
        <time>2020-05-21T17:34:37.533Z</time>
      </trkpt>
      <trkpt lat="44.92167" lon="5.43526">
        <ele>875</ele>
        <time>2020-05-21T17:34:38.533Z</time>
      </trkpt>
      <trkpt lat="44.9217" lon="5.43527">
        <ele>875</ele>
        <time>2020-05-21T17:34:39.533Z</time>
      </trkpt>
      <trkpt lat="44.92173" lon="5.43527">
        <ele>875</ele>
        <time>2020-05-21T17:34:40.533Z</time>
      </trkpt>
      <trkpt lat="44.92175" lon="5.43528">
        <ele>875</ele>
        <time>2020-05-21T17:34:41.534Z</time>
      </trkpt>
      <trkpt lat="44.92177" lon="5.43529">
        <ele>875</ele>
        <time>2020-05-21T17:34:42.533Z</time>
      </trkpt>
      <trkpt lat="44.9218" lon="5.4353">
        <ele>875</ele>
        <time>2020-05-21T17:34:43.533Z</time>
      </trkpt>
      <trkpt lat="44.92182" lon="5.43531">
        <ele>875</ele>
        <time>2020-05-21T17:34:44.533Z</time>
      </trkpt>
      <trkpt lat="44.92185" lon="5.43531">
        <ele>874</ele>
        <time>2020-05-21T17:34:45.533Z</time>
      </trkpt>
      <trkpt lat="44.92187" lon="5.43531">
        <ele>874</ele>
        <time>2020-05-21T17:34:46.533Z</time>
      </trkpt>
      <trkpt lat="44.92189" lon="5.43531">
        <ele>874</ele>
        <time>2020-05-21T17:34:47.533Z</time>
      </trkpt>
      <trkpt lat="44.92192" lon="5.43531">
        <ele>874</ele>
        <time>2020-05-21T17:34:48.533Z</time>
      </trkpt>
      <trkpt lat="44.92194" lon="5.43531">
        <ele>873</ele>
        <time>2020-05-21T17:34:49.533Z</time>
      </trkpt>
      <trkpt lat="44.92196" lon="5.43531">
        <ele>873</ele>
        <time>2020-05-21T17:34:50.534Z</time>
      </trkpt>
      <trkpt lat="44.92199" lon="5.4353">
        <ele>873</ele>
        <time>2020-05-21T17:34:51.533Z</time>
      </trkpt>
      <trkpt lat="44.92202" lon="5.43528">
        <ele>873</ele>
        <time>2020-05-21T17:34:52.534Z</time>
      </trkpt>
      <trkpt lat="44.92205" lon="5.43526">
        <ele>872</ele>
        <time>2020-05-21T17:34:53.533Z</time>
      </trkpt>
      <trkpt lat="44.92207" lon="5.43524">
        <ele>872</ele>
        <time>2020-05-21T17:34:54.533Z</time>
      </trkpt>
      <trkpt lat="44.92209" lon="5.43521">
        <ele>872</ele>
        <time>2020-05-21T17:34:55.533Z</time>
      </trkpt>
      <trkpt lat="44.92211" lon="5.43518">
        <ele>872</ele>
        <time>2020-05-21T17:34:56.533Z</time>
      </trkpt>
      <trkpt lat="44.92214" lon="5.43515">
        <ele>872</ele>
        <time>2020-05-21T17:34:57.533Z</time>
      </trkpt>
      <trkpt lat="44.92216" lon="5.43513">
        <ele>871</ele>
        <time>2020-05-21T17:34:58.533Z</time>
      </trkpt>
      <trkpt lat="44.92218" lon="5.43511">
        <ele>871</ele>
        <time>2020-05-21T17:34:59.533Z</time>
      </trkpt>
      <trkpt lat="44.9222" lon="5.43508">
        <ele>870</ele>
        <time>2020-05-21T17:35:00.533Z</time>
      </trkpt>
      <trkpt lat="44.92222" lon="5.43506">
        <ele>870</ele>
        <time>2020-05-21T17:35:01.533Z</time>
      </trkpt>
      <trkpt lat="44.92224" lon="5.43503">
        <ele>869</ele>
        <time>2020-05-21T17:35:02.533Z</time>
      </trkpt>
      <trkpt lat="44.92227" lon="5.435">
        <ele>869</ele>
        <time>2020-05-21T17:35:03.533Z</time>
      </trkpt>
      <trkpt lat="44.92229" lon="5.43497">
        <ele>869</ele>
        <time>2020-05-21T17:35:04.533Z</time>
      </trkpt>
      <trkpt lat="44.92231" lon="5.43495">
        <ele>868</ele>
        <time>2020-05-21T17:35:05.533Z</time>
      </trkpt>
      <trkpt lat="44.92233" lon="5.43493">
        <ele>868</ele>
        <time>2020-05-21T17:35:06.533Z</time>
      </trkpt>
      <trkpt lat="44.92235" lon="5.43491">
        <ele>868</ele>
        <time>2020-05-21T17:35:07.534Z</time>
      </trkpt>
      <trkpt lat="44.92236" lon="5.4349">
        <ele>867</ele>
        <time>2020-05-21T17:35:08.533Z</time>
      </trkpt>
      <trkpt lat="44.92237" lon="5.43489">
        <ele>867</ele>
        <time>2020-05-21T17:35:09.533Z</time>
      </trkpt>
      <trkpt lat="44.92238" lon="5.43487">
        <ele>867</ele>
        <time>2020-05-21T17:35:10.533Z</time>
      </trkpt>
      <trkpt lat="44.9224" lon="5.43485">
        <ele>866</ele>
        <time>2020-05-21T17:35:11.533Z</time>
      </trkpt>
      <trkpt lat="44.92242" lon="5.43482">
        <ele>865</ele>
        <time>2020-05-21T17:35:12.533Z</time>
      </trkpt>
      <trkpt lat="44.92244" lon="5.4348">
        <ele>865</ele>
        <time>2020-05-21T17:35:13.533Z</time>
      </trkpt>
      <trkpt lat="44.92246" lon="5.43478">
        <ele>864</ele>
        <time>2020-05-21T17:35:14.533Z</time>
      </trkpt>
      <trkpt lat="44.92249" lon="5.43476">
        <ele>864</ele>
        <time>2020-05-21T17:35:15.533Z</time>
      </trkpt>
      <trkpt lat="44.92252" lon="5.43475">
        <ele>864</ele>
        <time>2020-05-21T17:35:16.533Z</time>
      </trkpt>
      <trkpt lat="44.92255" lon="5.43475">
        <ele>864</ele>
        <time>2020-05-21T17:35:17.533Z</time>
      </trkpt>
      <trkpt lat="44.92257" lon="5.43473">
        <ele>863</ele>
        <time>2020-05-21T17:35:18.534Z</time>
      </trkpt>
      <trkpt lat="44.92259" lon="5.43473">
        <ele>863</ele>
        <time>2020-05-21T17:35:19.533Z</time>
      </trkpt>
      <trkpt lat="44.92262" lon="5.43473">
        <ele>863</ele>
        <time>2020-05-21T17:35:20.533Z</time>
      </trkpt>
      <trkpt lat="44.92266" lon="5.43475">
        <ele>863</ele>
        <time>2020-05-21T17:35:21.533Z</time>
      </trkpt>
      <trkpt lat="44.92268" lon="5.43476">
        <ele>863</ele>
        <time>2020-05-21T17:35:22.533Z</time>
      </trkpt>
      <trkpt lat="44.92271" lon="5.43478">
        <ele>863</ele>
        <time>2020-05-21T17:35:23.534Z</time>
      </trkpt>
      <trkpt lat="44.92271" lon="5.43478">
        <ele>863</ele>
        <time>2020-05-21T17:35:24.533Z</time>
      </trkpt>
      <trkpt lat="44.92273" lon="5.43484">
        <ele>863</ele>
        <time>2020-05-21T17:35:25.533Z</time>
      </trkpt>
      <trkpt lat="44.92274" lon="5.43488">
        <ele>863</ele>
        <time>2020-05-21T17:35:26.534Z</time>
      </trkpt>
      <trkpt lat="44.92275" lon="5.43491">
        <ele>862</ele>
        <time>2020-05-21T17:35:27.533Z</time>
      </trkpt>
      <trkpt lat="44.92276" lon="5.43494">
        <ele>862</ele>
        <time>2020-05-21T17:35:28.533Z</time>
      </trkpt>
      <trkpt lat="44.92277" lon="5.43496">
        <ele>862</ele>
        <time>2020-05-21T17:35:29.533Z</time>
      </trkpt>
      <trkpt lat="44.92277" lon="5.435">
        <ele>861</ele>
        <time>2020-05-21T17:35:30.533Z</time>
      </trkpt>
      <trkpt lat="44.92278" lon="5.43505">
        <ele>861</ele>
        <time>2020-05-21T17:35:31.533Z</time>
      </trkpt>
      <trkpt lat="44.92278" lon="5.43509">
        <ele>861</ele>
        <time>2020-05-21T17:35:32.533Z</time>
      </trkpt>
      <trkpt lat="44.92279" lon="5.43513">
        <ele>861</ele>
        <time>2020-05-21T17:35:33.533Z</time>
      </trkpt>
      <trkpt lat="44.92279" lon="5.43515">
        <ele>861</ele>
        <time>2020-05-21T17:35:34.533Z</time>
      </trkpt>
      <trkpt lat="44.92279" lon="5.43519">
        <ele>861</ele>
        <time>2020-05-21T17:35:35.533Z</time>
      </trkpt>
      <trkpt lat="44.9228" lon="5.43522">
        <ele>861</ele>
        <time>2020-05-21T17:35:36.533Z</time>
      </trkpt>
      <trkpt lat="44.92281" lon="5.43525">
        <ele>861</ele>
        <time>2020-05-21T17:35:37.533Z</time>
      </trkpt>
      <trkpt lat="44.92281" lon="5.43528">
        <ele>861</ele>
        <time>2020-05-21T17:35:38.533Z</time>
      </trkpt>
      <trkpt lat="44.92282" lon="5.43531">
        <ele>861</ele>
        <time>2020-05-21T17:35:39.533Z</time>
      </trkpt>
      <trkpt lat="44.92283" lon="5.43534">
        <ele>861</ele>
        <time>2020-05-21T17:35:40.533Z</time>
      </trkpt>
      <trkpt lat="44.92284" lon="5.43538">
        <ele>862</ele>
        <time>2020-05-21T17:35:41.533Z</time>
      </trkpt>
      <trkpt lat="44.92284" lon="5.43542">
        <ele>863</ele>
        <time>2020-05-21T17:35:42.534Z</time>
      </trkpt>
      <trkpt lat="44.92285" lon="5.43546">
        <ele>863</ele>
        <time>2020-05-21T17:35:43.533Z</time>
      </trkpt>
      <trkpt lat="44.92285" lon="5.4355">
        <ele>863</ele>
        <time>2020-05-21T17:35:44.533Z</time>
      </trkpt>
      <trkpt lat="44.92285" lon="5.43554">
        <ele>864</ele>
        <time>2020-05-21T17:35:45.533Z</time>
      </trkpt>
      <trkpt lat="44.92285" lon="5.43557">
        <ele>864</ele>
        <time>2020-05-21T17:35:46.533Z</time>
      </trkpt>
      <trkpt lat="44.92285" lon="5.43561">
        <ele>864</ele>
        <time>2020-05-21T17:35:47.534Z</time>
      </trkpt>
      <trkpt lat="44.92284" lon="5.43565">
        <ele>865</ele>
        <time>2020-05-21T17:35:48.534Z</time>
      </trkpt>
      <trkpt lat="44.92284" lon="5.43568">
        <ele>865</ele>
        <time>2020-05-21T17:35:49.534Z</time>
      </trkpt>
      <trkpt lat="44.92284" lon="5.43571">
        <ele>866</ele>
        <time>2020-05-21T17:35:50.533Z</time>
      </trkpt>
      <trkpt lat="44.92284" lon="5.43574">
        <ele>866</ele>
        <time>2020-05-21T17:35:51.534Z</time>
      </trkpt>
      <trkpt lat="44.92284" lon="5.43576">
        <ele>867</ele>
        <time>2020-05-21T17:35:52.534Z</time>
      </trkpt>
      <trkpt lat="44.92284" lon="5.43579">
        <ele>867</ele>
        <time>2020-05-21T17:35:53.533Z</time>
      </trkpt>
      <trkpt lat="44.92285" lon="5.43582">
        <ele>868</ele>
        <time>2020-05-21T17:35:54.533Z</time>
      </trkpt>
      <trkpt lat="44.92287" lon="5.43585">
        <ele>868</ele>
        <time>2020-05-21T17:35:55.533Z</time>
      </trkpt>
      <trkpt lat="44.92289" lon="5.43588">
        <ele>869</ele>
        <time>2020-05-21T17:35:56.533Z</time>
      </trkpt>
      <trkpt lat="44.9229" lon="5.43592">
        <ele>869</ele>
        <time>2020-05-21T17:35:57.533Z</time>
      </trkpt>
      <trkpt lat="44.9229" lon="5.43592">
        <ele>869</ele>
        <time>2020-05-21T17:35:58.533Z</time>
      </trkpt>
      <trkpt lat="44.92293" lon="5.436">
        <ele>870</ele>
        <time>2020-05-21T17:35:59.533Z</time>
      </trkpt>
      <trkpt lat="44.92295" lon="5.43602">
        <ele>870</ele>
        <time>2020-05-21T17:36:00.534Z</time>
      </trkpt>
      <trkpt lat="44.92297" lon="5.43606">
        <ele>871</ele>
        <time>2020-05-21T17:36:01.533Z</time>
      </trkpt>
      <trkpt lat="44.92299" lon="5.43609">
        <ele>871</ele>
        <time>2020-05-21T17:36:02.533Z</time>
      </trkpt>
      <trkpt lat="44.92301" lon="5.43613">
        <ele>871</ele>
        <time>2020-05-21T17:36:03.533Z</time>
      </trkpt>
      <trkpt lat="44.92303" lon="5.43616">
        <ele>872</ele>
        <time>2020-05-21T17:36:04.533Z</time>
      </trkpt>
      <trkpt lat="44.92305" lon="5.43619">
        <ele>872</ele>
        <time>2020-05-21T17:36:05.533Z</time>
      </trkpt>
      <trkpt lat="44.92308" lon="5.43621">
        <ele>873</ele>
        <time>2020-05-21T17:36:06.533Z</time>
      </trkpt>
      <trkpt lat="44.9231" lon="5.43624">
        <ele>873</ele>
        <time>2020-05-21T17:36:07.533Z</time>
      </trkpt>
      <trkpt lat="44.92312" lon="5.43626">
        <ele>874</ele>
        <time>2020-05-21T17:36:08.533Z</time>
      </trkpt>
      <trkpt lat="44.92315" lon="5.43629">
        <ele>874</ele>
        <time>2020-05-21T17:36:09.533Z</time>
      </trkpt>
      <trkpt lat="44.92317" lon="5.43631">
        <ele>875</ele>
        <time>2020-05-21T17:36:10.533Z</time>
      </trkpt>
      <trkpt lat="44.9232" lon="5.43633">
        <ele>875</ele>
        <time>2020-05-21T17:36:11.533Z</time>
      </trkpt>
      <trkpt lat="44.92322" lon="5.43635">
        <ele>876</ele>
        <time>2020-05-21T17:36:12.533Z</time>
      </trkpt>
      <trkpt lat="44.92325" lon="5.43637">
        <ele>876</ele>
        <time>2020-05-21T17:36:13.533Z</time>
      </trkpt>
      <trkpt lat="44.92327" lon="5.43639">
        <ele>877</ele>
        <time>2020-05-21T17:36:14.533Z</time>
      </trkpt>
      <trkpt lat="44.9233" lon="5.43641">
        <ele>877</ele>
        <time>2020-05-21T17:36:15.533Z</time>
      </trkpt>
      <trkpt lat="44.92333" lon="5.43643">
        <ele>877</ele>
        <time>2020-05-21T17:36:16.534Z</time>
      </trkpt>
      <trkpt lat="44.92335" lon="5.43645">
        <ele>877</ele>
        <time>2020-05-21T17:36:17.533Z</time>
      </trkpt>
      <trkpt lat="44.92338" lon="5.43647">
        <ele>877</ele>
        <time>2020-05-21T17:36:18.533Z</time>
      </trkpt>
      <trkpt lat="44.92341" lon="5.4365">
        <ele>877</ele>
        <time>2020-05-21T17:36:19.533Z</time>
      </trkpt>
      <trkpt lat="44.92344" lon="5.43651">
        <ele>876</ele>
        <time>2020-05-21T17:36:20.534Z</time>
      </trkpt>
      <trkpt lat="44.92346" lon="5.43652">
        <ele>876</ele>
        <time>2020-05-21T17:36:21.534Z</time>
      </trkpt>
      <trkpt lat="44.92349" lon="5.43653">
        <ele>876</ele>
        <time>2020-05-21T17:36:22.533Z</time>
      </trkpt>
      <trkpt lat="44.92351" lon="5.43654">
        <ele>876</ele>
        <time>2020-05-21T17:36:23.533Z</time>
      </trkpt>
      <trkpt lat="44.92355" lon="5.43656">
        <ele>876</ele>
        <time>2020-05-21T17:36:24.534Z</time>
      </trkpt>
      <trkpt lat="44.92358" lon="5.43658">
        <ele>876</ele>
        <time>2020-05-21T17:36:25.533Z</time>
      </trkpt>
      <trkpt lat="44.92361" lon="5.43659">
        <ele>876</ele>
        <time>2020-05-21T17:36:26.533Z</time>
      </trkpt>
      <trkpt lat="44.92363" lon="5.43661">
        <ele>876</ele>
        <time>2020-05-21T17:36:27.533Z</time>
      </trkpt>
      <trkpt lat="44.92365" lon="5.43662">
        <ele>876</ele>
        <time>2020-05-21T17:36:28.533Z</time>
      </trkpt>
      <trkpt lat="44.92367" lon="5.43664">
        <ele>876</ele>
        <time>2020-05-21T17:36:29.533Z</time>
      </trkpt>
      <trkpt lat="44.9237" lon="5.43667">
        <ele>876</ele>
        <time>2020-05-21T17:36:30.533Z</time>
      </trkpt>
      <trkpt lat="44.92371" lon="5.4367">
        <ele>876</ele>
        <time>2020-05-21T17:36:31.534Z</time>
      </trkpt>
      <trkpt lat="44.92373" lon="5.43672">
        <ele>875</ele>
        <time>2020-05-21T17:36:32.533Z</time>
      </trkpt>
      <trkpt lat="44.92375" lon="5.43675">
        <ele>875</ele>
        <time>2020-05-21T17:36:33.533Z</time>
      </trkpt>
      <trkpt lat="44.92376" lon="5.43678">
        <ele>874</ele>
        <time>2020-05-21T17:36:34.534Z</time>
      </trkpt>
      <trkpt lat="44.92378" lon="5.43681">
        <ele>874</ele>
        <time>2020-05-21T17:36:35.533Z</time>
      </trkpt>
      <trkpt lat="44.9238" lon="5.43684">
        <ele>874</ele>
        <time>2020-05-21T17:36:36.533Z</time>
      </trkpt>
      <trkpt lat="44.92382" lon="5.43686">
        <ele>873</ele>
        <time>2020-05-21T17:36:37.533Z</time>
      </trkpt>
      <trkpt lat="44.92384" lon="5.43689">
        <ele>873</ele>
        <time>2020-05-21T17:36:38.533Z</time>
      </trkpt>
      <trkpt lat="44.92385" lon="5.43692">
        <ele>872</ele>
        <time>2020-05-21T17:36:39.533Z</time>
      </trkpt>
      <trkpt lat="44.92385" lon="5.43692">
        <ele>872</ele>
        <time>2020-05-21T17:36:40.533Z</time>
      </trkpt>
      <trkpt lat="44.92388" lon="5.43699">
        <ele>871</ele>
        <time>2020-05-21T17:36:41.533Z</time>
      </trkpt>
      <trkpt lat="44.92389" lon="5.43703">
        <ele>871</ele>
        <time>2020-05-21T17:36:42.533Z</time>
      </trkpt>
      <trkpt lat="44.92391" lon="5.43707">
        <ele>870</ele>
        <time>2020-05-21T17:36:43.533Z</time>
      </trkpt>
      <trkpt lat="44.92392" lon="5.4371">
        <ele>869</ele>
        <time>2020-05-21T17:36:44.533Z</time>
      </trkpt>
      <trkpt lat="44.92393" lon="5.43714">
        <ele>868</ele>
        <time>2020-05-21T17:36:45.534Z</time>
      </trkpt>
      <trkpt lat="44.92394" lon="5.43717">
        <ele>868</ele>
        <time>2020-05-21T17:36:46.533Z</time>
      </trkpt>
      <trkpt lat="44.92395" lon="5.4372">
        <ele>867</ele>
        <time>2020-05-21T17:36:47.533Z</time>
      </trkpt>
      <trkpt lat="44.92397" lon="5.43723">
        <ele>866</ele>
        <time>2020-05-21T17:36:48.533Z</time>
      </trkpt>
      <trkpt lat="44.92398" lon="5.43727">
        <ele>865</ele>
        <time>2020-05-21T17:36:49.533Z</time>
      </trkpt>
      <trkpt lat="44.924" lon="5.4373">
        <ele>864</ele>
        <time>2020-05-21T17:36:50.533Z</time>
      </trkpt>
      <trkpt lat="44.92401" lon="5.43734">
        <ele>863</ele>
        <time>2020-05-21T17:36:51.533Z</time>
      </trkpt>
      <trkpt lat="44.92403" lon="5.43737">
        <ele>862</ele>
        <time>2020-05-21T17:36:52.533Z</time>
      </trkpt>
      <trkpt lat="44.92405" lon="5.4374">
        <ele>862</ele>
        <time>2020-05-21T17:36:53.533Z</time>
      </trkpt>
      <trkpt lat="44.92406" lon="5.43744">
        <ele>861</ele>
        <time>2020-05-21T17:36:54.534Z</time>
      </trkpt>
      <trkpt lat="44.92408" lon="5.43747">
        <ele>860</ele>
        <time>2020-05-21T17:36:55.533Z</time>
      </trkpt>
      <trkpt lat="44.92409" lon="5.4375">
        <ele>860</ele>
        <time>2020-05-21T17:36:56.534Z</time>
      </trkpt>
      <trkpt lat="44.92411" lon="5.43753">
        <ele>859</ele>
        <time>2020-05-21T17:36:57.533Z</time>
      </trkpt>
      <trkpt lat="44.92413" lon="5.43756">
        <ele>858</ele>
        <time>2020-05-21T17:36:58.534Z</time>
      </trkpt>
      <trkpt lat="44.92414" lon="5.43759">
        <ele>857</ele>
        <time>2020-05-21T17:36:59.533Z</time>
      </trkpt>
      <trkpt lat="44.92415" lon="5.43764">
        <ele>857</ele>
        <time>2020-05-21T17:37:00.534Z</time>
      </trkpt>
      <trkpt lat="44.92415" lon="5.43768">
        <ele>855</ele>
        <time>2020-05-21T17:37:01.533Z</time>
      </trkpt>
      <trkpt lat="44.92415" lon="5.43772">
        <ele>854</ele>
        <time>2020-05-21T17:37:02.533Z</time>
      </trkpt>
      <trkpt lat="44.92416" lon="5.43776">
        <ele>853</ele>
        <time>2020-05-21T17:37:03.533Z</time>
      </trkpt>
      <trkpt lat="44.92416" lon="5.43781">
        <ele>852</ele>
        <time>2020-05-21T17:37:04.533Z</time>
      </trkpt>
      <trkpt lat="44.92417" lon="5.43784">
        <ele>851</ele>
        <time>2020-05-21T17:37:05.533Z</time>
      </trkpt>
      <trkpt lat="44.92418" lon="5.43788">
        <ele>851</ele>
        <time>2020-05-21T17:37:06.533Z</time>
      </trkpt>
      <trkpt lat="44.92418" lon="5.43793">
        <ele>850</ele>
        <time>2020-05-21T17:37:07.533Z</time>
      </trkpt>
      <trkpt lat="44.92419" lon="5.43797">
        <ele>850</ele>
        <time>2020-05-21T17:37:08.533Z</time>
      </trkpt>
      <trkpt lat="44.92419" lon="5.43801">
        <ele>849</ele>
        <time>2020-05-21T17:37:09.534Z</time>
      </trkpt>
      <trkpt lat="44.92419" lon="5.43805">
        <ele>848</ele>
        <time>2020-05-21T17:37:10.533Z</time>
      </trkpt>
      <trkpt lat="44.92419" lon="5.43805">
        <ele>848</ele>
        <time>2020-05-21T17:37:11.534Z</time>
      </trkpt>
      <trkpt lat="44.9242" lon="5.43809">
        <ele>848</ele>
        <time>2020-05-21T17:37:12.534Z</time>
      </trkpt>
      <trkpt lat="44.92422" lon="5.43814">
        <ele>847</ele>
        <time>2020-05-21T17:37:13.533Z</time>
      </trkpt>
      <trkpt lat="44.92424" lon="5.43814">
        <ele>846</ele>
        <time>2020-05-21T17:37:14.534Z</time>
      </trkpt>
      <trkpt lat="44.92425" lon="5.43814">
        <ele>846</ele>
        <time>2020-05-21T17:37:15.533Z</time>
      </trkpt>
      <trkpt lat="44.92426" lon="5.4381">
        <ele>846</ele>
        <time>2020-05-21T17:37:16.533Z</time>
      </trkpt>
      <trkpt lat="44.92427" lon="5.43806">
        <ele>846</ele>
        <time>2020-05-21T17:37:17.534Z</time>
      </trkpt>
      <trkpt lat="44.92427" lon="5.43803">
        <ele>846</ele>
        <time>2020-05-21T17:37:18.533Z</time>
      </trkpt>
      <trkpt lat="44.92427" lon="5.43799">
        <ele>845</ele>
        <time>2020-05-21T17:37:19.534Z</time>
      </trkpt>
      <trkpt lat="44.92427" lon="5.43795">
        <ele>845</ele>
        <time>2020-05-21T17:37:20.533Z</time>
      </trkpt>
      <trkpt lat="44.92426" lon="5.43791">
        <ele>845</ele>
        <time>2020-05-21T17:37:21.533Z</time>
      </trkpt>
      <trkpt lat="44.92426" lon="5.43787">
        <ele>845</ele>
        <time>2020-05-21T17:37:22.533Z</time>
      </trkpt>
      <trkpt lat="44.92426" lon="5.43782">
        <ele>845</ele>
        <time>2020-05-21T17:37:23.533Z</time>
      </trkpt>
      <trkpt lat="44.92426" lon="5.43782">
        <ele>845</ele>
        <time>2020-05-21T17:37:24.533Z</time>
      </trkpt>
      <trkpt lat="44.92425" lon="5.43774">
        <ele>843</ele>
        <time>2020-05-21T17:37:25.533Z</time>
      </trkpt>
      <trkpt lat="44.92425" lon="5.43771">
        <ele>843</ele>
        <time>2020-05-21T17:37:26.533Z</time>
      </trkpt>
      <trkpt lat="44.92424" lon="5.43767">
        <ele>842</ele>
        <time>2020-05-21T17:37:27.533Z</time>
      </trkpt>
      <trkpt lat="44.92424" lon="5.43763">
        <ele>842</ele>
        <time>2020-05-21T17:37:28.533Z</time>
      </trkpt>
      <trkpt lat="44.92423" lon="5.4376">
        <ele>841</ele>
        <time>2020-05-21T17:37:29.533Z</time>
      </trkpt>
      <trkpt lat="44.92423" lon="5.4376">
        <ele>841</ele>
        <time>2020-05-21T17:37:30.533Z</time>
      </trkpt>
      <trkpt lat="44.92423" lon="5.43752">
        <ele>840</ele>
        <time>2020-05-21T17:37:31.533Z</time>
      </trkpt>
      <trkpt lat="44.92423" lon="5.43749">
        <ele>840</ele>
        <time>2020-05-21T17:37:32.533Z</time>
      </trkpt>
      <trkpt lat="44.92422" lon="5.43746">
        <ele>839</ele>
        <time>2020-05-21T17:37:33.534Z</time>
      </trkpt>
      <trkpt lat="44.92422" lon="5.43743">
        <ele>838</ele>
        <time>2020-05-21T17:37:34.533Z</time>
      </trkpt>
      <trkpt lat="44.92422" lon="5.43738">
        <ele>838</ele>
        <time>2020-05-21T17:37:35.533Z</time>
      </trkpt>
      <trkpt lat="44.92421" lon="5.43735">
        <ele>837</ele>
        <time>2020-05-21T17:37:36.533Z</time>
      </trkpt>
      <trkpt lat="44.9242" lon="5.43731">
        <ele>836</ele>
        <time>2020-05-21T17:37:37.534Z</time>
      </trkpt>
      <trkpt lat="44.9242" lon="5.43727">
        <ele>836</ele>
        <time>2020-05-21T17:37:38.533Z</time>
      </trkpt>
      <trkpt lat="44.92419" lon="5.43725">
        <ele>836</ele>
        <time>2020-05-21T17:37:39.533Z</time>
      </trkpt>
      <trkpt lat="44.92418" lon="5.43721">
        <ele>836</ele>
        <time>2020-05-21T17:37:40.534Z</time>
      </trkpt>
      <trkpt lat="44.92417" lon="5.43716">
        <ele>836</ele>
        <time>2020-05-21T17:37:41.533Z</time>
      </trkpt>
      <trkpt lat="44.92416" lon="5.43712">
        <ele>836</ele>
        <time>2020-05-21T17:37:42.533Z</time>
      </trkpt>
      <trkpt lat="44.92416" lon="5.43709">
        <ele>836</ele>
        <time>2020-05-21T17:37:43.534Z</time>
      </trkpt>
      <trkpt lat="44.92416" lon="5.43709">
        <ele>836</ele>
        <time>2020-05-21T17:37:44.534Z</time>
      </trkpt>
      <trkpt lat="44.92414" lon="5.43702">
        <ele>835</ele>
        <time>2020-05-21T17:37:45.533Z</time>
      </trkpt>
      <trkpt lat="44.92413" lon="5.43698">
        <ele>835</ele>
        <time>2020-05-21T17:37:46.534Z</time>
      </trkpt>
      <trkpt lat="44.92413" lon="5.43694">
        <ele>834</ele>
        <time>2020-05-21T17:37:47.533Z</time>
      </trkpt>
      <trkpt lat="44.92413" lon="5.43691">
        <ele>834</ele>
        <time>2020-05-21T17:37:48.534Z</time>
      </trkpt>
      <trkpt lat="44.92413" lon="5.43688">
        <ele>833</ele>
        <time>2020-05-21T17:37:49.534Z</time>
      </trkpt>
      <trkpt lat="44.92413" lon="5.43686">
        <ele>833</ele>
        <time>2020-05-21T17:37:50.534Z</time>
      </trkpt>
      <trkpt lat="44.92412" lon="5.43683">
        <ele>832</ele>
        <time>2020-05-21T17:37:51.534Z</time>
      </trkpt>
      <trkpt lat="44.92412" lon="5.43679">
        <ele>832</ele>
        <time>2020-05-21T17:37:52.533Z</time>
      </trkpt>
      <trkpt lat="44.92412" lon="5.43676">
        <ele>831</ele>
        <time>2020-05-21T17:37:53.533Z</time>
      </trkpt>
      <trkpt lat="44.92411" lon="5.43673">
        <ele>831</ele>
        <time>2020-05-21T17:37:54.534Z</time>
      </trkpt>
      <trkpt lat="44.92411" lon="5.43669">
        <ele>830</ele>
        <time>2020-05-21T17:37:55.534Z</time>
      </trkpt>
      <trkpt lat="44.9241" lon="5.43665">
        <ele>830</ele>
        <time>2020-05-21T17:37:56.533Z</time>
      </trkpt>
      <trkpt lat="44.92409" lon="5.43661">
        <ele>830</ele>
        <time>2020-05-21T17:37:57.533Z</time>
      </trkpt>
      <trkpt lat="44.92409" lon="5.43657">
        <ele>830</ele>
        <time>2020-05-21T17:37:58.533Z</time>
      </trkpt>
      <trkpt lat="44.92409" lon="5.43653">
        <ele>829</ele>
        <time>2020-05-21T17:37:59.534Z</time>
      </trkpt>
      <trkpt lat="44.92408" lon="5.43649">
        <ele>829</ele>
        <time>2020-05-21T17:38:00.533Z</time>
      </trkpt>
      <trkpt lat="44.92408" lon="5.43649">
        <ele>829</ele>
        <time>2020-05-21T17:38:01.533Z</time>
      </trkpt>
      <trkpt lat="44.92408" lon="5.43645">
        <ele>828</ele>
        <time>2020-05-21T17:38:02.533Z</time>
      </trkpt>
      <trkpt lat="44.92406" lon="5.43637">
        <ele>828</ele>
        <time>2020-05-21T17:38:03.533Z</time>
      </trkpt>
      <trkpt lat="44.92406" lon="5.43635">
        <ele>827</ele>
        <time>2020-05-21T17:38:04.533Z</time>
      </trkpt>
      <trkpt lat="44.92406" lon="5.43635">
        <ele>827</ele>
        <time>2020-05-21T17:38:05.534Z</time>
      </trkpt>
      <trkpt lat="44.92405" lon="5.43626">
        <ele>827</ele>
        <time>2020-05-21T17:38:06.533Z</time>
      </trkpt>
      <trkpt lat="44.92405" lon="5.43623">
        <ele>827</ele>
        <time>2020-05-21T17:38:07.533Z</time>
      </trkpt>
      <trkpt lat="44.92405" lon="5.43619">
        <ele>826</ele>
        <time>2020-05-21T17:38:08.533Z</time>
      </trkpt>
      <trkpt lat="44.92405" lon="5.43615">
        <ele>826</ele>
        <time>2020-05-21T17:38:09.533Z</time>
      </trkpt>
      <trkpt lat="44.92405" lon="5.43611">
        <ele>826</ele>
        <time>2020-05-21T17:38:10.534Z</time>
      </trkpt>
      <trkpt lat="44.92405" lon="5.43607">
        <ele>825</ele>
        <time>2020-05-21T17:38:11.534Z</time>
      </trkpt>
      <trkpt lat="44.92405" lon="5.43604">
        <ele>825</ele>
        <time>2020-05-21T17:38:12.534Z</time>
      </trkpt>
      <trkpt lat="44.92405" lon="5.43604">
        <ele>825</ele>
        <time>2020-05-21T17:38:13.533Z</time>
      </trkpt>
      <trkpt lat="44.92406" lon="5.43596">
        <ele>824</ele>
        <time>2020-05-21T17:38:14.533Z</time>
      </trkpt>
      <trkpt lat="44.92406" lon="5.43591">
        <ele>824</ele>
        <time>2020-05-21T17:38:15.534Z</time>
      </trkpt>
      <trkpt lat="44.92406" lon="5.43587">
        <ele>824</ele>
        <time>2020-05-21T17:38:16.534Z</time>
      </trkpt>
      <trkpt lat="44.92407" lon="5.43584">
        <ele>823</ele>
        <time>2020-05-21T17:38:17.533Z</time>
      </trkpt>
      <trkpt lat="44.92408" lon="5.4358">
        <ele>823</ele>
        <time>2020-05-21T17:38:18.533Z</time>
      </trkpt>
      <trkpt lat="44.92408" lon="5.43577">
        <ele>823</ele>
        <time>2020-05-21T17:38:19.534Z</time>
      </trkpt>
      <trkpt lat="44.92409" lon="5.43572">
        <ele>822</ele>
        <time>2020-05-21T17:38:20.533Z</time>
      </trkpt>
      <trkpt lat="44.92409" lon="5.43569">
        <ele>822</ele>
        <time>2020-05-21T17:38:21.533Z</time>
      </trkpt>
      <trkpt lat="44.9241" lon="5.43565">
        <ele>822</ele>
        <time>2020-05-21T17:38:22.534Z</time>
      </trkpt>
      <trkpt lat="44.9241" lon="5.43562">
        <ele>822</ele>
        <time>2020-05-21T17:38:23.533Z</time>
      </trkpt>
      <trkpt lat="44.9241" lon="5.43558">
        <ele>822</ele>
        <time>2020-05-21T17:38:24.533Z</time>
      </trkpt>
      <trkpt lat="44.92411" lon="5.43553">
        <ele>822</ele>
        <time>2020-05-21T17:38:25.533Z</time>
      </trkpt>
      <trkpt lat="44.92411" lon="5.43553">
        <ele>822</ele>
        <time>2020-05-21T17:38:26.534Z</time>
      </trkpt>
      <trkpt lat="44.92411" lon="5.43546">
        <ele>822</ele>
        <time>2020-05-21T17:38:27.534Z</time>
      </trkpt>
      <trkpt lat="44.92411" lon="5.43542">
        <ele>822</ele>
        <time>2020-05-21T17:38:28.533Z</time>
      </trkpt>
      <trkpt lat="44.92412" lon="5.43538">
        <ele>822</ele>
        <time>2020-05-21T17:38:29.533Z</time>
      </trkpt>
      <trkpt lat="44.92412" lon="5.43538">
        <ele>822</ele>
        <time>2020-05-21T17:38:30.533Z</time>
      </trkpt>
      <trkpt lat="44.92411" lon="5.4353">
        <ele>821</ele>
        <time>2020-05-21T17:38:31.534Z</time>
      </trkpt>
      <trkpt lat="44.9241" lon="5.43526">
        <ele>821</ele>
        <time>2020-05-21T17:38:32.533Z</time>
      </trkpt>
      <trkpt lat="44.9241" lon="5.43522">
        <ele>821</ele>
        <time>2020-05-21T17:38:33.533Z</time>
      </trkpt>
      <trkpt lat="44.9241" lon="5.43522">
        <ele>821</ele>
        <time>2020-05-21T17:38:34.533Z</time>
      </trkpt>
      <trkpt lat="44.92409" lon="5.43514">
        <ele>820</ele>
        <time>2020-05-21T17:38:35.534Z</time>
      </trkpt>
      <trkpt lat="44.92408" lon="5.4351">
        <ele>820</ele>
        <time>2020-05-21T17:38:36.533Z</time>
      </trkpt>
      <trkpt lat="44.92408" lon="5.43507">
        <ele>820</ele>
        <time>2020-05-21T17:38:37.534Z</time>
      </trkpt>
      <trkpt lat="44.92407" lon="5.43504">
        <ele>821</ele>
        <time>2020-05-21T17:38:38.533Z</time>
      </trkpt>
      <trkpt lat="44.92407" lon="5.435">
        <ele>821</ele>
        <time>2020-05-21T17:38:39.534Z</time>
      </trkpt>
      <trkpt lat="44.92406" lon="5.43496">
        <ele>821</ele>
        <time>2020-05-21T17:38:40.533Z</time>
      </trkpt>
      <trkpt lat="44.92405" lon="5.43492">
        <ele>821</ele>
        <time>2020-05-21T17:38:41.534Z</time>
      </trkpt>
      <trkpt lat="44.92404" lon="5.43489">
        <ele>821</ele>
        <time>2020-05-21T17:38:42.534Z</time>
      </trkpt>
      <trkpt lat="44.92404" lon="5.43485">
        <ele>821</ele>
        <time>2020-05-21T17:38:43.533Z</time>
      </trkpt>
      <trkpt lat="44.92403" lon="5.43481">
        <ele>821</ele>
        <time>2020-05-21T17:38:44.534Z</time>
      </trkpt>
      <trkpt lat="44.92402" lon="5.43476">
        <ele>821</ele>
        <time>2020-05-21T17:38:45.534Z</time>
      </trkpt>
      <trkpt lat="44.92401" lon="5.43472">
        <ele>821</ele>
        <time>2020-05-21T17:38:46.533Z</time>
      </trkpt>
      <trkpt lat="44.924" lon="5.43468">
        <ele>820</ele>
        <time>2020-05-21T17:38:47.533Z</time>
      </trkpt>
      <trkpt lat="44.924" lon="5.43465">
        <ele>820</ele>
        <time>2020-05-21T17:38:48.534Z</time>
      </trkpt>
      <trkpt lat="44.92399" lon="5.4346">
        <ele>819</ele>
        <time>2020-05-21T17:38:49.533Z</time>
      </trkpt>
      <trkpt lat="44.92399" lon="5.43457">
        <ele>819</ele>
        <time>2020-05-21T17:38:50.533Z</time>
      </trkpt>
      <trkpt lat="44.92398" lon="5.43453">
        <ele>819</ele>
        <time>2020-05-21T17:38:51.534Z</time>
      </trkpt>
      <trkpt lat="44.92398" lon="5.4345">
        <ele>819</ele>
        <time>2020-05-21T17:38:52.533Z</time>
      </trkpt>
      <trkpt lat="44.92397" lon="5.43447">
        <ele>819</ele>
        <time>2020-05-21T17:38:53.534Z</time>
      </trkpt>
      <trkpt lat="44.92397" lon="5.43442">
        <ele>819</ele>
        <time>2020-05-21T17:38:54.533Z</time>
      </trkpt>
      <trkpt lat="44.92397" lon="5.43442">
        <ele>819</ele>
        <time>2020-05-21T17:38:55.533Z</time>
      </trkpt>
      <trkpt lat="44.92397" lon="5.43434">
        <ele>818</ele>
        <time>2020-05-21T17:38:56.533Z</time>
      </trkpt>
      <trkpt lat="44.92397" lon="5.43431">
        <ele>817</ele>
        <time>2020-05-21T17:38:57.534Z</time>
      </trkpt>
      <trkpt lat="44.92397" lon="5.43428">
        <ele>816</ele>
        <time>2020-05-21T17:38:58.534Z</time>
      </trkpt>
      <trkpt lat="44.92397" lon="5.43428">
        <ele>816</ele>
        <time>2020-05-21T17:38:59.533Z</time>
      </trkpt>
      <trkpt lat="44.92397" lon="5.43419">
        <ele>815</ele>
        <time>2020-05-21T17:39:00.534Z</time>
      </trkpt>
      <trkpt lat="44.92397" lon="5.43416">
        <ele>815</ele>
        <time>2020-05-21T17:39:01.533Z</time>
      </trkpt>
      <trkpt lat="44.92398" lon="5.43413">
        <ele>814</ele>
        <time>2020-05-21T17:39:02.533Z</time>
      </trkpt>
      <trkpt lat="44.92398" lon="5.43408">
        <ele>813</ele>
        <time>2020-05-21T17:39:03.533Z</time>
      </trkpt>
      <trkpt lat="44.92399" lon="5.43405">
        <ele>813</ele>
        <time>2020-05-21T17:39:04.534Z</time>
      </trkpt>
      <trkpt lat="44.924" lon="5.43401">
        <ele>813</ele>
        <time>2020-05-21T17:39:05.534Z</time>
      </trkpt>
      <trkpt lat="44.924" lon="5.43397">
        <ele>813</ele>
        <time>2020-05-21T17:39:06.533Z</time>
      </trkpt>
      <trkpt lat="44.92401" lon="5.43393">
        <ele>813</ele>
        <time>2020-05-21T17:39:07.533Z</time>
      </trkpt>
      <trkpt lat="44.92402" lon="5.43389">
        <ele>812</ele>
        <time>2020-05-21T17:39:08.533Z</time>
      </trkpt>
      <trkpt lat="44.92402" lon="5.43385">
        <ele>812</ele>
        <time>2020-05-21T17:39:09.533Z</time>
      </trkpt>
      <trkpt lat="44.92403" lon="5.43382">
        <ele>812</ele>
        <time>2020-05-21T17:39:10.534Z</time>
      </trkpt>
      <trkpt lat="44.92403" lon="5.43382">
        <ele>812</ele>
        <time>2020-05-21T17:39:11.533Z</time>
      </trkpt>
      <trkpt lat="44.92404" lon="5.43376">
        <ele>812</ele>
        <time>2020-05-21T17:39:12.533Z</time>
      </trkpt>
      <trkpt lat="44.92404" lon="5.43372">
        <ele>811</ele>
        <time>2020-05-21T17:39:13.533Z</time>
      </trkpt>
      <trkpt lat="44.92404" lon="5.43369">
        <ele>811</ele>
        <time>2020-05-21T17:39:14.533Z</time>
      </trkpt>
      <trkpt lat="44.92405" lon="5.43365">
        <ele>811</ele>
        <time>2020-05-21T17:39:15.533Z</time>
      </trkpt>
      <trkpt lat="44.92405" lon="5.43361">
        <ele>811</ele>
        <time>2020-05-21T17:39:16.533Z</time>
      </trkpt>
      <trkpt lat="44.92406" lon="5.43358">
        <ele>812</ele>
        <time>2020-05-21T17:39:17.533Z</time>
      </trkpt>
      <trkpt lat="44.92406" lon="5.43354">
        <ele>812</ele>
        <time>2020-05-21T17:39:18.533Z</time>
      </trkpt>
      <trkpt lat="44.92406" lon="5.43351">
        <ele>812</ele>
        <time>2020-05-21T17:39:19.533Z</time>
      </trkpt>
      <trkpt lat="44.92406" lon="5.43347">
        <ele>812</ele>
        <time>2020-05-21T17:39:20.533Z</time>
      </trkpt>
      <trkpt lat="44.92406" lon="5.43344">
        <ele>812</ele>
        <time>2020-05-21T17:39:21.534Z</time>
      </trkpt>
      <trkpt lat="44.92406" lon="5.43339">
        <ele>812</ele>
        <time>2020-05-21T17:39:22.534Z</time>
      </trkpt>
      <trkpt lat="44.92406" lon="5.43336">
        <ele>811</ele>
        <time>2020-05-21T17:39:23.534Z</time>
      </trkpt>
      <trkpt lat="44.92406" lon="5.43336">
        <ele>811</ele>
        <time>2020-05-21T17:39:24.533Z</time>
      </trkpt>
      <trkpt lat="44.92406" lon="5.43329">
        <ele>812</ele>
        <time>2020-05-21T17:39:25.533Z</time>
      </trkpt>
      <trkpt lat="44.92405" lon="5.43326">
        <ele>812</ele>
        <time>2020-05-21T17:39:26.533Z</time>
      </trkpt>
      <trkpt lat="44.92405" lon="5.43323">
        <ele>812</ele>
        <time>2020-05-21T17:39:27.533Z</time>
      </trkpt>
      <trkpt lat="44.92405" lon="5.43319">
        <ele>811</ele>
        <time>2020-05-21T17:39:28.533Z</time>
      </trkpt>
      <trkpt lat="44.92405" lon="5.43315">
        <ele>811</ele>
        <time>2020-05-21T17:39:29.533Z</time>
      </trkpt>
      <trkpt lat="44.92405" lon="5.43312">
        <ele>811</ele>
        <time>2020-05-21T17:39:30.534Z</time>
      </trkpt>
      <trkpt lat="44.92404" lon="5.43309">
        <ele>811</ele>
        <time>2020-05-21T17:39:31.533Z</time>
      </trkpt>
      <trkpt lat="44.92404" lon="5.43304">
        <ele>811</ele>
        <time>2020-05-21T17:39:32.533Z</time>
      </trkpt>
      <trkpt lat="44.92403" lon="5.43301">
        <ele>811</ele>
        <time>2020-05-21T17:39:33.533Z</time>
      </trkpt>
      <trkpt lat="44.92403" lon="5.43297">
        <ele>812</ele>
        <time>2020-05-21T17:39:34.533Z</time>
      </trkpt>
      <trkpt lat="44.92403" lon="5.43294">
        <ele>812</ele>
        <time>2020-05-21T17:39:35.533Z</time>
      </trkpt>
      <trkpt lat="44.92403" lon="5.43291">
        <ele>812</ele>
        <time>2020-05-21T17:39:36.533Z</time>
      </trkpt>
      <trkpt lat="44.92403" lon="5.43287">
        <ele>812</ele>
        <time>2020-05-21T17:39:37.533Z</time>
      </trkpt>
      <trkpt lat="44.92402" lon="5.43283">
        <ele>812</ele>
        <time>2020-05-21T17:39:38.533Z</time>
      </trkpt>
      <trkpt lat="44.92402" lon="5.4328">
        <ele>812</ele>
        <time>2020-05-21T17:39:39.533Z</time>
      </trkpt>
      <trkpt lat="44.92402" lon="5.4328">
        <ele>812</ele>
        <time>2020-05-21T17:39:40.533Z</time>
      </trkpt>
      <trkpt lat="44.92402" lon="5.43274">
        <ele>811</ele>
        <time>2020-05-21T17:39:41.533Z</time>
      </trkpt>
      <trkpt lat="44.92401" lon="5.4327">
        <ele>811</ele>
        <time>2020-05-21T17:39:42.534Z</time>
      </trkpt>
      <trkpt lat="44.92401" lon="5.43267">
        <ele>810</ele>
        <time>2020-05-21T17:39:43.534Z</time>
      </trkpt>
      <trkpt lat="44.92401" lon="5.43267">
        <ele>810</ele>
        <time>2020-05-21T17:39:44.533Z</time>
      </trkpt>
      <trkpt lat="44.924" lon="5.43261">
        <ele>810</ele>
        <time>2020-05-21T17:39:45.533Z</time>
      </trkpt>
      <trkpt lat="44.92399" lon="5.43258">
        <ele>810</ele>
        <time>2020-05-21T17:39:46.533Z</time>
      </trkpt>
      <trkpt lat="44.92399" lon="5.43255">
        <ele>809</ele>
        <time>2020-05-21T17:39:47.533Z</time>
      </trkpt>
      <trkpt lat="44.92399" lon="5.43255">
        <ele>809</ele>
        <time>2020-05-21T17:39:48.533Z</time>
      </trkpt>
      <trkpt lat="44.92398" lon="5.43248">
        <ele>809</ele>
        <time>2020-05-21T17:39:49.533Z</time>
      </trkpt>
      <trkpt lat="44.92397" lon="5.43245">
        <ele>808</ele>
        <time>2020-05-21T17:39:50.533Z</time>
      </trkpt>
      <trkpt lat="44.92396" lon="5.43242">
        <ele>808</ele>
        <time>2020-05-21T17:39:51.533Z</time>
      </trkpt>
      <trkpt lat="44.92395" lon="5.43239">
        <ele>808</ele>
        <time>2020-05-21T17:39:52.533Z</time>
      </trkpt>
      <trkpt lat="44.92394" lon="5.43237">
        <ele>808</ele>
        <time>2020-05-21T17:39:53.533Z</time>
      </trkpt>
      <trkpt lat="44.92393" lon="5.43234">
        <ele>807</ele>
        <time>2020-05-21T17:39:54.534Z</time>
      </trkpt>
      <trkpt lat="44.92392" lon="5.43232">
        <ele>807</ele>
        <time>2020-05-21T17:39:55.534Z</time>
      </trkpt>
      <trkpt lat="44.92391" lon="5.43229">
        <ele>807</ele>
        <time>2020-05-21T17:39:56.533Z</time>
      </trkpt>
      <trkpt lat="44.9239" lon="5.43226">
        <ele>807</ele>
        <time>2020-05-21T17:39:57.534Z</time>
      </trkpt>
      <trkpt lat="44.9239" lon="5.43223">
        <ele>807</ele>
        <time>2020-05-21T17:39:58.533Z</time>
      </trkpt>
      <trkpt lat="44.92389" lon="5.43221">
        <ele>806</ele>
        <time>2020-05-21T17:39:59.533Z</time>
      </trkpt>
      <trkpt lat="44.92388" lon="5.43218">
        <ele>806</ele>
        <time>2020-05-21T17:40:00.534Z</time>
      </trkpt>
      <trkpt lat="44.92388" lon="5.43218">
        <ele>806</ele>
        <time>2020-05-21T17:40:01.534Z</time>
      </trkpt>
      <trkpt lat="44.92386" lon="5.43212">
        <ele>805</ele>
        <time>2020-05-21T17:40:02.534Z</time>
      </trkpt>
      <trkpt lat="44.92385" lon="5.4321">
        <ele>806</ele>
        <time>2020-05-21T17:40:03.533Z</time>
      </trkpt>
      <trkpt lat="44.92384" lon="5.43207">
        <ele>806</ele>
        <time>2020-05-21T17:40:04.534Z</time>
      </trkpt>
      <trkpt lat="44.92384" lon="5.43207">
        <ele>806</ele>
        <time>2020-05-21T17:40:05.533Z</time>
      </trkpt>
      <trkpt lat="44.92383" lon="5.43203">
        <ele>805</ele>
        <time>2020-05-21T17:40:06.533Z</time>
      </trkpt>
      <trkpt lat="44.92382" lon="5.432">
        <ele>805</ele>
        <time>2020-05-21T17:40:07.533Z</time>
      </trkpt>
      <trkpt lat="44.9238" lon="5.43199">
        <ele>805</ele>
        <time>2020-05-21T17:40:08.533Z</time>
      </trkpt>
      <trkpt lat="44.92378" lon="5.43198">
        <ele>805</ele>
        <time>2020-05-21T17:40:09.533Z</time>
      </trkpt>
      <trkpt lat="44.92376" lon="5.43197">
        <ele>806</ele>
        <time>2020-05-21T17:40:10.533Z</time>
      </trkpt>
      <trkpt lat="44.92374" lon="5.43197">
        <ele>806</ele>
        <time>2020-05-21T17:40:11.533Z</time>
      </trkpt>
      <trkpt lat="44.92372" lon="5.43197">
        <ele>807</ele>
        <time>2020-05-21T17:40:12.534Z</time>
      </trkpt>
      <trkpt lat="44.9237" lon="5.43198">
        <ele>807</ele>
        <time>2020-05-21T17:40:13.533Z</time>
      </trkpt>
      <trkpt lat="44.92368" lon="5.43199">
        <ele>808</ele>
        <time>2020-05-21T17:40:14.533Z</time>
      </trkpt>
      <trkpt lat="44.92366" lon="5.43201">
        <ele>808</ele>
        <time>2020-05-21T17:40:15.533Z</time>
      </trkpt>
      <trkpt lat="44.92363" lon="5.43203">
        <ele>809</ele>
        <time>2020-05-21T17:40:16.533Z</time>
      </trkpt>
      <trkpt lat="44.92361" lon="5.43204">
        <ele>809</ele>
        <time>2020-05-21T17:40:17.533Z</time>
      </trkpt>
      <trkpt lat="44.92359" lon="5.43205">
        <ele>809</ele>
        <time>2020-05-21T17:40:18.533Z</time>
      </trkpt>
      <trkpt lat="44.92357" lon="5.43205">
        <ele>810</ele>
        <time>2020-05-21T17:40:19.533Z</time>
      </trkpt>
      <trkpt lat="44.92355" lon="5.43206">
        <ele>810</ele>
        <time>2020-05-21T17:40:20.533Z</time>
      </trkpt>
      <trkpt lat="44.92353" lon="5.43207">
        <ele>810</ele>
        <time>2020-05-21T17:40:21.533Z</time>
      </trkpt>
      <trkpt lat="44.9235" lon="5.43208">
        <ele>811</ele>
        <time>2020-05-21T17:40:22.533Z</time>
      </trkpt>
      <trkpt lat="44.92348" lon="5.43208">
        <ele>811</ele>
        <time>2020-05-21T17:40:23.534Z</time>
      </trkpt>
      <trkpt lat="44.92345" lon="5.43209">
        <ele>812</ele>
        <time>2020-05-21T17:40:24.533Z</time>
      </trkpt>
      <trkpt lat="44.92343" lon="5.43211">
        <ele>812</ele>
        <time>2020-05-21T17:40:25.533Z</time>
      </trkpt>
      <trkpt lat="44.92343" lon="5.43211">
        <ele>812</ele>
        <time>2020-05-21T17:40:26.534Z</time>
      </trkpt>
      <trkpt lat="44.92338" lon="5.43216">
        <ele>813</ele>
        <time>2020-05-21T17:40:27.533Z</time>
      </trkpt>
      <trkpt lat="44.92336" lon="5.43217">
        <ele>814</ele>
        <time>2020-05-21T17:40:28.533Z</time>
      </trkpt>
      <trkpt lat="44.92335" lon="5.43219">
        <ele>814</ele>
        <time>2020-05-21T17:40:29.533Z</time>
      </trkpt>
      <trkpt lat="44.92335" lon="5.43219">
        <ele>814</ele>
        <time>2020-05-21T17:40:30.533Z</time>
      </trkpt>
      <trkpt lat="44.92332" lon="5.43223">
        <ele>814</ele>
        <time>2020-05-21T17:40:31.534Z</time>
      </trkpt>
      <trkpt lat="44.92331" lon="5.43226">
        <ele>815</ele>
        <time>2020-05-21T17:40:32.533Z</time>
      </trkpt>
      <trkpt lat="44.92331" lon="5.43228">
        <ele>815</ele>
        <time>2020-05-21T17:40:33.533Z</time>
      </trkpt>
      <trkpt lat="44.9233" lon="5.43231">
        <ele>815</ele>
        <time>2020-05-21T17:40:34.533Z</time>
      </trkpt>
      <trkpt lat="44.92329" lon="5.43234">
        <ele>815</ele>
        <time>2020-05-21T17:40:35.534Z</time>
      </trkpt>
      <trkpt lat="44.92329" lon="5.43237">
        <ele>815</ele>
        <time>2020-05-21T17:40:36.533Z</time>
      </trkpt>
      <trkpt lat="44.92328" lon="5.43241">
        <ele>816</ele>
        <time>2020-05-21T17:40:37.533Z</time>
      </trkpt>
      <trkpt lat="44.92327" lon="5.43244">
        <ele>816</ele>
        <time>2020-05-21T17:40:38.534Z</time>
      </trkpt>
      <trkpt lat="44.92327" lon="5.43247">
        <ele>817</ele>
        <time>2020-05-21T17:40:39.534Z</time>
      </trkpt>
      <trkpt lat="44.92326" lon="5.4325">
        <ele>817</ele>
        <time>2020-05-21T17:40:40.534Z</time>
      </trkpt>
      <trkpt lat="44.92326" lon="5.43254">
        <ele>818</ele>
        <time>2020-05-21T17:40:41.534Z</time>
      </trkpt>
      <trkpt lat="44.92325" lon="5.43256">
        <ele>818</ele>
        <time>2020-05-21T17:40:42.533Z</time>
      </trkpt>
      <trkpt lat="44.92324" lon="5.43259">
        <ele>818</ele>
        <time>2020-05-21T17:40:43.533Z</time>
      </trkpt>
      <trkpt lat="44.92323" lon="5.43262">
        <ele>819</ele>
        <time>2020-05-21T17:40:44.533Z</time>
      </trkpt>
      <trkpt lat="44.92322" lon="5.43264">
        <ele>820</ele>
        <time>2020-05-21T17:40:45.534Z</time>
      </trkpt>
      <trkpt lat="44.92321" lon="5.43267">
        <ele>820</ele>
        <time>2020-05-21T17:40:46.533Z</time>
      </trkpt>
      <trkpt lat="44.92321" lon="5.4327">
        <ele>820</ele>
        <time>2020-05-21T17:40:47.534Z</time>
      </trkpt>
      <trkpt lat="44.9232" lon="5.43273">
        <ele>821</ele>
        <time>2020-05-21T17:40:48.533Z</time>
      </trkpt>
      <trkpt lat="44.9232" lon="5.43275">
        <ele>822</ele>
        <time>2020-05-21T17:40:49.534Z</time>
      </trkpt>
      <trkpt lat="44.92319" lon="5.43278">
        <ele>822</ele>
        <time>2020-05-21T17:40:50.533Z</time>
      </trkpt>
      <trkpt lat="44.92318" lon="5.4328">
        <ele>823</ele>
        <time>2020-05-21T17:40:51.534Z</time>
      </trkpt>
      <trkpt lat="44.92317" lon="5.43283">
        <ele>824</ele>
        <time>2020-05-21T17:40:52.533Z</time>
      </trkpt>
      <trkpt lat="44.92316" lon="5.43285">
        <ele>824</ele>
        <time>2020-05-21T17:40:53.533Z</time>
      </trkpt>
      <trkpt lat="44.92315" lon="5.43287">
        <ele>824</ele>
        <time>2020-05-21T17:40:54.534Z</time>
      </trkpt>
      <trkpt lat="44.92315" lon="5.43289">
        <ele>824</ele>
        <time>2020-05-21T17:40:55.533Z</time>
      </trkpt>
      <trkpt lat="44.92313" lon="5.43292">
        <ele>824</ele>
        <time>2020-05-21T17:40:56.533Z</time>
      </trkpt>
      <trkpt lat="44.92312" lon="5.43294">
        <ele>824</ele>
        <time>2020-05-21T17:40:57.534Z</time>
      </trkpt>
      <trkpt lat="44.92311" lon="5.43296">
        <ele>824</ele>
        <time>2020-05-21T17:40:58.533Z</time>
      </trkpt>
      <trkpt lat="44.9231" lon="5.43298">
        <ele>824</ele>
        <time>2020-05-21T17:40:59.533Z</time>
      </trkpt>
      <trkpt lat="44.92309" lon="5.43301">
        <ele>824</ele>
        <time>2020-05-21T17:41:00.534Z</time>
      </trkpt>
      <trkpt lat="44.92307" lon="5.43303">
        <ele>825</ele>
        <time>2020-05-21T17:41:01.534Z</time>
      </trkpt>
      <trkpt lat="44.92306" lon="5.43306">
        <ele>825</ele>
        <time>2020-05-21T17:41:02.533Z</time>
      </trkpt>
      <trkpt lat="44.92305" lon="5.43308">
        <ele>825</ele>
        <time>2020-05-21T17:41:03.534Z</time>
      </trkpt>
      <trkpt lat="44.92304" lon="5.4331">
        <ele>826</ele>
        <time>2020-05-21T17:41:04.533Z</time>
      </trkpt>
      <trkpt lat="44.92303" lon="5.43312">
        <ele>826</ele>
        <time>2020-05-21T17:41:05.533Z</time>
      </trkpt>
      <trkpt lat="44.92302" lon="5.43314">
        <ele>826</ele>
        <time>2020-05-21T17:41:06.534Z</time>
      </trkpt>
      <trkpt lat="44.923" lon="5.43316">
        <ele>827</ele>
        <time>2020-05-21T17:41:07.534Z</time>
      </trkpt>
      <trkpt lat="44.92299" lon="5.43318">
        <ele>827</ele>
        <time>2020-05-21T17:41:08.534Z</time>
      </trkpt>
      <trkpt lat="44.92299" lon="5.43318">
        <ele>827</ele>
        <time>2020-05-21T17:41:09.534Z</time>
      </trkpt>
      <trkpt lat="44.92297" lon="5.43323">
        <ele>827</ele>
        <time>2020-05-21T17:41:10.533Z</time>
      </trkpt>
      <trkpt lat="44.92297" lon="5.43323">
        <ele>827</ele>
        <time>2020-05-21T17:41:11.534Z</time>
      </trkpt>
      <trkpt lat="44.92294" lon="5.43327">
        <ele>826</ele>
        <time>2020-05-21T17:41:12.533Z</time>
      </trkpt>
      <trkpt lat="44.92292" lon="5.43329">
        <ele>826</ele>
        <time>2020-05-21T17:41:13.533Z</time>
      </trkpt>
      <trkpt lat="44.92291" lon="5.43331">
        <ele>826</ele>
        <time>2020-05-21T17:41:14.533Z</time>
      </trkpt>
      <trkpt lat="44.9229" lon="5.43333">
        <ele>826</ele>
        <time>2020-05-21T17:41:15.533Z</time>
      </trkpt>
      <trkpt lat="44.92288" lon="5.43335">
        <ele>826</ele>
        <time>2020-05-21T17:41:16.533Z</time>
      </trkpt>
      <trkpt lat="44.92287" lon="5.43337">
        <ele>825</ele>
        <time>2020-05-21T17:41:17.533Z</time>
      </trkpt>
      <trkpt lat="44.92285" lon="5.43339">
        <ele>825</ele>
        <time>2020-05-21T17:41:18.533Z</time>
      </trkpt>
      <trkpt lat="44.92284" lon="5.43341">
        <ele>825</ele>
        <time>2020-05-21T17:41:19.533Z</time>
      </trkpt>
      <trkpt lat="44.92282" lon="5.43342">
        <ele>825</ele>
        <time>2020-05-21T17:41:20.533Z</time>
      </trkpt>
      <trkpt lat="44.92281" lon="5.43344">
        <ele>825</ele>
        <time>2020-05-21T17:41:21.533Z</time>
      </trkpt>
      <trkpt lat="44.92279" lon="5.43345">
        <ele>825</ele>
        <time>2020-05-21T17:41:22.534Z</time>
      </trkpt>
      <trkpt lat="44.92277" lon="5.43347">
        <ele>825</ele>
        <time>2020-05-21T17:41:23.533Z</time>
      </trkpt>
      <trkpt lat="44.92276" lon="5.43348">
        <ele>825</ele>
        <time>2020-05-21T17:41:24.533Z</time>
      </trkpt>
      <trkpt lat="44.92273" lon="5.4335">
        <ele>825</ele>
        <time>2020-05-21T17:41:25.534Z</time>
      </trkpt>
      <trkpt lat="44.92271" lon="5.43351">
        <ele>826</ele>
        <time>2020-05-21T17:41:26.533Z</time>
      </trkpt>
      <trkpt lat="44.9227" lon="5.43353">
        <ele>826</ele>
        <time>2020-05-21T17:41:27.533Z</time>
      </trkpt>
      <trkpt lat="44.92268" lon="5.43354">
        <ele>825</ele>
        <time>2020-05-21T17:41:28.533Z</time>
      </trkpt>
      <trkpt lat="44.92266" lon="5.43355">
        <ele>825</ele>
        <time>2020-05-21T17:41:29.533Z</time>
      </trkpt>
      <trkpt lat="44.92264" lon="5.43356">
        <ele>825</ele>
        <time>2020-05-21T17:41:30.533Z</time>
      </trkpt>
      <trkpt lat="44.92262" lon="5.43357">
        <ele>825</ele>
        <time>2020-05-21T17:41:31.533Z</time>
      </trkpt>
      <trkpt lat="44.9226" lon="5.43358">
        <ele>825</ele>
        <time>2020-05-21T17:41:32.533Z</time>
      </trkpt>
      <trkpt lat="44.92258" lon="5.43359">
        <ele>825</ele>
        <time>2020-05-21T17:41:33.533Z</time>
      </trkpt>
      <trkpt lat="44.92256" lon="5.4336">
        <ele>825</ele>
        <time>2020-05-21T17:41:34.533Z</time>
      </trkpt>
      <trkpt lat="44.92254" lon="5.43361">
        <ele>825</ele>
        <time>2020-05-21T17:41:35.533Z</time>
      </trkpt>
      <trkpt lat="44.92252" lon="5.43361">
        <ele>826</ele>
        <time>2020-05-21T17:41:36.534Z</time>
      </trkpt>
      <trkpt lat="44.9225" lon="5.43362">
        <ele>826</ele>
        <time>2020-05-21T17:41:37.533Z</time>
      </trkpt>
      <trkpt lat="44.92248" lon="5.43362">
        <ele>826</ele>
        <time>2020-05-21T17:41:38.533Z</time>
      </trkpt>
      <trkpt lat="44.92245" lon="5.43363">
        <ele>826</ele>
        <time>2020-05-21T17:41:39.533Z</time>
      </trkpt>
      <trkpt lat="44.92245" lon="5.43363">
        <ele>826</ele>
        <time>2020-05-21T17:41:40.533Z</time>
      </trkpt>
      <trkpt lat="44.92241" lon="5.43363">
        <ele>826</ele>
        <time>2020-05-21T17:41:41.534Z</time>
      </trkpt>
      <trkpt lat="44.92239" lon="5.43364">
        <ele>826</ele>
        <time>2020-05-21T17:41:42.533Z</time>
      </trkpt>
      <trkpt lat="44.92237" lon="5.43364">
        <ele>826</ele>
        <time>2020-05-21T17:41:43.533Z</time>
      </trkpt>
      <trkpt lat="44.92237" lon="5.43364">
        <ele>826</ele>
        <time>2020-05-21T17:41:44.533Z</time>
      </trkpt>
      <trkpt lat="44.92233" lon="5.43363">
        <ele>826</ele>
        <time>2020-05-21T17:41:45.533Z</time>
      </trkpt>
      <trkpt lat="44.92231" lon="5.43364">
        <ele>827</ele>
        <time>2020-05-21T17:41:46.533Z</time>
      </trkpt>
      <trkpt lat="44.92229" lon="5.43364">
        <ele>827</ele>
        <time>2020-05-21T17:41:47.533Z</time>
      </trkpt>
      <trkpt lat="44.92227" lon="5.43364">
        <ele>828</ele>
        <time>2020-05-21T17:41:48.533Z</time>
      </trkpt>
      <trkpt lat="44.92225" lon="5.43364">
        <ele>828</ele>
        <time>2020-05-21T17:41:49.534Z</time>
      </trkpt>
      <trkpt lat="44.92223" lon="5.43364">
        <ele>829</ele>
        <time>2020-05-21T17:41:50.533Z</time>
      </trkpt>
      <trkpt lat="44.92221" lon="5.43363">
        <ele>829</ele>
        <time>2020-05-21T17:41:51.533Z</time>
      </trkpt>
      <trkpt lat="44.92219" lon="5.43364">
        <ele>829</ele>
        <time>2020-05-21T17:41:52.533Z</time>
      </trkpt>
      <trkpt lat="44.92219" lon="5.43364">
        <ele>829</ele>
        <time>2020-05-21T17:41:53.534Z</time>
      </trkpt>
      <trkpt lat="44.92215" lon="5.43364">
        <ele>829</ele>
        <time>2020-05-21T17:41:54.533Z</time>
      </trkpt>
      <trkpt lat="44.92213" lon="5.43364">
        <ele>830</ele>
        <time>2020-05-21T17:41:55.533Z</time>
      </trkpt>
      <trkpt lat="44.92213" lon="5.43364">
        <ele>830</ele>
        <time>2020-05-21T17:41:56.533Z</time>
      </trkpt>
      <trkpt lat="44.92209" lon="5.43365">
        <ele>830</ele>
        <time>2020-05-21T17:41:57.533Z</time>
      </trkpt>
      <trkpt lat="44.92207" lon="5.43366">
        <ele>830</ele>
        <time>2020-05-21T17:41:58.534Z</time>
      </trkpt>
      <trkpt lat="44.92205" lon="5.43366">
        <ele>830</ele>
        <time>2020-05-21T17:41:59.533Z</time>
      </trkpt>
      <trkpt lat="44.92203" lon="5.43367">
        <ele>831</ele>
        <time>2020-05-21T17:42:00.533Z</time>
      </trkpt>
      <trkpt lat="44.92203" lon="5.43367">
        <ele>831</ele>
        <time>2020-05-21T17:42:01.533Z</time>
      </trkpt>
      <trkpt lat="44.92199" lon="5.43368">
        <ele>831</ele>
        <time>2020-05-21T17:42:02.533Z</time>
      </trkpt>
      <trkpt lat="44.92197" lon="5.43368">
        <ele>831</ele>
        <time>2020-05-21T17:42:03.533Z</time>
      </trkpt>
      <trkpt lat="44.92195" lon="5.43368">
        <ele>831</ele>
        <time>2020-05-21T17:42:04.533Z</time>
      </trkpt>
      <trkpt lat="44.92195" lon="5.43368">
        <ele>831</ele>
        <time>2020-05-21T17:42:05.533Z</time>
      </trkpt>
      <trkpt lat="44.92192" lon="5.43367">
        <ele>831</ele>
        <time>2020-05-21T17:42:06.533Z</time>
      </trkpt>
      <trkpt lat="44.92191" lon="5.43366">
        <ele>831</ele>
        <time>2020-05-21T17:42:07.533Z</time>
      </trkpt>
      <trkpt lat="44.92189" lon="5.43364">
        <ele>831</ele>
        <time>2020-05-21T17:42:08.533Z</time>
      </trkpt>
      <trkpt lat="44.92189" lon="5.43364">
        <ele>831</ele>
        <time>2020-05-21T17:42:09.534Z</time>
      </trkpt>
      <trkpt lat="44.92186" lon="5.43362">
        <ele>831</ele>
        <time>2020-05-21T17:42:10.533Z</time>
      </trkpt>
      <trkpt lat="44.92184" lon="5.43363">
        <ele>830</ele>
        <time>2020-05-21T17:42:11.534Z</time>
      </trkpt>
      <trkpt lat="44.92182" lon="5.43363">
        <ele>831</ele>
        <time>2020-05-21T17:42:12.533Z</time>
      </trkpt>
      <trkpt lat="44.92181" lon="5.43365">
        <ele>831</ele>
        <time>2020-05-21T17:42:13.533Z</time>
      </trkpt>
      <trkpt lat="44.92179" lon="5.43366">
        <ele>831</ele>
        <time>2020-05-21T17:42:14.533Z</time>
      </trkpt>
      <trkpt lat="44.92177" lon="5.43368">
        <ele>831</ele>
        <time>2020-05-21T17:42:15.533Z</time>
      </trkpt>
      <trkpt lat="44.92176" lon="5.43368">
        <ele>831</ele>
        <time>2020-05-21T17:42:16.533Z</time>
      </trkpt>
      <trkpt lat="44.92174" lon="5.43368">
        <ele>831</ele>
        <time>2020-05-21T17:42:17.533Z</time>
      </trkpt>
      <trkpt lat="44.92172" lon="5.43368">
        <ele>830</ele>
        <time>2020-05-21T17:42:18.534Z</time>
      </trkpt>
      <trkpt lat="44.9217" lon="5.43368">
        <ele>830</ele>
        <time>2020-05-21T17:42:19.533Z</time>
      </trkpt>
      <trkpt lat="44.92168" lon="5.43367">
        <ele>830</ele>
        <time>2020-05-21T17:42:20.533Z</time>
      </trkpt>
      <trkpt lat="44.92166" lon="5.43367">
        <ele>830</ele>
        <time>2020-05-21T17:42:21.533Z</time>
      </trkpt>
      <trkpt lat="44.92163" lon="5.43366">
        <ele>830</ele>
        <time>2020-05-21T17:42:22.533Z</time>
      </trkpt>
      <trkpt lat="44.92161" lon="5.43366">
        <ele>830</ele>
        <time>2020-05-21T17:42:23.533Z</time>
      </trkpt>
      <trkpt lat="44.92159" lon="5.43366">
        <ele>831</ele>
        <time>2020-05-21T17:42:24.533Z</time>
      </trkpt>
      <trkpt lat="44.92157" lon="5.43365">
        <ele>831</ele>
        <time>2020-05-21T17:42:25.533Z</time>
      </trkpt>
      <trkpt lat="44.92157" lon="5.43365">
        <ele>831</ele>
        <time>2020-05-21T17:42:26.533Z</time>
      </trkpt>
      <trkpt lat="44.92153" lon="5.43363">
        <ele>831</ele>
        <time>2020-05-21T17:42:27.534Z</time>
      </trkpt>
      <trkpt lat="44.92152" lon="5.43362">
        <ele>831</ele>
        <time>2020-05-21T17:42:28.533Z</time>
      </trkpt>
      <trkpt lat="44.92149" lon="5.43361">
        <ele>831</ele>
        <time>2020-05-21T17:42:29.533Z</time>
      </trkpt>
      <trkpt lat="44.92149" lon="5.43361">
        <ele>831</ele>
        <time>2020-05-21T17:42:30.533Z</time>
      </trkpt>
      <trkpt lat="44.92145" lon="5.4336">
        <ele>832</ele>
        <time>2020-05-21T17:42:31.533Z</time>
      </trkpt>
      <trkpt lat="44.92143" lon="5.43359">
        <ele>832</ele>
        <time>2020-05-21T17:42:32.533Z</time>
      </trkpt>
      <trkpt lat="44.92141" lon="5.43358">
        <ele>832</ele>
        <time>2020-05-21T17:42:33.533Z</time>
      </trkpt>
      <trkpt lat="44.92141" lon="5.43358">
        <ele>832</ele>
        <time>2020-05-21T17:42:34.533Z</time>
      </trkpt>
      <trkpt lat="44.92137" lon="5.43357">
        <ele>832</ele>
        <time>2020-05-21T17:42:35.534Z</time>
      </trkpt>
      <trkpt lat="44.92135" lon="5.43356">
        <ele>833</ele>
        <time>2020-05-21T17:42:36.533Z</time>
      </trkpt>
      <trkpt lat="44.92134" lon="5.43355">
        <ele>833</ele>
        <time>2020-05-21T17:42:37.533Z</time>
      </trkpt>
      <trkpt lat="44.92132" lon="5.43354">
        <ele>833</ele>
        <time>2020-05-21T17:42:38.533Z</time>
      </trkpt>
      <trkpt lat="44.9213" lon="5.43353">
        <ele>833</ele>
        <time>2020-05-21T17:42:39.533Z</time>
      </trkpt>
      <trkpt lat="44.9213" lon="5.43353">
        <ele>833</ele>
        <time>2020-05-21T17:42:40.533Z</time>
      </trkpt>
      <trkpt lat="44.92126" lon="5.43351">
        <ele>834</ele>
        <time>2020-05-21T17:42:41.533Z</time>
      </trkpt>
      <trkpt lat="44.92124" lon="5.4335">
        <ele>834</ele>
        <time>2020-05-21T17:42:42.533Z</time>
      </trkpt>
      <trkpt lat="44.92122" lon="5.43348">
        <ele>834</ele>
        <time>2020-05-21T17:42:43.533Z</time>
      </trkpt>
      <trkpt lat="44.9212" lon="5.43347">
        <ele>835</ele>
        <time>2020-05-21T17:42:44.533Z</time>
      </trkpt>
      <trkpt lat="44.92118" lon="5.43346">
        <ele>835</ele>
        <time>2020-05-21T17:42:45.533Z</time>
      </trkpt>
      <trkpt lat="44.92116" lon="5.43345">
        <ele>836</ele>
        <time>2020-05-21T17:42:46.533Z</time>
      </trkpt>
      <trkpt lat="44.92115" lon="5.43344">
        <ele>836</ele>
        <time>2020-05-21T17:42:47.533Z</time>
      </trkpt>
      <trkpt lat="44.92115" lon="5.43344">
        <ele>836</ele>
        <time>2020-05-21T17:42:48.533Z</time>
      </trkpt>
      <trkpt lat="44.9211" lon="5.43341">
        <ele>836</ele>
        <time>2020-05-21T17:42:49.533Z</time>
      </trkpt>
      <trkpt lat="44.9211" lon="5.43341">
        <ele>836</ele>
        <time>2020-05-21T17:42:50.533Z</time>
      </trkpt>
      <trkpt lat="44.92106" lon="5.43339">
        <ele>836</ele>
        <time>2020-05-21T17:42:51.533Z</time>
      </trkpt>
      <trkpt lat="44.92105" lon="5.43339">
        <ele>835</ele>
        <time>2020-05-21T17:42:52.534Z</time>
      </trkpt>
      <trkpt lat="44.92103" lon="5.43338">
        <ele>835</ele>
        <time>2020-05-21T17:42:53.533Z</time>
      </trkpt>
      <trkpt lat="44.92103" lon="5.43338">
        <ele>835</ele>
        <time>2020-05-21T17:42:54.533Z</time>
      </trkpt>
      <trkpt lat="44.92101" lon="5.43337">
        <ele>835</ele>
        <time>2020-05-21T17:42:55.534Z</time>
      </trkpt>
      <trkpt lat="44.92099" lon="5.43336">
        <ele>835</ele>
        <time>2020-05-21T17:42:56.534Z</time>
      </trkpt>
      <trkpt lat="44.92096" lon="5.43335">
        <ele>836</ele>
        <time>2020-05-21T17:42:57.533Z</time>
      </trkpt>
      <trkpt lat="44.92096" lon="5.43335">
        <ele>836</ele>
        <time>2020-05-21T17:42:58.533Z</time>
      </trkpt>
      <trkpt lat="44.92094" lon="5.43335">
        <ele>837</ele>
        <time>2020-05-21T17:42:59.533Z</time>
      </trkpt>
      <trkpt lat="44.92092" lon="5.43334">
        <ele>837</ele>
        <time>2020-05-21T17:43:00.533Z</time>
      </trkpt>
      <trkpt lat="44.92089" lon="5.43334">
        <ele>838</ele>
        <time>2020-05-21T17:43:01.533Z</time>
      </trkpt>
      <trkpt lat="44.92085" lon="5.43332">
        <ele>838</ele>
        <time>2020-05-21T17:43:02.533Z</time>
      </trkpt>
      <trkpt lat="44.92085" lon="5.43332">
        <ele>838</ele>
        <time>2020-05-21T17:43:03.533Z</time>
      </trkpt>
      <trkpt lat="44.92081" lon="5.4333">
        <ele>838</ele>
        <time>2020-05-21T17:43:04.533Z</time>
      </trkpt>
      <trkpt lat="44.92081" lon="5.4333">
        <ele>838</ele>
        <time>2020-05-21T17:43:05.533Z</time>
      </trkpt>
      <trkpt lat="44.92079" lon="5.43329">
        <ele>838</ele>
        <time>2020-05-21T17:43:06.533Z</time>
      </trkpt>
      <trkpt lat="44.92075" lon="5.43328">
        <ele>838</ele>
        <time>2020-05-21T17:43:07.533Z</time>
      </trkpt>
      <trkpt lat="44.92073" lon="5.43327">
        <ele>839</ele>
        <time>2020-05-21T17:43:08.533Z</time>
      </trkpt>
      <trkpt lat="44.92071" lon="5.43326">
        <ele>839</ele>
        <time>2020-05-21T17:43:09.533Z</time>
      </trkpt>
      <trkpt lat="44.92071" lon="5.43326">
        <ele>839</ele>
        <time>2020-05-21T17:43:10.533Z</time>
      </trkpt>
      <trkpt lat="44.92068" lon="5.43326">
        <ele>839</ele>
        <time>2020-05-21T17:43:11.534Z</time>
      </trkpt>
      <trkpt lat="44.92064" lon="5.43325">
        <ele>840</ele>
        <time>2020-05-21T17:43:12.533Z</time>
      </trkpt>
      <trkpt lat="44.92062" lon="5.43324">
        <ele>840</ele>
        <time>2020-05-21T17:43:13.533Z</time>
      </trkpt>
      <trkpt lat="44.92062" lon="5.43324">
        <ele>840</ele>
        <time>2020-05-21T17:43:14.533Z</time>
      </trkpt>
      <trkpt lat="44.9206" lon="5.43323">
        <ele>841</ele>
        <time>2020-05-21T17:43:15.534Z</time>
      </trkpt>
      <trkpt lat="44.92058" lon="5.43322">
        <ele>842</ele>
        <time>2020-05-21T17:43:16.533Z</time>
      </trkpt>
      <trkpt lat="44.92056" lon="5.43321">
        <ele>842</ele>
        <time>2020-05-21T17:43:17.533Z</time>
      </trkpt>
      <trkpt lat="44.92052" lon="5.4332">
        <ele>841</ele>
        <time>2020-05-21T17:43:18.533Z</time>
      </trkpt>
      <trkpt lat="44.92052" lon="5.4332">
        <ele>841</ele>
        <time>2020-05-21T17:43:19.533Z</time>
      </trkpt>
      <trkpt lat="44.92049" lon="5.43318">
        <ele>841</ele>
        <time>2020-05-21T17:43:20.533Z</time>
      </trkpt>
      <trkpt lat="44.92049" lon="5.43318">
        <ele>841</ele>
        <time>2020-05-21T17:43:21.534Z</time>
      </trkpt>
      <trkpt lat="44.92047" lon="5.43318">
        <ele>841</ele>
        <time>2020-05-21T17:43:22.533Z</time>
      </trkpt>
      <trkpt lat="44.92045" lon="5.43317">
        <ele>841</ele>
        <time>2020-05-21T17:43:23.533Z</time>
      </trkpt>
      <trkpt lat="44.92041" lon="5.43316">
        <ele>841</ele>
        <time>2020-05-21T17:43:24.533Z</time>
      </trkpt>
      <trkpt lat="44.92039" lon="5.43316">
        <ele>841</ele>
        <time>2020-05-21T17:43:25.533Z</time>
      </trkpt>
      <trkpt lat="44.92037" lon="5.43316">
        <ele>841</ele>
        <time>2020-05-21T17:43:26.533Z</time>
      </trkpt>
      <trkpt lat="44.92035" lon="5.43316">
        <ele>840</ele>
        <time>2020-05-21T17:43:27.534Z</time>
      </trkpt>
      <trkpt lat="44.92035" lon="5.43316">
        <ele>840</ele>
        <time>2020-05-21T17:43:28.533Z</time>
      </trkpt>
      <trkpt lat="44.92031" lon="5.43315">
        <ele>840</ele>
        <time>2020-05-21T17:43:29.533Z</time>
      </trkpt>
      <trkpt lat="44.92029" lon="5.43315">
        <ele>840</ele>
        <time>2020-05-21T17:43:30.533Z</time>
      </trkpt>
      <trkpt lat="44.92027" lon="5.43315">
        <ele>840</ele>
        <time>2020-05-21T17:43:31.533Z</time>
      </trkpt>
      <trkpt lat="44.92027" lon="5.43315">
        <ele>840</ele>
        <time>2020-05-21T17:43:32.534Z</time>
      </trkpt>
      <trkpt lat="44.92023" lon="5.43314">
        <ele>840</ele>
        <time>2020-05-21T17:43:33.533Z</time>
      </trkpt>
      <trkpt lat="44.92021" lon="5.43314">
        <ele>840</ele>
        <time>2020-05-21T17:43:34.533Z</time>
      </trkpt>
      <trkpt lat="44.92019" lon="5.43313">
        <ele>840</ele>
        <time>2020-05-21T17:43:35.533Z</time>
      </trkpt>
      <trkpt lat="44.92019" lon="5.43313">
        <ele>840</ele>
        <time>2020-05-21T17:43:36.533Z</time>
      </trkpt>
      <trkpt lat="44.92015" lon="5.43312">
        <ele>840</ele>
        <time>2020-05-21T17:43:37.533Z</time>
      </trkpt>
      <trkpt lat="44.92015" lon="5.43312">
        <ele>840</ele>
        <time>2020-05-21T17:43:38.533Z</time>
      </trkpt>
      <trkpt lat="44.92012" lon="5.43313">
        <ele>840</ele>
        <time>2020-05-21T17:43:39.533Z</time>
      </trkpt>
      <trkpt lat="44.92012" lon="5.43313">
        <ele>840</ele>
        <time>2020-05-21T17:43:40.533Z</time>
      </trkpt>
      <trkpt lat="44.92008" lon="5.43312">
        <ele>840</ele>
        <time>2020-05-21T17:43:41.533Z</time>
      </trkpt>
      <trkpt lat="44.92006" lon="5.43312">
        <ele>840</ele>
        <time>2020-05-21T17:43:42.533Z</time>
      </trkpt>
      <trkpt lat="44.92006" lon="5.43312">
        <ele>840</ele>
        <time>2020-05-21T17:43:43.533Z</time>
      </trkpt>
      <trkpt lat="44.92004" lon="5.43311">
        <ele>840</ele>
        <time>2020-05-21T17:43:44.533Z</time>
      </trkpt>
      <trkpt lat="44.92001" lon="5.4331">
        <ele>840</ele>
        <time>2020-05-21T17:43:45.533Z</time>
      </trkpt>
      <trkpt lat="44.91999" lon="5.43309">
        <ele>840</ele>
        <time>2020-05-21T17:43:46.533Z</time>
      </trkpt>
      <trkpt lat="44.91997" lon="5.43309">
        <ele>840</ele>
        <time>2020-05-21T17:43:47.533Z</time>
      </trkpt>
      <trkpt lat="44.91995" lon="5.43309">
        <ele>839</ele>
        <time>2020-05-21T17:43:48.533Z</time>
      </trkpt>
      <trkpt lat="44.91993" lon="5.43308">
        <ele>839</ele>
        <time>2020-05-21T17:43:49.533Z</time>
      </trkpt>
      <trkpt lat="44.91993" lon="5.43308">
        <ele>839</ele>
        <time>2020-05-21T17:43:50.533Z</time>
      </trkpt>
      <trkpt lat="44.91988" lon="5.43306">
        <ele>838</ele>
        <time>2020-05-21T17:43:51.534Z</time>
      </trkpt>
      <trkpt lat="44.91986" lon="5.43305">
        <ele>838</ele>
        <time>2020-05-21T17:43:52.533Z</time>
      </trkpt>
      <trkpt lat="44.91984" lon="5.43304">
        <ele>838</ele>
        <time>2020-05-21T17:43:53.533Z</time>
      </trkpt>
      <trkpt lat="44.91984" lon="5.43304">
        <ele>838</ele>
        <time>2020-05-21T17:43:54.534Z</time>
      </trkpt>
      <trkpt lat="44.9198" lon="5.43303">
        <ele>838</ele>
        <time>2020-05-21T17:43:55.533Z</time>
      </trkpt>
      <trkpt lat="44.91978" lon="5.43302">
        <ele>838</ele>
        <time>2020-05-21T17:43:56.533Z</time>
      </trkpt>
      <trkpt lat="44.91978" lon="5.43302">
        <ele>838</ele>
        <time>2020-05-21T17:43:57.533Z</time>
      </trkpt>
      <trkpt lat="44.91974" lon="5.433">
        <ele>838</ele>
        <time>2020-05-21T17:43:58.533Z</time>
      </trkpt>
      <trkpt lat="44.91974" lon="5.433">
        <ele>838</ele>
        <time>2020-05-21T17:43:59.533Z</time>
      </trkpt>
      <trkpt lat="44.9197" lon="5.43298">
        <ele>839</ele>
        <time>2020-05-21T17:44:00.533Z</time>
      </trkpt>
      <trkpt lat="44.9197" lon="5.43298">
        <ele>839</ele>
        <time>2020-05-21T17:44:01.533Z</time>
      </trkpt>
      <trkpt lat="44.91966" lon="5.43297">
        <ele>840</ele>
        <time>2020-05-21T17:44:02.534Z</time>
      </trkpt>
      <trkpt lat="44.91966" lon="5.43297">
        <ele>840</ele>
        <time>2020-05-21T17:44:03.533Z</time>
      </trkpt>
      <trkpt lat="44.91962" lon="5.43295">
        <ele>840</ele>
        <time>2020-05-21T17:44:04.534Z</time>
      </trkpt>
      <trkpt lat="44.91962" lon="5.43295">
        <ele>840</ele>
        <time>2020-05-21T17:44:05.534Z</time>
      </trkpt>
      <trkpt lat="44.91958" lon="5.43295">
        <ele>841</ele>
        <time>2020-05-21T17:44:06.534Z</time>
      </trkpt>
      <trkpt lat="44.91956" lon="5.43294">
        <ele>840</ele>
        <time>2020-05-21T17:44:07.533Z</time>
      </trkpt>
      <trkpt lat="44.91954" lon="5.43293">
        <ele>840</ele>
        <time>2020-05-21T17:44:08.533Z</time>
      </trkpt>
      <trkpt lat="44.91954" lon="5.43293">
        <ele>840</ele>
        <time>2020-05-21T17:44:09.533Z</time>
      </trkpt>
      <trkpt lat="44.9195" lon="5.4329">
        <ele>839</ele>
        <time>2020-05-21T17:44:10.533Z</time>
      </trkpt>
      <trkpt lat="44.91948" lon="5.43289">
        <ele>839</ele>
        <time>2020-05-21T17:44:11.533Z</time>
      </trkpt>
      <trkpt lat="44.91946" lon="5.43288">
        <ele>839</ele>
        <time>2020-05-21T17:44:12.533Z</time>
      </trkpt>
      <trkpt lat="44.91946" lon="5.43288">
        <ele>839</ele>
        <time>2020-05-21T17:44:13.533Z</time>
      </trkpt>
      <trkpt lat="44.91942" lon="5.43286">
        <ele>839</ele>
        <time>2020-05-21T17:44:14.534Z</time>
      </trkpt>
      <trkpt lat="44.91941" lon="5.43285">
        <ele>838</ele>
        <time>2020-05-21T17:44:15.533Z</time>
      </trkpt>
      <trkpt lat="44.91941" lon="5.43285">
        <ele>838</ele>
        <time>2020-05-21T17:44:16.533Z</time>
      </trkpt>
      <trkpt lat="44.91937" lon="5.43282">
        <ele>838</ele>
        <time>2020-05-21T17:44:17.533Z</time>
      </trkpt>
      <trkpt lat="44.91936" lon="5.43281">
        <ele>838</ele>
        <time>2020-05-21T17:44:18.533Z</time>
      </trkpt>
      <trkpt lat="44.91934" lon="5.43281">
        <ele>838</ele>
        <time>2020-05-21T17:44:19.533Z</time>
      </trkpt>
      <trkpt lat="44.91932" lon="5.4328">
        <ele>839</ele>
        <time>2020-05-21T17:44:20.533Z</time>
      </trkpt>
      <trkpt lat="44.9193" lon="5.4328">
        <ele>839</ele>
        <time>2020-05-21T17:44:21.533Z</time>
      </trkpt>
      <trkpt lat="44.9193" lon="5.4328">
        <ele>839</ele>
        <time>2020-05-21T17:44:22.533Z</time>
      </trkpt>
      <trkpt lat="44.91927" lon="5.43279">
        <ele>839</ele>
        <time>2020-05-21T17:44:23.533Z</time>
      </trkpt>
      <trkpt lat="44.91923" lon="5.43278">
        <ele>839</ele>
        <time>2020-05-21T17:44:24.533Z</time>
      </trkpt>
      <trkpt lat="44.91921" lon="5.43277">
        <ele>839</ele>
        <time>2020-05-21T17:44:25.534Z</time>
      </trkpt>
      <trkpt lat="44.91921" lon="5.43277">
        <ele>839</ele>
        <time>2020-05-21T17:44:26.533Z</time>
      </trkpt>
      <trkpt lat="44.91916" lon="5.43276">
        <ele>839</ele>
        <time>2020-05-21T17:44:27.533Z</time>
      </trkpt>
      <trkpt lat="44.91916" lon="5.43276">
        <ele>839</ele>
        <time>2020-05-21T17:44:28.533Z</time>
      </trkpt>
      <trkpt lat="44.91912" lon="5.43276">
        <ele>839</ele>
        <time>2020-05-21T17:44:29.534Z</time>
      </trkpt>
      <trkpt lat="44.91912" lon="5.43276">
        <ele>839</ele>
        <time>2020-05-21T17:44:30.533Z</time>
      </trkpt>
      <trkpt lat="44.91907" lon="5.43275">
        <ele>839</ele>
        <time>2020-05-21T17:44:31.533Z</time>
      </trkpt>
      <trkpt lat="44.91905" lon="5.43275">
        <ele>839</ele>
        <time>2020-05-21T17:44:32.533Z</time>
      </trkpt>
      <trkpt lat="44.91902" lon="5.43276">
        <ele>839</ele>
        <time>2020-05-21T17:44:33.533Z</time>
      </trkpt>
      <trkpt lat="44.91902" lon="5.43276">
        <ele>839</ele>
        <time>2020-05-21T17:44:34.533Z</time>
      </trkpt>
      <trkpt lat="44.919" lon="5.43276">
        <ele>839</ele>
        <time>2020-05-21T17:44:35.533Z</time>
      </trkpt>
      <trkpt lat="44.91898" lon="5.43275">
        <ele>840</ele>
        <time>2020-05-21T17:44:36.533Z</time>
      </trkpt>
      <trkpt lat="44.91893" lon="5.43274">
        <ele>840</ele>
        <time>2020-05-21T17:44:37.533Z</time>
      </trkpt>
      <trkpt lat="44.91893" lon="5.43274">
        <ele>840</ele>
        <time>2020-05-21T17:44:38.533Z</time>
      </trkpt>
      <trkpt lat="44.91891" lon="5.43274">
        <ele>840</ele>
        <time>2020-05-21T17:44:39.533Z</time>
      </trkpt>
      <trkpt lat="44.91886" lon="5.43274">
        <ele>840</ele>
        <time>2020-05-21T17:44:40.533Z</time>
      </trkpt>
      <trkpt lat="44.91886" lon="5.43274">
        <ele>840</ele>
        <time>2020-05-21T17:44:41.533Z</time>
      </trkpt>
      <trkpt lat="44.91884" lon="5.43274">
        <ele>839</ele>
        <time>2020-05-21T17:44:42.534Z</time>
      </trkpt>
      <trkpt lat="44.91882" lon="5.43275">
        <ele>839</ele>
        <time>2020-05-21T17:44:43.533Z</time>
      </trkpt>
      <trkpt lat="44.91878" lon="5.43277">
        <ele>839</ele>
        <time>2020-05-21T17:44:44.533Z</time>
      </trkpt>
      <trkpt lat="44.91878" lon="5.43277">
        <ele>839</ele>
        <time>2020-05-21T17:44:45.533Z</time>
      </trkpt>
      <trkpt lat="44.91877" lon="5.43279">
        <ele>839</ele>
        <time>2020-05-21T17:44:46.533Z</time>
      </trkpt>
      <trkpt lat="44.91875" lon="5.4328">
        <ele>839</ele>
        <time>2020-05-21T17:44:47.534Z</time>
      </trkpt>
      <trkpt lat="44.91874" lon="5.43281">
        <ele>839</ele>
        <time>2020-05-21T17:44:48.534Z</time>
      </trkpt>
      <trkpt lat="44.91872" lon="5.43282">
        <ele>839</ele>
        <time>2020-05-21T17:44:49.533Z</time>
      </trkpt>
      <trkpt lat="44.91869" lon="5.43283">
        <ele>840</ele>
        <time>2020-05-21T17:44:50.533Z</time>
      </trkpt>
      <trkpt lat="44.91865" lon="5.43284">
        <ele>841</ele>
        <time>2020-05-21T17:44:51.533Z</time>
      </trkpt>
      <trkpt lat="44.91863" lon="5.43285">
        <ele>842</ele>
        <time>2020-05-21T17:44:52.534Z</time>
      </trkpt>
      <trkpt lat="44.91861" lon="5.43286">
        <ele>842</ele>
        <time>2020-05-21T17:44:53.533Z</time>
      </trkpt>
      <trkpt lat="44.91861" lon="5.43286">
        <ele>842</ele>
        <time>2020-05-21T17:44:54.534Z</time>
      </trkpt>
      <trkpt lat="44.91859" lon="5.43287">
        <ele>843</ele>
        <time>2020-05-21T17:44:55.534Z</time>
      </trkpt>
      <trkpt lat="44.91857" lon="5.43288">
        <ele>843</ele>
        <time>2020-05-21T17:44:56.533Z</time>
      </trkpt>
      <trkpt lat="44.91855" lon="5.43289">
        <ele>843</ele>
        <time>2020-05-21T17:44:57.534Z</time>
      </trkpt>
      <trkpt lat="44.91853" lon="5.4329">
        <ele>843</ele>
        <time>2020-05-21T17:44:58.533Z</time>
      </trkpt>
      <trkpt lat="44.91851" lon="5.43291">
        <ele>844</ele>
        <time>2020-05-21T17:44:59.533Z</time>
      </trkpt>
      <trkpt lat="44.91849" lon="5.43292">
        <ele>844</ele>
        <time>2020-05-21T17:45:00.533Z</time>
      </trkpt>
      <trkpt lat="44.91848" lon="5.43293">
        <ele>844</ele>
        <time>2020-05-21T17:45:01.534Z</time>
      </trkpt>
      <trkpt lat="44.91844" lon="5.43296">
        <ele>845</ele>
        <time>2020-05-21T17:45:02.534Z</time>
      </trkpt>
      <trkpt lat="44.91844" lon="5.43296">
        <ele>845</ele>
        <time>2020-05-21T17:45:03.533Z</time>
      </trkpt>
      <trkpt lat="44.91842" lon="5.43297">
        <ele>845</ele>
        <time>2020-05-21T17:45:04.533Z</time>
      </trkpt>
      <trkpt lat="44.9184" lon="5.43298">
        <ele>845</ele>
        <time>2020-05-21T17:45:05.533Z</time>
      </trkpt>
      <trkpt lat="44.91837" lon="5.43299">
        <ele>844</ele>
        <time>2020-05-21T17:45:06.533Z</time>
      </trkpt>
      <trkpt lat="44.91835" lon="5.433">
        <ele>844</ele>
        <time>2020-05-21T17:45:07.534Z</time>
      </trkpt>
      <trkpt lat="44.91833" lon="5.43301">
        <ele>844</ele>
        <time>2020-05-21T17:45:08.533Z</time>
      </trkpt>
      <trkpt lat="44.91831" lon="5.43302">
        <ele>844</ele>
        <time>2020-05-21T17:45:09.534Z</time>
      </trkpt>
      <trkpt lat="44.91829" lon="5.43302">
        <ele>845</ele>
        <time>2020-05-21T17:45:10.534Z</time>
      </trkpt>
      <trkpt lat="44.91827" lon="5.43303">
        <ele>845</ele>
        <time>2020-05-21T17:45:11.533Z</time>
      </trkpt>
      <trkpt lat="44.91825" lon="5.43304">
        <ele>846</ele>
        <time>2020-05-21T17:45:12.533Z</time>
      </trkpt>
      <trkpt lat="44.91823" lon="5.43304">
        <ele>846</ele>
        <time>2020-05-21T17:45:13.533Z</time>
      </trkpt>
      <trkpt lat="44.91821" lon="5.43304">
        <ele>846</ele>
        <time>2020-05-21T17:45:14.533Z</time>
      </trkpt>
      <trkpt lat="44.91819" lon="5.43305">
        <ele>846</ele>
        <time>2020-05-21T17:45:15.533Z</time>
      </trkpt>
      <trkpt lat="44.91815" lon="5.43307">
        <ele>845</ele>
        <time>2020-05-21T17:45:16.533Z</time>
      </trkpt>
      <trkpt lat="44.91815" lon="5.43307">
        <ele>845</ele>
        <time>2020-05-21T17:45:17.533Z</time>
      </trkpt>
      <trkpt lat="44.91813" lon="5.43307">
        <ele>845</ele>
        <time>2020-05-21T17:45:18.534Z</time>
      </trkpt>
      <trkpt lat="44.91811" lon="5.43308">
        <ele>845</ele>
        <time>2020-05-21T17:45:19.533Z</time>
      </trkpt>
      <trkpt lat="44.91808" lon="5.43309">
        <ele>845</ele>
        <time>2020-05-21T17:45:20.533Z</time>
      </trkpt>
      <trkpt lat="44.91806" lon="5.4331">
        <ele>846</ele>
        <time>2020-05-21T17:45:21.534Z</time>
      </trkpt>
      <trkpt lat="44.91804" lon="5.43311">
        <ele>846</ele>
        <time>2020-05-21T17:45:22.533Z</time>
      </trkpt>
      <trkpt lat="44.91802" lon="5.43313">
        <ele>847</ele>
        <time>2020-05-21T17:45:23.533Z</time>
      </trkpt>
      <trkpt lat="44.918" lon="5.43314">
        <ele>847</ele>
        <time>2020-05-21T17:45:24.533Z</time>
      </trkpt>
      <trkpt lat="44.91798" lon="5.43315">
        <ele>848</ele>
        <time>2020-05-21T17:45:25.534Z</time>
      </trkpt>
      <trkpt lat="44.91796" lon="5.43316">
        <ele>848</ele>
        <time>2020-05-21T17:45:26.533Z</time>
      </trkpt>
      <trkpt lat="44.91792" lon="5.43318">
        <ele>849</ele>
        <time>2020-05-21T17:45:27.533Z</time>
      </trkpt>
      <trkpt lat="44.91792" lon="5.43318">
        <ele>849</ele>
        <time>2020-05-21T17:45:28.533Z</time>
      </trkpt>
      <trkpt lat="44.9179" lon="5.43319">
        <ele>848</ele>
        <time>2020-05-21T17:45:29.533Z</time>
      </trkpt>
      <trkpt lat="44.91786" lon="5.43321">
        <ele>848</ele>
        <time>2020-05-21T17:45:30.533Z</time>
      </trkpt>
      <trkpt lat="44.91786" lon="5.43321">
        <ele>848</ele>
        <time>2020-05-21T17:45:31.533Z</time>
      </trkpt>
      <trkpt lat="44.91784" lon="5.43322">
        <ele>848</ele>
        <time>2020-05-21T17:45:32.534Z</time>
      </trkpt>
      <trkpt lat="44.91782" lon="5.43323">
        <ele>848</ele>
        <time>2020-05-21T17:45:33.533Z</time>
      </trkpt>
      <trkpt lat="44.91779" lon="5.43324">
        <ele>847</ele>
        <time>2020-05-21T17:45:34.533Z</time>
      </trkpt>
      <trkpt lat="44.91777" lon="5.43325">
        <ele>847</ele>
        <time>2020-05-21T17:45:35.533Z</time>
      </trkpt>
      <trkpt lat="44.91775" lon="5.43326">
        <ele>846</ele>
        <time>2020-05-21T17:45:36.534Z</time>
      </trkpt>
      <trkpt lat="44.91773" lon="5.43326">
        <ele>846</ele>
        <time>2020-05-21T17:45:37.533Z</time>
      </trkpt>
      <trkpt lat="44.91771" lon="5.43327">
        <ele>845</ele>
        <time>2020-05-21T17:45:38.533Z</time>
      </trkpt>
      <trkpt lat="44.91769" lon="5.43328">
        <ele>845</ele>
        <time>2020-05-21T17:45:39.533Z</time>
      </trkpt>
      <trkpt lat="44.91767" lon="5.43329">
        <ele>845</ele>
        <time>2020-05-21T17:45:40.533Z</time>
      </trkpt>
      <trkpt lat="44.91765" lon="5.4333">
        <ele>845</ele>
        <time>2020-05-21T17:45:41.534Z</time>
      </trkpt>
      <trkpt lat="44.91763" lon="5.43331">
        <ele>845</ele>
        <time>2020-05-21T17:45:42.534Z</time>
      </trkpt>
      <trkpt lat="44.91761" lon="5.43332">
        <ele>846</ele>
        <time>2020-05-21T17:45:43.533Z</time>
      </trkpt>
      <trkpt lat="44.91759" lon="5.43332">
        <ele>846</ele>
        <time>2020-05-21T17:45:44.534Z</time>
      </trkpt>
      <trkpt lat="44.91758" lon="5.43334">
        <ele>846</ele>
        <time>2020-05-21T17:45:45.533Z</time>
      </trkpt>
      <trkpt lat="44.91755" lon="5.43335">
        <ele>846</ele>
        <time>2020-05-21T17:45:46.533Z</time>
      </trkpt>
      <trkpt lat="44.91753" lon="5.43336">
        <ele>846</ele>
        <time>2020-05-21T17:45:47.534Z</time>
      </trkpt>
      <trkpt lat="44.91749" lon="5.43337">
        <ele>845</ele>
        <time>2020-05-21T17:45:48.533Z</time>
      </trkpt>
      <trkpt lat="44.91749" lon="5.43337">
        <ele>845</ele>
        <time>2020-05-21T17:45:49.533Z</time>
      </trkpt>
      <trkpt lat="44.91748" lon="5.43337">
        <ele>845</ele>
        <time>2020-05-21T17:45:50.533Z</time>
      </trkpt>
      <trkpt lat="44.91746" lon="5.43337">
        <ele>844</ele>
        <time>2020-05-21T17:45:51.533Z</time>
      </trkpt>
      <trkpt lat="44.91742" lon="5.43337">
        <ele>844</ele>
        <time>2020-05-21T17:45:52.534Z</time>
      </trkpt>
      <trkpt lat="44.91742" lon="5.43337">
        <ele>844</ele>
        <time>2020-05-21T17:45:53.533Z</time>
      </trkpt>
      <trkpt lat="44.91741" lon="5.43337">
        <ele>844</ele>
        <time>2020-05-21T17:45:54.534Z</time>
      </trkpt>
      <trkpt lat="44.91738" lon="5.43336">
        <ele>845</ele>
        <time>2020-05-21T17:45:55.533Z</time>
      </trkpt>
      <trkpt lat="44.91737" lon="5.43336">
        <ele>845</ele>
        <time>2020-05-21T17:45:56.533Z</time>
      </trkpt>
      <trkpt lat="44.91736" lon="5.43335">
        <ele>845</ele>
        <time>2020-05-21T17:45:57.533Z</time>
      </trkpt>
      <trkpt lat="44.91734" lon="5.43335">
        <ele>845</ele>
        <time>2020-05-21T17:45:58.533Z</time>
      </trkpt>
      <trkpt lat="44.91731" lon="5.43335">
        <ele>846</ele>
        <time>2020-05-21T17:45:59.534Z</time>
      </trkpt>
      <trkpt lat="44.91729" lon="5.43334">
        <ele>846</ele>
        <time>2020-05-21T17:46:00.533Z</time>
      </trkpt>
      <trkpt lat="44.91727" lon="5.43334">
        <ele>847</ele>
        <time>2020-05-21T17:46:01.534Z</time>
      </trkpt>
      <trkpt lat="44.91724" lon="5.43333">
        <ele>847</ele>
        <time>2020-05-21T17:46:02.533Z</time>
      </trkpt>
      <trkpt lat="44.91722" lon="5.43332">
        <ele>847</ele>
        <time>2020-05-21T17:46:03.534Z</time>
      </trkpt>
      <trkpt lat="44.9172" lon="5.43331">
        <ele>847</ele>
        <time>2020-05-21T17:46:04.533Z</time>
      </trkpt>
      <trkpt lat="44.91718" lon="5.43331">
        <ele>847</ele>
        <time>2020-05-21T17:46:05.533Z</time>
      </trkpt>
      <trkpt lat="44.91716" lon="5.4333">
        <ele>847</ele>
        <time>2020-05-21T17:46:06.533Z</time>
      </trkpt>
      <trkpt lat="44.91714" lon="5.4333">
        <ele>847</ele>
        <time>2020-05-21T17:46:07.533Z</time>
      </trkpt>
      <trkpt lat="44.91712" lon="5.43329">
        <ele>847</ele>
        <time>2020-05-21T17:46:08.533Z</time>
      </trkpt>
      <trkpt lat="44.9171" lon="5.43329">
        <ele>846</ele>
        <time>2020-05-21T17:46:09.534Z</time>
      </trkpt>
      <trkpt lat="44.91708" lon="5.43328">
        <ele>846</ele>
        <time>2020-05-21T17:46:10.534Z</time>
      </trkpt>
      <trkpt lat="44.91706" lon="5.43327">
        <ele>846</ele>
        <time>2020-05-21T17:46:11.533Z</time>
      </trkpt>
      <trkpt lat="44.91703" lon="5.43326">
        <ele>846</ele>
        <time>2020-05-21T17:46:12.534Z</time>
      </trkpt>
      <trkpt lat="44.91701" lon="5.43325">
        <ele>846</ele>
        <time>2020-05-21T17:46:13.533Z</time>
      </trkpt>
      <trkpt lat="44.91699" lon="5.43325">
        <ele>846</ele>
        <time>2020-05-21T17:46:14.533Z</time>
      </trkpt>
      <trkpt lat="44.91697" lon="5.43324">
        <ele>846</ele>
        <time>2020-05-21T17:46:15.533Z</time>
      </trkpt>
      <trkpt lat="44.91693" lon="5.43325">
        <ele>846</ele>
        <time>2020-05-21T17:46:16.533Z</time>
      </trkpt>
      <trkpt lat="44.9169" lon="5.43323">
        <ele>846</ele>
        <time>2020-05-21T17:46:17.533Z</time>
      </trkpt>
      <trkpt lat="44.91686" lon="5.43323">
        <ele>846</ele>
        <time>2020-05-21T17:46:18.534Z</time>
      </trkpt>
      <trkpt lat="44.91683" lon="5.43323">
        <ele>846</ele>
        <time>2020-05-21T17:46:19.534Z</time>
      </trkpt>
      <trkpt lat="44.91681" lon="5.43323">
        <ele>845</ele>
        <time>2020-05-21T17:46:20.533Z</time>
      </trkpt>
      <trkpt lat="44.91679" lon="5.43323">
        <ele>845</ele>
        <time>2020-05-21T17:46:21.533Z</time>
      </trkpt>
      <trkpt lat="44.91677" lon="5.43323">
        <ele>845</ele>
        <time>2020-05-21T17:46:22.534Z</time>
      </trkpt>
      <trkpt lat="44.91675" lon="5.43324">
        <ele>845</ele>
        <time>2020-05-21T17:46:23.533Z</time>
      </trkpt>
      <trkpt lat="44.91672" lon="5.43324">
        <ele>846</ele>
        <time>2020-05-21T17:46:24.534Z</time>
      </trkpt>
      <trkpt lat="44.9167" lon="5.43324">
        <ele>846</ele>
        <time>2020-05-21T17:46:25.534Z</time>
      </trkpt>
      <trkpt lat="44.91668" lon="5.43324">
        <ele>846</ele>
        <time>2020-05-21T17:46:26.534Z</time>
      </trkpt>
      <trkpt lat="44.91665" lon="5.43323">
        <ele>847</ele>
        <time>2020-05-21T17:46:27.533Z</time>
      </trkpt>
      <trkpt lat="44.91663" lon="5.43323">
        <ele>847</ele>
        <time>2020-05-21T17:46:28.533Z</time>
      </trkpt>
      <trkpt lat="44.9166" lon="5.43322">
        <ele>847</ele>
        <time>2020-05-21T17:46:29.533Z</time>
      </trkpt>
      <trkpt lat="44.91657" lon="5.43321">
        <ele>848</ele>
        <time>2020-05-21T17:46:30.533Z</time>
      </trkpt>
      <trkpt lat="44.91656" lon="5.43321">
        <ele>848</ele>
        <time>2020-05-21T17:46:31.534Z</time>
      </trkpt>
      <trkpt lat="44.91654" lon="5.43321">
        <ele>847</ele>
        <time>2020-05-21T17:46:32.533Z</time>
      </trkpt>
      <trkpt lat="44.91651" lon="5.4332">
        <ele>847</ele>
        <time>2020-05-21T17:46:33.533Z</time>
      </trkpt>
      <trkpt lat="44.91649" lon="5.43319">
        <ele>847</ele>
        <time>2020-05-21T17:46:34.534Z</time>
      </trkpt>
      <trkpt lat="44.91647" lon="5.43319">
        <ele>847</ele>
        <time>2020-05-21T17:46:35.533Z</time>
      </trkpt>
      <trkpt lat="44.91645" lon="5.43318">
        <ele>846</ele>
        <time>2020-05-21T17:46:36.533Z</time>
      </trkpt>
      <trkpt lat="44.91642" lon="5.43317">
        <ele>846</ele>
        <time>2020-05-21T17:46:37.534Z</time>
      </trkpt>
      <trkpt lat="44.9164" lon="5.43316">
        <ele>846</ele>
        <time>2020-05-21T17:46:38.533Z</time>
      </trkpt>
      <trkpt lat="44.91637" lon="5.43316">
        <ele>846</ele>
        <time>2020-05-21T17:46:39.533Z</time>
      </trkpt>
      <trkpt lat="44.91636" lon="5.43315">
        <ele>846</ele>
        <time>2020-05-21T17:46:40.534Z</time>
      </trkpt>
      <trkpt lat="44.91633" lon="5.43315">
        <ele>846</ele>
        <time>2020-05-21T17:46:41.534Z</time>
      </trkpt>
      <trkpt lat="44.91631" lon="5.43314">
        <ele>846</ele>
        <time>2020-05-21T17:46:42.533Z</time>
      </trkpt>
      <trkpt lat="44.91629" lon="5.43314">
        <ele>846</ele>
        <time>2020-05-21T17:46:43.534Z</time>
      </trkpt>
      <trkpt lat="44.91626" lon="5.43313">
        <ele>846</ele>
        <time>2020-05-21T17:46:44.533Z</time>
      </trkpt>
      <trkpt lat="44.91624" lon="5.43311">
        <ele>847</ele>
        <time>2020-05-21T17:46:45.533Z</time>
      </trkpt>
      <trkpt lat="44.91621" lon="5.4331">
        <ele>847</ele>
        <time>2020-05-21T17:46:46.534Z</time>
      </trkpt>
      <trkpt lat="44.91619" lon="5.4331">
        <ele>847</ele>
        <time>2020-05-21T17:46:47.533Z</time>
      </trkpt>
      <trkpt lat="44.91618" lon="5.43309">
        <ele>847</ele>
        <time>2020-05-21T17:46:48.533Z</time>
      </trkpt>
      <trkpt lat="44.91617" lon="5.43308">
        <ele>847</ele>
        <time>2020-05-21T17:46:49.533Z</time>
      </trkpt>
      <trkpt lat="44.91622" lon="5.43303">
        <ele>845</ele>
        <time>2020-05-21T17:46:50.536Z</time>
      </trkpt>
      <trkpt lat="44.91622" lon="5.43303">
        <ele>845</ele>
        <time>2020-05-21T17:46:51.536Z</time>
      </trkpt>
      <trkpt lat="44.91622" lon="5.43303">
        <ele>846</ele>
        <time>2020-05-21T17:46:52.536Z</time>
      </trkpt>
      <trkpt lat="44.91621" lon="5.43303">
        <ele>846</ele>
        <time>2020-05-21T17:46:53.535Z</time>
      </trkpt>
      <trkpt lat="44.91618" lon="5.43303">
        <ele>846</ele>
        <time>2020-05-21T17:46:54.535Z</time>
      </trkpt>
      <trkpt lat="44.91616" lon="5.43302">
        <ele>846</ele>
        <time>2020-05-21T17:46:55.536Z</time>
      </trkpt>
      <trkpt lat="44.91613" lon="5.43302">
        <ele>846</ele>
        <time>2020-05-21T17:46:56.536Z</time>
      </trkpt>
      <trkpt lat="44.9161" lon="5.43303">
        <ele>846</ele>
        <time>2020-05-21T17:46:57.536Z</time>
      </trkpt>
      <trkpt lat="44.91606" lon="5.43302">
        <ele>846</ele>
        <time>2020-05-21T17:46:58.535Z</time>
      </trkpt>
      <trkpt lat="44.91604" lon="5.43302">
        <ele>847</ele>
        <time>2020-05-21T17:46:59.536Z</time>
      </trkpt>
      <trkpt lat="44.916" lon="5.43302">
        <ele>847</ele>
        <time>2020-05-21T17:47:00.536Z</time>
      </trkpt>
      <trkpt lat="44.91597" lon="5.43301">
        <ele>847</ele>
        <time>2020-05-21T17:47:01.536Z</time>
      </trkpt>
      <trkpt lat="44.91594" lon="5.43301">
        <ele>847</ele>
        <time>2020-05-21T17:47:02.536Z</time>
      </trkpt>
      <trkpt lat="44.91591" lon="5.433">
        <ele>847</ele>
        <time>2020-05-21T17:47:03.536Z</time>
      </trkpt>
      <trkpt lat="44.91589" lon="5.433">
        <ele>848</ele>
        <time>2020-05-21T17:47:04.536Z</time>
      </trkpt>
      <trkpt lat="44.91587" lon="5.43298">
        <ele>849</ele>
        <time>2020-05-21T17:47:05.536Z</time>
      </trkpt>
      <trkpt lat="44.91585" lon="5.43297">
        <ele>849</ele>
        <time>2020-05-21T17:47:06.536Z</time>
      </trkpt>
      <trkpt lat="44.91582" lon="5.43295">
        <ele>849</ele>
        <time>2020-05-21T17:47:07.536Z</time>
      </trkpt>
      <trkpt lat="44.91581" lon="5.43294">
        <ele>850</ele>
        <time>2020-05-21T17:47:08.536Z</time>
      </trkpt>
      <trkpt lat="44.9158" lon="5.43294">
        <ele>850</ele>
        <time>2020-05-21T17:47:09.536Z</time>
      </trkpt>
      <trkpt lat="44.9158" lon="5.43294">
        <ele>850</ele>
        <time>2020-05-21T17:47:10.536Z</time>
      </trkpt>
      <trkpt lat="44.9158" lon="5.43294">
        <ele>851</ele>
        <time>2020-05-21T17:47:11.536Z</time>
      </trkpt>
      <trkpt lat="44.9158" lon="5.43295">
        <ele>851</ele>
        <time>2020-05-21T17:47:12.535Z</time>
      </trkpt>
      <trkpt lat="44.9158" lon="5.43295">
        <ele>851</ele>
        <time>2020-05-21T17:47:13.536Z</time>
      </trkpt>
      <trkpt lat="44.91581" lon="5.43296">
        <ele>851</ele>
        <time>2020-05-21T17:47:14.536Z</time>
      </trkpt>
      <trkpt lat="44.91582" lon="5.43296">
        <ele>851</ele>
        <time>2020-05-21T17:47:15.535Z</time>
      </trkpt>
      <trkpt lat="44.91583" lon="5.43296">
        <ele>851</ele>
        <time>2020-05-21T17:47:16.536Z</time>
      </trkpt>
      <trkpt lat="44.91583" lon="5.43295">
        <ele>851</ele>
        <time>2020-05-21T17:47:17.536Z</time>
      </trkpt>
      <trkpt lat="44.91583" lon="5.43295">
        <ele>850</ele>
        <time>2020-05-21T17:47:18.536Z</time>
      </trkpt>
      <trkpt lat="44.91582" lon="5.43295">
        <ele>850</ele>
        <time>2020-05-21T17:47:19.536Z</time>
      </trkpt>
      <trkpt lat="44.91582" lon="5.43295">
        <ele>849</ele>
        <time>2020-05-21T17:47:20.536Z</time>
      </trkpt>
      <trkpt lat="44.91582" lon="5.43295">
        <ele>849</ele>
        <time>2020-05-21T17:47:21.535Z</time>
      </trkpt>
      <trkpt lat="44.91582" lon="5.43295">
        <ele>849</ele>
        <time>2020-05-21T17:47:22.536Z</time>
      </trkpt>
      <trkpt lat="44.91582" lon="5.43295">
        <ele>848</ele>
        <time>2020-05-21T17:47:23.536Z</time>
      </trkpt>
      <trkpt lat="44.91582" lon="5.43295">
        <ele>848</ele>
        <time>2020-05-21T17:47:24.536Z</time>
      </trkpt>
      <trkpt lat="44.91582" lon="5.43295">
        <ele>847</ele>
        <time>2020-05-21T17:47:25.536Z</time>
      </trkpt>
      <trkpt lat="44.91582" lon="5.43295">
        <ele>847</ele>
        <time>2020-05-21T17:47:26.535Z</time>
      </trkpt>
      <trkpt lat="44.91582" lon="5.43295">
        <ele>847</ele>
        <time>2020-05-21T17:47:27.535Z</time>
      </trkpt>
      <trkpt lat="44.91582" lon="5.43295">
        <ele>847</ele>
        <time>2020-05-21T17:47:28.536Z</time>
      </trkpt>
      <trkpt lat="44.91582" lon="5.43295">
        <ele>847</ele>
        <time>2020-05-21T17:47:29.536Z</time>
      </trkpt>
      <trkpt lat="44.91582" lon="5.43295">
        <ele>847</ele>
        <time>2020-05-21T17:47:30.536Z</time>
      </trkpt>
      <trkpt lat="44.91582" lon="5.43295">
        <ele>846</ele>
        <time>2020-05-21T17:47:31.536Z</time>
      </trkpt>
      <trkpt lat="44.91582" lon="5.43295">
        <ele>846</ele>
        <time>2020-05-21T17:47:32.536Z</time>
      </trkpt>
      <trkpt lat="44.91582" lon="5.43295">
        <ele>846</ele>
        <time>2020-05-21T17:47:33.536Z</time>
      </trkpt>
      <trkpt lat="44.91582" lon="5.43295">
        <ele>846</ele>
        <time>2020-05-21T17:47:34.535Z</time>
      </trkpt>
      <trkpt lat="44.91582" lon="5.43295">
        <ele>846</ele>
        <time>2020-05-21T17:47:35.535Z</time>
      </trkpt>
      <trkpt lat="44.91582" lon="5.43295">
        <ele>846</ele>
        <time>2020-05-21T17:47:36.536Z</time>
      </trkpt>
      <trkpt lat="44.91582" lon="5.43295">
        <ele>846</ele>
        <time>2020-05-21T17:47:37.536Z</time>
      </trkpt>
      <trkpt lat="44.91581" lon="5.43295">
        <ele>845</ele>
        <time>2020-05-21T17:47:38.536Z</time>
      </trkpt>
      <trkpt lat="44.9158" lon="5.43293">
        <ele>845</ele>
        <time>2020-05-21T17:47:39.536Z</time>
      </trkpt>
      <trkpt lat="44.91578" lon="5.43291">
        <ele>845</ele>
        <time>2020-05-21T17:47:40.536Z</time>
      </trkpt>
      <trkpt lat="44.91577" lon="5.43289">
        <ele>845</ele>
        <time>2020-05-21T17:47:41.536Z</time>
      </trkpt>
      <trkpt lat="44.91575" lon="5.43287">
        <ele>845</ele>
        <time>2020-05-21T17:47:42.535Z</time>
      </trkpt>
      <trkpt lat="44.91573" lon="5.43285">
        <ele>845</ele>
        <time>2020-05-21T17:47:43.536Z</time>
      </trkpt>
      <trkpt lat="44.9157" lon="5.43281">
        <ele>845</ele>
        <time>2020-05-21T17:47:44.536Z</time>
      </trkpt>
      <trkpt lat="44.91568" lon="5.43278">
        <ele>844</ele>
        <time>2020-05-21T17:47:45.535Z</time>
      </trkpt>
      <trkpt lat="44.91566" lon="5.43275">
        <ele>844</ele>
        <time>2020-05-21T17:47:46.536Z</time>
      </trkpt>
      <trkpt lat="44.91564" lon="5.43271">
        <ele>845</ele>
        <time>2020-05-21T17:47:47.536Z</time>
      </trkpt>
      <trkpt lat="44.91562" lon="5.43269">
        <ele>845</ele>
        <time>2020-05-21T17:47:48.536Z</time>
      </trkpt>
      <trkpt lat="44.9156" lon="5.43267">
        <ele>845</ele>
        <time>2020-05-21T17:47:49.536Z</time>
      </trkpt>
      <trkpt lat="44.91558" lon="5.43265">
        <ele>845</ele>
        <time>2020-05-21T17:47:50.536Z</time>
      </trkpt>
      <trkpt lat="44.91556" lon="5.43263">
        <ele>846</ele>
        <time>2020-05-21T17:47:51.536Z</time>
      </trkpt>
      <trkpt lat="44.91554" lon="5.4326">
        <ele>846</ele>
        <time>2020-05-21T17:47:52.535Z</time>
      </trkpt>
      <trkpt lat="44.91552" lon="5.43257">
        <ele>846</ele>
        <time>2020-05-21T17:47:53.536Z</time>
      </trkpt>
      <trkpt lat="44.9155" lon="5.43255">
        <ele>846</ele>
        <time>2020-05-21T17:47:54.535Z</time>
      </trkpt>
      <trkpt lat="44.91548" lon="5.43253">
        <ele>846</ele>
        <time>2020-05-21T17:47:55.536Z</time>
      </trkpt>
      <trkpt lat="44.91546" lon="5.4325">
        <ele>846</ele>
        <time>2020-05-21T17:47:56.536Z</time>
      </trkpt>
      <trkpt lat="44.91544" lon="5.43248">
        <ele>846</ele>
        <time>2020-05-21T17:47:57.535Z</time>
      </trkpt>
      <trkpt lat="44.91541" lon="5.43245">
        <ele>846</ele>
        <time>2020-05-21T17:47:58.536Z</time>
      </trkpt>
      <trkpt lat="44.91539" lon="5.43243">
        <ele>846</ele>
        <time>2020-05-21T17:47:59.536Z</time>
      </trkpt>
      <trkpt lat="44.91537" lon="5.4324">
        <ele>846</ele>
        <time>2020-05-21T17:48:00.535Z</time>
      </trkpt>
      <trkpt lat="44.91534" lon="5.43237">
        <ele>845</ele>
        <time>2020-05-21T17:48:01.535Z</time>
      </trkpt>
      <trkpt lat="44.91532" lon="5.43235">
        <ele>845</ele>
        <time>2020-05-21T17:48:02.536Z</time>
      </trkpt>
      <trkpt lat="44.9153" lon="5.43233">
        <ele>844</ele>
        <time>2020-05-21T17:48:03.536Z</time>
      </trkpt>
      <trkpt lat="44.91527" lon="5.4323">
        <ele>844</ele>
        <time>2020-05-21T17:48:04.536Z</time>
      </trkpt>
      <trkpt lat="44.91525" lon="5.43228">
        <ele>844</ele>
        <time>2020-05-21T17:48:05.536Z</time>
      </trkpt>
      <trkpt lat="44.91523" lon="5.43225">
        <ele>843</ele>
        <time>2020-05-21T17:48:06.536Z</time>
      </trkpt>
      <trkpt lat="44.91521" lon="5.43222">
        <ele>843</ele>
        <time>2020-05-21T17:48:07.536Z</time>
      </trkpt>
      <trkpt lat="44.91519" lon="5.43219">
        <ele>842</ele>
        <time>2020-05-21T17:48:08.535Z</time>
      </trkpt>
      <trkpt lat="44.91516" lon="5.43217">
        <ele>842</ele>
        <time>2020-05-21T17:48:09.536Z</time>
      </trkpt>
      <trkpt lat="44.91514" lon="5.43214">
        <ele>841</ele>
        <time>2020-05-21T17:48:10.535Z</time>
      </trkpt>
      <trkpt lat="44.91511" lon="5.43211">
        <ele>841</ele>
        <time>2020-05-21T17:48:11.536Z</time>
      </trkpt>
      <trkpt lat="44.91509" lon="5.43209">
        <ele>840</ele>
        <time>2020-05-21T17:48:12.536Z</time>
      </trkpt>
      <trkpt lat="44.91507" lon="5.43206">
        <ele>840</ele>
        <time>2020-05-21T17:48:13.536Z</time>
      </trkpt>
      <trkpt lat="44.91504" lon="5.43203">
        <ele>840</ele>
        <time>2020-05-21T17:48:14.535Z</time>
      </trkpt>
      <trkpt lat="44.91502" lon="5.432">
        <ele>840</ele>
        <time>2020-05-21T17:48:15.535Z</time>
      </trkpt>
      <trkpt lat="44.915" lon="5.43198">
        <ele>840</ele>
        <time>2020-05-21T17:48:16.535Z</time>
      </trkpt>
      <trkpt lat="44.91498" lon="5.43195">
        <ele>840</ele>
        <time>2020-05-21T17:48:17.535Z</time>
      </trkpt>
      <trkpt lat="44.91496" lon="5.43193">
        <ele>840</ele>
        <time>2020-05-21T17:48:18.536Z</time>
      </trkpt>
      <trkpt lat="44.91493" lon="5.4319">
        <ele>840</ele>
        <time>2020-05-21T17:48:19.536Z</time>
      </trkpt>
      <trkpt lat="44.91491" lon="5.43187">
        <ele>840</ele>
        <time>2020-05-21T17:48:20.536Z</time>
      </trkpt>
      <trkpt lat="44.91489" lon="5.43185">
        <ele>840</ele>
        <time>2020-05-21T17:48:21.536Z</time>
      </trkpt>
      <trkpt lat="44.91486" lon="5.43182">
        <ele>839</ele>
        <time>2020-05-21T17:48:22.535Z</time>
      </trkpt>
      <trkpt lat="44.91484" lon="5.4318">
        <ele>839</ele>
        <time>2020-05-21T17:48:23.536Z</time>
      </trkpt>
      <trkpt lat="44.91481" lon="5.43178">
        <ele>839</ele>
        <time>2020-05-21T17:48:24.536Z</time>
      </trkpt>
      <trkpt lat="44.91479" lon="5.43176">
        <ele>838</ele>
        <time>2020-05-21T17:48:25.536Z</time>
      </trkpt>
      <trkpt lat="44.91477" lon="5.43173">
        <ele>838</ele>
        <time>2020-05-21T17:48:26.535Z</time>
      </trkpt>
      <trkpt lat="44.91475" lon="5.4317">
        <ele>837</ele>
        <time>2020-05-21T17:48:27.535Z</time>
      </trkpt>
      <trkpt lat="44.91473" lon="5.43168">
        <ele>837</ele>
        <time>2020-05-21T17:48:28.536Z</time>
      </trkpt>
      <trkpt lat="44.9147" lon="5.43165">
        <ele>836</ele>
        <time>2020-05-21T17:48:29.535Z</time>
      </trkpt>
      <trkpt lat="44.91468" lon="5.43162">
        <ele>836</ele>
        <time>2020-05-21T17:48:30.536Z</time>
      </trkpt>
      <trkpt lat="44.91466" lon="5.43159">
        <ele>835</ele>
        <time>2020-05-21T17:48:31.536Z</time>
      </trkpt>
      <trkpt lat="44.91463" lon="5.43157">
        <ele>835</ele>
        <time>2020-05-21T17:48:32.536Z</time>
      </trkpt>
      <trkpt lat="44.91461" lon="5.43155">
        <ele>835</ele>
        <time>2020-05-21T17:48:33.536Z</time>
      </trkpt>
      <trkpt lat="44.91459" lon="5.43152">
        <ele>835</ele>
        <time>2020-05-21T17:48:34.535Z</time>
      </trkpt>
      <trkpt lat="44.91456" lon="5.4315">
        <ele>835</ele>
        <time>2020-05-21T17:48:35.536Z</time>
      </trkpt>
      <trkpt lat="44.91454" lon="5.43147">
        <ele>835</ele>
        <time>2020-05-21T17:48:36.536Z</time>
      </trkpt>
      <trkpt lat="44.91452" lon="5.43144">
        <ele>834</ele>
        <time>2020-05-21T17:48:37.536Z</time>
      </trkpt>
      <trkpt lat="44.91449" lon="5.43142">
        <ele>834</ele>
        <time>2020-05-21T17:48:38.536Z</time>
      </trkpt>
      <trkpt lat="44.91447" lon="5.43139">
        <ele>834</ele>
        <time>2020-05-21T17:48:39.536Z</time>
      </trkpt>
      <trkpt lat="44.91445" lon="5.43136">
        <ele>834</ele>
        <time>2020-05-21T17:48:40.536Z</time>
      </trkpt>
      <trkpt lat="44.91442" lon="5.43133">
        <ele>834</ele>
        <time>2020-05-21T17:48:41.536Z</time>
      </trkpt>
      <trkpt lat="44.9144" lon="5.43131">
        <ele>834</ele>
        <time>2020-05-21T17:48:42.536Z</time>
      </trkpt>
      <trkpt lat="44.91437" lon="5.43128">
        <ele>834</ele>
        <time>2020-05-21T17:48:43.535Z</time>
      </trkpt>
      <trkpt lat="44.91435" lon="5.43126">
        <ele>834</ele>
        <time>2020-05-21T17:48:44.536Z</time>
      </trkpt>
      <trkpt lat="44.91432" lon="5.43123">
        <ele>834</ele>
        <time>2020-05-21T17:48:45.536Z</time>
      </trkpt>
      <trkpt lat="44.9143" lon="5.4312">
        <ele>833</ele>
        <time>2020-05-21T17:48:46.536Z</time>
      </trkpt>
      <trkpt lat="44.91428" lon="5.43118">
        <ele>833</ele>
        <time>2020-05-21T17:48:47.535Z</time>
      </trkpt>
      <trkpt lat="44.91426" lon="5.43116">
        <ele>833</ele>
        <time>2020-05-21T17:48:48.536Z</time>
      </trkpt>
      <trkpt lat="44.91424" lon="5.43113">
        <ele>832</ele>
        <time>2020-05-21T17:48:49.536Z</time>
      </trkpt>
      <trkpt lat="44.91422" lon="5.43111">
        <ele>832</ele>
        <time>2020-05-21T17:48:50.536Z</time>
      </trkpt>
      <trkpt lat="44.9142" lon="5.43108">
        <ele>832</ele>
        <time>2020-05-21T17:48:51.536Z</time>
      </trkpt>
      <trkpt lat="44.91417" lon="5.43106">
        <ele>831</ele>
        <time>2020-05-21T17:48:52.536Z</time>
      </trkpt>
      <trkpt lat="44.91415" lon="5.43103">
        <ele>831</ele>
        <time>2020-05-21T17:48:53.536Z</time>
      </trkpt>
      <trkpt lat="44.91413" lon="5.43101">
        <ele>831</ele>
        <time>2020-05-21T17:48:54.536Z</time>
      </trkpt>
      <trkpt lat="44.9141" lon="5.43099">
        <ele>831</ele>
        <time>2020-05-21T17:48:55.536Z</time>
      </trkpt>
      <trkpt lat="44.91408" lon="5.43096">
        <ele>831</ele>
        <time>2020-05-21T17:48:56.535Z</time>
      </trkpt>
      <trkpt lat="44.91406" lon="5.43094">
        <ele>830</ele>
        <time>2020-05-21T17:48:57.535Z</time>
      </trkpt>
      <trkpt lat="44.91404" lon="5.43091">
        <ele>830</ele>
        <time>2020-05-21T17:48:58.536Z</time>
      </trkpt>
      <trkpt lat="44.91402" lon="5.43089">
        <ele>830</ele>
        <time>2020-05-21T17:48:59.536Z</time>
      </trkpt>
      <trkpt lat="44.914" lon="5.43086">
        <ele>830</ele>
        <time>2020-05-21T17:49:00.535Z</time>
      </trkpt>
      <trkpt lat="44.91398" lon="5.43084">
        <ele>829</ele>
        <time>2020-05-21T17:49:01.535Z</time>
      </trkpt>
      <trkpt lat="44.91396" lon="5.43081">
        <ele>829</ele>
        <time>2020-05-21T17:49:02.536Z</time>
      </trkpt>
      <trkpt lat="44.91393" lon="5.43079">
        <ele>829</ele>
        <time>2020-05-21T17:49:03.536Z</time>
      </trkpt>
      <trkpt lat="44.91391" lon="5.43076">
        <ele>829</ele>
        <time>2020-05-21T17:49:04.535Z</time>
      </trkpt>
      <trkpt lat="44.91389" lon="5.43074">
        <ele>828</ele>
        <time>2020-05-21T17:49:05.536Z</time>
      </trkpt>
      <trkpt lat="44.91387" lon="5.43072">
        <ele>828</ele>
        <time>2020-05-21T17:49:06.536Z</time>
      </trkpt>
      <trkpt lat="44.91385" lon="5.43069">
        <ele>828</ele>
        <time>2020-05-21T17:49:07.535Z</time>
      </trkpt>
      <trkpt lat="44.91382" lon="5.43066">
        <ele>828</ele>
        <time>2020-05-21T17:49:08.536Z</time>
      </trkpt>
      <trkpt lat="44.9138" lon="5.43064">
        <ele>828</ele>
        <time>2020-05-21T17:49:09.536Z</time>
      </trkpt>
      <trkpt lat="44.91378" lon="5.43062">
        <ele>828</ele>
        <time>2020-05-21T17:49:10.536Z</time>
      </trkpt>
      <trkpt lat="44.91376" lon="5.4306">
        <ele>828</ele>
        <time>2020-05-21T17:49:11.535Z</time>
      </trkpt>
      <trkpt lat="44.91374" lon="5.43057">
        <ele>828</ele>
        <time>2020-05-21T17:49:12.535Z</time>
      </trkpt>
      <trkpt lat="44.91372" lon="5.43055">
        <ele>828</ele>
        <time>2020-05-21T17:49:13.535Z</time>
      </trkpt>
      <trkpt lat="44.91369" lon="5.43052">
        <ele>828</ele>
        <time>2020-05-21T17:49:14.535Z</time>
      </trkpt>
      <trkpt lat="44.91367" lon="5.4305">
        <ele>828</ele>
        <time>2020-05-21T17:49:15.536Z</time>
      </trkpt>
      <trkpt lat="44.91365" lon="5.43047">
        <ele>827</ele>
        <time>2020-05-21T17:49:16.535Z</time>
      </trkpt>
      <trkpt lat="44.91363" lon="5.43045">
        <ele>827</ele>
        <time>2020-05-21T17:49:17.536Z</time>
      </trkpt>
      <trkpt lat="44.91361" lon="5.43043">
        <ele>827</ele>
        <time>2020-05-21T17:49:18.536Z</time>
      </trkpt>
      <trkpt lat="44.91358" lon="5.4304">
        <ele>827</ele>
        <time>2020-05-21T17:49:19.536Z</time>
      </trkpt>
      <trkpt lat="44.91356" lon="5.43038">
        <ele>826</ele>
        <time>2020-05-21T17:49:20.536Z</time>
      </trkpt>
      <trkpt lat="44.91354" lon="5.43035">
        <ele>826</ele>
        <time>2020-05-21T17:49:21.536Z</time>
      </trkpt>
      <trkpt lat="44.91352" lon="5.43033">
        <ele>826</ele>
        <time>2020-05-21T17:49:22.535Z</time>
      </trkpt>
      <trkpt lat="44.9135" lon="5.43031">
        <ele>826</ele>
        <time>2020-05-21T17:49:23.536Z</time>
      </trkpt>
      <trkpt lat="44.91347" lon="5.43028">
        <ele>826</ele>
        <time>2020-05-21T17:49:24.535Z</time>
      </trkpt>
      <trkpt lat="44.91345" lon="5.43026">
        <ele>826</ele>
        <time>2020-05-21T17:49:25.536Z</time>
      </trkpt>
      <trkpt lat="44.91343" lon="5.43024">
        <ele>826</ele>
        <time>2020-05-21T17:49:26.536Z</time>
      </trkpt>
      <trkpt lat="44.9134" lon="5.43022">
        <ele>826</ele>
        <time>2020-05-21T17:49:27.536Z</time>
      </trkpt>
      <trkpt lat="44.91338" lon="5.43019">
        <ele>826</ele>
        <time>2020-05-21T17:49:28.536Z</time>
      </trkpt>
      <trkpt lat="44.91336" lon="5.43017">
        <ele>826</ele>
        <time>2020-05-21T17:49:29.536Z</time>
      </trkpt>
      <trkpt lat="44.91334" lon="5.43015">
        <ele>826</ele>
        <time>2020-05-21T17:49:30.535Z</time>
      </trkpt>
      <trkpt lat="44.91332" lon="5.43013">
        <ele>826</ele>
        <time>2020-05-21T17:49:31.536Z</time>
      </trkpt>
      <trkpt lat="44.9133" lon="5.43011">
        <ele>826</ele>
        <time>2020-05-21T17:49:32.535Z</time>
      </trkpt>
      <trkpt lat="44.91328" lon="5.43009">
        <ele>825</ele>
        <time>2020-05-21T17:49:33.536Z</time>
      </trkpt>
      <trkpt lat="44.91325" lon="5.43007">
        <ele>825</ele>
        <time>2020-05-21T17:49:34.536Z</time>
      </trkpt>
      <trkpt lat="44.91323" lon="5.43004">
        <ele>825</ele>
        <time>2020-05-21T17:49:35.535Z</time>
      </trkpt>
      <trkpt lat="44.91322" lon="5.43002">
        <ele>825</ele>
        <time>2020-05-21T17:49:36.535Z</time>
      </trkpt>
      <trkpt lat="44.91319" lon="5.43">
        <ele>825</ele>
        <time>2020-05-21T17:49:37.535Z</time>
      </trkpt>
      <trkpt lat="44.91317" lon="5.42998">
        <ele>824</ele>
        <time>2020-05-21T17:49:38.536Z</time>
      </trkpt>
      <trkpt lat="44.91315" lon="5.42996">
        <ele>824</ele>
        <time>2020-05-21T17:49:39.536Z</time>
      </trkpt>
      <trkpt lat="44.91313" lon="5.42994">
        <ele>824</ele>
        <time>2020-05-21T17:49:40.536Z</time>
      </trkpt>
      <trkpt lat="44.9131" lon="5.42992">
        <ele>824</ele>
        <time>2020-05-21T17:49:41.536Z</time>
      </trkpt>
      <trkpt lat="44.91308" lon="5.4299">
        <ele>824</ele>
        <time>2020-05-21T17:49:42.536Z</time>
      </trkpt>
      <trkpt lat="44.91306" lon="5.42988">
        <ele>824</ele>
        <time>2020-05-21T17:49:43.535Z</time>
      </trkpt>
      <trkpt lat="44.91304" lon="5.42986">
        <ele>824</ele>
        <time>2020-05-21T17:49:44.536Z</time>
      </trkpt>
      <trkpt lat="44.91301" lon="5.42984">
        <ele>824</ele>
        <time>2020-05-21T17:49:45.536Z</time>
      </trkpt>
      <trkpt lat="44.91299" lon="5.42982">
        <ele>824</ele>
        <time>2020-05-21T17:49:46.536Z</time>
      </trkpt>
      <trkpt lat="44.91297" lon="5.4298">
        <ele>824</ele>
        <time>2020-05-21T17:49:47.536Z</time>
      </trkpt>
      <trkpt lat="44.91295" lon="5.42978">
        <ele>824</ele>
        <time>2020-05-21T17:49:48.536Z</time>
      </trkpt>
      <trkpt lat="44.91293" lon="5.42976">
        <ele>824</ele>
        <time>2020-05-21T17:49:49.535Z</time>
      </trkpt>
      <trkpt lat="44.91291" lon="5.42974">
        <ele>824</ele>
        <time>2020-05-21T17:49:50.536Z</time>
      </trkpt>
      <trkpt lat="44.91289" lon="5.42972">
        <ele>824</ele>
        <time>2020-05-21T17:49:51.536Z</time>
      </trkpt>
      <trkpt lat="44.91287" lon="5.42971">
        <ele>824</ele>
        <time>2020-05-21T17:49:52.535Z</time>
      </trkpt>
      <trkpt lat="44.91285" lon="5.42969">
        <ele>824</ele>
        <time>2020-05-21T17:49:53.536Z</time>
      </trkpt>
      <trkpt lat="44.91282" lon="5.42966">
        <ele>824</ele>
        <time>2020-05-21T17:49:54.536Z</time>
      </trkpt>
      <trkpt lat="44.9128" lon="5.42965">
        <ele>824</ele>
        <time>2020-05-21T17:49:55.536Z</time>
      </trkpt>
      <trkpt lat="44.91278" lon="5.42963">
        <ele>824</ele>
        <time>2020-05-21T17:49:56.536Z</time>
      </trkpt>
      <trkpt lat="44.91276" lon="5.42961">
        <ele>825</ele>
        <time>2020-05-21T17:49:57.535Z</time>
      </trkpt>
      <trkpt lat="44.91273" lon="5.42958">
        <ele>825</ele>
        <time>2020-05-21T17:49:58.536Z</time>
      </trkpt>
      <trkpt lat="44.91271" lon="5.42956">
        <ele>825</ele>
        <time>2020-05-21T17:49:59.536Z</time>
      </trkpt>
      <trkpt lat="44.91269" lon="5.42954">
        <ele>825</ele>
        <time>2020-05-21T17:50:00.536Z</time>
      </trkpt>
      <trkpt lat="44.91267" lon="5.42952">
        <ele>825</ele>
        <time>2020-05-21T17:50:01.536Z</time>
      </trkpt>
      <trkpt lat="44.91265" lon="5.4295">
        <ele>825</ele>
        <time>2020-05-21T17:50:02.535Z</time>
      </trkpt>
      <trkpt lat="44.91263" lon="5.42948">
        <ele>825</ele>
        <time>2020-05-21T17:50:03.536Z</time>
      </trkpt>
      <trkpt lat="44.9126" lon="5.42946">
        <ele>824</ele>
        <time>2020-05-21T17:50:04.536Z</time>
      </trkpt>
      <trkpt lat="44.91258" lon="5.42944">
        <ele>824</ele>
        <time>2020-05-21T17:50:05.536Z</time>
      </trkpt>
      <trkpt lat="44.91257" lon="5.42942">
        <ele>824</ele>
        <time>2020-05-21T17:50:06.535Z</time>
      </trkpt>
      <trkpt lat="44.91255" lon="5.42939">
        <ele>824</ele>
        <time>2020-05-21T17:50:07.536Z</time>
      </trkpt>
      <trkpt lat="44.91253" lon="5.42937">
        <ele>823</ele>
        <time>2020-05-21T17:50:08.536Z</time>
      </trkpt>
      <trkpt lat="44.91251" lon="5.42935">
        <ele>823</ele>
        <time>2020-05-21T17:50:09.536Z</time>
      </trkpt>
      <trkpt lat="44.91249" lon="5.42932">
        <ele>823</ele>
        <time>2020-05-21T17:50:10.536Z</time>
      </trkpt>
      <trkpt lat="44.91247" lon="5.4293">
        <ele>823</ele>
        <time>2020-05-21T17:50:11.536Z</time>
      </trkpt>
      <trkpt lat="44.91245" lon="5.42928">
        <ele>823</ele>
        <time>2020-05-21T17:50:12.535Z</time>
      </trkpt>
      <trkpt lat="44.91243" lon="5.42926">
        <ele>822</ele>
        <time>2020-05-21T17:50:13.536Z</time>
      </trkpt>
      <trkpt lat="44.91241" lon="5.42924">
        <ele>822</ele>
        <time>2020-05-21T17:50:14.536Z</time>
      </trkpt>
      <trkpt lat="44.91239" lon="5.42922">
        <ele>822</ele>
        <time>2020-05-21T17:50:15.536Z</time>
      </trkpt>
      <trkpt lat="44.91237" lon="5.4292">
        <ele>822</ele>
        <time>2020-05-21T17:50:16.536Z</time>
      </trkpt>
      <trkpt lat="44.91235" lon="5.42917">
        <ele>822</ele>
        <time>2020-05-21T17:50:17.535Z</time>
      </trkpt>
      <trkpt lat="44.91233" lon="5.42915">
        <ele>822</ele>
        <time>2020-05-21T17:50:18.535Z</time>
      </trkpt>
      <trkpt lat="44.91231" lon="5.42913">
        <ele>822</ele>
        <time>2020-05-21T17:50:19.536Z</time>
      </trkpt>
      <trkpt lat="44.91229" lon="5.42911">
        <ele>822</ele>
        <time>2020-05-21T17:50:20.535Z</time>
      </trkpt>
      <trkpt lat="44.91226" lon="5.42908">
        <ele>822</ele>
        <time>2020-05-21T17:50:21.536Z</time>
      </trkpt>
      <trkpt lat="44.91224" lon="5.42906">
        <ele>822</ele>
        <time>2020-05-21T17:50:22.535Z</time>
      </trkpt>
      <trkpt lat="44.91222" lon="5.42904">
        <ele>822</ele>
        <time>2020-05-21T17:50:23.535Z</time>
      </trkpt>
      <trkpt lat="44.9122" lon="5.42902">
        <ele>822</ele>
        <time>2020-05-21T17:50:24.536Z</time>
      </trkpt>
      <trkpt lat="44.91218" lon="5.429">
        <ele>823</ele>
        <time>2020-05-21T17:50:25.535Z</time>
      </trkpt>
      <trkpt lat="44.91216" lon="5.42898">
        <ele>823</ele>
        <time>2020-05-21T17:50:26.536Z</time>
      </trkpt>
      <trkpt lat="44.91214" lon="5.42896">
        <ele>823</ele>
        <time>2020-05-21T17:50:27.536Z</time>
      </trkpt>
      <trkpt lat="44.91211" lon="5.42894">
        <ele>823</ele>
        <time>2020-05-21T17:50:28.536Z</time>
      </trkpt>
      <trkpt lat="44.91209" lon="5.42891">
        <ele>823</ele>
        <time>2020-05-21T17:50:29.536Z</time>
      </trkpt>
      <trkpt lat="44.91207" lon="5.42889">
        <ele>824</ele>
        <time>2020-05-21T17:50:30.536Z</time>
      </trkpt>
      <trkpt lat="44.91205" lon="5.42887">
        <ele>824</ele>
        <time>2020-05-21T17:50:31.536Z</time>
      </trkpt>
      <trkpt lat="44.91203" lon="5.42885">
        <ele>824</ele>
        <time>2020-05-21T17:50:32.535Z</time>
      </trkpt>
      <trkpt lat="44.912" lon="5.42884">
        <ele>824</ele>
        <time>2020-05-21T17:50:33.536Z</time>
      </trkpt>
      <trkpt lat="44.91198" lon="5.42882">
        <ele>824</ele>
        <time>2020-05-21T17:50:34.536Z</time>
      </trkpt>
      <trkpt lat="44.91196" lon="5.4288">
        <ele>824</ele>
        <time>2020-05-21T17:50:35.536Z</time>
      </trkpt>
      <trkpt lat="44.91193" lon="5.42878">
        <ele>823</ele>
        <time>2020-05-21T17:50:36.536Z</time>
      </trkpt>
      <trkpt lat="44.91191" lon="5.42877">
        <ele>823</ele>
        <time>2020-05-21T17:50:37.536Z</time>
      </trkpt>
      <trkpt lat="44.91189" lon="5.42876">
        <ele>822</ele>
        <time>2020-05-21T17:50:38.535Z</time>
      </trkpt>
      <trkpt lat="44.91186" lon="5.42874">
        <ele>822</ele>
        <time>2020-05-21T17:50:39.536Z</time>
      </trkpt>
      <trkpt lat="44.91184" lon="5.42873">
        <ele>822</ele>
        <time>2020-05-21T17:50:40.536Z</time>
      </trkpt>
      <trkpt lat="44.91181" lon="5.42872">
        <ele>822</ele>
        <time>2020-05-21T17:50:41.536Z</time>
      </trkpt>
      <trkpt lat="44.91179" lon="5.42871">
        <ele>822</ele>
        <time>2020-05-21T17:50:42.536Z</time>
      </trkpt>
      <trkpt lat="44.91176" lon="5.42869">
        <ele>822</ele>
        <time>2020-05-21T17:50:43.536Z</time>
      </trkpt>
      <trkpt lat="44.91174" lon="5.42868">
        <ele>822</ele>
        <time>2020-05-21T17:50:44.535Z</time>
      </trkpt>
      <trkpt lat="44.91171" lon="5.42867">
        <ele>822</ele>
        <time>2020-05-21T17:50:45.535Z</time>
      </trkpt>
      <trkpt lat="44.91169" lon="5.42866">
        <ele>822</ele>
        <time>2020-05-21T17:50:46.536Z</time>
      </trkpt>
      <trkpt lat="44.91166" lon="5.42865">
        <ele>821</ele>
        <time>2020-05-21T17:50:47.536Z</time>
      </trkpt>
      <trkpt lat="44.91164" lon="5.42864">
        <ele>821</ele>
        <time>2020-05-21T17:50:48.535Z</time>
      </trkpt>
      <trkpt lat="44.91162" lon="5.42864">
        <ele>821</ele>
        <time>2020-05-21T17:50:49.536Z</time>
      </trkpt>
      <trkpt lat="44.91159" lon="5.42863">
        <ele>822</ele>
        <time>2020-05-21T17:50:50.536Z</time>
      </trkpt>
      <trkpt lat="44.91157" lon="5.42862">
        <ele>822</ele>
        <time>2020-05-21T17:50:51.536Z</time>
      </trkpt>
      <trkpt lat="44.91154" lon="5.42862">
        <ele>822</ele>
        <time>2020-05-21T17:50:52.535Z</time>
      </trkpt>
      <trkpt lat="44.91152" lon="5.42861">
        <ele>822</ele>
        <time>2020-05-21T17:50:53.536Z</time>
      </trkpt>
      <trkpt lat="44.9115" lon="5.4286">
        <ele>821</ele>
        <time>2020-05-21T17:50:54.535Z</time>
      </trkpt>
      <trkpt lat="44.91147" lon="5.42859">
        <ele>822</ele>
        <time>2020-05-21T17:50:55.535Z</time>
      </trkpt>
      <trkpt lat="44.91145" lon="5.42859">
        <ele>822</ele>
        <time>2020-05-21T17:50:56.535Z</time>
      </trkpt>
      <trkpt lat="44.91143" lon="5.42859">
        <ele>822</ele>
        <time>2020-05-21T17:50:57.536Z</time>
      </trkpt>
      <trkpt lat="44.91141" lon="5.42859">
        <ele>822</ele>
        <time>2020-05-21T17:50:58.535Z</time>
      </trkpt>
      <trkpt lat="44.9114" lon="5.42859">
        <ele>822</ele>
        <time>2020-05-21T17:50:59.536Z</time>
      </trkpt>
      <trkpt lat="44.91138" lon="5.42859">
        <ele>822</ele>
        <time>2020-05-21T17:51:00.536Z</time>
      </trkpt>
      <trkpt lat="44.91137" lon="5.42859">
        <ele>822</ele>
        <time>2020-05-21T17:51:01.536Z</time>
      </trkpt>
      <trkpt lat="44.91135" lon="5.42859">
        <ele>822</ele>
        <time>2020-05-21T17:51:02.536Z</time>
      </trkpt>
      <trkpt lat="44.91133" lon="5.42859">
        <ele>822</ele>
        <time>2020-05-21T17:51:03.536Z</time>
      </trkpt>
      <trkpt lat="44.9113" lon="5.4286">
        <ele>822</ele>
        <time>2020-05-21T17:51:04.536Z</time>
      </trkpt>
      <trkpt lat="44.91128" lon="5.42859">
        <ele>822</ele>
        <time>2020-05-21T17:51:05.536Z</time>
      </trkpt>
      <trkpt lat="44.91126" lon="5.42859">
        <ele>822</ele>
        <time>2020-05-21T17:51:06.535Z</time>
      </trkpt>
      <trkpt lat="44.91124" lon="5.42859">
        <ele>823</ele>
        <time>2020-05-21T17:51:07.536Z</time>
      </trkpt>
      <trkpt lat="44.91121" lon="5.42859">
        <ele>823</ele>
        <time>2020-05-21T17:51:08.535Z</time>
      </trkpt>
      <trkpt lat="44.91119" lon="5.42858">
        <ele>823</ele>
        <time>2020-05-21T17:51:09.536Z</time>
      </trkpt>
      <trkpt lat="44.91117" lon="5.42858">
        <ele>823</ele>
        <time>2020-05-21T17:51:10.536Z</time>
      </trkpt>
      <trkpt lat="44.91116" lon="5.42858">
        <ele>823</ele>
        <time>2020-05-21T17:51:11.535Z</time>
      </trkpt>
      <trkpt lat="44.91114" lon="5.42859">
        <ele>823</ele>
        <time>2020-05-21T17:51:12.536Z</time>
      </trkpt>
      <trkpt lat="44.91112" lon="5.42859">
        <ele>824</ele>
        <time>2020-05-21T17:51:13.535Z</time>
      </trkpt>
      <trkpt lat="44.9111" lon="5.42858">
        <ele>824</ele>
        <time>2020-05-21T17:51:14.536Z</time>
      </trkpt>
      <trkpt lat="44.91108" lon="5.42858">
        <ele>824</ele>
        <time>2020-05-21T17:51:15.536Z</time>
      </trkpt>
      <trkpt lat="44.91107" lon="5.42858">
        <ele>825</ele>
        <time>2020-05-21T17:51:16.536Z</time>
      </trkpt>
      <trkpt lat="44.91105" lon="5.42858">
        <ele>825</ele>
        <time>2020-05-21T17:51:17.536Z</time>
      </trkpt>
      <trkpt lat="44.91103" lon="5.42858">
        <ele>826</ele>
        <time>2020-05-21T17:51:18.536Z</time>
      </trkpt>
      <trkpt lat="44.91101" lon="5.42859">
        <ele>826</ele>
        <time>2020-05-21T17:51:19.535Z</time>
      </trkpt>
      <trkpt lat="44.911" lon="5.42859">
        <ele>827</ele>
        <time>2020-05-21T17:51:20.535Z</time>
      </trkpt>
      <trkpt lat="44.91098" lon="5.42859">
        <ele>827</ele>
        <time>2020-05-21T17:51:21.536Z</time>
      </trkpt>
      <trkpt lat="44.91096" lon="5.42859">
        <ele>827</ele>
        <time>2020-05-21T17:51:22.536Z</time>
      </trkpt>
      <trkpt lat="44.91094" lon="5.42859">
        <ele>827</ele>
        <time>2020-05-21T17:51:23.536Z</time>
      </trkpt>
      <trkpt lat="44.91093" lon="5.42858">
        <ele>827</ele>
        <time>2020-05-21T17:51:24.536Z</time>
      </trkpt>
      <trkpt lat="44.91091" lon="5.42858">
        <ele>826</ele>
        <time>2020-05-21T17:51:25.535Z</time>
      </trkpt>
      <trkpt lat="44.91089" lon="5.42857">
        <ele>826</ele>
        <time>2020-05-21T17:51:26.536Z</time>
      </trkpt>
      <trkpt lat="44.91087" lon="5.42857">
        <ele>825</ele>
        <time>2020-05-21T17:51:27.536Z</time>
      </trkpt>
      <trkpt lat="44.91085" lon="5.42856">
        <ele>825</ele>
        <time>2020-05-21T17:51:28.536Z</time>
      </trkpt>
      <trkpt lat="44.91083" lon="5.42855">
        <ele>824</ele>
        <time>2020-05-21T17:51:29.536Z</time>
      </trkpt>
      <trkpt lat="44.91082" lon="5.42853">
        <ele>824</ele>
        <time>2020-05-21T17:51:30.536Z</time>
      </trkpt>
      <trkpt lat="44.91081" lon="5.42852">
        <ele>824</ele>
        <time>2020-05-21T17:51:31.536Z</time>
      </trkpt>
      <trkpt lat="44.9108" lon="5.42852">
        <ele>824</ele>
        <time>2020-05-21T17:51:32.535Z</time>
      </trkpt>
      <trkpt lat="44.91078" lon="5.42851">
        <ele>824</ele>
        <time>2020-05-21T17:51:33.536Z</time>
      </trkpt>
      <trkpt lat="44.91076" lon="5.42851">
        <ele>824</ele>
        <time>2020-05-21T17:51:34.535Z</time>
      </trkpt>
      <trkpt lat="44.91074" lon="5.4285">
        <ele>824</ele>
        <time>2020-05-21T17:51:35.536Z</time>
      </trkpt>
      <trkpt lat="44.91072" lon="5.4285">
        <ele>824</ele>
        <time>2020-05-21T17:51:36.536Z</time>
      </trkpt>
      <trkpt lat="44.9107" lon="5.42851">
        <ele>824</ele>
        <time>2020-05-21T17:51:37.535Z</time>
      </trkpt>
      <trkpt lat="44.91068" lon="5.42851">
        <ele>824</ele>
        <time>2020-05-21T17:51:38.536Z</time>
      </trkpt>
      <trkpt lat="44.91065" lon="5.42852">
        <ele>824</ele>
        <time>2020-05-21T17:51:39.536Z</time>
      </trkpt>
      <trkpt lat="44.91063" lon="5.42852">
        <ele>825</ele>
        <time>2020-05-21T17:51:40.536Z</time>
      </trkpt>
      <trkpt lat="44.91061" lon="5.42851">
        <ele>825</ele>
        <time>2020-05-21T17:51:41.535Z</time>
      </trkpt>
      <trkpt lat="44.91058" lon="5.42852">
        <ele>825</ele>
        <time>2020-05-21T17:51:42.536Z</time>
      </trkpt>
      <trkpt lat="44.91056" lon="5.42852">
        <ele>825</ele>
        <time>2020-05-21T17:51:43.536Z</time>
      </trkpt>
      <trkpt lat="44.91054" lon="5.42851">
        <ele>826</ele>
        <time>2020-05-21T17:51:44.536Z</time>
      </trkpt>
      <trkpt lat="44.91052" lon="5.42851">
        <ele>826</ele>
        <time>2020-05-21T17:51:45.536Z</time>
      </trkpt>
      <trkpt lat="44.9105" lon="5.42852">
        <ele>826</ele>
        <time>2020-05-21T17:51:46.535Z</time>
      </trkpt>
      <trkpt lat="44.91048" lon="5.42852">
        <ele>826</ele>
        <time>2020-05-21T17:51:47.536Z</time>
      </trkpt>
      <trkpt lat="44.91046" lon="5.42852">
        <ele>827</ele>
        <time>2020-05-21T17:51:48.536Z</time>
      </trkpt>
      <trkpt lat="44.91044" lon="5.42852">
        <ele>827</ele>
        <time>2020-05-21T17:51:49.536Z</time>
      </trkpt>
      <trkpt lat="44.91042" lon="5.42852">
        <ele>827</ele>
        <time>2020-05-21T17:51:50.535Z</time>
      </trkpt>
      <trkpt lat="44.9104" lon="5.42853">
        <ele>827</ele>
        <time>2020-05-21T17:51:51.536Z</time>
      </trkpt>
      <trkpt lat="44.91038" lon="5.42853">
        <ele>827</ele>
        <time>2020-05-21T17:51:52.536Z</time>
      </trkpt>
      <trkpt lat="44.91036" lon="5.42854">
        <ele>827</ele>
        <time>2020-05-21T17:51:53.536Z</time>
      </trkpt>
      <trkpt lat="44.91034" lon="5.42854">
        <ele>827</ele>
        <time>2020-05-21T17:51:54.536Z</time>
      </trkpt>
      <trkpt lat="44.91032" lon="5.42854">
        <ele>827</ele>
        <time>2020-05-21T17:51:55.536Z</time>
      </trkpt>
      <trkpt lat="44.9103" lon="5.42853">
        <ele>827</ele>
        <time>2020-05-21T17:51:56.536Z</time>
      </trkpt>
      <trkpt lat="44.91028" lon="5.42853">
        <ele>828</ele>
        <time>2020-05-21T17:51:57.535Z</time>
      </trkpt>
      <trkpt lat="44.91026" lon="5.42852">
        <ele>829</ele>
        <time>2020-05-21T17:51:58.536Z</time>
      </trkpt>
      <trkpt lat="44.91023" lon="5.42852">
        <ele>829</ele>
        <time>2020-05-21T17:51:59.536Z</time>
      </trkpt>
      <trkpt lat="44.91022" lon="5.42851">
        <ele>830</ele>
        <time>2020-05-21T17:52:00.536Z</time>
      </trkpt>
      <trkpt lat="44.9102" lon="5.42852">
        <ele>830</ele>
        <time>2020-05-21T17:52:01.536Z</time>
      </trkpt>
      <trkpt lat="44.91019" lon="5.42852">
        <ele>830</ele>
        <time>2020-05-21T17:52:02.536Z</time>
      </trkpt>
      <trkpt lat="44.91017" lon="5.42853">
        <ele>830</ele>
        <time>2020-05-21T17:52:03.536Z</time>
      </trkpt>
      <trkpt lat="44.91015" lon="5.42853">
        <ele>830</ele>
        <time>2020-05-21T17:52:04.535Z</time>
      </trkpt>
      <trkpt lat="44.91013" lon="5.42854">
        <ele>830</ele>
        <time>2020-05-21T17:52:05.535Z</time>
      </trkpt>
      <trkpt lat="44.91012" lon="5.42855">
        <ele>830</ele>
        <time>2020-05-21T17:52:06.536Z</time>
      </trkpt>
      <trkpt lat="44.9101" lon="5.42856">
        <ele>830</ele>
        <time>2020-05-21T17:52:07.535Z</time>
      </trkpt>
      <trkpt lat="44.91007" lon="5.42857">
        <ele>830</ele>
        <time>2020-05-21T17:52:08.535Z</time>
      </trkpt>
      <trkpt lat="44.91006" lon="5.42857">
        <ele>831</ele>
        <time>2020-05-21T17:52:09.536Z</time>
      </trkpt>
      <trkpt lat="44.91004" lon="5.42858">
        <ele>831</ele>
        <time>2020-05-21T17:52:10.535Z</time>
      </trkpt>
      <trkpt lat="44.91002" lon="5.42859">
        <ele>832</ele>
        <time>2020-05-21T17:52:11.535Z</time>
      </trkpt>
      <trkpt lat="44.91" lon="5.4286">
        <ele>833</ele>
        <time>2020-05-21T17:52:12.536Z</time>
      </trkpt>
      <trkpt lat="44.90998" lon="5.4286">
        <ele>833</ele>
        <time>2020-05-21T17:52:13.536Z</time>
      </trkpt>
      <trkpt lat="44.90996" lon="5.42861">
        <ele>834</ele>
        <time>2020-05-21T17:52:14.536Z</time>
      </trkpt>
      <trkpt lat="44.90994" lon="5.42862">
        <ele>834</ele>
        <time>2020-05-21T17:52:15.535Z</time>
      </trkpt>
      <trkpt lat="44.90992" lon="5.42862">
        <ele>834</ele>
        <time>2020-05-21T17:52:16.535Z</time>
      </trkpt>
      <trkpt lat="44.9099" lon="5.42863">
        <ele>835</ele>
        <time>2020-05-21T17:52:17.536Z</time>
      </trkpt>
      <trkpt lat="44.90988" lon="5.42863">
        <ele>834</ele>
        <time>2020-05-21T17:52:18.536Z</time>
      </trkpt>
      <trkpt lat="44.90987" lon="5.42862">
        <ele>834</ele>
        <time>2020-05-21T17:52:19.536Z</time>
      </trkpt>
      <trkpt lat="44.90985" lon="5.42862">
        <ele>833</ele>
        <time>2020-05-21T17:52:20.535Z</time>
      </trkpt>
      <trkpt lat="44.90983" lon="5.42862">
        <ele>833</ele>
        <time>2020-05-21T17:52:21.536Z</time>
      </trkpt>
      <trkpt lat="44.90981" lon="5.42862">
        <ele>833</ele>
        <time>2020-05-21T17:52:22.536Z</time>
      </trkpt>
      <trkpt lat="44.90979" lon="5.42862">
        <ele>832</ele>
        <time>2020-05-21T17:52:23.536Z</time>
      </trkpt>
      <trkpt lat="44.90977" lon="5.42862">
        <ele>832</ele>
        <time>2020-05-21T17:52:24.536Z</time>
      </trkpt>
      <trkpt lat="44.90975" lon="5.42862">
        <ele>831</ele>
        <time>2020-05-21T17:52:25.536Z</time>
      </trkpt>
      <trkpt lat="44.90973" lon="5.42862">
        <ele>831</ele>
        <time>2020-05-21T17:52:26.535Z</time>
      </trkpt>
      <trkpt lat="44.90971" lon="5.42862">
        <ele>831</ele>
        <time>2020-05-21T17:52:27.536Z</time>
      </trkpt>
      <trkpt lat="44.90969" lon="5.42862">
        <ele>831</ele>
        <time>2020-05-21T17:52:28.536Z</time>
      </trkpt>
      <trkpt lat="44.90967" lon="5.42861">
        <ele>832</ele>
        <time>2020-05-21T17:52:29.536Z</time>
      </trkpt>
      <trkpt lat="44.90965" lon="5.42861">
        <ele>832</ele>
        <time>2020-05-21T17:52:30.536Z</time>
      </trkpt>
      <trkpt lat="44.90963" lon="5.42861">
        <ele>832</ele>
        <time>2020-05-21T17:52:31.536Z</time>
      </trkpt>
      <trkpt lat="44.90961" lon="5.42861">
        <ele>832</ele>
        <time>2020-05-21T17:52:32.536Z</time>
      </trkpt>
      <trkpt lat="44.90959" lon="5.42861">
        <ele>833</ele>
        <time>2020-05-21T17:52:33.536Z</time>
      </trkpt>
      <trkpt lat="44.90957" lon="5.42861">
        <ele>834</ele>
        <time>2020-05-21T17:52:34.535Z</time>
      </trkpt>
      <trkpt lat="44.90955" lon="5.42861">
        <ele>834</ele>
        <time>2020-05-21T17:52:35.536Z</time>
      </trkpt>
      <trkpt lat="44.90953" lon="5.42861">
        <ele>835</ele>
        <time>2020-05-21T17:52:36.535Z</time>
      </trkpt>
      <trkpt lat="44.9095" lon="5.42861">
        <ele>835</ele>
        <time>2020-05-21T17:52:37.536Z</time>
      </trkpt>
      <trkpt lat="44.90948" lon="5.42862">
        <ele>835</ele>
        <time>2020-05-21T17:52:38.536Z</time>
      </trkpt>
      <trkpt lat="44.90946" lon="5.42862">
        <ele>835</ele>
        <time>2020-05-21T17:52:39.536Z</time>
      </trkpt>
      <trkpt lat="44.90944" lon="5.42862">
        <ele>836</ele>
        <time>2020-05-21T17:52:40.536Z</time>
      </trkpt>
      <trkpt lat="44.90942" lon="5.42863">
        <ele>835</ele>
        <time>2020-05-21T17:52:41.536Z</time>
      </trkpt>
      <trkpt lat="44.9094" lon="5.42863">
        <ele>835</ele>
        <time>2020-05-21T17:52:42.536Z</time>
      </trkpt>
      <trkpt lat="44.90938" lon="5.42862">
        <ele>834</ele>
        <time>2020-05-21T17:52:43.536Z</time>
      </trkpt>
      <trkpt lat="44.90936" lon="5.42862">
        <ele>834</ele>
        <time>2020-05-21T17:52:44.535Z</time>
      </trkpt>
      <trkpt lat="44.90934" lon="5.42862">
        <ele>834</ele>
        <time>2020-05-21T17:52:45.536Z</time>
      </trkpt>
      <trkpt lat="44.90932" lon="5.42862">
        <ele>834</ele>
        <time>2020-05-21T17:52:46.536Z</time>
      </trkpt>
      <trkpt lat="44.9093" lon="5.42863">
        <ele>834</ele>
        <time>2020-05-21T17:52:47.535Z</time>
      </trkpt>
      <trkpt lat="44.90928" lon="5.42863">
        <ele>835</ele>
        <time>2020-05-21T17:52:48.536Z</time>
      </trkpt>
      <trkpt lat="44.90927" lon="5.42864">
        <ele>835</ele>
        <time>2020-05-21T17:52:49.536Z</time>
      </trkpt>
      <trkpt lat="44.90925" lon="5.42865">
        <ele>836</ele>
        <time>2020-05-21T17:52:50.536Z</time>
      </trkpt>
      <trkpt lat="44.90923" lon="5.42866">
        <ele>836</ele>
        <time>2020-05-21T17:52:51.536Z</time>
      </trkpt>
      <trkpt lat="44.90922" lon="5.42867">
        <ele>836</ele>
        <time>2020-05-21T17:52:52.536Z</time>
      </trkpt>
      <trkpt lat="44.9092" lon="5.42868">
        <ele>836</ele>
        <time>2020-05-21T17:52:53.536Z</time>
      </trkpt>
      <trkpt lat="44.90918" lon="5.42869">
        <ele>837</ele>
        <time>2020-05-21T17:52:54.535Z</time>
      </trkpt>
      <trkpt lat="44.90916" lon="5.4287">
        <ele>837</ele>
        <time>2020-05-21T17:52:55.536Z</time>
      </trkpt>
      <trkpt lat="44.90915" lon="5.4287">
        <ele>837</ele>
        <time>2020-05-21T17:52:56.535Z</time>
      </trkpt>
      <trkpt lat="44.90913" lon="5.42871">
        <ele>838</ele>
        <time>2020-05-21T17:52:57.536Z</time>
      </trkpt>
      <trkpt lat="44.90911" lon="5.42872">
        <ele>838</ele>
        <time>2020-05-21T17:52:58.535Z</time>
      </trkpt>
      <trkpt lat="44.90908" lon="5.42873">
        <ele>839</ele>
        <time>2020-05-21T17:52:59.536Z</time>
      </trkpt>
      <trkpt lat="44.90906" lon="5.42874">
        <ele>840</ele>
        <time>2020-05-21T17:53:00.536Z</time>
      </trkpt>
      <trkpt lat="44.90904" lon="5.42874">
        <ele>840</ele>
        <time>2020-05-21T17:53:01.536Z</time>
      </trkpt>
      <trkpt lat="44.90901" lon="5.42873">
        <ele>840</ele>
        <time>2020-05-21T17:53:02.536Z</time>
      </trkpt>
      <trkpt lat="44.90899" lon="5.42873">
        <ele>840</ele>
        <time>2020-05-21T17:53:03.536Z</time>
      </trkpt>
      <trkpt lat="44.90897" lon="5.42872">
        <ele>840</ele>
        <time>2020-05-21T17:53:04.535Z</time>
      </trkpt>
      <trkpt lat="44.90894" lon="5.42872">
        <ele>840</ele>
        <time>2020-05-21T17:53:05.536Z</time>
      </trkpt>
      <trkpt lat="44.90892" lon="5.42871">
        <ele>840</ele>
        <time>2020-05-21T17:53:06.536Z</time>
      </trkpt>
      <trkpt lat="44.90889" lon="5.42871">
        <ele>840</ele>
        <time>2020-05-21T17:53:07.536Z</time>
      </trkpt>
      <trkpt lat="44.90887" lon="5.42871">
        <ele>840</ele>
        <time>2020-05-21T17:53:08.536Z</time>
      </trkpt>
      <trkpt lat="44.90886" lon="5.4287">
        <ele>840</ele>
        <time>2020-05-21T17:53:09.536Z</time>
      </trkpt>
      <trkpt lat="44.90884" lon="5.4287">
        <ele>840</ele>
        <time>2020-05-21T17:53:10.536Z</time>
      </trkpt>
      <trkpt lat="44.90883" lon="5.42869">
        <ele>840</ele>
        <time>2020-05-21T17:53:11.536Z</time>
      </trkpt>
      <trkpt lat="44.90881" lon="5.42869">
        <ele>840</ele>
        <time>2020-05-21T17:53:12.535Z</time>
      </trkpt>
      <trkpt lat="44.9088" lon="5.42869">
        <ele>841</ele>
        <time>2020-05-21T17:53:13.535Z</time>
      </trkpt>
      <trkpt lat="44.90878" lon="5.42869">
        <ele>841</ele>
        <time>2020-05-21T17:53:14.536Z</time>
      </trkpt>
      <trkpt lat="44.90876" lon="5.42869">
        <ele>841</ele>
        <time>2020-05-21T17:53:15.535Z</time>
      </trkpt>
      <trkpt lat="44.90875" lon="5.42869">
        <ele>842</ele>
        <time>2020-05-21T17:53:16.536Z</time>
      </trkpt>
      <trkpt lat="44.90873" lon="5.42869">
        <ele>842</ele>
        <time>2020-05-21T17:53:17.536Z</time>
      </trkpt>
      <trkpt lat="44.90871" lon="5.42869">
        <ele>842</ele>
        <time>2020-05-21T17:53:18.535Z</time>
      </trkpt>
      <trkpt lat="44.90869" lon="5.42869">
        <ele>842</ele>
        <time>2020-05-21T17:53:19.536Z</time>
      </trkpt>
      <trkpt lat="44.90866" lon="5.42869">
        <ele>842</ele>
        <time>2020-05-21T17:53:20.536Z</time>
      </trkpt>
      <trkpt lat="44.90864" lon="5.42869">
        <ele>843</ele>
        <time>2020-05-21T17:53:21.536Z</time>
      </trkpt>
      <trkpt lat="44.90862" lon="5.42869">
        <ele>843</ele>
        <time>2020-05-21T17:53:22.536Z</time>
      </trkpt>
      <trkpt lat="44.90859" lon="5.4287">
        <ele>843</ele>
        <time>2020-05-21T17:53:23.535Z</time>
      </trkpt>
      <trkpt lat="44.90856" lon="5.4287">
        <ele>843</ele>
        <time>2020-05-21T17:53:24.536Z</time>
      </trkpt>
      <trkpt lat="44.90854" lon="5.42869">
        <ele>843</ele>
        <time>2020-05-21T17:53:25.536Z</time>
      </trkpt>
      <trkpt lat="44.90851" lon="5.42868">
        <ele>843</ele>
        <time>2020-05-21T17:53:26.536Z</time>
      </trkpt>
      <trkpt lat="44.90849" lon="5.42866">
        <ele>843</ele>
        <time>2020-05-21T17:53:27.536Z</time>
      </trkpt>
      <trkpt lat="44.90846" lon="5.42865">
        <ele>843</ele>
        <time>2020-05-21T17:53:28.536Z</time>
      </trkpt>
      <trkpt lat="44.90844" lon="5.42864">
        <ele>843</ele>
        <time>2020-05-21T17:53:29.535Z</time>
      </trkpt>
      <trkpt lat="44.90842" lon="5.42863">
        <ele>843</ele>
        <time>2020-05-21T17:53:30.535Z</time>
      </trkpt>
      <trkpt lat="44.9084" lon="5.42862">
        <ele>844</ele>
        <time>2020-05-21T17:53:31.536Z</time>
      </trkpt>
      <trkpt lat="44.90839" lon="5.42862">
        <ele>844</ele>
        <time>2020-05-21T17:53:32.536Z</time>
      </trkpt>
      <trkpt lat="44.90838" lon="5.42863">
        <ele>844</ele>
        <time>2020-05-21T17:53:33.536Z</time>
      </trkpt>
      <trkpt lat="44.90836" lon="5.42865">
        <ele>844</ele>
        <time>2020-05-21T17:53:34.535Z</time>
      </trkpt>
      <trkpt lat="44.90834" lon="5.42866">
        <ele>844</ele>
        <time>2020-05-21T17:53:35.536Z</time>
      </trkpt>
      <trkpt lat="44.90832" lon="5.42868">
        <ele>844</ele>
        <time>2020-05-21T17:53:36.536Z</time>
      </trkpt>
      <trkpt lat="44.9083" lon="5.42868">
        <ele>844</ele>
        <time>2020-05-21T17:53:37.536Z</time>
      </trkpt>
      <trkpt lat="44.90828" lon="5.42869">
        <ele>844</ele>
        <time>2020-05-21T17:53:38.536Z</time>
      </trkpt>
      <trkpt lat="44.90826" lon="5.42869">
        <ele>844</ele>
        <time>2020-05-21T17:53:39.536Z</time>
      </trkpt>
      <trkpt lat="44.90823" lon="5.4287">
        <ele>845</ele>
        <time>2020-05-21T17:53:40.536Z</time>
      </trkpt>
      <trkpt lat="44.90821" lon="5.4287">
        <ele>845</ele>
        <time>2020-05-21T17:53:41.536Z</time>
      </trkpt>
      <trkpt lat="44.90819" lon="5.42871">
        <ele>845</ele>
        <time>2020-05-21T17:53:42.536Z</time>
      </trkpt>
      <trkpt lat="44.90817" lon="5.42872">
        <ele>845</ele>
        <time>2020-05-21T17:53:43.536Z</time>
      </trkpt>
      <trkpt lat="44.90815" lon="5.42873">
        <ele>845</ele>
        <time>2020-05-21T17:53:44.535Z</time>
      </trkpt>
      <trkpt lat="44.90813" lon="5.42875">
        <ele>845</ele>
        <time>2020-05-21T17:53:45.536Z</time>
      </trkpt>
      <trkpt lat="44.90811" lon="5.42877">
        <ele>845</ele>
        <time>2020-05-21T17:53:46.535Z</time>
      </trkpt>
      <trkpt lat="44.90809" lon="5.42878">
        <ele>846</ele>
        <time>2020-05-21T17:53:47.536Z</time>
      </trkpt>
      <trkpt lat="44.90808" lon="5.4288">
        <ele>846</ele>
        <time>2020-05-21T17:53:48.536Z</time>
      </trkpt>
      <trkpt lat="44.90806" lon="5.42881">
        <ele>846</ele>
        <time>2020-05-21T17:53:49.536Z</time>
      </trkpt>
      <trkpt lat="44.90804" lon="5.42883">
        <ele>846</ele>
        <time>2020-05-21T17:53:50.536Z</time>
      </trkpt>
      <trkpt lat="44.90802" lon="5.42885">
        <ele>846</ele>
        <time>2020-05-21T17:53:51.535Z</time>
      </trkpt>
      <trkpt lat="44.90801" lon="5.42887">
        <ele>846</ele>
        <time>2020-05-21T17:53:52.536Z</time>
      </trkpt>
      <trkpt lat="44.90799" lon="5.42889">
        <ele>846</ele>
        <time>2020-05-21T17:53:53.536Z</time>
      </trkpt>
      <trkpt lat="44.90797" lon="5.42891">
        <ele>846</ele>
        <time>2020-05-21T17:53:54.536Z</time>
      </trkpt>
      <trkpt lat="44.90795" lon="5.42893">
        <ele>846</ele>
        <time>2020-05-21T17:53:55.536Z</time>
      </trkpt>
      <trkpt lat="44.90793" lon="5.42895">
        <ele>846</ele>
        <time>2020-05-21T17:53:56.535Z</time>
      </trkpt>
      <trkpt lat="44.90791" lon="5.42896">
        <ele>847</ele>
        <time>2020-05-21T17:53:57.536Z</time>
      </trkpt>
      <trkpt lat="44.90789" lon="5.42896">
        <ele>847</ele>
        <time>2020-05-21T17:53:58.536Z</time>
      </trkpt>
      <trkpt lat="44.90787" lon="5.42897">
        <ele>847</ele>
        <time>2020-05-21T17:53:59.536Z</time>
      </trkpt>
      <trkpt lat="44.90786" lon="5.42897">
        <ele>847</ele>
        <time>2020-05-21T17:54:00.536Z</time>
      </trkpt>
      <trkpt lat="44.90785" lon="5.42897">
        <ele>847</ele>
        <time>2020-05-21T17:54:01.535Z</time>
      </trkpt>
      <trkpt lat="44.90786" lon="5.42896">
        <ele>847</ele>
        <time>2020-05-21T17:54:02.535Z</time>
      </trkpt>
      <trkpt lat="44.90787" lon="5.42895">
        <ele>847</ele>
        <time>2020-05-21T17:54:03.536Z</time>
      </trkpt>
      <trkpt lat="44.90789" lon="5.42894">
        <ele>847</ele>
        <time>2020-05-21T17:54:04.535Z</time>
      </trkpt>
      <trkpt lat="44.90791" lon="5.42892">
        <ele>847</ele>
        <time>2020-05-21T17:54:05.536Z</time>
      </trkpt>
      <trkpt lat="44.90792" lon="5.42892">
        <ele>847</ele>
        <time>2020-05-21T17:54:06.536Z</time>
      </trkpt>
      <trkpt lat="44.90794" lon="5.42891">
        <ele>848</ele>
        <time>2020-05-21T17:54:07.535Z</time>
      </trkpt>
      <trkpt lat="44.90795" lon="5.42892">
        <ele>848</ele>
        <time>2020-05-21T17:54:08.535Z</time>
      </trkpt>
      <trkpt lat="44.90794" lon="5.42892">
        <ele>848</ele>
        <time>2020-05-21T17:54:09.536Z</time>
      </trkpt>
      <trkpt lat="44.90793" lon="5.42893">
        <ele>848</ele>
        <time>2020-05-21T17:54:10.536Z</time>
      </trkpt>
      <trkpt lat="44.90791" lon="5.42894">
        <ele>848</ele>
        <time>2020-05-21T17:54:11.536Z</time>
      </trkpt>
      <trkpt lat="44.90789" lon="5.42895">
        <ele>849</ele>
        <time>2020-05-21T17:54:12.535Z</time>
      </trkpt>
      <trkpt lat="44.90786" lon="5.42897">
        <ele>849</ele>
        <time>2020-05-21T17:54:13.536Z</time>
      </trkpt>
      <trkpt lat="44.90785" lon="5.42898">
        <ele>850</ele>
        <time>2020-05-21T17:54:14.536Z</time>
      </trkpt>
      <trkpt lat="44.90783" lon="5.42898">
        <ele>850</ele>
        <time>2020-05-21T17:54:15.536Z</time>
      </trkpt>
      <trkpt lat="44.9078" lon="5.42899">
        <ele>851</ele>
        <time>2020-05-21T17:54:16.536Z</time>
      </trkpt>
      <trkpt lat="44.90778" lon="5.429">
        <ele>851</ele>
        <time>2020-05-21T17:54:17.535Z</time>
      </trkpt>
      <trkpt lat="44.90776" lon="5.42901">
        <ele>851</ele>
        <time>2020-05-21T17:54:18.535Z</time>
      </trkpt>
      <trkpt lat="44.90774" lon="5.42902">
        <ele>852</ele>
        <time>2020-05-21T17:54:19.536Z</time>
      </trkpt>
      <trkpt lat="44.90772" lon="5.42903">
        <ele>852</ele>
        <time>2020-05-21T17:54:20.536Z</time>
      </trkpt>
      <trkpt lat="44.90771" lon="5.42904">
        <ele>851</ele>
        <time>2020-05-21T17:54:21.536Z</time>
      </trkpt>
      <trkpt lat="44.90769" lon="5.42904">
        <ele>851</ele>
        <time>2020-05-21T17:54:22.535Z</time>
      </trkpt>
      <trkpt lat="44.90767" lon="5.42904">
        <ele>851</ele>
        <time>2020-05-21T17:54:23.535Z</time>
      </trkpt>
      <trkpt lat="44.90766" lon="5.42905">
        <ele>850</ele>
        <time>2020-05-21T17:54:24.535Z</time>
      </trkpt>
      <trkpt lat="44.90765" lon="5.42905">
        <ele>850</ele>
        <time>2020-05-21T17:54:25.536Z</time>
      </trkpt>
      <trkpt lat="44.90763" lon="5.42905">
        <ele>849</ele>
        <time>2020-05-21T17:54:26.536Z</time>
      </trkpt>
      <trkpt lat="44.90762" lon="5.42906">
        <ele>849</ele>
        <time>2020-05-21T17:54:27.536Z</time>
      </trkpt>
      <trkpt lat="44.9076" lon="5.42907">
        <ele>848</ele>
        <time>2020-05-21T17:54:28.536Z</time>
      </trkpt>
      <trkpt lat="44.90759" lon="5.42907">
        <ele>848</ele>
        <time>2020-05-21T17:54:29.536Z</time>
      </trkpt>
      <trkpt lat="44.90757" lon="5.42908">
        <ele>848</ele>
        <time>2020-05-21T17:54:30.535Z</time>
      </trkpt>
      <trkpt lat="44.90756" lon="5.42909">
        <ele>848</ele>
        <time>2020-05-21T17:54:31.535Z</time>
      </trkpt>
      <trkpt lat="44.90755" lon="5.42909">
        <ele>848</ele>
        <time>2020-05-21T17:54:32.536Z</time>
      </trkpt>
      <trkpt lat="44.90753" lon="5.4291">
        <ele>848</ele>
        <time>2020-05-21T17:54:33.536Z</time>
      </trkpt>
      <trkpt lat="44.90751" lon="5.42911">
        <ele>848</ele>
        <time>2020-05-21T17:54:34.536Z</time>
      </trkpt>
      <trkpt lat="44.90749" lon="5.42911">
        <ele>848</ele>
        <time>2020-05-21T17:54:35.536Z</time>
      </trkpt>
      <trkpt lat="44.90747" lon="5.42911">
        <ele>848</ele>
        <time>2020-05-21T17:54:36.535Z</time>
      </trkpt>
      <trkpt lat="44.90746" lon="5.42911">
        <ele>848</ele>
        <time>2020-05-21T17:54:37.536Z</time>
      </trkpt>
      <trkpt lat="44.90745" lon="5.42911">
        <ele>848</ele>
        <time>2020-05-21T17:54:38.536Z</time>
      </trkpt>
      <trkpt lat="44.90744" lon="5.42912">
        <ele>848</ele>
        <time>2020-05-21T17:54:39.536Z</time>
      </trkpt>
      <trkpt lat="44.90744" lon="5.42912">
        <ele>848</ele>
        <time>2020-05-21T17:54:40.535Z</time>
      </trkpt>
      <trkpt lat="44.90743" lon="5.42912">
        <ele>848</ele>
        <time>2020-05-21T17:54:41.536Z</time>
      </trkpt>
      <trkpt lat="44.90743" lon="5.42912">
        <ele>848</ele>
        <time>2020-05-21T17:54:42.536Z</time>
      </trkpt>
      <trkpt lat="44.90741" lon="5.42912">
        <ele>847</ele>
        <time>2020-05-21T17:54:43.535Z</time>
      </trkpt>
      <trkpt lat="44.9074" lon="5.42912">
        <ele>847</ele>
        <time>2020-05-21T17:54:44.535Z</time>
      </trkpt>
      <trkpt lat="44.90739" lon="5.42912">
        <ele>847</ele>
        <time>2020-05-21T17:54:45.535Z</time>
      </trkpt>
      <trkpt lat="44.90737" lon="5.42913">
        <ele>847</ele>
        <time>2020-05-21T17:54:46.536Z</time>
      </trkpt>
      <trkpt lat="44.90735" lon="5.42913">
        <ele>846</ele>
        <time>2020-05-21T17:54:47.536Z</time>
      </trkpt>
      <trkpt lat="44.90733" lon="5.42913">
        <ele>846</ele>
        <time>2020-05-21T17:54:48.536Z</time>
      </trkpt>
      <trkpt lat="44.9073" lon="5.42913">
        <ele>846</ele>
        <time>2020-05-21T17:54:49.535Z</time>
      </trkpt>
      <trkpt lat="44.90728" lon="5.42913">
        <ele>846</ele>
        <time>2020-05-21T17:54:50.535Z</time>
      </trkpt>
      <trkpt lat="44.90726" lon="5.42913">
        <ele>846</ele>
        <time>2020-05-21T17:54:51.536Z</time>
      </trkpt>
      <trkpt lat="44.90724" lon="5.42913">
        <ele>846</ele>
        <time>2020-05-21T17:54:52.535Z</time>
      </trkpt>
      <trkpt lat="44.90722" lon="5.42912">
        <ele>846</ele>
        <time>2020-05-21T17:54:53.536Z</time>
      </trkpt>
      <trkpt lat="44.9072" lon="5.42912">
        <ele>846</ele>
        <time>2020-05-21T17:54:54.535Z</time>
      </trkpt>
      <trkpt lat="44.90718" lon="5.42912">
        <ele>846</ele>
        <time>2020-05-21T17:54:55.536Z</time>
      </trkpt>
      <trkpt lat="44.90716" lon="5.42912">
        <ele>846</ele>
        <time>2020-05-21T17:54:56.536Z</time>
      </trkpt>
      <trkpt lat="44.90714" lon="5.42912">
        <ele>847</ele>
        <time>2020-05-21T17:54:57.536Z</time>
      </trkpt>
      <trkpt lat="44.90711" lon="5.42912">
        <ele>847</ele>
        <time>2020-05-21T17:54:58.535Z</time>
      </trkpt>
      <trkpt lat="44.90709" lon="5.42912">
        <ele>848</ele>
        <time>2020-05-21T17:54:59.536Z</time>
      </trkpt>
      <trkpt lat="44.90707" lon="5.42912">
        <ele>849</ele>
        <time>2020-05-21T17:55:00.535Z</time>
      </trkpt>
      <trkpt lat="44.90705" lon="5.42912">
        <ele>849</ele>
        <time>2020-05-21T17:55:01.536Z</time>
      </trkpt>
      <trkpt lat="44.90704" lon="5.42912">
        <ele>850</ele>
        <time>2020-05-21T17:55:02.536Z</time>
      </trkpt>
      <trkpt lat="44.90701" lon="5.42912">
        <ele>851</ele>
        <time>2020-05-21T17:55:03.535Z</time>
      </trkpt>
      <trkpt lat="44.90699" lon="5.42912">
        <ele>851</ele>
        <time>2020-05-21T17:55:04.536Z</time>
      </trkpt>
      <trkpt lat="44.90697" lon="5.42912">
        <ele>851</ele>
        <time>2020-05-21T17:55:05.535Z</time>
      </trkpt>
      <trkpt lat="44.90694" lon="5.42912">
        <ele>851</ele>
        <time>2020-05-21T17:55:06.536Z</time>
      </trkpt>
      <trkpt lat="44.90692" lon="5.42912">
        <ele>851</ele>
        <time>2020-05-21T17:55:07.536Z</time>
      </trkpt>
      <trkpt lat="44.9069" lon="5.42911">
        <ele>851</ele>
        <time>2020-05-21T17:55:08.535Z</time>
      </trkpt>
      <trkpt lat="44.90689" lon="5.4291">
        <ele>850</ele>
        <time>2020-05-21T17:55:09.535Z</time>
      </trkpt>
      <trkpt lat="44.90686" lon="5.42909">
        <ele>851</ele>
        <time>2020-05-21T17:55:10.535Z</time>
      </trkpt>
      <trkpt lat="44.90684" lon="5.42909">
        <ele>851</ele>
        <time>2020-05-21T17:55:11.536Z</time>
      </trkpt>
      <trkpt lat="44.90682" lon="5.42909">
        <ele>851</ele>
        <time>2020-05-21T17:55:12.536Z</time>
      </trkpt>
      <trkpt lat="44.9068" lon="5.4291">
        <ele>852</ele>
        <time>2020-05-21T17:55:13.536Z</time>
      </trkpt>
      <trkpt lat="44.90678" lon="5.4291">
        <ele>852</ele>
        <time>2020-05-21T17:55:14.535Z</time>
      </trkpt>
      <trkpt lat="44.90676" lon="5.4291">
        <ele>852</ele>
        <time>2020-05-21T17:55:15.536Z</time>
      </trkpt>
      <trkpt lat="44.90673" lon="5.42909">
        <ele>852</ele>
        <time>2020-05-21T17:55:16.536Z</time>
      </trkpt>
      <trkpt lat="44.90671" lon="5.42908">
        <ele>853</ele>
        <time>2020-05-21T17:55:17.535Z</time>
      </trkpt>
      <trkpt lat="44.90669" lon="5.42906">
        <ele>852</ele>
        <time>2020-05-21T17:55:18.535Z</time>
      </trkpt>
      <trkpt lat="44.90667" lon="5.42904">
        <ele>852</ele>
        <time>2020-05-21T17:55:19.536Z</time>
      </trkpt>
      <trkpt lat="44.90665" lon="5.42903">
        <ele>851</ele>
        <time>2020-05-21T17:55:20.536Z</time>
      </trkpt>
      <trkpt lat="44.90663" lon="5.42902">
        <ele>852</ele>
        <time>2020-05-21T17:55:21.536Z</time>
      </trkpt>
      <trkpt lat="44.90661" lon="5.42901">
        <ele>851</ele>
        <time>2020-05-21T17:55:22.536Z</time>
      </trkpt>
      <trkpt lat="44.90658" lon="5.42901">
        <ele>851</ele>
        <time>2020-05-21T17:55:23.535Z</time>
      </trkpt>
      <trkpt lat="44.90656" lon="5.42901">
        <ele>852</ele>
        <time>2020-05-21T17:55:24.536Z</time>
      </trkpt>
      <trkpt lat="44.90654" lon="5.429">
        <ele>852</ele>
        <time>2020-05-21T17:55:25.535Z</time>
      </trkpt>
      <trkpt lat="44.90651" lon="5.42899">
        <ele>852</ele>
        <time>2020-05-21T17:55:26.536Z</time>
      </trkpt>
      <trkpt lat="44.9065" lon="5.42897">
        <ele>852</ele>
        <time>2020-05-21T17:55:27.536Z</time>
      </trkpt>
      <trkpt lat="44.90648" lon="5.42896">
        <ele>852</ele>
        <time>2020-05-21T17:55:28.535Z</time>
      </trkpt>
      <trkpt lat="44.90645" lon="5.42895">
        <ele>852</ele>
        <time>2020-05-21T17:55:29.536Z</time>
      </trkpt>
      <trkpt lat="44.90643" lon="5.42894">
        <ele>852</ele>
        <time>2020-05-21T17:55:30.536Z</time>
      </trkpt>
      <trkpt lat="44.90641" lon="5.42894">
        <ele>852</ele>
        <time>2020-05-21T17:55:31.535Z</time>
      </trkpt>
      <trkpt lat="44.90638" lon="5.42894">
        <ele>852</ele>
        <time>2020-05-21T17:55:32.536Z</time>
      </trkpt>
      <trkpt lat="44.90636" lon="5.42893">
        <ele>853</ele>
        <time>2020-05-21T17:55:33.535Z</time>
      </trkpt>
      <trkpt lat="44.90634" lon="5.42892">
        <ele>853</ele>
        <time>2020-05-21T17:55:34.536Z</time>
      </trkpt>
      <trkpt lat="44.90632" lon="5.42891">
        <ele>854</ele>
        <time>2020-05-21T17:55:35.536Z</time>
      </trkpt>
      <trkpt lat="44.90631" lon="5.4289">
        <ele>854</ele>
        <time>2020-05-21T17:55:36.535Z</time>
      </trkpt>
      <trkpt lat="44.90629" lon="5.4289">
        <ele>855</ele>
        <time>2020-05-21T17:55:37.535Z</time>
      </trkpt>
      <trkpt lat="44.90627" lon="5.4289">
        <ele>855</ele>
        <time>2020-05-21T17:55:38.535Z</time>
      </trkpt>
      <trkpt lat="44.90625" lon="5.42889">
        <ele>855</ele>
        <time>2020-05-21T17:55:39.535Z</time>
      </trkpt>
      <trkpt lat="44.90622" lon="5.42888">
        <ele>855</ele>
        <time>2020-05-21T17:55:40.536Z</time>
      </trkpt>
      <trkpt lat="44.9062" lon="5.42887">
        <ele>855</ele>
        <time>2020-05-21T17:55:41.535Z</time>
      </trkpt>
      <trkpt lat="44.90617" lon="5.42886">
        <ele>855</ele>
        <time>2020-05-21T17:55:42.535Z</time>
      </trkpt>
      <trkpt lat="44.90615" lon="5.42886">
        <ele>855</ele>
        <time>2020-05-21T17:55:43.535Z</time>
      </trkpt>
      <trkpt lat="44.90613" lon="5.42885">
        <ele>856</ele>
        <time>2020-05-21T17:55:44.535Z</time>
      </trkpt>
      <trkpt lat="44.9061" lon="5.42884">
        <ele>856</ele>
        <time>2020-05-21T17:55:45.536Z</time>
      </trkpt>
      <trkpt lat="44.90608" lon="5.42883">
        <ele>856</ele>
        <time>2020-05-21T17:55:46.535Z</time>
      </trkpt>
      <trkpt lat="44.90606" lon="5.42882">
        <ele>857</ele>
        <time>2020-05-21T17:55:47.536Z</time>
      </trkpt>
      <trkpt lat="44.90603" lon="5.42881">
        <ele>857</ele>
        <time>2020-05-21T17:55:48.536Z</time>
      </trkpt>
      <trkpt lat="44.90602" lon="5.4288">
        <ele>857</ele>
        <time>2020-05-21T17:55:49.536Z</time>
      </trkpt>
      <trkpt lat="44.906" lon="5.4288">
        <ele>857</ele>
        <time>2020-05-21T17:55:50.536Z</time>
      </trkpt>
      <trkpt lat="44.90598" lon="5.42879">
        <ele>857</ele>
        <time>2020-05-21T17:55:51.536Z</time>
      </trkpt>
      <trkpt lat="44.90597" lon="5.42878">
        <ele>857</ele>
        <time>2020-05-21T17:55:52.535Z</time>
      </trkpt>
      <trkpt lat="44.90595" lon="5.42877">
        <ele>857</ele>
        <time>2020-05-21T17:55:53.535Z</time>
      </trkpt>
      <trkpt lat="44.90593" lon="5.42876">
        <ele>858</ele>
        <time>2020-05-21T17:55:54.536Z</time>
      </trkpt>
      <trkpt lat="44.90591" lon="5.42875">
        <ele>858</ele>
        <time>2020-05-21T17:55:55.536Z</time>
      </trkpt>
      <trkpt lat="44.90589" lon="5.42875">
        <ele>858</ele>
        <time>2020-05-21T17:55:56.535Z</time>
      </trkpt>
      <trkpt lat="44.90587" lon="5.42874">
        <ele>858</ele>
        <time>2020-05-21T17:55:57.536Z</time>
      </trkpt>
      <trkpt lat="44.90586" lon="5.42873">
        <ele>858</ele>
        <time>2020-05-21T17:55:58.536Z</time>
      </trkpt>
      <trkpt lat="44.90585" lon="5.42872">
        <ele>858</ele>
        <time>2020-05-21T17:55:59.536Z</time>
      </trkpt>
      <trkpt lat="44.90583" lon="5.42871">
        <ele>858</ele>
        <time>2020-05-21T17:56:00.535Z</time>
      </trkpt>
      <trkpt lat="44.90582" lon="5.4287">
        <ele>858</ele>
        <time>2020-05-21T17:56:01.536Z</time>
      </trkpt>
      <trkpt lat="44.90579" lon="5.4287">
        <ele>857</ele>
        <time>2020-05-21T17:56:02.536Z</time>
      </trkpt>
      <trkpt lat="44.90577" lon="5.42869">
        <ele>857</ele>
        <time>2020-05-21T17:56:03.536Z</time>
      </trkpt>
      <trkpt lat="44.90575" lon="5.42868">
        <ele>856</ele>
        <time>2020-05-21T17:56:04.536Z</time>
      </trkpt>
      <trkpt lat="44.90573" lon="5.42867">
        <ele>856</ele>
        <time>2020-05-21T17:56:05.536Z</time>
      </trkpt>
      <trkpt lat="44.90571" lon="5.42866">
        <ele>855</ele>
        <time>2020-05-21T17:56:06.536Z</time>
      </trkpt>
      <trkpt lat="44.90568" lon="5.42865">
        <ele>855</ele>
        <time>2020-05-21T17:56:07.536Z</time>
      </trkpt>
      <trkpt lat="44.90566" lon="5.42865">
        <ele>854</ele>
        <time>2020-05-21T17:56:08.536Z</time>
      </trkpt>
      <trkpt lat="44.90563" lon="5.42864">
        <ele>854</ele>
        <time>2020-05-21T17:56:09.535Z</time>
      </trkpt>
      <trkpt lat="44.90561" lon="5.42863">
        <ele>854</ele>
        <time>2020-05-21T17:56:10.536Z</time>
      </trkpt>
      <trkpt lat="44.90559" lon="5.42862">
        <ele>855</ele>
        <time>2020-05-21T17:56:11.535Z</time>
      </trkpt>
      <trkpt lat="44.90556" lon="5.42861">
        <ele>854</ele>
        <time>2020-05-21T17:56:12.536Z</time>
      </trkpt>
      <trkpt lat="44.90554" lon="5.4286">
        <ele>854</ele>
        <time>2020-05-21T17:56:13.536Z</time>
      </trkpt>
      <trkpt lat="44.90552" lon="5.42859">
        <ele>854</ele>
        <time>2020-05-21T17:56:14.535Z</time>
      </trkpt>
      <trkpt lat="44.9055" lon="5.42859">
        <ele>854</ele>
        <time>2020-05-21T17:56:15.536Z</time>
      </trkpt>
      <trkpt lat="44.90547" lon="5.42858">
        <ele>854</ele>
        <time>2020-05-21T17:56:16.535Z</time>
      </trkpt>
      <trkpt lat="44.90545" lon="5.42857">
        <ele>854</ele>
        <time>2020-05-21T17:56:17.535Z</time>
      </trkpt>
      <trkpt lat="44.90543" lon="5.42856">
        <ele>854</ele>
        <time>2020-05-21T17:56:18.536Z</time>
      </trkpt>
      <trkpt lat="44.90541" lon="5.42855">
        <ele>853</ele>
        <time>2020-05-21T17:56:19.536Z</time>
      </trkpt>
      <trkpt lat="44.90539" lon="5.42854">
        <ele>853</ele>
        <time>2020-05-21T17:56:20.535Z</time>
      </trkpt>
      <trkpt lat="44.90537" lon="5.42854">
        <ele>853</ele>
        <time>2020-05-21T17:56:21.536Z</time>
      </trkpt>
      <trkpt lat="44.90534" lon="5.42853">
        <ele>853</ele>
        <time>2020-05-21T17:56:22.536Z</time>
      </trkpt>
      <trkpt lat="44.90532" lon="5.42852">
        <ele>854</ele>
        <time>2020-05-21T17:56:23.536Z</time>
      </trkpt>
      <trkpt lat="44.9053" lon="5.42851">
        <ele>854</ele>
        <time>2020-05-21T17:56:24.536Z</time>
      </trkpt>
      <trkpt lat="44.90527" lon="5.4285">
        <ele>854</ele>
        <time>2020-05-21T17:56:25.536Z</time>
      </trkpt>
      <trkpt lat="44.90525" lon="5.42849">
        <ele>854</ele>
        <time>2020-05-21T17:56:26.536Z</time>
      </trkpt>
      <trkpt lat="44.90523" lon="5.42849">
        <ele>854</ele>
        <time>2020-05-21T17:56:27.536Z</time>
      </trkpt>
      <trkpt lat="44.90521" lon="5.42848">
        <ele>854</ele>
        <time>2020-05-21T17:56:28.536Z</time>
      </trkpt>
      <trkpt lat="44.90518" lon="5.42847">
        <ele>855</ele>
        <time>2020-05-21T17:56:29.536Z</time>
      </trkpt>
      <trkpt lat="44.90516" lon="5.42847">
        <ele>855</ele>
        <time>2020-05-21T17:56:30.536Z</time>
      </trkpt>
      <trkpt lat="44.90514" lon="5.42846">
        <ele>855</ele>
        <time>2020-05-21T17:56:31.536Z</time>
      </trkpt>
      <trkpt lat="44.90511" lon="5.42845">
        <ele>855</ele>
        <time>2020-05-21T17:56:32.536Z</time>
      </trkpt>
      <trkpt lat="44.90509" lon="5.42844">
        <ele>855</ele>
        <time>2020-05-21T17:56:33.536Z</time>
      </trkpt>
      <trkpt lat="44.90506" lon="5.42843">
        <ele>855</ele>
        <time>2020-05-21T17:56:34.536Z</time>
      </trkpt>
      <trkpt lat="44.90504" lon="5.42842">
        <ele>854</ele>
        <time>2020-05-21T17:56:35.536Z</time>
      </trkpt>
      <trkpt lat="44.90502" lon="5.42841">
        <ele>854</ele>
        <time>2020-05-21T17:56:36.536Z</time>
      </trkpt>
      <trkpt lat="44.905" lon="5.4284">
        <ele>854</ele>
        <time>2020-05-21T17:56:37.536Z</time>
      </trkpt>
      <trkpt lat="44.90497" lon="5.42839">
        <ele>854</ele>
        <time>2020-05-21T17:56:38.535Z</time>
      </trkpt>
      <trkpt lat="44.90495" lon="5.42838">
        <ele>854</ele>
        <time>2020-05-21T17:56:39.536Z</time>
      </trkpt>
      <trkpt lat="44.90493" lon="5.42837">
        <ele>854</ele>
        <time>2020-05-21T17:56:40.536Z</time>
      </trkpt>
      <trkpt lat="44.90491" lon="5.42836">
        <ele>854</ele>
        <time>2020-05-21T17:56:41.536Z</time>
      </trkpt>
      <trkpt lat="44.90488" lon="5.42835">
        <ele>854</ele>
        <time>2020-05-21T17:56:42.536Z</time>
      </trkpt>
      <trkpt lat="44.90486" lon="5.42834">
        <ele>854</ele>
        <time>2020-05-21T17:56:43.536Z</time>
      </trkpt>
      <trkpt lat="44.90484" lon="5.42833">
        <ele>854</ele>
        <time>2020-05-21T17:56:44.535Z</time>
      </trkpt>
      <trkpt lat="44.90481" lon="5.42832">
        <ele>854</ele>
        <time>2020-05-21T17:56:45.536Z</time>
      </trkpt>
      <trkpt lat="44.90479" lon="5.42831">
        <ele>854</ele>
        <time>2020-05-21T17:56:46.536Z</time>
      </trkpt>
      <trkpt lat="44.90476" lon="5.4283">
        <ele>853</ele>
        <time>2020-05-21T17:56:47.536Z</time>
      </trkpt>
      <trkpt lat="44.90474" lon="5.42829">
        <ele>853</ele>
        <time>2020-05-21T17:56:48.536Z</time>
      </trkpt>
      <trkpt lat="44.90471" lon="5.42828">
        <ele>854</ele>
        <time>2020-05-21T17:56:49.535Z</time>
      </trkpt>
      <trkpt lat="44.90469" lon="5.42827">
        <ele>854</ele>
        <time>2020-05-21T17:56:50.536Z</time>
      </trkpt>
      <trkpt lat="44.90467" lon="5.42826">
        <ele>854</ele>
        <time>2020-05-21T17:56:51.536Z</time>
      </trkpt>
      <trkpt lat="44.90465" lon="5.42824">
        <ele>854</ele>
        <time>2020-05-21T17:56:52.535Z</time>
      </trkpt>
      <trkpt lat="44.90463" lon="5.42823">
        <ele>854</ele>
        <time>2020-05-21T17:56:53.536Z</time>
      </trkpt>
      <trkpt lat="44.9046" lon="5.42822">
        <ele>854</ele>
        <time>2020-05-21T17:56:54.535Z</time>
      </trkpt>
      <trkpt lat="44.90458" lon="5.42821">
        <ele>855</ele>
        <time>2020-05-21T17:56:55.536Z</time>
      </trkpt>
      <trkpt lat="44.90456" lon="5.4282">
        <ele>855</ele>
        <time>2020-05-21T17:56:56.535Z</time>
      </trkpt>
      <trkpt lat="44.90453" lon="5.42818">
        <ele>855</ele>
        <time>2020-05-21T17:56:57.536Z</time>
      </trkpt>
      <trkpt lat="44.90451" lon="5.42817">
        <ele>855</ele>
        <time>2020-05-21T17:56:58.536Z</time>
      </trkpt>
      <trkpt lat="44.90449" lon="5.42816">
        <ele>855</ele>
        <time>2020-05-21T17:56:59.536Z</time>
      </trkpt>
      <trkpt lat="44.90446" lon="5.42815">
        <ele>855</ele>
        <time>2020-05-21T17:57:00.535Z</time>
      </trkpt>
      <trkpt lat="44.90444" lon="5.42815">
        <ele>855</ele>
        <time>2020-05-21T17:57:01.536Z</time>
      </trkpt>
      <trkpt lat="44.90442" lon="5.42814">
        <ele>855</ele>
        <time>2020-05-21T17:57:02.536Z</time>
      </trkpt>
      <trkpt lat="44.9044" lon="5.42812">
        <ele>854</ele>
        <time>2020-05-21T17:57:03.535Z</time>
      </trkpt>
      <trkpt lat="44.90437" lon="5.42811">
        <ele>854</ele>
        <time>2020-05-21T17:57:04.536Z</time>
      </trkpt>
      <trkpt lat="44.90435" lon="5.4281">
        <ele>854</ele>
        <time>2020-05-21T17:57:05.535Z</time>
      </trkpt>
      <trkpt lat="44.90433" lon="5.42809">
        <ele>854</ele>
        <time>2020-05-21T17:57:06.536Z</time>
      </trkpt>
      <trkpt lat="44.9043" lon="5.42808">
        <ele>854</ele>
        <time>2020-05-21T17:57:07.535Z</time>
      </trkpt>
      <trkpt lat="44.90428" lon="5.42806">
        <ele>854</ele>
        <time>2020-05-21T17:57:08.536Z</time>
      </trkpt>
      <trkpt lat="44.90426" lon="5.42805">
        <ele>854</ele>
        <time>2020-05-21T17:57:09.536Z</time>
      </trkpt>
      <trkpt lat="44.90424" lon="5.42804">
        <ele>853</ele>
        <time>2020-05-21T17:57:10.535Z</time>
      </trkpt>
      <trkpt lat="44.90422" lon="5.42803">
        <ele>853</ele>
        <time>2020-05-21T17:57:11.536Z</time>
      </trkpt>
      <trkpt lat="44.90419" lon="5.42802">
        <ele>853</ele>
        <time>2020-05-21T17:57:12.535Z</time>
      </trkpt>
      <trkpt lat="44.90417" lon="5.42801">
        <ele>852</ele>
        <time>2020-05-21T17:57:13.536Z</time>
      </trkpt>
      <trkpt lat="44.90414" lon="5.42801">
        <ele>852</ele>
        <time>2020-05-21T17:57:14.536Z</time>
      </trkpt>
      <trkpt lat="44.90412" lon="5.428">
        <ele>852</ele>
        <time>2020-05-21T17:57:15.535Z</time>
      </trkpt>
      <trkpt lat="44.9041" lon="5.42799">
        <ele>852</ele>
        <time>2020-05-21T17:57:16.536Z</time>
      </trkpt>
      <trkpt lat="44.90407" lon="5.42798">
        <ele>852</ele>
        <time>2020-05-21T17:57:17.536Z</time>
      </trkpt>
      <trkpt lat="44.90405" lon="5.42797">
        <ele>852</ele>
        <time>2020-05-21T17:57:18.535Z</time>
      </trkpt>
      <trkpt lat="44.90403" lon="5.42796">
        <ele>852</ele>
        <time>2020-05-21T17:57:19.535Z</time>
      </trkpt>
      <trkpt lat="44.904" lon="5.42796">
        <ele>852</ele>
        <time>2020-05-21T17:57:20.535Z</time>
      </trkpt>
      <trkpt lat="44.90398" lon="5.42795">
        <ele>852</ele>
        <time>2020-05-21T17:57:21.536Z</time>
      </trkpt>
      <trkpt lat="44.90396" lon="5.42796">
        <ele>852</ele>
        <time>2020-05-21T17:57:22.536Z</time>
      </trkpt>
      <trkpt lat="44.90394" lon="5.42797">
        <ele>852</ele>
        <time>2020-05-21T17:57:23.536Z</time>
      </trkpt>
      <trkpt lat="44.90393" lon="5.42798">
        <ele>852</ele>
        <time>2020-05-21T17:57:24.535Z</time>
      </trkpt>
    </trkseg>
  </trk>
</gpx>